<?xml version="1.0" encoding="UTF-8" standalone="no" ?>
<gpx xmlns="http://www.topografix.com/GPX/1/1" xmlns:xsi="http://www.w3.org/2001/XMLSchema-instance" xsi:schemaLocation="http://www.topografix.com/GPX/1/1 http://www.topografix.com/GPX/1/1/gpx.xsd" version="1.1" creator="VisuGPX - https://www.visugpx.com">
  <metadata>
    <name>Drumettaz -&gt; Mozas avec Flora</name>
  </metadata>
  <trk>
    <name><![CDATA[Drumettaz -> Mozas avec Flora_1]]></name>
    <trkseg>
      <trkpt lat="45.64987" lon="5.91304">
        <ele>271</ele>
        <time>2022-04-16T06:26:52.703Z</time>
      </trkpt>
      <trkpt lat="45.64987" lon="5.91304">
        <ele>271</ele>
        <time>2022-04-16T06:26:53.706Z</time>
      </trkpt>
      <trkpt lat="45.64987" lon="5.91304">
        <ele>272</ele>
        <time>2022-04-16T06:26:54.705Z</time>
      </trkpt>
      <trkpt lat="45.64987" lon="5.91304">
        <ele>272</ele>
        <time>2022-04-16T06:26:55.705Z</time>
      </trkpt>
      <trkpt lat="45.64987" lon="5.91304">
        <ele>272</ele>
        <time>2022-04-16T06:26:56.706Z</time>
      </trkpt>
      <trkpt lat="45.64987" lon="5.91304">
        <ele>272</ele>
        <time>2022-04-16T06:26:57.706Z</time>
      </trkpt>
      <trkpt lat="45.64987" lon="5.91304">
        <ele>272</ele>
        <time>2022-04-16T06:26:58.705Z</time>
      </trkpt>
      <trkpt lat="45.64987" lon="5.91304">
        <ele>272</ele>
        <time>2022-04-16T06:26:59.706Z</time>
      </trkpt>
      <trkpt lat="45.64986" lon="5.91304">
        <ele>272</ele>
        <time>2022-04-16T06:27:00.706Z</time>
      </trkpt>
      <trkpt lat="45.64983" lon="5.91304">
        <ele>272</ele>
        <time>2022-04-16T06:27:01.706Z</time>
      </trkpt>
      <trkpt lat="45.6498" lon="5.91304">
        <ele>272</ele>
        <time>2022-04-16T06:27:02.706Z</time>
      </trkpt>
      <trkpt lat="45.64976" lon="5.91304">
        <ele>272</ele>
        <time>2022-04-16T06:27:03.706Z</time>
      </trkpt>
      <trkpt lat="45.64972" lon="5.91303">
        <ele>272</ele>
        <time>2022-04-16T06:27:04.706Z</time>
      </trkpt>
      <trkpt lat="45.64968" lon="5.91302">
        <ele>272</ele>
        <time>2022-04-16T06:27:05.706Z</time>
      </trkpt>
      <trkpt lat="45.64965" lon="5.91301">
        <ele>272</ele>
        <time>2022-04-16T06:27:06.706Z</time>
      </trkpt>
      <trkpt lat="45.64962" lon="5.91298">
        <ele>273</ele>
        <time>2022-04-16T06:27:07.706Z</time>
      </trkpt>
      <trkpt lat="45.6496" lon="5.91295">
        <ele>273</ele>
        <time>2022-04-16T06:27:08.706Z</time>
      </trkpt>
      <trkpt lat="45.64959" lon="5.91291">
        <ele>273</ele>
        <time>2022-04-16T06:27:09.706Z</time>
      </trkpt>
      <trkpt lat="45.6496" lon="5.91286">
        <ele>273</ele>
        <time>2022-04-16T06:27:10.705Z</time>
      </trkpt>
      <trkpt lat="45.6496" lon="5.9128">
        <ele>273</ele>
        <time>2022-04-16T06:27:11.705Z</time>
      </trkpt>
      <trkpt lat="45.64961" lon="5.91274">
        <ele>274</ele>
        <time>2022-04-16T06:27:12.706Z</time>
      </trkpt>
      <trkpt lat="45.64961" lon="5.91268">
        <ele>274</ele>
        <time>2022-04-16T06:27:13.705Z</time>
      </trkpt>
      <trkpt lat="45.64961" lon="5.91262">
        <ele>274</ele>
        <time>2022-04-16T06:27:14.705Z</time>
      </trkpt>
      <trkpt lat="45.64961" lon="5.91255">
        <ele>274</ele>
        <time>2022-04-16T06:27:15.705Z</time>
      </trkpt>
      <trkpt lat="45.64961" lon="5.91248">
        <ele>274</ele>
        <time>2022-04-16T06:27:16.705Z</time>
      </trkpt>
      <trkpt lat="45.6496" lon="5.91241">
        <ele>274</ele>
        <time>2022-04-16T06:27:17.706Z</time>
      </trkpt>
      <trkpt lat="45.6496" lon="5.91234">
        <ele>274</ele>
        <time>2022-04-16T06:27:18.706Z</time>
      </trkpt>
      <trkpt lat="45.6496" lon="5.91228">
        <ele>275</ele>
        <time>2022-04-16T06:27:19.705Z</time>
      </trkpt>
      <trkpt lat="45.64959" lon="5.91222">
        <ele>275</ele>
        <time>2022-04-16T06:27:20.706Z</time>
      </trkpt>
      <trkpt lat="45.64959" lon="5.91215">
        <ele>275</ele>
        <time>2022-04-16T06:27:21.706Z</time>
      </trkpt>
      <trkpt lat="45.64958" lon="5.9121">
        <ele>276</ele>
        <time>2022-04-16T06:27:22.705Z</time>
      </trkpt>
      <trkpt lat="45.64958" lon="5.91204">
        <ele>276</ele>
        <time>2022-04-16T06:27:23.706Z</time>
      </trkpt>
      <trkpt lat="45.64957" lon="5.91198">
        <ele>276</ele>
        <time>2022-04-16T06:27:24.706Z</time>
      </trkpt>
      <trkpt lat="45.64957" lon="5.91193">
        <ele>276</ele>
        <time>2022-04-16T06:27:25.706Z</time>
      </trkpt>
      <trkpt lat="45.64956" lon="5.91187">
        <ele>277</ele>
        <time>2022-04-16T06:27:26.706Z</time>
      </trkpt>
      <trkpt lat="45.64956" lon="5.91182">
        <ele>277</ele>
        <time>2022-04-16T06:27:27.706Z</time>
      </trkpt>
      <trkpt lat="45.64956" lon="5.91176">
        <ele>277</ele>
        <time>2022-04-16T06:27:28.706Z</time>
      </trkpt>
      <trkpt lat="45.64957" lon="5.91171">
        <ele>277</ele>
        <time>2022-04-16T06:27:29.706Z</time>
      </trkpt>
      <trkpt lat="45.64957" lon="5.91166">
        <ele>277</ele>
        <time>2022-04-16T06:27:30.706Z</time>
      </trkpt>
      <trkpt lat="45.64957" lon="5.91162">
        <ele>277</ele>
        <time>2022-04-16T06:27:31.706Z</time>
      </trkpt>
      <trkpt lat="45.64958" lon="5.91157">
        <ele>277</ele>
        <time>2022-04-16T06:27:32.706Z</time>
      </trkpt>
      <trkpt lat="45.64958" lon="5.91153">
        <ele>276</ele>
        <time>2022-04-16T06:27:33.705Z</time>
      </trkpt>
      <trkpt lat="45.64959" lon="5.91148">
        <ele>276</ele>
        <time>2022-04-16T06:27:34.706Z</time>
      </trkpt>
      <trkpt lat="45.6496" lon="5.91143">
        <ele>276</ele>
        <time>2022-04-16T06:27:35.706Z</time>
      </trkpt>
      <trkpt lat="45.64961" lon="5.91139">
        <ele>276</ele>
        <time>2022-04-16T06:27:36.705Z</time>
      </trkpt>
      <trkpt lat="45.64963" lon="5.91134">
        <ele>277</ele>
        <time>2022-04-16T06:27:37.706Z</time>
      </trkpt>
      <trkpt lat="45.64965" lon="5.91129">
        <ele>278</ele>
        <time>2022-04-16T06:27:38.705Z</time>
      </trkpt>
      <trkpt lat="45.64967" lon="5.91124">
        <ele>278</ele>
        <time>2022-04-16T06:27:39.706Z</time>
      </trkpt>
      <trkpt lat="45.64969" lon="5.91119">
        <ele>278</ele>
        <time>2022-04-16T06:27:40.706Z</time>
      </trkpt>
      <trkpt lat="45.64971" lon="5.91115">
        <ele>278</ele>
        <time>2022-04-16T06:27:41.706Z</time>
      </trkpt>
      <trkpt lat="45.64973" lon="5.9111">
        <ele>278</ele>
        <time>2022-04-16T06:27:42.706Z</time>
      </trkpt>
      <trkpt lat="45.64975" lon="5.91106">
        <ele>278</ele>
        <time>2022-04-16T06:27:43.706Z</time>
      </trkpt>
      <trkpt lat="45.64978" lon="5.91101">
        <ele>278</ele>
        <time>2022-04-16T06:27:44.705Z</time>
      </trkpt>
      <trkpt lat="45.6498" lon="5.91097">
        <ele>278</ele>
        <time>2022-04-16T06:27:45.706Z</time>
      </trkpt>
      <trkpt lat="45.64982" lon="5.91092">
        <ele>278</ele>
        <time>2022-04-16T06:27:46.706Z</time>
      </trkpt>
      <trkpt lat="45.64985" lon="5.91088">
        <ele>278</ele>
        <time>2022-04-16T06:27:47.706Z</time>
      </trkpt>
      <trkpt lat="45.64987" lon="5.91084">
        <ele>278</ele>
        <time>2022-04-16T06:27:48.706Z</time>
      </trkpt>
      <trkpt lat="45.6499" lon="5.91079">
        <ele>278</ele>
        <time>2022-04-16T06:27:49.706Z</time>
      </trkpt>
      <trkpt lat="45.64992" lon="5.91075">
        <ele>277</ele>
        <time>2022-04-16T06:27:50.705Z</time>
      </trkpt>
      <trkpt lat="45.64995" lon="5.9107">
        <ele>277</ele>
        <time>2022-04-16T06:27:51.706Z</time>
      </trkpt>
      <trkpt lat="45.64997" lon="5.91065">
        <ele>277</ele>
        <time>2022-04-16T06:27:52.706Z</time>
      </trkpt>
      <trkpt lat="45.65" lon="5.9106">
        <ele>278</ele>
        <time>2022-04-16T06:27:53.706Z</time>
      </trkpt>
      <trkpt lat="45.65003" lon="5.91055">
        <ele>278</ele>
        <time>2022-04-16T06:27:54.705Z</time>
      </trkpt>
      <trkpt lat="45.65006" lon="5.91049">
        <ele>278</ele>
        <time>2022-04-16T06:27:55.706Z</time>
      </trkpt>
      <trkpt lat="45.65008" lon="5.91043">
        <ele>278</ele>
        <time>2022-04-16T06:27:56.706Z</time>
      </trkpt>
      <trkpt lat="45.6501" lon="5.91038">
        <ele>278</ele>
        <time>2022-04-16T06:27:57.705Z</time>
      </trkpt>
      <trkpt lat="45.65013" lon="5.91032">
        <ele>278</ele>
        <time>2022-04-16T06:27:58.706Z</time>
      </trkpt>
      <trkpt lat="45.65014" lon="5.91026">
        <ele>278</ele>
        <time>2022-04-16T06:27:59.706Z</time>
      </trkpt>
      <trkpt lat="45.65015" lon="5.9102">
        <ele>278</ele>
        <time>2022-04-16T06:28:00.706Z</time>
      </trkpt>
      <trkpt lat="45.65015" lon="5.91015">
        <ele>278</ele>
        <time>2022-04-16T06:28:01.706Z</time>
      </trkpt>
      <trkpt lat="45.65014" lon="5.91009">
        <ele>278</ele>
        <time>2022-04-16T06:28:02.706Z</time>
      </trkpt>
      <trkpt lat="45.65013" lon="5.91004">
        <ele>278</ele>
        <time>2022-04-16T06:28:03.705Z</time>
      </trkpt>
      <trkpt lat="45.65012" lon="5.90998">
        <ele>278</ele>
        <time>2022-04-16T06:28:04.706Z</time>
      </trkpt>
      <trkpt lat="45.65011" lon="5.90993">
        <ele>277</ele>
        <time>2022-04-16T06:28:05.706Z</time>
      </trkpt>
      <trkpt lat="45.6501" lon="5.90987">
        <ele>277</ele>
        <time>2022-04-16T06:28:06.706Z</time>
      </trkpt>
      <trkpt lat="45.65009" lon="5.90982">
        <ele>277</ele>
        <time>2022-04-16T06:28:07.706Z</time>
      </trkpt>
      <trkpt lat="45.65008" lon="5.90977">
        <ele>277</ele>
        <time>2022-04-16T06:28:08.706Z</time>
      </trkpt>
      <trkpt lat="45.65007" lon="5.90972">
        <ele>277</ele>
        <time>2022-04-16T06:28:09.706Z</time>
      </trkpt>
      <trkpt lat="45.65006" lon="5.90968">
        <ele>276</ele>
        <time>2022-04-16T06:28:10.706Z</time>
      </trkpt>
      <trkpt lat="45.65005" lon="5.90963">
        <ele>276</ele>
        <time>2022-04-16T06:28:11.706Z</time>
      </trkpt>
      <trkpt lat="45.65004" lon="5.90958">
        <ele>277</ele>
        <time>2022-04-16T06:28:12.706Z</time>
      </trkpt>
      <trkpt lat="45.65003" lon="5.90953">
        <ele>277</ele>
        <time>2022-04-16T06:28:13.706Z</time>
      </trkpt>
      <trkpt lat="45.65002" lon="5.90948">
        <ele>277</ele>
        <time>2022-04-16T06:28:14.706Z</time>
      </trkpt>
      <trkpt lat="45.65" lon="5.90942">
        <ele>277</ele>
        <time>2022-04-16T06:28:15.705Z</time>
      </trkpt>
      <trkpt lat="45.64999" lon="5.90937">
        <ele>277</ele>
        <time>2022-04-16T06:28:16.706Z</time>
      </trkpt>
      <trkpt lat="45.64998" lon="5.90933">
        <ele>277</ele>
        <time>2022-04-16T06:28:17.706Z</time>
      </trkpt>
      <trkpt lat="45.64996" lon="5.90928">
        <ele>277</ele>
        <time>2022-04-16T06:28:18.705Z</time>
      </trkpt>
      <trkpt lat="45.64996" lon="5.90923">
        <ele>277</ele>
        <time>2022-04-16T06:28:19.706Z</time>
      </trkpt>
      <trkpt lat="45.64995" lon="5.90919">
        <ele>278</ele>
        <time>2022-04-16T06:28:20.705Z</time>
      </trkpt>
      <trkpt lat="45.64993" lon="5.90915">
        <ele>278</ele>
        <time>2022-04-16T06:28:21.706Z</time>
      </trkpt>
      <trkpt lat="45.64993" lon="5.90911">
        <ele>277</ele>
        <time>2022-04-16T06:28:22.705Z</time>
      </trkpt>
      <trkpt lat="45.64992" lon="5.90908">
        <ele>277</ele>
        <time>2022-04-16T06:28:23.705Z</time>
      </trkpt>
      <trkpt lat="45.64992" lon="5.90905">
        <ele>277</ele>
        <time>2022-04-16T06:28:24.706Z</time>
      </trkpt>
      <trkpt lat="45.64991" lon="5.90902">
        <ele>278</ele>
        <time>2022-04-16T06:28:25.706Z</time>
      </trkpt>
      <trkpt lat="45.64991" lon="5.90899">
        <ele>277</ele>
        <time>2022-04-16T06:28:26.705Z</time>
      </trkpt>
      <trkpt lat="45.64991" lon="5.90897">
        <ele>277</ele>
        <time>2022-04-16T06:28:27.705Z</time>
      </trkpt>
      <trkpt lat="45.6499" lon="5.90895">
        <ele>278</ele>
        <time>2022-04-16T06:28:28.706Z</time>
      </trkpt>
      <trkpt lat="45.64988" lon="5.90893">
        <ele>277</ele>
        <time>2022-04-16T06:28:29.706Z</time>
      </trkpt>
      <trkpt lat="45.64987" lon="5.90891">
        <ele>277</ele>
        <time>2022-04-16T06:28:30.706Z</time>
      </trkpt>
      <trkpt lat="45.64985" lon="5.90889">
        <ele>277</ele>
        <time>2022-04-16T06:28:31.706Z</time>
      </trkpt>
      <trkpt lat="45.64983" lon="5.90886">
        <ele>277</ele>
        <time>2022-04-16T06:28:32.706Z</time>
      </trkpt>
      <trkpt lat="45.64982" lon="5.90882">
        <ele>277</ele>
        <time>2022-04-16T06:28:33.706Z</time>
      </trkpt>
      <trkpt lat="45.6498" lon="5.90878">
        <ele>277</ele>
        <time>2022-04-16T06:28:34.705Z</time>
      </trkpt>
      <trkpt lat="45.64979" lon="5.90873">
        <ele>278</ele>
        <time>2022-04-16T06:28:35.706Z</time>
      </trkpt>
      <trkpt lat="45.64978" lon="5.90868">
        <ele>278</ele>
        <time>2022-04-16T06:28:36.706Z</time>
      </trkpt>
      <trkpt lat="45.64978" lon="5.90863">
        <ele>277</ele>
        <time>2022-04-16T06:28:37.706Z</time>
      </trkpt>
      <trkpt lat="45.64977" lon="5.90858">
        <ele>277</ele>
        <time>2022-04-16T06:28:38.706Z</time>
      </trkpt>
      <trkpt lat="45.64976" lon="5.90853">
        <ele>276</ele>
        <time>2022-04-16T06:28:39.705Z</time>
      </trkpt>
      <trkpt lat="45.64975" lon="5.90847">
        <ele>276</ele>
        <time>2022-04-16T06:28:40.705Z</time>
      </trkpt>
      <trkpt lat="45.64974" lon="5.90842">
        <ele>276</ele>
        <time>2022-04-16T06:28:41.706Z</time>
      </trkpt>
      <trkpt lat="45.64973" lon="5.90836">
        <ele>276</ele>
        <time>2022-04-16T06:28:42.706Z</time>
      </trkpt>
      <trkpt lat="45.64972" lon="5.90831">
        <ele>276</ele>
        <time>2022-04-16T06:28:43.706Z</time>
      </trkpt>
      <trkpt lat="45.64971" lon="5.90825">
        <ele>277</ele>
        <time>2022-04-16T06:28:44.705Z</time>
      </trkpt>
      <trkpt lat="45.64971" lon="5.90819">
        <ele>277</ele>
        <time>2022-04-16T06:28:45.706Z</time>
      </trkpt>
      <trkpt lat="45.6497" lon="5.90814">
        <ele>277</ele>
        <time>2022-04-16T06:28:46.705Z</time>
      </trkpt>
      <trkpt lat="45.6497" lon="5.90808">
        <ele>277</ele>
        <time>2022-04-16T06:28:47.705Z</time>
      </trkpt>
      <trkpt lat="45.6497" lon="5.90803">
        <ele>278</ele>
        <time>2022-04-16T06:28:48.705Z</time>
      </trkpt>
      <trkpt lat="45.6497" lon="5.90798">
        <ele>278</ele>
        <time>2022-04-16T06:28:49.706Z</time>
      </trkpt>
      <trkpt lat="45.6497" lon="5.90792">
        <ele>278</ele>
        <time>2022-04-16T06:28:50.705Z</time>
      </trkpt>
      <trkpt lat="45.64969" lon="5.90787">
        <ele>278</ele>
        <time>2022-04-16T06:28:51.705Z</time>
      </trkpt>
      <trkpt lat="45.64969" lon="5.90781">
        <ele>279</ele>
        <time>2022-04-16T06:28:52.705Z</time>
      </trkpt>
      <trkpt lat="45.64969" lon="5.90776">
        <ele>278</ele>
        <time>2022-04-16T06:28:53.706Z</time>
      </trkpt>
      <trkpt lat="45.64969" lon="5.90771">
        <ele>278</ele>
        <time>2022-04-16T06:28:54.706Z</time>
      </trkpt>
      <trkpt lat="45.64969" lon="5.90765">
        <ele>278</ele>
        <time>2022-04-16T06:28:55.706Z</time>
      </trkpt>
      <trkpt lat="45.64968" lon="5.9076">
        <ele>278</ele>
        <time>2022-04-16T06:28:56.706Z</time>
      </trkpt>
      <trkpt lat="45.64968" lon="5.90754">
        <ele>278</ele>
        <time>2022-04-16T06:28:57.706Z</time>
      </trkpt>
      <trkpt lat="45.64968" lon="5.90749">
        <ele>278</ele>
        <time>2022-04-16T06:28:58.705Z</time>
      </trkpt>
      <trkpt lat="45.64968" lon="5.90744">
        <ele>278</ele>
        <time>2022-04-16T06:28:59.706Z</time>
      </trkpt>
      <trkpt lat="45.64967" lon="5.90739">
        <ele>278</ele>
        <time>2022-04-16T06:29:00.706Z</time>
      </trkpt>
      <trkpt lat="45.64967" lon="5.90733">
        <ele>278</ele>
        <time>2022-04-16T06:29:01.706Z</time>
      </trkpt>
      <trkpt lat="45.64967" lon="5.90728">
        <ele>278</ele>
        <time>2022-04-16T06:29:02.706Z</time>
      </trkpt>
      <trkpt lat="45.64967" lon="5.90723">
        <ele>278</ele>
        <time>2022-04-16T06:29:03.705Z</time>
      </trkpt>
      <trkpt lat="45.64967" lon="5.90718">
        <ele>278</ele>
        <time>2022-04-16T06:29:04.706Z</time>
      </trkpt>
      <trkpt lat="45.64967" lon="5.90713">
        <ele>278</ele>
        <time>2022-04-16T06:29:05.705Z</time>
      </trkpt>
      <trkpt lat="45.64967" lon="5.90708">
        <ele>278</ele>
        <time>2022-04-16T06:29:06.706Z</time>
      </trkpt>
      <trkpt lat="45.64967" lon="5.90702">
        <ele>278</ele>
        <time>2022-04-16T06:29:07.705Z</time>
      </trkpt>
      <trkpt lat="45.64966" lon="5.90697">
        <ele>278</ele>
        <time>2022-04-16T06:29:08.705Z</time>
      </trkpt>
      <trkpt lat="45.64966" lon="5.90692">
        <ele>278</ele>
        <time>2022-04-16T06:29:09.706Z</time>
      </trkpt>
      <trkpt lat="45.64966" lon="5.90687">
        <ele>279</ele>
        <time>2022-04-16T06:29:10.706Z</time>
      </trkpt>
      <trkpt lat="45.64966" lon="5.90682">
        <ele>279</ele>
        <time>2022-04-16T06:29:11.706Z</time>
      </trkpt>
      <trkpt lat="45.64966" lon="5.90677">
        <ele>278</ele>
        <time>2022-04-16T06:29:12.706Z</time>
      </trkpt>
      <trkpt lat="45.64966" lon="5.90672">
        <ele>278</ele>
        <time>2022-04-16T06:29:13.706Z</time>
      </trkpt>
      <trkpt lat="45.64967" lon="5.90667">
        <ele>278</ele>
        <time>2022-04-16T06:29:14.706Z</time>
      </trkpt>
      <trkpt lat="45.64967" lon="5.90662">
        <ele>278</ele>
        <time>2022-04-16T06:29:15.705Z</time>
      </trkpt>
      <trkpt lat="45.64967" lon="5.90657">
        <ele>278</ele>
        <time>2022-04-16T06:29:16.706Z</time>
      </trkpt>
      <trkpt lat="45.64967" lon="5.90652">
        <ele>277</ele>
        <time>2022-04-16T06:29:17.706Z</time>
      </trkpt>
      <trkpt lat="45.64967" lon="5.90647">
        <ele>277</ele>
        <time>2022-04-16T06:29:18.706Z</time>
      </trkpt>
      <trkpt lat="45.64966" lon="5.90642">
        <ele>277</ele>
        <time>2022-04-16T06:29:19.705Z</time>
      </trkpt>
      <trkpt lat="45.64966" lon="5.90636">
        <ele>277</ele>
        <time>2022-04-16T06:29:20.706Z</time>
      </trkpt>
      <trkpt lat="45.64966" lon="5.90631">
        <ele>277</ele>
        <time>2022-04-16T06:29:21.706Z</time>
      </trkpt>
      <trkpt lat="45.64966" lon="5.90625">
        <ele>277</ele>
        <time>2022-04-16T06:29:22.706Z</time>
      </trkpt>
      <trkpt lat="45.64966" lon="5.9062">
        <ele>278</ele>
        <time>2022-04-16T06:29:23.706Z</time>
      </trkpt>
      <trkpt lat="45.64965" lon="5.90615">
        <ele>278</ele>
        <time>2022-04-16T06:29:24.706Z</time>
      </trkpt>
      <trkpt lat="45.64965" lon="5.90609">
        <ele>278</ele>
        <time>2022-04-16T06:29:25.706Z</time>
      </trkpt>
      <trkpt lat="45.64965" lon="5.90604">
        <ele>278</ele>
        <time>2022-04-16T06:29:26.706Z</time>
      </trkpt>
      <trkpt lat="45.64964" lon="5.90599">
        <ele>278</ele>
        <time>2022-04-16T06:29:27.706Z</time>
      </trkpt>
      <trkpt lat="45.64963" lon="5.90593">
        <ele>279</ele>
        <time>2022-04-16T06:29:28.705Z</time>
      </trkpt>
      <trkpt lat="45.64963" lon="5.90588">
        <ele>279</ele>
        <time>2022-04-16T06:29:29.706Z</time>
      </trkpt>
      <trkpt lat="45.64963" lon="5.90582">
        <ele>278</ele>
        <time>2022-04-16T06:29:30.706Z</time>
      </trkpt>
      <trkpt lat="45.64963" lon="5.90577">
        <ele>278</ele>
        <time>2022-04-16T06:29:31.706Z</time>
      </trkpt>
      <trkpt lat="45.64963" lon="5.90571">
        <ele>277</ele>
        <time>2022-04-16T06:29:32.706Z</time>
      </trkpt>
      <trkpt lat="45.64963" lon="5.90564">
        <ele>277</ele>
        <time>2022-04-16T06:29:33.706Z</time>
      </trkpt>
      <trkpt lat="45.64962" lon="5.90558">
        <ele>277</ele>
        <time>2022-04-16T06:29:34.706Z</time>
      </trkpt>
      <trkpt lat="45.64962" lon="5.90551">
        <ele>277</ele>
        <time>2022-04-16T06:29:35.706Z</time>
      </trkpt>
      <trkpt lat="45.64962" lon="5.90544">
        <ele>276</ele>
        <time>2022-04-16T06:29:36.705Z</time>
      </trkpt>
      <trkpt lat="45.64962" lon="5.90538">
        <ele>276</ele>
        <time>2022-04-16T06:29:37.706Z</time>
      </trkpt>
      <trkpt lat="45.64961" lon="5.90532">
        <ele>276</ele>
        <time>2022-04-16T06:29:38.706Z</time>
      </trkpt>
      <trkpt lat="45.64961" lon="5.90526">
        <ele>276</ele>
        <time>2022-04-16T06:29:39.706Z</time>
      </trkpt>
      <trkpt lat="45.64962" lon="5.9052">
        <ele>276</ele>
        <time>2022-04-16T06:29:40.706Z</time>
      </trkpt>
      <trkpt lat="45.64963" lon="5.90516">
        <ele>276</ele>
        <time>2022-04-16T06:29:41.706Z</time>
      </trkpt>
      <trkpt lat="45.64964" lon="5.90512">
        <ele>276</ele>
        <time>2022-04-16T06:29:42.706Z</time>
      </trkpt>
      <trkpt lat="45.64967" lon="5.9051">
        <ele>276</ele>
        <time>2022-04-16T06:29:43.706Z</time>
      </trkpt>
      <trkpt lat="45.64971" lon="5.90509">
        <ele>276</ele>
        <time>2022-04-16T06:29:44.705Z</time>
      </trkpt>
      <trkpt lat="45.64975" lon="5.90508">
        <ele>276</ele>
        <time>2022-04-16T06:29:45.706Z</time>
      </trkpt>
      <trkpt lat="45.64979" lon="5.90507">
        <ele>275</ele>
        <time>2022-04-16T06:29:46.705Z</time>
      </trkpt>
      <trkpt lat="45.64983" lon="5.90506">
        <ele>275</ele>
        <time>2022-04-16T06:29:47.706Z</time>
      </trkpt>
      <trkpt lat="45.64987" lon="5.90504">
        <ele>275</ele>
        <time>2022-04-16T06:29:48.706Z</time>
      </trkpt>
      <trkpt lat="45.64991" lon="5.90503">
        <ele>275</ele>
        <time>2022-04-16T06:29:49.706Z</time>
      </trkpt>
      <trkpt lat="45.64996" lon="5.90501">
        <ele>275</ele>
        <time>2022-04-16T06:29:50.705Z</time>
      </trkpt>
      <trkpt lat="45.65001" lon="5.90498">
        <ele>275</ele>
        <time>2022-04-16T06:29:51.706Z</time>
      </trkpt>
      <trkpt lat="45.65006" lon="5.90496">
        <ele>275</ele>
        <time>2022-04-16T06:29:52.706Z</time>
      </trkpt>
      <trkpt lat="45.6501" lon="5.90492">
        <ele>275</ele>
        <time>2022-04-16T06:29:53.705Z</time>
      </trkpt>
      <trkpt lat="45.65014" lon="5.90488">
        <ele>275</ele>
        <time>2022-04-16T06:29:54.706Z</time>
      </trkpt>
      <trkpt lat="45.65019" lon="5.90483">
        <ele>275</ele>
        <time>2022-04-16T06:29:55.706Z</time>
      </trkpt>
      <trkpt lat="45.65023" lon="5.90479">
        <ele>275</ele>
        <time>2022-04-16T06:29:56.705Z</time>
      </trkpt>
      <trkpt lat="45.65027" lon="5.90474">
        <ele>275</ele>
        <time>2022-04-16T06:29:57.705Z</time>
      </trkpt>
      <trkpt lat="45.6503" lon="5.90469">
        <ele>276</ele>
        <time>2022-04-16T06:29:58.706Z</time>
      </trkpt>
      <trkpt lat="45.65031" lon="5.90466">
        <ele>277</ele>
        <time>2022-04-16T06:29:59.706Z</time>
      </trkpt>
      <trkpt lat="45.65032" lon="5.90463">
        <ele>277</ele>
        <time>2022-04-16T06:30:00.705Z</time>
      </trkpt>
      <trkpt lat="45.65033" lon="5.9046">
        <ele>278</ele>
        <time>2022-04-16T06:30:01.705Z</time>
      </trkpt>
      <trkpt lat="45.65033" lon="5.90459">
        <ele>278</ele>
        <time>2022-04-16T06:30:02.706Z</time>
      </trkpt>
      <trkpt lat="45.65034" lon="5.90459">
        <ele>279</ele>
        <time>2022-04-16T06:30:03.706Z</time>
      </trkpt>
      <trkpt lat="45.65034" lon="5.90459">
        <ele>279</ele>
        <time>2022-04-16T06:30:04.706Z</time>
      </trkpt>
      <trkpt lat="45.65034" lon="5.90459">
        <ele>279</ele>
        <time>2022-04-16T06:30:05.705Z</time>
      </trkpt>
      <trkpt lat="45.65032" lon="5.90461">
        <ele>279</ele>
        <time>2022-04-16T06:30:11.769Z</time>
      </trkpt>
      <trkpt lat="45.65032" lon="5.90461">
        <ele>279</ele>
        <time>2022-04-16T06:30:12.769Z</time>
      </trkpt>
      <trkpt lat="45.65033" lon="5.90458">
        <ele>275</ele>
        <time>2022-04-16T06:33:19.555Z</time>
      </trkpt>
      <trkpt lat="45.65033" lon="5.90455">
        <ele>275</ele>
        <time>2022-04-16T06:33:20.555Z</time>
      </trkpt>
      <trkpt lat="45.65034" lon="5.90453">
        <ele>274</ele>
        <time>2022-04-16T06:33:21.554Z</time>
      </trkpt>
      <trkpt lat="45.65035" lon="5.90449">
        <ele>274</ele>
        <time>2022-04-16T06:33:22.555Z</time>
      </trkpt>
      <trkpt lat="45.65036" lon="5.90445">
        <ele>274</ele>
        <time>2022-04-16T06:33:23.554Z</time>
      </trkpt>
      <trkpt lat="45.65037" lon="5.90441">
        <ele>274</ele>
        <time>2022-04-16T06:33:24.555Z</time>
      </trkpt>
      <trkpt lat="45.65038" lon="5.90435">
        <ele>274</ele>
        <time>2022-04-16T06:33:25.555Z</time>
      </trkpt>
      <trkpt lat="45.6504" lon="5.90429">
        <ele>274</ele>
        <time>2022-04-16T06:33:26.555Z</time>
      </trkpt>
      <trkpt lat="45.65041" lon="5.90424">
        <ele>273</ele>
        <time>2022-04-16T06:33:27.555Z</time>
      </trkpt>
      <trkpt lat="45.65043" lon="5.90418">
        <ele>273</ele>
        <time>2022-04-16T06:33:28.554Z</time>
      </trkpt>
      <trkpt lat="45.65046" lon="5.90412">
        <ele>273</ele>
        <time>2022-04-16T06:33:29.555Z</time>
      </trkpt>
      <trkpt lat="45.65049" lon="5.90405">
        <ele>272</ele>
        <time>2022-04-16T06:33:30.555Z</time>
      </trkpt>
      <trkpt lat="45.65052" lon="5.90397">
        <ele>271</ele>
        <time>2022-04-16T06:33:31.555Z</time>
      </trkpt>
      <trkpt lat="45.65055" lon="5.90389">
        <ele>271</ele>
        <time>2022-04-16T06:33:32.555Z</time>
      </trkpt>
      <trkpt lat="45.65059" lon="5.90381">
        <ele>270</ele>
        <time>2022-04-16T06:33:33.555Z</time>
      </trkpt>
      <trkpt lat="45.65062" lon="5.90372">
        <ele>270</ele>
        <time>2022-04-16T06:33:34.555Z</time>
      </trkpt>
      <trkpt lat="45.65065" lon="5.90365">
        <ele>269</ele>
        <time>2022-04-16T06:33:35.554Z</time>
      </trkpt>
      <trkpt lat="45.65067" lon="5.90359">
        <ele>269</ele>
        <time>2022-04-16T06:33:36.555Z</time>
      </trkpt>
      <trkpt lat="45.65069" lon="5.90354">
        <ele>268</ele>
        <time>2022-04-16T06:33:37.555Z</time>
      </trkpt>
      <trkpt lat="45.65069" lon="5.90346">
        <ele>268</ele>
        <time>2022-04-16T06:33:38.554Z</time>
      </trkpt>
      <trkpt lat="45.65069" lon="5.9034">
        <ele>267</ele>
        <time>2022-04-16T06:33:39.555Z</time>
      </trkpt>
      <trkpt lat="45.65069" lon="5.90334">
        <ele>265</ele>
        <time>2022-04-16T06:33:40.554Z</time>
      </trkpt>
      <trkpt lat="45.65071" lon="5.90327">
        <ele>264</ele>
        <time>2022-04-16T06:33:41.555Z</time>
      </trkpt>
      <trkpt lat="45.65073" lon="5.90321">
        <ele>263</ele>
        <time>2022-04-16T06:33:42.555Z</time>
      </trkpt>
      <trkpt lat="45.65075" lon="5.90315">
        <ele>262</ele>
        <time>2022-04-16T06:33:43.554Z</time>
      </trkpt>
      <trkpt lat="45.65078" lon="5.90311">
        <ele>262</ele>
        <time>2022-04-16T06:33:44.555Z</time>
      </trkpt>
      <trkpt lat="45.6508" lon="5.90309">
        <ele>262</ele>
        <time>2022-04-16T06:33:45.555Z</time>
      </trkpt>
      <trkpt lat="45.65083" lon="5.90306">
        <ele>261</ele>
        <time>2022-04-16T06:33:46.555Z</time>
      </trkpt>
      <trkpt lat="45.65085" lon="5.90304">
        <ele>261</ele>
        <time>2022-04-16T06:33:47.555Z</time>
      </trkpt>
      <trkpt lat="45.65088" lon="5.90301">
        <ele>260</ele>
        <time>2022-04-16T06:33:48.555Z</time>
      </trkpt>
      <trkpt lat="45.65091" lon="5.90298">
        <ele>259</ele>
        <time>2022-04-16T06:33:49.555Z</time>
      </trkpt>
      <trkpt lat="45.65094" lon="5.90293">
        <ele>259</ele>
        <time>2022-04-16T06:33:50.554Z</time>
      </trkpt>
      <trkpt lat="45.65097" lon="5.90288">
        <ele>258</ele>
        <time>2022-04-16T06:33:51.555Z</time>
      </trkpt>
      <trkpt lat="45.651" lon="5.90281">
        <ele>258</ele>
        <time>2022-04-16T06:33:52.555Z</time>
      </trkpt>
      <trkpt lat="45.65103" lon="5.90274">
        <ele>257</ele>
        <time>2022-04-16T06:33:53.555Z</time>
      </trkpt>
      <trkpt lat="45.65106" lon="5.90266">
        <ele>257</ele>
        <time>2022-04-16T06:33:54.554Z</time>
      </trkpt>
      <trkpt lat="45.65108" lon="5.90257">
        <ele>257</ele>
        <time>2022-04-16T06:33:55.555Z</time>
      </trkpt>
      <trkpt lat="45.65109" lon="5.90247">
        <ele>256</ele>
        <time>2022-04-16T06:33:56.555Z</time>
      </trkpt>
      <trkpt lat="45.6511" lon="5.90237">
        <ele>255</ele>
        <time>2022-04-16T06:33:57.555Z</time>
      </trkpt>
      <trkpt lat="45.6511" lon="5.90226">
        <ele>255</ele>
        <time>2022-04-16T06:33:58.554Z</time>
      </trkpt>
      <trkpt lat="45.6511" lon="5.90214">
        <ele>254</ele>
        <time>2022-04-16T06:33:59.555Z</time>
      </trkpt>
      <trkpt lat="45.6511" lon="5.90202">
        <ele>254</ele>
        <time>2022-04-16T06:34:00.555Z</time>
      </trkpt>
      <trkpt lat="45.6511" lon="5.9019">
        <ele>253</ele>
        <time>2022-04-16T06:34:01.555Z</time>
      </trkpt>
      <trkpt lat="45.65109" lon="5.90177">
        <ele>253</ele>
        <time>2022-04-16T06:34:02.555Z</time>
      </trkpt>
      <trkpt lat="45.65109" lon="5.90164">
        <ele>252</ele>
        <time>2022-04-16T06:34:03.555Z</time>
      </trkpt>
      <trkpt lat="45.65109" lon="5.9015">
        <ele>251</ele>
        <time>2022-04-16T06:34:04.554Z</time>
      </trkpt>
      <trkpt lat="45.6511" lon="5.90137">
        <ele>251</ele>
        <time>2022-04-16T06:34:05.554Z</time>
      </trkpt>
      <trkpt lat="45.65112" lon="5.90123">
        <ele>250</ele>
        <time>2022-04-16T06:34:06.555Z</time>
      </trkpt>
      <trkpt lat="45.65114" lon="5.9011">
        <ele>250</ele>
        <time>2022-04-16T06:34:07.554Z</time>
      </trkpt>
      <trkpt lat="45.65116" lon="5.90097">
        <ele>250</ele>
        <time>2022-04-16T06:34:08.555Z</time>
      </trkpt>
      <trkpt lat="45.65118" lon="5.90086">
        <ele>249</ele>
        <time>2022-04-16T06:34:09.554Z</time>
      </trkpt>
      <trkpt lat="45.65121" lon="5.90074">
        <ele>249</ele>
        <time>2022-04-16T06:34:10.555Z</time>
      </trkpt>
      <trkpt lat="45.65124" lon="5.90064">
        <ele>248</ele>
        <time>2022-04-16T06:34:11.554Z</time>
      </trkpt>
      <trkpt lat="45.65125" lon="5.90053">
        <ele>248</ele>
        <time>2022-04-16T06:34:12.554Z</time>
      </trkpt>
      <trkpt lat="45.65126" lon="5.90043">
        <ele>248</ele>
        <time>2022-04-16T06:34:13.555Z</time>
      </trkpt>
      <trkpt lat="45.65126" lon="5.90033">
        <ele>247</ele>
        <time>2022-04-16T06:34:14.554Z</time>
      </trkpt>
      <trkpt lat="45.65126" lon="5.90023">
        <ele>247</ele>
        <time>2022-04-16T06:34:15.555Z</time>
      </trkpt>
      <trkpt lat="45.65126" lon="5.90014">
        <ele>247</ele>
        <time>2022-04-16T06:34:16.554Z</time>
      </trkpt>
      <trkpt lat="45.65126" lon="5.90006">
        <ele>247</ele>
        <time>2022-04-16T06:34:17.554Z</time>
      </trkpt>
      <trkpt lat="45.65125" lon="5.89999">
        <ele>247</ele>
        <time>2022-04-16T06:34:18.555Z</time>
      </trkpt>
      <trkpt lat="45.65124" lon="5.89995">
        <ele>247</ele>
        <time>2022-04-16T06:34:19.554Z</time>
      </trkpt>
      <trkpt lat="45.65123" lon="5.89991">
        <ele>247</ele>
        <time>2022-04-16T06:34:20.554Z</time>
      </trkpt>
      <trkpt lat="45.65122" lon="5.89989">
        <ele>247</ele>
        <time>2022-04-16T06:34:21.555Z</time>
      </trkpt>
      <trkpt lat="45.65121" lon="5.89987">
        <ele>247</ele>
        <time>2022-04-16T06:34:22.555Z</time>
      </trkpt>
      <trkpt lat="45.6512" lon="5.89986">
        <ele>246</ele>
        <time>2022-04-16T06:34:23.555Z</time>
      </trkpt>
      <trkpt lat="45.65119" lon="5.89986">
        <ele>246</ele>
        <time>2022-04-16T06:34:24.555Z</time>
      </trkpt>
      <trkpt lat="45.65118" lon="5.89985">
        <ele>246</ele>
        <time>2022-04-16T06:34:25.555Z</time>
      </trkpt>
      <trkpt lat="45.65117" lon="5.89985">
        <ele>247</ele>
        <time>2022-04-16T06:34:26.555Z</time>
      </trkpt>
      <trkpt lat="45.65116" lon="5.89985">
        <ele>247</ele>
        <time>2022-04-16T06:34:27.555Z</time>
      </trkpt>
      <trkpt lat="45.65113" lon="5.89985">
        <ele>247</ele>
        <time>2022-04-16T06:34:28.555Z</time>
      </trkpt>
      <trkpt lat="45.65111" lon="5.89986">
        <ele>248</ele>
        <time>2022-04-16T06:34:29.554Z</time>
      </trkpt>
      <trkpt lat="45.65107" lon="5.89986">
        <ele>248</ele>
        <time>2022-04-16T06:34:30.555Z</time>
      </trkpt>
      <trkpt lat="45.65103" lon="5.89986">
        <ele>249</ele>
        <time>2022-04-16T06:34:31.554Z</time>
      </trkpt>
      <trkpt lat="45.65098" lon="5.89986">
        <ele>249</ele>
        <time>2022-04-16T06:34:32.555Z</time>
      </trkpt>
      <trkpt lat="45.65093" lon="5.89985">
        <ele>249</ele>
        <time>2022-04-16T06:34:33.554Z</time>
      </trkpt>
      <trkpt lat="45.65088" lon="5.89984">
        <ele>249</ele>
        <time>2022-04-16T06:34:34.555Z</time>
      </trkpt>
      <trkpt lat="45.65083" lon="5.89983">
        <ele>249</ele>
        <time>2022-04-16T06:34:35.555Z</time>
      </trkpt>
      <trkpt lat="45.65078" lon="5.89982">
        <ele>249</ele>
        <time>2022-04-16T06:34:36.554Z</time>
      </trkpt>
      <trkpt lat="45.65073" lon="5.89981">
        <ele>249</ele>
        <time>2022-04-16T06:34:37.555Z</time>
      </trkpt>
      <trkpt lat="45.65067" lon="5.8998">
        <ele>248</ele>
        <time>2022-04-16T06:34:38.554Z</time>
      </trkpt>
      <trkpt lat="45.65062" lon="5.89979">
        <ele>248</ele>
        <time>2022-04-16T06:34:39.555Z</time>
      </trkpt>
      <trkpt lat="45.65056" lon="5.89977">
        <ele>248</ele>
        <time>2022-04-16T06:34:40.555Z</time>
      </trkpt>
      <trkpt lat="45.65051" lon="5.89976">
        <ele>247</ele>
        <time>2022-04-16T06:34:41.554Z</time>
      </trkpt>
      <trkpt lat="45.65045" lon="5.89974">
        <ele>247</ele>
        <time>2022-04-16T06:34:42.554Z</time>
      </trkpt>
      <trkpt lat="45.65039" lon="5.89973">
        <ele>247</ele>
        <time>2022-04-16T06:34:43.555Z</time>
      </trkpt>
      <trkpt lat="45.65034" lon="5.89973">
        <ele>247</ele>
        <time>2022-04-16T06:34:44.555Z</time>
      </trkpt>
      <trkpt lat="45.65028" lon="5.89972">
        <ele>247</ele>
        <time>2022-04-16T06:34:45.555Z</time>
      </trkpt>
      <trkpt lat="45.65022" lon="5.89972">
        <ele>247</ele>
        <time>2022-04-16T06:34:46.555Z</time>
      </trkpt>
      <trkpt lat="45.65016" lon="5.89971">
        <ele>247</ele>
        <time>2022-04-16T06:34:47.555Z</time>
      </trkpt>
      <trkpt lat="45.6501" lon="5.89971">
        <ele>247</ele>
        <time>2022-04-16T06:34:48.555Z</time>
      </trkpt>
      <trkpt lat="45.65004" lon="5.8997">
        <ele>248</ele>
        <time>2022-04-16T06:34:49.554Z</time>
      </trkpt>
      <trkpt lat="45.64998" lon="5.89969">
        <ele>247</ele>
        <time>2022-04-16T06:34:50.555Z</time>
      </trkpt>
      <trkpt lat="45.64992" lon="5.89969">
        <ele>247</ele>
        <time>2022-04-16T06:34:51.555Z</time>
      </trkpt>
      <trkpt lat="45.64986" lon="5.89968">
        <ele>247</ele>
        <time>2022-04-16T06:34:52.555Z</time>
      </trkpt>
      <trkpt lat="45.6498" lon="5.89967">
        <ele>246</ele>
        <time>2022-04-16T06:34:53.554Z</time>
      </trkpt>
      <trkpt lat="45.64974" lon="5.89967">
        <ele>246</ele>
        <time>2022-04-16T06:34:54.555Z</time>
      </trkpt>
      <trkpt lat="45.64969" lon="5.89966">
        <ele>246</ele>
        <time>2022-04-16T06:34:55.555Z</time>
      </trkpt>
      <trkpt lat="45.64963" lon="5.89965">
        <ele>246</ele>
        <time>2022-04-16T06:34:56.554Z</time>
      </trkpt>
      <trkpt lat="45.64957" lon="5.89964">
        <ele>246</ele>
        <time>2022-04-16T06:34:57.555Z</time>
      </trkpt>
      <trkpt lat="45.64951" lon="5.89963">
        <ele>246</ele>
        <time>2022-04-16T06:34:58.554Z</time>
      </trkpt>
      <trkpt lat="45.64945" lon="5.89962">
        <ele>246</ele>
        <time>2022-04-16T06:34:59.555Z</time>
      </trkpt>
      <trkpt lat="45.64939" lon="5.89961">
        <ele>246</ele>
        <time>2022-04-16T06:35:00.554Z</time>
      </trkpt>
      <trkpt lat="45.64933" lon="5.8996">
        <ele>246</ele>
        <time>2022-04-16T06:35:01.555Z</time>
      </trkpt>
      <trkpt lat="45.64927" lon="5.89959">
        <ele>246</ele>
        <time>2022-04-16T06:35:02.555Z</time>
      </trkpt>
      <trkpt lat="45.64921" lon="5.89958">
        <ele>246</ele>
        <time>2022-04-16T06:35:03.555Z</time>
      </trkpt>
      <trkpt lat="45.64916" lon="5.89956">
        <ele>246</ele>
        <time>2022-04-16T06:35:04.554Z</time>
      </trkpt>
      <trkpt lat="45.6491" lon="5.89954">
        <ele>246</ele>
        <time>2022-04-16T06:35:05.554Z</time>
      </trkpt>
      <trkpt lat="45.64905" lon="5.89952">
        <ele>246</ele>
        <time>2022-04-16T06:35:06.554Z</time>
      </trkpt>
      <trkpt lat="45.64899" lon="5.89949">
        <ele>246</ele>
        <time>2022-04-16T06:35:07.555Z</time>
      </trkpt>
      <trkpt lat="45.64894" lon="5.89947">
        <ele>246</ele>
        <time>2022-04-16T06:35:08.555Z</time>
      </trkpt>
      <trkpt lat="45.64889" lon="5.89944">
        <ele>246</ele>
        <time>2022-04-16T06:35:09.555Z</time>
      </trkpt>
      <trkpt lat="45.64883" lon="5.8994">
        <ele>245</ele>
        <time>2022-04-16T06:35:10.554Z</time>
      </trkpt>
      <trkpt lat="45.64878" lon="5.89937">
        <ele>245</ele>
        <time>2022-04-16T06:35:11.555Z</time>
      </trkpt>
      <trkpt lat="45.64874" lon="5.89933">
        <ele>245</ele>
        <time>2022-04-16T06:35:12.555Z</time>
      </trkpt>
      <trkpt lat="45.64869" lon="5.89929">
        <ele>245</ele>
        <time>2022-04-16T06:35:13.555Z</time>
      </trkpt>
      <trkpt lat="45.64865" lon="5.89925">
        <ele>245</ele>
        <time>2022-04-16T06:35:14.554Z</time>
      </trkpt>
      <trkpt lat="45.6486" lon="5.8992">
        <ele>244</ele>
        <time>2022-04-16T06:35:15.555Z</time>
      </trkpt>
      <trkpt lat="45.64855" lon="5.89916">
        <ele>244</ele>
        <time>2022-04-16T06:35:16.555Z</time>
      </trkpt>
      <trkpt lat="45.64851" lon="5.89912">
        <ele>243</ele>
        <time>2022-04-16T06:35:17.555Z</time>
      </trkpt>
      <trkpt lat="45.64846" lon="5.89908">
        <ele>243</ele>
        <time>2022-04-16T06:35:18.554Z</time>
      </trkpt>
      <trkpt lat="45.64841" lon="5.89904">
        <ele>243</ele>
        <time>2022-04-16T06:35:19.555Z</time>
      </trkpt>
      <trkpt lat="45.64836" lon="5.89901">
        <ele>242</ele>
        <time>2022-04-16T06:35:20.555Z</time>
      </trkpt>
      <trkpt lat="45.64831" lon="5.89898">
        <ele>242</ele>
        <time>2022-04-16T06:35:21.555Z</time>
      </trkpt>
      <trkpt lat="45.64826" lon="5.89895">
        <ele>242</ele>
        <time>2022-04-16T06:35:22.555Z</time>
      </trkpt>
      <trkpt lat="45.64821" lon="5.89891">
        <ele>241</ele>
        <time>2022-04-16T06:35:23.555Z</time>
      </trkpt>
      <trkpt lat="45.64816" lon="5.89888">
        <ele>241</ele>
        <time>2022-04-16T06:35:24.555Z</time>
      </trkpt>
      <trkpt lat="45.64811" lon="5.89885">
        <ele>241</ele>
        <time>2022-04-16T06:35:25.555Z</time>
      </trkpt>
      <trkpt lat="45.64806" lon="5.89882">
        <ele>241</ele>
        <time>2022-04-16T06:35:26.554Z</time>
      </trkpt>
      <trkpt lat="45.64801" lon="5.89878">
        <ele>241</ele>
        <time>2022-04-16T06:35:27.555Z</time>
      </trkpt>
      <trkpt lat="45.64796" lon="5.89875">
        <ele>241</ele>
        <time>2022-04-16T06:35:28.554Z</time>
      </trkpt>
      <trkpt lat="45.64791" lon="5.89872">
        <ele>241</ele>
        <time>2022-04-16T06:35:29.555Z</time>
      </trkpt>
      <trkpt lat="45.64786" lon="5.89869">
        <ele>241</ele>
        <time>2022-04-16T06:35:30.554Z</time>
      </trkpt>
      <trkpt lat="45.64782" lon="5.89867">
        <ele>241</ele>
        <time>2022-04-16T06:35:31.555Z</time>
      </trkpt>
      <trkpt lat="45.64777" lon="5.89864">
        <ele>241</ele>
        <time>2022-04-16T06:35:32.554Z</time>
      </trkpt>
      <trkpt lat="45.64774" lon="5.89862">
        <ele>241</ele>
        <time>2022-04-16T06:35:33.554Z</time>
      </trkpt>
      <trkpt lat="45.64772" lon="5.89859">
        <ele>241</ele>
        <time>2022-04-16T06:35:34.554Z</time>
      </trkpt>
      <trkpt lat="45.64771" lon="5.89856">
        <ele>241</ele>
        <time>2022-04-16T06:35:35.555Z</time>
      </trkpt>
      <trkpt lat="45.6477" lon="5.89851">
        <ele>241</ele>
        <time>2022-04-16T06:35:36.555Z</time>
      </trkpt>
      <trkpt lat="45.64769" lon="5.89847">
        <ele>241</ele>
        <time>2022-04-16T06:35:37.554Z</time>
      </trkpt>
      <trkpt lat="45.64768" lon="5.89843">
        <ele>241</ele>
        <time>2022-04-16T06:35:38.554Z</time>
      </trkpt>
      <trkpt lat="45.64765" lon="5.8984">
        <ele>242</ele>
        <time>2022-04-16T06:35:39.554Z</time>
      </trkpt>
      <trkpt lat="45.64763" lon="5.89838">
        <ele>242</ele>
        <time>2022-04-16T06:35:40.554Z</time>
      </trkpt>
      <trkpt lat="45.6476" lon="5.89837">
        <ele>241</ele>
        <time>2022-04-16T06:35:41.555Z</time>
      </trkpt>
      <trkpt lat="45.64758" lon="5.89836">
        <ele>241</ele>
        <time>2022-04-16T06:35:42.555Z</time>
      </trkpt>
      <trkpt lat="45.64756" lon="5.89835">
        <ele>240</ele>
        <time>2022-04-16T06:35:43.554Z</time>
      </trkpt>
      <trkpt lat="45.64754" lon="5.89834">
        <ele>240</ele>
        <time>2022-04-16T06:35:44.554Z</time>
      </trkpt>
      <trkpt lat="45.64752" lon="5.89833">
        <ele>240</ele>
        <time>2022-04-16T06:35:45.554Z</time>
      </trkpt>
      <trkpt lat="45.6475" lon="5.89832">
        <ele>240</ele>
        <time>2022-04-16T06:35:46.555Z</time>
      </trkpt>
      <trkpt lat="45.64748" lon="5.89831">
        <ele>240</ele>
        <time>2022-04-16T06:35:47.554Z</time>
      </trkpt>
      <trkpt lat="45.64748" lon="5.89831">
        <ele>239</ele>
        <time>2022-04-16T06:35:48.555Z</time>
      </trkpt>
      <trkpt lat="45.64748" lon="5.89831">
        <ele>239</ele>
        <time>2022-04-16T06:35:49.555Z</time>
      </trkpt>
      <trkpt lat="45.64748" lon="5.89831">
        <ele>238</ele>
        <time>2022-04-16T06:35:50.555Z</time>
      </trkpt>
      <trkpt lat="45.64746" lon="5.89832">
        <ele>238</ele>
        <time>2022-04-16T06:35:57.675Z</time>
      </trkpt>
      <trkpt lat="45.64744" lon="5.89832">
        <ele>238</ele>
        <time>2022-04-16T06:35:58.676Z</time>
      </trkpt>
      <trkpt lat="45.64742" lon="5.89831">
        <ele>238</ele>
        <time>2022-04-16T06:35:59.675Z</time>
      </trkpt>
      <trkpt lat="45.64739" lon="5.89829">
        <ele>238</ele>
        <time>2022-04-16T06:36:00.676Z</time>
      </trkpt>
      <trkpt lat="45.64736" lon="5.89826">
        <ele>238</ele>
        <time>2022-04-16T06:36:01.676Z</time>
      </trkpt>
      <trkpt lat="45.64732" lon="5.89824">
        <ele>238</ele>
        <time>2022-04-16T06:36:02.676Z</time>
      </trkpt>
      <trkpt lat="45.64728" lon="5.89821">
        <ele>239</ele>
        <time>2022-04-16T06:36:03.676Z</time>
      </trkpt>
      <trkpt lat="45.64723" lon="5.89818">
        <ele>239</ele>
        <time>2022-04-16T06:36:04.676Z</time>
      </trkpt>
      <trkpt lat="45.64718" lon="5.89815">
        <ele>239</ele>
        <time>2022-04-16T06:36:05.676Z</time>
      </trkpt>
      <trkpt lat="45.64712" lon="5.89812">
        <ele>240</ele>
        <time>2022-04-16T06:36:06.676Z</time>
      </trkpt>
      <trkpt lat="45.64706" lon="5.89808">
        <ele>240</ele>
        <time>2022-04-16T06:36:07.676Z</time>
      </trkpt>
      <trkpt lat="45.64701" lon="5.89804">
        <ele>240</ele>
        <time>2022-04-16T06:36:08.676Z</time>
      </trkpt>
      <trkpt lat="45.64695" lon="5.89799">
        <ele>240</ele>
        <time>2022-04-16T06:36:09.675Z</time>
      </trkpt>
      <trkpt lat="45.6469" lon="5.89795">
        <ele>240</ele>
        <time>2022-04-16T06:36:10.676Z</time>
      </trkpt>
      <trkpt lat="45.64684" lon="5.89789">
        <ele>240</ele>
        <time>2022-04-16T06:36:11.676Z</time>
      </trkpt>
      <trkpt lat="45.64678" lon="5.89784">
        <ele>240</ele>
        <time>2022-04-16T06:36:12.676Z</time>
      </trkpt>
      <trkpt lat="45.64672" lon="5.8978">
        <ele>240</ele>
        <time>2022-04-16T06:36:13.676Z</time>
      </trkpt>
      <trkpt lat="45.64667" lon="5.89775">
        <ele>240</ele>
        <time>2022-04-16T06:36:14.676Z</time>
      </trkpt>
      <trkpt lat="45.64661" lon="5.89771">
        <ele>240</ele>
        <time>2022-04-16T06:36:15.675Z</time>
      </trkpt>
      <trkpt lat="45.64655" lon="5.89765">
        <ele>240</ele>
        <time>2022-04-16T06:36:16.676Z</time>
      </trkpt>
      <trkpt lat="45.64651" lon="5.89758">
        <ele>239</ele>
        <time>2022-04-16T06:36:17.676Z</time>
      </trkpt>
      <trkpt lat="45.64648" lon="5.8975">
        <ele>239</ele>
        <time>2022-04-16T06:36:18.675Z</time>
      </trkpt>
      <trkpt lat="45.64646" lon="5.89741">
        <ele>239</ele>
        <time>2022-04-16T06:36:19.675Z</time>
      </trkpt>
      <trkpt lat="45.64647" lon="5.89732">
        <ele>238</ele>
        <time>2022-04-16T06:36:20.676Z</time>
      </trkpt>
      <trkpt lat="45.64648" lon="5.89723">
        <ele>238</ele>
        <time>2022-04-16T06:36:21.676Z</time>
      </trkpt>
      <trkpt lat="45.6465" lon="5.89714">
        <ele>238</ele>
        <time>2022-04-16T06:36:22.676Z</time>
      </trkpt>
      <trkpt lat="45.64653" lon="5.89705">
        <ele>237</ele>
        <time>2022-04-16T06:36:23.675Z</time>
      </trkpt>
      <trkpt lat="45.64656" lon="5.89696">
        <ele>237</ele>
        <time>2022-04-16T06:36:24.675Z</time>
      </trkpt>
      <trkpt lat="45.64659" lon="5.89688">
        <ele>237</ele>
        <time>2022-04-16T06:36:25.676Z</time>
      </trkpt>
      <trkpt lat="45.64663" lon="5.8968">
        <ele>237</ele>
        <time>2022-04-16T06:36:26.675Z</time>
      </trkpt>
      <trkpt lat="45.64668" lon="5.89673">
        <ele>237</ele>
        <time>2022-04-16T06:36:27.676Z</time>
      </trkpt>
      <trkpt lat="45.64672" lon="5.89666">
        <ele>236</ele>
        <time>2022-04-16T06:36:28.676Z</time>
      </trkpt>
      <trkpt lat="45.64677" lon="5.89659">
        <ele>236</ele>
        <time>2022-04-16T06:36:29.676Z</time>
      </trkpt>
      <trkpt lat="45.64681" lon="5.89652">
        <ele>236</ele>
        <time>2022-04-16T06:36:30.676Z</time>
      </trkpt>
      <trkpt lat="45.64686" lon="5.89646">
        <ele>235</ele>
        <time>2022-04-16T06:36:31.676Z</time>
      </trkpt>
      <trkpt lat="45.6469" lon="5.89639">
        <ele>235</ele>
        <time>2022-04-16T06:36:32.676Z</time>
      </trkpt>
      <trkpt lat="45.64695" lon="5.89633">
        <ele>234</ele>
        <time>2022-04-16T06:36:33.676Z</time>
      </trkpt>
      <trkpt lat="45.647" lon="5.89626">
        <ele>234</ele>
        <time>2022-04-16T06:36:34.675Z</time>
      </trkpt>
      <trkpt lat="45.64704" lon="5.8962">
        <ele>233</ele>
        <time>2022-04-16T06:36:35.676Z</time>
      </trkpt>
      <trkpt lat="45.64709" lon="5.89613">
        <ele>233</ele>
        <time>2022-04-16T06:36:36.676Z</time>
      </trkpt>
      <trkpt lat="45.64713" lon="5.89607">
        <ele>233</ele>
        <time>2022-04-16T06:36:37.676Z</time>
      </trkpt>
      <trkpt lat="45.64718" lon="5.896">
        <ele>233</ele>
        <time>2022-04-16T06:36:38.676Z</time>
      </trkpt>
      <trkpt lat="45.64722" lon="5.89594">
        <ele>233</ele>
        <time>2022-04-16T06:36:39.676Z</time>
      </trkpt>
      <trkpt lat="45.64727" lon="5.89588">
        <ele>233</ele>
        <time>2022-04-16T06:36:40.676Z</time>
      </trkpt>
      <trkpt lat="45.64731" lon="5.89581">
        <ele>233</ele>
        <time>2022-04-16T06:36:41.676Z</time>
      </trkpt>
      <trkpt lat="45.64735" lon="5.89575">
        <ele>233</ele>
        <time>2022-04-16T06:36:42.675Z</time>
      </trkpt>
      <trkpt lat="45.64739" lon="5.89569">
        <ele>233</ele>
        <time>2022-04-16T06:36:43.676Z</time>
      </trkpt>
      <trkpt lat="45.64743" lon="5.89563">
        <ele>233</ele>
        <time>2022-04-16T06:36:44.676Z</time>
      </trkpt>
      <trkpt lat="45.64746" lon="5.89557">
        <ele>233</ele>
        <time>2022-04-16T06:36:45.675Z</time>
      </trkpt>
      <trkpt lat="45.6475" lon="5.89551">
        <ele>233</ele>
        <time>2022-04-16T06:36:46.675Z</time>
      </trkpt>
      <trkpt lat="45.64755" lon="5.89545">
        <ele>233</ele>
        <time>2022-04-16T06:36:47.675Z</time>
      </trkpt>
      <trkpt lat="45.64759" lon="5.89539">
        <ele>233</ele>
        <time>2022-04-16T06:36:48.676Z</time>
      </trkpt>
      <trkpt lat="45.64763" lon="5.89533">
        <ele>233</ele>
        <time>2022-04-16T06:36:49.675Z</time>
      </trkpt>
      <trkpt lat="45.64767" lon="5.89527">
        <ele>234</ele>
        <time>2022-04-16T06:36:50.675Z</time>
      </trkpt>
      <trkpt lat="45.64772" lon="5.89521">
        <ele>234</ele>
        <time>2022-04-16T06:36:51.675Z</time>
      </trkpt>
      <trkpt lat="45.64776" lon="5.89516">
        <ele>234</ele>
        <time>2022-04-16T06:36:52.676Z</time>
      </trkpt>
      <trkpt lat="45.64781" lon="5.8951">
        <ele>234</ele>
        <time>2022-04-16T06:36:53.676Z</time>
      </trkpt>
      <trkpt lat="45.64785" lon="5.89504">
        <ele>234</ele>
        <time>2022-04-16T06:36:54.675Z</time>
      </trkpt>
      <trkpt lat="45.64789" lon="5.89498">
        <ele>234</ele>
        <time>2022-04-16T06:36:55.675Z</time>
      </trkpt>
      <trkpt lat="45.64792" lon="5.89491">
        <ele>234</ele>
        <time>2022-04-16T06:36:56.676Z</time>
      </trkpt>
      <trkpt lat="45.64795" lon="5.89484">
        <ele>234</ele>
        <time>2022-04-16T06:36:57.676Z</time>
      </trkpt>
      <trkpt lat="45.64798" lon="5.89476">
        <ele>234</ele>
        <time>2022-04-16T06:36:58.676Z</time>
      </trkpt>
      <trkpt lat="45.64801" lon="5.89468">
        <ele>234</ele>
        <time>2022-04-16T06:36:59.676Z</time>
      </trkpt>
      <trkpt lat="45.64803" lon="5.8946">
        <ele>233</ele>
        <time>2022-04-16T06:37:00.676Z</time>
      </trkpt>
      <trkpt lat="45.64804" lon="5.89452">
        <ele>233</ele>
        <time>2022-04-16T06:37:01.676Z</time>
      </trkpt>
      <trkpt lat="45.64805" lon="5.89443">
        <ele>233</ele>
        <time>2022-04-16T06:37:02.676Z</time>
      </trkpt>
      <trkpt lat="45.64806" lon="5.89435">
        <ele>233</ele>
        <time>2022-04-16T06:37:03.675Z</time>
      </trkpt>
      <trkpt lat="45.64805" lon="5.89426">
        <ele>233</ele>
        <time>2022-04-16T06:37:04.675Z</time>
      </trkpt>
      <trkpt lat="45.64805" lon="5.89418">
        <ele>233</ele>
        <time>2022-04-16T06:37:05.676Z</time>
      </trkpt>
      <trkpt lat="45.64803" lon="5.89409">
        <ele>233</ele>
        <time>2022-04-16T06:37:06.676Z</time>
      </trkpt>
      <trkpt lat="45.64801" lon="5.89403">
        <ele>234</ele>
        <time>2022-04-16T06:37:07.675Z</time>
      </trkpt>
      <trkpt lat="45.64798" lon="5.89394">
        <ele>234</ele>
        <time>2022-04-16T06:37:08.676Z</time>
      </trkpt>
      <trkpt lat="45.64795" lon="5.89386">
        <ele>234</ele>
        <time>2022-04-16T06:37:09.675Z</time>
      </trkpt>
      <trkpt lat="45.64791" lon="5.89379">
        <ele>235</ele>
        <time>2022-04-16T06:37:10.676Z</time>
      </trkpt>
      <trkpt lat="45.64788" lon="5.89372">
        <ele>235</ele>
        <time>2022-04-16T06:37:11.676Z</time>
      </trkpt>
      <trkpt lat="45.64785" lon="5.89365">
        <ele>236</ele>
        <time>2022-04-16T06:37:12.676Z</time>
      </trkpt>
      <trkpt lat="45.64782" lon="5.8936">
        <ele>236</ele>
        <time>2022-04-16T06:37:13.676Z</time>
      </trkpt>
      <trkpt lat="45.64781" lon="5.89355">
        <ele>237</ele>
        <time>2022-04-16T06:37:14.675Z</time>
      </trkpt>
      <trkpt lat="45.6478" lon="5.8935">
        <ele>237</ele>
        <time>2022-04-16T06:37:15.676Z</time>
      </trkpt>
      <trkpt lat="45.6478" lon="5.89346">
        <ele>237</ele>
        <time>2022-04-16T06:37:16.675Z</time>
      </trkpt>
      <trkpt lat="45.6478" lon="5.89344">
        <ele>236</ele>
        <time>2022-04-16T06:37:17.676Z</time>
      </trkpt>
      <trkpt lat="45.64781" lon="5.89341">
        <ele>236</ele>
        <time>2022-04-16T06:37:18.675Z</time>
      </trkpt>
      <trkpt lat="45.64781" lon="5.8934">
        <ele>235</ele>
        <time>2022-04-16T06:37:19.676Z</time>
      </trkpt>
      <trkpt lat="45.64782" lon="5.89338">
        <ele>235</ele>
        <time>2022-04-16T06:37:20.676Z</time>
      </trkpt>
      <trkpt lat="45.64783" lon="5.89336">
        <ele>235</ele>
        <time>2022-04-16T06:37:21.676Z</time>
      </trkpt>
      <trkpt lat="45.64784" lon="5.89335">
        <ele>235</ele>
        <time>2022-04-16T06:37:22.676Z</time>
      </trkpt>
      <trkpt lat="45.64785" lon="5.89334">
        <ele>235</ele>
        <time>2022-04-16T06:37:23.675Z</time>
      </trkpt>
      <trkpt lat="45.64786" lon="5.89333">
        <ele>235</ele>
        <time>2022-04-16T06:37:24.675Z</time>
      </trkpt>
      <trkpt lat="45.64788" lon="5.89331">
        <ele>234</ele>
        <time>2022-04-16T06:37:25.676Z</time>
      </trkpt>
      <trkpt lat="45.64791" lon="5.89328">
        <ele>235</ele>
        <time>2022-04-16T06:37:26.676Z</time>
      </trkpt>
      <trkpt lat="45.64794" lon="5.89325">
        <ele>235</ele>
        <time>2022-04-16T06:37:27.676Z</time>
      </trkpt>
      <trkpt lat="45.64797" lon="5.89321">
        <ele>235</ele>
        <time>2022-04-16T06:37:28.675Z</time>
      </trkpt>
      <trkpt lat="45.648" lon="5.89316">
        <ele>235</ele>
        <time>2022-04-16T06:37:29.676Z</time>
      </trkpt>
      <trkpt lat="45.64802" lon="5.8931">
        <ele>235</ele>
        <time>2022-04-16T06:37:30.676Z</time>
      </trkpt>
      <trkpt lat="45.64803" lon="5.89304">
        <ele>236</ele>
        <time>2022-04-16T06:37:31.676Z</time>
      </trkpt>
      <trkpt lat="45.64803" lon="5.89297">
        <ele>236</ele>
        <time>2022-04-16T06:37:32.675Z</time>
      </trkpt>
      <trkpt lat="45.64802" lon="5.89291">
        <ele>236</ele>
        <time>2022-04-16T06:37:33.676Z</time>
      </trkpt>
      <trkpt lat="45.64801" lon="5.89284">
        <ele>236</ele>
        <time>2022-04-16T06:37:34.675Z</time>
      </trkpt>
      <trkpt lat="45.64799" lon="5.89277">
        <ele>236</ele>
        <time>2022-04-16T06:37:35.676Z</time>
      </trkpt>
      <trkpt lat="45.64797" lon="5.8927">
        <ele>236</ele>
        <time>2022-04-16T06:37:36.675Z</time>
      </trkpt>
      <trkpt lat="45.64796" lon="5.89263">
        <ele>236</ele>
        <time>2022-04-16T06:37:37.676Z</time>
      </trkpt>
      <trkpt lat="45.64795" lon="5.89255">
        <ele>236</ele>
        <time>2022-04-16T06:37:38.676Z</time>
      </trkpt>
      <trkpt lat="45.64795" lon="5.89247">
        <ele>236</ele>
        <time>2022-04-16T06:37:39.676Z</time>
      </trkpt>
      <trkpt lat="45.64796" lon="5.8924">
        <ele>236</ele>
        <time>2022-04-16T06:37:40.675Z</time>
      </trkpt>
      <trkpt lat="45.64796" lon="5.89232">
        <ele>236</ele>
        <time>2022-04-16T06:37:41.676Z</time>
      </trkpt>
      <trkpt lat="45.64797" lon="5.89223">
        <ele>236</ele>
        <time>2022-04-16T06:37:42.676Z</time>
      </trkpt>
      <trkpt lat="45.64798" lon="5.89216">
        <ele>236</ele>
        <time>2022-04-16T06:37:43.676Z</time>
      </trkpt>
      <trkpt lat="45.648" lon="5.89207">
        <ele>236</ele>
        <time>2022-04-16T06:37:44.675Z</time>
      </trkpt>
      <trkpt lat="45.64802" lon="5.892">
        <ele>236</ele>
        <time>2022-04-16T06:37:45.676Z</time>
      </trkpt>
      <trkpt lat="45.64804" lon="5.89194">
        <ele>236</ele>
        <time>2022-04-16T06:37:46.676Z</time>
      </trkpt>
      <trkpt lat="45.64808" lon="5.89187">
        <ele>236</ele>
        <time>2022-04-16T06:37:47.676Z</time>
      </trkpt>
      <trkpt lat="45.64812" lon="5.89183">
        <ele>236</ele>
        <time>2022-04-16T06:37:48.675Z</time>
      </trkpt>
      <trkpt lat="45.64817" lon="5.8918">
        <ele>236</ele>
        <time>2022-04-16T06:37:49.676Z</time>
      </trkpt>
      <trkpt lat="45.64821" lon="5.89177">
        <ele>236</ele>
        <time>2022-04-16T06:37:50.676Z</time>
      </trkpt>
      <trkpt lat="45.64825" lon="5.89173">
        <ele>235</ele>
        <time>2022-04-16T06:37:51.675Z</time>
      </trkpt>
      <trkpt lat="45.64828" lon="5.89168">
        <ele>235</ele>
        <time>2022-04-16T06:37:52.675Z</time>
      </trkpt>
      <trkpt lat="45.6483" lon="5.89162">
        <ele>235</ele>
        <time>2022-04-16T06:37:53.676Z</time>
      </trkpt>
      <trkpt lat="45.64831" lon="5.89156">
        <ele>235</ele>
        <time>2022-04-16T06:37:54.676Z</time>
      </trkpt>
      <trkpt lat="45.64831" lon="5.89151">
        <ele>236</ele>
        <time>2022-04-16T06:37:55.676Z</time>
      </trkpt>
      <trkpt lat="45.6483" lon="5.89145">
        <ele>236</ele>
        <time>2022-04-16T06:37:56.676Z</time>
      </trkpt>
      <trkpt lat="45.64829" lon="5.8914">
        <ele>236</ele>
        <time>2022-04-16T06:37:57.676Z</time>
      </trkpt>
      <trkpt lat="45.64827" lon="5.89134">
        <ele>236</ele>
        <time>2022-04-16T06:37:58.676Z</time>
      </trkpt>
      <trkpt lat="45.64826" lon="5.89128">
        <ele>236</ele>
        <time>2022-04-16T06:37:59.676Z</time>
      </trkpt>
      <trkpt lat="45.64825" lon="5.89123">
        <ele>236</ele>
        <time>2022-04-16T06:38:00.676Z</time>
      </trkpt>
      <trkpt lat="45.64824" lon="5.89117">
        <ele>236</ele>
        <time>2022-04-16T06:38:01.676Z</time>
      </trkpt>
      <trkpt lat="45.64824" lon="5.89111">
        <ele>237</ele>
        <time>2022-04-16T06:38:02.676Z</time>
      </trkpt>
      <trkpt lat="45.64824" lon="5.89105">
        <ele>237</ele>
        <time>2022-04-16T06:38:03.675Z</time>
      </trkpt>
      <trkpt lat="45.64825" lon="5.89099">
        <ele>237</ele>
        <time>2022-04-16T06:38:04.676Z</time>
      </trkpt>
      <trkpt lat="45.64825" lon="5.89092">
        <ele>237</ele>
        <time>2022-04-16T06:38:05.675Z</time>
      </trkpt>
      <trkpt lat="45.64825" lon="5.89086">
        <ele>238</ele>
        <time>2022-04-16T06:38:06.676Z</time>
      </trkpt>
      <trkpt lat="45.64824" lon="5.89078">
        <ele>238</ele>
        <time>2022-04-16T06:38:07.675Z</time>
      </trkpt>
      <trkpt lat="45.64824" lon="5.89071">
        <ele>238</ele>
        <time>2022-04-16T06:38:08.676Z</time>
      </trkpt>
      <trkpt lat="45.64824" lon="5.89064">
        <ele>238</ele>
        <time>2022-04-16T06:38:09.675Z</time>
      </trkpt>
      <trkpt lat="45.64824" lon="5.89057">
        <ele>238</ele>
        <time>2022-04-16T06:38:10.676Z</time>
      </trkpt>
      <trkpt lat="45.64824" lon="5.89049">
        <ele>239</ele>
        <time>2022-04-16T06:38:11.676Z</time>
      </trkpt>
      <trkpt lat="45.64824" lon="5.89042">
        <ele>239</ele>
        <time>2022-04-16T06:38:12.676Z</time>
      </trkpt>
      <trkpt lat="45.64823" lon="5.89035">
        <ele>239</ele>
        <time>2022-04-16T06:38:13.676Z</time>
      </trkpt>
      <trkpt lat="45.64823" lon="5.89027">
        <ele>238</ele>
        <time>2022-04-16T06:38:14.676Z</time>
      </trkpt>
      <trkpt lat="45.64823" lon="5.89019">
        <ele>238</ele>
        <time>2022-04-16T06:38:15.676Z</time>
      </trkpt>
      <trkpt lat="45.64823" lon="5.89012">
        <ele>237</ele>
        <time>2022-04-16T06:38:16.675Z</time>
      </trkpt>
      <trkpt lat="45.64823" lon="5.89004">
        <ele>237</ele>
        <time>2022-04-16T06:38:17.676Z</time>
      </trkpt>
      <trkpt lat="45.64823" lon="5.88997">
        <ele>237</ele>
        <time>2022-04-16T06:38:18.676Z</time>
      </trkpt>
      <trkpt lat="45.64823" lon="5.88989">
        <ele>237</ele>
        <time>2022-04-16T06:38:19.676Z</time>
      </trkpt>
      <trkpt lat="45.64822" lon="5.88981">
        <ele>237</ele>
        <time>2022-04-16T06:38:20.676Z</time>
      </trkpt>
      <trkpt lat="45.64822" lon="5.88973">
        <ele>236</ele>
        <time>2022-04-16T06:38:21.676Z</time>
      </trkpt>
      <trkpt lat="45.64822" lon="5.88965">
        <ele>236</ele>
        <time>2022-04-16T06:38:22.675Z</time>
      </trkpt>
      <trkpt lat="45.64822" lon="5.88957">
        <ele>236</ele>
        <time>2022-04-16T06:38:23.676Z</time>
      </trkpt>
      <trkpt lat="45.64823" lon="5.88949">
        <ele>236</ele>
        <time>2022-04-16T06:38:24.675Z</time>
      </trkpt>
      <trkpt lat="45.64823" lon="5.88941">
        <ele>236</ele>
        <time>2022-04-16T06:38:25.675Z</time>
      </trkpt>
      <trkpt lat="45.64823" lon="5.88933">
        <ele>237</ele>
        <time>2022-04-16T06:38:26.676Z</time>
      </trkpt>
      <trkpt lat="45.64823" lon="5.88925">
        <ele>237</ele>
        <time>2022-04-16T06:38:27.676Z</time>
      </trkpt>
      <trkpt lat="45.64823" lon="5.88917">
        <ele>237</ele>
        <time>2022-04-16T06:38:28.676Z</time>
      </trkpt>
      <trkpt lat="45.64823" lon="5.88909">
        <ele>237</ele>
        <time>2022-04-16T06:38:29.676Z</time>
      </trkpt>
      <trkpt lat="45.64823" lon="5.88902">
        <ele>237</ele>
        <time>2022-04-16T06:38:30.675Z</time>
      </trkpt>
      <trkpt lat="45.64823" lon="5.88894">
        <ele>237</ele>
        <time>2022-04-16T06:38:31.675Z</time>
      </trkpt>
      <trkpt lat="45.64823" lon="5.88887">
        <ele>236</ele>
        <time>2022-04-16T06:38:32.676Z</time>
      </trkpt>
      <trkpt lat="45.64823" lon="5.88879">
        <ele>237</ele>
        <time>2022-04-16T06:38:33.676Z</time>
      </trkpt>
      <trkpt lat="45.64823" lon="5.88872">
        <ele>237</ele>
        <time>2022-04-16T06:38:34.675Z</time>
      </trkpt>
      <trkpt lat="45.64823" lon="5.88866">
        <ele>237</ele>
        <time>2022-04-16T06:38:35.676Z</time>
      </trkpt>
      <trkpt lat="45.64823" lon="5.8886">
        <ele>237</ele>
        <time>2022-04-16T06:38:36.675Z</time>
      </trkpt>
      <trkpt lat="45.64823" lon="5.88855">
        <ele>238</ele>
        <time>2022-04-16T06:38:37.675Z</time>
      </trkpt>
      <trkpt lat="45.64823" lon="5.88849">
        <ele>238</ele>
        <time>2022-04-16T06:38:38.675Z</time>
      </trkpt>
      <trkpt lat="45.64823" lon="5.88844">
        <ele>238</ele>
        <time>2022-04-16T06:38:39.676Z</time>
      </trkpt>
      <trkpt lat="45.64823" lon="5.88838">
        <ele>239</ele>
        <time>2022-04-16T06:38:40.676Z</time>
      </trkpt>
      <trkpt lat="45.64823" lon="5.88832">
        <ele>239</ele>
        <time>2022-04-16T06:38:41.675Z</time>
      </trkpt>
      <trkpt lat="45.64823" lon="5.88826">
        <ele>240</ele>
        <time>2022-04-16T06:38:42.676Z</time>
      </trkpt>
      <trkpt lat="45.64823" lon="5.88819">
        <ele>240</ele>
        <time>2022-04-16T06:38:43.675Z</time>
      </trkpt>
      <trkpt lat="45.64823" lon="5.88813">
        <ele>240</ele>
        <time>2022-04-16T06:38:44.675Z</time>
      </trkpt>
      <trkpt lat="45.64823" lon="5.88805">
        <ele>239</ele>
        <time>2022-04-16T06:38:45.675Z</time>
      </trkpt>
      <trkpt lat="45.64823" lon="5.88798">
        <ele>239</ele>
        <time>2022-04-16T06:38:46.675Z</time>
      </trkpt>
      <trkpt lat="45.64823" lon="5.88791">
        <ele>239</ele>
        <time>2022-04-16T06:38:47.675Z</time>
      </trkpt>
      <trkpt lat="45.64823" lon="5.88784">
        <ele>239</ele>
        <time>2022-04-16T06:38:48.676Z</time>
      </trkpt>
      <trkpt lat="45.64823" lon="5.88777">
        <ele>238</ele>
        <time>2022-04-16T06:38:49.675Z</time>
      </trkpt>
      <trkpt lat="45.64823" lon="5.8877">
        <ele>238</ele>
        <time>2022-04-16T06:38:50.675Z</time>
      </trkpt>
      <trkpt lat="45.64824" lon="5.88763">
        <ele>238</ele>
        <time>2022-04-16T06:38:51.675Z</time>
      </trkpt>
      <trkpt lat="45.64824" lon="5.88756">
        <ele>238</ele>
        <time>2022-04-16T06:38:52.676Z</time>
      </trkpt>
      <trkpt lat="45.64824" lon="5.88749">
        <ele>238</ele>
        <time>2022-04-16T06:38:53.676Z</time>
      </trkpt>
      <trkpt lat="45.64824" lon="5.88742">
        <ele>238</ele>
        <time>2022-04-16T06:38:54.676Z</time>
      </trkpt>
      <trkpt lat="45.64824" lon="5.88735">
        <ele>238</ele>
        <time>2022-04-16T06:38:55.675Z</time>
      </trkpt>
      <trkpt lat="45.64824" lon="5.88728">
        <ele>238</ele>
        <time>2022-04-16T06:38:56.675Z</time>
      </trkpt>
      <trkpt lat="45.64824" lon="5.8872">
        <ele>238</ele>
        <time>2022-04-16T06:38:57.676Z</time>
      </trkpt>
      <trkpt lat="45.64824" lon="5.88713">
        <ele>238</ele>
        <time>2022-04-16T06:38:58.676Z</time>
      </trkpt>
      <trkpt lat="45.64824" lon="5.88706">
        <ele>238</ele>
        <time>2022-04-16T06:38:59.675Z</time>
      </trkpt>
      <trkpt lat="45.64824" lon="5.88699">
        <ele>238</ele>
        <time>2022-04-16T06:39:00.676Z</time>
      </trkpt>
      <trkpt lat="45.64823" lon="5.88692">
        <ele>238</ele>
        <time>2022-04-16T06:39:01.676Z</time>
      </trkpt>
      <trkpt lat="45.64822" lon="5.88686">
        <ele>238</ele>
        <time>2022-04-16T06:39:02.676Z</time>
      </trkpt>
      <trkpt lat="45.64821" lon="5.8868">
        <ele>238</ele>
        <time>2022-04-16T06:39:03.675Z</time>
      </trkpt>
      <trkpt lat="45.64821" lon="5.88674">
        <ele>238</ele>
        <time>2022-04-16T06:39:04.675Z</time>
      </trkpt>
      <trkpt lat="45.64821" lon="5.88669">
        <ele>238</ele>
        <time>2022-04-16T06:39:05.675Z</time>
      </trkpt>
      <trkpt lat="45.64821" lon="5.88663">
        <ele>238</ele>
        <time>2022-04-16T06:39:06.675Z</time>
      </trkpt>
      <trkpt lat="45.64821" lon="5.88658">
        <ele>238</ele>
        <time>2022-04-16T06:39:07.675Z</time>
      </trkpt>
      <trkpt lat="45.64821" lon="5.88652">
        <ele>238</ele>
        <time>2022-04-16T06:39:08.675Z</time>
      </trkpt>
      <trkpt lat="45.64821" lon="5.88647">
        <ele>238</ele>
        <time>2022-04-16T06:39:09.675Z</time>
      </trkpt>
      <trkpt lat="45.6482" lon="5.88642">
        <ele>238</ele>
        <time>2022-04-16T06:39:10.675Z</time>
      </trkpt>
      <trkpt lat="45.6482" lon="5.88636">
        <ele>238</ele>
        <time>2022-04-16T06:39:11.675Z</time>
      </trkpt>
      <trkpt lat="45.6482" lon="5.8863">
        <ele>238</ele>
        <time>2022-04-16T06:39:12.675Z</time>
      </trkpt>
      <trkpt lat="45.6482" lon="5.88623">
        <ele>238</ele>
        <time>2022-04-16T06:39:13.676Z</time>
      </trkpt>
      <trkpt lat="45.64821" lon="5.88616">
        <ele>238</ele>
        <time>2022-04-16T06:39:14.675Z</time>
      </trkpt>
      <trkpt lat="45.64821" lon="5.88609">
        <ele>239</ele>
        <time>2022-04-16T06:39:15.675Z</time>
      </trkpt>
      <trkpt lat="45.64821" lon="5.88602">
        <ele>239</ele>
        <time>2022-04-16T06:39:16.675Z</time>
      </trkpt>
      <trkpt lat="45.64821" lon="5.88595">
        <ele>238</ele>
        <time>2022-04-16T06:39:17.675Z</time>
      </trkpt>
      <trkpt lat="45.64821" lon="5.88587">
        <ele>238</ele>
        <time>2022-04-16T06:39:18.675Z</time>
      </trkpt>
      <trkpt lat="45.64821" lon="5.88579">
        <ele>238</ele>
        <time>2022-04-16T06:39:19.675Z</time>
      </trkpt>
      <trkpt lat="45.64821" lon="5.88572">
        <ele>237</ele>
        <time>2022-04-16T06:39:20.675Z</time>
      </trkpt>
      <trkpt lat="45.64821" lon="5.88565">
        <ele>237</ele>
        <time>2022-04-16T06:39:21.675Z</time>
      </trkpt>
      <trkpt lat="45.64821" lon="5.88557">
        <ele>236</ele>
        <time>2022-04-16T06:39:22.676Z</time>
      </trkpt>
      <trkpt lat="45.64822" lon="5.8855">
        <ele>236</ele>
        <time>2022-04-16T06:39:23.675Z</time>
      </trkpt>
      <trkpt lat="45.64822" lon="5.88543">
        <ele>236</ele>
        <time>2022-04-16T06:39:24.676Z</time>
      </trkpt>
      <trkpt lat="45.64822" lon="5.88536">
        <ele>236</ele>
        <time>2022-04-16T06:39:25.675Z</time>
      </trkpt>
      <trkpt lat="45.64822" lon="5.88528">
        <ele>235</ele>
        <time>2022-04-16T06:39:26.676Z</time>
      </trkpt>
      <trkpt lat="45.64822" lon="5.88521">
        <ele>235</ele>
        <time>2022-04-16T06:39:27.676Z</time>
      </trkpt>
      <trkpt lat="45.64822" lon="5.88513">
        <ele>235</ele>
        <time>2022-04-16T06:39:28.676Z</time>
      </trkpt>
      <trkpt lat="45.64822" lon="5.88506">
        <ele>235</ele>
        <time>2022-04-16T06:39:29.675Z</time>
      </trkpt>
      <trkpt lat="45.64822" lon="5.88498">
        <ele>235</ele>
        <time>2022-04-16T06:39:30.675Z</time>
      </trkpt>
      <trkpt lat="45.64822" lon="5.8849">
        <ele>235</ele>
        <time>2022-04-16T06:39:31.675Z</time>
      </trkpt>
      <trkpt lat="45.64822" lon="5.88481">
        <ele>235</ele>
        <time>2022-04-16T06:39:32.676Z</time>
      </trkpt>
      <trkpt lat="45.64823" lon="5.88473">
        <ele>235</ele>
        <time>2022-04-16T06:39:33.675Z</time>
      </trkpt>
      <trkpt lat="45.64823" lon="5.88464">
        <ele>235</ele>
        <time>2022-04-16T06:39:34.675Z</time>
      </trkpt>
      <trkpt lat="45.64823" lon="5.88456">
        <ele>235</ele>
        <time>2022-04-16T06:39:35.676Z</time>
      </trkpt>
      <trkpt lat="45.64823" lon="5.88447">
        <ele>235</ele>
        <time>2022-04-16T06:39:36.675Z</time>
      </trkpt>
      <trkpt lat="45.64823" lon="5.88438">
        <ele>235</ele>
        <time>2022-04-16T06:39:37.676Z</time>
      </trkpt>
      <trkpt lat="45.64823" lon="5.88429">
        <ele>235</ele>
        <time>2022-04-16T06:39:38.675Z</time>
      </trkpt>
      <trkpt lat="45.64823" lon="5.88421">
        <ele>235</ele>
        <time>2022-04-16T06:39:39.676Z</time>
      </trkpt>
      <trkpt lat="45.64823" lon="5.88413">
        <ele>235</ele>
        <time>2022-04-16T06:39:40.675Z</time>
      </trkpt>
      <trkpt lat="45.64822" lon="5.88405">
        <ele>235</ele>
        <time>2022-04-16T06:39:41.675Z</time>
      </trkpt>
      <trkpt lat="45.64822" lon="5.88397">
        <ele>235</ele>
        <time>2022-04-16T06:39:42.676Z</time>
      </trkpt>
      <trkpt lat="45.64822" lon="5.8839">
        <ele>234</ele>
        <time>2022-04-16T06:39:43.675Z</time>
      </trkpt>
      <trkpt lat="45.64822" lon="5.88383">
        <ele>234</ele>
        <time>2022-04-16T06:39:44.675Z</time>
      </trkpt>
      <trkpt lat="45.64823" lon="5.88375">
        <ele>234</ele>
        <time>2022-04-16T06:39:45.676Z</time>
      </trkpt>
      <trkpt lat="45.64823" lon="5.88368">
        <ele>234</ele>
        <time>2022-04-16T06:39:46.675Z</time>
      </trkpt>
      <trkpt lat="45.64823" lon="5.88361">
        <ele>235</ele>
        <time>2022-04-16T06:39:47.676Z</time>
      </trkpt>
      <trkpt lat="45.64823" lon="5.88354">
        <ele>235</ele>
        <time>2022-04-16T06:39:48.675Z</time>
      </trkpt>
      <trkpt lat="45.64823" lon="5.88347">
        <ele>235</ele>
        <time>2022-04-16T06:39:49.676Z</time>
      </trkpt>
      <trkpt lat="45.64823" lon="5.8834">
        <ele>235</ele>
        <time>2022-04-16T06:39:50.675Z</time>
      </trkpt>
      <trkpt lat="45.64823" lon="5.88333">
        <ele>236</ele>
        <time>2022-04-16T06:39:51.676Z</time>
      </trkpt>
      <trkpt lat="45.64823" lon="5.88326">
        <ele>236</ele>
        <time>2022-04-16T06:39:52.675Z</time>
      </trkpt>
      <trkpt lat="45.64823" lon="5.88319">
        <ele>236</ele>
        <time>2022-04-16T06:39:53.676Z</time>
      </trkpt>
      <trkpt lat="45.64823" lon="5.88312">
        <ele>237</ele>
        <time>2022-04-16T06:39:54.675Z</time>
      </trkpt>
      <trkpt lat="45.64823" lon="5.88305">
        <ele>237</ele>
        <time>2022-04-16T06:39:55.675Z</time>
      </trkpt>
      <trkpt lat="45.64823" lon="5.88297">
        <ele>237</ele>
        <time>2022-04-16T06:39:56.675Z</time>
      </trkpt>
      <trkpt lat="45.64823" lon="5.8829">
        <ele>236</ele>
        <time>2022-04-16T06:39:57.676Z</time>
      </trkpt>
      <trkpt lat="45.64823" lon="5.88282">
        <ele>236</ele>
        <time>2022-04-16T06:39:58.676Z</time>
      </trkpt>
      <trkpt lat="45.64823" lon="5.88274">
        <ele>236</ele>
        <time>2022-04-16T06:39:59.675Z</time>
      </trkpt>
      <trkpt lat="45.64824" lon="5.88266">
        <ele>236</ele>
        <time>2022-04-16T06:40:00.675Z</time>
      </trkpt>
      <trkpt lat="45.64824" lon="5.88258">
        <ele>236</ele>
        <time>2022-04-16T06:40:01.676Z</time>
      </trkpt>
      <trkpt lat="45.64824" lon="5.88251">
        <ele>236</ele>
        <time>2022-04-16T06:40:02.675Z</time>
      </trkpt>
      <trkpt lat="45.64824" lon="5.88243">
        <ele>236</ele>
        <time>2022-04-16T06:40:03.676Z</time>
      </trkpt>
      <trkpt lat="45.64824" lon="5.88235">
        <ele>236</ele>
        <time>2022-04-16T06:40:04.675Z</time>
      </trkpt>
      <trkpt lat="45.64824" lon="5.88228">
        <ele>236</ele>
        <time>2022-04-16T06:40:05.675Z</time>
      </trkpt>
      <trkpt lat="45.64825" lon="5.8822">
        <ele>236</ele>
        <time>2022-04-16T06:40:06.675Z</time>
      </trkpt>
      <trkpt lat="45.64825" lon="5.88213">
        <ele>237</ele>
        <time>2022-04-16T06:40:07.676Z</time>
      </trkpt>
      <trkpt lat="45.64825" lon="5.88205">
        <ele>237</ele>
        <time>2022-04-16T06:40:08.676Z</time>
      </trkpt>
      <trkpt lat="45.64825" lon="5.88198">
        <ele>237</ele>
        <time>2022-04-16T06:40:09.675Z</time>
      </trkpt>
      <trkpt lat="45.64825" lon="5.8819">
        <ele>237</ele>
        <time>2022-04-16T06:40:10.675Z</time>
      </trkpt>
      <trkpt lat="45.64825" lon="5.88183">
        <ele>237</ele>
        <time>2022-04-16T06:40:11.675Z</time>
      </trkpt>
      <trkpt lat="45.64825" lon="5.88177">
        <ele>237</ele>
        <time>2022-04-16T06:40:12.675Z</time>
      </trkpt>
      <trkpt lat="45.64826" lon="5.8817">
        <ele>237</ele>
        <time>2022-04-16T06:40:13.676Z</time>
      </trkpt>
      <trkpt lat="45.64826" lon="5.88163">
        <ele>237</ele>
        <time>2022-04-16T06:40:14.675Z</time>
      </trkpt>
      <trkpt lat="45.64826" lon="5.88156">
        <ele>237</ele>
        <time>2022-04-16T06:40:15.675Z</time>
      </trkpt>
      <trkpt lat="45.64826" lon="5.88149">
        <ele>237</ele>
        <time>2022-04-16T06:40:16.675Z</time>
      </trkpt>
      <trkpt lat="45.64827" lon="5.88141">
        <ele>237</ele>
        <time>2022-04-16T06:40:17.676Z</time>
      </trkpt>
      <trkpt lat="45.64827" lon="5.88134">
        <ele>237</ele>
        <time>2022-04-16T06:40:18.675Z</time>
      </trkpt>
      <trkpt lat="45.64827" lon="5.88126">
        <ele>237</ele>
        <time>2022-04-16T06:40:19.675Z</time>
      </trkpt>
      <trkpt lat="45.64827" lon="5.88118">
        <ele>237</ele>
        <time>2022-04-16T06:40:20.675Z</time>
      </trkpt>
      <trkpt lat="45.64827" lon="5.88111">
        <ele>237</ele>
        <time>2022-04-16T06:40:21.675Z</time>
      </trkpt>
      <trkpt lat="45.64827" lon="5.88103">
        <ele>237</ele>
        <time>2022-04-16T06:40:22.675Z</time>
      </trkpt>
      <trkpt lat="45.64827" lon="5.88095">
        <ele>237</ele>
        <time>2022-04-16T06:40:23.675Z</time>
      </trkpt>
      <trkpt lat="45.64827" lon="5.88087">
        <ele>237</ele>
        <time>2022-04-16T06:40:24.675Z</time>
      </trkpt>
      <trkpt lat="45.64827" lon="5.88078">
        <ele>237</ele>
        <time>2022-04-16T06:40:25.676Z</time>
      </trkpt>
      <trkpt lat="45.64827" lon="5.8807">
        <ele>237</ele>
        <time>2022-04-16T06:40:26.675Z</time>
      </trkpt>
      <trkpt lat="45.64827" lon="5.88062">
        <ele>237</ele>
        <time>2022-04-16T06:40:27.675Z</time>
      </trkpt>
      <trkpt lat="45.64827" lon="5.88054">
        <ele>237</ele>
        <time>2022-04-16T06:40:28.675Z</time>
      </trkpt>
      <trkpt lat="45.64827" lon="5.88046">
        <ele>237</ele>
        <time>2022-04-16T06:40:29.676Z</time>
      </trkpt>
      <trkpt lat="45.64827" lon="5.88038">
        <ele>237</ele>
        <time>2022-04-16T06:40:30.675Z</time>
      </trkpt>
      <trkpt lat="45.64828" lon="5.8803">
        <ele>237</ele>
        <time>2022-04-16T06:40:31.676Z</time>
      </trkpt>
      <trkpt lat="45.64828" lon="5.88022">
        <ele>237</ele>
        <time>2022-04-16T06:40:32.676Z</time>
      </trkpt>
      <trkpt lat="45.64828" lon="5.88014">
        <ele>237</ele>
        <time>2022-04-16T06:40:33.675Z</time>
      </trkpt>
      <trkpt lat="45.64828" lon="5.88006">
        <ele>238</ele>
        <time>2022-04-16T06:40:34.675Z</time>
      </trkpt>
      <trkpt lat="45.64828" lon="5.87998">
        <ele>237</ele>
        <time>2022-04-16T06:40:35.675Z</time>
      </trkpt>
      <trkpt lat="45.64828" lon="5.8799">
        <ele>237</ele>
        <time>2022-04-16T06:40:36.675Z</time>
      </trkpt>
      <trkpt lat="45.64828" lon="5.87982">
        <ele>237</ele>
        <time>2022-04-16T06:40:37.676Z</time>
      </trkpt>
      <trkpt lat="45.64828" lon="5.87975">
        <ele>237</ele>
        <time>2022-04-16T06:40:38.675Z</time>
      </trkpt>
      <trkpt lat="45.64829" lon="5.87967">
        <ele>237</ele>
        <time>2022-04-16T06:40:39.675Z</time>
      </trkpt>
      <trkpt lat="45.64829" lon="5.87959">
        <ele>237</ele>
        <time>2022-04-16T06:40:40.675Z</time>
      </trkpt>
      <trkpt lat="45.64829" lon="5.87951">
        <ele>237</ele>
        <time>2022-04-16T06:40:41.676Z</time>
      </trkpt>
      <trkpt lat="45.64829" lon="5.87943">
        <ele>237</ele>
        <time>2022-04-16T06:40:42.676Z</time>
      </trkpt>
      <trkpt lat="45.64829" lon="5.87936">
        <ele>237</ele>
        <time>2022-04-16T06:40:43.675Z</time>
      </trkpt>
      <trkpt lat="45.64829" lon="5.87927">
        <ele>237</ele>
        <time>2022-04-16T06:40:44.675Z</time>
      </trkpt>
      <trkpt lat="45.64829" lon="5.87919">
        <ele>237</ele>
        <time>2022-04-16T06:40:45.675Z</time>
      </trkpt>
      <trkpt lat="45.64829" lon="5.87911">
        <ele>237</ele>
        <time>2022-04-16T06:40:46.675Z</time>
      </trkpt>
      <trkpt lat="45.64829" lon="5.87903">
        <ele>237</ele>
        <time>2022-04-16T06:40:47.675Z</time>
      </trkpt>
      <trkpt lat="45.64829" lon="5.87895">
        <ele>237</ele>
        <time>2022-04-16T06:40:48.676Z</time>
      </trkpt>
      <trkpt lat="45.64829" lon="5.87887">
        <ele>237</ele>
        <time>2022-04-16T06:40:49.675Z</time>
      </trkpt>
      <trkpt lat="45.64829" lon="5.87879">
        <ele>237</ele>
        <time>2022-04-16T06:40:50.675Z</time>
      </trkpt>
      <trkpt lat="45.64829" lon="5.8787">
        <ele>237</ele>
        <time>2022-04-16T06:40:51.675Z</time>
      </trkpt>
      <trkpt lat="45.64829" lon="5.87862">
        <ele>237</ele>
        <time>2022-04-16T06:40:52.675Z</time>
      </trkpt>
      <trkpt lat="45.6483" lon="5.87854">
        <ele>237</ele>
        <time>2022-04-16T06:40:53.676Z</time>
      </trkpt>
      <trkpt lat="45.6483" lon="5.87846">
        <ele>237</ele>
        <time>2022-04-16T06:40:54.676Z</time>
      </trkpt>
      <trkpt lat="45.6483" lon="5.87838">
        <ele>237</ele>
        <time>2022-04-16T06:40:55.676Z</time>
      </trkpt>
      <trkpt lat="45.6483" lon="5.8783">
        <ele>236</ele>
        <time>2022-04-16T06:40:56.676Z</time>
      </trkpt>
      <trkpt lat="45.6483" lon="5.87823">
        <ele>236</ele>
        <time>2022-04-16T06:40:57.676Z</time>
      </trkpt>
      <trkpt lat="45.6483" lon="5.87815">
        <ele>236</ele>
        <time>2022-04-16T06:40:58.675Z</time>
      </trkpt>
      <trkpt lat="45.6483" lon="5.87807">
        <ele>236</ele>
        <time>2022-04-16T06:40:59.675Z</time>
      </trkpt>
      <trkpt lat="45.6483" lon="5.87799">
        <ele>236</ele>
        <time>2022-04-16T06:41:00.676Z</time>
      </trkpt>
      <trkpt lat="45.64831" lon="5.87791">
        <ele>236</ele>
        <time>2022-04-16T06:41:01.676Z</time>
      </trkpt>
      <trkpt lat="45.64831" lon="5.87783">
        <ele>236</ele>
        <time>2022-04-16T06:41:02.676Z</time>
      </trkpt>
      <trkpt lat="45.64831" lon="5.87775">
        <ele>236</ele>
        <time>2022-04-16T06:41:03.676Z</time>
      </trkpt>
      <trkpt lat="45.64831" lon="5.87767">
        <ele>236</ele>
        <time>2022-04-16T06:41:04.676Z</time>
      </trkpt>
      <trkpt lat="45.64831" lon="5.87759">
        <ele>236</ele>
        <time>2022-04-16T06:41:05.676Z</time>
      </trkpt>
      <trkpt lat="45.64831" lon="5.87751">
        <ele>237</ele>
        <time>2022-04-16T06:41:06.676Z</time>
      </trkpt>
      <trkpt lat="45.64831" lon="5.87744">
        <ele>237</ele>
        <time>2022-04-16T06:41:07.675Z</time>
      </trkpt>
      <trkpt lat="45.64831" lon="5.87736">
        <ele>236</ele>
        <time>2022-04-16T06:41:08.676Z</time>
      </trkpt>
      <trkpt lat="45.64831" lon="5.87729">
        <ele>236</ele>
        <time>2022-04-16T06:41:09.676Z</time>
      </trkpt>
      <trkpt lat="45.64831" lon="5.87721">
        <ele>236</ele>
        <time>2022-04-16T06:41:10.676Z</time>
      </trkpt>
      <trkpt lat="45.64831" lon="5.87714">
        <ele>236</ele>
        <time>2022-04-16T06:41:11.676Z</time>
      </trkpt>
      <trkpt lat="45.64831" lon="5.87707">
        <ele>236</ele>
        <time>2022-04-16T06:41:12.675Z</time>
      </trkpt>
      <trkpt lat="45.64831" lon="5.87699">
        <ele>236</ele>
        <time>2022-04-16T06:41:13.676Z</time>
      </trkpt>
      <trkpt lat="45.64831" lon="5.87692">
        <ele>236</ele>
        <time>2022-04-16T06:41:14.676Z</time>
      </trkpt>
      <trkpt lat="45.64832" lon="5.87684">
        <ele>236</ele>
        <time>2022-04-16T06:41:15.675Z</time>
      </trkpt>
      <trkpt lat="45.64832" lon="5.87677">
        <ele>236</ele>
        <time>2022-04-16T06:41:16.675Z</time>
      </trkpt>
      <trkpt lat="45.64832" lon="5.8767">
        <ele>236</ele>
        <time>2022-04-16T06:41:17.675Z</time>
      </trkpt>
      <trkpt lat="45.64832" lon="5.87662">
        <ele>235</ele>
        <time>2022-04-16T06:41:18.676Z</time>
      </trkpt>
      <trkpt lat="45.64832" lon="5.87655">
        <ele>235</ele>
        <time>2022-04-16T06:41:19.676Z</time>
      </trkpt>
      <trkpt lat="45.64832" lon="5.87647">
        <ele>235</ele>
        <time>2022-04-16T06:41:20.676Z</time>
      </trkpt>
      <trkpt lat="45.64832" lon="5.8764">
        <ele>235</ele>
        <time>2022-04-16T06:41:21.676Z</time>
      </trkpt>
      <trkpt lat="45.64832" lon="5.87633">
        <ele>236</ele>
        <time>2022-04-16T06:41:22.676Z</time>
      </trkpt>
      <trkpt lat="45.64832" lon="5.87625">
        <ele>235</ele>
        <time>2022-04-16T06:41:23.675Z</time>
      </trkpt>
      <trkpt lat="45.64832" lon="5.87618">
        <ele>236</ele>
        <time>2022-04-16T06:41:24.676Z</time>
      </trkpt>
      <trkpt lat="45.64832" lon="5.8761">
        <ele>236</ele>
        <time>2022-04-16T06:41:25.675Z</time>
      </trkpt>
      <trkpt lat="45.64832" lon="5.87603">
        <ele>236</ele>
        <time>2022-04-16T06:41:26.676Z</time>
      </trkpt>
      <trkpt lat="45.64832" lon="5.87596">
        <ele>237</ele>
        <time>2022-04-16T06:41:27.676Z</time>
      </trkpt>
      <trkpt lat="45.64833" lon="5.87589">
        <ele>237</ele>
        <time>2022-04-16T06:41:28.676Z</time>
      </trkpt>
      <trkpt lat="45.64833" lon="5.87581">
        <ele>236</ele>
        <time>2022-04-16T06:41:29.675Z</time>
      </trkpt>
      <trkpt lat="45.64833" lon="5.87574">
        <ele>236</ele>
        <time>2022-04-16T06:41:30.676Z</time>
      </trkpt>
      <trkpt lat="45.64833" lon="5.87566">
        <ele>236</ele>
        <time>2022-04-16T06:41:31.675Z</time>
      </trkpt>
      <trkpt lat="45.64833" lon="5.87559">
        <ele>236</ele>
        <time>2022-04-16T06:41:32.676Z</time>
      </trkpt>
      <trkpt lat="45.64833" lon="5.87552">
        <ele>236</ele>
        <time>2022-04-16T06:41:33.675Z</time>
      </trkpt>
      <trkpt lat="45.64833" lon="5.87545">
        <ele>236</ele>
        <time>2022-04-16T06:41:34.676Z</time>
      </trkpt>
      <trkpt lat="45.64834" lon="5.87537">
        <ele>236</ele>
        <time>2022-04-16T06:41:35.675Z</time>
      </trkpt>
      <trkpt lat="45.64834" lon="5.8753">
        <ele>236</ele>
        <time>2022-04-16T06:41:36.676Z</time>
      </trkpt>
      <trkpt lat="45.64834" lon="5.87522">
        <ele>236</ele>
        <time>2022-04-16T06:41:37.676Z</time>
      </trkpt>
      <trkpt lat="45.64834" lon="5.87515">
        <ele>236</ele>
        <time>2022-04-16T06:41:38.676Z</time>
      </trkpt>
      <trkpt lat="45.64834" lon="5.87507">
        <ele>236</ele>
        <time>2022-04-16T06:41:39.676Z</time>
      </trkpt>
      <trkpt lat="45.64834" lon="5.875">
        <ele>237</ele>
        <time>2022-04-16T06:41:40.676Z</time>
      </trkpt>
      <trkpt lat="45.64834" lon="5.87492">
        <ele>237</ele>
        <time>2022-04-16T06:41:41.676Z</time>
      </trkpt>
      <trkpt lat="45.64834" lon="5.87485">
        <ele>237</ele>
        <time>2022-04-16T06:41:42.675Z</time>
      </trkpt>
      <trkpt lat="45.64834" lon="5.87477">
        <ele>237</ele>
        <time>2022-04-16T06:41:43.676Z</time>
      </trkpt>
      <trkpt lat="45.64834" lon="5.8747">
        <ele>238</ele>
        <time>2022-04-16T06:41:44.676Z</time>
      </trkpt>
      <trkpt lat="45.64834" lon="5.87463">
        <ele>238</ele>
        <time>2022-04-16T06:41:45.675Z</time>
      </trkpt>
      <trkpt lat="45.64834" lon="5.87456">
        <ele>238</ele>
        <time>2022-04-16T06:41:46.676Z</time>
      </trkpt>
      <trkpt lat="45.64833" lon="5.87449">
        <ele>238</ele>
        <time>2022-04-16T06:41:47.675Z</time>
      </trkpt>
      <trkpt lat="45.64833" lon="5.87441">
        <ele>238</ele>
        <time>2022-04-16T06:41:48.675Z</time>
      </trkpt>
      <trkpt lat="45.64832" lon="5.87434">
        <ele>238</ele>
        <time>2022-04-16T06:41:49.676Z</time>
      </trkpt>
      <trkpt lat="45.64831" lon="5.87427">
        <ele>238</ele>
        <time>2022-04-16T06:41:50.676Z</time>
      </trkpt>
      <trkpt lat="45.6483" lon="5.8742">
        <ele>238</ele>
        <time>2022-04-16T06:41:51.676Z</time>
      </trkpt>
      <trkpt lat="45.6483" lon="5.87413">
        <ele>238</ele>
        <time>2022-04-16T06:41:52.676Z</time>
      </trkpt>
      <trkpt lat="45.6483" lon="5.87405">
        <ele>238</ele>
        <time>2022-04-16T06:41:53.676Z</time>
      </trkpt>
      <trkpt lat="45.64831" lon="5.87398">
        <ele>238</ele>
        <time>2022-04-16T06:41:54.676Z</time>
      </trkpt>
      <trkpt lat="45.64832" lon="5.8739">
        <ele>238</ele>
        <time>2022-04-16T06:41:55.675Z</time>
      </trkpt>
      <trkpt lat="45.64833" lon="5.87383">
        <ele>238</ele>
        <time>2022-04-16T06:41:56.676Z</time>
      </trkpt>
      <trkpt lat="45.64834" lon="5.87376">
        <ele>238</ele>
        <time>2022-04-16T06:41:57.676Z</time>
      </trkpt>
      <trkpt lat="45.64834" lon="5.87368">
        <ele>238</ele>
        <time>2022-04-16T06:41:58.676Z</time>
      </trkpt>
      <trkpt lat="45.64834" lon="5.87361">
        <ele>238</ele>
        <time>2022-04-16T06:41:59.675Z</time>
      </trkpt>
      <trkpt lat="45.64833" lon="5.87353">
        <ele>238</ele>
        <time>2022-04-16T06:42:00.675Z</time>
      </trkpt>
      <trkpt lat="45.64832" lon="5.87346">
        <ele>238</ele>
        <time>2022-04-16T06:42:01.676Z</time>
      </trkpt>
      <trkpt lat="45.64831" lon="5.87338">
        <ele>239</ele>
        <time>2022-04-16T06:42:02.676Z</time>
      </trkpt>
      <trkpt lat="45.6483" lon="5.87331">
        <ele>239</ele>
        <time>2022-04-16T06:42:03.676Z</time>
      </trkpt>
      <trkpt lat="45.64829" lon="5.87323">
        <ele>240</ele>
        <time>2022-04-16T06:42:04.675Z</time>
      </trkpt>
      <trkpt lat="45.64828" lon="5.87316">
        <ele>240</ele>
        <time>2022-04-16T06:42:05.676Z</time>
      </trkpt>
      <trkpt lat="45.64827" lon="5.87308">
        <ele>240</ele>
        <time>2022-04-16T06:42:06.676Z</time>
      </trkpt>
      <trkpt lat="45.64826" lon="5.87301">
        <ele>240</ele>
        <time>2022-04-16T06:42:07.676Z</time>
      </trkpt>
      <trkpt lat="45.64825" lon="5.87293">
        <ele>240</ele>
        <time>2022-04-16T06:42:08.676Z</time>
      </trkpt>
      <trkpt lat="45.64825" lon="5.87285">
        <ele>241</ele>
        <time>2022-04-16T06:42:09.676Z</time>
      </trkpt>
      <trkpt lat="45.64825" lon="5.87278">
        <ele>241</ele>
        <time>2022-04-16T06:42:10.676Z</time>
      </trkpt>
      <trkpt lat="45.64825" lon="5.8727">
        <ele>241</ele>
        <time>2022-04-16T06:42:11.676Z</time>
      </trkpt>
      <trkpt lat="45.64825" lon="5.87263">
        <ele>241</ele>
        <time>2022-04-16T06:42:12.676Z</time>
      </trkpt>
      <trkpt lat="45.64825" lon="5.87255">
        <ele>242</ele>
        <time>2022-04-16T06:42:13.675Z</time>
      </trkpt>
      <trkpt lat="45.64825" lon="5.87247">
        <ele>242</ele>
        <time>2022-04-16T06:42:14.676Z</time>
      </trkpt>
      <trkpt lat="45.64825" lon="5.8724">
        <ele>242</ele>
        <time>2022-04-16T06:42:15.676Z</time>
      </trkpt>
      <trkpt lat="45.64825" lon="5.87232">
        <ele>242</ele>
        <time>2022-04-16T06:42:16.675Z</time>
      </trkpt>
      <trkpt lat="45.64825" lon="5.87225">
        <ele>242</ele>
        <time>2022-04-16T06:42:17.675Z</time>
      </trkpt>
      <trkpt lat="45.64824" lon="5.87217">
        <ele>243</ele>
        <time>2022-04-16T06:42:18.675Z</time>
      </trkpt>
      <trkpt lat="45.64824" lon="5.87209">
        <ele>242</ele>
        <time>2022-04-16T06:42:19.676Z</time>
      </trkpt>
      <trkpt lat="45.64824" lon="5.87201">
        <ele>242</ele>
        <time>2022-04-16T06:42:20.676Z</time>
      </trkpt>
      <trkpt lat="45.64823" lon="5.87193">
        <ele>241</ele>
        <time>2022-04-16T06:42:21.676Z</time>
      </trkpt>
      <trkpt lat="45.64823" lon="5.87185">
        <ele>241</ele>
        <time>2022-04-16T06:42:22.676Z</time>
      </trkpt>
      <trkpt lat="45.64823" lon="5.87177">
        <ele>240</ele>
        <time>2022-04-16T06:42:23.675Z</time>
      </trkpt>
      <trkpt lat="45.64822" lon="5.87169">
        <ele>240</ele>
        <time>2022-04-16T06:42:24.676Z</time>
      </trkpt>
      <trkpt lat="45.64822" lon="5.87161">
        <ele>240</ele>
        <time>2022-04-16T06:42:25.676Z</time>
      </trkpt>
      <trkpt lat="45.64822" lon="5.87153">
        <ele>240</ele>
        <time>2022-04-16T06:42:26.676Z</time>
      </trkpt>
      <trkpt lat="45.64822" lon="5.87145">
        <ele>240</ele>
        <time>2022-04-16T06:42:27.675Z</time>
      </trkpt>
      <trkpt lat="45.64821" lon="5.87137">
        <ele>240</ele>
        <time>2022-04-16T06:42:28.676Z</time>
      </trkpt>
      <trkpt lat="45.64821" lon="5.87129">
        <ele>240</ele>
        <time>2022-04-16T06:42:29.675Z</time>
      </trkpt>
      <trkpt lat="45.64821" lon="5.87121">
        <ele>240</ele>
        <time>2022-04-16T06:42:30.676Z</time>
      </trkpt>
      <trkpt lat="45.6482" lon="5.87114">
        <ele>241</ele>
        <time>2022-04-16T06:42:31.676Z</time>
      </trkpt>
      <trkpt lat="45.6482" lon="5.87106">
        <ele>241</ele>
        <time>2022-04-16T06:42:32.676Z</time>
      </trkpt>
      <trkpt lat="45.6482" lon="5.87099">
        <ele>241</ele>
        <time>2022-04-16T06:42:33.675Z</time>
      </trkpt>
      <trkpt lat="45.6482" lon="5.87091">
        <ele>241</ele>
        <time>2022-04-16T06:42:34.676Z</time>
      </trkpt>
      <trkpt lat="45.6482" lon="5.87083">
        <ele>241</ele>
        <time>2022-04-16T06:42:35.676Z</time>
      </trkpt>
      <trkpt lat="45.64819" lon="5.87076">
        <ele>241</ele>
        <time>2022-04-16T06:42:36.676Z</time>
      </trkpt>
      <trkpt lat="45.64819" lon="5.87068">
        <ele>242</ele>
        <time>2022-04-16T06:42:37.676Z</time>
      </trkpt>
      <trkpt lat="45.64819" lon="5.8706">
        <ele>242</ele>
        <time>2022-04-16T06:42:38.676Z</time>
      </trkpt>
      <trkpt lat="45.64818" lon="5.87052">
        <ele>242</ele>
        <time>2022-04-16T06:42:39.675Z</time>
      </trkpt>
      <trkpt lat="45.64818" lon="5.87045">
        <ele>242</ele>
        <time>2022-04-16T06:42:40.676Z</time>
      </trkpt>
      <trkpt lat="45.64818" lon="5.87037">
        <ele>243</ele>
        <time>2022-04-16T06:42:41.676Z</time>
      </trkpt>
      <trkpt lat="45.64817" lon="5.8703">
        <ele>243</ele>
        <time>2022-04-16T06:42:42.675Z</time>
      </trkpt>
      <trkpt lat="45.64817" lon="5.87022">
        <ele>243</ele>
        <time>2022-04-16T06:42:43.676Z</time>
      </trkpt>
      <trkpt lat="45.64817" lon="5.87015">
        <ele>244</ele>
        <time>2022-04-16T06:42:44.676Z</time>
      </trkpt>
      <trkpt lat="45.64817" lon="5.87008">
        <ele>244</ele>
        <time>2022-04-16T06:42:45.676Z</time>
      </trkpt>
      <trkpt lat="45.64816" lon="5.87">
        <ele>245</ele>
        <time>2022-04-16T06:42:46.676Z</time>
      </trkpt>
      <trkpt lat="45.64816" lon="5.86993">
        <ele>245</ele>
        <time>2022-04-16T06:42:47.675Z</time>
      </trkpt>
      <trkpt lat="45.64816" lon="5.86985">
        <ele>246</ele>
        <time>2022-04-16T06:42:48.676Z</time>
      </trkpt>
      <trkpt lat="45.64816" lon="5.86977">
        <ele>246</ele>
        <time>2022-04-16T06:42:49.675Z</time>
      </trkpt>
      <trkpt lat="45.64815" lon="5.86969">
        <ele>246</ele>
        <time>2022-04-16T06:42:50.675Z</time>
      </trkpt>
      <trkpt lat="45.64815" lon="5.86961">
        <ele>246</ele>
        <time>2022-04-16T06:42:51.676Z</time>
      </trkpt>
      <trkpt lat="45.64815" lon="5.86953">
        <ele>246</ele>
        <time>2022-04-16T06:42:52.675Z</time>
      </trkpt>
      <trkpt lat="45.64815" lon="5.86945">
        <ele>245</ele>
        <time>2022-04-16T06:42:53.676Z</time>
      </trkpt>
      <trkpt lat="45.64815" lon="5.86938">
        <ele>245</ele>
        <time>2022-04-16T06:42:54.676Z</time>
      </trkpt>
      <trkpt lat="45.64814" lon="5.8693">
        <ele>245</ele>
        <time>2022-04-16T06:42:55.675Z</time>
      </trkpt>
      <trkpt lat="45.64814" lon="5.86922">
        <ele>245</ele>
        <time>2022-04-16T06:42:56.676Z</time>
      </trkpt>
      <trkpt lat="45.64813" lon="5.86915">
        <ele>245</ele>
        <time>2022-04-16T06:42:57.676Z</time>
      </trkpt>
      <trkpt lat="45.64813" lon="5.86907">
        <ele>245</ele>
        <time>2022-04-16T06:42:58.676Z</time>
      </trkpt>
      <trkpt lat="45.64813" lon="5.86899">
        <ele>245</ele>
        <time>2022-04-16T06:42:59.676Z</time>
      </trkpt>
      <trkpt lat="45.64813" lon="5.86891">
        <ele>246</ele>
        <time>2022-04-16T06:43:00.676Z</time>
      </trkpt>
      <trkpt lat="45.64813" lon="5.86883">
        <ele>246</ele>
        <time>2022-04-16T06:43:01.676Z</time>
      </trkpt>
      <trkpt lat="45.64812" lon="5.86875">
        <ele>246</ele>
        <time>2022-04-16T06:43:02.676Z</time>
      </trkpt>
      <trkpt lat="45.64811" lon="5.86867">
        <ele>247</ele>
        <time>2022-04-16T06:43:03.675Z</time>
      </trkpt>
      <trkpt lat="45.64811" lon="5.86859">
        <ele>247</ele>
        <time>2022-04-16T06:43:04.676Z</time>
      </trkpt>
      <trkpt lat="45.64809" lon="5.86851">
        <ele>247</ele>
        <time>2022-04-16T06:43:05.676Z</time>
      </trkpt>
      <trkpt lat="45.64809" lon="5.86844">
        <ele>248</ele>
        <time>2022-04-16T06:43:06.675Z</time>
      </trkpt>
      <trkpt lat="45.64809" lon="5.86836">
        <ele>248</ele>
        <time>2022-04-16T06:43:07.675Z</time>
      </trkpt>
      <trkpt lat="45.64808" lon="5.86828">
        <ele>248</ele>
        <time>2022-04-16T06:43:08.676Z</time>
      </trkpt>
      <trkpt lat="45.64808" lon="5.8682">
        <ele>249</ele>
        <time>2022-04-16T06:43:09.676Z</time>
      </trkpt>
      <trkpt lat="45.64808" lon="5.86812">
        <ele>249</ele>
        <time>2022-04-16T06:43:10.676Z</time>
      </trkpt>
      <trkpt lat="45.64808" lon="5.86804">
        <ele>249</ele>
        <time>2022-04-16T06:43:11.675Z</time>
      </trkpt>
      <trkpt lat="45.64808" lon="5.86797">
        <ele>250</ele>
        <time>2022-04-16T06:43:12.676Z</time>
      </trkpt>
      <trkpt lat="45.64807" lon="5.86789">
        <ele>249</ele>
        <time>2022-04-16T06:43:13.676Z</time>
      </trkpt>
      <trkpt lat="45.64807" lon="5.86782">
        <ele>249</ele>
        <time>2022-04-16T06:43:14.676Z</time>
      </trkpt>
      <trkpt lat="45.64806" lon="5.86774">
        <ele>248</ele>
        <time>2022-04-16T06:43:15.676Z</time>
      </trkpt>
      <trkpt lat="45.64806" lon="5.86767">
        <ele>248</ele>
        <time>2022-04-16T06:43:16.676Z</time>
      </trkpt>
      <trkpt lat="45.64805" lon="5.86759">
        <ele>248</ele>
        <time>2022-04-16T06:43:17.676Z</time>
      </trkpt>
      <trkpt lat="45.64805" lon="5.86752">
        <ele>248</ele>
        <time>2022-04-16T06:43:18.676Z</time>
      </trkpt>
      <trkpt lat="45.64805" lon="5.86745">
        <ele>248</ele>
        <time>2022-04-16T06:43:19.676Z</time>
      </trkpt>
      <trkpt lat="45.64805" lon="5.86737">
        <ele>248</ele>
        <time>2022-04-16T06:43:20.676Z</time>
      </trkpt>
      <trkpt lat="45.64804" lon="5.8673">
        <ele>248</ele>
        <time>2022-04-16T06:43:21.676Z</time>
      </trkpt>
      <trkpt lat="45.64804" lon="5.86722">
        <ele>249</ele>
        <time>2022-04-16T06:43:22.676Z</time>
      </trkpt>
      <trkpt lat="45.64803" lon="5.86715">
        <ele>249</ele>
        <time>2022-04-16T06:43:23.676Z</time>
      </trkpt>
      <trkpt lat="45.64802" lon="5.86707">
        <ele>249</ele>
        <time>2022-04-16T06:43:24.676Z</time>
      </trkpt>
      <trkpt lat="45.64802" lon="5.867">
        <ele>249</ele>
        <time>2022-04-16T06:43:25.676Z</time>
      </trkpt>
      <trkpt lat="45.64802" lon="5.86692">
        <ele>249</ele>
        <time>2022-04-16T06:43:26.676Z</time>
      </trkpt>
      <trkpt lat="45.64802" lon="5.86685">
        <ele>249</ele>
        <time>2022-04-16T06:43:27.676Z</time>
      </trkpt>
      <trkpt lat="45.64802" lon="5.86677">
        <ele>249</ele>
        <time>2022-04-16T06:43:28.676Z</time>
      </trkpt>
      <trkpt lat="45.64802" lon="5.86669">
        <ele>248</ele>
        <time>2022-04-16T06:43:29.676Z</time>
      </trkpt>
      <trkpt lat="45.64802" lon="5.86662">
        <ele>248</ele>
        <time>2022-04-16T06:43:30.675Z</time>
      </trkpt>
      <trkpt lat="45.64802" lon="5.86654">
        <ele>248</ele>
        <time>2022-04-16T06:43:31.676Z</time>
      </trkpt>
      <trkpt lat="45.64802" lon="5.86647">
        <ele>247</ele>
        <time>2022-04-16T06:43:32.676Z</time>
      </trkpt>
      <trkpt lat="45.64802" lon="5.86639">
        <ele>247</ele>
        <time>2022-04-16T06:43:33.676Z</time>
      </trkpt>
      <trkpt lat="45.64801" lon="5.86632">
        <ele>246</ele>
        <time>2022-04-16T06:43:34.676Z</time>
      </trkpt>
      <trkpt lat="45.64801" lon="5.86625">
        <ele>246</ele>
        <time>2022-04-16T06:43:35.676Z</time>
      </trkpt>
      <trkpt lat="45.64801" lon="5.86617">
        <ele>245</ele>
        <time>2022-04-16T06:43:36.676Z</time>
      </trkpt>
      <trkpt lat="45.648" lon="5.8661">
        <ele>244</ele>
        <time>2022-04-16T06:43:37.675Z</time>
      </trkpt>
      <trkpt lat="45.648" lon="5.86603">
        <ele>244</ele>
        <time>2022-04-16T06:43:38.676Z</time>
      </trkpt>
      <trkpt lat="45.648" lon="5.86595">
        <ele>243</ele>
        <time>2022-04-16T06:43:39.676Z</time>
      </trkpt>
      <trkpt lat="45.648" lon="5.86588">
        <ele>243</ele>
        <time>2022-04-16T06:43:40.676Z</time>
      </trkpt>
      <trkpt lat="45.64799" lon="5.86581">
        <ele>243</ele>
        <time>2022-04-16T06:43:41.675Z</time>
      </trkpt>
      <trkpt lat="45.64799" lon="5.86574">
        <ele>243</ele>
        <time>2022-04-16T06:43:42.676Z</time>
      </trkpt>
      <trkpt lat="45.648" lon="5.86567">
        <ele>242</ele>
        <time>2022-04-16T06:43:43.676Z</time>
      </trkpt>
      <trkpt lat="45.64801" lon="5.8656">
        <ele>242</ele>
        <time>2022-04-16T06:43:44.676Z</time>
      </trkpt>
      <trkpt lat="45.64803" lon="5.86553">
        <ele>242</ele>
        <time>2022-04-16T06:43:45.676Z</time>
      </trkpt>
      <trkpt lat="45.64806" lon="5.86546">
        <ele>241</ele>
        <time>2022-04-16T06:43:46.676Z</time>
      </trkpt>
      <trkpt lat="45.64808" lon="5.8654">
        <ele>241</ele>
        <time>2022-04-16T06:43:47.676Z</time>
      </trkpt>
      <trkpt lat="45.64812" lon="5.86533">
        <ele>240</ele>
        <time>2022-04-16T06:43:48.676Z</time>
      </trkpt>
      <trkpt lat="45.64815" lon="5.86526">
        <ele>240</ele>
        <time>2022-04-16T06:43:49.675Z</time>
      </trkpt>
      <trkpt lat="45.64818" lon="5.8652">
        <ele>240</ele>
        <time>2022-04-16T06:43:50.676Z</time>
      </trkpt>
      <trkpt lat="45.64821" lon="5.86514">
        <ele>239</ele>
        <time>2022-04-16T06:43:51.676Z</time>
      </trkpt>
      <trkpt lat="45.64825" lon="5.86508">
        <ele>239</ele>
        <time>2022-04-16T06:43:52.676Z</time>
      </trkpt>
      <trkpt lat="45.64829" lon="5.86502">
        <ele>238</ele>
        <time>2022-04-16T06:43:53.676Z</time>
      </trkpt>
      <trkpt lat="45.64833" lon="5.86498">
        <ele>238</ele>
        <time>2022-04-16T06:43:54.676Z</time>
      </trkpt>
      <trkpt lat="45.64838" lon="5.86495">
        <ele>238</ele>
        <time>2022-04-16T06:43:55.676Z</time>
      </trkpt>
      <trkpt lat="45.64843" lon="5.86494">
        <ele>238</ele>
        <time>2022-04-16T06:43:56.676Z</time>
      </trkpt>
      <trkpt lat="45.64848" lon="5.86495">
        <ele>237</ele>
        <time>2022-04-16T06:43:57.676Z</time>
      </trkpt>
      <trkpt lat="45.64854" lon="5.86496">
        <ele>237</ele>
        <time>2022-04-16T06:43:58.676Z</time>
      </trkpt>
      <trkpt lat="45.6486" lon="5.86497">
        <ele>237</ele>
        <time>2022-04-16T06:43:59.676Z</time>
      </trkpt>
      <trkpt lat="45.64866" lon="5.86498">
        <ele>236</ele>
        <time>2022-04-16T06:44:00.676Z</time>
      </trkpt>
      <trkpt lat="45.64871" lon="5.86499">
        <ele>236</ele>
        <time>2022-04-16T06:44:01.676Z</time>
      </trkpt>
      <trkpt lat="45.64877" lon="5.865">
        <ele>236</ele>
        <time>2022-04-16T06:44:02.676Z</time>
      </trkpt>
      <trkpt lat="45.64882" lon="5.865">
        <ele>235</ele>
        <time>2022-04-16T06:44:03.676Z</time>
      </trkpt>
      <trkpt lat="45.64888" lon="5.86501">
        <ele>235</ele>
        <time>2022-04-16T06:44:04.676Z</time>
      </trkpt>
      <trkpt lat="45.64893" lon="5.86502">
        <ele>235</ele>
        <time>2022-04-16T06:44:05.676Z</time>
      </trkpt>
      <trkpt lat="45.64898" lon="5.86502">
        <ele>235</ele>
        <time>2022-04-16T06:44:06.675Z</time>
      </trkpt>
      <trkpt lat="45.64904" lon="5.86502">
        <ele>235</ele>
        <time>2022-04-16T06:44:07.675Z</time>
      </trkpt>
      <trkpt lat="45.64909" lon="5.86502">
        <ele>235</ele>
        <time>2022-04-16T06:44:08.676Z</time>
      </trkpt>
      <trkpt lat="45.64914" lon="5.86501">
        <ele>235</ele>
        <time>2022-04-16T06:44:09.676Z</time>
      </trkpt>
      <trkpt lat="45.64919" lon="5.86501">
        <ele>235</ele>
        <time>2022-04-16T06:44:10.676Z</time>
      </trkpt>
      <trkpt lat="45.64924" lon="5.86499">
        <ele>235</ele>
        <time>2022-04-16T06:44:11.676Z</time>
      </trkpt>
      <trkpt lat="45.6493" lon="5.86498">
        <ele>235</ele>
        <time>2022-04-16T06:44:12.676Z</time>
      </trkpt>
      <trkpt lat="45.64935" lon="5.86497">
        <ele>235</ele>
        <time>2022-04-16T06:44:13.675Z</time>
      </trkpt>
      <trkpt lat="45.6494" lon="5.86496">
        <ele>235</ele>
        <time>2022-04-16T06:44:14.675Z</time>
      </trkpt>
      <trkpt lat="45.64945" lon="5.86494">
        <ele>235</ele>
        <time>2022-04-16T06:44:15.675Z</time>
      </trkpt>
      <trkpt lat="45.6495" lon="5.86493">
        <ele>235</ele>
        <time>2022-04-16T06:44:16.675Z</time>
      </trkpt>
      <trkpt lat="45.64955" lon="5.86492">
        <ele>235</ele>
        <time>2022-04-16T06:44:17.675Z</time>
      </trkpt>
      <trkpt lat="45.64961" lon="5.86491">
        <ele>235</ele>
        <time>2022-04-16T06:44:18.676Z</time>
      </trkpt>
      <trkpt lat="45.64966" lon="5.8649">
        <ele>235</ele>
        <time>2022-04-16T06:44:19.675Z</time>
      </trkpt>
      <trkpt lat="45.64971" lon="5.86488">
        <ele>235</ele>
        <time>2022-04-16T06:44:20.676Z</time>
      </trkpt>
      <trkpt lat="45.64976" lon="5.86486">
        <ele>235</ele>
        <time>2022-04-16T06:44:21.676Z</time>
      </trkpt>
      <trkpt lat="45.64981" lon="5.86484">
        <ele>235</ele>
        <time>2022-04-16T06:44:22.676Z</time>
      </trkpt>
      <trkpt lat="45.64986" lon="5.86482">
        <ele>235</ele>
        <time>2022-04-16T06:44:23.676Z</time>
      </trkpt>
      <trkpt lat="45.64991" lon="5.8648">
        <ele>234</ele>
        <time>2022-04-16T06:44:24.676Z</time>
      </trkpt>
      <trkpt lat="45.64996" lon="5.86477">
        <ele>234</ele>
        <time>2022-04-16T06:44:25.675Z</time>
      </trkpt>
      <trkpt lat="45.65001" lon="5.86475">
        <ele>234</ele>
        <time>2022-04-16T06:44:26.676Z</time>
      </trkpt>
      <trkpt lat="45.65005" lon="5.86473">
        <ele>233</ele>
        <time>2022-04-16T06:44:27.676Z</time>
      </trkpt>
      <trkpt lat="45.6501" lon="5.8647">
        <ele>233</ele>
        <time>2022-04-16T06:44:28.676Z</time>
      </trkpt>
      <trkpt lat="45.65015" lon="5.86467">
        <ele>233</ele>
        <time>2022-04-16T06:44:29.676Z</time>
      </trkpt>
      <trkpt lat="45.65019" lon="5.86464">
        <ele>234</ele>
        <time>2022-04-16T06:44:30.676Z</time>
      </trkpt>
      <trkpt lat="45.65024" lon="5.86461">
        <ele>234</ele>
        <time>2022-04-16T06:44:31.676Z</time>
      </trkpt>
      <trkpt lat="45.65029" lon="5.86457">
        <ele>234</ele>
        <time>2022-04-16T06:44:32.675Z</time>
      </trkpt>
      <trkpt lat="45.65033" lon="5.86454">
        <ele>234</ele>
        <time>2022-04-16T06:44:33.676Z</time>
      </trkpt>
      <trkpt lat="45.65037" lon="5.8645">
        <ele>235</ele>
        <time>2022-04-16T06:44:34.675Z</time>
      </trkpt>
      <trkpt lat="45.65042" lon="5.86447">
        <ele>235</ele>
        <time>2022-04-16T06:44:35.676Z</time>
      </trkpt>
      <trkpt lat="45.65046" lon="5.86443">
        <ele>235</ele>
        <time>2022-04-16T06:44:36.675Z</time>
      </trkpt>
      <trkpt lat="45.65051" lon="5.8644">
        <ele>235</ele>
        <time>2022-04-16T06:44:37.675Z</time>
      </trkpt>
      <trkpt lat="45.65055" lon="5.86436">
        <ele>235</ele>
        <time>2022-04-16T06:44:38.675Z</time>
      </trkpt>
      <trkpt lat="45.65059" lon="5.86433">
        <ele>235</ele>
        <time>2022-04-16T06:44:39.676Z</time>
      </trkpt>
      <trkpt lat="45.65063" lon="5.86429">
        <ele>235</ele>
        <time>2022-04-16T06:44:40.675Z</time>
      </trkpt>
      <trkpt lat="45.65067" lon="5.86424">
        <ele>235</ele>
        <time>2022-04-16T06:44:41.676Z</time>
      </trkpt>
      <trkpt lat="45.65071" lon="5.8642">
        <ele>236</ele>
        <time>2022-04-16T06:44:42.675Z</time>
      </trkpt>
      <trkpt lat="45.65076" lon="5.86416">
        <ele>236</ele>
        <time>2022-04-16T06:44:43.676Z</time>
      </trkpt>
      <trkpt lat="45.6508" lon="5.86411">
        <ele>236</ele>
        <time>2022-04-16T06:44:44.676Z</time>
      </trkpt>
      <trkpt lat="45.65084" lon="5.86406">
        <ele>236</ele>
        <time>2022-04-16T06:44:45.676Z</time>
      </trkpt>
      <trkpt lat="45.65088" lon="5.864">
        <ele>237</ele>
        <time>2022-04-16T06:44:46.676Z</time>
      </trkpt>
      <trkpt lat="45.65092" lon="5.86395">
        <ele>237</ele>
        <time>2022-04-16T06:44:47.676Z</time>
      </trkpt>
      <trkpt lat="45.65095" lon="5.8639">
        <ele>237</ele>
        <time>2022-04-16T06:44:48.675Z</time>
      </trkpt>
      <trkpt lat="45.65099" lon="5.86385">
        <ele>237</ele>
        <time>2022-04-16T06:44:49.675Z</time>
      </trkpt>
      <trkpt lat="45.65102" lon="5.8638">
        <ele>237</ele>
        <time>2022-04-16T06:44:50.676Z</time>
      </trkpt>
      <trkpt lat="45.65106" lon="5.86375">
        <ele>237</ele>
        <time>2022-04-16T06:44:51.676Z</time>
      </trkpt>
      <trkpt lat="45.6511" lon="5.8637">
        <ele>236</ele>
        <time>2022-04-16T06:44:52.675Z</time>
      </trkpt>
      <trkpt lat="45.65113" lon="5.86365">
        <ele>236</ele>
        <time>2022-04-16T06:44:53.676Z</time>
      </trkpt>
      <trkpt lat="45.65116" lon="5.8636">
        <ele>236</ele>
        <time>2022-04-16T06:44:54.676Z</time>
      </trkpt>
      <trkpt lat="45.65119" lon="5.86352">
        <ele>236</ele>
        <time>2022-04-16T06:44:55.676Z</time>
      </trkpt>
      <trkpt lat="45.65122" lon="5.86345">
        <ele>235</ele>
        <time>2022-04-16T06:44:56.676Z</time>
      </trkpt>
      <trkpt lat="45.65125" lon="5.86338">
        <ele>235</ele>
        <time>2022-04-16T06:44:57.676Z</time>
      </trkpt>
      <trkpt lat="45.65128" lon="5.86332">
        <ele>234</ele>
        <time>2022-04-16T06:44:58.676Z</time>
      </trkpt>
      <trkpt lat="45.65131" lon="5.86325">
        <ele>234</ele>
        <time>2022-04-16T06:44:59.676Z</time>
      </trkpt>
      <trkpt lat="45.65134" lon="5.86318">
        <ele>234</ele>
        <time>2022-04-16T06:45:00.676Z</time>
      </trkpt>
      <trkpt lat="45.65136" lon="5.86311">
        <ele>234</ele>
        <time>2022-04-16T06:45:01.676Z</time>
      </trkpt>
      <trkpt lat="45.65139" lon="5.86304">
        <ele>234</ele>
        <time>2022-04-16T06:45:02.675Z</time>
      </trkpt>
      <trkpt lat="45.65141" lon="5.86298">
        <ele>234</ele>
        <time>2022-04-16T06:45:03.676Z</time>
      </trkpt>
      <trkpt lat="45.65144" lon="5.86292">
        <ele>235</ele>
        <time>2022-04-16T06:45:04.675Z</time>
      </trkpt>
      <trkpt lat="45.65146" lon="5.86287">
        <ele>235</ele>
        <time>2022-04-16T06:45:05.676Z</time>
      </trkpt>
      <trkpt lat="45.65149" lon="5.86282">
        <ele>236</ele>
        <time>2022-04-16T06:45:06.676Z</time>
      </trkpt>
      <trkpt lat="45.65151" lon="5.86278">
        <ele>236</ele>
        <time>2022-04-16T06:45:07.675Z</time>
      </trkpt>
      <trkpt lat="45.65154" lon="5.86274">
        <ele>237</ele>
        <time>2022-04-16T06:45:08.675Z</time>
      </trkpt>
      <trkpt lat="45.65157" lon="5.86272">
        <ele>237</ele>
        <time>2022-04-16T06:45:09.676Z</time>
      </trkpt>
      <trkpt lat="45.6516" lon="5.8627">
        <ele>238</ele>
        <time>2022-04-16T06:45:10.676Z</time>
      </trkpt>
      <trkpt lat="45.65163" lon="5.86267">
        <ele>238</ele>
        <time>2022-04-16T06:45:11.676Z</time>
      </trkpt>
      <trkpt lat="45.65166" lon="5.86265">
        <ele>238</ele>
        <time>2022-04-16T06:45:12.675Z</time>
      </trkpt>
      <trkpt lat="45.65168" lon="5.86262">
        <ele>238</ele>
        <time>2022-04-16T06:45:13.675Z</time>
      </trkpt>
      <trkpt lat="45.65169" lon="5.86259">
        <ele>238</ele>
        <time>2022-04-16T06:45:14.676Z</time>
      </trkpt>
      <trkpt lat="45.65171" lon="5.86256">
        <ele>238</ele>
        <time>2022-04-16T06:45:15.676Z</time>
      </trkpt>
      <trkpt lat="45.65173" lon="5.86252">
        <ele>239</ele>
        <time>2022-04-16T06:45:16.676Z</time>
      </trkpt>
      <trkpt lat="45.65174" lon="5.86249">
        <ele>239</ele>
        <time>2022-04-16T06:45:17.675Z</time>
      </trkpt>
      <trkpt lat="45.65176" lon="5.86246">
        <ele>239</ele>
        <time>2022-04-16T06:45:18.676Z</time>
      </trkpt>
      <trkpt lat="45.65177" lon="5.86242">
        <ele>239</ele>
        <time>2022-04-16T06:45:19.676Z</time>
      </trkpt>
      <trkpt lat="45.65178" lon="5.86238">
        <ele>239</ele>
        <time>2022-04-16T06:45:20.676Z</time>
      </trkpt>
      <trkpt lat="45.6518" lon="5.86234">
        <ele>240</ele>
        <time>2022-04-16T06:45:21.675Z</time>
      </trkpt>
      <trkpt lat="45.65182" lon="5.8623">
        <ele>240</ele>
        <time>2022-04-16T06:45:22.676Z</time>
      </trkpt>
      <trkpt lat="45.65184" lon="5.86225">
        <ele>241</ele>
        <time>2022-04-16T06:45:23.675Z</time>
      </trkpt>
      <trkpt lat="45.65187" lon="5.86221">
        <ele>241</ele>
        <time>2022-04-16T06:45:24.675Z</time>
      </trkpt>
      <trkpt lat="45.65189" lon="5.86217">
        <ele>241</ele>
        <time>2022-04-16T06:45:25.676Z</time>
      </trkpt>
      <trkpt lat="45.65192" lon="5.86215">
        <ele>240</ele>
        <time>2022-04-16T06:45:26.676Z</time>
      </trkpt>
      <trkpt lat="45.65195" lon="5.86215">
        <ele>240</ele>
        <time>2022-04-16T06:45:27.675Z</time>
      </trkpt>
      <trkpt lat="45.65198" lon="5.86216">
        <ele>240</ele>
        <time>2022-04-16T06:45:28.676Z</time>
      </trkpt>
      <trkpt lat="45.65202" lon="5.86218">
        <ele>239</ele>
        <time>2022-04-16T06:45:29.676Z</time>
      </trkpt>
      <trkpt lat="45.65206" lon="5.86221">
        <ele>238</ele>
        <time>2022-04-16T06:45:30.676Z</time>
      </trkpt>
      <trkpt lat="45.65209" lon="5.86224">
        <ele>238</ele>
        <time>2022-04-16T06:45:31.676Z</time>
      </trkpt>
      <trkpt lat="45.65214" lon="5.86227">
        <ele>238</ele>
        <time>2022-04-16T06:45:32.676Z</time>
      </trkpt>
      <trkpt lat="45.65218" lon="5.86229">
        <ele>237</ele>
        <time>2022-04-16T06:45:33.676Z</time>
      </trkpt>
      <trkpt lat="45.65223" lon="5.8623">
        <ele>237</ele>
        <time>2022-04-16T06:45:34.676Z</time>
      </trkpt>
      <trkpt lat="45.65228" lon="5.86232">
        <ele>236</ele>
        <time>2022-04-16T06:45:35.676Z</time>
      </trkpt>
      <trkpt lat="45.65233" lon="5.86233">
        <ele>235</ele>
        <time>2022-04-16T06:45:36.676Z</time>
      </trkpt>
      <trkpt lat="45.65238" lon="5.86235">
        <ele>235</ele>
        <time>2022-04-16T06:45:37.675Z</time>
      </trkpt>
      <trkpt lat="45.65244" lon="5.86237">
        <ele>234</ele>
        <time>2022-04-16T06:45:38.676Z</time>
      </trkpt>
      <trkpt lat="45.65249" lon="5.86237">
        <ele>234</ele>
        <time>2022-04-16T06:45:39.675Z</time>
      </trkpt>
      <trkpt lat="45.65253" lon="5.86238">
        <ele>233</ele>
        <time>2022-04-16T06:45:40.676Z</time>
      </trkpt>
      <trkpt lat="45.65259" lon="5.86238">
        <ele>233</ele>
        <time>2022-04-16T06:45:41.675Z</time>
      </trkpt>
      <trkpt lat="45.65264" lon="5.86237">
        <ele>233</ele>
        <time>2022-04-16T06:45:42.676Z</time>
      </trkpt>
      <trkpt lat="45.65269" lon="5.86236">
        <ele>234</ele>
        <time>2022-04-16T06:45:43.675Z</time>
      </trkpt>
      <trkpt lat="45.65275" lon="5.86234">
        <ele>234</ele>
        <time>2022-04-16T06:45:44.676Z</time>
      </trkpt>
      <trkpt lat="45.6528" lon="5.86232">
        <ele>234</ele>
        <time>2022-04-16T06:45:45.675Z</time>
      </trkpt>
      <trkpt lat="45.65283" lon="5.8623">
        <ele>233</ele>
        <time>2022-04-16T06:45:46.676Z</time>
      </trkpt>
      <trkpt lat="45.65288" lon="5.86227">
        <ele>234</ele>
        <time>2022-04-16T06:45:47.676Z</time>
      </trkpt>
      <trkpt lat="45.65292" lon="5.86224">
        <ele>234</ele>
        <time>2022-04-16T06:45:48.675Z</time>
      </trkpt>
      <trkpt lat="45.65297" lon="5.86221">
        <ele>234</ele>
        <time>2022-04-16T06:45:49.675Z</time>
      </trkpt>
      <trkpt lat="45.65302" lon="5.86217">
        <ele>234</ele>
        <time>2022-04-16T06:45:50.676Z</time>
      </trkpt>
      <trkpt lat="45.65306" lon="5.86216">
        <ele>234</ele>
        <time>2022-04-16T06:45:51.675Z</time>
      </trkpt>
      <trkpt lat="45.65311" lon="5.86214">
        <ele>234</ele>
        <time>2022-04-16T06:45:52.676Z</time>
      </trkpt>
      <trkpt lat="45.65315" lon="5.86214">
        <ele>234</ele>
        <time>2022-04-16T06:45:53.676Z</time>
      </trkpt>
      <trkpt lat="45.6532" lon="5.86214">
        <ele>234</ele>
        <time>2022-04-16T06:45:54.676Z</time>
      </trkpt>
      <trkpt lat="45.65324" lon="5.86215">
        <ele>234</ele>
        <time>2022-04-16T06:45:55.676Z</time>
      </trkpt>
      <trkpt lat="45.65328" lon="5.86216">
        <ele>234</ele>
        <time>2022-04-16T06:45:56.675Z</time>
      </trkpt>
      <trkpt lat="45.65333" lon="5.86217">
        <ele>234</ele>
        <time>2022-04-16T06:45:57.675Z</time>
      </trkpt>
      <trkpt lat="45.65338" lon="5.86218">
        <ele>235</ele>
        <time>2022-04-16T06:45:58.676Z</time>
      </trkpt>
      <trkpt lat="45.65342" lon="5.86218">
        <ele>235</ele>
        <time>2022-04-16T06:45:59.676Z</time>
      </trkpt>
      <trkpt lat="45.65347" lon="5.86216">
        <ele>235</ele>
        <time>2022-04-16T06:46:00.676Z</time>
      </trkpt>
      <trkpt lat="45.65352" lon="5.86214">
        <ele>235</ele>
        <time>2022-04-16T06:46:01.676Z</time>
      </trkpt>
      <trkpt lat="45.65357" lon="5.86211">
        <ele>235</ele>
        <time>2022-04-16T06:46:02.676Z</time>
      </trkpt>
      <trkpt lat="45.65361" lon="5.86207">
        <ele>234</ele>
        <time>2022-04-16T06:46:03.676Z</time>
      </trkpt>
      <trkpt lat="45.65365" lon="5.86203">
        <ele>234</ele>
        <time>2022-04-16T06:46:04.676Z</time>
      </trkpt>
      <trkpt lat="45.65369" lon="5.862">
        <ele>234</ele>
        <time>2022-04-16T06:46:05.675Z</time>
      </trkpt>
      <trkpt lat="45.65373" lon="5.86196">
        <ele>235</ele>
        <time>2022-04-16T06:46:06.676Z</time>
      </trkpt>
      <trkpt lat="45.65377" lon="5.86193">
        <ele>235</ele>
        <time>2022-04-16T06:46:07.676Z</time>
      </trkpt>
      <trkpt lat="45.65381" lon="5.8619">
        <ele>235</ele>
        <time>2022-04-16T06:46:08.676Z</time>
      </trkpt>
      <trkpt lat="45.65386" lon="5.86189">
        <ele>235</ele>
        <time>2022-04-16T06:46:09.676Z</time>
      </trkpt>
      <trkpt lat="45.6539" lon="5.86187">
        <ele>235</ele>
        <time>2022-04-16T06:46:10.675Z</time>
      </trkpt>
      <trkpt lat="45.65394" lon="5.86185">
        <ele>235</ele>
        <time>2022-04-16T06:46:11.676Z</time>
      </trkpt>
      <trkpt lat="45.65399" lon="5.86184">
        <ele>234</ele>
        <time>2022-04-16T06:46:12.676Z</time>
      </trkpt>
      <trkpt lat="45.65403" lon="5.86182">
        <ele>234</ele>
        <time>2022-04-16T06:46:13.675Z</time>
      </trkpt>
      <trkpt lat="45.65408" lon="5.86181">
        <ele>234</ele>
        <time>2022-04-16T06:46:14.676Z</time>
      </trkpt>
      <trkpt lat="45.65412" lon="5.86179">
        <ele>234</ele>
        <time>2022-04-16T06:46:15.676Z</time>
      </trkpt>
      <trkpt lat="45.65417" lon="5.86177">
        <ele>235</ele>
        <time>2022-04-16T06:46:16.675Z</time>
      </trkpt>
      <trkpt lat="45.65422" lon="5.86176">
        <ele>235</ele>
        <time>2022-04-16T06:46:17.676Z</time>
      </trkpt>
      <trkpt lat="45.65427" lon="5.86175">
        <ele>234</ele>
        <time>2022-04-16T06:46:18.676Z</time>
      </trkpt>
      <trkpt lat="45.65432" lon="5.86174">
        <ele>234</ele>
        <time>2022-04-16T06:46:19.675Z</time>
      </trkpt>
      <trkpt lat="45.65437" lon="5.86174">
        <ele>234</ele>
        <time>2022-04-16T06:46:20.676Z</time>
      </trkpt>
      <trkpt lat="45.65442" lon="5.86174">
        <ele>234</ele>
        <time>2022-04-16T06:46:21.675Z</time>
      </trkpt>
      <trkpt lat="45.65447" lon="5.86174">
        <ele>233</ele>
        <time>2022-04-16T06:46:22.675Z</time>
      </trkpt>
      <trkpt lat="45.65452" lon="5.86175">
        <ele>233</ele>
        <time>2022-04-16T06:46:23.676Z</time>
      </trkpt>
      <trkpt lat="45.65458" lon="5.86175">
        <ele>233</ele>
        <time>2022-04-16T06:46:24.675Z</time>
      </trkpt>
      <trkpt lat="45.65463" lon="5.86176">
        <ele>233</ele>
        <time>2022-04-16T06:46:25.676Z</time>
      </trkpt>
      <trkpt lat="45.65468" lon="5.86176">
        <ele>234</ele>
        <time>2022-04-16T06:46:26.676Z</time>
      </trkpt>
      <trkpt lat="45.65473" lon="5.86176">
        <ele>234</ele>
        <time>2022-04-16T06:46:27.675Z</time>
      </trkpt>
      <trkpt lat="45.65478" lon="5.86177">
        <ele>234</ele>
        <time>2022-04-16T06:46:28.676Z</time>
      </trkpt>
      <trkpt lat="45.65482" lon="5.86177">
        <ele>234</ele>
        <time>2022-04-16T06:46:29.676Z</time>
      </trkpt>
      <trkpt lat="45.65487" lon="5.86178">
        <ele>234</ele>
        <time>2022-04-16T06:46:30.675Z</time>
      </trkpt>
      <trkpt lat="45.65492" lon="5.86178">
        <ele>233</ele>
        <time>2022-04-16T06:46:31.676Z</time>
      </trkpt>
      <trkpt lat="45.65497" lon="5.86179">
        <ele>233</ele>
        <time>2022-04-16T06:46:32.676Z</time>
      </trkpt>
      <trkpt lat="45.65501" lon="5.8618">
        <ele>233</ele>
        <time>2022-04-16T06:46:33.675Z</time>
      </trkpt>
      <trkpt lat="45.65505" lon="5.86182">
        <ele>232</ele>
        <time>2022-04-16T06:46:34.676Z</time>
      </trkpt>
      <trkpt lat="45.65509" lon="5.86184">
        <ele>232</ele>
        <time>2022-04-16T06:46:35.676Z</time>
      </trkpt>
      <trkpt lat="45.65513" lon="5.86186">
        <ele>232</ele>
        <time>2022-04-16T06:46:36.676Z</time>
      </trkpt>
      <trkpt lat="45.65517" lon="5.86187">
        <ele>232</ele>
        <time>2022-04-16T06:46:37.675Z</time>
      </trkpt>
      <trkpt lat="45.6552" lon="5.86188">
        <ele>233</ele>
        <time>2022-04-16T06:46:38.676Z</time>
      </trkpt>
      <trkpt lat="45.65522" lon="5.86188">
        <ele>232</ele>
        <time>2022-04-16T06:46:39.676Z</time>
      </trkpt>
      <trkpt lat="45.65523" lon="5.86188">
        <ele>233</ele>
        <time>2022-04-16T06:46:40.676Z</time>
      </trkpt>
      <trkpt lat="45.65523" lon="5.86188">
        <ele>232</ele>
        <time>2022-04-16T06:46:41.676Z</time>
      </trkpt>
      <trkpt lat="45.65523" lon="5.86188">
        <ele>233</ele>
        <time>2022-04-16T06:46:42.675Z</time>
      </trkpt>
      <trkpt lat="45.65523" lon="5.86188">
        <ele>233</ele>
        <time>2022-04-16T06:46:43.676Z</time>
      </trkpt>
      <trkpt lat="45.65525" lon="5.86187">
        <ele>234</ele>
        <time>2022-04-16T06:46:47.813Z</time>
      </trkpt>
      <trkpt lat="45.65527" lon="5.86187">
        <ele>234</ele>
        <time>2022-04-16T06:46:48.813Z</time>
      </trkpt>
      <trkpt lat="45.65528" lon="5.86186">
        <ele>235</ele>
        <time>2022-04-16T06:46:49.814Z</time>
      </trkpt>
      <trkpt lat="45.6553" lon="5.86185">
        <ele>235</ele>
        <time>2022-04-16T06:46:50.813Z</time>
      </trkpt>
      <trkpt lat="45.65531" lon="5.86183">
        <ele>235</ele>
        <time>2022-04-16T06:46:51.813Z</time>
      </trkpt>
      <trkpt lat="45.65532" lon="5.8618">
        <ele>235</ele>
        <time>2022-04-16T06:46:52.813Z</time>
      </trkpt>
      <trkpt lat="45.65532" lon="5.86177">
        <ele>235</ele>
        <time>2022-04-16T06:46:53.813Z</time>
      </trkpt>
      <trkpt lat="45.65532" lon="5.86174">
        <ele>235</ele>
        <time>2022-04-16T06:46:54.814Z</time>
      </trkpt>
      <trkpt lat="45.65532" lon="5.8617">
        <ele>235</ele>
        <time>2022-04-16T06:46:55.814Z</time>
      </trkpt>
      <trkpt lat="45.65532" lon="5.86167">
        <ele>236</ele>
        <time>2022-04-16T06:46:56.814Z</time>
      </trkpt>
      <trkpt lat="45.65531" lon="5.86164">
        <ele>236</ele>
        <time>2022-04-16T06:46:57.813Z</time>
      </trkpt>
      <trkpt lat="45.6553" lon="5.8616">
        <ele>236</ele>
        <time>2022-04-16T06:46:58.813Z</time>
      </trkpt>
      <trkpt lat="45.6553" lon="5.86157">
        <ele>236</ele>
        <time>2022-04-16T06:46:59.813Z</time>
      </trkpt>
      <trkpt lat="45.65529" lon="5.86154">
        <ele>236</ele>
        <time>2022-04-16T06:47:00.814Z</time>
      </trkpt>
      <trkpt lat="45.65528" lon="5.86151">
        <ele>236</ele>
        <time>2022-04-16T06:47:01.814Z</time>
      </trkpt>
      <trkpt lat="45.65528" lon="5.86147">
        <ele>236</ele>
        <time>2022-04-16T06:47:02.814Z</time>
      </trkpt>
      <trkpt lat="45.65527" lon="5.86144">
        <ele>237</ele>
        <time>2022-04-16T06:47:03.814Z</time>
      </trkpt>
      <trkpt lat="45.65526" lon="5.86141">
        <ele>237</ele>
        <time>2022-04-16T06:47:04.814Z</time>
      </trkpt>
      <trkpt lat="45.65526" lon="5.86137">
        <ele>238</ele>
        <time>2022-04-16T06:47:05.814Z</time>
      </trkpt>
      <trkpt lat="45.65525" lon="5.86134">
        <ele>238</ele>
        <time>2022-04-16T06:47:06.814Z</time>
      </trkpt>
      <trkpt lat="45.65524" lon="5.8613">
        <ele>239</ele>
        <time>2022-04-16T06:47:07.814Z</time>
      </trkpt>
      <trkpt lat="45.65524" lon="5.86125">
        <ele>239</ele>
        <time>2022-04-16T06:47:08.813Z</time>
      </trkpt>
      <trkpt lat="45.65523" lon="5.8612">
        <ele>239</ele>
        <time>2022-04-16T06:47:09.813Z</time>
      </trkpt>
      <trkpt lat="45.65522" lon="5.86115">
        <ele>239</ele>
        <time>2022-04-16T06:47:10.814Z</time>
      </trkpt>
      <trkpt lat="45.65521" lon="5.8611">
        <ele>239</ele>
        <time>2022-04-16T06:47:11.813Z</time>
      </trkpt>
      <trkpt lat="45.6552" lon="5.86105">
        <ele>239</ele>
        <time>2022-04-16T06:47:12.813Z</time>
      </trkpt>
      <trkpt lat="45.65518" lon="5.861">
        <ele>239</ele>
        <time>2022-04-16T06:47:13.814Z</time>
      </trkpt>
      <trkpt lat="45.65517" lon="5.86095">
        <ele>239</ele>
        <time>2022-04-16T06:47:14.814Z</time>
      </trkpt>
      <trkpt lat="45.65516" lon="5.8609">
        <ele>239</ele>
        <time>2022-04-16T06:47:15.814Z</time>
      </trkpt>
      <trkpt lat="45.65515" lon="5.86085">
        <ele>239</ele>
        <time>2022-04-16T06:47:16.814Z</time>
      </trkpt>
      <trkpt lat="45.65513" lon="5.8608">
        <ele>239</ele>
        <time>2022-04-16T06:47:17.814Z</time>
      </trkpt>
      <trkpt lat="45.65511" lon="5.86075">
        <ele>239</ele>
        <time>2022-04-16T06:47:18.814Z</time>
      </trkpt>
      <trkpt lat="45.6551" lon="5.86069">
        <ele>239</ele>
        <time>2022-04-16T06:47:19.813Z</time>
      </trkpt>
      <trkpt lat="45.65508" lon="5.86065">
        <ele>239</ele>
        <time>2022-04-16T06:47:20.814Z</time>
      </trkpt>
      <trkpt lat="45.65507" lon="5.8606">
        <ele>239</ele>
        <time>2022-04-16T06:47:21.813Z</time>
      </trkpt>
      <trkpt lat="45.65507" lon="5.86056">
        <ele>239</ele>
        <time>2022-04-16T06:47:22.813Z</time>
      </trkpt>
      <trkpt lat="45.65506" lon="5.8605">
        <ele>238</ele>
        <time>2022-04-16T06:47:23.814Z</time>
      </trkpt>
      <trkpt lat="45.65505" lon="5.86047">
        <ele>238</ele>
        <time>2022-04-16T06:47:24.814Z</time>
      </trkpt>
      <trkpt lat="45.65505" lon="5.86042">
        <ele>238</ele>
        <time>2022-04-16T06:47:25.813Z</time>
      </trkpt>
      <trkpt lat="45.65505" lon="5.86037">
        <ele>238</ele>
        <time>2022-04-16T06:47:26.814Z</time>
      </trkpt>
      <trkpt lat="45.65505" lon="5.86032">
        <ele>238</ele>
        <time>2022-04-16T06:47:27.814Z</time>
      </trkpt>
      <trkpt lat="45.65507" lon="5.86027">
        <ele>238</ele>
        <time>2022-04-16T06:47:28.814Z</time>
      </trkpt>
      <trkpt lat="45.65508" lon="5.86024">
        <ele>238</ele>
        <time>2022-04-16T06:47:29.814Z</time>
      </trkpt>
      <trkpt lat="45.65509" lon="5.8602">
        <ele>238</ele>
        <time>2022-04-16T06:47:30.814Z</time>
      </trkpt>
      <trkpt lat="45.6551" lon="5.86016">
        <ele>238</ele>
        <time>2022-04-16T06:47:31.814Z</time>
      </trkpt>
      <trkpt lat="45.65512" lon="5.86011">
        <ele>238</ele>
        <time>2022-04-16T06:47:32.814Z</time>
      </trkpt>
      <trkpt lat="45.65513" lon="5.86008">
        <ele>238</ele>
        <time>2022-04-16T06:47:33.814Z</time>
      </trkpt>
      <trkpt lat="45.65514" lon="5.86005">
        <ele>238</ele>
        <time>2022-04-16T06:47:34.814Z</time>
      </trkpt>
      <trkpt lat="45.65515" lon="5.86001">
        <ele>238</ele>
        <time>2022-04-16T06:47:35.814Z</time>
      </trkpt>
      <trkpt lat="45.65516" lon="5.85997">
        <ele>237</ele>
        <time>2022-04-16T06:47:36.814Z</time>
      </trkpt>
      <trkpt lat="45.65518" lon="5.85993">
        <ele>237</ele>
        <time>2022-04-16T06:47:37.814Z</time>
      </trkpt>
      <trkpt lat="45.65521" lon="5.8599">
        <ele>237</ele>
        <time>2022-04-16T06:47:38.813Z</time>
      </trkpt>
      <trkpt lat="45.65524" lon="5.85989">
        <ele>236</ele>
        <time>2022-04-16T06:47:39.813Z</time>
      </trkpt>
      <trkpt lat="45.65526" lon="5.85987">
        <ele>236</ele>
        <time>2022-04-16T06:47:40.814Z</time>
      </trkpt>
      <trkpt lat="45.6553" lon="5.85986">
        <ele>236</ele>
        <time>2022-04-16T06:47:41.814Z</time>
      </trkpt>
      <trkpt lat="45.65533" lon="5.85984">
        <ele>236</ele>
        <time>2022-04-16T06:47:42.814Z</time>
      </trkpt>
      <trkpt lat="45.65537" lon="5.85982">
        <ele>236</ele>
        <time>2022-04-16T06:47:43.814Z</time>
      </trkpt>
      <trkpt lat="45.65541" lon="5.8598">
        <ele>236</ele>
        <time>2022-04-16T06:47:44.814Z</time>
      </trkpt>
      <trkpt lat="45.65544" lon="5.85978">
        <ele>236</ele>
        <time>2022-04-16T06:47:45.814Z</time>
      </trkpt>
      <trkpt lat="45.65548" lon="5.85976">
        <ele>236</ele>
        <time>2022-04-16T06:47:46.814Z</time>
      </trkpt>
      <trkpt lat="45.65552" lon="5.85975">
        <ele>236</ele>
        <time>2022-04-16T06:47:47.814Z</time>
      </trkpt>
      <trkpt lat="45.65555" lon="5.85974">
        <ele>236</ele>
        <time>2022-04-16T06:47:48.813Z</time>
      </trkpt>
      <trkpt lat="45.65559" lon="5.85972">
        <ele>235</ele>
        <time>2022-04-16T06:47:49.813Z</time>
      </trkpt>
      <trkpt lat="45.65563" lon="5.85971">
        <ele>235</ele>
        <time>2022-04-16T06:47:50.814Z</time>
      </trkpt>
      <trkpt lat="45.65566" lon="5.85971">
        <ele>235</ele>
        <time>2022-04-16T06:47:51.814Z</time>
      </trkpt>
      <trkpt lat="45.65568" lon="5.8597">
        <ele>235</ele>
        <time>2022-04-16T06:47:52.814Z</time>
      </trkpt>
      <trkpt lat="45.65572" lon="5.85968">
        <ele>235</ele>
        <time>2022-04-16T06:47:53.814Z</time>
      </trkpt>
      <trkpt lat="45.65576" lon="5.85966">
        <ele>235</ele>
        <time>2022-04-16T06:47:54.813Z</time>
      </trkpt>
      <trkpt lat="45.65579" lon="5.85965">
        <ele>235</ele>
        <time>2022-04-16T06:47:55.814Z</time>
      </trkpt>
      <trkpt lat="45.65583" lon="5.85964">
        <ele>235</ele>
        <time>2022-04-16T06:47:56.814Z</time>
      </trkpt>
      <trkpt lat="45.65586" lon="5.85962">
        <ele>235</ele>
        <time>2022-04-16T06:47:57.814Z</time>
      </trkpt>
      <trkpt lat="45.65588" lon="5.85961">
        <ele>235</ele>
        <time>2022-04-16T06:47:58.814Z</time>
      </trkpt>
      <trkpt lat="45.6559" lon="5.85959">
        <ele>235</ele>
        <time>2022-04-16T06:47:59.814Z</time>
      </trkpt>
      <trkpt lat="45.65592" lon="5.85958">
        <ele>235</ele>
        <time>2022-04-16T06:48:00.814Z</time>
      </trkpt>
      <trkpt lat="45.65593" lon="5.85957">
        <ele>235</ele>
        <time>2022-04-16T06:48:01.813Z</time>
      </trkpt>
      <trkpt lat="45.65593" lon="5.85957">
        <ele>236</ele>
        <time>2022-04-16T06:48:02.813Z</time>
      </trkpt>
      <trkpt lat="45.65593" lon="5.85957">
        <ele>236</ele>
        <time>2022-04-16T06:48:03.814Z</time>
      </trkpt>
      <trkpt lat="45.65599" lon="5.85954">
        <ele>238</ele>
        <time>2022-04-16T06:50:58.950Z</time>
      </trkpt>
      <trkpt lat="45.65601" lon="5.85951">
        <ele>238</ele>
        <time>2022-04-16T06:50:59.949Z</time>
      </trkpt>
      <trkpt lat="45.65604" lon="5.85948">
        <ele>238</ele>
        <time>2022-04-16T06:51:00.949Z</time>
      </trkpt>
      <trkpt lat="45.65607" lon="5.85945">
        <ele>238</ele>
        <time>2022-04-16T06:51:01.949Z</time>
      </trkpt>
      <trkpt lat="45.65611" lon="5.85942">
        <ele>238</ele>
        <time>2022-04-16T06:51:02.950Z</time>
      </trkpt>
      <trkpt lat="45.65614" lon="5.8594">
        <ele>238</ele>
        <time>2022-04-16T06:51:03.949Z</time>
      </trkpt>
      <trkpt lat="45.65617" lon="5.85937">
        <ele>238</ele>
        <time>2022-04-16T06:51:04.950Z</time>
      </trkpt>
      <trkpt lat="45.6562" lon="5.85934">
        <ele>238</ele>
        <time>2022-04-16T06:51:05.950Z</time>
      </trkpt>
      <trkpt lat="45.65622" lon="5.85932">
        <ele>238</ele>
        <time>2022-04-16T06:51:06.950Z</time>
      </trkpt>
      <trkpt lat="45.65625" lon="5.85929">
        <ele>238</ele>
        <time>2022-04-16T06:51:07.950Z</time>
      </trkpt>
      <trkpt lat="45.65628" lon="5.85926">
        <ele>237</ele>
        <time>2022-04-16T06:51:08.950Z</time>
      </trkpt>
      <trkpt lat="45.65631" lon="5.85923">
        <ele>237</ele>
        <time>2022-04-16T06:51:09.950Z</time>
      </trkpt>
      <trkpt lat="45.65634" lon="5.8592">
        <ele>237</ele>
        <time>2022-04-16T06:51:10.949Z</time>
      </trkpt>
      <trkpt lat="45.65637" lon="5.85917">
        <ele>237</ele>
        <time>2022-04-16T06:51:11.949Z</time>
      </trkpt>
      <trkpt lat="45.65641" lon="5.85915">
        <ele>236</ele>
        <time>2022-04-16T06:51:12.949Z</time>
      </trkpt>
      <trkpt lat="45.65644" lon="5.85912">
        <ele>236</ele>
        <time>2022-04-16T06:51:13.949Z</time>
      </trkpt>
      <trkpt lat="45.65647" lon="5.85909">
        <ele>237</ele>
        <time>2022-04-16T06:51:14.950Z</time>
      </trkpt>
      <trkpt lat="45.6565" lon="5.85907">
        <ele>237</ele>
        <time>2022-04-16T06:51:15.949Z</time>
      </trkpt>
      <trkpt lat="45.65653" lon="5.85904">
        <ele>237</ele>
        <time>2022-04-16T06:51:16.950Z</time>
      </trkpt>
      <trkpt lat="45.65656" lon="5.85901">
        <ele>237</ele>
        <time>2022-04-16T06:51:17.950Z</time>
      </trkpt>
      <trkpt lat="45.65659" lon="5.85898">
        <ele>237</ele>
        <time>2022-04-16T06:51:18.949Z</time>
      </trkpt>
      <trkpt lat="45.65663" lon="5.85894">
        <ele>237</ele>
        <time>2022-04-16T06:51:19.949Z</time>
      </trkpt>
      <trkpt lat="45.65666" lon="5.85892">
        <ele>237</ele>
        <time>2022-04-16T06:51:20.950Z</time>
      </trkpt>
      <trkpt lat="45.6567" lon="5.85889">
        <ele>237</ele>
        <time>2022-04-16T06:51:21.950Z</time>
      </trkpt>
      <trkpt lat="45.65673" lon="5.85887">
        <ele>237</ele>
        <time>2022-04-16T06:51:22.949Z</time>
      </trkpt>
      <trkpt lat="45.65677" lon="5.85885">
        <ele>237</ele>
        <time>2022-04-16T06:51:23.950Z</time>
      </trkpt>
      <trkpt lat="45.6568" lon="5.85883">
        <ele>237</ele>
        <time>2022-04-16T06:51:24.949Z</time>
      </trkpt>
      <trkpt lat="45.65684" lon="5.85881">
        <ele>237</ele>
        <time>2022-04-16T06:51:25.950Z</time>
      </trkpt>
      <trkpt lat="45.65688" lon="5.85879">
        <ele>237</ele>
        <time>2022-04-16T06:51:26.949Z</time>
      </trkpt>
      <trkpt lat="45.65692" lon="5.85878">
        <ele>237</ele>
        <time>2022-04-16T06:51:27.950Z</time>
      </trkpt>
      <trkpt lat="45.65695" lon="5.85876">
        <ele>237</ele>
        <time>2022-04-16T06:51:28.950Z</time>
      </trkpt>
      <trkpt lat="45.65699" lon="5.85875">
        <ele>236</ele>
        <time>2022-04-16T06:51:29.949Z</time>
      </trkpt>
      <trkpt lat="45.65703" lon="5.85873">
        <ele>236</ele>
        <time>2022-04-16T06:51:30.949Z</time>
      </trkpt>
      <trkpt lat="45.65706" lon="5.85872">
        <ele>237</ele>
        <time>2022-04-16T06:51:31.949Z</time>
      </trkpt>
      <trkpt lat="45.6571" lon="5.8587">
        <ele>237</ele>
        <time>2022-04-16T06:51:32.950Z</time>
      </trkpt>
      <trkpt lat="45.65714" lon="5.85869">
        <ele>237</ele>
        <time>2022-04-16T06:51:33.950Z</time>
      </trkpt>
      <trkpt lat="45.65718" lon="5.85867">
        <ele>237</ele>
        <time>2022-04-16T06:51:34.950Z</time>
      </trkpt>
      <trkpt lat="45.65722" lon="5.85866">
        <ele>236</ele>
        <time>2022-04-16T06:51:35.949Z</time>
      </trkpt>
      <trkpt lat="45.65726" lon="5.85865">
        <ele>235</ele>
        <time>2022-04-16T06:51:36.950Z</time>
      </trkpt>
      <trkpt lat="45.6573" lon="5.85864">
        <ele>235</ele>
        <time>2022-04-16T06:51:37.949Z</time>
      </trkpt>
      <trkpt lat="45.65734" lon="5.85864">
        <ele>235</ele>
        <time>2022-04-16T06:51:38.949Z</time>
      </trkpt>
      <trkpt lat="45.65738" lon="5.85864">
        <ele>235</ele>
        <time>2022-04-16T06:51:39.949Z</time>
      </trkpt>
      <trkpt lat="45.65742" lon="5.85863">
        <ele>235</ele>
        <time>2022-04-16T06:51:40.950Z</time>
      </trkpt>
      <trkpt lat="45.65746" lon="5.85863">
        <ele>236</ele>
        <time>2022-04-16T06:51:41.949Z</time>
      </trkpt>
      <trkpt lat="45.6575" lon="5.85863">
        <ele>236</ele>
        <time>2022-04-16T06:51:42.950Z</time>
      </trkpt>
      <trkpt lat="45.65753" lon="5.85862">
        <ele>236</ele>
        <time>2022-04-16T06:51:43.950Z</time>
      </trkpt>
      <trkpt lat="45.65757" lon="5.85862">
        <ele>236</ele>
        <time>2022-04-16T06:51:44.950Z</time>
      </trkpt>
      <trkpt lat="45.65761" lon="5.85863">
        <ele>236</ele>
        <time>2022-04-16T06:51:45.950Z</time>
      </trkpt>
      <trkpt lat="45.65765" lon="5.85863">
        <ele>236</ele>
        <time>2022-04-16T06:51:46.950Z</time>
      </trkpt>
      <trkpt lat="45.65768" lon="5.85864">
        <ele>236</ele>
        <time>2022-04-16T06:51:47.949Z</time>
      </trkpt>
      <trkpt lat="45.65772" lon="5.85863">
        <ele>236</ele>
        <time>2022-04-16T06:51:48.950Z</time>
      </trkpt>
      <trkpt lat="45.65775" lon="5.85863">
        <ele>236</ele>
        <time>2022-04-16T06:51:49.950Z</time>
      </trkpt>
      <trkpt lat="45.65779" lon="5.85861">
        <ele>236</ele>
        <time>2022-04-16T06:51:50.949Z</time>
      </trkpt>
      <trkpt lat="45.65782" lon="5.8586">
        <ele>235</ele>
        <time>2022-04-16T06:51:51.949Z</time>
      </trkpt>
      <trkpt lat="45.65786" lon="5.85859">
        <ele>235</ele>
        <time>2022-04-16T06:51:52.950Z</time>
      </trkpt>
      <trkpt lat="45.65789" lon="5.85859">
        <ele>235</ele>
        <time>2022-04-16T06:51:53.949Z</time>
      </trkpt>
      <trkpt lat="45.65793" lon="5.8586">
        <ele>235</ele>
        <time>2022-04-16T06:51:54.950Z</time>
      </trkpt>
      <trkpt lat="45.65797" lon="5.8586">
        <ele>235</ele>
        <time>2022-04-16T06:51:55.949Z</time>
      </trkpt>
      <trkpt lat="45.658" lon="5.85862">
        <ele>235</ele>
        <time>2022-04-16T06:51:56.950Z</time>
      </trkpt>
      <trkpt lat="45.65804" lon="5.85862">
        <ele>235</ele>
        <time>2022-04-16T06:51:57.950Z</time>
      </trkpt>
      <trkpt lat="45.65809" lon="5.85863">
        <ele>235</ele>
        <time>2022-04-16T06:51:58.950Z</time>
      </trkpt>
      <trkpt lat="45.65813" lon="5.85863">
        <ele>235</ele>
        <time>2022-04-16T06:51:59.949Z</time>
      </trkpt>
      <trkpt lat="45.65817" lon="5.85864">
        <ele>235</ele>
        <time>2022-04-16T06:52:00.949Z</time>
      </trkpt>
      <trkpt lat="45.65822" lon="5.85865">
        <ele>235</ele>
        <time>2022-04-16T06:52:01.949Z</time>
      </trkpt>
      <trkpt lat="45.65826" lon="5.85866">
        <ele>234</ele>
        <time>2022-04-16T06:52:02.950Z</time>
      </trkpt>
      <trkpt lat="45.65831" lon="5.85866">
        <ele>234</ele>
        <time>2022-04-16T06:52:03.950Z</time>
      </trkpt>
      <trkpt lat="45.65835" lon="5.85867">
        <ele>234</ele>
        <time>2022-04-16T06:52:04.949Z</time>
      </trkpt>
      <trkpt lat="45.65839" lon="5.85869">
        <ele>234</ele>
        <time>2022-04-16T06:52:05.950Z</time>
      </trkpt>
      <trkpt lat="45.65843" lon="5.85869">
        <ele>234</ele>
        <time>2022-04-16T06:52:06.950Z</time>
      </trkpt>
      <trkpt lat="45.65848" lon="5.8587">
        <ele>235</ele>
        <time>2022-04-16T06:52:07.950Z</time>
      </trkpt>
      <trkpt lat="45.65852" lon="5.85871">
        <ele>235</ele>
        <time>2022-04-16T06:52:08.950Z</time>
      </trkpt>
      <trkpt lat="45.65856" lon="5.85871">
        <ele>235</ele>
        <time>2022-04-16T06:52:09.950Z</time>
      </trkpt>
      <trkpt lat="45.6586" lon="5.85872">
        <ele>235</ele>
        <time>2022-04-16T06:52:10.950Z</time>
      </trkpt>
      <trkpt lat="45.65864" lon="5.85873">
        <ele>235</ele>
        <time>2022-04-16T06:52:11.950Z</time>
      </trkpt>
      <trkpt lat="45.65868" lon="5.85874">
        <ele>235</ele>
        <time>2022-04-16T06:52:12.950Z</time>
      </trkpt>
      <trkpt lat="45.65872" lon="5.85875">
        <ele>236</ele>
        <time>2022-04-16T06:52:13.949Z</time>
      </trkpt>
      <trkpt lat="45.65876" lon="5.85876">
        <ele>235</ele>
        <time>2022-04-16T06:52:14.950Z</time>
      </trkpt>
      <trkpt lat="45.6588" lon="5.85877">
        <ele>235</ele>
        <time>2022-04-16T06:52:15.949Z</time>
      </trkpt>
      <trkpt lat="45.65885" lon="5.85878">
        <ele>235</ele>
        <time>2022-04-16T06:52:16.950Z</time>
      </trkpt>
      <trkpt lat="45.65889" lon="5.85879">
        <ele>235</ele>
        <time>2022-04-16T06:52:17.950Z</time>
      </trkpt>
      <trkpt lat="45.65893" lon="5.8588">
        <ele>235</ele>
        <time>2022-04-16T06:52:18.950Z</time>
      </trkpt>
      <trkpt lat="45.65898" lon="5.85882">
        <ele>234</ele>
        <time>2022-04-16T06:52:19.949Z</time>
      </trkpt>
      <trkpt lat="45.65902" lon="5.85882">
        <ele>234</ele>
        <time>2022-04-16T06:52:20.950Z</time>
      </trkpt>
      <trkpt lat="45.65906" lon="5.85883">
        <ele>233</ele>
        <time>2022-04-16T06:52:21.949Z</time>
      </trkpt>
      <trkpt lat="45.65911" lon="5.85883">
        <ele>233</ele>
        <time>2022-04-16T06:52:22.949Z</time>
      </trkpt>
      <trkpt lat="45.65915" lon="5.85882">
        <ele>233</ele>
        <time>2022-04-16T06:52:23.949Z</time>
      </trkpt>
      <trkpt lat="45.65919" lon="5.85882">
        <ele>233</ele>
        <time>2022-04-16T06:52:24.949Z</time>
      </trkpt>
      <trkpt lat="45.65923" lon="5.85881">
        <ele>233</ele>
        <time>2022-04-16T06:52:25.950Z</time>
      </trkpt>
      <trkpt lat="45.65927" lon="5.8588">
        <ele>233</ele>
        <time>2022-04-16T06:52:26.949Z</time>
      </trkpt>
      <trkpt lat="45.65931" lon="5.85879">
        <ele>233</ele>
        <time>2022-04-16T06:52:27.949Z</time>
      </trkpt>
      <trkpt lat="45.65935" lon="5.85878">
        <ele>232</ele>
        <time>2022-04-16T06:52:28.950Z</time>
      </trkpt>
      <trkpt lat="45.65939" lon="5.85876">
        <ele>232</ele>
        <time>2022-04-16T06:52:29.949Z</time>
      </trkpt>
      <trkpt lat="45.65944" lon="5.85874">
        <ele>232</ele>
        <time>2022-04-16T06:52:30.950Z</time>
      </trkpt>
      <trkpt lat="45.65948" lon="5.85871">
        <ele>231</ele>
        <time>2022-04-16T06:52:31.949Z</time>
      </trkpt>
      <trkpt lat="45.65952" lon="5.8587">
        <ele>231</ele>
        <time>2022-04-16T06:52:32.949Z</time>
      </trkpt>
      <trkpt lat="45.65955" lon="5.85868">
        <ele>230</ele>
        <time>2022-04-16T06:52:33.949Z</time>
      </trkpt>
      <trkpt lat="45.65958" lon="5.85866">
        <ele>230</ele>
        <time>2022-04-16T06:52:34.949Z</time>
      </trkpt>
      <trkpt lat="45.65962" lon="5.85865">
        <ele>230</ele>
        <time>2022-04-16T06:52:35.950Z</time>
      </trkpt>
      <trkpt lat="45.65965" lon="5.85864">
        <ele>230</ele>
        <time>2022-04-16T06:52:36.950Z</time>
      </trkpt>
      <trkpt lat="45.65969" lon="5.85863">
        <ele>230</ele>
        <time>2022-04-16T06:52:37.950Z</time>
      </trkpt>
      <trkpt lat="45.65973" lon="5.85861">
        <ele>230</ele>
        <time>2022-04-16T06:52:38.949Z</time>
      </trkpt>
      <trkpt lat="45.65977" lon="5.8586">
        <ele>231</ele>
        <time>2022-04-16T06:52:39.949Z</time>
      </trkpt>
      <trkpt lat="45.65981" lon="5.85859">
        <ele>231</ele>
        <time>2022-04-16T06:52:40.949Z</time>
      </trkpt>
      <trkpt lat="45.65985" lon="5.85858">
        <ele>231</ele>
        <time>2022-04-16T06:52:41.950Z</time>
      </trkpt>
      <trkpt lat="45.65989" lon="5.85857">
        <ele>232</ele>
        <time>2022-04-16T06:52:42.950Z</time>
      </trkpt>
      <trkpt lat="45.65993" lon="5.85856">
        <ele>232</ele>
        <time>2022-04-16T06:52:43.950Z</time>
      </trkpt>
      <trkpt lat="45.65998" lon="5.85855">
        <ele>232</ele>
        <time>2022-04-16T06:52:44.950Z</time>
      </trkpt>
      <trkpt lat="45.66001" lon="5.85854">
        <ele>232</ele>
        <time>2022-04-16T06:52:45.950Z</time>
      </trkpt>
      <trkpt lat="45.66004" lon="5.85852">
        <ele>232</ele>
        <time>2022-04-16T06:52:46.950Z</time>
      </trkpt>
      <trkpt lat="45.66008" lon="5.85851">
        <ele>232</ele>
        <time>2022-04-16T06:52:47.950Z</time>
      </trkpt>
      <trkpt lat="45.66012" lon="5.85849">
        <ele>231</ele>
        <time>2022-04-16T06:52:48.950Z</time>
      </trkpt>
      <trkpt lat="45.66015" lon="5.85847">
        <ele>231</ele>
        <time>2022-04-16T06:52:49.949Z</time>
      </trkpt>
      <trkpt lat="45.66019" lon="5.85845">
        <ele>231</ele>
        <time>2022-04-16T06:52:50.949Z</time>
      </trkpt>
      <trkpt lat="45.66022" lon="5.85842">
        <ele>231</ele>
        <time>2022-04-16T06:52:51.949Z</time>
      </trkpt>
      <trkpt lat="45.66026" lon="5.8584">
        <ele>232</ele>
        <time>2022-04-16T06:52:52.949Z</time>
      </trkpt>
      <trkpt lat="45.6603" lon="5.85839">
        <ele>232</ele>
        <time>2022-04-16T06:52:53.949Z</time>
      </trkpt>
      <trkpt lat="45.66033" lon="5.85837">
        <ele>231</ele>
        <time>2022-04-16T06:52:54.950Z</time>
      </trkpt>
      <trkpt lat="45.66037" lon="5.85836">
        <ele>231</ele>
        <time>2022-04-16T06:52:55.950Z</time>
      </trkpt>
      <trkpt lat="45.66041" lon="5.85834">
        <ele>230</ele>
        <time>2022-04-16T06:52:56.949Z</time>
      </trkpt>
      <trkpt lat="45.66045" lon="5.85834">
        <ele>230</ele>
        <time>2022-04-16T06:52:57.950Z</time>
      </trkpt>
      <trkpt lat="45.66049" lon="5.85833">
        <ele>230</ele>
        <time>2022-04-16T06:52:58.950Z</time>
      </trkpt>
      <trkpt lat="45.66053" lon="5.85833">
        <ele>230</ele>
        <time>2022-04-16T06:52:59.949Z</time>
      </trkpt>
      <trkpt lat="45.66057" lon="5.85833">
        <ele>229</ele>
        <time>2022-04-16T06:53:00.950Z</time>
      </trkpt>
      <trkpt lat="45.66062" lon="5.85833">
        <ele>229</ele>
        <time>2022-04-16T06:53:01.950Z</time>
      </trkpt>
      <trkpt lat="45.66066" lon="5.85834">
        <ele>229</ele>
        <time>2022-04-16T06:53:02.950Z</time>
      </trkpt>
      <trkpt lat="45.66071" lon="5.85834">
        <ele>229</ele>
        <time>2022-04-16T06:53:03.950Z</time>
      </trkpt>
      <trkpt lat="45.66075" lon="5.85835">
        <ele>229</ele>
        <time>2022-04-16T06:53:04.949Z</time>
      </trkpt>
      <trkpt lat="45.6608" lon="5.85835">
        <ele>229</ele>
        <time>2022-04-16T06:53:05.950Z</time>
      </trkpt>
      <trkpt lat="45.66084" lon="5.85836">
        <ele>230</ele>
        <time>2022-04-16T06:53:06.950Z</time>
      </trkpt>
      <trkpt lat="45.66089" lon="5.85836">
        <ele>230</ele>
        <time>2022-04-16T06:53:07.950Z</time>
      </trkpt>
      <trkpt lat="45.66093" lon="5.85836">
        <ele>231</ele>
        <time>2022-04-16T06:53:08.950Z</time>
      </trkpt>
      <trkpt lat="45.66098" lon="5.85836">
        <ele>231</ele>
        <time>2022-04-16T06:53:09.949Z</time>
      </trkpt>
      <trkpt lat="45.66103" lon="5.85836">
        <ele>230</ele>
        <time>2022-04-16T06:53:10.950Z</time>
      </trkpt>
      <trkpt lat="45.66107" lon="5.85836">
        <ele>230</ele>
        <time>2022-04-16T06:53:11.950Z</time>
      </trkpt>
      <trkpt lat="45.66112" lon="5.85836">
        <ele>230</ele>
        <time>2022-04-16T06:53:12.950Z</time>
      </trkpt>
      <trkpt lat="45.66117" lon="5.85836">
        <ele>230</ele>
        <time>2022-04-16T06:53:13.949Z</time>
      </trkpt>
      <trkpt lat="45.66121" lon="5.85836">
        <ele>230</ele>
        <time>2022-04-16T06:53:14.949Z</time>
      </trkpt>
      <trkpt lat="45.66126" lon="5.85836">
        <ele>230</ele>
        <time>2022-04-16T06:53:15.949Z</time>
      </trkpt>
      <trkpt lat="45.6613" lon="5.85836">
        <ele>230</ele>
        <time>2022-04-16T06:53:16.950Z</time>
      </trkpt>
      <trkpt lat="45.66135" lon="5.85836">
        <ele>230</ele>
        <time>2022-04-16T06:53:17.949Z</time>
      </trkpt>
      <trkpt lat="45.6614" lon="5.85836">
        <ele>230</ele>
        <time>2022-04-16T06:53:18.949Z</time>
      </trkpt>
      <trkpt lat="45.66144" lon="5.85837">
        <ele>230</ele>
        <time>2022-04-16T06:53:19.950Z</time>
      </trkpt>
      <trkpt lat="45.66149" lon="5.85837">
        <ele>230</ele>
        <time>2022-04-16T06:53:20.949Z</time>
      </trkpt>
      <trkpt lat="45.66154" lon="5.85837">
        <ele>230</ele>
        <time>2022-04-16T06:53:21.949Z</time>
      </trkpt>
      <trkpt lat="45.66158" lon="5.85837">
        <ele>229</ele>
        <time>2022-04-16T06:53:22.949Z</time>
      </trkpt>
      <trkpt lat="45.66163" lon="5.85836">
        <ele>229</ele>
        <time>2022-04-16T06:53:23.950Z</time>
      </trkpt>
      <trkpt lat="45.66168" lon="5.85836">
        <ele>230</ele>
        <time>2022-04-16T06:53:24.949Z</time>
      </trkpt>
      <trkpt lat="45.66172" lon="5.85836">
        <ele>230</ele>
        <time>2022-04-16T06:53:25.949Z</time>
      </trkpt>
      <trkpt lat="45.66176" lon="5.85835">
        <ele>230</ele>
        <time>2022-04-16T06:53:26.950Z</time>
      </trkpt>
      <trkpt lat="45.66181" lon="5.85834">
        <ele>230</ele>
        <time>2022-04-16T06:53:27.949Z</time>
      </trkpt>
      <trkpt lat="45.66186" lon="5.85832">
        <ele>230</ele>
        <time>2022-04-16T06:53:28.950Z</time>
      </trkpt>
      <trkpt lat="45.6619" lon="5.8583">
        <ele>229</ele>
        <time>2022-04-16T06:53:29.949Z</time>
      </trkpt>
      <trkpt lat="45.66194" lon="5.85828">
        <ele>230</ele>
        <time>2022-04-16T06:53:30.950Z</time>
      </trkpt>
      <trkpt lat="45.66198" lon="5.85825">
        <ele>230</ele>
        <time>2022-04-16T06:53:31.950Z</time>
      </trkpt>
      <trkpt lat="45.66203" lon="5.85823">
        <ele>230</ele>
        <time>2022-04-16T06:53:32.949Z</time>
      </trkpt>
      <trkpt lat="45.66207" lon="5.8582">
        <ele>230</ele>
        <time>2022-04-16T06:53:33.950Z</time>
      </trkpt>
      <trkpt lat="45.66211" lon="5.85818">
        <ele>230</ele>
        <time>2022-04-16T06:53:34.950Z</time>
      </trkpt>
      <trkpt lat="45.66215" lon="5.85816">
        <ele>230</ele>
        <time>2022-04-16T06:53:35.950Z</time>
      </trkpt>
      <trkpt lat="45.66219" lon="5.85814">
        <ele>230</ele>
        <time>2022-04-16T06:53:36.950Z</time>
      </trkpt>
      <trkpt lat="45.66223" lon="5.85812">
        <ele>230</ele>
        <time>2022-04-16T06:53:37.950Z</time>
      </trkpt>
      <trkpt lat="45.66228" lon="5.8581">
        <ele>230</ele>
        <time>2022-04-16T06:53:38.950Z</time>
      </trkpt>
      <trkpt lat="45.66232" lon="5.85809">
        <ele>230</ele>
        <time>2022-04-16T06:53:39.949Z</time>
      </trkpt>
      <trkpt lat="45.66236" lon="5.85807">
        <ele>230</ele>
        <time>2022-04-16T06:53:40.950Z</time>
      </trkpt>
      <trkpt lat="45.66241" lon="5.85806">
        <ele>230</ele>
        <time>2022-04-16T06:53:41.949Z</time>
      </trkpt>
      <trkpt lat="45.66245" lon="5.85806">
        <ele>230</ele>
        <time>2022-04-16T06:53:42.950Z</time>
      </trkpt>
      <trkpt lat="45.66249" lon="5.85805">
        <ele>230</ele>
        <time>2022-04-16T06:53:43.950Z</time>
      </trkpt>
      <trkpt lat="45.66254" lon="5.85805">
        <ele>230</ele>
        <time>2022-04-16T06:53:44.950Z</time>
      </trkpt>
      <trkpt lat="45.66258" lon="5.85805">
        <ele>230</ele>
        <time>2022-04-16T06:53:45.950Z</time>
      </trkpt>
      <trkpt lat="45.66263" lon="5.85804">
        <ele>230</ele>
        <time>2022-04-16T06:53:46.950Z</time>
      </trkpt>
      <trkpt lat="45.66267" lon="5.85804">
        <ele>230</ele>
        <time>2022-04-16T06:53:47.950Z</time>
      </trkpt>
      <trkpt lat="45.66272" lon="5.85804">
        <ele>231</ele>
        <time>2022-04-16T06:53:48.950Z</time>
      </trkpt>
      <trkpt lat="45.66276" lon="5.85803">
        <ele>231</ele>
        <time>2022-04-16T06:53:49.950Z</time>
      </trkpt>
      <trkpt lat="45.6628" lon="5.85803">
        <ele>231</ele>
        <time>2022-04-16T06:53:50.949Z</time>
      </trkpt>
      <trkpt lat="45.66285" lon="5.85803">
        <ele>232</ele>
        <time>2022-04-16T06:53:51.950Z</time>
      </trkpt>
      <trkpt lat="45.66289" lon="5.85803">
        <ele>233</ele>
        <time>2022-04-16T06:53:52.949Z</time>
      </trkpt>
      <trkpt lat="45.66293" lon="5.85803">
        <ele>234</ele>
        <time>2022-04-16T06:53:53.950Z</time>
      </trkpt>
      <trkpt lat="45.66298" lon="5.85803">
        <ele>235</ele>
        <time>2022-04-16T06:53:54.950Z</time>
      </trkpt>
      <trkpt lat="45.66302" lon="5.85803">
        <ele>235</ele>
        <time>2022-04-16T06:53:55.950Z</time>
      </trkpt>
      <trkpt lat="45.66307" lon="5.85804">
        <ele>235</ele>
        <time>2022-04-16T06:53:56.950Z</time>
      </trkpt>
      <trkpt lat="45.66312" lon="5.85805">
        <ele>235</ele>
        <time>2022-04-16T06:53:57.950Z</time>
      </trkpt>
      <trkpt lat="45.66316" lon="5.85807">
        <ele>234</ele>
        <time>2022-04-16T06:53:58.950Z</time>
      </trkpt>
      <trkpt lat="45.66321" lon="5.85809">
        <ele>234</ele>
        <time>2022-04-16T06:53:59.950Z</time>
      </trkpt>
      <trkpt lat="45.66326" lon="5.85811">
        <ele>234</ele>
        <time>2022-04-16T06:54:00.950Z</time>
      </trkpt>
      <trkpt lat="45.6633" lon="5.85812">
        <ele>234</ele>
        <time>2022-04-16T06:54:01.949Z</time>
      </trkpt>
      <trkpt lat="45.66335" lon="5.85813">
        <ele>233</ele>
        <time>2022-04-16T06:54:02.950Z</time>
      </trkpt>
      <trkpt lat="45.66339" lon="5.85814">
        <ele>233</ele>
        <time>2022-04-16T06:54:03.949Z</time>
      </trkpt>
      <trkpt lat="45.66344" lon="5.85814">
        <ele>233</ele>
        <time>2022-04-16T06:54:04.950Z</time>
      </trkpt>
      <trkpt lat="45.66349" lon="5.85815">
        <ele>233</ele>
        <time>2022-04-16T06:54:05.949Z</time>
      </trkpt>
      <trkpt lat="45.66354" lon="5.85816">
        <ele>232</ele>
        <time>2022-04-16T06:54:06.950Z</time>
      </trkpt>
      <trkpt lat="45.66358" lon="5.85818">
        <ele>232</ele>
        <time>2022-04-16T06:54:07.949Z</time>
      </trkpt>
      <trkpt lat="45.66363" lon="5.85819">
        <ele>232</ele>
        <time>2022-04-16T06:54:08.950Z</time>
      </trkpt>
      <trkpt lat="45.66368" lon="5.8582">
        <ele>232</ele>
        <time>2022-04-16T06:54:09.949Z</time>
      </trkpt>
      <trkpt lat="45.66373" lon="5.85822">
        <ele>231</ele>
        <time>2022-04-16T06:54:10.949Z</time>
      </trkpt>
      <trkpt lat="45.66378" lon="5.85823">
        <ele>231</ele>
        <time>2022-04-16T06:54:11.950Z</time>
      </trkpt>
      <trkpt lat="45.66383" lon="5.85825">
        <ele>231</ele>
        <time>2022-04-16T06:54:12.949Z</time>
      </trkpt>
      <trkpt lat="45.66388" lon="5.85827">
        <ele>231</ele>
        <time>2022-04-16T06:54:13.949Z</time>
      </trkpt>
      <trkpt lat="45.66393" lon="5.85829">
        <ele>231</ele>
        <time>2022-04-16T06:54:14.949Z</time>
      </trkpt>
      <trkpt lat="45.66398" lon="5.85831">
        <ele>230</ele>
        <time>2022-04-16T06:54:15.950Z</time>
      </trkpt>
      <trkpt lat="45.66403" lon="5.85833">
        <ele>229</ele>
        <time>2022-04-16T06:54:16.950Z</time>
      </trkpt>
      <trkpt lat="45.66408" lon="5.85835">
        <ele>229</ele>
        <time>2022-04-16T06:54:17.950Z</time>
      </trkpt>
      <trkpt lat="45.66413" lon="5.85837">
        <ele>229</ele>
        <time>2022-04-16T06:54:18.950Z</time>
      </trkpt>
      <trkpt lat="45.66418" lon="5.85839">
        <ele>229</ele>
        <time>2022-04-16T06:54:19.950Z</time>
      </trkpt>
      <trkpt lat="45.66423" lon="5.85841">
        <ele>228</ele>
        <time>2022-04-16T06:54:20.950Z</time>
      </trkpt>
      <trkpt lat="45.66428" lon="5.85842">
        <ele>228</ele>
        <time>2022-04-16T06:54:21.950Z</time>
      </trkpt>
      <trkpt lat="45.66433" lon="5.85845">
        <ele>228</ele>
        <time>2022-04-16T06:54:22.950Z</time>
      </trkpt>
      <trkpt lat="45.66437" lon="5.85848">
        <ele>228</ele>
        <time>2022-04-16T06:54:23.949Z</time>
      </trkpt>
      <trkpt lat="45.66441" lon="5.85853">
        <ele>229</ele>
        <time>2022-04-16T06:54:24.949Z</time>
      </trkpt>
      <trkpt lat="45.66444" lon="5.85858">
        <ele>229</ele>
        <time>2022-04-16T06:54:25.950Z</time>
      </trkpt>
      <trkpt lat="45.66446" lon="5.85864">
        <ele>229</ele>
        <time>2022-04-16T06:54:26.950Z</time>
      </trkpt>
      <trkpt lat="45.6645" lon="5.85868">
        <ele>229</ele>
        <time>2022-04-16T06:54:27.949Z</time>
      </trkpt>
      <trkpt lat="45.66454" lon="5.8587">
        <ele>229</ele>
        <time>2022-04-16T06:54:28.950Z</time>
      </trkpt>
      <trkpt lat="45.66458" lon="5.85869">
        <ele>230</ele>
        <time>2022-04-16T06:54:29.950Z</time>
      </trkpt>
      <trkpt lat="45.66463" lon="5.85868">
        <ele>229</ele>
        <time>2022-04-16T06:54:30.949Z</time>
      </trkpt>
      <trkpt lat="45.66468" lon="5.85868">
        <ele>229</ele>
        <time>2022-04-16T06:54:31.950Z</time>
      </trkpt>
      <trkpt lat="45.66472" lon="5.85868">
        <ele>229</ele>
        <time>2022-04-16T06:54:32.950Z</time>
      </trkpt>
      <trkpt lat="45.66476" lon="5.8587">
        <ele>229</ele>
        <time>2022-04-16T06:54:33.949Z</time>
      </trkpt>
      <trkpt lat="45.6648" lon="5.85872">
        <ele>229</ele>
        <time>2022-04-16T06:54:34.950Z</time>
      </trkpt>
      <trkpt lat="45.66485" lon="5.85874">
        <ele>229</ele>
        <time>2022-04-16T06:54:35.950Z</time>
      </trkpt>
      <trkpt lat="45.6649" lon="5.85874">
        <ele>228</ele>
        <time>2022-04-16T06:54:36.949Z</time>
      </trkpt>
      <trkpt lat="45.66494" lon="5.85875">
        <ele>228</ele>
        <time>2022-04-16T06:54:37.950Z</time>
      </trkpt>
      <trkpt lat="45.66499" lon="5.85876">
        <ele>228</ele>
        <time>2022-04-16T06:54:38.949Z</time>
      </trkpt>
      <trkpt lat="45.66504" lon="5.85877">
        <ele>228</ele>
        <time>2022-04-16T06:54:39.949Z</time>
      </trkpt>
      <trkpt lat="45.66508" lon="5.85877">
        <ele>227</ele>
        <time>2022-04-16T06:54:40.950Z</time>
      </trkpt>
      <trkpt lat="45.66513" lon="5.85878">
        <ele>227</ele>
        <time>2022-04-16T06:54:41.949Z</time>
      </trkpt>
      <trkpt lat="45.66518" lon="5.85877">
        <ele>227</ele>
        <time>2022-04-16T06:54:42.949Z</time>
      </trkpt>
      <trkpt lat="45.66523" lon="5.85877">
        <ele>227</ele>
        <time>2022-04-16T06:54:43.950Z</time>
      </trkpt>
      <trkpt lat="45.66527" lon="5.85876">
        <ele>228</ele>
        <time>2022-04-16T06:54:44.949Z</time>
      </trkpt>
      <trkpt lat="45.66532" lon="5.85875">
        <ele>228</ele>
        <time>2022-04-16T06:54:45.949Z</time>
      </trkpt>
      <trkpt lat="45.66536" lon="5.85873">
        <ele>229</ele>
        <time>2022-04-16T06:54:46.950Z</time>
      </trkpt>
      <trkpt lat="45.66541" lon="5.85871">
        <ele>229</ele>
        <time>2022-04-16T06:54:47.949Z</time>
      </trkpt>
      <trkpt lat="45.66545" lon="5.85869">
        <ele>229</ele>
        <time>2022-04-16T06:54:48.950Z</time>
      </trkpt>
      <trkpt lat="45.66549" lon="5.85867">
        <ele>229</ele>
        <time>2022-04-16T06:54:49.949Z</time>
      </trkpt>
      <trkpt lat="45.66554" lon="5.85865">
        <ele>229</ele>
        <time>2022-04-16T06:54:50.949Z</time>
      </trkpt>
      <trkpt lat="45.66558" lon="5.85862">
        <ele>229</ele>
        <time>2022-04-16T06:54:51.950Z</time>
      </trkpt>
      <trkpt lat="45.66563" lon="5.8586">
        <ele>229</ele>
        <time>2022-04-16T06:54:52.949Z</time>
      </trkpt>
      <trkpt lat="45.66567" lon="5.85858">
        <ele>229</ele>
        <time>2022-04-16T06:54:53.949Z</time>
      </trkpt>
      <trkpt lat="45.66571" lon="5.85855">
        <ele>230</ele>
        <time>2022-04-16T06:54:54.949Z</time>
      </trkpt>
      <trkpt lat="45.66576" lon="5.85853">
        <ele>230</ele>
        <time>2022-04-16T06:54:55.949Z</time>
      </trkpt>
      <trkpt lat="45.6658" lon="5.85851">
        <ele>230</ele>
        <time>2022-04-16T06:54:56.950Z</time>
      </trkpt>
      <trkpt lat="45.66585" lon="5.85848">
        <ele>230</ele>
        <time>2022-04-16T06:54:57.950Z</time>
      </trkpt>
      <trkpt lat="45.66589" lon="5.85846">
        <ele>229</ele>
        <time>2022-04-16T06:54:58.949Z</time>
      </trkpt>
      <trkpt lat="45.66593" lon="5.85843">
        <ele>229</ele>
        <time>2022-04-16T06:54:59.950Z</time>
      </trkpt>
      <trkpt lat="45.66598" lon="5.85841">
        <ele>229</ele>
        <time>2022-04-16T06:55:00.950Z</time>
      </trkpt>
      <trkpt lat="45.66602" lon="5.85839">
        <ele>229</ele>
        <time>2022-04-16T06:55:01.950Z</time>
      </trkpt>
      <trkpt lat="45.66607" lon="5.85837">
        <ele>229</ele>
        <time>2022-04-16T06:55:02.950Z</time>
      </trkpt>
      <trkpt lat="45.66611" lon="5.85834">
        <ele>229</ele>
        <time>2022-04-16T06:55:03.949Z</time>
      </trkpt>
      <trkpt lat="45.66616" lon="5.85832">
        <ele>228</ele>
        <time>2022-04-16T06:55:04.950Z</time>
      </trkpt>
      <trkpt lat="45.6662" lon="5.85831">
        <ele>228</ele>
        <time>2022-04-16T06:55:05.950Z</time>
      </trkpt>
      <trkpt lat="45.66624" lon="5.85829">
        <ele>228</ele>
        <time>2022-04-16T06:55:06.949Z</time>
      </trkpt>
      <trkpt lat="45.66629" lon="5.85828">
        <ele>228</ele>
        <time>2022-04-16T06:55:07.950Z</time>
      </trkpt>
      <trkpt lat="45.66633" lon="5.85826">
        <ele>228</ele>
        <time>2022-04-16T06:55:08.950Z</time>
      </trkpt>
      <trkpt lat="45.66638" lon="5.85825">
        <ele>228</ele>
        <time>2022-04-16T06:55:09.949Z</time>
      </trkpt>
      <trkpt lat="45.66643" lon="5.85824">
        <ele>228</ele>
        <time>2022-04-16T06:55:10.950Z</time>
      </trkpt>
      <trkpt lat="45.66647" lon="5.85822">
        <ele>229</ele>
        <time>2022-04-16T06:55:11.949Z</time>
      </trkpt>
      <trkpt lat="45.66652" lon="5.85822">
        <ele>229</ele>
        <time>2022-04-16T06:55:12.949Z</time>
      </trkpt>
      <trkpt lat="45.66656" lon="5.8582">
        <ele>229</ele>
        <time>2022-04-16T06:55:13.950Z</time>
      </trkpt>
      <trkpt lat="45.66661" lon="5.85819">
        <ele>229</ele>
        <time>2022-04-16T06:55:14.950Z</time>
      </trkpt>
      <trkpt lat="45.66665" lon="5.85819">
        <ele>229</ele>
        <time>2022-04-16T06:55:15.950Z</time>
      </trkpt>
      <trkpt lat="45.6667" lon="5.85818">
        <ele>229</ele>
        <time>2022-04-16T06:55:16.950Z</time>
      </trkpt>
      <trkpt lat="45.66674" lon="5.85817">
        <ele>229</ele>
        <time>2022-04-16T06:55:17.950Z</time>
      </trkpt>
      <trkpt lat="45.66678" lon="5.85816">
        <ele>229</ele>
        <time>2022-04-16T06:55:18.950Z</time>
      </trkpt>
      <trkpt lat="45.66683" lon="5.85815">
        <ele>229</ele>
        <time>2022-04-16T06:55:19.950Z</time>
      </trkpt>
      <trkpt lat="45.66687" lon="5.85814">
        <ele>229</ele>
        <time>2022-04-16T06:55:20.949Z</time>
      </trkpt>
      <trkpt lat="45.66691" lon="5.85812">
        <ele>229</ele>
        <time>2022-04-16T06:55:21.949Z</time>
      </trkpt>
      <trkpt lat="45.66696" lon="5.8581">
        <ele>229</ele>
        <time>2022-04-16T06:55:22.949Z</time>
      </trkpt>
      <trkpt lat="45.667" lon="5.85808">
        <ele>229</ele>
        <time>2022-04-16T06:55:23.950Z</time>
      </trkpt>
      <trkpt lat="45.66704" lon="5.85806">
        <ele>230</ele>
        <time>2022-04-16T06:55:24.950Z</time>
      </trkpt>
      <trkpt lat="45.66708" lon="5.85804">
        <ele>230</ele>
        <time>2022-04-16T06:55:25.949Z</time>
      </trkpt>
      <trkpt lat="45.66712" lon="5.85802">
        <ele>230</ele>
        <time>2022-04-16T06:55:26.949Z</time>
      </trkpt>
      <trkpt lat="45.66717" lon="5.858">
        <ele>229</ele>
        <time>2022-04-16T06:55:27.950Z</time>
      </trkpt>
      <trkpt lat="45.66721" lon="5.85797">
        <ele>228</ele>
        <time>2022-04-16T06:55:28.950Z</time>
      </trkpt>
      <trkpt lat="45.66725" lon="5.85795">
        <ele>228</ele>
        <time>2022-04-16T06:55:29.950Z</time>
      </trkpt>
      <trkpt lat="45.6673" lon="5.85793">
        <ele>227</ele>
        <time>2022-04-16T06:55:30.950Z</time>
      </trkpt>
      <trkpt lat="45.66734" lon="5.8579">
        <ele>227</ele>
        <time>2022-04-16T06:55:31.949Z</time>
      </trkpt>
      <trkpt lat="45.66738" lon="5.85788">
        <ele>226</ele>
        <time>2022-04-16T06:55:32.949Z</time>
      </trkpt>
      <trkpt lat="45.66742" lon="5.85785">
        <ele>226</ele>
        <time>2022-04-16T06:55:33.949Z</time>
      </trkpt>
      <trkpt lat="45.66746" lon="5.85783">
        <ele>226</ele>
        <time>2022-04-16T06:55:34.950Z</time>
      </trkpt>
      <trkpt lat="45.6675" lon="5.8578">
        <ele>226</ele>
        <time>2022-04-16T06:55:35.950Z</time>
      </trkpt>
      <trkpt lat="45.66754" lon="5.85778">
        <ele>226</ele>
        <time>2022-04-16T06:55:36.950Z</time>
      </trkpt>
      <trkpt lat="45.66758" lon="5.85775">
        <ele>226</ele>
        <time>2022-04-16T06:55:37.949Z</time>
      </trkpt>
      <trkpt lat="45.66762" lon="5.85773">
        <ele>226</ele>
        <time>2022-04-16T06:55:38.949Z</time>
      </trkpt>
      <trkpt lat="45.66766" lon="5.85771">
        <ele>227</ele>
        <time>2022-04-16T06:55:39.949Z</time>
      </trkpt>
      <trkpt lat="45.6677" lon="5.85768">
        <ele>227</ele>
        <time>2022-04-16T06:55:40.949Z</time>
      </trkpt>
      <trkpt lat="45.66774" lon="5.85766">
        <ele>228</ele>
        <time>2022-04-16T06:55:41.949Z</time>
      </trkpt>
      <trkpt lat="45.66778" lon="5.85764">
        <ele>228</ele>
        <time>2022-04-16T06:55:42.949Z</time>
      </trkpt>
      <trkpt lat="45.66782" lon="5.85761">
        <ele>228</ele>
        <time>2022-04-16T06:55:43.949Z</time>
      </trkpt>
      <trkpt lat="45.66786" lon="5.85759">
        <ele>229</ele>
        <time>2022-04-16T06:55:44.950Z</time>
      </trkpt>
      <trkpt lat="45.6679" lon="5.85757">
        <ele>230</ele>
        <time>2022-04-16T06:55:45.950Z</time>
      </trkpt>
      <trkpt lat="45.66794" lon="5.85755">
        <ele>230</ele>
        <time>2022-04-16T06:55:46.949Z</time>
      </trkpt>
      <trkpt lat="45.66799" lon="5.85753">
        <ele>231</ele>
        <time>2022-04-16T06:55:47.950Z</time>
      </trkpt>
      <trkpt lat="45.66803" lon="5.85751">
        <ele>231</ele>
        <time>2022-04-16T06:55:48.950Z</time>
      </trkpt>
      <trkpt lat="45.66806" lon="5.85749">
        <ele>231</ele>
        <time>2022-04-16T06:55:49.950Z</time>
      </trkpt>
      <trkpt lat="45.6681" lon="5.85748">
        <ele>232</ele>
        <time>2022-04-16T06:55:50.949Z</time>
      </trkpt>
      <trkpt lat="45.66814" lon="5.85746">
        <ele>232</ele>
        <time>2022-04-16T06:55:51.949Z</time>
      </trkpt>
      <trkpt lat="45.66818" lon="5.85744">
        <ele>232</ele>
        <time>2022-04-16T06:55:52.949Z</time>
      </trkpt>
      <trkpt lat="45.66822" lon="5.85742">
        <ele>232</ele>
        <time>2022-04-16T06:55:53.949Z</time>
      </trkpt>
      <trkpt lat="45.66826" lon="5.8574">
        <ele>232</ele>
        <time>2022-04-16T06:55:54.949Z</time>
      </trkpt>
      <trkpt lat="45.6683" lon="5.85738">
        <ele>232</ele>
        <time>2022-04-16T06:55:55.949Z</time>
      </trkpt>
      <trkpt lat="45.66834" lon="5.85736">
        <ele>232</ele>
        <time>2022-04-16T06:55:56.949Z</time>
      </trkpt>
      <trkpt lat="45.66838" lon="5.85735">
        <ele>233</ele>
        <time>2022-04-16T06:55:57.950Z</time>
      </trkpt>
      <trkpt lat="45.66842" lon="5.85733">
        <ele>233</ele>
        <time>2022-04-16T06:55:58.950Z</time>
      </trkpt>
      <trkpt lat="45.66845" lon="5.85731">
        <ele>233</ele>
        <time>2022-04-16T06:55:59.949Z</time>
      </trkpt>
      <trkpt lat="45.66849" lon="5.85729">
        <ele>233</ele>
        <time>2022-04-16T06:56:00.950Z</time>
      </trkpt>
      <trkpt lat="45.66853" lon="5.85727">
        <ele>233</ele>
        <time>2022-04-16T06:56:01.950Z</time>
      </trkpt>
      <trkpt lat="45.66857" lon="5.85725">
        <ele>233</ele>
        <time>2022-04-16T06:56:02.949Z</time>
      </trkpt>
      <trkpt lat="45.6686" lon="5.85723">
        <ele>234</ele>
        <time>2022-04-16T06:56:03.949Z</time>
      </trkpt>
      <trkpt lat="45.66864" lon="5.85722">
        <ele>234</ele>
        <time>2022-04-16T06:56:04.950Z</time>
      </trkpt>
      <trkpt lat="45.66868" lon="5.85721">
        <ele>234</ele>
        <time>2022-04-16T06:56:05.949Z</time>
      </trkpt>
      <trkpt lat="45.66872" lon="5.8572">
        <ele>234</ele>
        <time>2022-04-16T06:56:06.950Z</time>
      </trkpt>
      <trkpt lat="45.66876" lon="5.85719">
        <ele>234</ele>
        <time>2022-04-16T06:56:07.950Z</time>
      </trkpt>
      <trkpt lat="45.66881" lon="5.85718">
        <ele>235</ele>
        <time>2022-04-16T06:56:08.949Z</time>
      </trkpt>
      <trkpt lat="45.66885" lon="5.85718">
        <ele>235</ele>
        <time>2022-04-16T06:56:09.950Z</time>
      </trkpt>
      <trkpt lat="45.66889" lon="5.85718">
        <ele>235</ele>
        <time>2022-04-16T06:56:10.950Z</time>
      </trkpt>
      <trkpt lat="45.66893" lon="5.85717">
        <ele>235</ele>
        <time>2022-04-16T06:56:11.950Z</time>
      </trkpt>
      <trkpt lat="45.66897" lon="5.85716">
        <ele>234</ele>
        <time>2022-04-16T06:56:12.949Z</time>
      </trkpt>
      <trkpt lat="45.66902" lon="5.85715">
        <ele>234</ele>
        <time>2022-04-16T06:56:13.949Z</time>
      </trkpt>
      <trkpt lat="45.66906" lon="5.85715">
        <ele>233</ele>
        <time>2022-04-16T06:56:14.949Z</time>
      </trkpt>
      <trkpt lat="45.6691" lon="5.85714">
        <ele>233</ele>
        <time>2022-04-16T06:56:15.949Z</time>
      </trkpt>
      <trkpt lat="45.66913" lon="5.85714">
        <ele>232</ele>
        <time>2022-04-16T06:56:16.950Z</time>
      </trkpt>
      <trkpt lat="45.66917" lon="5.85713">
        <ele>232</ele>
        <time>2022-04-16T06:56:17.949Z</time>
      </trkpt>
      <trkpt lat="45.66921" lon="5.85713">
        <ele>231</ele>
        <time>2022-04-16T06:56:18.950Z</time>
      </trkpt>
      <trkpt lat="45.66924" lon="5.85713">
        <ele>231</ele>
        <time>2022-04-16T06:56:19.949Z</time>
      </trkpt>
      <trkpt lat="45.66928" lon="5.85712">
        <ele>231</ele>
        <time>2022-04-16T06:56:20.949Z</time>
      </trkpt>
      <trkpt lat="45.66931" lon="5.85712">
        <ele>231</ele>
        <time>2022-04-16T06:56:21.950Z</time>
      </trkpt>
      <trkpt lat="45.66934" lon="5.85711">
        <ele>231</ele>
        <time>2022-04-16T06:56:22.950Z</time>
      </trkpt>
      <trkpt lat="45.66937" lon="5.85711">
        <ele>231</ele>
        <time>2022-04-16T06:56:23.949Z</time>
      </trkpt>
      <trkpt lat="45.66939" lon="5.8571">
        <ele>231</ele>
        <time>2022-04-16T06:56:24.949Z</time>
      </trkpt>
      <trkpt lat="45.66942" lon="5.8571">
        <ele>231</ele>
        <time>2022-04-16T06:56:25.949Z</time>
      </trkpt>
      <trkpt lat="45.66944" lon="5.85709">
        <ele>232</ele>
        <time>2022-04-16T06:56:26.950Z</time>
      </trkpt>
      <trkpt lat="45.66946" lon="5.85708">
        <ele>233</ele>
        <time>2022-04-16T06:56:27.950Z</time>
      </trkpt>
      <trkpt lat="45.66948" lon="5.85708">
        <ele>233</ele>
        <time>2022-04-16T06:56:28.949Z</time>
      </trkpt>
      <trkpt lat="45.6695" lon="5.85708">
        <ele>234</ele>
        <time>2022-04-16T06:56:29.949Z</time>
      </trkpt>
      <trkpt lat="45.66952" lon="5.85707">
        <ele>234</ele>
        <time>2022-04-16T06:56:30.949Z</time>
      </trkpt>
      <trkpt lat="45.66955" lon="5.85707">
        <ele>235</ele>
        <time>2022-04-16T06:56:31.950Z</time>
      </trkpt>
      <trkpt lat="45.66957" lon="5.85706">
        <ele>235</ele>
        <time>2022-04-16T06:56:32.950Z</time>
      </trkpt>
      <trkpt lat="45.66959" lon="5.85706">
        <ele>235</ele>
        <time>2022-04-16T06:56:33.949Z</time>
      </trkpt>
      <trkpt lat="45.66961" lon="5.85706">
        <ele>235</ele>
        <time>2022-04-16T06:56:34.950Z</time>
      </trkpt>
      <trkpt lat="45.66963" lon="5.85705">
        <ele>235</ele>
        <time>2022-04-16T06:56:35.950Z</time>
      </trkpt>
      <trkpt lat="45.66965" lon="5.85705">
        <ele>235</ele>
        <time>2022-04-16T06:56:36.949Z</time>
      </trkpt>
      <trkpt lat="45.66968" lon="5.85705">
        <ele>235</ele>
        <time>2022-04-16T06:56:37.950Z</time>
      </trkpt>
      <trkpt lat="45.6697" lon="5.85705">
        <ele>236</ele>
        <time>2022-04-16T06:56:38.949Z</time>
      </trkpt>
      <trkpt lat="45.66972" lon="5.85704">
        <ele>236</ele>
        <time>2022-04-16T06:56:39.950Z</time>
      </trkpt>
      <trkpt lat="45.66974" lon="5.85704">
        <ele>237</ele>
        <time>2022-04-16T06:56:40.949Z</time>
      </trkpt>
      <trkpt lat="45.66976" lon="5.85704">
        <ele>238</ele>
        <time>2022-04-16T06:56:41.950Z</time>
      </trkpt>
      <trkpt lat="45.66978" lon="5.85703">
        <ele>239</ele>
        <time>2022-04-16T06:56:42.950Z</time>
      </trkpt>
      <trkpt lat="45.6698" lon="5.85703">
        <ele>239</ele>
        <time>2022-04-16T06:56:43.950Z</time>
      </trkpt>
      <trkpt lat="45.66982" lon="5.85702">
        <ele>239</ele>
        <time>2022-04-16T06:56:44.950Z</time>
      </trkpt>
      <trkpt lat="45.66984" lon="5.85702">
        <ele>239</ele>
        <time>2022-04-16T06:56:45.949Z</time>
      </trkpt>
      <trkpt lat="45.66987" lon="5.85701">
        <ele>238</ele>
        <time>2022-04-16T06:56:46.949Z</time>
      </trkpt>
      <trkpt lat="45.66989" lon="5.857">
        <ele>238</ele>
        <time>2022-04-16T06:56:47.949Z</time>
      </trkpt>
      <trkpt lat="45.66991" lon="5.857">
        <ele>237</ele>
        <time>2022-04-16T06:56:48.949Z</time>
      </trkpt>
      <trkpt lat="45.66993" lon="5.85699">
        <ele>237</ele>
        <time>2022-04-16T06:56:49.950Z</time>
      </trkpt>
      <trkpt lat="45.66995" lon="5.85698">
        <ele>237</ele>
        <time>2022-04-16T06:56:50.950Z</time>
      </trkpt>
      <trkpt lat="45.66998" lon="5.85697">
        <ele>236</ele>
        <time>2022-04-16T06:56:51.949Z</time>
      </trkpt>
      <trkpt lat="45.67" lon="5.85697">
        <ele>236</ele>
        <time>2022-04-16T06:56:52.949Z</time>
      </trkpt>
      <trkpt lat="45.67002" lon="5.85696">
        <ele>235</ele>
        <time>2022-04-16T06:56:53.949Z</time>
      </trkpt>
      <trkpt lat="45.67004" lon="5.85695">
        <ele>235</ele>
        <time>2022-04-16T06:56:54.949Z</time>
      </trkpt>
      <trkpt lat="45.67006" lon="5.85694">
        <ele>235</ele>
        <time>2022-04-16T06:56:55.950Z</time>
      </trkpt>
      <trkpt lat="45.67008" lon="5.85694">
        <ele>234</ele>
        <time>2022-04-16T06:56:56.950Z</time>
      </trkpt>
      <trkpt lat="45.67011" lon="5.85693">
        <ele>234</ele>
        <time>2022-04-16T06:56:57.949Z</time>
      </trkpt>
      <trkpt lat="45.67013" lon="5.85693">
        <ele>234</ele>
        <time>2022-04-16T06:56:58.949Z</time>
      </trkpt>
      <trkpt lat="45.67016" lon="5.85693">
        <ele>233</ele>
        <time>2022-04-16T06:56:59.950Z</time>
      </trkpt>
      <trkpt lat="45.67018" lon="5.85693">
        <ele>233</ele>
        <time>2022-04-16T06:57:00.949Z</time>
      </trkpt>
      <trkpt lat="45.6702" lon="5.85693">
        <ele>233</ele>
        <time>2022-04-16T06:57:01.950Z</time>
      </trkpt>
      <trkpt lat="45.67022" lon="5.85693">
        <ele>233</ele>
        <time>2022-04-16T06:57:02.950Z</time>
      </trkpt>
      <trkpt lat="45.67024" lon="5.85693">
        <ele>233</ele>
        <time>2022-04-16T06:57:03.950Z</time>
      </trkpt>
      <trkpt lat="45.67026" lon="5.85693">
        <ele>234</ele>
        <time>2022-04-16T06:57:04.950Z</time>
      </trkpt>
      <trkpt lat="45.67028" lon="5.85693">
        <ele>234</ele>
        <time>2022-04-16T06:57:05.949Z</time>
      </trkpt>
      <trkpt lat="45.6703" lon="5.85691">
        <ele>235</ele>
        <time>2022-04-16T06:57:06.949Z</time>
      </trkpt>
      <trkpt lat="45.67032" lon="5.85691">
        <ele>235</ele>
        <time>2022-04-16T06:57:07.949Z</time>
      </trkpt>
      <trkpt lat="45.67034" lon="5.85691">
        <ele>235</ele>
        <time>2022-04-16T06:57:08.949Z</time>
      </trkpt>
      <trkpt lat="45.67037" lon="5.85691">
        <ele>236</ele>
        <time>2022-04-16T06:57:09.950Z</time>
      </trkpt>
      <trkpt lat="45.67039" lon="5.85691">
        <ele>236</ele>
        <time>2022-04-16T06:57:10.950Z</time>
      </trkpt>
      <trkpt lat="45.67041" lon="5.85691">
        <ele>236</ele>
        <time>2022-04-16T06:57:11.950Z</time>
      </trkpt>
      <trkpt lat="45.67043" lon="5.85691">
        <ele>236</ele>
        <time>2022-04-16T06:57:12.950Z</time>
      </trkpt>
      <trkpt lat="45.67046" lon="5.8569">
        <ele>236</ele>
        <time>2022-04-16T06:57:13.949Z</time>
      </trkpt>
      <trkpt lat="45.67048" lon="5.8569">
        <ele>237</ele>
        <time>2022-04-16T06:57:14.950Z</time>
      </trkpt>
      <trkpt lat="45.6705" lon="5.8569">
        <ele>237</ele>
        <time>2022-04-16T06:57:15.950Z</time>
      </trkpt>
      <trkpt lat="45.67052" lon="5.85689">
        <ele>237</ele>
        <time>2022-04-16T06:57:16.950Z</time>
      </trkpt>
      <trkpt lat="45.67054" lon="5.85689">
        <ele>238</ele>
        <time>2022-04-16T06:57:17.949Z</time>
      </trkpt>
      <trkpt lat="45.67056" lon="5.85689">
        <ele>239</ele>
        <time>2022-04-16T06:57:18.950Z</time>
      </trkpt>
      <trkpt lat="45.67058" lon="5.85688">
        <ele>239</ele>
        <time>2022-04-16T06:57:19.949Z</time>
      </trkpt>
      <trkpt lat="45.6706" lon="5.85686">
        <ele>240</ele>
        <time>2022-04-16T06:57:20.950Z</time>
      </trkpt>
      <trkpt lat="45.67062" lon="5.85685">
        <ele>240</ele>
        <time>2022-04-16T06:57:21.950Z</time>
      </trkpt>
      <trkpt lat="45.67063" lon="5.85682">
        <ele>240</ele>
        <time>2022-04-16T06:57:22.949Z</time>
      </trkpt>
      <trkpt lat="45.67065" lon="5.85681">
        <ele>241</ele>
        <time>2022-04-16T06:57:23.949Z</time>
      </trkpt>
      <trkpt lat="45.67066" lon="5.85678">
        <ele>242</ele>
        <time>2022-04-16T06:57:24.950Z</time>
      </trkpt>
      <trkpt lat="45.67067" lon="5.85676">
        <ele>243</ele>
        <time>2022-04-16T06:57:25.949Z</time>
      </trkpt>
      <trkpt lat="45.67068" lon="5.85673">
        <ele>243</ele>
        <time>2022-04-16T06:57:26.950Z</time>
      </trkpt>
      <trkpt lat="45.67069" lon="5.8567">
        <ele>244</ele>
        <time>2022-04-16T06:57:27.950Z</time>
      </trkpt>
      <trkpt lat="45.6707" lon="5.85667">
        <ele>245</ele>
        <time>2022-04-16T06:57:28.949Z</time>
      </trkpt>
      <trkpt lat="45.6707" lon="5.85664">
        <ele>246</ele>
        <time>2022-04-16T06:57:29.949Z</time>
      </trkpt>
      <trkpt lat="45.67071" lon="5.85661">
        <ele>247</ele>
        <time>2022-04-16T06:57:30.950Z</time>
      </trkpt>
      <trkpt lat="45.67072" lon="5.85657">
        <ele>248</ele>
        <time>2022-04-16T06:57:31.949Z</time>
      </trkpt>
      <trkpt lat="45.67073" lon="5.85654">
        <ele>248</ele>
        <time>2022-04-16T06:57:32.949Z</time>
      </trkpt>
      <trkpt lat="45.67074" lon="5.85651">
        <ele>249</ele>
        <time>2022-04-16T06:57:33.950Z</time>
      </trkpt>
      <trkpt lat="45.67075" lon="5.85649">
        <ele>251</ele>
        <time>2022-04-16T06:57:34.950Z</time>
      </trkpt>
      <trkpt lat="45.67076" lon="5.85646">
        <ele>252</ele>
        <time>2022-04-16T06:57:35.950Z</time>
      </trkpt>
      <trkpt lat="45.67077" lon="5.85644">
        <ele>253</ele>
        <time>2022-04-16T06:57:36.950Z</time>
      </trkpt>
      <trkpt lat="45.67078" lon="5.85642">
        <ele>254</ele>
        <time>2022-04-16T06:57:37.949Z</time>
      </trkpt>
      <trkpt lat="45.6708" lon="5.8564">
        <ele>254</ele>
        <time>2022-04-16T06:57:38.949Z</time>
      </trkpt>
      <trkpt lat="45.67082" lon="5.85638">
        <ele>255</ele>
        <time>2022-04-16T06:57:39.949Z</time>
      </trkpt>
      <trkpt lat="45.67083" lon="5.85636">
        <ele>255</ele>
        <time>2022-04-16T06:57:40.949Z</time>
      </trkpt>
      <trkpt lat="45.67084" lon="5.85636">
        <ele>255</ele>
        <time>2022-04-16T06:57:41.950Z</time>
      </trkpt>
      <trkpt lat="45.67086" lon="5.85635">
        <ele>255</ele>
        <time>2022-04-16T06:57:42.949Z</time>
      </trkpt>
      <trkpt lat="45.67087" lon="5.85633">
        <ele>256</ele>
        <time>2022-04-16T06:57:43.949Z</time>
      </trkpt>
      <trkpt lat="45.67089" lon="5.85632">
        <ele>256</ele>
        <time>2022-04-16T06:57:44.949Z</time>
      </trkpt>
      <trkpt lat="45.67091" lon="5.85631">
        <ele>256</ele>
        <time>2022-04-16T06:57:45.949Z</time>
      </trkpt>
      <trkpt lat="45.67093" lon="5.8563">
        <ele>257</ele>
        <time>2022-04-16T06:57:46.950Z</time>
      </trkpt>
      <trkpt lat="45.67095" lon="5.85629">
        <ele>258</ele>
        <time>2022-04-16T06:57:47.950Z</time>
      </trkpt>
      <trkpt lat="45.67097" lon="5.85629">
        <ele>258</ele>
        <time>2022-04-16T06:57:48.950Z</time>
      </trkpt>
      <trkpt lat="45.67099" lon="5.85629">
        <ele>259</ele>
        <time>2022-04-16T06:57:49.950Z</time>
      </trkpt>
      <trkpt lat="45.67101" lon="5.85628">
        <ele>259</ele>
        <time>2022-04-16T06:57:50.950Z</time>
      </trkpt>
      <trkpt lat="45.67103" lon="5.85628">
        <ele>260</ele>
        <time>2022-04-16T06:57:51.950Z</time>
      </trkpt>
      <trkpt lat="45.67105" lon="5.85628">
        <ele>260</ele>
        <time>2022-04-16T06:57:52.949Z</time>
      </trkpt>
      <trkpt lat="45.67107" lon="5.85628">
        <ele>261</ele>
        <time>2022-04-16T06:57:53.950Z</time>
      </trkpt>
      <trkpt lat="45.67109" lon="5.85627">
        <ele>261</ele>
        <time>2022-04-16T06:57:54.950Z</time>
      </trkpt>
      <trkpt lat="45.67111" lon="5.85627">
        <ele>261</ele>
        <time>2022-04-16T06:57:55.950Z</time>
      </trkpt>
      <trkpt lat="45.67114" lon="5.85627">
        <ele>260</ele>
        <time>2022-04-16T06:57:56.949Z</time>
      </trkpt>
      <trkpt lat="45.67116" lon="5.85627">
        <ele>260</ele>
        <time>2022-04-16T06:57:57.950Z</time>
      </trkpt>
      <trkpt lat="45.67118" lon="5.85627">
        <ele>260</ele>
        <time>2022-04-16T06:57:58.950Z</time>
      </trkpt>
      <trkpt lat="45.6712" lon="5.85628">
        <ele>259</ele>
        <time>2022-04-16T06:57:59.950Z</time>
      </trkpt>
      <trkpt lat="45.67122" lon="5.85628">
        <ele>259</ele>
        <time>2022-04-16T06:58:00.949Z</time>
      </trkpt>
      <trkpt lat="45.67124" lon="5.85628">
        <ele>259</ele>
        <time>2022-04-16T06:58:01.950Z</time>
      </trkpt>
      <trkpt lat="45.67126" lon="5.85628">
        <ele>259</ele>
        <time>2022-04-16T06:58:02.950Z</time>
      </trkpt>
      <trkpt lat="45.67128" lon="5.85628">
        <ele>259</ele>
        <time>2022-04-16T06:58:03.950Z</time>
      </trkpt>
      <trkpt lat="45.6713" lon="5.85627">
        <ele>259</ele>
        <time>2022-04-16T06:58:04.950Z</time>
      </trkpt>
      <trkpt lat="45.67132" lon="5.85627">
        <ele>259</ele>
        <time>2022-04-16T06:58:05.950Z</time>
      </trkpt>
      <trkpt lat="45.67135" lon="5.85627">
        <ele>259</ele>
        <time>2022-04-16T06:58:06.949Z</time>
      </trkpt>
      <trkpt lat="45.67137" lon="5.85628">
        <ele>259</ele>
        <time>2022-04-16T06:58:07.950Z</time>
      </trkpt>
      <trkpt lat="45.6714" lon="5.85628">
        <ele>259</ele>
        <time>2022-04-16T06:58:08.950Z</time>
      </trkpt>
      <trkpt lat="45.67142" lon="5.85628">
        <ele>258</ele>
        <time>2022-04-16T06:58:09.950Z</time>
      </trkpt>
      <trkpt lat="45.67144" lon="5.85628">
        <ele>258</ele>
        <time>2022-04-16T06:58:10.949Z</time>
      </trkpt>
      <trkpt lat="45.67146" lon="5.85629">
        <ele>258</ele>
        <time>2022-04-16T06:58:11.950Z</time>
      </trkpt>
      <trkpt lat="45.67148" lon="5.8563">
        <ele>258</ele>
        <time>2022-04-16T06:58:12.950Z</time>
      </trkpt>
      <trkpt lat="45.6715" lon="5.8563">
        <ele>258</ele>
        <time>2022-04-16T06:58:13.950Z</time>
      </trkpt>
      <trkpt lat="45.67153" lon="5.85629">
        <ele>258</ele>
        <time>2022-04-16T06:58:14.949Z</time>
      </trkpt>
      <trkpt lat="45.67155" lon="5.85628">
        <ele>257</ele>
        <time>2022-04-16T06:58:15.950Z</time>
      </trkpt>
      <trkpt lat="45.67157" lon="5.85628">
        <ele>257</ele>
        <time>2022-04-16T06:58:16.950Z</time>
      </trkpt>
      <trkpt lat="45.67159" lon="5.85629">
        <ele>257</ele>
        <time>2022-04-16T06:58:17.950Z</time>
      </trkpt>
      <trkpt lat="45.67161" lon="5.85629">
        <ele>257</ele>
        <time>2022-04-16T06:58:18.949Z</time>
      </trkpt>
      <trkpt lat="45.67164" lon="5.85629">
        <ele>257</ele>
        <time>2022-04-16T06:58:19.950Z</time>
      </trkpt>
      <trkpt lat="45.67166" lon="5.85629">
        <ele>257</ele>
        <time>2022-04-16T06:58:20.950Z</time>
      </trkpt>
      <trkpt lat="45.67168" lon="5.85629">
        <ele>258</ele>
        <time>2022-04-16T06:58:21.950Z</time>
      </trkpt>
      <trkpt lat="45.6717" lon="5.85629">
        <ele>258</ele>
        <time>2022-04-16T06:58:22.950Z</time>
      </trkpt>
      <trkpt lat="45.67172" lon="5.85629">
        <ele>258</ele>
        <time>2022-04-16T06:58:23.950Z</time>
      </trkpt>
      <trkpt lat="45.67174" lon="5.85628">
        <ele>259</ele>
        <time>2022-04-16T06:58:24.950Z</time>
      </trkpt>
      <trkpt lat="45.67176" lon="5.85628">
        <ele>259</ele>
        <time>2022-04-16T06:58:25.949Z</time>
      </trkpt>
      <trkpt lat="45.67178" lon="5.85627">
        <ele>259</ele>
        <time>2022-04-16T06:58:26.950Z</time>
      </trkpt>
      <trkpt lat="45.6718" lon="5.85627">
        <ele>260</ele>
        <time>2022-04-16T06:58:27.950Z</time>
      </trkpt>
      <trkpt lat="45.67182" lon="5.85627">
        <ele>260</ele>
        <time>2022-04-16T06:58:28.950Z</time>
      </trkpt>
      <trkpt lat="45.67184" lon="5.85626">
        <ele>260</ele>
        <time>2022-04-16T06:58:29.950Z</time>
      </trkpt>
      <trkpt lat="45.67186" lon="5.85626">
        <ele>261</ele>
        <time>2022-04-16T06:58:30.950Z</time>
      </trkpt>
      <trkpt lat="45.67188" lon="5.85626">
        <ele>261</ele>
        <time>2022-04-16T06:58:31.949Z</time>
      </trkpt>
      <trkpt lat="45.6719" lon="5.85626">
        <ele>261</ele>
        <time>2022-04-16T06:58:32.949Z</time>
      </trkpt>
      <trkpt lat="45.67192" lon="5.85627">
        <ele>261</ele>
        <time>2022-04-16T06:58:33.949Z</time>
      </trkpt>
      <trkpt lat="45.67194" lon="5.85627">
        <ele>261</ele>
        <time>2022-04-16T06:58:34.949Z</time>
      </trkpt>
      <trkpt lat="45.67196" lon="5.85627">
        <ele>261</ele>
        <time>2022-04-16T06:58:35.950Z</time>
      </trkpt>
      <trkpt lat="45.67198" lon="5.85627">
        <ele>261</ele>
        <time>2022-04-16T06:58:36.950Z</time>
      </trkpt>
      <trkpt lat="45.672" lon="5.85627">
        <ele>262</ele>
        <time>2022-04-16T06:58:37.950Z</time>
      </trkpt>
      <trkpt lat="45.67202" lon="5.85628">
        <ele>262</ele>
        <time>2022-04-16T06:58:38.950Z</time>
      </trkpt>
      <trkpt lat="45.67204" lon="5.85628">
        <ele>262</ele>
        <time>2022-04-16T06:58:39.950Z</time>
      </trkpt>
      <trkpt lat="45.67206" lon="5.85628">
        <ele>263</ele>
        <time>2022-04-16T06:58:40.950Z</time>
      </trkpt>
      <trkpt lat="45.67208" lon="5.85628">
        <ele>263</ele>
        <time>2022-04-16T06:58:41.950Z</time>
      </trkpt>
      <trkpt lat="45.6721" lon="5.85629">
        <ele>263</ele>
        <time>2022-04-16T06:58:42.950Z</time>
      </trkpt>
      <trkpt lat="45.67212" lon="5.85629">
        <ele>263</ele>
        <time>2022-04-16T06:58:43.949Z</time>
      </trkpt>
      <trkpt lat="45.67214" lon="5.85629">
        <ele>264</ele>
        <time>2022-04-16T06:58:44.949Z</time>
      </trkpt>
      <trkpt lat="45.67216" lon="5.8563">
        <ele>264</ele>
        <time>2022-04-16T06:58:45.949Z</time>
      </trkpt>
      <trkpt lat="45.67218" lon="5.8563">
        <ele>265</ele>
        <time>2022-04-16T06:58:46.950Z</time>
      </trkpt>
      <trkpt lat="45.6722" lon="5.8563">
        <ele>265</ele>
        <time>2022-04-16T06:58:47.950Z</time>
      </trkpt>
      <trkpt lat="45.67222" lon="5.8563">
        <ele>266</ele>
        <time>2022-04-16T06:58:48.950Z</time>
      </trkpt>
      <trkpt lat="45.67225" lon="5.85631">
        <ele>266</ele>
        <time>2022-04-16T06:58:49.949Z</time>
      </trkpt>
      <trkpt lat="45.67227" lon="5.85632">
        <ele>266</ele>
        <time>2022-04-16T06:58:50.950Z</time>
      </trkpt>
      <trkpt lat="45.67228" lon="5.85633">
        <ele>266</ele>
        <time>2022-04-16T06:58:51.950Z</time>
      </trkpt>
      <trkpt lat="45.67229" lon="5.85634">
        <ele>266</ele>
        <time>2022-04-16T06:58:52.950Z</time>
      </trkpt>
      <trkpt lat="45.67231" lon="5.85635">
        <ele>266</ele>
        <time>2022-04-16T06:58:53.949Z</time>
      </trkpt>
      <trkpt lat="45.67233" lon="5.85636">
        <ele>267</ele>
        <time>2022-04-16T06:58:54.950Z</time>
      </trkpt>
      <trkpt lat="45.67235" lon="5.85636">
        <ele>267</ele>
        <time>2022-04-16T06:58:55.950Z</time>
      </trkpt>
      <trkpt lat="45.67237" lon="5.85636">
        <ele>267</ele>
        <time>2022-04-16T06:58:56.950Z</time>
      </trkpt>
      <trkpt lat="45.67239" lon="5.85636">
        <ele>267</ele>
        <time>2022-04-16T06:58:57.950Z</time>
      </trkpt>
      <trkpt lat="45.67242" lon="5.85637">
        <ele>267</ele>
        <time>2022-04-16T06:58:58.949Z</time>
      </trkpt>
      <trkpt lat="45.67243" lon="5.85637">
        <ele>267</ele>
        <time>2022-04-16T06:58:59.950Z</time>
      </trkpt>
      <trkpt lat="45.67245" lon="5.85637">
        <ele>267</ele>
        <time>2022-04-16T06:59:00.950Z</time>
      </trkpt>
      <trkpt lat="45.67248" lon="5.85637">
        <ele>267</ele>
        <time>2022-04-16T06:59:01.950Z</time>
      </trkpt>
      <trkpt lat="45.6725" lon="5.85637">
        <ele>267</ele>
        <time>2022-04-16T06:59:02.950Z</time>
      </trkpt>
      <trkpt lat="45.67252" lon="5.85637">
        <ele>267</ele>
        <time>2022-04-16T06:59:03.950Z</time>
      </trkpt>
      <trkpt lat="45.67254" lon="5.85638">
        <ele>267</ele>
        <time>2022-04-16T06:59:04.950Z</time>
      </trkpt>
      <trkpt lat="45.67256" lon="5.85638">
        <ele>267</ele>
        <time>2022-04-16T06:59:05.950Z</time>
      </trkpt>
      <trkpt lat="45.67258" lon="5.85638">
        <ele>267</ele>
        <time>2022-04-16T06:59:06.950Z</time>
      </trkpt>
      <trkpt lat="45.6726" lon="5.85638">
        <ele>268</ele>
        <time>2022-04-16T06:59:07.950Z</time>
      </trkpt>
      <trkpt lat="45.67262" lon="5.85638">
        <ele>268</ele>
        <time>2022-04-16T06:59:08.950Z</time>
      </trkpt>
      <trkpt lat="45.67265" lon="5.85638">
        <ele>268</ele>
        <time>2022-04-16T06:59:09.950Z</time>
      </trkpt>
      <trkpt lat="45.67266" lon="5.85638">
        <ele>268</ele>
        <time>2022-04-16T06:59:10.949Z</time>
      </trkpt>
      <trkpt lat="45.67269" lon="5.85638">
        <ele>268</ele>
        <time>2022-04-16T06:59:11.950Z</time>
      </trkpt>
      <trkpt lat="45.67271" lon="5.85638">
        <ele>268</ele>
        <time>2022-04-16T06:59:12.950Z</time>
      </trkpt>
      <trkpt lat="45.67273" lon="5.85638">
        <ele>267</ele>
        <time>2022-04-16T06:59:13.949Z</time>
      </trkpt>
      <trkpt lat="45.67275" lon="5.85637">
        <ele>267</ele>
        <time>2022-04-16T06:59:14.949Z</time>
      </trkpt>
      <trkpt lat="45.67277" lon="5.85637">
        <ele>267</ele>
        <time>2022-04-16T06:59:15.949Z</time>
      </trkpt>
      <trkpt lat="45.6728" lon="5.85637">
        <ele>267</ele>
        <time>2022-04-16T06:59:16.950Z</time>
      </trkpt>
      <trkpt lat="45.67282" lon="5.85637">
        <ele>267</ele>
        <time>2022-04-16T06:59:17.950Z</time>
      </trkpt>
      <trkpt lat="45.67284" lon="5.85637">
        <ele>267</ele>
        <time>2022-04-16T06:59:18.950Z</time>
      </trkpt>
      <trkpt lat="45.67286" lon="5.85637">
        <ele>267</ele>
        <time>2022-04-16T06:59:19.950Z</time>
      </trkpt>
      <trkpt lat="45.67289" lon="5.85636">
        <ele>267</ele>
        <time>2022-04-16T06:59:20.949Z</time>
      </trkpt>
      <trkpt lat="45.67291" lon="5.85636">
        <ele>267</ele>
        <time>2022-04-16T06:59:21.949Z</time>
      </trkpt>
      <trkpt lat="45.67293" lon="5.85636">
        <ele>268</ele>
        <time>2022-04-16T06:59:22.949Z</time>
      </trkpt>
      <trkpt lat="45.67295" lon="5.85637">
        <ele>268</ele>
        <time>2022-04-16T06:59:23.950Z</time>
      </trkpt>
      <trkpt lat="45.67297" lon="5.85637">
        <ele>268</ele>
        <time>2022-04-16T06:59:24.949Z</time>
      </trkpt>
      <trkpt lat="45.67299" lon="5.85637">
        <ele>268</ele>
        <time>2022-04-16T06:59:25.949Z</time>
      </trkpt>
      <trkpt lat="45.67302" lon="5.85637">
        <ele>268</ele>
        <time>2022-04-16T06:59:26.949Z</time>
      </trkpt>
      <trkpt lat="45.67304" lon="5.85636">
        <ele>268</ele>
        <time>2022-04-16T06:59:27.950Z</time>
      </trkpt>
      <trkpt lat="45.67306" lon="5.85636">
        <ele>268</ele>
        <time>2022-04-16T06:59:28.950Z</time>
      </trkpt>
      <trkpt lat="45.67308" lon="5.85636">
        <ele>268</ele>
        <time>2022-04-16T06:59:29.950Z</time>
      </trkpt>
      <trkpt lat="45.6731" lon="5.85636">
        <ele>268</ele>
        <time>2022-04-16T06:59:30.949Z</time>
      </trkpt>
      <trkpt lat="45.67312" lon="5.85636">
        <ele>268</ele>
        <time>2022-04-16T06:59:31.950Z</time>
      </trkpt>
      <trkpt lat="45.67314" lon="5.85636">
        <ele>268</ele>
        <time>2022-04-16T06:59:32.950Z</time>
      </trkpt>
      <trkpt lat="45.67316" lon="5.85636">
        <ele>269</ele>
        <time>2022-04-16T06:59:33.950Z</time>
      </trkpt>
      <trkpt lat="45.67318" lon="5.85636">
        <ele>269</ele>
        <time>2022-04-16T06:59:34.950Z</time>
      </trkpt>
      <trkpt lat="45.67321" lon="5.85636">
        <ele>269</ele>
        <time>2022-04-16T06:59:35.950Z</time>
      </trkpt>
      <trkpt lat="45.67322" lon="5.85636">
        <ele>269</ele>
        <time>2022-04-16T06:59:36.950Z</time>
      </trkpt>
      <trkpt lat="45.67325" lon="5.85636">
        <ele>269</ele>
        <time>2022-04-16T06:59:37.950Z</time>
      </trkpt>
      <trkpt lat="45.67327" lon="5.85636">
        <ele>268</ele>
        <time>2022-04-16T06:59:38.950Z</time>
      </trkpt>
      <trkpt lat="45.67329" lon="5.85635">
        <ele>268</ele>
        <time>2022-04-16T06:59:39.950Z</time>
      </trkpt>
      <trkpt lat="45.67331" lon="5.85635">
        <ele>268</ele>
        <time>2022-04-16T06:59:40.949Z</time>
      </trkpt>
      <trkpt lat="45.67333" lon="5.85635">
        <ele>268</ele>
        <time>2022-04-16T06:59:41.950Z</time>
      </trkpt>
      <trkpt lat="45.67335" lon="5.85635">
        <ele>268</ele>
        <time>2022-04-16T06:59:42.950Z</time>
      </trkpt>
      <trkpt lat="45.67337" lon="5.85636">
        <ele>268</ele>
        <time>2022-04-16T06:59:43.950Z</time>
      </trkpt>
      <trkpt lat="45.67339" lon="5.85636">
        <ele>268</ele>
        <time>2022-04-16T06:59:44.950Z</time>
      </trkpt>
      <trkpt lat="45.67341" lon="5.85636">
        <ele>268</ele>
        <time>2022-04-16T06:59:45.950Z</time>
      </trkpt>
      <trkpt lat="45.67343" lon="5.85636">
        <ele>268</ele>
        <time>2022-04-16T06:59:46.950Z</time>
      </trkpt>
      <trkpt lat="45.67345" lon="5.85637">
        <ele>268</ele>
        <time>2022-04-16T06:59:47.950Z</time>
      </trkpt>
      <trkpt lat="45.67347" lon="5.85637">
        <ele>269</ele>
        <time>2022-04-16T06:59:48.950Z</time>
      </trkpt>
      <trkpt lat="45.67349" lon="5.85637">
        <ele>269</ele>
        <time>2022-04-16T06:59:49.950Z</time>
      </trkpt>
      <trkpt lat="45.67351" lon="5.85638">
        <ele>270</ele>
        <time>2022-04-16T06:59:50.950Z</time>
      </trkpt>
      <trkpt lat="45.67353" lon="5.85638">
        <ele>270</ele>
        <time>2022-04-16T06:59:51.950Z</time>
      </trkpt>
      <trkpt lat="45.67356" lon="5.85638">
        <ele>270</ele>
        <time>2022-04-16T06:59:52.950Z</time>
      </trkpt>
      <trkpt lat="45.67358" lon="5.85638">
        <ele>270</ele>
        <time>2022-04-16T06:59:53.950Z</time>
      </trkpt>
      <trkpt lat="45.6736" lon="5.85639">
        <ele>270</ele>
        <time>2022-04-16T06:59:54.950Z</time>
      </trkpt>
      <trkpt lat="45.67362" lon="5.8564">
        <ele>270</ele>
        <time>2022-04-16T06:59:55.950Z</time>
      </trkpt>
      <trkpt lat="45.67364" lon="5.85641">
        <ele>271</ele>
        <time>2022-04-16T06:59:56.949Z</time>
      </trkpt>
      <trkpt lat="45.67366" lon="5.85641">
        <ele>271</ele>
        <time>2022-04-16T06:59:57.949Z</time>
      </trkpt>
      <trkpt lat="45.67368" lon="5.85642">
        <ele>272</ele>
        <time>2022-04-16T06:59:58.950Z</time>
      </trkpt>
      <trkpt lat="45.6737" lon="5.85643">
        <ele>273</ele>
        <time>2022-04-16T06:59:59.950Z</time>
      </trkpt>
      <trkpt lat="45.67372" lon="5.85643">
        <ele>273</ele>
        <time>2022-04-16T07:00:00.950Z</time>
      </trkpt>
      <trkpt lat="45.67374" lon="5.85644">
        <ele>274</ele>
        <time>2022-04-16T07:00:01.949Z</time>
      </trkpt>
      <trkpt lat="45.67376" lon="5.85644">
        <ele>275</ele>
        <time>2022-04-16T07:00:02.950Z</time>
      </trkpt>
      <trkpt lat="45.67378" lon="5.85645">
        <ele>276</ele>
        <time>2022-04-16T07:00:03.949Z</time>
      </trkpt>
      <trkpt lat="45.67381" lon="5.85645">
        <ele>277</ele>
        <time>2022-04-16T07:00:04.950Z</time>
      </trkpt>
      <trkpt lat="45.67383" lon="5.85646">
        <ele>277</ele>
        <time>2022-04-16T07:00:05.950Z</time>
      </trkpt>
      <trkpt lat="45.67385" lon="5.85646">
        <ele>277</ele>
        <time>2022-04-16T07:00:06.950Z</time>
      </trkpt>
      <trkpt lat="45.67387" lon="5.85647">
        <ele>277</ele>
        <time>2022-04-16T07:00:07.950Z</time>
      </trkpt>
      <trkpt lat="45.67389" lon="5.85648">
        <ele>277</ele>
        <time>2022-04-16T07:00:08.950Z</time>
      </trkpt>
      <trkpt lat="45.67391" lon="5.85648">
        <ele>278</ele>
        <time>2022-04-16T07:00:09.950Z</time>
      </trkpt>
      <trkpt lat="45.67393" lon="5.85649">
        <ele>278</ele>
        <time>2022-04-16T07:00:10.949Z</time>
      </trkpt>
      <trkpt lat="45.67395" lon="5.85649">
        <ele>278</ele>
        <time>2022-04-16T07:00:11.949Z</time>
      </trkpt>
      <trkpt lat="45.67398" lon="5.85649">
        <ele>278</ele>
        <time>2022-04-16T07:00:12.949Z</time>
      </trkpt>
      <trkpt lat="45.67401" lon="5.85649">
        <ele>278</ele>
        <time>2022-04-16T07:00:13.950Z</time>
      </trkpt>
      <trkpt lat="45.67403" lon="5.85649">
        <ele>278</ele>
        <time>2022-04-16T07:00:14.950Z</time>
      </trkpt>
      <trkpt lat="45.67406" lon="5.85649">
        <ele>278</ele>
        <time>2022-04-16T07:00:15.950Z</time>
      </trkpt>
      <trkpt lat="45.67408" lon="5.8565">
        <ele>278</ele>
        <time>2022-04-16T07:00:16.950Z</time>
      </trkpt>
      <trkpt lat="45.6741" lon="5.85651">
        <ele>278</ele>
        <time>2022-04-16T07:00:17.950Z</time>
      </trkpt>
      <trkpt lat="45.67412" lon="5.85651">
        <ele>278</ele>
        <time>2022-04-16T07:00:18.949Z</time>
      </trkpt>
      <trkpt lat="45.67415" lon="5.85652">
        <ele>277</ele>
        <time>2022-04-16T07:00:19.950Z</time>
      </trkpt>
      <trkpt lat="45.67417" lon="5.85652">
        <ele>277</ele>
        <time>2022-04-16T07:00:20.950Z</time>
      </trkpt>
      <trkpt lat="45.6742" lon="5.85652">
        <ele>276</ele>
        <time>2022-04-16T07:00:21.950Z</time>
      </trkpt>
      <trkpt lat="45.67421" lon="5.85653">
        <ele>276</ele>
        <time>2022-04-16T07:00:22.950Z</time>
      </trkpt>
      <trkpt lat="45.67424" lon="5.85653">
        <ele>276</ele>
        <time>2022-04-16T07:00:23.949Z</time>
      </trkpt>
      <trkpt lat="45.67426" lon="5.85653">
        <ele>276</ele>
        <time>2022-04-16T07:00:24.949Z</time>
      </trkpt>
      <trkpt lat="45.67429" lon="5.85654">
        <ele>275</ele>
        <time>2022-04-16T07:00:25.950Z</time>
      </trkpt>
      <trkpt lat="45.67431" lon="5.85654">
        <ele>275</ele>
        <time>2022-04-16T07:00:26.950Z</time>
      </trkpt>
      <trkpt lat="45.67433" lon="5.85654">
        <ele>275</ele>
        <time>2022-04-16T07:00:27.949Z</time>
      </trkpt>
      <trkpt lat="45.67435" lon="5.85655">
        <ele>274</ele>
        <time>2022-04-16T07:00:28.950Z</time>
      </trkpt>
      <trkpt lat="45.67438" lon="5.85655">
        <ele>273</ele>
        <time>2022-04-16T07:00:29.950Z</time>
      </trkpt>
      <trkpt lat="45.6744" lon="5.85656">
        <ele>273</ele>
        <time>2022-04-16T07:00:30.949Z</time>
      </trkpt>
      <trkpt lat="45.67442" lon="5.85656">
        <ele>272</ele>
        <time>2022-04-16T07:00:31.950Z</time>
      </trkpt>
      <trkpt lat="45.67444" lon="5.85657">
        <ele>272</ele>
        <time>2022-04-16T07:00:32.949Z</time>
      </trkpt>
      <trkpt lat="45.67447" lon="5.85658">
        <ele>271</ele>
        <time>2022-04-16T07:00:33.949Z</time>
      </trkpt>
      <trkpt lat="45.67449" lon="5.85659">
        <ele>270</ele>
        <time>2022-04-16T07:00:34.950Z</time>
      </trkpt>
      <trkpt lat="45.67451" lon="5.85659">
        <ele>270</ele>
        <time>2022-04-16T07:00:35.949Z</time>
      </trkpt>
      <trkpt lat="45.67453" lon="5.8566">
        <ele>269</ele>
        <time>2022-04-16T07:00:36.950Z</time>
      </trkpt>
      <trkpt lat="45.67455" lon="5.85661">
        <ele>268</ele>
        <time>2022-04-16T07:00:37.950Z</time>
      </trkpt>
      <trkpt lat="45.67456" lon="5.85662">
        <ele>268</ele>
        <time>2022-04-16T07:00:38.950Z</time>
      </trkpt>
      <trkpt lat="45.67458" lon="5.85663">
        <ele>267</ele>
        <time>2022-04-16T07:00:39.950Z</time>
      </trkpt>
      <trkpt lat="45.6746" lon="5.85663">
        <ele>267</ele>
        <time>2022-04-16T07:00:40.949Z</time>
      </trkpt>
      <trkpt lat="45.67462" lon="5.85664">
        <ele>267</ele>
        <time>2022-04-16T07:00:41.950Z</time>
      </trkpt>
      <trkpt lat="45.67464" lon="5.85665">
        <ele>268</ele>
        <time>2022-04-16T07:00:42.950Z</time>
      </trkpt>
      <trkpt lat="45.67466" lon="5.85665">
        <ele>268</ele>
        <time>2022-04-16T07:00:43.950Z</time>
      </trkpt>
      <trkpt lat="45.67469" lon="5.85665">
        <ele>268</ele>
        <time>2022-04-16T07:00:44.950Z</time>
      </trkpt>
      <trkpt lat="45.67471" lon="5.85666">
        <ele>269</ele>
        <time>2022-04-16T07:00:45.950Z</time>
      </trkpt>
      <trkpt lat="45.67473" lon="5.85667">
        <ele>269</ele>
        <time>2022-04-16T07:00:46.949Z</time>
      </trkpt>
      <trkpt lat="45.67475" lon="5.85667">
        <ele>270</ele>
        <time>2022-04-16T07:00:47.950Z</time>
      </trkpt>
      <trkpt lat="45.67477" lon="5.85666">
        <ele>270</ele>
        <time>2022-04-16T07:00:48.950Z</time>
      </trkpt>
      <trkpt lat="45.6748" lon="5.85666">
        <ele>270</ele>
        <time>2022-04-16T07:00:49.950Z</time>
      </trkpt>
      <trkpt lat="45.67482" lon="5.85666">
        <ele>270</ele>
        <time>2022-04-16T07:00:50.950Z</time>
      </trkpt>
      <trkpt lat="45.67484" lon="5.85665">
        <ele>270</ele>
        <time>2022-04-16T07:00:51.950Z</time>
      </trkpt>
      <trkpt lat="45.67486" lon="5.85665">
        <ele>271</ele>
        <time>2022-04-16T07:00:52.950Z</time>
      </trkpt>
      <trkpt lat="45.67486" lon="5.85665">
        <ele>271</ele>
        <time>2022-04-16T07:00:53.949Z</time>
      </trkpt>
      <trkpt lat="45.6749" lon="5.85663">
        <ele>272</ele>
        <time>2022-04-16T07:00:54.950Z</time>
      </trkpt>
      <trkpt lat="45.67492" lon="5.85662">
        <ele>272</ele>
        <time>2022-04-16T07:00:55.949Z</time>
      </trkpt>
      <trkpt lat="45.67494" lon="5.8566">
        <ele>273</ele>
        <time>2022-04-16T07:00:56.950Z</time>
      </trkpt>
      <trkpt lat="45.67496" lon="5.85659">
        <ele>274</ele>
        <time>2022-04-16T07:00:57.949Z</time>
      </trkpt>
      <trkpt lat="45.67498" lon="5.85657">
        <ele>274</ele>
        <time>2022-04-16T07:00:58.950Z</time>
      </trkpt>
      <trkpt lat="45.675" lon="5.85656">
        <ele>274</ele>
        <time>2022-04-16T07:00:59.950Z</time>
      </trkpt>
      <trkpt lat="45.67502" lon="5.85654">
        <ele>274</ele>
        <time>2022-04-16T07:01:00.949Z</time>
      </trkpt>
      <trkpt lat="45.67504" lon="5.85652">
        <ele>274</ele>
        <time>2022-04-16T07:01:01.949Z</time>
      </trkpt>
      <trkpt lat="45.67506" lon="5.8565">
        <ele>274</ele>
        <time>2022-04-16T07:01:02.950Z</time>
      </trkpt>
      <trkpt lat="45.67507" lon="5.85649">
        <ele>274</ele>
        <time>2022-04-16T07:01:03.950Z</time>
      </trkpt>
      <trkpt lat="45.67509" lon="5.85648">
        <ele>274</ele>
        <time>2022-04-16T07:01:04.950Z</time>
      </trkpt>
      <trkpt lat="45.67511" lon="5.85646">
        <ele>275</ele>
        <time>2022-04-16T07:01:05.950Z</time>
      </trkpt>
      <trkpt lat="45.67514" lon="5.85645">
        <ele>276</ele>
        <time>2022-04-16T07:01:06.950Z</time>
      </trkpt>
      <trkpt lat="45.67516" lon="5.85643">
        <ele>276</ele>
        <time>2022-04-16T07:01:07.950Z</time>
      </trkpt>
      <trkpt lat="45.67518" lon="5.85642">
        <ele>276</ele>
        <time>2022-04-16T07:01:08.950Z</time>
      </trkpt>
      <trkpt lat="45.6752" lon="5.8564">
        <ele>276</ele>
        <time>2022-04-16T07:01:09.950Z</time>
      </trkpt>
      <trkpt lat="45.67523" lon="5.85639">
        <ele>277</ele>
        <time>2022-04-16T07:01:10.950Z</time>
      </trkpt>
      <trkpt lat="45.67525" lon="5.85638">
        <ele>276</ele>
        <time>2022-04-16T07:01:11.950Z</time>
      </trkpt>
      <trkpt lat="45.67528" lon="5.85636">
        <ele>276</ele>
        <time>2022-04-16T07:01:12.949Z</time>
      </trkpt>
      <trkpt lat="45.67529" lon="5.85635">
        <ele>276</ele>
        <time>2022-04-16T07:01:13.949Z</time>
      </trkpt>
      <trkpt lat="45.67531" lon="5.85634">
        <ele>276</ele>
        <time>2022-04-16T07:01:14.950Z</time>
      </trkpt>
      <trkpt lat="45.67534" lon="5.85634">
        <ele>277</ele>
        <time>2022-04-16T07:01:15.950Z</time>
      </trkpt>
      <trkpt lat="45.67536" lon="5.85633">
        <ele>277</ele>
        <time>2022-04-16T07:01:16.950Z</time>
      </trkpt>
      <trkpt lat="45.67538" lon="5.85632">
        <ele>277</ele>
        <time>2022-04-16T07:01:17.949Z</time>
      </trkpt>
      <trkpt lat="45.6754" lon="5.85632">
        <ele>277</ele>
        <time>2022-04-16T07:01:18.949Z</time>
      </trkpt>
      <trkpt lat="45.67542" lon="5.85631">
        <ele>277</ele>
        <time>2022-04-16T07:01:19.950Z</time>
      </trkpt>
      <trkpt lat="45.67544" lon="5.8563">
        <ele>277</ele>
        <time>2022-04-16T07:01:20.950Z</time>
      </trkpt>
      <trkpt lat="45.67546" lon="5.8563">
        <ele>277</ele>
        <time>2022-04-16T07:01:21.950Z</time>
      </trkpt>
      <trkpt lat="45.67548" lon="5.85629">
        <ele>277</ele>
        <time>2022-04-16T07:01:22.950Z</time>
      </trkpt>
      <trkpt lat="45.6755" lon="5.85628">
        <ele>277</ele>
        <time>2022-04-16T07:01:23.950Z</time>
      </trkpt>
      <trkpt lat="45.67553" lon="5.85628">
        <ele>277</ele>
        <time>2022-04-16T07:01:24.950Z</time>
      </trkpt>
      <trkpt lat="45.67555" lon="5.85627">
        <ele>277</ele>
        <time>2022-04-16T07:01:25.950Z</time>
      </trkpt>
      <trkpt lat="45.67557" lon="5.85626">
        <ele>277</ele>
        <time>2022-04-16T07:01:26.950Z</time>
      </trkpt>
      <trkpt lat="45.67559" lon="5.85626">
        <ele>277</ele>
        <time>2022-04-16T07:01:27.950Z</time>
      </trkpt>
      <trkpt lat="45.67561" lon="5.85625">
        <ele>277</ele>
        <time>2022-04-16T07:01:28.950Z</time>
      </trkpt>
      <trkpt lat="45.67563" lon="5.85625">
        <ele>277</ele>
        <time>2022-04-16T07:01:29.950Z</time>
      </trkpt>
      <trkpt lat="45.67565" lon="5.85624">
        <ele>278</ele>
        <time>2022-04-16T07:01:30.950Z</time>
      </trkpt>
      <trkpt lat="45.67567" lon="5.85624">
        <ele>278</ele>
        <time>2022-04-16T07:01:31.949Z</time>
      </trkpt>
      <trkpt lat="45.67569" lon="5.85623">
        <ele>278</ele>
        <time>2022-04-16T07:01:32.949Z</time>
      </trkpt>
      <trkpt lat="45.67571" lon="5.85622">
        <ele>279</ele>
        <time>2022-04-16T07:01:33.950Z</time>
      </trkpt>
      <trkpt lat="45.67573" lon="5.85622">
        <ele>279</ele>
        <time>2022-04-16T07:01:34.950Z</time>
      </trkpt>
      <trkpt lat="45.67575" lon="5.85621">
        <ele>280</ele>
        <time>2022-04-16T07:01:35.950Z</time>
      </trkpt>
      <trkpt lat="45.67578" lon="5.8562">
        <ele>280</ele>
        <time>2022-04-16T07:01:36.950Z</time>
      </trkpt>
      <trkpt lat="45.6758" lon="5.85619">
        <ele>280</ele>
        <time>2022-04-16T07:01:37.949Z</time>
      </trkpt>
      <trkpt lat="45.67582" lon="5.85619">
        <ele>281</ele>
        <time>2022-04-16T07:01:38.950Z</time>
      </trkpt>
      <trkpt lat="45.67585" lon="5.85618">
        <ele>281</ele>
        <time>2022-04-16T07:01:39.950Z</time>
      </trkpt>
      <trkpt lat="45.67587" lon="5.85618">
        <ele>281</ele>
        <time>2022-04-16T07:01:40.950Z</time>
      </trkpt>
      <trkpt lat="45.67589" lon="5.85617">
        <ele>282</ele>
        <time>2022-04-16T07:01:41.950Z</time>
      </trkpt>
      <trkpt lat="45.67592" lon="5.85617">
        <ele>282</ele>
        <time>2022-04-16T07:01:42.949Z</time>
      </trkpt>
      <trkpt lat="45.67594" lon="5.85617">
        <ele>282</ele>
        <time>2022-04-16T07:01:43.949Z</time>
      </trkpt>
      <trkpt lat="45.67596" lon="5.85616">
        <ele>282</ele>
        <time>2022-04-16T07:01:44.950Z</time>
      </trkpt>
      <trkpt lat="45.67598" lon="5.85616">
        <ele>282</ele>
        <time>2022-04-16T07:01:45.949Z</time>
      </trkpt>
      <trkpt lat="45.676" lon="5.85615">
        <ele>282</ele>
        <time>2022-04-16T07:01:46.950Z</time>
      </trkpt>
      <trkpt lat="45.67602" lon="5.85615">
        <ele>282</ele>
        <time>2022-04-16T07:01:47.950Z</time>
      </trkpt>
      <trkpt lat="45.67605" lon="5.85615">
        <ele>281</ele>
        <time>2022-04-16T07:01:48.950Z</time>
      </trkpt>
      <trkpt lat="45.67607" lon="5.85615">
        <ele>281</ele>
        <time>2022-04-16T07:01:49.949Z</time>
      </trkpt>
      <trkpt lat="45.67609" lon="5.85615">
        <ele>281</ele>
        <time>2022-04-16T07:01:50.950Z</time>
      </trkpt>
      <trkpt lat="45.67612" lon="5.85615">
        <ele>281</ele>
        <time>2022-04-16T07:01:51.949Z</time>
      </trkpt>
      <trkpt lat="45.67614" lon="5.85615">
        <ele>281</ele>
        <time>2022-04-16T07:01:52.949Z</time>
      </trkpt>
      <trkpt lat="45.67616" lon="5.85615">
        <ele>281</ele>
        <time>2022-04-16T07:01:53.950Z</time>
      </trkpt>
      <trkpt lat="45.67619" lon="5.85615">
        <ele>282</ele>
        <time>2022-04-16T07:01:54.950Z</time>
      </trkpt>
      <trkpt lat="45.67621" lon="5.85616">
        <ele>282</ele>
        <time>2022-04-16T07:01:55.950Z</time>
      </trkpt>
      <trkpt lat="45.67624" lon="5.85616">
        <ele>282</ele>
        <time>2022-04-16T07:01:56.950Z</time>
      </trkpt>
      <trkpt lat="45.67626" lon="5.85617">
        <ele>282</ele>
        <time>2022-04-16T07:01:57.949Z</time>
      </trkpt>
      <trkpt lat="45.67629" lon="5.85618">
        <ele>282</ele>
        <time>2022-04-16T07:01:58.949Z</time>
      </trkpt>
      <trkpt lat="45.67631" lon="5.85619">
        <ele>282</ele>
        <time>2022-04-16T07:01:59.950Z</time>
      </trkpt>
      <trkpt lat="45.67633" lon="5.85621">
        <ele>281</ele>
        <time>2022-04-16T07:02:00.950Z</time>
      </trkpt>
      <trkpt lat="45.67635" lon="5.85623">
        <ele>281</ele>
        <time>2022-04-16T07:02:01.950Z</time>
      </trkpt>
      <trkpt lat="45.67638" lon="5.85625">
        <ele>281</ele>
        <time>2022-04-16T07:02:02.950Z</time>
      </trkpt>
      <trkpt lat="45.6764" lon="5.85626">
        <ele>281</ele>
        <time>2022-04-16T07:02:03.950Z</time>
      </trkpt>
      <trkpt lat="45.67642" lon="5.85628">
        <ele>282</ele>
        <time>2022-04-16T07:02:04.949Z</time>
      </trkpt>
      <trkpt lat="45.67644" lon="5.8563">
        <ele>282</ele>
        <time>2022-04-16T07:02:05.950Z</time>
      </trkpt>
      <trkpt lat="45.67646" lon="5.85632">
        <ele>282</ele>
        <time>2022-04-16T07:02:06.950Z</time>
      </trkpt>
      <trkpt lat="45.67648" lon="5.85634">
        <ele>282</ele>
        <time>2022-04-16T07:02:07.949Z</time>
      </trkpt>
      <trkpt lat="45.6765" lon="5.85636">
        <ele>281</ele>
        <time>2022-04-16T07:02:08.950Z</time>
      </trkpt>
      <trkpt lat="45.67652" lon="5.85638">
        <ele>281</ele>
        <time>2022-04-16T07:02:09.949Z</time>
      </trkpt>
      <trkpt lat="45.67654" lon="5.8564">
        <ele>281</ele>
        <time>2022-04-16T07:02:10.950Z</time>
      </trkpt>
      <trkpt lat="45.67657" lon="5.85641">
        <ele>281</ele>
        <time>2022-04-16T07:02:11.950Z</time>
      </trkpt>
      <trkpt lat="45.67659" lon="5.85642">
        <ele>281</ele>
        <time>2022-04-16T07:02:12.950Z</time>
      </trkpt>
      <trkpt lat="45.67662" lon="5.85643">
        <ele>281</ele>
        <time>2022-04-16T07:02:13.950Z</time>
      </trkpt>
      <trkpt lat="45.67665" lon="5.85644">
        <ele>280</ele>
        <time>2022-04-16T07:02:14.950Z</time>
      </trkpt>
      <trkpt lat="45.67667" lon="5.85645">
        <ele>280</ele>
        <time>2022-04-16T07:02:15.949Z</time>
      </trkpt>
      <trkpt lat="45.6767" lon="5.85646">
        <ele>280</ele>
        <time>2022-04-16T07:02:16.950Z</time>
      </trkpt>
      <trkpt lat="45.67673" lon="5.85646">
        <ele>280</ele>
        <time>2022-04-16T07:02:17.950Z</time>
      </trkpt>
      <trkpt lat="45.67677" lon="5.85646">
        <ele>280</ele>
        <time>2022-04-16T07:02:18.949Z</time>
      </trkpt>
      <trkpt lat="45.6768" lon="5.85645">
        <ele>280</ele>
        <time>2022-04-16T07:02:19.950Z</time>
      </trkpt>
      <trkpt lat="45.67683" lon="5.85645">
        <ele>280</ele>
        <time>2022-04-16T07:02:20.950Z</time>
      </trkpt>
      <trkpt lat="45.67687" lon="5.85645">
        <ele>280</ele>
        <time>2022-04-16T07:02:21.950Z</time>
      </trkpt>
      <trkpt lat="45.6769" lon="5.85645">
        <ele>280</ele>
        <time>2022-04-16T07:02:22.949Z</time>
      </trkpt>
      <trkpt lat="45.67694" lon="5.85644">
        <ele>280</ele>
        <time>2022-04-16T07:02:23.950Z</time>
      </trkpt>
      <trkpt lat="45.67697" lon="5.85644">
        <ele>280</ele>
        <time>2022-04-16T07:02:24.949Z</time>
      </trkpt>
      <trkpt lat="45.67701" lon="5.85644">
        <ele>281</ele>
        <time>2022-04-16T07:02:25.949Z</time>
      </trkpt>
      <trkpt lat="45.67704" lon="5.85643">
        <ele>281</ele>
        <time>2022-04-16T07:02:26.950Z</time>
      </trkpt>
      <trkpt lat="45.67708" lon="5.85643">
        <ele>281</ele>
        <time>2022-04-16T07:02:27.950Z</time>
      </trkpt>
      <trkpt lat="45.67712" lon="5.85642">
        <ele>282</ele>
        <time>2022-04-16T07:02:28.949Z</time>
      </trkpt>
      <trkpt lat="45.67715" lon="5.85642">
        <ele>282</ele>
        <time>2022-04-16T07:02:29.950Z</time>
      </trkpt>
      <trkpt lat="45.67719" lon="5.85641">
        <ele>282</ele>
        <time>2022-04-16T07:02:30.950Z</time>
      </trkpt>
      <trkpt lat="45.67723" lon="5.85641">
        <ele>282</ele>
        <time>2022-04-16T07:02:31.950Z</time>
      </trkpt>
      <trkpt lat="45.67727" lon="5.85641">
        <ele>282</ele>
        <time>2022-04-16T07:02:32.949Z</time>
      </trkpt>
      <trkpt lat="45.6773" lon="5.85641">
        <ele>283</ele>
        <time>2022-04-16T07:02:33.950Z</time>
      </trkpt>
      <trkpt lat="45.67735" lon="5.8564">
        <ele>283</ele>
        <time>2022-04-16T07:02:34.950Z</time>
      </trkpt>
      <trkpt lat="45.67739" lon="5.85639">
        <ele>283</ele>
        <time>2022-04-16T07:02:35.949Z</time>
      </trkpt>
      <trkpt lat="45.67743" lon="5.85638">
        <ele>283</ele>
        <time>2022-04-16T07:02:36.950Z</time>
      </trkpt>
      <trkpt lat="45.67748" lon="5.85638">
        <ele>283</ele>
        <time>2022-04-16T07:02:37.950Z</time>
      </trkpt>
      <trkpt lat="45.67752" lon="5.85637">
        <ele>283</ele>
        <time>2022-04-16T07:02:38.950Z</time>
      </trkpt>
      <trkpt lat="45.67757" lon="5.85637">
        <ele>282</ele>
        <time>2022-04-16T07:02:39.950Z</time>
      </trkpt>
      <trkpt lat="45.67761" lon="5.85637">
        <ele>282</ele>
        <time>2022-04-16T07:02:40.950Z</time>
      </trkpt>
      <trkpt lat="45.67765" lon="5.85638">
        <ele>281</ele>
        <time>2022-04-16T07:02:41.950Z</time>
      </trkpt>
      <trkpt lat="45.6777" lon="5.85638">
        <ele>281</ele>
        <time>2022-04-16T07:02:42.949Z</time>
      </trkpt>
      <trkpt lat="45.67774" lon="5.85639">
        <ele>281</ele>
        <time>2022-04-16T07:02:43.950Z</time>
      </trkpt>
      <trkpt lat="45.67778" lon="5.8564">
        <ele>281</ele>
        <time>2022-04-16T07:02:44.950Z</time>
      </trkpt>
      <trkpt lat="45.67783" lon="5.85641">
        <ele>281</ele>
        <time>2022-04-16T07:02:45.950Z</time>
      </trkpt>
      <trkpt lat="45.67787" lon="5.85642">
        <ele>281</ele>
        <time>2022-04-16T07:02:46.950Z</time>
      </trkpt>
      <trkpt lat="45.67791" lon="5.85643">
        <ele>281</ele>
        <time>2022-04-16T07:02:47.949Z</time>
      </trkpt>
      <trkpt lat="45.67795" lon="5.85644">
        <ele>281</ele>
        <time>2022-04-16T07:02:48.949Z</time>
      </trkpt>
      <trkpt lat="45.67799" lon="5.85645">
        <ele>281</ele>
        <time>2022-04-16T07:02:49.949Z</time>
      </trkpt>
      <trkpt lat="45.67803" lon="5.85646">
        <ele>281</ele>
        <time>2022-04-16T07:02:50.949Z</time>
      </trkpt>
      <trkpt lat="45.67806" lon="5.85647">
        <ele>280</ele>
        <time>2022-04-16T07:02:51.950Z</time>
      </trkpt>
      <trkpt lat="45.6781" lon="5.85648">
        <ele>280</ele>
        <time>2022-04-16T07:02:52.950Z</time>
      </trkpt>
      <trkpt lat="45.67814" lon="5.85649">
        <ele>280</ele>
        <time>2022-04-16T07:02:53.949Z</time>
      </trkpt>
      <trkpt lat="45.67818" lon="5.8565">
        <ele>280</ele>
        <time>2022-04-16T07:02:54.950Z</time>
      </trkpt>
      <trkpt lat="45.67821" lon="5.85651">
        <ele>280</ele>
        <time>2022-04-16T07:02:55.950Z</time>
      </trkpt>
      <trkpt lat="45.67824" lon="5.85653">
        <ele>281</ele>
        <time>2022-04-16T07:02:56.950Z</time>
      </trkpt>
      <trkpt lat="45.67828" lon="5.85653">
        <ele>281</ele>
        <time>2022-04-16T07:02:57.949Z</time>
      </trkpt>
      <trkpt lat="45.67831" lon="5.85654">
        <ele>282</ele>
        <time>2022-04-16T07:02:58.949Z</time>
      </trkpt>
      <trkpt lat="45.67835" lon="5.85656">
        <ele>282</ele>
        <time>2022-04-16T07:02:59.949Z</time>
      </trkpt>
      <trkpt lat="45.67838" lon="5.85657">
        <ele>282</ele>
        <time>2022-04-16T07:03:00.950Z</time>
      </trkpt>
      <trkpt lat="45.67842" lon="5.85658">
        <ele>282</ele>
        <time>2022-04-16T07:03:01.950Z</time>
      </trkpt>
      <trkpt lat="45.67845" lon="5.85659">
        <ele>283</ele>
        <time>2022-04-16T07:03:02.950Z</time>
      </trkpt>
      <trkpt lat="45.67849" lon="5.8566">
        <ele>283</ele>
        <time>2022-04-16T07:03:03.950Z</time>
      </trkpt>
      <trkpt lat="45.67852" lon="5.85661">
        <ele>283</ele>
        <time>2022-04-16T07:03:04.950Z</time>
      </trkpt>
      <trkpt lat="45.67856" lon="5.85662">
        <ele>283</ele>
        <time>2022-04-16T07:03:05.950Z</time>
      </trkpt>
      <trkpt lat="45.67859" lon="5.85663">
        <ele>283</ele>
        <time>2022-04-16T07:03:06.950Z</time>
      </trkpt>
      <trkpt lat="45.67863" lon="5.85664">
        <ele>283</ele>
        <time>2022-04-16T07:03:07.950Z</time>
      </trkpt>
      <trkpt lat="45.67867" lon="5.85665">
        <ele>283</ele>
        <time>2022-04-16T07:03:08.949Z</time>
      </trkpt>
      <trkpt lat="45.6787" lon="5.85666">
        <ele>283</ele>
        <time>2022-04-16T07:03:09.949Z</time>
      </trkpt>
      <trkpt lat="45.67874" lon="5.85666">
        <ele>283</ele>
        <time>2022-04-16T07:03:10.950Z</time>
      </trkpt>
      <trkpt lat="45.67877" lon="5.85667">
        <ele>284</ele>
        <time>2022-04-16T07:03:11.950Z</time>
      </trkpt>
      <trkpt lat="45.67881" lon="5.85667">
        <ele>284</ele>
        <time>2022-04-16T07:03:12.950Z</time>
      </trkpt>
      <trkpt lat="45.67884" lon="5.85667">
        <ele>284</ele>
        <time>2022-04-16T07:03:13.950Z</time>
      </trkpt>
      <trkpt lat="45.67888" lon="5.85667">
        <ele>284</ele>
        <time>2022-04-16T07:03:14.949Z</time>
      </trkpt>
      <trkpt lat="45.67892" lon="5.85667">
        <ele>284</ele>
        <time>2022-04-16T07:03:15.950Z</time>
      </trkpt>
      <trkpt lat="45.67895" lon="5.85668">
        <ele>284</ele>
        <time>2022-04-16T07:03:16.950Z</time>
      </trkpt>
      <trkpt lat="45.67899" lon="5.85668">
        <ele>284</ele>
        <time>2022-04-16T07:03:17.950Z</time>
      </trkpt>
      <trkpt lat="45.67902" lon="5.85669">
        <ele>284</ele>
        <time>2022-04-16T07:03:18.950Z</time>
      </trkpt>
      <trkpt lat="45.67906" lon="5.85669">
        <ele>284</ele>
        <time>2022-04-16T07:03:19.950Z</time>
      </trkpt>
      <trkpt lat="45.6791" lon="5.85668">
        <ele>284</ele>
        <time>2022-04-16T07:03:20.950Z</time>
      </trkpt>
      <trkpt lat="45.67913" lon="5.85668">
        <ele>284</ele>
        <time>2022-04-16T07:03:21.950Z</time>
      </trkpt>
      <trkpt lat="45.67917" lon="5.85668">
        <ele>284</ele>
        <time>2022-04-16T07:03:22.950Z</time>
      </trkpt>
      <trkpt lat="45.6792" lon="5.85668">
        <ele>284</ele>
        <time>2022-04-16T07:03:23.949Z</time>
      </trkpt>
      <trkpt lat="45.67923" lon="5.85668">
        <ele>284</ele>
        <time>2022-04-16T07:03:24.949Z</time>
      </trkpt>
      <trkpt lat="45.67927" lon="5.85668">
        <ele>284</ele>
        <time>2022-04-16T07:03:25.949Z</time>
      </trkpt>
      <trkpt lat="45.6793" lon="5.85668">
        <ele>284</ele>
        <time>2022-04-16T07:03:26.950Z</time>
      </trkpt>
      <trkpt lat="45.67934" lon="5.85669">
        <ele>284</ele>
        <time>2022-04-16T07:03:27.950Z</time>
      </trkpt>
      <trkpt lat="45.67937" lon="5.85669">
        <ele>284</ele>
        <time>2022-04-16T07:03:28.950Z</time>
      </trkpt>
      <trkpt lat="45.67941" lon="5.85669">
        <ele>284</ele>
        <time>2022-04-16T07:03:29.950Z</time>
      </trkpt>
      <trkpt lat="45.67944" lon="5.8567">
        <ele>284</ele>
        <time>2022-04-16T07:03:30.950Z</time>
      </trkpt>
      <trkpt lat="45.67948" lon="5.8567">
        <ele>284</ele>
        <time>2022-04-16T07:03:31.950Z</time>
      </trkpt>
      <trkpt lat="45.67951" lon="5.8567">
        <ele>284</ele>
        <time>2022-04-16T07:03:32.950Z</time>
      </trkpt>
      <trkpt lat="45.67955" lon="5.8567">
        <ele>284</ele>
        <time>2022-04-16T07:03:33.950Z</time>
      </trkpt>
      <trkpt lat="45.67958" lon="5.85671">
        <ele>284</ele>
        <time>2022-04-16T07:03:34.949Z</time>
      </trkpt>
      <trkpt lat="45.67961" lon="5.85671">
        <ele>284</ele>
        <time>2022-04-16T07:03:35.949Z</time>
      </trkpt>
      <trkpt lat="45.67965" lon="5.85672">
        <ele>284</ele>
        <time>2022-04-16T07:03:36.949Z</time>
      </trkpt>
      <trkpt lat="45.67969" lon="5.85672">
        <ele>284</ele>
        <time>2022-04-16T07:03:37.950Z</time>
      </trkpt>
      <trkpt lat="45.67972" lon="5.85673">
        <ele>284</ele>
        <time>2022-04-16T07:03:38.950Z</time>
      </trkpt>
      <trkpt lat="45.67976" lon="5.85674">
        <ele>285</ele>
        <time>2022-04-16T07:03:39.949Z</time>
      </trkpt>
      <trkpt lat="45.67979" lon="5.85675">
        <ele>285</ele>
        <time>2022-04-16T07:03:40.949Z</time>
      </trkpt>
      <trkpt lat="45.67982" lon="5.85676">
        <ele>286</ele>
        <time>2022-04-16T07:03:41.950Z</time>
      </trkpt>
      <trkpt lat="45.67985" lon="5.85677">
        <ele>287</ele>
        <time>2022-04-16T07:03:42.949Z</time>
      </trkpt>
      <trkpt lat="45.67989" lon="5.85678">
        <ele>287</ele>
        <time>2022-04-16T07:03:43.949Z</time>
      </trkpt>
      <trkpt lat="45.67992" lon="5.8568">
        <ele>287</ele>
        <time>2022-04-16T07:03:44.950Z</time>
      </trkpt>
      <trkpt lat="45.67995" lon="5.85681">
        <ele>288</ele>
        <time>2022-04-16T07:03:45.950Z</time>
      </trkpt>
      <trkpt lat="45.67999" lon="5.85682">
        <ele>288</ele>
        <time>2022-04-16T07:03:46.950Z</time>
      </trkpt>
      <trkpt lat="45.68002" lon="5.85683">
        <ele>288</ele>
        <time>2022-04-16T07:03:47.949Z</time>
      </trkpt>
      <trkpt lat="45.68005" lon="5.85684">
        <ele>287</ele>
        <time>2022-04-16T07:03:48.950Z</time>
      </trkpt>
      <trkpt lat="45.68008" lon="5.85686">
        <ele>287</ele>
        <time>2022-04-16T07:03:49.949Z</time>
      </trkpt>
      <trkpt lat="45.68012" lon="5.85687">
        <ele>286</ele>
        <time>2022-04-16T07:03:50.950Z</time>
      </trkpt>
      <trkpt lat="45.68015" lon="5.85688">
        <ele>286</ele>
        <time>2022-04-16T07:03:51.950Z</time>
      </trkpt>
      <trkpt lat="45.68018" lon="5.85689">
        <ele>286</ele>
        <time>2022-04-16T07:03:52.950Z</time>
      </trkpt>
      <trkpt lat="45.68022" lon="5.8569">
        <ele>286</ele>
        <time>2022-04-16T07:03:53.950Z</time>
      </trkpt>
      <trkpt lat="45.68025" lon="5.85691">
        <ele>286</ele>
        <time>2022-04-16T07:03:54.949Z</time>
      </trkpt>
      <trkpt lat="45.68028" lon="5.85692">
        <ele>286</ele>
        <time>2022-04-16T07:03:55.950Z</time>
      </trkpt>
      <trkpt lat="45.68031" lon="5.85693">
        <ele>286</ele>
        <time>2022-04-16T07:03:56.949Z</time>
      </trkpt>
      <trkpt lat="45.68034" lon="5.85693">
        <ele>286</ele>
        <time>2022-04-16T07:03:57.950Z</time>
      </trkpt>
      <trkpt lat="45.68037" lon="5.85694">
        <ele>286</ele>
        <time>2022-04-16T07:03:58.949Z</time>
      </trkpt>
      <trkpt lat="45.6804" lon="5.85694">
        <ele>286</ele>
        <time>2022-04-16T07:03:59.950Z</time>
      </trkpt>
      <trkpt lat="45.68043" lon="5.85694">
        <ele>286</ele>
        <time>2022-04-16T07:04:00.950Z</time>
      </trkpt>
      <trkpt lat="45.68046" lon="5.85695">
        <ele>286</ele>
        <time>2022-04-16T07:04:01.950Z</time>
      </trkpt>
      <trkpt lat="45.68049" lon="5.85696">
        <ele>286</ele>
        <time>2022-04-16T07:04:02.950Z</time>
      </trkpt>
      <trkpt lat="45.68053" lon="5.85696">
        <ele>286</ele>
        <time>2022-04-16T07:04:03.949Z</time>
      </trkpt>
      <trkpt lat="45.68055" lon="5.85696">
        <ele>286</ele>
        <time>2022-04-16T07:04:04.949Z</time>
      </trkpt>
      <trkpt lat="45.68059" lon="5.85696">
        <ele>286</ele>
        <time>2022-04-16T07:04:05.950Z</time>
      </trkpt>
      <trkpt lat="45.68061" lon="5.85696">
        <ele>287</ele>
        <time>2022-04-16T07:04:06.950Z</time>
      </trkpt>
      <trkpt lat="45.68064" lon="5.85696">
        <ele>287</ele>
        <time>2022-04-16T07:04:07.949Z</time>
      </trkpt>
      <trkpt lat="45.68067" lon="5.85697">
        <ele>287</ele>
        <time>2022-04-16T07:04:08.949Z</time>
      </trkpt>
      <trkpt lat="45.6807" lon="5.85697">
        <ele>287</ele>
        <time>2022-04-16T07:04:09.950Z</time>
      </trkpt>
      <trkpt lat="45.68073" lon="5.85697">
        <ele>287</ele>
        <time>2022-04-16T07:04:10.950Z</time>
      </trkpt>
      <trkpt lat="45.68073" lon="5.85697">
        <ele>287</ele>
        <time>2022-04-16T07:04:11.949Z</time>
      </trkpt>
      <trkpt lat="45.68079" lon="5.85697">
        <ele>288</ele>
        <time>2022-04-16T07:04:12.950Z</time>
      </trkpt>
      <trkpt lat="45.68082" lon="5.85696">
        <ele>288</ele>
        <time>2022-04-16T07:04:13.949Z</time>
      </trkpt>
      <trkpt lat="45.68086" lon="5.85695">
        <ele>289</ele>
        <time>2022-04-16T07:04:14.950Z</time>
      </trkpt>
      <trkpt lat="45.68089" lon="5.85694">
        <ele>289</ele>
        <time>2022-04-16T07:04:15.950Z</time>
      </trkpt>
      <trkpt lat="45.68092" lon="5.85693">
        <ele>290</ele>
        <time>2022-04-16T07:04:16.949Z</time>
      </trkpt>
      <trkpt lat="45.68095" lon="5.85691">
        <ele>290</ele>
        <time>2022-04-16T07:04:17.949Z</time>
      </trkpt>
      <trkpt lat="45.68098" lon="5.85688">
        <ele>290</ele>
        <time>2022-04-16T07:04:18.949Z</time>
      </trkpt>
      <trkpt lat="45.68101" lon="5.85685">
        <ele>291</ele>
        <time>2022-04-16T07:04:19.949Z</time>
      </trkpt>
      <trkpt lat="45.68104" lon="5.85682">
        <ele>291</ele>
        <time>2022-04-16T07:04:20.949Z</time>
      </trkpt>
      <trkpt lat="45.68106" lon="5.85678">
        <ele>291</ele>
        <time>2022-04-16T07:04:21.949Z</time>
      </trkpt>
      <trkpt lat="45.68109" lon="5.85675">
        <ele>290</ele>
        <time>2022-04-16T07:04:22.949Z</time>
      </trkpt>
      <trkpt lat="45.68111" lon="5.85671">
        <ele>291</ele>
        <time>2022-04-16T07:04:23.950Z</time>
      </trkpt>
      <trkpt lat="45.68113" lon="5.85667">
        <ele>291</ele>
        <time>2022-04-16T07:04:24.949Z</time>
      </trkpt>
      <trkpt lat="45.68115" lon="5.85663">
        <ele>291</ele>
        <time>2022-04-16T07:04:25.949Z</time>
      </trkpt>
      <trkpt lat="45.68118" lon="5.85659">
        <ele>291</ele>
        <time>2022-04-16T07:04:26.950Z</time>
      </trkpt>
      <trkpt lat="45.6812" lon="5.85656">
        <ele>291</ele>
        <time>2022-04-16T07:04:27.949Z</time>
      </trkpt>
      <trkpt lat="45.68121" lon="5.85652">
        <ele>290</ele>
        <time>2022-04-16T07:04:28.949Z</time>
      </trkpt>
      <trkpt lat="45.68123" lon="5.85649">
        <ele>290</ele>
        <time>2022-04-16T07:04:29.949Z</time>
      </trkpt>
      <trkpt lat="45.68125" lon="5.85645">
        <ele>290</ele>
        <time>2022-04-16T07:04:30.950Z</time>
      </trkpt>
      <trkpt lat="45.68127" lon="5.85641">
        <ele>290</ele>
        <time>2022-04-16T07:04:31.950Z</time>
      </trkpt>
      <trkpt lat="45.68128" lon="5.85638">
        <ele>289</ele>
        <time>2022-04-16T07:04:32.950Z</time>
      </trkpt>
      <trkpt lat="45.68131" lon="5.85635">
        <ele>289</ele>
        <time>2022-04-16T07:04:33.949Z</time>
      </trkpt>
      <trkpt lat="45.68133" lon="5.85632">
        <ele>289</ele>
        <time>2022-04-16T07:04:34.950Z</time>
      </trkpt>
      <trkpt lat="45.68134" lon="5.8563">
        <ele>289</ele>
        <time>2022-04-16T07:04:35.950Z</time>
      </trkpt>
      <trkpt lat="45.68136" lon="5.85628">
        <ele>289</ele>
        <time>2022-04-16T07:04:36.950Z</time>
      </trkpt>
      <trkpt lat="45.68138" lon="5.85625">
        <ele>289</ele>
        <time>2022-04-16T07:04:37.950Z</time>
      </trkpt>
      <trkpt lat="45.68139" lon="5.85623">
        <ele>290</ele>
        <time>2022-04-16T07:04:38.950Z</time>
      </trkpt>
      <trkpt lat="45.68141" lon="5.85621">
        <ele>291</ele>
        <time>2022-04-16T07:04:39.949Z</time>
      </trkpt>
      <trkpt lat="45.68143" lon="5.85619">
        <ele>292</ele>
        <time>2022-04-16T07:04:40.949Z</time>
      </trkpt>
      <trkpt lat="45.68145" lon="5.85617">
        <ele>292</ele>
        <time>2022-04-16T07:04:41.949Z</time>
      </trkpt>
      <trkpt lat="45.68147" lon="5.85616">
        <ele>293</ele>
        <time>2022-04-16T07:04:42.950Z</time>
      </trkpt>
      <trkpt lat="45.6815" lon="5.85615">
        <ele>293</ele>
        <time>2022-04-16T07:04:43.950Z</time>
      </trkpt>
      <trkpt lat="45.68152" lon="5.85613">
        <ele>293</ele>
        <time>2022-04-16T07:04:44.949Z</time>
      </trkpt>
      <trkpt lat="45.68154" lon="5.85611">
        <ele>293</ele>
        <time>2022-04-16T07:04:45.949Z</time>
      </trkpt>
      <trkpt lat="45.68156" lon="5.8561">
        <ele>293</ele>
        <time>2022-04-16T07:04:46.950Z</time>
      </trkpt>
      <trkpt lat="45.68159" lon="5.85609">
        <ele>293</ele>
        <time>2022-04-16T07:04:47.950Z</time>
      </trkpt>
      <trkpt lat="45.68161" lon="5.85607">
        <ele>294</ele>
        <time>2022-04-16T07:04:48.949Z</time>
      </trkpt>
      <trkpt lat="45.68163" lon="5.85606">
        <ele>294</ele>
        <time>2022-04-16T07:04:49.950Z</time>
      </trkpt>
      <trkpt lat="45.68166" lon="5.85605">
        <ele>294</ele>
        <time>2022-04-16T07:04:50.949Z</time>
      </trkpt>
      <trkpt lat="45.68168" lon="5.85604">
        <ele>295</ele>
        <time>2022-04-16T07:04:51.949Z</time>
      </trkpt>
      <trkpt lat="45.6817" lon="5.85603">
        <ele>295</ele>
        <time>2022-04-16T07:04:52.950Z</time>
      </trkpt>
      <trkpt lat="45.68173" lon="5.85601">
        <ele>296</ele>
        <time>2022-04-16T07:04:53.949Z</time>
      </trkpt>
      <trkpt lat="45.68175" lon="5.856">
        <ele>296</ele>
        <time>2022-04-16T07:04:54.950Z</time>
      </trkpt>
      <trkpt lat="45.68177" lon="5.85598">
        <ele>297</ele>
        <time>2022-04-16T07:04:55.950Z</time>
      </trkpt>
      <trkpt lat="45.68179" lon="5.85597">
        <ele>297</ele>
        <time>2022-04-16T07:04:56.950Z</time>
      </trkpt>
      <trkpt lat="45.68181" lon="5.85596">
        <ele>297</ele>
        <time>2022-04-16T07:04:57.950Z</time>
      </trkpt>
      <trkpt lat="45.68184" lon="5.85595">
        <ele>297</ele>
        <time>2022-04-16T07:04:58.949Z</time>
      </trkpt>
      <trkpt lat="45.68186" lon="5.85594">
        <ele>297</ele>
        <time>2022-04-16T07:04:59.949Z</time>
      </trkpt>
      <trkpt lat="45.68188" lon="5.85592">
        <ele>298</ele>
        <time>2022-04-16T07:05:00.949Z</time>
      </trkpt>
      <trkpt lat="45.6819" lon="5.85591">
        <ele>298</ele>
        <time>2022-04-16T07:05:01.949Z</time>
      </trkpt>
      <trkpt lat="45.68192" lon="5.8559">
        <ele>298</ele>
        <time>2022-04-16T07:05:02.949Z</time>
      </trkpt>
      <trkpt lat="45.68195" lon="5.85589">
        <ele>298</ele>
        <time>2022-04-16T07:05:03.949Z</time>
      </trkpt>
      <trkpt lat="45.68197" lon="5.85587">
        <ele>298</ele>
        <time>2022-04-16T07:05:04.949Z</time>
      </trkpt>
      <trkpt lat="45.68199" lon="5.85586">
        <ele>298</ele>
        <time>2022-04-16T07:05:05.949Z</time>
      </trkpt>
      <trkpt lat="45.68201" lon="5.85585">
        <ele>298</ele>
        <time>2022-04-16T07:05:06.950Z</time>
      </trkpt>
      <trkpt lat="45.68203" lon="5.85583">
        <ele>299</ele>
        <time>2022-04-16T07:05:07.950Z</time>
      </trkpt>
      <trkpt lat="45.68205" lon="5.85581">
        <ele>299</ele>
        <time>2022-04-16T07:05:08.950Z</time>
      </trkpt>
      <trkpt lat="45.68207" lon="5.85579">
        <ele>300</ele>
        <time>2022-04-16T07:05:09.950Z</time>
      </trkpt>
      <trkpt lat="45.68208" lon="5.85577">
        <ele>300</ele>
        <time>2022-04-16T07:05:10.950Z</time>
      </trkpt>
      <trkpt lat="45.68209" lon="5.85575">
        <ele>300</ele>
        <time>2022-04-16T07:05:11.949Z</time>
      </trkpt>
      <trkpt lat="45.68209" lon="5.85572">
        <ele>299</ele>
        <time>2022-04-16T07:05:12.950Z</time>
      </trkpt>
      <trkpt lat="45.68208" lon="5.8557">
        <ele>299</ele>
        <time>2022-04-16T07:05:13.950Z</time>
      </trkpt>
      <trkpt lat="45.68206" lon="5.85569">
        <ele>299</ele>
        <time>2022-04-16T07:05:14.950Z</time>
      </trkpt>
      <trkpt lat="45.68204" lon="5.85567">
        <ele>300</ele>
        <time>2022-04-16T07:05:15.950Z</time>
      </trkpt>
      <trkpt lat="45.68202" lon="5.85566">
        <ele>300</ele>
        <time>2022-04-16T07:05:16.949Z</time>
      </trkpt>
      <trkpt lat="45.682" lon="5.85565">
        <ele>301</ele>
        <time>2022-04-16T07:05:17.949Z</time>
      </trkpt>
      <trkpt lat="45.68197" lon="5.85564">
        <ele>301</ele>
        <time>2022-04-16T07:05:18.949Z</time>
      </trkpt>
      <trkpt lat="45.68195" lon="5.85564">
        <ele>301</ele>
        <time>2022-04-16T07:05:19.949Z</time>
      </trkpt>
      <trkpt lat="45.68192" lon="5.85563">
        <ele>301</ele>
        <time>2022-04-16T07:05:20.950Z</time>
      </trkpt>
      <trkpt lat="45.6819" lon="5.85563">
        <ele>301</ele>
        <time>2022-04-16T07:05:21.949Z</time>
      </trkpt>
      <trkpt lat="45.68187" lon="5.85562">
        <ele>301</ele>
        <time>2022-04-16T07:05:22.949Z</time>
      </trkpt>
      <trkpt lat="45.68185" lon="5.85562">
        <ele>301</ele>
        <time>2022-04-16T07:05:23.949Z</time>
      </trkpt>
      <trkpt lat="45.68182" lon="5.85561">
        <ele>301</ele>
        <time>2022-04-16T07:05:24.949Z</time>
      </trkpt>
      <trkpt lat="45.6818" lon="5.8556">
        <ele>300</ele>
        <time>2022-04-16T07:05:25.949Z</time>
      </trkpt>
      <trkpt lat="45.68177" lon="5.85559">
        <ele>300</ele>
        <time>2022-04-16T07:05:26.949Z</time>
      </trkpt>
      <trkpt lat="45.68176" lon="5.85557">
        <ele>299</ele>
        <time>2022-04-16T07:05:27.950Z</time>
      </trkpt>
      <trkpt lat="45.68173" lon="5.85556">
        <ele>299</ele>
        <time>2022-04-16T07:05:28.949Z</time>
      </trkpt>
      <trkpt lat="45.68171" lon="5.85555">
        <ele>298</ele>
        <time>2022-04-16T07:05:29.949Z</time>
      </trkpt>
      <trkpt lat="45.68169" lon="5.85554">
        <ele>298</ele>
        <time>2022-04-16T07:05:30.950Z</time>
      </trkpt>
      <trkpt lat="45.68167" lon="5.85554">
        <ele>298</ele>
        <time>2022-04-16T07:05:31.949Z</time>
      </trkpt>
      <trkpt lat="45.68165" lon="5.85553">
        <ele>297</ele>
        <time>2022-04-16T07:05:32.949Z</time>
      </trkpt>
      <trkpt lat="45.68163" lon="5.85551">
        <ele>297</ele>
        <time>2022-04-16T07:05:33.949Z</time>
      </trkpt>
      <trkpt lat="45.6816" lon="5.8555">
        <ele>296</ele>
        <time>2022-04-16T07:05:34.949Z</time>
      </trkpt>
      <trkpt lat="45.68158" lon="5.85548">
        <ele>295</ele>
        <time>2022-04-16T07:05:35.950Z</time>
      </trkpt>
      <trkpt lat="45.68156" lon="5.85547">
        <ele>294</ele>
        <time>2022-04-16T07:05:36.949Z</time>
      </trkpt>
      <trkpt lat="45.68153" lon="5.85546">
        <ele>293</ele>
        <time>2022-04-16T07:05:37.949Z</time>
      </trkpt>
      <trkpt lat="45.68151" lon="5.85544">
        <ele>292</ele>
        <time>2022-04-16T07:05:38.949Z</time>
      </trkpt>
      <trkpt lat="45.68149" lon="5.85544">
        <ele>292</ele>
        <time>2022-04-16T07:05:39.949Z</time>
      </trkpt>
      <trkpt lat="45.68147" lon="5.85542">
        <ele>292</ele>
        <time>2022-04-16T07:05:40.949Z</time>
      </trkpt>
      <trkpt lat="45.68144" lon="5.85541">
        <ele>292</ele>
        <time>2022-04-16T07:05:41.949Z</time>
      </trkpt>
      <trkpt lat="45.68142" lon="5.8554">
        <ele>292</ele>
        <time>2022-04-16T07:05:42.949Z</time>
      </trkpt>
      <trkpt lat="45.6814" lon="5.85539">
        <ele>292</ele>
        <time>2022-04-16T07:05:43.950Z</time>
      </trkpt>
      <trkpt lat="45.68137" lon="5.85539">
        <ele>293</ele>
        <time>2022-04-16T07:05:44.949Z</time>
      </trkpt>
      <trkpt lat="45.68134" lon="5.85539">
        <ele>294</ele>
        <time>2022-04-16T07:05:45.949Z</time>
      </trkpt>
      <trkpt lat="45.68131" lon="5.85539">
        <ele>294</ele>
        <time>2022-04-16T07:05:46.949Z</time>
      </trkpt>
      <trkpt lat="45.68128" lon="5.8554">
        <ele>295</ele>
        <time>2022-04-16T07:05:47.949Z</time>
      </trkpt>
      <trkpt lat="45.68125" lon="5.85539">
        <ele>295</ele>
        <time>2022-04-16T07:05:48.949Z</time>
      </trkpt>
      <trkpt lat="45.68122" lon="5.85539">
        <ele>296</ele>
        <time>2022-04-16T07:05:49.949Z</time>
      </trkpt>
      <trkpt lat="45.68119" lon="5.85538">
        <ele>296</ele>
        <time>2022-04-16T07:05:50.950Z</time>
      </trkpt>
      <trkpt lat="45.68117" lon="5.85537">
        <ele>296</ele>
        <time>2022-04-16T07:05:51.949Z</time>
      </trkpt>
      <trkpt lat="45.68114" lon="5.85537">
        <ele>296</ele>
        <time>2022-04-16T07:05:52.949Z</time>
      </trkpt>
      <trkpt lat="45.68111" lon="5.85537">
        <ele>297</ele>
        <time>2022-04-16T07:05:53.949Z</time>
      </trkpt>
      <trkpt lat="45.68108" lon="5.85537">
        <ele>298</ele>
        <time>2022-04-16T07:05:54.949Z</time>
      </trkpt>
      <trkpt lat="45.68105" lon="5.85537">
        <ele>298</ele>
        <time>2022-04-16T07:05:55.950Z</time>
      </trkpt>
      <trkpt lat="45.68101" lon="5.85537">
        <ele>298</ele>
        <time>2022-04-16T07:05:56.950Z</time>
      </trkpt>
      <trkpt lat="45.68098" lon="5.85536">
        <ele>298</ele>
        <time>2022-04-16T07:05:57.950Z</time>
      </trkpt>
      <trkpt lat="45.68095" lon="5.85536">
        <ele>299</ele>
        <time>2022-04-16T07:05:58.949Z</time>
      </trkpt>
      <trkpt lat="45.68091" lon="5.85536">
        <ele>299</ele>
        <time>2022-04-16T07:05:59.950Z</time>
      </trkpt>
      <trkpt lat="45.68088" lon="5.85536">
        <ele>300</ele>
        <time>2022-04-16T07:06:00.949Z</time>
      </trkpt>
      <trkpt lat="45.68084" lon="5.85536">
        <ele>301</ele>
        <time>2022-04-16T07:06:01.949Z</time>
      </trkpt>
      <trkpt lat="45.68081" lon="5.85536">
        <ele>301</ele>
        <time>2022-04-16T07:06:02.949Z</time>
      </trkpt>
      <trkpt lat="45.68078" lon="5.85535">
        <ele>302</ele>
        <time>2022-04-16T07:06:03.949Z</time>
      </trkpt>
      <trkpt lat="45.68074" lon="5.85535">
        <ele>302</ele>
        <time>2022-04-16T07:06:04.949Z</time>
      </trkpt>
      <trkpt lat="45.68071" lon="5.85534">
        <ele>301</ele>
        <time>2022-04-16T07:06:05.949Z</time>
      </trkpt>
      <trkpt lat="45.68068" lon="5.85533">
        <ele>301</ele>
        <time>2022-04-16T07:06:06.950Z</time>
      </trkpt>
      <trkpt lat="45.68065" lon="5.85531">
        <ele>300</ele>
        <time>2022-04-16T07:06:07.949Z</time>
      </trkpt>
      <trkpt lat="45.68062" lon="5.8553">
        <ele>300</ele>
        <time>2022-04-16T07:06:08.950Z</time>
      </trkpt>
      <trkpt lat="45.68058" lon="5.85529">
        <ele>300</ele>
        <time>2022-04-16T07:06:09.950Z</time>
      </trkpt>
      <trkpt lat="45.68055" lon="5.85528">
        <ele>300</ele>
        <time>2022-04-16T07:06:10.950Z</time>
      </trkpt>
      <trkpt lat="45.68052" lon="5.85527">
        <ele>300</ele>
        <time>2022-04-16T07:06:11.949Z</time>
      </trkpt>
      <trkpt lat="45.68048" lon="5.85526">
        <ele>301</ele>
        <time>2022-04-16T07:06:12.949Z</time>
      </trkpt>
      <trkpt lat="45.68045" lon="5.85525">
        <ele>301</ele>
        <time>2022-04-16T07:06:13.949Z</time>
      </trkpt>
      <trkpt lat="45.68042" lon="5.85523">
        <ele>301</ele>
        <time>2022-04-16T07:06:14.950Z</time>
      </trkpt>
      <trkpt lat="45.68039" lon="5.85521">
        <ele>301</ele>
        <time>2022-04-16T07:06:15.949Z</time>
      </trkpt>
      <trkpt lat="45.68036" lon="5.8552">
        <ele>301</ele>
        <time>2022-04-16T07:06:16.949Z</time>
      </trkpt>
      <trkpt lat="45.68033" lon="5.85519">
        <ele>301</ele>
        <time>2022-04-16T07:06:17.950Z</time>
      </trkpt>
      <trkpt lat="45.68029" lon="5.85517">
        <ele>301</ele>
        <time>2022-04-16T07:06:18.950Z</time>
      </trkpt>
      <trkpt lat="45.68026" lon="5.85516">
        <ele>301</ele>
        <time>2022-04-16T07:06:19.950Z</time>
      </trkpt>
      <trkpt lat="45.68023" lon="5.85515">
        <ele>302</ele>
        <time>2022-04-16T07:06:20.949Z</time>
      </trkpt>
      <trkpt lat="45.6802" lon="5.85514">
        <ele>302</ele>
        <time>2022-04-16T07:06:21.950Z</time>
      </trkpt>
      <trkpt lat="45.68016" lon="5.85513">
        <ele>302</ele>
        <time>2022-04-16T07:06:22.950Z</time>
      </trkpt>
      <trkpt lat="45.68013" lon="5.85512">
        <ele>302</ele>
        <time>2022-04-16T07:06:23.950Z</time>
      </trkpt>
      <trkpt lat="45.6801" lon="5.8551">
        <ele>303</ele>
        <time>2022-04-16T07:06:24.950Z</time>
      </trkpt>
      <trkpt lat="45.68006" lon="5.85509">
        <ele>303</ele>
        <time>2022-04-16T07:06:25.949Z</time>
      </trkpt>
      <trkpt lat="45.68003" lon="5.85508">
        <ele>303</ele>
        <time>2022-04-16T07:06:26.950Z</time>
      </trkpt>
      <trkpt lat="45.68" lon="5.85507">
        <ele>303</ele>
        <time>2022-04-16T07:06:27.950Z</time>
      </trkpt>
      <trkpt lat="45.67997" lon="5.85506">
        <ele>304</ele>
        <time>2022-04-16T07:06:28.950Z</time>
      </trkpt>
      <trkpt lat="45.67994" lon="5.85504">
        <ele>304</ele>
        <time>2022-04-16T07:06:29.950Z</time>
      </trkpt>
      <trkpt lat="45.67991" lon="5.85503">
        <ele>304</ele>
        <time>2022-04-16T07:06:30.950Z</time>
      </trkpt>
      <trkpt lat="45.67987" lon="5.85502">
        <ele>305</ele>
        <time>2022-04-16T07:06:31.950Z</time>
      </trkpt>
      <trkpt lat="45.67984" lon="5.85501">
        <ele>305</ele>
        <time>2022-04-16T07:06:32.949Z</time>
      </trkpt>
      <trkpt lat="45.67981" lon="5.855">
        <ele>305</ele>
        <time>2022-04-16T07:06:33.950Z</time>
      </trkpt>
      <trkpt lat="45.67978" lon="5.85499">
        <ele>305</ele>
        <time>2022-04-16T07:06:34.949Z</time>
      </trkpt>
      <trkpt lat="45.67975" lon="5.85498">
        <ele>305</ele>
        <time>2022-04-16T07:06:35.949Z</time>
      </trkpt>
      <trkpt lat="45.67972" lon="5.85497">
        <ele>305</ele>
        <time>2022-04-16T07:06:36.949Z</time>
      </trkpt>
      <trkpt lat="45.67969" lon="5.85496">
        <ele>306</ele>
        <time>2022-04-16T07:06:37.950Z</time>
      </trkpt>
      <trkpt lat="45.67966" lon="5.85495">
        <ele>306</ele>
        <time>2022-04-16T07:06:38.950Z</time>
      </trkpt>
      <trkpt lat="45.67964" lon="5.85493">
        <ele>306</ele>
        <time>2022-04-16T07:06:39.950Z</time>
      </trkpt>
      <trkpt lat="45.67962" lon="5.85492">
        <ele>306</ele>
        <time>2022-04-16T07:06:40.950Z</time>
      </trkpt>
      <trkpt lat="45.67959" lon="5.85491">
        <ele>306</ele>
        <time>2022-04-16T07:06:41.950Z</time>
      </trkpt>
      <trkpt lat="45.67957" lon="5.8549">
        <ele>306</ele>
        <time>2022-04-16T07:06:42.949Z</time>
      </trkpt>
      <trkpt lat="45.67954" lon="5.85489">
        <ele>305</ele>
        <time>2022-04-16T07:06:43.950Z</time>
      </trkpt>
      <trkpt lat="45.67951" lon="5.85487">
        <ele>304</ele>
        <time>2022-04-16T07:06:44.950Z</time>
      </trkpt>
      <trkpt lat="45.67949" lon="5.85486">
        <ele>304</ele>
        <time>2022-04-16T07:06:45.949Z</time>
      </trkpt>
      <trkpt lat="45.67946" lon="5.85485">
        <ele>304</ele>
        <time>2022-04-16T07:06:46.950Z</time>
      </trkpt>
      <trkpt lat="45.67943" lon="5.85484">
        <ele>304</ele>
        <time>2022-04-16T07:06:47.949Z</time>
      </trkpt>
      <trkpt lat="45.6794" lon="5.85482">
        <ele>304</ele>
        <time>2022-04-16T07:06:48.950Z</time>
      </trkpt>
      <trkpt lat="45.67938" lon="5.85481">
        <ele>303</ele>
        <time>2022-04-16T07:06:49.949Z</time>
      </trkpt>
      <trkpt lat="45.67935" lon="5.8548">
        <ele>303</ele>
        <time>2022-04-16T07:06:50.949Z</time>
      </trkpt>
      <trkpt lat="45.67932" lon="5.85478">
        <ele>303</ele>
        <time>2022-04-16T07:06:51.949Z</time>
      </trkpt>
      <trkpt lat="45.6793" lon="5.85477">
        <ele>302</ele>
        <time>2022-04-16T07:06:52.950Z</time>
      </trkpt>
      <trkpt lat="45.67927" lon="5.85475">
        <ele>302</ele>
        <time>2022-04-16T07:06:53.950Z</time>
      </trkpt>
      <trkpt lat="45.67925" lon="5.85473">
        <ele>302</ele>
        <time>2022-04-16T07:06:54.949Z</time>
      </trkpt>
      <trkpt lat="45.67922" lon="5.85472">
        <ele>302</ele>
        <time>2022-04-16T07:06:55.950Z</time>
      </trkpt>
      <trkpt lat="45.6792" lon="5.8547">
        <ele>301</ele>
        <time>2022-04-16T07:06:56.949Z</time>
      </trkpt>
      <trkpt lat="45.67917" lon="5.85469">
        <ele>302</ele>
        <time>2022-04-16T07:06:57.949Z</time>
      </trkpt>
      <trkpt lat="45.67915" lon="5.85468">
        <ele>302</ele>
        <time>2022-04-16T07:06:58.949Z</time>
      </trkpt>
      <trkpt lat="45.67913" lon="5.85467">
        <ele>302</ele>
        <time>2022-04-16T07:06:59.949Z</time>
      </trkpt>
      <trkpt lat="45.67911" lon="5.85467">
        <ele>302</ele>
        <time>2022-04-16T07:07:00.949Z</time>
      </trkpt>
      <trkpt lat="45.67908" lon="5.85465">
        <ele>303</ele>
        <time>2022-04-16T07:07:01.950Z</time>
      </trkpt>
      <trkpt lat="45.67906" lon="5.85464">
        <ele>303</ele>
        <time>2022-04-16T07:07:02.950Z</time>
      </trkpt>
      <trkpt lat="45.67903" lon="5.85462">
        <ele>303</ele>
        <time>2022-04-16T07:07:03.950Z</time>
      </trkpt>
      <trkpt lat="45.67901" lon="5.8546">
        <ele>303</ele>
        <time>2022-04-16T07:07:04.949Z</time>
      </trkpt>
      <trkpt lat="45.67899" lon="5.85458">
        <ele>303</ele>
        <time>2022-04-16T07:07:05.949Z</time>
      </trkpt>
      <trkpt lat="45.67898" lon="5.85455">
        <ele>303</ele>
        <time>2022-04-16T07:07:06.949Z</time>
      </trkpt>
      <trkpt lat="45.67896" lon="5.85452">
        <ele>304</ele>
        <time>2022-04-16T07:07:07.949Z</time>
      </trkpt>
      <trkpt lat="45.67895" lon="5.85449">
        <ele>304</ele>
        <time>2022-04-16T07:07:08.949Z</time>
      </trkpt>
      <trkpt lat="45.67894" lon="5.85445">
        <ele>304</ele>
        <time>2022-04-16T07:07:09.949Z</time>
      </trkpt>
      <trkpt lat="45.67894" lon="5.85442">
        <ele>305</ele>
        <time>2022-04-16T07:07:10.949Z</time>
      </trkpt>
      <trkpt lat="45.67894" lon="5.85438">
        <ele>305</ele>
        <time>2022-04-16T07:07:11.949Z</time>
      </trkpt>
      <trkpt lat="45.67894" lon="5.85435">
        <ele>305</ele>
        <time>2022-04-16T07:07:12.950Z</time>
      </trkpt>
      <trkpt lat="45.67895" lon="5.85431">
        <ele>306</ele>
        <time>2022-04-16T07:07:13.949Z</time>
      </trkpt>
      <trkpt lat="45.67895" lon="5.85428">
        <ele>306</ele>
        <time>2022-04-16T07:07:14.949Z</time>
      </trkpt>
      <trkpt lat="45.67896" lon="5.85425">
        <ele>307</ele>
        <time>2022-04-16T07:07:15.950Z</time>
      </trkpt>
      <trkpt lat="45.67896" lon="5.85422">
        <ele>308</ele>
        <time>2022-04-16T07:07:16.949Z</time>
      </trkpt>
      <trkpt lat="45.67897" lon="5.85419">
        <ele>309</ele>
        <time>2022-04-16T07:07:17.949Z</time>
      </trkpt>
      <trkpt lat="45.67897" lon="5.85416">
        <ele>309</ele>
        <time>2022-04-16T07:07:18.950Z</time>
      </trkpt>
      <trkpt lat="45.67897" lon="5.85416">
        <ele>309</ele>
        <time>2022-04-16T07:07:19.949Z</time>
      </trkpt>
      <trkpt lat="45.67898" lon="5.8541">
        <ele>310</ele>
        <time>2022-04-16T07:07:20.949Z</time>
      </trkpt>
      <trkpt lat="45.67898" lon="5.85408">
        <ele>310</ele>
        <time>2022-04-16T07:07:21.949Z</time>
      </trkpt>
      <trkpt lat="45.67899" lon="5.85405">
        <ele>310</ele>
        <time>2022-04-16T07:07:22.949Z</time>
      </trkpt>
      <trkpt lat="45.67899" lon="5.85402">
        <ele>310</ele>
        <time>2022-04-16T07:07:23.949Z</time>
      </trkpt>
      <trkpt lat="45.67899" lon="5.854">
        <ele>311</ele>
        <time>2022-04-16T07:07:24.949Z</time>
      </trkpt>
      <trkpt lat="45.679" lon="5.85397">
        <ele>311</ele>
        <time>2022-04-16T07:07:25.949Z</time>
      </trkpt>
      <trkpt lat="45.679" lon="5.85394">
        <ele>311</ele>
        <time>2022-04-16T07:07:26.949Z</time>
      </trkpt>
      <trkpt lat="45.679" lon="5.85392">
        <ele>311</ele>
        <time>2022-04-16T07:07:27.950Z</time>
      </trkpt>
      <trkpt lat="45.679" lon="5.85389">
        <ele>312</ele>
        <time>2022-04-16T07:07:28.949Z</time>
      </trkpt>
      <trkpt lat="45.679" lon="5.85387">
        <ele>312</ele>
        <time>2022-04-16T07:07:29.950Z</time>
      </trkpt>
      <trkpt lat="45.679" lon="5.85384">
        <ele>313</ele>
        <time>2022-04-16T07:07:30.949Z</time>
      </trkpt>
      <trkpt lat="45.67899" lon="5.85382">
        <ele>313</ele>
        <time>2022-04-16T07:07:31.949Z</time>
      </trkpt>
      <trkpt lat="45.67899" lon="5.85379">
        <ele>313</ele>
        <time>2022-04-16T07:07:32.949Z</time>
      </trkpt>
      <trkpt lat="45.67898" lon="5.85377">
        <ele>313</ele>
        <time>2022-04-16T07:07:33.949Z</time>
      </trkpt>
      <trkpt lat="45.67897" lon="5.85376">
        <ele>313</ele>
        <time>2022-04-16T07:07:34.950Z</time>
      </trkpt>
      <trkpt lat="45.67895" lon="5.85374">
        <ele>314</ele>
        <time>2022-04-16T07:07:35.950Z</time>
      </trkpt>
      <trkpt lat="45.67893" lon="5.85373">
        <ele>314</ele>
        <time>2022-04-16T07:07:36.950Z</time>
      </trkpt>
      <trkpt lat="45.67892" lon="5.85372">
        <ele>314</ele>
        <time>2022-04-16T07:07:37.949Z</time>
      </trkpt>
      <trkpt lat="45.6789" lon="5.85371">
        <ele>314</ele>
        <time>2022-04-16T07:07:38.950Z</time>
      </trkpt>
      <trkpt lat="45.67888" lon="5.8537">
        <ele>314</ele>
        <time>2022-04-16T07:07:39.949Z</time>
      </trkpt>
      <trkpt lat="45.67886" lon="5.8537">
        <ele>314</ele>
        <time>2022-04-16T07:07:40.949Z</time>
      </trkpt>
      <trkpt lat="45.67884" lon="5.85369">
        <ele>314</ele>
        <time>2022-04-16T07:07:41.949Z</time>
      </trkpt>
      <trkpt lat="45.67882" lon="5.85368">
        <ele>314</ele>
        <time>2022-04-16T07:07:42.949Z</time>
      </trkpt>
      <trkpt lat="45.6788" lon="5.85368">
        <ele>314</ele>
        <time>2022-04-16T07:07:43.950Z</time>
      </trkpt>
      <trkpt lat="45.67878" lon="5.85367">
        <ele>314</ele>
        <time>2022-04-16T07:07:44.950Z</time>
      </trkpt>
      <trkpt lat="45.67877" lon="5.85366">
        <ele>313</ele>
        <time>2022-04-16T07:07:45.949Z</time>
      </trkpt>
      <trkpt lat="45.67875" lon="5.85365">
        <ele>313</ele>
        <time>2022-04-16T07:07:46.949Z</time>
      </trkpt>
      <trkpt lat="45.67873" lon="5.85363">
        <ele>313</ele>
        <time>2022-04-16T07:07:47.949Z</time>
      </trkpt>
      <trkpt lat="45.67871" lon="5.85362">
        <ele>313</ele>
        <time>2022-04-16T07:07:48.949Z</time>
      </trkpt>
      <trkpt lat="45.67869" lon="5.85361">
        <ele>313</ele>
        <time>2022-04-16T07:07:49.950Z</time>
      </trkpt>
      <trkpt lat="45.67867" lon="5.8536">
        <ele>314</ele>
        <time>2022-04-16T07:07:50.949Z</time>
      </trkpt>
      <trkpt lat="45.67865" lon="5.85359">
        <ele>314</ele>
        <time>2022-04-16T07:07:51.949Z</time>
      </trkpt>
      <trkpt lat="45.67863" lon="5.85358">
        <ele>315</ele>
        <time>2022-04-16T07:07:52.949Z</time>
      </trkpt>
      <trkpt lat="45.67861" lon="5.85357">
        <ele>316</ele>
        <time>2022-04-16T07:07:53.949Z</time>
      </trkpt>
      <trkpt lat="45.67859" lon="5.85355">
        <ele>316</ele>
        <time>2022-04-16T07:07:54.949Z</time>
      </trkpt>
      <trkpt lat="45.67858" lon="5.85353">
        <ele>317</ele>
        <time>2022-04-16T07:07:55.950Z</time>
      </trkpt>
      <trkpt lat="45.67856" lon="5.85351">
        <ele>317</ele>
        <time>2022-04-16T07:07:56.949Z</time>
      </trkpt>
      <trkpt lat="45.67855" lon="5.85349">
        <ele>318</ele>
        <time>2022-04-16T07:07:57.949Z</time>
      </trkpt>
      <trkpt lat="45.67853" lon="5.85347">
        <ele>318</ele>
        <time>2022-04-16T07:07:58.950Z</time>
      </trkpt>
      <trkpt lat="45.67852" lon="5.85344">
        <ele>319</ele>
        <time>2022-04-16T07:07:59.949Z</time>
      </trkpt>
      <trkpt lat="45.67851" lon="5.85342">
        <ele>319</ele>
        <time>2022-04-16T07:08:00.949Z</time>
      </trkpt>
      <trkpt lat="45.67849" lon="5.85339">
        <ele>319</ele>
        <time>2022-04-16T07:08:01.949Z</time>
      </trkpt>
      <trkpt lat="45.67848" lon="5.85337">
        <ele>319</ele>
        <time>2022-04-16T07:08:02.949Z</time>
      </trkpt>
      <trkpt lat="45.67847" lon="5.85334">
        <ele>319</ele>
        <time>2022-04-16T07:08:03.949Z</time>
      </trkpt>
      <trkpt lat="45.67846" lon="5.85332">
        <ele>319</ele>
        <time>2022-04-16T07:08:04.949Z</time>
      </trkpt>
      <trkpt lat="45.67844" lon="5.85329">
        <ele>319</ele>
        <time>2022-04-16T07:08:05.949Z</time>
      </trkpt>
      <trkpt lat="45.67842" lon="5.85326">
        <ele>319</ele>
        <time>2022-04-16T07:08:06.949Z</time>
      </trkpt>
      <trkpt lat="45.67841" lon="5.85324">
        <ele>319</ele>
        <time>2022-04-16T07:08:07.949Z</time>
      </trkpt>
      <trkpt lat="45.67839" lon="5.85321">
        <ele>320</ele>
        <time>2022-04-16T07:08:08.950Z</time>
      </trkpt>
      <trkpt lat="45.67838" lon="5.85319">
        <ele>320</ele>
        <time>2022-04-16T07:08:09.949Z</time>
      </trkpt>
      <trkpt lat="45.67836" lon="5.85316">
        <ele>321</ele>
        <time>2022-04-16T07:08:10.950Z</time>
      </trkpt>
      <trkpt lat="45.67834" lon="5.85314">
        <ele>323</ele>
        <time>2022-04-16T07:08:11.949Z</time>
      </trkpt>
      <trkpt lat="45.67833" lon="5.85311">
        <ele>324</ele>
        <time>2022-04-16T07:08:12.949Z</time>
      </trkpt>
      <trkpt lat="45.67832" lon="5.85309">
        <ele>324</ele>
        <time>2022-04-16T07:08:13.950Z</time>
      </trkpt>
      <trkpt lat="45.6783" lon="5.85306">
        <ele>324</ele>
        <time>2022-04-16T07:08:14.949Z</time>
      </trkpt>
      <trkpt lat="45.67829" lon="5.85303">
        <ele>324</ele>
        <time>2022-04-16T07:08:15.949Z</time>
      </trkpt>
      <trkpt lat="45.67828" lon="5.85301">
        <ele>324</ele>
        <time>2022-04-16T07:08:16.949Z</time>
      </trkpt>
      <trkpt lat="45.67827" lon="5.85298">
        <ele>324</ele>
        <time>2022-04-16T07:08:17.950Z</time>
      </trkpt>
      <trkpt lat="45.67826" lon="5.85296">
        <ele>324</ele>
        <time>2022-04-16T07:08:18.950Z</time>
      </trkpt>
      <trkpt lat="45.67825" lon="5.85293">
        <ele>324</ele>
        <time>2022-04-16T07:08:19.949Z</time>
      </trkpt>
      <trkpt lat="45.67824" lon="5.85291">
        <ele>325</ele>
        <time>2022-04-16T07:08:20.950Z</time>
      </trkpt>
      <trkpt lat="45.67823" lon="5.85288">
        <ele>325</ele>
        <time>2022-04-16T07:08:21.949Z</time>
      </trkpt>
      <trkpt lat="45.67822" lon="5.85285">
        <ele>325</ele>
        <time>2022-04-16T07:08:22.949Z</time>
      </trkpt>
      <trkpt lat="45.67822" lon="5.85282">
        <ele>325</ele>
        <time>2022-04-16T07:08:23.949Z</time>
      </trkpt>
      <trkpt lat="45.67821" lon="5.85279">
        <ele>324</ele>
        <time>2022-04-16T07:08:24.949Z</time>
      </trkpt>
      <trkpt lat="45.6782" lon="5.85276">
        <ele>324</ele>
        <time>2022-04-16T07:08:25.949Z</time>
      </trkpt>
      <trkpt lat="45.6782" lon="5.85273">
        <ele>324</ele>
        <time>2022-04-16T07:08:26.949Z</time>
      </trkpt>
      <trkpt lat="45.67819" lon="5.8527">
        <ele>324</ele>
        <time>2022-04-16T07:08:27.949Z</time>
      </trkpt>
      <trkpt lat="45.67818" lon="5.85267">
        <ele>323</ele>
        <time>2022-04-16T07:08:28.949Z</time>
      </trkpt>
      <trkpt lat="45.67817" lon="5.85264">
        <ele>324</ele>
        <time>2022-04-16T07:08:29.949Z</time>
      </trkpt>
      <trkpt lat="45.67817" lon="5.85261">
        <ele>324</ele>
        <time>2022-04-16T07:08:30.949Z</time>
      </trkpt>
      <trkpt lat="45.67816" lon="5.85258">
        <ele>324</ele>
        <time>2022-04-16T07:08:31.949Z</time>
      </trkpt>
      <trkpt lat="45.67815" lon="5.85256">
        <ele>325</ele>
        <time>2022-04-16T07:08:32.950Z</time>
      </trkpt>
      <trkpt lat="45.67814" lon="5.85253">
        <ele>325</ele>
        <time>2022-04-16T07:08:33.949Z</time>
      </trkpt>
      <trkpt lat="45.67813" lon="5.8525">
        <ele>326</ele>
        <time>2022-04-16T07:08:34.949Z</time>
      </trkpt>
      <trkpt lat="45.67813" lon="5.85248">
        <ele>326</ele>
        <time>2022-04-16T07:08:35.949Z</time>
      </trkpt>
      <trkpt lat="45.67812" lon="5.85244">
        <ele>327</ele>
        <time>2022-04-16T07:08:36.950Z</time>
      </trkpt>
      <trkpt lat="45.67812" lon="5.85241">
        <ele>326</ele>
        <time>2022-04-16T07:08:37.949Z</time>
      </trkpt>
      <trkpt lat="45.67811" lon="5.85238">
        <ele>327</ele>
        <time>2022-04-16T07:08:38.949Z</time>
      </trkpt>
      <trkpt lat="45.6781" lon="5.85235">
        <ele>328</ele>
        <time>2022-04-16T07:08:39.949Z</time>
      </trkpt>
      <trkpt lat="45.67809" lon="5.85232">
        <ele>329</ele>
        <time>2022-04-16T07:08:40.949Z</time>
      </trkpt>
      <trkpt lat="45.67808" lon="5.85229">
        <ele>329</ele>
        <time>2022-04-16T07:08:41.949Z</time>
      </trkpt>
      <trkpt lat="45.67807" lon="5.85226">
        <ele>330</ele>
        <time>2022-04-16T07:08:42.949Z</time>
      </trkpt>
      <trkpt lat="45.67806" lon="5.85223">
        <ele>330</ele>
        <time>2022-04-16T07:08:43.949Z</time>
      </trkpt>
      <trkpt lat="45.67806" lon="5.8522">
        <ele>330</ele>
        <time>2022-04-16T07:08:44.949Z</time>
      </trkpt>
      <trkpt lat="45.67805" lon="5.85217">
        <ele>330</ele>
        <time>2022-04-16T07:08:45.949Z</time>
      </trkpt>
      <trkpt lat="45.67804" lon="5.85215">
        <ele>330</ele>
        <time>2022-04-16T07:08:46.949Z</time>
      </trkpt>
      <trkpt lat="45.67803" lon="5.85212">
        <ele>330</ele>
        <time>2022-04-16T07:08:47.949Z</time>
      </trkpt>
      <trkpt lat="45.67802" lon="5.85209">
        <ele>330</ele>
        <time>2022-04-16T07:08:48.949Z</time>
      </trkpt>
      <trkpt lat="45.67801" lon="5.85207">
        <ele>331</ele>
        <time>2022-04-16T07:08:49.949Z</time>
      </trkpt>
      <trkpt lat="45.678" lon="5.85204">
        <ele>331</ele>
        <time>2022-04-16T07:08:50.949Z</time>
      </trkpt>
      <trkpt lat="45.67799" lon="5.85202">
        <ele>331</ele>
        <time>2022-04-16T07:08:51.949Z</time>
      </trkpt>
      <trkpt lat="45.67797" lon="5.85199">
        <ele>331</ele>
        <time>2022-04-16T07:08:52.950Z</time>
      </trkpt>
      <trkpt lat="45.67796" lon="5.85197">
        <ele>332</ele>
        <time>2022-04-16T07:08:53.949Z</time>
      </trkpt>
      <trkpt lat="45.67795" lon="5.85195">
        <ele>332</ele>
        <time>2022-04-16T07:08:54.950Z</time>
      </trkpt>
      <trkpt lat="45.67793" lon="5.85193">
        <ele>332</ele>
        <time>2022-04-16T07:08:55.950Z</time>
      </trkpt>
      <trkpt lat="45.67792" lon="5.8519">
        <ele>332</ele>
        <time>2022-04-16T07:08:56.949Z</time>
      </trkpt>
      <trkpt lat="45.67791" lon="5.85188">
        <ele>332</ele>
        <time>2022-04-16T07:08:57.949Z</time>
      </trkpt>
      <trkpt lat="45.67789" lon="5.85186">
        <ele>332</ele>
        <time>2022-04-16T07:08:58.950Z</time>
      </trkpt>
      <trkpt lat="45.67788" lon="5.85183">
        <ele>332</ele>
        <time>2022-04-16T07:08:59.949Z</time>
      </trkpt>
      <trkpt lat="45.67786" lon="5.85181">
        <ele>332</ele>
        <time>2022-04-16T07:09:00.950Z</time>
      </trkpt>
      <trkpt lat="45.67785" lon="5.85179">
        <ele>331</ele>
        <time>2022-04-16T07:09:01.950Z</time>
      </trkpt>
      <trkpt lat="45.67784" lon="5.85177">
        <ele>331</ele>
        <time>2022-04-16T07:09:02.949Z</time>
      </trkpt>
      <trkpt lat="45.67783" lon="5.85174">
        <ele>331</ele>
        <time>2022-04-16T07:09:03.949Z</time>
      </trkpt>
      <trkpt lat="45.67782" lon="5.85171">
        <ele>331</ele>
        <time>2022-04-16T07:09:04.950Z</time>
      </trkpt>
      <trkpt lat="45.67781" lon="5.85169">
        <ele>331</ele>
        <time>2022-04-16T07:09:05.949Z</time>
      </trkpt>
      <trkpt lat="45.67781" lon="5.85166">
        <ele>332</ele>
        <time>2022-04-16T07:09:06.949Z</time>
      </trkpt>
      <trkpt lat="45.67781" lon="5.85163">
        <ele>332</ele>
        <time>2022-04-16T07:09:07.949Z</time>
      </trkpt>
      <trkpt lat="45.67781" lon="5.8516">
        <ele>333</ele>
        <time>2022-04-16T07:09:08.949Z</time>
      </trkpt>
      <trkpt lat="45.67781" lon="5.85158">
        <ele>334</ele>
        <time>2022-04-16T07:09:09.949Z</time>
      </trkpt>
      <trkpt lat="45.67782" lon="5.85155">
        <ele>334</ele>
        <time>2022-04-16T07:09:10.949Z</time>
      </trkpt>
      <trkpt lat="45.67783" lon="5.85153">
        <ele>335</ele>
        <time>2022-04-16T07:09:11.949Z</time>
      </trkpt>
      <trkpt lat="45.67784" lon="5.85151">
        <ele>335</ele>
        <time>2022-04-16T07:09:12.949Z</time>
      </trkpt>
      <trkpt lat="45.67785" lon="5.85149">
        <ele>335</ele>
        <time>2022-04-16T07:09:13.949Z</time>
      </trkpt>
      <trkpt lat="45.67787" lon="5.85147">
        <ele>335</ele>
        <time>2022-04-16T07:09:14.949Z</time>
      </trkpt>
      <trkpt lat="45.67789" lon="5.85145">
        <ele>335</ele>
        <time>2022-04-16T07:09:15.950Z</time>
      </trkpt>
      <trkpt lat="45.67791" lon="5.85143">
        <ele>336</ele>
        <time>2022-04-16T07:09:16.949Z</time>
      </trkpt>
      <trkpt lat="45.67793" lon="5.85141">
        <ele>336</ele>
        <time>2022-04-16T07:09:17.949Z</time>
      </trkpt>
      <trkpt lat="45.67794" lon="5.85139">
        <ele>337</ele>
        <time>2022-04-16T07:09:18.949Z</time>
      </trkpt>
      <trkpt lat="45.67796" lon="5.85137">
        <ele>337</ele>
        <time>2022-04-16T07:09:19.949Z</time>
      </trkpt>
      <trkpt lat="45.67797" lon="5.85136">
        <ele>338</ele>
        <time>2022-04-16T07:09:20.949Z</time>
      </trkpt>
      <trkpt lat="45.67799" lon="5.85134">
        <ele>338</ele>
        <time>2022-04-16T07:09:21.949Z</time>
      </trkpt>
      <trkpt lat="45.678" lon="5.85132">
        <ele>339</ele>
        <time>2022-04-16T07:09:22.949Z</time>
      </trkpt>
      <trkpt lat="45.67802" lon="5.85131">
        <ele>340</ele>
        <time>2022-04-16T07:09:23.949Z</time>
      </trkpt>
      <trkpt lat="45.67803" lon="5.85129">
        <ele>340</ele>
        <time>2022-04-16T07:09:24.949Z</time>
      </trkpt>
      <trkpt lat="45.67803" lon="5.85127">
        <ele>340</ele>
        <time>2022-04-16T07:09:25.949Z</time>
      </trkpt>
      <trkpt lat="45.67804" lon="5.85124">
        <ele>340</ele>
        <time>2022-04-16T07:09:26.949Z</time>
      </trkpt>
      <trkpt lat="45.67803" lon="5.85122">
        <ele>339</ele>
        <time>2022-04-16T07:09:27.949Z</time>
      </trkpt>
      <trkpt lat="45.67802" lon="5.85119">
        <ele>338</ele>
        <time>2022-04-16T07:09:28.949Z</time>
      </trkpt>
      <trkpt lat="45.678" lon="5.85117">
        <ele>338</ele>
        <time>2022-04-16T07:09:29.949Z</time>
      </trkpt>
      <trkpt lat="45.67798" lon="5.85117">
        <ele>338</ele>
        <time>2022-04-16T07:09:30.949Z</time>
      </trkpt>
      <trkpt lat="45.67796" lon="5.85116">
        <ele>337</ele>
        <time>2022-04-16T07:09:31.950Z</time>
      </trkpt>
      <trkpt lat="45.67794" lon="5.85116">
        <ele>337</ele>
        <time>2022-04-16T07:09:32.950Z</time>
      </trkpt>
      <trkpt lat="45.67791" lon="5.85117">
        <ele>337</ele>
        <time>2022-04-16T07:09:33.949Z</time>
      </trkpt>
      <trkpt lat="45.67789" lon="5.85118">
        <ele>337</ele>
        <time>2022-04-16T07:09:34.949Z</time>
      </trkpt>
      <trkpt lat="45.67787" lon="5.85118">
        <ele>337</ele>
        <time>2022-04-16T07:09:35.949Z</time>
      </trkpt>
      <trkpt lat="45.67784" lon="5.85119">
        <ele>336</ele>
        <time>2022-04-16T07:09:36.949Z</time>
      </trkpt>
      <trkpt lat="45.67782" lon="5.8512">
        <ele>336</ele>
        <time>2022-04-16T07:09:37.950Z</time>
      </trkpt>
      <trkpt lat="45.6778" lon="5.85122">
        <ele>335</ele>
        <time>2022-04-16T07:09:38.950Z</time>
      </trkpt>
      <trkpt lat="45.67778" lon="5.85123">
        <ele>334</ele>
        <time>2022-04-16T07:09:39.949Z</time>
      </trkpt>
      <trkpt lat="45.67776" lon="5.85124">
        <ele>334</ele>
        <time>2022-04-16T07:09:40.950Z</time>
      </trkpt>
      <trkpt lat="45.67773" lon="5.85125">
        <ele>334</ele>
        <time>2022-04-16T07:09:41.949Z</time>
      </trkpt>
      <trkpt lat="45.67771" lon="5.85126">
        <ele>334</ele>
        <time>2022-04-16T07:09:42.949Z</time>
      </trkpt>
      <trkpt lat="45.67769" lon="5.85128">
        <ele>333</ele>
        <time>2022-04-16T07:09:43.949Z</time>
      </trkpt>
      <trkpt lat="45.67767" lon="5.85129">
        <ele>333</ele>
        <time>2022-04-16T07:09:44.949Z</time>
      </trkpt>
      <trkpt lat="45.67764" lon="5.8513">
        <ele>333</ele>
        <time>2022-04-16T07:09:45.949Z</time>
      </trkpt>
      <trkpt lat="45.67762" lon="5.85132">
        <ele>333</ele>
        <time>2022-04-16T07:09:46.950Z</time>
      </trkpt>
      <trkpt lat="45.6776" lon="5.85133">
        <ele>333</ele>
        <time>2022-04-16T07:09:47.949Z</time>
      </trkpt>
      <trkpt lat="45.67758" lon="5.85135">
        <ele>333</ele>
        <time>2022-04-16T07:09:48.950Z</time>
      </trkpt>
      <trkpt lat="45.67755" lon="5.85136">
        <ele>333</ele>
        <time>2022-04-16T07:09:49.949Z</time>
      </trkpt>
      <trkpt lat="45.67753" lon="5.85138">
        <ele>334</ele>
        <time>2022-04-16T07:09:50.949Z</time>
      </trkpt>
      <trkpt lat="45.67751" lon="5.8514">
        <ele>334</ele>
        <time>2022-04-16T07:09:51.949Z</time>
      </trkpt>
      <trkpt lat="45.67749" lon="5.85141">
        <ele>335</ele>
        <time>2022-04-16T07:09:52.949Z</time>
      </trkpt>
      <trkpt lat="45.67747" lon="5.85141">
        <ele>335</ele>
        <time>2022-04-16T07:09:53.949Z</time>
      </trkpt>
      <trkpt lat="45.67745" lon="5.85143">
        <ele>336</ele>
        <time>2022-04-16T07:09:54.949Z</time>
      </trkpt>
      <trkpt lat="45.67743" lon="5.85144">
        <ele>337</ele>
        <time>2022-04-16T07:09:55.949Z</time>
      </trkpt>
      <trkpt lat="45.6774" lon="5.85146">
        <ele>338</ele>
        <time>2022-04-16T07:09:56.949Z</time>
      </trkpt>
      <trkpt lat="45.67739" lon="5.85147">
        <ele>339</ele>
        <time>2022-04-16T07:09:57.949Z</time>
      </trkpt>
      <trkpt lat="45.67736" lon="5.85148">
        <ele>339</ele>
        <time>2022-04-16T07:09:58.949Z</time>
      </trkpt>
      <trkpt lat="45.67734" lon="5.85149">
        <ele>340</ele>
        <time>2022-04-16T07:09:59.949Z</time>
      </trkpt>
      <trkpt lat="45.67733" lon="5.8515">
        <ele>340</ele>
        <time>2022-04-16T07:10:00.950Z</time>
      </trkpt>
      <trkpt lat="45.67731" lon="5.85151">
        <ele>340</ele>
        <time>2022-04-16T07:10:01.949Z</time>
      </trkpt>
      <trkpt lat="45.67728" lon="5.85152">
        <ele>340</ele>
        <time>2022-04-16T07:10:02.949Z</time>
      </trkpt>
      <trkpt lat="45.67726" lon="5.85153">
        <ele>340</ele>
        <time>2022-04-16T07:10:03.949Z</time>
      </trkpt>
      <trkpt lat="45.67725" lon="5.85154">
        <ele>339</ele>
        <time>2022-04-16T07:10:04.949Z</time>
      </trkpt>
      <trkpt lat="45.67722" lon="5.85155">
        <ele>339</ele>
        <time>2022-04-16T07:10:05.949Z</time>
      </trkpt>
      <trkpt lat="45.67721" lon="5.85156">
        <ele>339</ele>
        <time>2022-04-16T07:10:06.949Z</time>
      </trkpt>
      <trkpt lat="45.67721" lon="5.85156">
        <ele>339</ele>
        <time>2022-04-16T07:10:07.949Z</time>
      </trkpt>
      <trkpt lat="45.67717" lon="5.85158">
        <ele>339</ele>
        <time>2022-04-16T07:10:08.950Z</time>
      </trkpt>
      <trkpt lat="45.67716" lon="5.85159">
        <ele>338</ele>
        <time>2022-04-16T07:10:09.949Z</time>
      </trkpt>
      <trkpt lat="45.67715" lon="5.8516">
        <ele>338</ele>
        <time>2022-04-16T07:10:10.949Z</time>
      </trkpt>
      <trkpt lat="45.67713" lon="5.85162">
        <ele>338</ele>
        <time>2022-04-16T07:10:11.949Z</time>
      </trkpt>
      <trkpt lat="45.67711" lon="5.85164">
        <ele>339</ele>
        <time>2022-04-16T07:10:12.950Z</time>
      </trkpt>
      <trkpt lat="45.6771" lon="5.85166">
        <ele>339</ele>
        <time>2022-04-16T07:10:13.949Z</time>
      </trkpt>
      <trkpt lat="45.67708" lon="5.85167">
        <ele>339</ele>
        <time>2022-04-16T07:10:14.950Z</time>
      </trkpt>
      <trkpt lat="45.67706" lon="5.85168">
        <ele>339</ele>
        <time>2022-04-16T07:10:15.949Z</time>
      </trkpt>
      <trkpt lat="45.67703" lon="5.85168">
        <ele>340</ele>
        <time>2022-04-16T07:10:16.949Z</time>
      </trkpt>
      <trkpt lat="45.67701" lon="5.85168">
        <ele>340</ele>
        <time>2022-04-16T07:10:17.949Z</time>
      </trkpt>
      <trkpt lat="45.67699" lon="5.85167">
        <ele>340</ele>
        <time>2022-04-16T07:10:18.949Z</time>
      </trkpt>
      <trkpt lat="45.67698" lon="5.85164">
        <ele>341</ele>
        <time>2022-04-16T07:10:19.949Z</time>
      </trkpt>
      <trkpt lat="45.67697" lon="5.85161">
        <ele>341</ele>
        <time>2022-04-16T07:10:20.949Z</time>
      </trkpt>
      <trkpt lat="45.67697" lon="5.85158">
        <ele>342</ele>
        <time>2022-04-16T07:10:21.949Z</time>
      </trkpt>
      <trkpt lat="45.67697" lon="5.85154">
        <ele>342</ele>
        <time>2022-04-16T07:10:22.949Z</time>
      </trkpt>
      <trkpt lat="45.67697" lon="5.85151">
        <ele>343</ele>
        <time>2022-04-16T07:10:23.950Z</time>
      </trkpt>
      <trkpt lat="45.67698" lon="5.85147">
        <ele>344</ele>
        <time>2022-04-16T07:10:24.949Z</time>
      </trkpt>
      <trkpt lat="45.67699" lon="5.85144">
        <ele>344</ele>
        <time>2022-04-16T07:10:25.949Z</time>
      </trkpt>
      <trkpt lat="45.677" lon="5.85141">
        <ele>344</ele>
        <time>2022-04-16T07:10:26.949Z</time>
      </trkpt>
      <trkpt lat="45.67702" lon="5.85138">
        <ele>345</ele>
        <time>2022-04-16T07:10:27.949Z</time>
      </trkpt>
      <trkpt lat="45.67703" lon="5.85135">
        <ele>346</ele>
        <time>2022-04-16T07:10:28.950Z</time>
      </trkpt>
      <trkpt lat="45.67705" lon="5.85132">
        <ele>346</ele>
        <time>2022-04-16T07:10:29.949Z</time>
      </trkpt>
      <trkpt lat="45.67706" lon="5.85129">
        <ele>346</ele>
        <time>2022-04-16T07:10:30.949Z</time>
      </trkpt>
      <trkpt lat="45.67708" lon="5.85125">
        <ele>346</ele>
        <time>2022-04-16T07:10:31.949Z</time>
      </trkpt>
      <trkpt lat="45.6771" lon="5.85122">
        <ele>346</ele>
        <time>2022-04-16T07:10:32.949Z</time>
      </trkpt>
      <trkpt lat="45.67711" lon="5.85119">
        <ele>346</ele>
        <time>2022-04-16T07:10:33.949Z</time>
      </trkpt>
      <trkpt lat="45.67713" lon="5.85117">
        <ele>346</ele>
        <time>2022-04-16T07:10:34.949Z</time>
      </trkpt>
      <trkpt lat="45.67714" lon="5.85114">
        <ele>347</ele>
        <time>2022-04-16T07:10:35.949Z</time>
      </trkpt>
      <trkpt lat="45.67716" lon="5.85111">
        <ele>347</ele>
        <time>2022-04-16T07:10:36.950Z</time>
      </trkpt>
      <trkpt lat="45.67717" lon="5.85108">
        <ele>347</ele>
        <time>2022-04-16T07:10:37.949Z</time>
      </trkpt>
      <trkpt lat="45.67719" lon="5.85106">
        <ele>348</ele>
        <time>2022-04-16T07:10:38.949Z</time>
      </trkpt>
      <trkpt lat="45.67721" lon="5.85104">
        <ele>348</ele>
        <time>2022-04-16T07:10:39.950Z</time>
      </trkpt>
      <trkpt lat="45.67723" lon="5.85101">
        <ele>349</ele>
        <time>2022-04-16T07:10:40.949Z</time>
      </trkpt>
      <trkpt lat="45.67725" lon="5.85099">
        <ele>349</ele>
        <time>2022-04-16T07:10:41.949Z</time>
      </trkpt>
      <trkpt lat="45.67726" lon="5.85096">
        <ele>349</ele>
        <time>2022-04-16T07:10:42.949Z</time>
      </trkpt>
      <trkpt lat="45.67728" lon="5.85094">
        <ele>349</ele>
        <time>2022-04-16T07:10:43.949Z</time>
      </trkpt>
      <trkpt lat="45.67728" lon="5.85094">
        <ele>349</ele>
        <time>2022-04-16T07:10:44.949Z</time>
      </trkpt>
      <trkpt lat="45.67731" lon="5.85089">
        <ele>349</ele>
        <time>2022-04-16T07:10:45.950Z</time>
      </trkpt>
      <trkpt lat="45.67733" lon="5.85087">
        <ele>349</ele>
        <time>2022-04-16T07:10:46.950Z</time>
      </trkpt>
      <trkpt lat="45.67735" lon="5.85085">
        <ele>350</ele>
        <time>2022-04-16T07:10:47.949Z</time>
      </trkpt>
      <trkpt lat="45.67737" lon="5.85083">
        <ele>351</ele>
        <time>2022-04-16T07:10:48.950Z</time>
      </trkpt>
      <trkpt lat="45.67739" lon="5.85081">
        <ele>352</ele>
        <time>2022-04-16T07:10:49.949Z</time>
      </trkpt>
      <trkpt lat="45.67741" lon="5.85079">
        <ele>353</ele>
        <time>2022-04-16T07:10:50.949Z</time>
      </trkpt>
      <trkpt lat="45.67743" lon="5.85077">
        <ele>353</ele>
        <time>2022-04-16T07:10:51.949Z</time>
      </trkpt>
      <trkpt lat="45.67745" lon="5.85075">
        <ele>354</ele>
        <time>2022-04-16T07:10:52.950Z</time>
      </trkpt>
      <trkpt lat="45.67747" lon="5.85073">
        <ele>355</ele>
        <time>2022-04-16T07:10:53.949Z</time>
      </trkpt>
      <trkpt lat="45.67749" lon="5.85071">
        <ele>357</ele>
        <time>2022-04-16T07:10:54.949Z</time>
      </trkpt>
      <trkpt lat="45.67751" lon="5.8507">
        <ele>358</ele>
        <time>2022-04-16T07:10:55.949Z</time>
      </trkpt>
      <trkpt lat="45.67753" lon="5.85069">
        <ele>359</ele>
        <time>2022-04-16T07:10:56.949Z</time>
      </trkpt>
      <trkpt lat="45.67755" lon="5.85067">
        <ele>360</ele>
        <time>2022-04-16T07:10:57.949Z</time>
      </trkpt>
      <trkpt lat="45.67757" lon="5.85066">
        <ele>362</ele>
        <time>2022-04-16T07:10:58.949Z</time>
      </trkpt>
      <trkpt lat="45.67759" lon="5.85065">
        <ele>363</ele>
        <time>2022-04-16T07:10:59.949Z</time>
      </trkpt>
      <trkpt lat="45.67761" lon="5.85064">
        <ele>364</ele>
        <time>2022-04-16T07:11:00.949Z</time>
      </trkpt>
      <trkpt lat="45.67763" lon="5.85063">
        <ele>365</ele>
        <time>2022-04-16T07:11:01.949Z</time>
      </trkpt>
      <trkpt lat="45.67766" lon="5.85062">
        <ele>366</ele>
        <time>2022-04-16T07:11:02.949Z</time>
      </trkpt>
      <trkpt lat="45.67768" lon="5.85061">
        <ele>366</ele>
        <time>2022-04-16T07:11:03.950Z</time>
      </trkpt>
      <trkpt lat="45.67768" lon="5.85061">
        <ele>366</ele>
        <time>2022-04-16T07:11:04.950Z</time>
      </trkpt>
      <trkpt lat="45.67772" lon="5.8506">
        <ele>367</ele>
        <time>2022-04-16T07:11:05.949Z</time>
      </trkpt>
      <trkpt lat="45.67774" lon="5.85059">
        <ele>367</ele>
        <time>2022-04-16T07:11:06.950Z</time>
      </trkpt>
      <trkpt lat="45.67776" lon="5.85058">
        <ele>368</ele>
        <time>2022-04-16T07:11:07.949Z</time>
      </trkpt>
      <trkpt lat="45.67778" lon="5.85058">
        <ele>369</ele>
        <time>2022-04-16T07:11:08.949Z</time>
      </trkpt>
      <trkpt lat="45.67781" lon="5.85057">
        <ele>369</ele>
        <time>2022-04-16T07:11:09.949Z</time>
      </trkpt>
      <trkpt lat="45.67783" lon="5.85056">
        <ele>369</ele>
        <time>2022-04-16T07:11:10.949Z</time>
      </trkpt>
      <trkpt lat="45.67786" lon="5.85055">
        <ele>369</ele>
        <time>2022-04-16T07:11:11.949Z</time>
      </trkpt>
      <trkpt lat="45.67788" lon="5.85055">
        <ele>369</ele>
        <time>2022-04-16T07:11:12.949Z</time>
      </trkpt>
      <trkpt lat="45.67791" lon="5.85054">
        <ele>368</ele>
        <time>2022-04-16T07:11:13.949Z</time>
      </trkpt>
      <trkpt lat="45.67794" lon="5.85054">
        <ele>367</ele>
        <time>2022-04-16T07:11:14.949Z</time>
      </trkpt>
      <trkpt lat="45.67796" lon="5.85053">
        <ele>366</ele>
        <time>2022-04-16T07:11:15.949Z</time>
      </trkpt>
      <trkpt lat="45.67799" lon="5.85052">
        <ele>366</ele>
        <time>2022-04-16T07:11:16.949Z</time>
      </trkpt>
      <trkpt lat="45.67802" lon="5.85052">
        <ele>366</ele>
        <time>2022-04-16T07:11:17.950Z</time>
      </trkpt>
      <trkpt lat="45.67804" lon="5.85052">
        <ele>366</ele>
        <time>2022-04-16T07:11:18.949Z</time>
      </trkpt>
      <trkpt lat="45.67807" lon="5.85052">
        <ele>366</ele>
        <time>2022-04-16T07:11:19.949Z</time>
      </trkpt>
      <trkpt lat="45.67809" lon="5.85052">
        <ele>366</ele>
        <time>2022-04-16T07:11:20.950Z</time>
      </trkpt>
      <trkpt lat="45.67812" lon="5.85052">
        <ele>365</ele>
        <time>2022-04-16T07:11:21.949Z</time>
      </trkpt>
      <trkpt lat="45.67815" lon="5.85052">
        <ele>365</ele>
        <time>2022-04-16T07:11:22.949Z</time>
      </trkpt>
      <trkpt lat="45.67817" lon="5.85051">
        <ele>365</ele>
        <time>2022-04-16T07:11:23.949Z</time>
      </trkpt>
      <trkpt lat="45.6782" lon="5.85051">
        <ele>365</ele>
        <time>2022-04-16T07:11:24.949Z</time>
      </trkpt>
      <trkpt lat="45.67823" lon="5.8505">
        <ele>365</ele>
        <time>2022-04-16T07:11:25.949Z</time>
      </trkpt>
      <trkpt lat="45.67825" lon="5.8505">
        <ele>366</ele>
        <time>2022-04-16T07:11:26.949Z</time>
      </trkpt>
      <trkpt lat="45.67828" lon="5.85051">
        <ele>367</ele>
        <time>2022-04-16T07:11:27.949Z</time>
      </trkpt>
      <trkpt lat="45.6783" lon="5.85052">
        <ele>367</ele>
        <time>2022-04-16T07:11:28.950Z</time>
      </trkpt>
      <trkpt lat="45.67833" lon="5.85052">
        <ele>368</ele>
        <time>2022-04-16T07:11:29.950Z</time>
      </trkpt>
      <trkpt lat="45.67835" lon="5.85052">
        <ele>368</ele>
        <time>2022-04-16T07:11:30.949Z</time>
      </trkpt>
      <trkpt lat="45.67838" lon="5.85052">
        <ele>369</ele>
        <time>2022-04-16T07:11:31.949Z</time>
      </trkpt>
      <trkpt lat="45.67841" lon="5.85052">
        <ele>369</ele>
        <time>2022-04-16T07:11:32.949Z</time>
      </trkpt>
      <trkpt lat="45.67843" lon="5.85052">
        <ele>369</ele>
        <time>2022-04-16T07:11:33.949Z</time>
      </trkpt>
      <trkpt lat="45.67846" lon="5.85052">
        <ele>368</ele>
        <time>2022-04-16T07:11:34.950Z</time>
      </trkpt>
      <trkpt lat="45.67849" lon="5.85052">
        <ele>368</ele>
        <time>2022-04-16T07:11:35.949Z</time>
      </trkpt>
      <trkpt lat="45.67851" lon="5.85052">
        <ele>367</ele>
        <time>2022-04-16T07:11:36.949Z</time>
      </trkpt>
      <trkpt lat="45.67854" lon="5.85052">
        <ele>368</ele>
        <time>2022-04-16T07:11:37.949Z</time>
      </trkpt>
      <trkpt lat="45.67856" lon="5.85052">
        <ele>368</ele>
        <time>2022-04-16T07:11:38.950Z</time>
      </trkpt>
      <trkpt lat="45.67859" lon="5.85052">
        <ele>369</ele>
        <time>2022-04-16T07:11:39.950Z</time>
      </trkpt>
      <trkpt lat="45.67862" lon="5.85053">
        <ele>369</ele>
        <time>2022-04-16T07:11:40.949Z</time>
      </trkpt>
      <trkpt lat="45.67864" lon="5.85053">
        <ele>368</ele>
        <time>2022-04-16T07:11:41.949Z</time>
      </trkpt>
      <trkpt lat="45.67867" lon="5.85053">
        <ele>368</ele>
        <time>2022-04-16T07:11:42.949Z</time>
      </trkpt>
      <trkpt lat="45.6787" lon="5.85054">
        <ele>368</ele>
        <time>2022-04-16T07:11:43.949Z</time>
      </trkpt>
      <trkpt lat="45.67872" lon="5.85054">
        <ele>368</ele>
        <time>2022-04-16T07:11:44.949Z</time>
      </trkpt>
      <trkpt lat="45.67875" lon="5.85054">
        <ele>367</ele>
        <time>2022-04-16T07:11:45.949Z</time>
      </trkpt>
      <trkpt lat="45.67878" lon="5.85055">
        <ele>367</ele>
        <time>2022-04-16T07:11:46.950Z</time>
      </trkpt>
      <trkpt lat="45.6788" lon="5.85055">
        <ele>366</ele>
        <time>2022-04-16T07:11:47.949Z</time>
      </trkpt>
      <trkpt lat="45.67883" lon="5.85055">
        <ele>366</ele>
        <time>2022-04-16T07:11:48.949Z</time>
      </trkpt>
      <trkpt lat="45.67886" lon="5.85055">
        <ele>365</ele>
        <time>2022-04-16T07:11:49.949Z</time>
      </trkpt>
      <trkpt lat="45.67888" lon="5.85056">
        <ele>365</ele>
        <time>2022-04-16T07:11:50.949Z</time>
      </trkpt>
      <trkpt lat="45.6789" lon="5.85057">
        <ele>365</ele>
        <time>2022-04-16T07:11:51.949Z</time>
      </trkpt>
      <trkpt lat="45.67893" lon="5.85057">
        <ele>365</ele>
        <time>2022-04-16T07:11:52.949Z</time>
      </trkpt>
      <trkpt lat="45.67895" lon="5.85058">
        <ele>364</ele>
        <time>2022-04-16T07:11:53.949Z</time>
      </trkpt>
      <trkpt lat="45.67898" lon="5.85059">
        <ele>364</ele>
        <time>2022-04-16T07:11:54.949Z</time>
      </trkpt>
      <trkpt lat="45.679" lon="5.85059">
        <ele>363</ele>
        <time>2022-04-16T07:11:55.950Z</time>
      </trkpt>
      <trkpt lat="45.67903" lon="5.8506">
        <ele>363</ele>
        <time>2022-04-16T07:11:56.950Z</time>
      </trkpt>
      <trkpt lat="45.67903" lon="5.8506">
        <ele>363</ele>
        <time>2022-04-16T07:11:57.949Z</time>
      </trkpt>
      <trkpt lat="45.67907" lon="5.85061">
        <ele>363</ele>
        <time>2022-04-16T07:11:58.949Z</time>
      </trkpt>
      <trkpt lat="45.6791" lon="5.85062">
        <ele>363</ele>
        <time>2022-04-16T07:11:59.949Z</time>
      </trkpt>
      <trkpt lat="45.67912" lon="5.85062">
        <ele>363</ele>
        <time>2022-04-16T07:12:00.950Z</time>
      </trkpt>
      <trkpt lat="45.67915" lon="5.85063">
        <ele>363</ele>
        <time>2022-04-16T07:12:01.950Z</time>
      </trkpt>
      <trkpt lat="45.67918" lon="5.85063">
        <ele>362</ele>
        <time>2022-04-16T07:12:02.949Z</time>
      </trkpt>
      <trkpt lat="45.6792" lon="5.85064">
        <ele>362</ele>
        <time>2022-04-16T07:12:03.949Z</time>
      </trkpt>
      <trkpt lat="45.67923" lon="5.85065">
        <ele>362</ele>
        <time>2022-04-16T07:12:04.949Z</time>
      </trkpt>
      <trkpt lat="45.67925" lon="5.85066">
        <ele>361</ele>
        <time>2022-04-16T07:12:05.950Z</time>
      </trkpt>
      <trkpt lat="45.67927" lon="5.85067">
        <ele>361</ele>
        <time>2022-04-16T07:12:06.949Z</time>
      </trkpt>
      <trkpt lat="45.6793" lon="5.85067">
        <ele>360</ele>
        <time>2022-04-16T07:12:07.949Z</time>
      </trkpt>
      <trkpt lat="45.67933" lon="5.85068">
        <ele>360</ele>
        <time>2022-04-16T07:12:08.949Z</time>
      </trkpt>
      <trkpt lat="45.67935" lon="5.8507">
        <ele>360</ele>
        <time>2022-04-16T07:12:09.950Z</time>
      </trkpt>
      <trkpt lat="45.67937" lon="5.85071">
        <ele>360</ele>
        <time>2022-04-16T07:12:10.950Z</time>
      </trkpt>
      <trkpt lat="45.6794" lon="5.85073">
        <ele>360</ele>
        <time>2022-04-16T07:12:11.949Z</time>
      </trkpt>
      <trkpt lat="45.67942" lon="5.85074">
        <ele>360</ele>
        <time>2022-04-16T07:12:12.949Z</time>
      </trkpt>
      <trkpt lat="45.67944" lon="5.85076">
        <ele>360</ele>
        <time>2022-04-16T07:12:13.949Z</time>
      </trkpt>
      <trkpt lat="45.67946" lon="5.85078">
        <ele>359</ele>
        <time>2022-04-16T07:12:14.950Z</time>
      </trkpt>
      <trkpt lat="45.67949" lon="5.85079">
        <ele>359</ele>
        <time>2022-04-16T07:12:15.949Z</time>
      </trkpt>
      <trkpt lat="45.67952" lon="5.85081">
        <ele>358</ele>
        <time>2022-04-16T07:12:16.949Z</time>
      </trkpt>
      <trkpt lat="45.67955" lon="5.85083">
        <ele>358</ele>
        <time>2022-04-16T07:12:17.950Z</time>
      </trkpt>
      <trkpt lat="45.67957" lon="5.85085">
        <ele>358</ele>
        <time>2022-04-16T07:12:18.949Z</time>
      </trkpt>
      <trkpt lat="45.67959" lon="5.85087">
        <ele>358</ele>
        <time>2022-04-16T07:12:19.949Z</time>
      </trkpt>
      <trkpt lat="45.67961" lon="5.8509">
        <ele>358</ele>
        <time>2022-04-16T07:12:20.949Z</time>
      </trkpt>
      <trkpt lat="45.67964" lon="5.85092">
        <ele>359</ele>
        <time>2022-04-16T07:12:21.949Z</time>
      </trkpt>
      <trkpt lat="45.67966" lon="5.85094">
        <ele>359</ele>
        <time>2022-04-16T07:12:22.949Z</time>
      </trkpt>
      <trkpt lat="45.67969" lon="5.85096">
        <ele>360</ele>
        <time>2022-04-16T07:12:23.949Z</time>
      </trkpt>
      <trkpt lat="45.67972" lon="5.85097">
        <ele>360</ele>
        <time>2022-04-16T07:12:24.950Z</time>
      </trkpt>
      <trkpt lat="45.67975" lon="5.85099">
        <ele>360</ele>
        <time>2022-04-16T07:12:25.949Z</time>
      </trkpt>
      <trkpt lat="45.67978" lon="5.851">
        <ele>360</ele>
        <time>2022-04-16T07:12:26.949Z</time>
      </trkpt>
      <trkpt lat="45.67981" lon="5.85101">
        <ele>361</ele>
        <time>2022-04-16T07:12:27.949Z</time>
      </trkpt>
      <trkpt lat="45.67984" lon="5.85102">
        <ele>361</ele>
        <time>2022-04-16T07:12:28.949Z</time>
      </trkpt>
      <trkpt lat="45.67987" lon="5.85103">
        <ele>360</ele>
        <time>2022-04-16T07:12:29.949Z</time>
      </trkpt>
      <trkpt lat="45.67989" lon="5.85105">
        <ele>360</ele>
        <time>2022-04-16T07:12:30.949Z</time>
      </trkpt>
      <trkpt lat="45.67992" lon="5.85107">
        <ele>360</ele>
        <time>2022-04-16T07:12:31.949Z</time>
      </trkpt>
      <trkpt lat="45.67994" lon="5.85109">
        <ele>360</ele>
        <time>2022-04-16T07:12:32.949Z</time>
      </trkpt>
      <trkpt lat="45.67997" lon="5.85109">
        <ele>360</ele>
        <time>2022-04-16T07:12:33.949Z</time>
      </trkpt>
      <trkpt lat="45.67999" lon="5.8511">
        <ele>360</ele>
        <time>2022-04-16T07:12:34.949Z</time>
      </trkpt>
      <trkpt lat="45.68001" lon="5.85111">
        <ele>361</ele>
        <time>2022-04-16T07:12:35.949Z</time>
      </trkpt>
      <trkpt lat="45.68003" lon="5.85112">
        <ele>362</ele>
        <time>2022-04-16T07:12:36.949Z</time>
      </trkpt>
      <trkpt lat="45.68005" lon="5.85113">
        <ele>363</ele>
        <time>2022-04-16T07:12:37.949Z</time>
      </trkpt>
      <trkpt lat="45.68008" lon="5.85113">
        <ele>365</ele>
        <time>2022-04-16T07:12:38.950Z</time>
      </trkpt>
      <trkpt lat="45.6801" lon="5.85113">
        <ele>366</ele>
        <time>2022-04-16T07:12:39.949Z</time>
      </trkpt>
      <trkpt lat="45.68012" lon="5.85114">
        <ele>367</ele>
        <time>2022-04-16T07:12:40.949Z</time>
      </trkpt>
      <trkpt lat="45.68015" lon="5.85114">
        <ele>368</ele>
        <time>2022-04-16T07:12:41.949Z</time>
      </trkpt>
      <trkpt lat="45.68017" lon="5.85114">
        <ele>368</ele>
        <time>2022-04-16T07:12:42.950Z</time>
      </trkpt>
      <trkpt lat="45.6802" lon="5.85114">
        <ele>369</ele>
        <time>2022-04-16T07:12:43.949Z</time>
      </trkpt>
      <trkpt lat="45.68022" lon="5.85114">
        <ele>371</ele>
        <time>2022-04-16T07:12:44.949Z</time>
      </trkpt>
      <trkpt lat="45.68025" lon="5.85114">
        <ele>372</ele>
        <time>2022-04-16T07:12:45.949Z</time>
      </trkpt>
      <trkpt lat="45.68028" lon="5.85113">
        <ele>372</ele>
        <time>2022-04-16T07:12:46.949Z</time>
      </trkpt>
      <trkpt lat="45.68028" lon="5.85113">
        <ele>372</ele>
        <time>2022-04-16T07:12:47.950Z</time>
      </trkpt>
      <trkpt lat="45.68033" lon="5.85112">
        <ele>373</ele>
        <time>2022-04-16T07:12:48.950Z</time>
      </trkpt>
      <trkpt lat="45.68036" lon="5.85112">
        <ele>374</ele>
        <time>2022-04-16T07:12:49.949Z</time>
      </trkpt>
      <trkpt lat="45.68038" lon="5.85111">
        <ele>374</ele>
        <time>2022-04-16T07:12:50.949Z</time>
      </trkpt>
      <trkpt lat="45.68041" lon="5.85111">
        <ele>375</ele>
        <time>2022-04-16T07:12:51.949Z</time>
      </trkpt>
      <trkpt lat="45.68044" lon="5.8511">
        <ele>376</ele>
        <time>2022-04-16T07:12:52.949Z</time>
      </trkpt>
      <trkpt lat="45.68046" lon="5.8511">
        <ele>377</ele>
        <time>2022-04-16T07:12:53.949Z</time>
      </trkpt>
      <trkpt lat="45.68048" lon="5.85109">
        <ele>377</ele>
        <time>2022-04-16T07:12:54.949Z</time>
      </trkpt>
      <trkpt lat="45.6805" lon="5.85109">
        <ele>378</ele>
        <time>2022-04-16T07:12:55.949Z</time>
      </trkpt>
      <trkpt lat="45.68053" lon="5.8511">
        <ele>379</ele>
        <time>2022-04-16T07:12:56.949Z</time>
      </trkpt>
      <trkpt lat="45.68055" lon="5.85109">
        <ele>379</ele>
        <time>2022-04-16T07:12:57.949Z</time>
      </trkpt>
      <trkpt lat="45.68058" lon="5.85109">
        <ele>378</ele>
        <time>2022-04-16T07:12:58.949Z</time>
      </trkpt>
      <trkpt lat="45.6806" lon="5.85108">
        <ele>377</ele>
        <time>2022-04-16T07:12:59.949Z</time>
      </trkpt>
      <trkpt lat="45.68063" lon="5.85107">
        <ele>377</ele>
        <time>2022-04-16T07:13:00.949Z</time>
      </trkpt>
      <trkpt lat="45.68066" lon="5.85106">
        <ele>376</ele>
        <time>2022-04-16T07:13:01.949Z</time>
      </trkpt>
      <trkpt lat="45.68069" lon="5.85105">
        <ele>375</ele>
        <time>2022-04-16T07:13:02.949Z</time>
      </trkpt>
      <trkpt lat="45.68072" lon="5.85105">
        <ele>375</ele>
        <time>2022-04-16T07:13:03.949Z</time>
      </trkpt>
      <trkpt lat="45.68074" lon="5.85104">
        <ele>374</ele>
        <time>2022-04-16T07:13:04.949Z</time>
      </trkpt>
      <trkpt lat="45.68077" lon="5.85104">
        <ele>374</ele>
        <time>2022-04-16T07:13:05.949Z</time>
      </trkpt>
      <trkpt lat="45.68079" lon="5.85104">
        <ele>373</ele>
        <time>2022-04-16T07:13:06.949Z</time>
      </trkpt>
      <trkpt lat="45.68082" lon="5.85104">
        <ele>373</ele>
        <time>2022-04-16T07:13:07.949Z</time>
      </trkpt>
      <trkpt lat="45.68084" lon="5.85104">
        <ele>372</ele>
        <time>2022-04-16T07:13:08.949Z</time>
      </trkpt>
      <trkpt lat="45.68085" lon="5.85104">
        <ele>371</ele>
        <time>2022-04-16T07:13:09.949Z</time>
      </trkpt>
      <trkpt lat="45.68087" lon="5.85103">
        <ele>370</ele>
        <time>2022-04-16T07:13:10.949Z</time>
      </trkpt>
      <trkpt lat="45.6809" lon="5.85103">
        <ele>370</ele>
        <time>2022-04-16T07:13:11.949Z</time>
      </trkpt>
      <trkpt lat="45.68092" lon="5.85103">
        <ele>371</ele>
        <time>2022-04-16T07:13:12.950Z</time>
      </trkpt>
      <trkpt lat="45.68095" lon="5.85102">
        <ele>371</ele>
        <time>2022-04-16T07:13:13.949Z</time>
      </trkpt>
      <trkpt lat="45.68098" lon="5.85101">
        <ele>371</ele>
        <time>2022-04-16T07:13:14.949Z</time>
      </trkpt>
      <trkpt lat="45.68101" lon="5.85101">
        <ele>372</ele>
        <time>2022-04-16T07:13:15.949Z</time>
      </trkpt>
      <trkpt lat="45.68102" lon="5.85101">
        <ele>373</ele>
        <time>2022-04-16T07:13:16.949Z</time>
      </trkpt>
      <trkpt lat="45.68105" lon="5.85101">
        <ele>374</ele>
        <time>2022-04-16T07:13:17.950Z</time>
      </trkpt>
      <trkpt lat="45.68108" lon="5.851">
        <ele>374</ele>
        <time>2022-04-16T07:13:18.949Z</time>
      </trkpt>
      <trkpt lat="45.68111" lon="5.851">
        <ele>375</ele>
        <time>2022-04-16T07:13:19.949Z</time>
      </trkpt>
      <trkpt lat="45.68113" lon="5.851">
        <ele>375</ele>
        <time>2022-04-16T07:13:20.949Z</time>
      </trkpt>
      <trkpt lat="45.68116" lon="5.851">
        <ele>376</ele>
        <time>2022-04-16T07:13:21.950Z</time>
      </trkpt>
      <trkpt lat="45.68118" lon="5.85099">
        <ele>376</ele>
        <time>2022-04-16T07:13:22.949Z</time>
      </trkpt>
      <trkpt lat="45.68121" lon="5.85099">
        <ele>377</ele>
        <time>2022-04-16T07:13:23.949Z</time>
      </trkpt>
      <trkpt lat="45.68123" lon="5.85099">
        <ele>377</ele>
        <time>2022-04-16T07:13:24.950Z</time>
      </trkpt>
      <trkpt lat="45.68126" lon="5.85099">
        <ele>377</ele>
        <time>2022-04-16T07:13:25.949Z</time>
      </trkpt>
      <trkpt lat="45.68129" lon="5.85099">
        <ele>378</ele>
        <time>2022-04-16T07:13:26.949Z</time>
      </trkpt>
      <trkpt lat="45.68132" lon="5.85099">
        <ele>377</ele>
        <time>2022-04-16T07:13:27.949Z</time>
      </trkpt>
      <trkpt lat="45.68135" lon="5.85099">
        <ele>377</ele>
        <time>2022-04-16T07:13:28.949Z</time>
      </trkpt>
      <trkpt lat="45.68138" lon="5.85099">
        <ele>377</ele>
        <time>2022-04-16T07:13:29.949Z</time>
      </trkpt>
      <trkpt lat="45.68141" lon="5.85099">
        <ele>377</ele>
        <time>2022-04-16T07:13:30.949Z</time>
      </trkpt>
      <trkpt lat="45.68141" lon="5.85099">
        <ele>377</ele>
        <time>2022-04-16T07:13:31.949Z</time>
      </trkpt>
      <trkpt lat="45.68147" lon="5.85099">
        <ele>376</ele>
        <time>2022-04-16T07:13:32.950Z</time>
      </trkpt>
      <trkpt lat="45.6815" lon="5.85099">
        <ele>376</ele>
        <time>2022-04-16T07:13:33.949Z</time>
      </trkpt>
      <trkpt lat="45.68153" lon="5.85099">
        <ele>375</ele>
        <time>2022-04-16T07:13:34.949Z</time>
      </trkpt>
      <trkpt lat="45.68155" lon="5.851">
        <ele>375</ele>
        <time>2022-04-16T07:13:35.949Z</time>
      </trkpt>
      <trkpt lat="45.68158" lon="5.851">
        <ele>375</ele>
        <time>2022-04-16T07:13:36.949Z</time>
      </trkpt>
      <trkpt lat="45.68161" lon="5.851">
        <ele>374</ele>
        <time>2022-04-16T07:13:37.949Z</time>
      </trkpt>
      <trkpt lat="45.68163" lon="5.851">
        <ele>375</ele>
        <time>2022-04-16T07:13:38.950Z</time>
      </trkpt>
      <trkpt lat="45.68166" lon="5.851">
        <ele>375</ele>
        <time>2022-04-16T07:13:39.949Z</time>
      </trkpt>
      <trkpt lat="45.68168" lon="5.851">
        <ele>374</ele>
        <time>2022-04-16T07:13:40.949Z</time>
      </trkpt>
      <trkpt lat="45.68172" lon="5.85099">
        <ele>374</ele>
        <time>2022-04-16T07:13:41.949Z</time>
      </trkpt>
      <trkpt lat="45.68173" lon="5.851">
        <ele>375</ele>
        <time>2022-04-16T07:13:42.949Z</time>
      </trkpt>
      <trkpt lat="45.68176" lon="5.851">
        <ele>375</ele>
        <time>2022-04-16T07:13:43.949Z</time>
      </trkpt>
      <trkpt lat="45.68178" lon="5.851">
        <ele>374</ele>
        <time>2022-04-16T07:13:44.949Z</time>
      </trkpt>
      <trkpt lat="45.68181" lon="5.851">
        <ele>374</ele>
        <time>2022-04-16T07:13:45.949Z</time>
      </trkpt>
      <trkpt lat="45.68183" lon="5.851">
        <ele>374</ele>
        <time>2022-04-16T07:13:46.949Z</time>
      </trkpt>
      <trkpt lat="45.68186" lon="5.851">
        <ele>374</ele>
        <time>2022-04-16T07:13:47.949Z</time>
      </trkpt>
      <trkpt lat="45.68188" lon="5.851">
        <ele>373</ele>
        <time>2022-04-16T07:13:48.949Z</time>
      </trkpt>
      <trkpt lat="45.68191" lon="5.851">
        <ele>373</ele>
        <time>2022-04-16T07:13:49.949Z</time>
      </trkpt>
      <trkpt lat="45.68194" lon="5.851">
        <ele>373</ele>
        <time>2022-04-16T07:13:50.949Z</time>
      </trkpt>
      <trkpt lat="45.68197" lon="5.851">
        <ele>373</ele>
        <time>2022-04-16T07:13:51.949Z</time>
      </trkpt>
      <trkpt lat="45.68199" lon="5.851">
        <ele>374</ele>
        <time>2022-04-16T07:13:52.950Z</time>
      </trkpt>
      <trkpt lat="45.68202" lon="5.851">
        <ele>374</ele>
        <time>2022-04-16T07:13:53.949Z</time>
      </trkpt>
      <trkpt lat="45.68204" lon="5.851">
        <ele>374</ele>
        <time>2022-04-16T07:13:54.950Z</time>
      </trkpt>
      <trkpt lat="45.68207" lon="5.851">
        <ele>374</ele>
        <time>2022-04-16T07:13:55.949Z</time>
      </trkpt>
      <trkpt lat="45.68209" lon="5.85101">
        <ele>375</ele>
        <time>2022-04-16T07:13:56.950Z</time>
      </trkpt>
      <trkpt lat="45.68212" lon="5.85101">
        <ele>375</ele>
        <time>2022-04-16T07:13:57.949Z</time>
      </trkpt>
      <trkpt lat="45.68214" lon="5.85101">
        <ele>375</ele>
        <time>2022-04-16T07:13:58.949Z</time>
      </trkpt>
      <trkpt lat="45.68217" lon="5.85102">
        <ele>375</ele>
        <time>2022-04-16T07:13:59.949Z</time>
      </trkpt>
      <trkpt lat="45.6822" lon="5.85102">
        <ele>375</ele>
        <time>2022-04-16T07:14:00.950Z</time>
      </trkpt>
      <trkpt lat="45.68222" lon="5.85102">
        <ele>376</ele>
        <time>2022-04-16T07:14:01.949Z</time>
      </trkpt>
      <trkpt lat="45.68225" lon="5.85102">
        <ele>376</ele>
        <time>2022-04-16T07:14:02.949Z</time>
      </trkpt>
      <trkpt lat="45.68225" lon="5.85102">
        <ele>376</ele>
        <time>2022-04-16T07:14:03.950Z</time>
      </trkpt>
      <trkpt lat="45.68231" lon="5.85103">
        <ele>376</ele>
        <time>2022-04-16T07:14:04.949Z</time>
      </trkpt>
      <trkpt lat="45.68234" lon="5.85103">
        <ele>376</ele>
        <time>2022-04-16T07:14:05.949Z</time>
      </trkpt>
      <trkpt lat="45.68236" lon="5.85103">
        <ele>376</ele>
        <time>2022-04-16T07:14:06.949Z</time>
      </trkpt>
      <trkpt lat="45.68239" lon="5.85104">
        <ele>376</ele>
        <time>2022-04-16T07:14:07.949Z</time>
      </trkpt>
      <trkpt lat="45.68241" lon="5.85104">
        <ele>376</ele>
        <time>2022-04-16T07:14:08.949Z</time>
      </trkpt>
      <trkpt lat="45.68244" lon="5.85105">
        <ele>376</ele>
        <time>2022-04-16T07:14:09.950Z</time>
      </trkpt>
      <trkpt lat="45.68244" lon="5.85105">
        <ele>376</ele>
        <time>2022-04-16T07:14:10.949Z</time>
      </trkpt>
      <trkpt lat="45.68248" lon="5.85106">
        <ele>376</ele>
        <time>2022-04-16T07:14:11.949Z</time>
      </trkpt>
      <trkpt lat="45.6825" lon="5.85107">
        <ele>377</ele>
        <time>2022-04-16T07:14:12.950Z</time>
      </trkpt>
      <trkpt lat="45.68253" lon="5.85107">
        <ele>377</ele>
        <time>2022-04-16T07:14:13.949Z</time>
      </trkpt>
      <trkpt lat="45.68255" lon="5.85108">
        <ele>377</ele>
        <time>2022-04-16T07:14:14.949Z</time>
      </trkpt>
      <trkpt lat="45.68258" lon="5.85109">
        <ele>378</ele>
        <time>2022-04-16T07:14:15.949Z</time>
      </trkpt>
      <trkpt lat="45.68261" lon="5.8511">
        <ele>378</ele>
        <time>2022-04-16T07:14:16.949Z</time>
      </trkpt>
      <trkpt lat="45.68264" lon="5.8511">
        <ele>378</ele>
        <time>2022-04-16T07:14:17.949Z</time>
      </trkpt>
      <trkpt lat="45.68266" lon="5.85111">
        <ele>377</ele>
        <time>2022-04-16T07:14:18.950Z</time>
      </trkpt>
      <trkpt lat="45.68268" lon="5.85113">
        <ele>377</ele>
        <time>2022-04-16T07:14:19.949Z</time>
      </trkpt>
      <trkpt lat="45.6827" lon="5.85114">
        <ele>377</ele>
        <time>2022-04-16T07:14:20.949Z</time>
      </trkpt>
      <trkpt lat="45.68272" lon="5.85114">
        <ele>377</ele>
        <time>2022-04-16T07:14:21.949Z</time>
      </trkpt>
      <trkpt lat="45.68275" lon="5.85115">
        <ele>376</ele>
        <time>2022-04-16T07:14:22.949Z</time>
      </trkpt>
      <trkpt lat="45.68278" lon="5.85115">
        <ele>376</ele>
        <time>2022-04-16T07:14:23.949Z</time>
      </trkpt>
      <trkpt lat="45.6828" lon="5.85116">
        <ele>375</ele>
        <time>2022-04-16T07:14:24.949Z</time>
      </trkpt>
      <trkpt lat="45.68283" lon="5.85116">
        <ele>375</ele>
        <time>2022-04-16T07:14:25.949Z</time>
      </trkpt>
      <trkpt lat="45.68285" lon="5.85116">
        <ele>375</ele>
        <time>2022-04-16T07:14:26.949Z</time>
      </trkpt>
      <trkpt lat="45.68288" lon="5.85117">
        <ele>375</ele>
        <time>2022-04-16T07:14:27.949Z</time>
      </trkpt>
      <trkpt lat="45.68291" lon="5.85118">
        <ele>375</ele>
        <time>2022-04-16T07:14:28.949Z</time>
      </trkpt>
      <trkpt lat="45.68293" lon="5.85118">
        <ele>375</ele>
        <time>2022-04-16T07:14:29.949Z</time>
      </trkpt>
      <trkpt lat="45.68295" lon="5.85119">
        <ele>375</ele>
        <time>2022-04-16T07:14:30.949Z</time>
      </trkpt>
      <trkpt lat="45.68298" lon="5.85119">
        <ele>375</ele>
        <time>2022-04-16T07:14:31.949Z</time>
      </trkpt>
      <trkpt lat="45.683" lon="5.8512">
        <ele>375</ele>
        <time>2022-04-16T07:14:32.949Z</time>
      </trkpt>
      <trkpt lat="45.68303" lon="5.8512">
        <ele>376</ele>
        <time>2022-04-16T07:14:33.949Z</time>
      </trkpt>
      <trkpt lat="45.68306" lon="5.85121">
        <ele>376</ele>
        <time>2022-04-16T07:14:34.949Z</time>
      </trkpt>
      <trkpt lat="45.68308" lon="5.85122">
        <ele>376</ele>
        <time>2022-04-16T07:14:35.950Z</time>
      </trkpt>
      <trkpt lat="45.68311" lon="5.85123">
        <ele>376</ele>
        <time>2022-04-16T07:14:36.949Z</time>
      </trkpt>
      <trkpt lat="45.68313" lon="5.85123">
        <ele>375</ele>
        <time>2022-04-16T07:14:37.949Z</time>
      </trkpt>
      <trkpt lat="45.68316" lon="5.85123">
        <ele>375</ele>
        <time>2022-04-16T07:14:38.949Z</time>
      </trkpt>
      <trkpt lat="45.68319" lon="5.85124">
        <ele>375</ele>
        <time>2022-04-16T07:14:39.949Z</time>
      </trkpt>
      <trkpt lat="45.68321" lon="5.85125">
        <ele>375</ele>
        <time>2022-04-16T07:14:40.949Z</time>
      </trkpt>
      <trkpt lat="45.68324" lon="5.85125">
        <ele>375</ele>
        <time>2022-04-16T07:14:41.949Z</time>
      </trkpt>
      <trkpt lat="45.68324" lon="5.85125">
        <ele>375</ele>
        <time>2022-04-16T07:14:42.949Z</time>
      </trkpt>
      <trkpt lat="45.68329" lon="5.85127">
        <ele>375</ele>
        <time>2022-04-16T07:14:43.949Z</time>
      </trkpt>
      <trkpt lat="45.68332" lon="5.85128">
        <ele>375</ele>
        <time>2022-04-16T07:14:44.949Z</time>
      </trkpt>
      <trkpt lat="45.68334" lon="5.85128">
        <ele>375</ele>
        <time>2022-04-16T07:14:45.949Z</time>
      </trkpt>
      <trkpt lat="45.68337" lon="5.8513">
        <ele>375</ele>
        <time>2022-04-16T07:14:46.949Z</time>
      </trkpt>
      <trkpt lat="45.68339" lon="5.85131">
        <ele>375</ele>
        <time>2022-04-16T07:14:47.949Z</time>
      </trkpt>
      <trkpt lat="45.68342" lon="5.85133">
        <ele>376</ele>
        <time>2022-04-16T07:14:48.949Z</time>
      </trkpt>
      <trkpt lat="45.68344" lon="5.85134">
        <ele>376</ele>
        <time>2022-04-16T07:14:49.949Z</time>
      </trkpt>
      <trkpt lat="45.68348" lon="5.85135">
        <ele>376</ele>
        <time>2022-04-16T07:14:50.949Z</time>
      </trkpt>
      <trkpt lat="45.6835" lon="5.85136">
        <ele>376</ele>
        <time>2022-04-16T07:14:51.949Z</time>
      </trkpt>
      <trkpt lat="45.68353" lon="5.85137">
        <ele>376</ele>
        <time>2022-04-16T07:14:52.950Z</time>
      </trkpt>
      <trkpt lat="45.68355" lon="5.85139">
        <ele>376</ele>
        <time>2022-04-16T07:14:53.949Z</time>
      </trkpt>
      <trkpt lat="45.68357" lon="5.8514">
        <ele>376</ele>
        <time>2022-04-16T07:14:54.949Z</time>
      </trkpt>
      <trkpt lat="45.68359" lon="5.85141">
        <ele>376</ele>
        <time>2022-04-16T07:14:55.949Z</time>
      </trkpt>
      <trkpt lat="45.68363" lon="5.85142">
        <ele>377</ele>
        <time>2022-04-16T07:14:56.949Z</time>
      </trkpt>
      <trkpt lat="45.68365" lon="5.85143">
        <ele>376</ele>
        <time>2022-04-16T07:14:57.949Z</time>
      </trkpt>
      <trkpt lat="45.68368" lon="5.85145">
        <ele>377</ele>
        <time>2022-04-16T07:14:58.949Z</time>
      </trkpt>
      <trkpt lat="45.68368" lon="5.85145">
        <ele>377</ele>
        <time>2022-04-16T07:14:59.949Z</time>
      </trkpt>
      <trkpt lat="45.68374" lon="5.85146">
        <ele>377</ele>
        <time>2022-04-16T07:15:00.949Z</time>
      </trkpt>
      <trkpt lat="45.68376" lon="5.85147">
        <ele>377</ele>
        <time>2022-04-16T07:15:01.949Z</time>
      </trkpt>
      <trkpt lat="45.68379" lon="5.85148">
        <ele>377</ele>
        <time>2022-04-16T07:15:02.950Z</time>
      </trkpt>
      <trkpt lat="45.68381" lon="5.8515">
        <ele>377</ele>
        <time>2022-04-16T07:15:03.949Z</time>
      </trkpt>
      <trkpt lat="45.68384" lon="5.85151">
        <ele>378</ele>
        <time>2022-04-16T07:15:04.949Z</time>
      </trkpt>
      <trkpt lat="45.68387" lon="5.85152">
        <ele>378</ele>
        <time>2022-04-16T07:15:05.949Z</time>
      </trkpt>
      <trkpt lat="45.6839" lon="5.85153">
        <ele>379</ele>
        <time>2022-04-16T07:15:06.949Z</time>
      </trkpt>
      <trkpt lat="45.68392" lon="5.85154">
        <ele>379</ele>
        <time>2022-04-16T07:15:07.949Z</time>
      </trkpt>
      <trkpt lat="45.68394" lon="5.85156">
        <ele>379</ele>
        <time>2022-04-16T07:15:08.950Z</time>
      </trkpt>
      <trkpt lat="45.68397" lon="5.85157">
        <ele>380</ele>
        <time>2022-04-16T07:15:09.950Z</time>
      </trkpt>
      <trkpt lat="45.68399" lon="5.85158">
        <ele>380</ele>
        <time>2022-04-16T07:15:10.949Z</time>
      </trkpt>
      <trkpt lat="45.68402" lon="5.8516">
        <ele>381</ele>
        <time>2022-04-16T07:15:11.949Z</time>
      </trkpt>
      <trkpt lat="45.68404" lon="5.85161">
        <ele>381</ele>
        <time>2022-04-16T07:15:12.949Z</time>
      </trkpt>
      <trkpt lat="45.68406" lon="5.85163">
        <ele>382</ele>
        <time>2022-04-16T07:15:13.950Z</time>
      </trkpt>
      <trkpt lat="45.68408" lon="5.85164">
        <ele>382</ele>
        <time>2022-04-16T07:15:14.949Z</time>
      </trkpt>
      <trkpt lat="45.68411" lon="5.85165">
        <ele>382</ele>
        <time>2022-04-16T07:15:15.949Z</time>
      </trkpt>
      <trkpt lat="45.68414" lon="5.85166">
        <ele>382</ele>
        <time>2022-04-16T07:15:16.949Z</time>
      </trkpt>
      <trkpt lat="45.68417" lon="5.85168">
        <ele>383</ele>
        <time>2022-04-16T07:15:17.949Z</time>
      </trkpt>
      <trkpt lat="45.68418" lon="5.85169">
        <ele>383</ele>
        <time>2022-04-16T07:15:18.949Z</time>
      </trkpt>
      <trkpt lat="45.68421" lon="5.85171">
        <ele>383</ele>
        <time>2022-04-16T07:15:19.949Z</time>
      </trkpt>
      <trkpt lat="45.68421" lon="5.85171">
        <ele>383</ele>
        <time>2022-04-16T07:15:20.949Z</time>
      </trkpt>
      <trkpt lat="45.68426" lon="5.85175">
        <ele>383</ele>
        <time>2022-04-16T07:15:21.949Z</time>
      </trkpt>
      <trkpt lat="45.68428" lon="5.85177">
        <ele>383</ele>
        <time>2022-04-16T07:15:22.949Z</time>
      </trkpt>
      <trkpt lat="45.6843" lon="5.85179">
        <ele>383</ele>
        <time>2022-04-16T07:15:23.950Z</time>
      </trkpt>
      <trkpt lat="45.68433" lon="5.85181">
        <ele>383</ele>
        <time>2022-04-16T07:15:24.949Z</time>
      </trkpt>
      <trkpt lat="45.68435" lon="5.85181">
        <ele>384</ele>
        <time>2022-04-16T07:15:25.949Z</time>
      </trkpt>
      <trkpt lat="45.68437" lon="5.85182">
        <ele>384</ele>
        <time>2022-04-16T07:15:26.949Z</time>
      </trkpt>
      <trkpt lat="45.68439" lon="5.85183">
        <ele>384</ele>
        <time>2022-04-16T07:15:27.949Z</time>
      </trkpt>
      <trkpt lat="45.68441" lon="5.85184">
        <ele>384</ele>
        <time>2022-04-16T07:15:28.950Z</time>
      </trkpt>
      <trkpt lat="45.68443" lon="5.85185">
        <ele>384</ele>
        <time>2022-04-16T07:15:29.949Z</time>
      </trkpt>
      <trkpt lat="45.68445" lon="5.85186">
        <ele>385</ele>
        <time>2022-04-16T07:15:30.949Z</time>
      </trkpt>
      <trkpt lat="45.68448" lon="5.85187">
        <ele>385</ele>
        <time>2022-04-16T07:15:31.949Z</time>
      </trkpt>
      <trkpt lat="45.6845" lon="5.85188">
        <ele>385</ele>
        <time>2022-04-16T07:15:32.949Z</time>
      </trkpt>
      <trkpt lat="45.68453" lon="5.85188">
        <ele>385</ele>
        <time>2022-04-16T07:15:33.949Z</time>
      </trkpt>
      <trkpt lat="45.68455" lon="5.8519">
        <ele>385</ele>
        <time>2022-04-16T07:15:34.950Z</time>
      </trkpt>
      <trkpt lat="45.68457" lon="5.85192">
        <ele>386</ele>
        <time>2022-04-16T07:15:35.949Z</time>
      </trkpt>
      <trkpt lat="45.68459" lon="5.85194">
        <ele>386</ele>
        <time>2022-04-16T07:15:36.949Z</time>
      </trkpt>
      <trkpt lat="45.68461" lon="5.85195">
        <ele>386</ele>
        <time>2022-04-16T07:15:37.949Z</time>
      </trkpt>
      <trkpt lat="45.68464" lon="5.85196">
        <ele>385</ele>
        <time>2022-04-16T07:15:38.949Z</time>
      </trkpt>
      <trkpt lat="45.68467" lon="5.85197">
        <ele>385</ele>
        <time>2022-04-16T07:15:39.949Z</time>
      </trkpt>
      <trkpt lat="45.68469" lon="5.85198">
        <ele>385</ele>
        <time>2022-04-16T07:15:40.949Z</time>
      </trkpt>
      <trkpt lat="45.68471" lon="5.852">
        <ele>385</ele>
        <time>2022-04-16T07:15:41.949Z</time>
      </trkpt>
      <trkpt lat="45.68472" lon="5.85201">
        <ele>385</ele>
        <time>2022-04-16T07:15:42.949Z</time>
      </trkpt>
      <trkpt lat="45.68475" lon="5.85203">
        <ele>385</ele>
        <time>2022-04-16T07:15:43.949Z</time>
      </trkpt>
      <trkpt lat="45.68477" lon="5.85205">
        <ele>385</ele>
        <time>2022-04-16T07:15:44.949Z</time>
      </trkpt>
      <trkpt lat="45.68479" lon="5.85206">
        <ele>385</ele>
        <time>2022-04-16T07:15:45.949Z</time>
      </trkpt>
      <trkpt lat="45.68481" lon="5.85207">
        <ele>385</ele>
        <time>2022-04-16T07:15:46.949Z</time>
      </trkpt>
      <trkpt lat="45.68484" lon="5.85209">
        <ele>384</ele>
        <time>2022-04-16T07:15:47.949Z</time>
      </trkpt>
      <trkpt lat="45.68486" lon="5.8521">
        <ele>384</ele>
        <time>2022-04-16T07:15:48.949Z</time>
      </trkpt>
      <trkpt lat="45.68489" lon="5.85211">
        <ele>383</ele>
        <time>2022-04-16T07:15:49.949Z</time>
      </trkpt>
      <trkpt lat="45.68491" lon="5.85212">
        <ele>383</ele>
        <time>2022-04-16T07:15:50.949Z</time>
      </trkpt>
      <trkpt lat="45.68494" lon="5.85214">
        <ele>383</ele>
        <time>2022-04-16T07:15:51.949Z</time>
      </trkpt>
      <trkpt lat="45.68495" lon="5.85217">
        <ele>383</ele>
        <time>2022-04-16T07:15:52.949Z</time>
      </trkpt>
      <trkpt lat="45.68497" lon="5.85221">
        <ele>383</ele>
        <time>2022-04-16T07:15:53.949Z</time>
      </trkpt>
      <trkpt lat="45.68499" lon="5.85225">
        <ele>383</ele>
        <time>2022-04-16T07:15:54.949Z</time>
      </trkpt>
      <trkpt lat="45.685" lon="5.85229">
        <ele>383</ele>
        <time>2022-04-16T07:15:55.949Z</time>
      </trkpt>
      <trkpt lat="45.68502" lon="5.85234">
        <ele>384</ele>
        <time>2022-04-16T07:15:56.949Z</time>
      </trkpt>
      <trkpt lat="45.68503" lon="5.85239">
        <ele>385</ele>
        <time>2022-04-16T07:15:57.949Z</time>
      </trkpt>
      <trkpt lat="45.68505" lon="5.85244">
        <ele>386</ele>
        <time>2022-04-16T07:15:58.949Z</time>
      </trkpt>
      <trkpt lat="45.68506" lon="5.85247">
        <ele>387</ele>
        <time>2022-04-16T07:15:59.949Z</time>
      </trkpt>
      <trkpt lat="45.68507" lon="5.85251">
        <ele>388</ele>
        <time>2022-04-16T07:16:00.949Z</time>
      </trkpt>
      <trkpt lat="45.68507" lon="5.85251">
        <ele>388</ele>
        <time>2022-04-16T07:16:01.950Z</time>
      </trkpt>
      <trkpt lat="45.68509" lon="5.85257">
        <ele>390</ele>
        <time>2022-04-16T07:16:02.949Z</time>
      </trkpt>
      <trkpt lat="45.68509" lon="5.85257">
        <ele>390</ele>
        <time>2022-04-16T07:16:03.949Z</time>
      </trkpt>
      <trkpt lat="45.68514" lon="5.85258">
        <ele>391</ele>
        <time>2022-04-16T07:16:04.950Z</time>
      </trkpt>
      <trkpt lat="45.68516" lon="5.85257">
        <ele>392</ele>
        <time>2022-04-16T07:16:05.949Z</time>
      </trkpt>
      <trkpt lat="45.68518" lon="5.85256">
        <ele>392</ele>
        <time>2022-04-16T07:16:06.949Z</time>
      </trkpt>
      <trkpt lat="45.68519" lon="5.85255">
        <ele>392</ele>
        <time>2022-04-16T07:16:07.949Z</time>
      </trkpt>
      <trkpt lat="45.68521" lon="5.85254">
        <ele>393</ele>
        <time>2022-04-16T07:16:08.949Z</time>
      </trkpt>
      <trkpt lat="45.68522" lon="5.85254">
        <ele>393</ele>
        <time>2022-04-16T07:16:09.949Z</time>
      </trkpt>
      <trkpt lat="45.68523" lon="5.85253">
        <ele>393</ele>
        <time>2022-04-16T07:16:10.949Z</time>
      </trkpt>
      <trkpt lat="45.69076" lon="5.83429">
        <ele>392</ele>
        <time>2022-04-16T07:22:16.949Z</time>
      </trkpt>
      <trkpt lat="45.69062" lon="5.83395">
        <ele>391</ele>
        <time>2022-04-16T07:22:17.949Z</time>
      </trkpt>
      <trkpt lat="45.69056" lon="5.8338">
        <ele>391</ele>
        <time>2022-04-16T07:22:18.949Z</time>
      </trkpt>
      <trkpt lat="45.69061" lon="5.8338">
        <ele>390</ele>
        <time>2022-04-16T07:22:19.949Z</time>
      </trkpt>
      <trkpt lat="45.69064" lon="5.83376">
        <ele>390</ele>
        <time>2022-04-16T07:22:20.949Z</time>
      </trkpt>
      <trkpt lat="45.69062" lon="5.83365">
        <ele>390</ele>
        <time>2022-04-16T07:22:21.949Z</time>
      </trkpt>
      <trkpt lat="45.69063" lon="5.83356">
        <ele>390</ele>
        <time>2022-04-16T07:22:22.949Z</time>
      </trkpt>
      <trkpt lat="45.69065" lon="5.83348">
        <ele>389</ele>
        <time>2022-04-16T07:22:23.950Z</time>
      </trkpt>
      <trkpt lat="45.69066" lon="5.83342">
        <ele>389</ele>
        <time>2022-04-16T07:22:24.949Z</time>
      </trkpt>
      <trkpt lat="45.69067" lon="5.83335">
        <ele>388</ele>
        <time>2022-04-16T07:22:25.949Z</time>
      </trkpt>
      <trkpt lat="45.69066" lon="5.83325">
        <ele>388</ele>
        <time>2022-04-16T07:22:26.949Z</time>
      </trkpt>
      <trkpt lat="45.69065" lon="5.83318">
        <ele>388</ele>
        <time>2022-04-16T07:22:27.949Z</time>
      </trkpt>
      <trkpt lat="45.69063" lon="5.83311">
        <ele>388</ele>
        <time>2022-04-16T07:22:28.949Z</time>
      </trkpt>
      <trkpt lat="45.6906" lon="5.83305">
        <ele>388</ele>
        <time>2022-04-16T07:22:29.949Z</time>
      </trkpt>
      <trkpt lat="45.69058" lon="5.83299">
        <ele>388</ele>
        <time>2022-04-16T07:22:30.949Z</time>
      </trkpt>
      <trkpt lat="45.69055" lon="5.83294">
        <ele>388</ele>
        <time>2022-04-16T07:22:31.949Z</time>
      </trkpt>
      <trkpt lat="45.69052" lon="5.83289">
        <ele>388</ele>
        <time>2022-04-16T07:22:32.949Z</time>
      </trkpt>
      <trkpt lat="45.69048" lon="5.83285">
        <ele>387</ele>
        <time>2022-04-16T07:22:33.950Z</time>
      </trkpt>
      <trkpt lat="45.69045" lon="5.8328">
        <ele>387</ele>
        <time>2022-04-16T07:22:34.950Z</time>
      </trkpt>
      <trkpt lat="45.69042" lon="5.83276">
        <ele>387</ele>
        <time>2022-04-16T07:22:35.949Z</time>
      </trkpt>
      <trkpt lat="45.69039" lon="5.83271">
        <ele>387</ele>
        <time>2022-04-16T07:22:36.949Z</time>
      </trkpt>
      <trkpt lat="45.69036" lon="5.83266">
        <ele>387</ele>
        <time>2022-04-16T07:22:37.949Z</time>
      </trkpt>
      <trkpt lat="45.69033" lon="5.83261">
        <ele>387</ele>
        <time>2022-04-16T07:22:38.949Z</time>
      </trkpt>
      <trkpt lat="45.69031" lon="5.83254">
        <ele>387</ele>
        <time>2022-04-16T07:22:39.949Z</time>
      </trkpt>
      <trkpt lat="45.6903" lon="5.83247">
        <ele>387</ele>
        <time>2022-04-16T07:22:40.950Z</time>
      </trkpt>
      <trkpt lat="45.69031" lon="5.83239">
        <ele>387</ele>
        <time>2022-04-16T07:22:41.949Z</time>
      </trkpt>
      <trkpt lat="45.69033" lon="5.83232">
        <ele>387</ele>
        <time>2022-04-16T07:22:42.949Z</time>
      </trkpt>
      <trkpt lat="45.69036" lon="5.83226">
        <ele>386</ele>
        <time>2022-04-16T07:22:43.949Z</time>
      </trkpt>
      <trkpt lat="45.69041" lon="5.8322">
        <ele>386</ele>
        <time>2022-04-16T07:22:44.949Z</time>
      </trkpt>
      <trkpt lat="45.69046" lon="5.83215">
        <ele>386</ele>
        <time>2022-04-16T07:22:45.949Z</time>
      </trkpt>
      <trkpt lat="45.69052" lon="5.83211">
        <ele>386</ele>
        <time>2022-04-16T07:22:46.949Z</time>
      </trkpt>
      <trkpt lat="45.69059" lon="5.83207">
        <ele>386</ele>
        <time>2022-04-16T07:22:47.949Z</time>
      </trkpt>
      <trkpt lat="45.69066" lon="5.83206">
        <ele>386</ele>
        <time>2022-04-16T07:22:48.950Z</time>
      </trkpt>
      <trkpt lat="45.69073" lon="5.83205">
        <ele>386</ele>
        <time>2022-04-16T07:22:49.949Z</time>
      </trkpt>
      <trkpt lat="45.69079" lon="5.83205">
        <ele>385</ele>
        <time>2022-04-16T07:22:50.949Z</time>
      </trkpt>
      <trkpt lat="45.69086" lon="5.83205">
        <ele>385</ele>
        <time>2022-04-16T07:22:51.949Z</time>
      </trkpt>
      <trkpt lat="45.69093" lon="5.83205">
        <ele>385</ele>
        <time>2022-04-16T07:22:52.949Z</time>
      </trkpt>
      <trkpt lat="45.691" lon="5.83206">
        <ele>385</ele>
        <time>2022-04-16T07:22:53.950Z</time>
      </trkpt>
      <trkpt lat="45.69107" lon="5.83207">
        <ele>385</ele>
        <time>2022-04-16T07:22:54.949Z</time>
      </trkpt>
      <trkpt lat="45.69114" lon="5.83208">
        <ele>386</ele>
        <time>2022-04-16T07:22:55.950Z</time>
      </trkpt>
      <trkpt lat="45.69121" lon="5.83208">
        <ele>386</ele>
        <time>2022-04-16T07:22:56.949Z</time>
      </trkpt>
      <trkpt lat="45.69128" lon="5.83209">
        <ele>386</ele>
        <time>2022-04-16T07:22:57.949Z</time>
      </trkpt>
      <trkpt lat="45.69135" lon="5.8321">
        <ele>386</ele>
        <time>2022-04-16T07:22:58.949Z</time>
      </trkpt>
      <trkpt lat="45.69142" lon="5.83211">
        <ele>387</ele>
        <time>2022-04-16T07:22:59.950Z</time>
      </trkpt>
      <trkpt lat="45.69148" lon="5.83212">
        <ele>387</ele>
        <time>2022-04-16T07:23:00.949Z</time>
      </trkpt>
      <trkpt lat="45.69155" lon="5.83213">
        <ele>387</ele>
        <time>2022-04-16T07:23:01.950Z</time>
      </trkpt>
      <trkpt lat="45.69162" lon="5.83214">
        <ele>387</ele>
        <time>2022-04-16T07:23:02.949Z</time>
      </trkpt>
      <trkpt lat="45.69169" lon="5.83215">
        <ele>387</ele>
        <time>2022-04-16T07:23:03.949Z</time>
      </trkpt>
      <trkpt lat="45.69175" lon="5.83215">
        <ele>387</ele>
        <time>2022-04-16T07:23:04.950Z</time>
      </trkpt>
      <trkpt lat="45.69182" lon="5.83216">
        <ele>387</ele>
        <time>2022-04-16T07:23:05.949Z</time>
      </trkpt>
      <trkpt lat="45.69189" lon="5.83218">
        <ele>387</ele>
        <time>2022-04-16T07:23:06.949Z</time>
      </trkpt>
      <trkpt lat="45.69195" lon="5.83219">
        <ele>387</ele>
        <time>2022-04-16T07:23:07.949Z</time>
      </trkpt>
      <trkpt lat="45.69202" lon="5.8322">
        <ele>387</ele>
        <time>2022-04-16T07:23:08.950Z</time>
      </trkpt>
      <trkpt lat="45.69209" lon="5.83221">
        <ele>387</ele>
        <time>2022-04-16T07:23:09.949Z</time>
      </trkpt>
      <trkpt lat="45.69216" lon="5.83222">
        <ele>386</ele>
        <time>2022-04-16T07:23:10.949Z</time>
      </trkpt>
      <trkpt lat="45.69223" lon="5.83223">
        <ele>386</ele>
        <time>2022-04-16T07:23:11.949Z</time>
      </trkpt>
      <trkpt lat="45.6923" lon="5.83224">
        <ele>386</ele>
        <time>2022-04-16T07:23:12.949Z</time>
      </trkpt>
      <trkpt lat="45.69237" lon="5.83225">
        <ele>386</ele>
        <time>2022-04-16T07:23:13.950Z</time>
      </trkpt>
      <trkpt lat="45.69244" lon="5.83225">
        <ele>386</ele>
        <time>2022-04-16T07:23:14.950Z</time>
      </trkpt>
      <trkpt lat="45.69251" lon="5.83224">
        <ele>386</ele>
        <time>2022-04-16T07:23:15.949Z</time>
      </trkpt>
      <trkpt lat="45.69258" lon="5.83223">
        <ele>386</ele>
        <time>2022-04-16T07:23:16.949Z</time>
      </trkpt>
      <trkpt lat="45.69264" lon="5.8322">
        <ele>386</ele>
        <time>2022-04-16T07:23:17.950Z</time>
      </trkpt>
      <trkpt lat="45.69271" lon="5.83216">
        <ele>386</ele>
        <time>2022-04-16T07:23:18.949Z</time>
      </trkpt>
      <trkpt lat="45.69278" lon="5.83212">
        <ele>386</ele>
        <time>2022-04-16T07:23:19.949Z</time>
      </trkpt>
      <trkpt lat="45.69284" lon="5.83207">
        <ele>386</ele>
        <time>2022-04-16T07:23:20.949Z</time>
      </trkpt>
      <trkpt lat="45.69291" lon="5.83202">
        <ele>386</ele>
        <time>2022-04-16T07:23:21.949Z</time>
      </trkpt>
      <trkpt lat="45.69297" lon="5.83197">
        <ele>386</ele>
        <time>2022-04-16T07:23:22.949Z</time>
      </trkpt>
      <trkpt lat="45.69303" lon="5.83192">
        <ele>386</ele>
        <time>2022-04-16T07:23:23.949Z</time>
      </trkpt>
      <trkpt lat="45.69308" lon="5.83186">
        <ele>386</ele>
        <time>2022-04-16T07:23:24.949Z</time>
      </trkpt>
      <trkpt lat="45.69313" lon="5.83178">
        <ele>386</ele>
        <time>2022-04-16T07:23:25.949Z</time>
      </trkpt>
      <trkpt lat="45.69317" lon="5.83169">
        <ele>386</ele>
        <time>2022-04-16T07:23:26.949Z</time>
      </trkpt>
      <trkpt lat="45.6932" lon="5.83159">
        <ele>386</ele>
        <time>2022-04-16T07:23:27.949Z</time>
      </trkpt>
      <trkpt lat="45.69323" lon="5.83149">
        <ele>385</ele>
        <time>2022-04-16T07:23:28.949Z</time>
      </trkpt>
      <trkpt lat="45.69326" lon="5.83139">
        <ele>385</ele>
        <time>2022-04-16T07:23:29.949Z</time>
      </trkpt>
      <trkpt lat="45.69329" lon="5.83128">
        <ele>385</ele>
        <time>2022-04-16T07:23:30.949Z</time>
      </trkpt>
      <trkpt lat="45.69331" lon="5.83116">
        <ele>385</ele>
        <time>2022-04-16T07:23:31.950Z</time>
      </trkpt>
      <trkpt lat="45.69334" lon="5.83105">
        <ele>384</ele>
        <time>2022-04-16T07:23:32.949Z</time>
      </trkpt>
      <trkpt lat="45.69336" lon="5.83093">
        <ele>384</ele>
        <time>2022-04-16T07:23:33.949Z</time>
      </trkpt>
      <trkpt lat="45.69339" lon="5.83082">
        <ele>384</ele>
        <time>2022-04-16T07:23:34.950Z</time>
      </trkpt>
      <trkpt lat="45.69342" lon="5.8307">
        <ele>384</ele>
        <time>2022-04-16T07:23:35.950Z</time>
      </trkpt>
      <trkpt lat="45.69345" lon="5.83058">
        <ele>384</ele>
        <time>2022-04-16T07:23:36.949Z</time>
      </trkpt>
      <trkpt lat="45.69348" lon="5.83047">
        <ele>383</ele>
        <time>2022-04-16T07:23:37.950Z</time>
      </trkpt>
      <trkpt lat="45.69351" lon="5.83035">
        <ele>383</ele>
        <time>2022-04-16T07:23:38.949Z</time>
      </trkpt>
      <trkpt lat="45.69354" lon="5.83023">
        <ele>382</ele>
        <time>2022-04-16T07:23:39.949Z</time>
      </trkpt>
      <trkpt lat="45.69355" lon="5.83012">
        <ele>382</ele>
        <time>2022-04-16T07:23:40.949Z</time>
      </trkpt>
      <trkpt lat="45.69356" lon="5.83">
        <ele>382</ele>
        <time>2022-04-16T07:23:41.949Z</time>
      </trkpt>
      <trkpt lat="45.69355" lon="5.82988">
        <ele>382</ele>
        <time>2022-04-16T07:23:42.949Z</time>
      </trkpt>
      <trkpt lat="45.69352" lon="5.82976">
        <ele>382</ele>
        <time>2022-04-16T07:23:43.949Z</time>
      </trkpt>
      <trkpt lat="45.69347" lon="5.82966">
        <ele>382</ele>
        <time>2022-04-16T07:23:44.949Z</time>
      </trkpt>
      <trkpt lat="45.69341" lon="5.82957">
        <ele>382</ele>
        <time>2022-04-16T07:23:45.950Z</time>
      </trkpt>
      <trkpt lat="45.69334" lon="5.82949">
        <ele>382</ele>
        <time>2022-04-16T07:23:46.949Z</time>
      </trkpt>
      <trkpt lat="45.69326" lon="5.82944">
        <ele>382</ele>
        <time>2022-04-16T07:23:47.949Z</time>
      </trkpt>
      <trkpt lat="45.69318" lon="5.82939">
        <ele>382</ele>
        <time>2022-04-16T07:23:48.949Z</time>
      </trkpt>
      <trkpt lat="45.69309" lon="5.82937">
        <ele>382</ele>
        <time>2022-04-16T07:23:49.950Z</time>
      </trkpt>
      <trkpt lat="45.693" lon="5.82936">
        <ele>381</ele>
        <time>2022-04-16T07:23:50.950Z</time>
      </trkpt>
      <trkpt lat="45.69291" lon="5.82935">
        <ele>381</ele>
        <time>2022-04-16T07:23:51.949Z</time>
      </trkpt>
      <trkpt lat="45.69282" lon="5.82934">
        <ele>380</ele>
        <time>2022-04-16T07:23:52.949Z</time>
      </trkpt>
      <trkpt lat="45.69282" lon="5.82934">
        <ele>380</ele>
        <time>2022-04-16T07:23:53.949Z</time>
      </trkpt>
      <trkpt lat="45.69264" lon="5.82931">
        <ele>380</ele>
        <time>2022-04-16T07:23:54.950Z</time>
      </trkpt>
      <trkpt lat="45.69255" lon="5.82929">
        <ele>379</ele>
        <time>2022-04-16T07:23:55.949Z</time>
      </trkpt>
      <trkpt lat="45.69246" lon="5.82928">
        <ele>379</ele>
        <time>2022-04-16T07:23:56.949Z</time>
      </trkpt>
      <trkpt lat="45.69237" lon="5.82925">
        <ele>378</ele>
        <time>2022-04-16T07:23:57.949Z</time>
      </trkpt>
      <trkpt lat="45.69229" lon="5.82922">
        <ele>378</ele>
        <time>2022-04-16T07:23:58.950Z</time>
      </trkpt>
      <trkpt lat="45.6922" lon="5.82919">
        <ele>378</ele>
        <time>2022-04-16T07:23:59.950Z</time>
      </trkpt>
      <trkpt lat="45.69212" lon="5.82915">
        <ele>378</ele>
        <time>2022-04-16T07:24:00.949Z</time>
      </trkpt>
      <trkpt lat="45.69205" lon="5.82909">
        <ele>377</ele>
        <time>2022-04-16T07:24:01.949Z</time>
      </trkpt>
      <trkpt lat="45.69198" lon="5.82902">
        <ele>377</ele>
        <time>2022-04-16T07:24:02.949Z</time>
      </trkpt>
      <trkpt lat="45.69192" lon="5.82894">
        <ele>377</ele>
        <time>2022-04-16T07:24:03.949Z</time>
      </trkpt>
      <trkpt lat="45.69186" lon="5.82886">
        <ele>376</ele>
        <time>2022-04-16T07:24:04.949Z</time>
      </trkpt>
      <trkpt lat="45.6918" lon="5.82877">
        <ele>375</ele>
        <time>2022-04-16T07:24:05.950Z</time>
      </trkpt>
      <trkpt lat="45.69175" lon="5.82867">
        <ele>375</ele>
        <time>2022-04-16T07:24:06.949Z</time>
      </trkpt>
      <trkpt lat="45.6917" lon="5.82856">
        <ele>374</ele>
        <time>2022-04-16T07:24:07.949Z</time>
      </trkpt>
      <trkpt lat="45.69166" lon="5.82846">
        <ele>373</ele>
        <time>2022-04-16T07:24:08.949Z</time>
      </trkpt>
      <trkpt lat="45.69163" lon="5.82835">
        <ele>373</ele>
        <time>2022-04-16T07:24:09.950Z</time>
      </trkpt>
      <trkpt lat="45.6916" lon="5.82824">
        <ele>372</ele>
        <time>2022-04-16T07:24:10.949Z</time>
      </trkpt>
      <trkpt lat="45.69157" lon="5.82813">
        <ele>371</ele>
        <time>2022-04-16T07:24:11.949Z</time>
      </trkpt>
      <trkpt lat="45.69154" lon="5.82802">
        <ele>371</ele>
        <time>2022-04-16T07:24:12.949Z</time>
      </trkpt>
      <trkpt lat="45.69152" lon="5.82791">
        <ele>371</ele>
        <time>2022-04-16T07:24:13.949Z</time>
      </trkpt>
      <trkpt lat="45.69149" lon="5.8278">
        <ele>371</ele>
        <time>2022-04-16T07:24:14.949Z</time>
      </trkpt>
      <trkpt lat="45.69146" lon="5.82769">
        <ele>371</ele>
        <time>2022-04-16T07:24:15.949Z</time>
      </trkpt>
      <trkpt lat="45.69143" lon="5.82758">
        <ele>371</ele>
        <time>2022-04-16T07:24:16.949Z</time>
      </trkpt>
      <trkpt lat="45.6914" lon="5.82746">
        <ele>371</ele>
        <time>2022-04-16T07:24:17.949Z</time>
      </trkpt>
      <trkpt lat="45.69137" lon="5.82735">
        <ele>370</ele>
        <time>2022-04-16T07:24:18.949Z</time>
      </trkpt>
      <trkpt lat="45.69133" lon="5.82724">
        <ele>370</ele>
        <time>2022-04-16T07:24:19.949Z</time>
      </trkpt>
      <trkpt lat="45.6913" lon="5.82713">
        <ele>369</ele>
        <time>2022-04-16T07:24:20.949Z</time>
      </trkpt>
      <trkpt lat="45.69126" lon="5.82702">
        <ele>369</ele>
        <time>2022-04-16T07:24:21.950Z</time>
      </trkpt>
      <trkpt lat="45.69122" lon="5.82691">
        <ele>369</ele>
        <time>2022-04-16T07:24:22.949Z</time>
      </trkpt>
      <trkpt lat="45.69118" lon="5.8268">
        <ele>369</ele>
        <time>2022-04-16T07:24:23.949Z</time>
      </trkpt>
      <trkpt lat="45.69113" lon="5.8267">
        <ele>369</ele>
        <time>2022-04-16T07:24:24.949Z</time>
      </trkpt>
      <trkpt lat="45.69108" lon="5.8266">
        <ele>369</ele>
        <time>2022-04-16T07:24:25.949Z</time>
      </trkpt>
      <trkpt lat="45.69103" lon="5.82649">
        <ele>369</ele>
        <time>2022-04-16T07:24:26.949Z</time>
      </trkpt>
      <trkpt lat="45.69098" lon="5.82639">
        <ele>369</ele>
        <time>2022-04-16T07:24:27.949Z</time>
      </trkpt>
      <trkpt lat="45.69092" lon="5.8263">
        <ele>369</ele>
        <time>2022-04-16T07:24:28.950Z</time>
      </trkpt>
      <trkpt lat="45.69086" lon="5.8262">
        <ele>368</ele>
        <time>2022-04-16T07:24:29.949Z</time>
      </trkpt>
      <trkpt lat="45.6908" lon="5.82611">
        <ele>367</ele>
        <time>2022-04-16T07:24:30.949Z</time>
      </trkpt>
      <trkpt lat="45.69073" lon="5.82603">
        <ele>366</ele>
        <time>2022-04-16T07:24:31.949Z</time>
      </trkpt>
      <trkpt lat="45.69066" lon="5.82595">
        <ele>366</ele>
        <time>2022-04-16T07:24:32.950Z</time>
      </trkpt>
      <trkpt lat="45.69059" lon="5.82588">
        <ele>365</ele>
        <time>2022-04-16T07:24:33.950Z</time>
      </trkpt>
      <trkpt lat="45.69051" lon="5.82581">
        <ele>364</ele>
        <time>2022-04-16T07:24:34.949Z</time>
      </trkpt>
      <trkpt lat="45.69043" lon="5.82575">
        <ele>363</ele>
        <time>2022-04-16T07:24:35.950Z</time>
      </trkpt>
      <trkpt lat="45.69035" lon="5.8257">
        <ele>362</ele>
        <time>2022-04-16T07:24:36.950Z</time>
      </trkpt>
      <trkpt lat="45.69026" lon="5.82565">
        <ele>361</ele>
        <time>2022-04-16T07:24:37.949Z</time>
      </trkpt>
      <trkpt lat="45.69018" lon="5.8256">
        <ele>360</ele>
        <time>2022-04-16T07:24:38.949Z</time>
      </trkpt>
      <trkpt lat="45.69009" lon="5.82555">
        <ele>360</ele>
        <time>2022-04-16T07:24:39.949Z</time>
      </trkpt>
      <trkpt lat="45.69" lon="5.82551">
        <ele>360</ele>
        <time>2022-04-16T07:24:40.950Z</time>
      </trkpt>
      <trkpt lat="45.68991" lon="5.82547">
        <ele>359</ele>
        <time>2022-04-16T07:24:41.949Z</time>
      </trkpt>
      <trkpt lat="45.68983" lon="5.82542">
        <ele>359</ele>
        <time>2022-04-16T07:24:42.949Z</time>
      </trkpt>
      <trkpt lat="45.68974" lon="5.82538">
        <ele>358</ele>
        <time>2022-04-16T07:24:43.949Z</time>
      </trkpt>
      <trkpt lat="45.68966" lon="5.82533">
        <ele>358</ele>
        <time>2022-04-16T07:24:44.949Z</time>
      </trkpt>
      <trkpt lat="45.68958" lon="5.82529">
        <ele>357</ele>
        <time>2022-04-16T07:24:45.949Z</time>
      </trkpt>
      <trkpt lat="45.68958" lon="5.82529">
        <ele>357</ele>
        <time>2022-04-16T07:24:46.949Z</time>
      </trkpt>
      <trkpt lat="45.68949" lon="5.82523">
        <ele>356</ele>
        <time>2022-04-16T07:24:47.949Z</time>
      </trkpt>
      <trkpt lat="45.68934" lon="5.82509">
        <ele>355</ele>
        <time>2022-04-16T07:24:48.949Z</time>
      </trkpt>
      <trkpt lat="45.68927" lon="5.82501">
        <ele>354</ele>
        <time>2022-04-16T07:24:49.950Z</time>
      </trkpt>
      <trkpt lat="45.68921" lon="5.82491">
        <ele>353</ele>
        <time>2022-04-16T07:24:50.949Z</time>
      </trkpt>
      <trkpt lat="45.68916" lon="5.82481">
        <ele>353</ele>
        <time>2022-04-16T07:24:51.949Z</time>
      </trkpt>
      <trkpt lat="45.6891" lon="5.8247">
        <ele>352</ele>
        <time>2022-04-16T07:24:52.949Z</time>
      </trkpt>
      <trkpt lat="45.68906" lon="5.82458">
        <ele>352</ele>
        <time>2022-04-16T07:24:53.949Z</time>
      </trkpt>
      <trkpt lat="45.68902" lon="5.82446">
        <ele>351</ele>
        <time>2022-04-16T07:24:54.949Z</time>
      </trkpt>
      <trkpt lat="45.68899" lon="5.82434">
        <ele>351</ele>
        <time>2022-04-16T07:24:55.949Z</time>
      </trkpt>
      <trkpt lat="45.68895" lon="5.82421">
        <ele>351</ele>
        <time>2022-04-16T07:24:56.950Z</time>
      </trkpt>
      <trkpt lat="45.68892" lon="5.82409">
        <ele>351</ele>
        <time>2022-04-16T07:24:57.950Z</time>
      </trkpt>
      <trkpt lat="45.68889" lon="5.82396">
        <ele>350</ele>
        <time>2022-04-16T07:24:58.949Z</time>
      </trkpt>
      <trkpt lat="45.68886" lon="5.82383">
        <ele>350</ele>
        <time>2022-04-16T07:24:59.950Z</time>
      </trkpt>
      <trkpt lat="45.68884" lon="5.8237">
        <ele>350</ele>
        <time>2022-04-16T07:25:00.949Z</time>
      </trkpt>
      <trkpt lat="45.68881" lon="5.82357">
        <ele>350</ele>
        <time>2022-04-16T07:25:01.949Z</time>
      </trkpt>
      <trkpt lat="45.68879" lon="5.82343">
        <ele>350</ele>
        <time>2022-04-16T07:25:02.949Z</time>
      </trkpt>
      <trkpt lat="45.68878" lon="5.82329">
        <ele>349</ele>
        <time>2022-04-16T07:25:03.949Z</time>
      </trkpt>
      <trkpt lat="45.68878" lon="5.82315">
        <ele>349</ele>
        <time>2022-04-16T07:25:04.949Z</time>
      </trkpt>
      <trkpt lat="45.6888" lon="5.82301">
        <ele>348</ele>
        <time>2022-04-16T07:25:05.949Z</time>
      </trkpt>
      <trkpt lat="45.68883" lon="5.82287">
        <ele>347</ele>
        <time>2022-04-16T07:25:06.950Z</time>
      </trkpt>
      <trkpt lat="45.68887" lon="5.82273">
        <ele>346</ele>
        <time>2022-04-16T07:25:07.950Z</time>
      </trkpt>
      <trkpt lat="45.68893" lon="5.8226">
        <ele>345</ele>
        <time>2022-04-16T07:25:08.950Z</time>
      </trkpt>
      <trkpt lat="45.68899" lon="5.82247">
        <ele>344</ele>
        <time>2022-04-16T07:25:09.950Z</time>
      </trkpt>
      <trkpt lat="45.68905" lon="5.82234">
        <ele>343</ele>
        <time>2022-04-16T07:25:10.950Z</time>
      </trkpt>
      <trkpt lat="45.68912" lon="5.82221">
        <ele>341</ele>
        <time>2022-04-16T07:25:11.950Z</time>
      </trkpt>
      <trkpt lat="45.68919" lon="5.82208">
        <ele>340</ele>
        <time>2022-04-16T07:25:12.950Z</time>
      </trkpt>
      <trkpt lat="45.68919" lon="5.82208">
        <ele>340</ele>
        <time>2022-04-16T07:25:13.949Z</time>
      </trkpt>
      <trkpt lat="45.68933" lon="5.82184">
        <ele>338</ele>
        <time>2022-04-16T07:25:14.949Z</time>
      </trkpt>
      <trkpt lat="45.6894" lon="5.82172">
        <ele>338</ele>
        <time>2022-04-16T07:25:15.949Z</time>
      </trkpt>
      <trkpt lat="45.68946" lon="5.8216">
        <ele>338</ele>
        <time>2022-04-16T07:25:16.949Z</time>
      </trkpt>
      <trkpt lat="45.68952" lon="5.82148">
        <ele>338</ele>
        <time>2022-04-16T07:25:17.949Z</time>
      </trkpt>
      <trkpt lat="45.68959" lon="5.82136">
        <ele>337</ele>
        <time>2022-04-16T07:25:18.949Z</time>
      </trkpt>
      <trkpt lat="45.68966" lon="5.82124">
        <ele>336</ele>
        <time>2022-04-16T07:25:19.949Z</time>
      </trkpt>
      <trkpt lat="45.68972" lon="5.82113">
        <ele>336</ele>
        <time>2022-04-16T07:25:20.949Z</time>
      </trkpt>
      <trkpt lat="45.68979" lon="5.82101">
        <ele>335</ele>
        <time>2022-04-16T07:25:21.949Z</time>
      </trkpt>
      <trkpt lat="45.68985" lon="5.82087">
        <ele>334</ele>
        <time>2022-04-16T07:25:22.949Z</time>
      </trkpt>
      <trkpt lat="45.68991" lon="5.82075">
        <ele>333</ele>
        <time>2022-04-16T07:25:23.949Z</time>
      </trkpt>
      <trkpt lat="45.68991" lon="5.82075">
        <ele>333</ele>
        <time>2022-04-16T07:25:24.949Z</time>
      </trkpt>
      <trkpt lat="45.69004" lon="5.82051">
        <ele>331</ele>
        <time>2022-04-16T07:25:25.950Z</time>
      </trkpt>
      <trkpt lat="45.6901" lon="5.82039">
        <ele>330</ele>
        <time>2022-04-16T07:25:26.950Z</time>
      </trkpt>
      <trkpt lat="45.69016" lon="5.82027">
        <ele>329</ele>
        <time>2022-04-16T07:25:27.949Z</time>
      </trkpt>
      <trkpt lat="45.69016" lon="5.82027">
        <ele>329</ele>
        <time>2022-04-16T07:25:28.949Z</time>
      </trkpt>
      <trkpt lat="45.69029" lon="5.82002">
        <ele>327</ele>
        <time>2022-04-16T07:25:29.949Z</time>
      </trkpt>
      <trkpt lat="45.69034" lon="5.81992">
        <ele>326</ele>
        <time>2022-04-16T07:25:30.949Z</time>
      </trkpt>
      <trkpt lat="45.69042" lon="5.81977">
        <ele>326</ele>
        <time>2022-04-16T07:25:31.949Z</time>
      </trkpt>
      <trkpt lat="45.69048" lon="5.81964">
        <ele>325</ele>
        <time>2022-04-16T07:25:32.949Z</time>
      </trkpt>
      <trkpt lat="45.69053" lon="5.8195">
        <ele>324</ele>
        <time>2022-04-16T07:25:33.949Z</time>
      </trkpt>
      <trkpt lat="45.69058" lon="5.81937">
        <ele>323</ele>
        <time>2022-04-16T07:25:34.949Z</time>
      </trkpt>
      <trkpt lat="45.69062" lon="5.81923">
        <ele>322</ele>
        <time>2022-04-16T07:25:35.949Z</time>
      </trkpt>
      <trkpt lat="45.69066" lon="5.81909">
        <ele>321</ele>
        <time>2022-04-16T07:25:36.949Z</time>
      </trkpt>
      <trkpt lat="45.69068" lon="5.81893">
        <ele>320</ele>
        <time>2022-04-16T07:25:37.949Z</time>
      </trkpt>
      <trkpt lat="45.69071" lon="5.81878">
        <ele>319</ele>
        <time>2022-04-16T07:25:38.949Z</time>
      </trkpt>
      <trkpt lat="45.69072" lon="5.81863">
        <ele>318</ele>
        <time>2022-04-16T07:25:39.949Z</time>
      </trkpt>
      <trkpt lat="45.69072" lon="5.81863">
        <ele>318</ele>
        <time>2022-04-16T07:25:40.949Z</time>
      </trkpt>
      <trkpt lat="45.69074" lon="5.81832">
        <ele>317</ele>
        <time>2022-04-16T07:25:41.949Z</time>
      </trkpt>
      <trkpt lat="45.69073" lon="5.81816">
        <ele>316</ele>
        <time>2022-04-16T07:25:42.949Z</time>
      </trkpt>
      <trkpt lat="45.69072" lon="5.818">
        <ele>316</ele>
        <time>2022-04-16T07:25:43.950Z</time>
      </trkpt>
      <trkpt lat="45.69071" lon="5.81784">
        <ele>315</ele>
        <time>2022-04-16T07:25:44.949Z</time>
      </trkpt>
      <trkpt lat="45.69069" lon="5.81768">
        <ele>315</ele>
        <time>2022-04-16T07:25:45.949Z</time>
      </trkpt>
      <trkpt lat="45.69068" lon="5.81753">
        <ele>314</ele>
        <time>2022-04-16T07:25:46.949Z</time>
      </trkpt>
      <trkpt lat="45.69066" lon="5.81737">
        <ele>314</ele>
        <time>2022-04-16T07:25:47.949Z</time>
      </trkpt>
      <trkpt lat="45.69064" lon="5.81723">
        <ele>313</ele>
        <time>2022-04-16T07:25:48.950Z</time>
      </trkpt>
      <trkpt lat="45.69062" lon="5.81708">
        <ele>313</ele>
        <time>2022-04-16T07:25:49.949Z</time>
      </trkpt>
      <trkpt lat="45.69062" lon="5.81708">
        <ele>313</ele>
        <time>2022-04-16T07:25:50.949Z</time>
      </trkpt>
      <trkpt lat="45.69058" lon="5.8168">
        <ele>312</ele>
        <time>2022-04-16T07:25:51.949Z</time>
      </trkpt>
      <trkpt lat="45.69055" lon="5.81667">
        <ele>312</ele>
        <time>2022-04-16T07:25:52.949Z</time>
      </trkpt>
      <trkpt lat="45.69053" lon="5.81654">
        <ele>312</ele>
        <time>2022-04-16T07:25:53.949Z</time>
      </trkpt>
      <trkpt lat="45.6905" lon="5.81641">
        <ele>312</ele>
        <time>2022-04-16T07:25:54.949Z</time>
      </trkpt>
      <trkpt lat="45.69047" lon="5.81629">
        <ele>312</ele>
        <time>2022-04-16T07:25:55.949Z</time>
      </trkpt>
      <trkpt lat="45.69044" lon="5.81616">
        <ele>312</ele>
        <time>2022-04-16T07:25:56.949Z</time>
      </trkpt>
      <trkpt lat="45.69042" lon="5.81604">
        <ele>311</ele>
        <time>2022-04-16T07:25:57.949Z</time>
      </trkpt>
      <trkpt lat="45.69042" lon="5.81604">
        <ele>311</ele>
        <time>2022-04-16T07:25:58.949Z</time>
      </trkpt>
      <trkpt lat="45.69039" lon="5.8158">
        <ele>311</ele>
        <time>2022-04-16T07:25:59.949Z</time>
      </trkpt>
      <trkpt lat="45.69039" lon="5.81568">
        <ele>310</ele>
        <time>2022-04-16T07:26:00.949Z</time>
      </trkpt>
      <trkpt lat="45.69039" lon="5.81556">
        <ele>310</ele>
        <time>2022-04-16T07:26:01.949Z</time>
      </trkpt>
      <trkpt lat="45.69041" lon="5.81544">
        <ele>309</ele>
        <time>2022-04-16T07:26:02.949Z</time>
      </trkpt>
      <trkpt lat="45.69042" lon="5.81531">
        <ele>308</ele>
        <time>2022-04-16T07:26:03.949Z</time>
      </trkpt>
      <trkpt lat="45.69044" lon="5.81519">
        <ele>307</ele>
        <time>2022-04-16T07:26:04.949Z</time>
      </trkpt>
      <trkpt lat="45.69045" lon="5.81507">
        <ele>306</ele>
        <time>2022-04-16T07:26:05.949Z</time>
      </trkpt>
      <trkpt lat="45.69047" lon="5.81495">
        <ele>306</ele>
        <time>2022-04-16T07:26:06.949Z</time>
      </trkpt>
      <trkpt lat="45.6905" lon="5.81483">
        <ele>305</ele>
        <time>2022-04-16T07:26:07.949Z</time>
      </trkpt>
      <trkpt lat="45.6905" lon="5.81483">
        <ele>305</ele>
        <time>2022-04-16T07:26:08.950Z</time>
      </trkpt>
      <trkpt lat="45.69058" lon="5.8146">
        <ele>304</ele>
        <time>2022-04-16T07:26:09.949Z</time>
      </trkpt>
      <trkpt lat="45.69062" lon="5.81449">
        <ele>304</ele>
        <time>2022-04-16T07:26:10.949Z</time>
      </trkpt>
      <trkpt lat="45.69066" lon="5.8144">
        <ele>304</ele>
        <time>2022-04-16T07:26:11.949Z</time>
      </trkpt>
      <trkpt lat="45.69072" lon="5.81428">
        <ele>304</ele>
        <time>2022-04-16T07:26:12.950Z</time>
      </trkpt>
      <trkpt lat="45.69077" lon="5.81418">
        <ele>304</ele>
        <time>2022-04-16T07:26:13.950Z</time>
      </trkpt>
      <trkpt lat="45.69082" lon="5.81408">
        <ele>303</ele>
        <time>2022-04-16T07:26:14.949Z</time>
      </trkpt>
      <trkpt lat="45.69088" lon="5.81399">
        <ele>303</ele>
        <time>2022-04-16T07:26:15.949Z</time>
      </trkpt>
      <trkpt lat="45.69093" lon="5.8139">
        <ele>302</ele>
        <time>2022-04-16T07:26:16.949Z</time>
      </trkpt>
      <trkpt lat="45.69093" lon="5.8139">
        <ele>302</ele>
        <time>2022-04-16T07:26:17.949Z</time>
      </trkpt>
      <trkpt lat="45.69104" lon="5.81372">
        <ele>302</ele>
        <time>2022-04-16T07:26:18.949Z</time>
      </trkpt>
      <trkpt lat="45.69104" lon="5.81372">
        <ele>302</ele>
        <time>2022-04-16T07:26:19.950Z</time>
      </trkpt>
      <trkpt lat="45.69113" lon="5.81354">
        <ele>301</ele>
        <time>2022-04-16T07:26:20.949Z</time>
      </trkpt>
      <trkpt lat="45.69118" lon="5.81346">
        <ele>301</ele>
        <time>2022-04-16T07:26:21.949Z</time>
      </trkpt>
      <trkpt lat="45.69123" lon="5.81338">
        <ele>301</ele>
        <time>2022-04-16T07:26:22.949Z</time>
      </trkpt>
      <trkpt lat="45.69123" lon="5.81338">
        <ele>301</ele>
        <time>2022-04-16T07:26:23.949Z</time>
      </trkpt>
      <trkpt lat="45.69131" lon="5.81321">
        <ele>300</ele>
        <time>2022-04-16T07:26:24.949Z</time>
      </trkpt>
      <trkpt lat="45.69136" lon="5.81313">
        <ele>300</ele>
        <time>2022-04-16T07:26:25.949Z</time>
      </trkpt>
      <trkpt lat="45.6914" lon="5.81305">
        <ele>299</ele>
        <time>2022-04-16T07:26:26.949Z</time>
      </trkpt>
      <trkpt lat="45.6914" lon="5.81305">
        <ele>299</ele>
        <time>2022-04-16T07:26:27.949Z</time>
      </trkpt>
      <trkpt lat="45.69147" lon="5.8129">
        <ele>299</ele>
        <time>2022-04-16T07:26:28.949Z</time>
      </trkpt>
      <trkpt lat="45.69147" lon="5.8129">
        <ele>299</ele>
        <time>2022-04-16T07:26:29.949Z</time>
      </trkpt>
      <trkpt lat="45.69155" lon="5.81277">
        <ele>298</ele>
        <time>2022-04-16T07:26:30.949Z</time>
      </trkpt>
      <trkpt lat="45.69159" lon="5.8127">
        <ele>298</ele>
        <time>2022-04-16T07:26:31.950Z</time>
      </trkpt>
      <trkpt lat="45.69159" lon="5.8127">
        <ele>298</ele>
        <time>2022-04-16T07:26:32.949Z</time>
      </trkpt>
      <trkpt lat="45.69163" lon="5.81264">
        <ele>298</ele>
        <time>2022-04-16T07:26:33.949Z</time>
      </trkpt>
      <trkpt lat="45.6917" lon="5.81251">
        <ele>299</ele>
        <time>2022-04-16T07:26:34.950Z</time>
      </trkpt>
      <trkpt lat="45.6917" lon="5.81251">
        <ele>299</ele>
        <time>2022-04-16T07:26:35.949Z</time>
      </trkpt>
      <trkpt lat="45.69173" lon="5.81246">
        <ele>299</ele>
        <time>2022-04-16T07:26:36.949Z</time>
      </trkpt>
      <trkpt lat="45.6918" lon="5.81233">
        <ele>300</ele>
        <time>2022-04-16T07:26:37.949Z</time>
      </trkpt>
      <trkpt lat="45.69183" lon="5.81227">
        <ele>300</ele>
        <time>2022-04-16T07:26:38.949Z</time>
      </trkpt>
      <trkpt lat="45.69186" lon="5.81221">
        <ele>300</ele>
        <time>2022-04-16T07:26:39.950Z</time>
      </trkpt>
      <trkpt lat="45.69189" lon="5.81215">
        <ele>301</ele>
        <time>2022-04-16T07:26:40.949Z</time>
      </trkpt>
      <trkpt lat="45.69189" lon="5.81215">
        <ele>301</ele>
        <time>2022-04-16T07:26:41.949Z</time>
      </trkpt>
      <trkpt lat="45.69193" lon="5.81209">
        <ele>301</ele>
        <time>2022-04-16T07:26:42.949Z</time>
      </trkpt>
      <trkpt lat="45.69196" lon="5.81203">
        <ele>301</ele>
        <time>2022-04-16T07:26:43.949Z</time>
      </trkpt>
      <trkpt lat="45.69199" lon="5.81197">
        <ele>302</ele>
        <time>2022-04-16T07:26:44.949Z</time>
      </trkpt>
      <trkpt lat="45.69202" lon="5.81191">
        <ele>302</ele>
        <time>2022-04-16T07:26:45.949Z</time>
      </trkpt>
      <trkpt lat="45.69204" lon="5.81186">
        <ele>302</ele>
        <time>2022-04-16T07:26:46.949Z</time>
      </trkpt>
      <trkpt lat="45.69208" lon="5.8118">
        <ele>302</ele>
        <time>2022-04-16T07:26:47.949Z</time>
      </trkpt>
      <trkpt lat="45.69212" lon="5.81173">
        <ele>303</ele>
        <time>2022-04-16T07:26:48.950Z</time>
      </trkpt>
      <trkpt lat="45.69215" lon="5.81167">
        <ele>303</ele>
        <time>2022-04-16T07:26:49.949Z</time>
      </trkpt>
      <trkpt lat="45.6922" lon="5.81155">
        <ele>304</ele>
        <time>2022-04-16T07:26:50.949Z</time>
      </trkpt>
      <trkpt lat="45.6922" lon="5.81155">
        <ele>304</ele>
        <time>2022-04-16T07:26:51.949Z</time>
      </trkpt>
      <trkpt lat="45.69228" lon="5.81141">
        <ele>305</ele>
        <time>2022-04-16T07:26:52.949Z</time>
      </trkpt>
      <trkpt lat="45.69231" lon="5.81135">
        <ele>305</ele>
        <time>2022-04-16T07:26:53.949Z</time>
      </trkpt>
      <trkpt lat="45.69231" lon="5.81135">
        <ele>305</ele>
        <time>2022-04-16T07:26:54.949Z</time>
      </trkpt>
      <trkpt lat="45.69237" lon="5.81123">
        <ele>306</ele>
        <time>2022-04-16T07:26:55.949Z</time>
      </trkpt>
      <trkpt lat="45.69237" lon="5.81123">
        <ele>306</ele>
        <time>2022-04-16T07:26:56.949Z</time>
      </trkpt>
      <trkpt lat="45.69241" lon="5.81117">
        <ele>306</ele>
        <time>2022-04-16T07:26:57.949Z</time>
      </trkpt>
      <trkpt lat="45.69245" lon="5.81108">
        <ele>305</ele>
        <time>2022-04-16T07:26:58.949Z</time>
      </trkpt>
      <trkpt lat="45.69251" lon="5.81096">
        <ele>304</ele>
        <time>2022-04-16T07:26:59.949Z</time>
      </trkpt>
      <trkpt lat="45.69255" lon="5.8109">
        <ele>305</ele>
        <time>2022-04-16T07:27:00.949Z</time>
      </trkpt>
      <trkpt lat="45.69255" lon="5.8109">
        <ele>305</ele>
        <time>2022-04-16T07:27:01.949Z</time>
      </trkpt>
      <trkpt lat="45.69262" lon="5.81075">
        <ele>306</ele>
        <time>2022-04-16T07:27:02.949Z</time>
      </trkpt>
      <trkpt lat="45.69266" lon="5.81068">
        <ele>306</ele>
        <time>2022-04-16T07:27:03.949Z</time>
      </trkpt>
      <trkpt lat="45.6927" lon="5.81061">
        <ele>306</ele>
        <time>2022-04-16T07:27:04.949Z</time>
      </trkpt>
      <trkpt lat="45.69273" lon="5.81054">
        <ele>306</ele>
        <time>2022-04-16T07:27:05.949Z</time>
      </trkpt>
      <trkpt lat="45.69273" lon="5.81054">
        <ele>306</ele>
        <time>2022-04-16T07:27:06.949Z</time>
      </trkpt>
      <trkpt lat="45.69277" lon="5.81047">
        <ele>306</ele>
        <time>2022-04-16T07:27:07.949Z</time>
      </trkpt>
      <trkpt lat="45.69283" lon="5.81034">
        <ele>307</ele>
        <time>2022-04-16T07:27:08.949Z</time>
      </trkpt>
      <trkpt lat="45.69283" lon="5.81034">
        <ele>307</ele>
        <time>2022-04-16T07:27:09.949Z</time>
      </trkpt>
      <trkpt lat="45.69287" lon="5.81027">
        <ele>308</ele>
        <time>2022-04-16T07:27:10.949Z</time>
      </trkpt>
      <trkpt lat="45.6929" lon="5.8102">
        <ele>308</ele>
        <time>2022-04-16T07:27:11.949Z</time>
      </trkpt>
      <trkpt lat="45.69294" lon="5.81014">
        <ele>309</ele>
        <time>2022-04-16T07:27:12.950Z</time>
      </trkpt>
      <trkpt lat="45.69297" lon="5.81007">
        <ele>309</ele>
        <time>2022-04-16T07:27:13.949Z</time>
      </trkpt>
      <trkpt lat="45.69304" lon="5.80994">
        <ele>310</ele>
        <time>2022-04-16T07:27:14.949Z</time>
      </trkpt>
      <trkpt lat="45.69304" lon="5.80994">
        <ele>310</ele>
        <time>2022-04-16T07:27:15.949Z</time>
      </trkpt>
      <trkpt lat="45.69307" lon="5.80987">
        <ele>310</ele>
        <time>2022-04-16T07:27:16.950Z</time>
      </trkpt>
      <trkpt lat="45.69311" lon="5.8098">
        <ele>311</ele>
        <time>2022-04-16T07:27:17.950Z</time>
      </trkpt>
      <trkpt lat="45.69315" lon="5.80973">
        <ele>310</ele>
        <time>2022-04-16T07:27:18.950Z</time>
      </trkpt>
      <trkpt lat="45.69318" lon="5.80967">
        <ele>310</ele>
        <time>2022-04-16T07:27:19.949Z</time>
      </trkpt>
      <trkpt lat="45.69322" lon="5.8096">
        <ele>310</ele>
        <time>2022-04-16T07:27:20.949Z</time>
      </trkpt>
      <trkpt lat="45.69324" lon="5.80954">
        <ele>310</ele>
        <time>2022-04-16T07:27:21.949Z</time>
      </trkpt>
      <trkpt lat="45.69328" lon="5.80948">
        <ele>311</ele>
        <time>2022-04-16T07:27:22.949Z</time>
      </trkpt>
      <trkpt lat="45.69332" lon="5.8094">
        <ele>311</ele>
        <time>2022-04-16T07:27:23.949Z</time>
      </trkpt>
      <trkpt lat="45.69336" lon="5.80933">
        <ele>311</ele>
        <time>2022-04-16T07:27:24.949Z</time>
      </trkpt>
      <trkpt lat="45.69339" lon="5.80927">
        <ele>311</ele>
        <time>2022-04-16T07:27:25.949Z</time>
      </trkpt>
      <trkpt lat="45.69341" lon="5.80921">
        <ele>311</ele>
        <time>2022-04-16T07:27:26.950Z</time>
      </trkpt>
      <trkpt lat="45.69345" lon="5.80914">
        <ele>311</ele>
        <time>2022-04-16T07:27:27.949Z</time>
      </trkpt>
      <trkpt lat="45.69348" lon="5.80908">
        <ele>311</ele>
        <time>2022-04-16T07:27:28.949Z</time>
      </trkpt>
      <trkpt lat="45.69352" lon="5.809">
        <ele>312</ele>
        <time>2022-04-16T07:27:29.949Z</time>
      </trkpt>
      <trkpt lat="45.69356" lon="5.80893">
        <ele>312</ele>
        <time>2022-04-16T07:27:30.949Z</time>
      </trkpt>
      <trkpt lat="45.69359" lon="5.80886">
        <ele>312</ele>
        <time>2022-04-16T07:27:31.949Z</time>
      </trkpt>
      <trkpt lat="45.69362" lon="5.80881">
        <ele>311</ele>
        <time>2022-04-16T07:27:32.949Z</time>
      </trkpt>
      <trkpt lat="45.69366" lon="5.80874">
        <ele>312</ele>
        <time>2022-04-16T07:27:33.950Z</time>
      </trkpt>
      <trkpt lat="45.69373" lon="5.8086">
        <ele>312</ele>
        <time>2022-04-16T07:27:34.949Z</time>
      </trkpt>
      <trkpt lat="45.69373" lon="5.8086">
        <ele>312</ele>
        <time>2022-04-16T07:27:35.949Z</time>
      </trkpt>
      <trkpt lat="45.69378" lon="5.80851">
        <ele>312</ele>
        <time>2022-04-16T07:27:36.949Z</time>
      </trkpt>
      <trkpt lat="45.69382" lon="5.80844">
        <ele>312</ele>
        <time>2022-04-16T07:27:37.949Z</time>
      </trkpt>
      <trkpt lat="45.69386" lon="5.80836">
        <ele>311</ele>
        <time>2022-04-16T07:27:38.949Z</time>
      </trkpt>
      <trkpt lat="45.6939" lon="5.80828">
        <ele>311</ele>
        <time>2022-04-16T07:27:39.949Z</time>
      </trkpt>
      <trkpt lat="45.69394" lon="5.8082">
        <ele>311</ele>
        <time>2022-04-16T07:27:40.949Z</time>
      </trkpt>
      <trkpt lat="45.69398" lon="5.80813">
        <ele>311</ele>
        <time>2022-04-16T07:27:41.950Z</time>
      </trkpt>
      <trkpt lat="45.69402" lon="5.80807">
        <ele>311</ele>
        <time>2022-04-16T07:27:42.949Z</time>
      </trkpt>
      <trkpt lat="45.69406" lon="5.80799">
        <ele>311</ele>
        <time>2022-04-16T07:27:43.949Z</time>
      </trkpt>
      <trkpt lat="45.69411" lon="5.80789">
        <ele>310</ele>
        <time>2022-04-16T07:27:44.949Z</time>
      </trkpt>
      <trkpt lat="45.69415" lon="5.80781">
        <ele>310</ele>
        <time>2022-04-16T07:27:45.949Z</time>
      </trkpt>
      <trkpt lat="45.69419" lon="5.80773">
        <ele>310</ele>
        <time>2022-04-16T07:27:46.950Z</time>
      </trkpt>
      <trkpt lat="45.69423" lon="5.80765">
        <ele>310</ele>
        <time>2022-04-16T07:27:47.949Z</time>
      </trkpt>
      <trkpt lat="45.69427" lon="5.80757">
        <ele>310</ele>
        <time>2022-04-16T07:27:48.949Z</time>
      </trkpt>
      <trkpt lat="45.69432" lon="5.80748">
        <ele>310</ele>
        <time>2022-04-16T07:27:49.949Z</time>
      </trkpt>
      <trkpt lat="45.69436" lon="5.8074">
        <ele>310</ele>
        <time>2022-04-16T07:27:50.949Z</time>
      </trkpt>
      <trkpt lat="45.6944" lon="5.80732">
        <ele>309</ele>
        <time>2022-04-16T07:27:51.950Z</time>
      </trkpt>
      <trkpt lat="45.69444" lon="5.80725">
        <ele>309</ele>
        <time>2022-04-16T07:27:52.949Z</time>
      </trkpt>
      <trkpt lat="45.69448" lon="5.80716">
        <ele>309</ele>
        <time>2022-04-16T07:27:53.949Z</time>
      </trkpt>
      <trkpt lat="45.69454" lon="5.80706">
        <ele>308</ele>
        <time>2022-04-16T07:27:54.950Z</time>
      </trkpt>
      <trkpt lat="45.69458" lon="5.80697">
        <ele>308</ele>
        <time>2022-04-16T07:27:55.949Z</time>
      </trkpt>
      <trkpt lat="45.69462" lon="5.80689">
        <ele>308</ele>
        <time>2022-04-16T07:27:56.950Z</time>
      </trkpt>
      <trkpt lat="45.69466" lon="5.80682">
        <ele>308</ele>
        <time>2022-04-16T07:27:57.949Z</time>
      </trkpt>
      <trkpt lat="45.69471" lon="5.80673">
        <ele>308</ele>
        <time>2022-04-16T07:27:58.949Z</time>
      </trkpt>
      <trkpt lat="45.69476" lon="5.80662">
        <ele>308</ele>
        <time>2022-04-16T07:27:59.950Z</time>
      </trkpt>
      <trkpt lat="45.69481" lon="5.80654">
        <ele>308</ele>
        <time>2022-04-16T07:28:00.950Z</time>
      </trkpt>
      <trkpt lat="45.69485" lon="5.80645">
        <ele>307</ele>
        <time>2022-04-16T07:28:01.949Z</time>
      </trkpt>
      <trkpt lat="45.69489" lon="5.80638">
        <ele>307</ele>
        <time>2022-04-16T07:28:02.950Z</time>
      </trkpt>
      <trkpt lat="45.69493" lon="5.8063">
        <ele>307</ele>
        <time>2022-04-16T07:28:03.950Z</time>
      </trkpt>
      <trkpt lat="45.69498" lon="5.80621">
        <ele>307</ele>
        <time>2022-04-16T07:28:04.949Z</time>
      </trkpt>
      <trkpt lat="45.69503" lon="5.80611">
        <ele>307</ele>
        <time>2022-04-16T07:28:05.949Z</time>
      </trkpt>
      <trkpt lat="45.69507" lon="5.80602">
        <ele>307</ele>
        <time>2022-04-16T07:28:06.949Z</time>
      </trkpt>
      <trkpt lat="45.69511" lon="5.80595">
        <ele>307</ele>
        <time>2022-04-16T07:28:07.950Z</time>
      </trkpt>
      <trkpt lat="45.69516" lon="5.80585">
        <ele>306</ele>
        <time>2022-04-16T07:28:08.949Z</time>
      </trkpt>
      <trkpt lat="45.6952" lon="5.80576">
        <ele>306</ele>
        <time>2022-04-16T07:28:09.949Z</time>
      </trkpt>
      <trkpt lat="45.69525" lon="5.80568">
        <ele>306</ele>
        <time>2022-04-16T07:28:10.950Z</time>
      </trkpt>
      <trkpt lat="45.69528" lon="5.80561">
        <ele>305</ele>
        <time>2022-04-16T07:28:11.950Z</time>
      </trkpt>
      <trkpt lat="45.69533" lon="5.80553">
        <ele>305</ele>
        <time>2022-04-16T07:28:12.949Z</time>
      </trkpt>
      <trkpt lat="45.69537" lon="5.80544">
        <ele>305</ele>
        <time>2022-04-16T07:28:13.950Z</time>
      </trkpt>
      <trkpt lat="45.69542" lon="5.80536">
        <ele>305</ele>
        <time>2022-04-16T07:28:14.949Z</time>
      </trkpt>
      <trkpt lat="45.69547" lon="5.80526">
        <ele>305</ele>
        <time>2022-04-16T07:28:15.950Z</time>
      </trkpt>
      <trkpt lat="45.69551" lon="5.80519">
        <ele>305</ele>
        <time>2022-04-16T07:28:16.949Z</time>
      </trkpt>
      <trkpt lat="45.69555" lon="5.80511">
        <ele>305</ele>
        <time>2022-04-16T07:28:17.950Z</time>
      </trkpt>
      <trkpt lat="45.69559" lon="5.80503">
        <ele>304</ele>
        <time>2022-04-16T07:28:18.949Z</time>
      </trkpt>
      <trkpt lat="45.69563" lon="5.80495">
        <ele>304</ele>
        <time>2022-04-16T07:28:19.950Z</time>
      </trkpt>
      <trkpt lat="45.69567" lon="5.80487">
        <ele>304</ele>
        <time>2022-04-16T07:28:20.949Z</time>
      </trkpt>
      <trkpt lat="45.69571" lon="5.8048">
        <ele>303</ele>
        <time>2022-04-16T07:28:21.950Z</time>
      </trkpt>
      <trkpt lat="45.69576" lon="5.80471">
        <ele>303</ele>
        <time>2022-04-16T07:28:22.950Z</time>
      </trkpt>
      <trkpt lat="45.6958" lon="5.80464">
        <ele>303</ele>
        <time>2022-04-16T07:28:23.949Z</time>
      </trkpt>
      <trkpt lat="45.69584" lon="5.80456">
        <ele>303</ele>
        <time>2022-04-16T07:28:24.949Z</time>
      </trkpt>
      <trkpt lat="45.69589" lon="5.80447">
        <ele>303</ele>
        <time>2022-04-16T07:28:25.949Z</time>
      </trkpt>
      <trkpt lat="45.69592" lon="5.80441">
        <ele>302</ele>
        <time>2022-04-16T07:28:26.950Z</time>
      </trkpt>
      <trkpt lat="45.69596" lon="5.80434">
        <ele>302</ele>
        <time>2022-04-16T07:28:27.950Z</time>
      </trkpt>
      <trkpt lat="45.696" lon="5.80426">
        <ele>302</ele>
        <time>2022-04-16T07:28:28.950Z</time>
      </trkpt>
      <trkpt lat="45.69603" lon="5.80419">
        <ele>301</ele>
        <time>2022-04-16T07:28:29.950Z</time>
      </trkpt>
      <trkpt lat="45.69608" lon="5.8041">
        <ele>301</ele>
        <time>2022-04-16T07:28:30.950Z</time>
      </trkpt>
      <trkpt lat="45.69611" lon="5.80404">
        <ele>301</ele>
        <time>2022-04-16T07:28:31.950Z</time>
      </trkpt>
      <trkpt lat="45.69615" lon="5.80396">
        <ele>301</ele>
        <time>2022-04-16T07:28:32.949Z</time>
      </trkpt>
      <trkpt lat="45.69619" lon="5.80389">
        <ele>301</ele>
        <time>2022-04-16T07:28:33.950Z</time>
      </trkpt>
      <trkpt lat="45.69622" lon="5.80382">
        <ele>301</ele>
        <time>2022-04-16T07:28:34.950Z</time>
      </trkpt>
      <trkpt lat="45.69626" lon="5.80375">
        <ele>301</ele>
        <time>2022-04-16T07:28:35.949Z</time>
      </trkpt>
      <trkpt lat="45.6963" lon="5.80367">
        <ele>300</ele>
        <time>2022-04-16T07:28:36.949Z</time>
      </trkpt>
      <trkpt lat="45.69634" lon="5.8036">
        <ele>300</ele>
        <time>2022-04-16T07:28:37.949Z</time>
      </trkpt>
      <trkpt lat="45.69638" lon="5.80352">
        <ele>300</ele>
        <time>2022-04-16T07:28:38.949Z</time>
      </trkpt>
      <trkpt lat="45.69642" lon="5.80345">
        <ele>300</ele>
        <time>2022-04-16T07:28:39.950Z</time>
      </trkpt>
      <trkpt lat="45.69646" lon="5.80337">
        <ele>299</ele>
        <time>2022-04-16T07:28:40.950Z</time>
      </trkpt>
      <trkpt lat="45.6965" lon="5.8033">
        <ele>299</ele>
        <time>2022-04-16T07:28:41.949Z</time>
      </trkpt>
      <trkpt lat="45.69653" lon="5.80323">
        <ele>299</ele>
        <time>2022-04-16T07:28:42.950Z</time>
      </trkpt>
      <trkpt lat="45.69657" lon="5.80316">
        <ele>299</ele>
        <time>2022-04-16T07:28:43.950Z</time>
      </trkpt>
      <trkpt lat="45.6966" lon="5.80309">
        <ele>299</ele>
        <time>2022-04-16T07:28:44.949Z</time>
      </trkpt>
      <trkpt lat="45.69664" lon="5.80302">
        <ele>299</ele>
        <time>2022-04-16T07:28:45.950Z</time>
      </trkpt>
      <trkpt lat="45.69667" lon="5.80295">
        <ele>299</ele>
        <time>2022-04-16T07:28:46.950Z</time>
      </trkpt>
      <trkpt lat="45.69671" lon="5.80288">
        <ele>299</ele>
        <time>2022-04-16T07:28:47.949Z</time>
      </trkpt>
      <trkpt lat="45.69676" lon="5.80279">
        <ele>299</ele>
        <time>2022-04-16T07:28:48.949Z</time>
      </trkpt>
      <trkpt lat="45.69679" lon="5.80274">
        <ele>299</ele>
        <time>2022-04-16T07:28:49.949Z</time>
      </trkpt>
      <trkpt lat="45.69682" lon="5.80266">
        <ele>299</ele>
        <time>2022-04-16T07:28:50.949Z</time>
      </trkpt>
      <trkpt lat="45.69687" lon="5.80258">
        <ele>299</ele>
        <time>2022-04-16T07:28:51.950Z</time>
      </trkpt>
      <trkpt lat="45.6969" lon="5.8025">
        <ele>299</ele>
        <time>2022-04-16T07:28:52.950Z</time>
      </trkpt>
      <trkpt lat="45.69694" lon="5.80243">
        <ele>298</ele>
        <time>2022-04-16T07:28:53.950Z</time>
      </trkpt>
      <trkpt lat="45.69697" lon="5.80235">
        <ele>298</ele>
        <time>2022-04-16T07:28:54.950Z</time>
      </trkpt>
      <trkpt lat="45.697" lon="5.8023">
        <ele>298</ele>
        <time>2022-04-16T07:28:55.950Z</time>
      </trkpt>
      <trkpt lat="45.69705" lon="5.80221">
        <ele>298</ele>
        <time>2022-04-16T07:28:56.949Z</time>
      </trkpt>
      <trkpt lat="45.69708" lon="5.80213">
        <ele>298</ele>
        <time>2022-04-16T07:28:57.949Z</time>
      </trkpt>
      <trkpt lat="45.69711" lon="5.80206">
        <ele>298</ele>
        <time>2022-04-16T07:28:58.949Z</time>
      </trkpt>
      <trkpt lat="45.69714" lon="5.80198">
        <ele>298</ele>
        <time>2022-04-16T07:28:59.949Z</time>
      </trkpt>
      <trkpt lat="45.69716" lon="5.80192">
        <ele>298</ele>
        <time>2022-04-16T07:29:00.950Z</time>
      </trkpt>
      <trkpt lat="45.69719" lon="5.80182">
        <ele>298</ele>
        <time>2022-04-16T07:29:01.950Z</time>
      </trkpt>
      <trkpt lat="45.6972" lon="5.80173">
        <ele>297</ele>
        <time>2022-04-16T07:29:02.949Z</time>
      </trkpt>
      <trkpt lat="45.69721" lon="5.80164">
        <ele>298</ele>
        <time>2022-04-16T07:29:03.950Z</time>
      </trkpt>
      <trkpt lat="45.6972" lon="5.80157">
        <ele>297</ele>
        <time>2022-04-16T07:29:04.950Z</time>
      </trkpt>
      <trkpt lat="45.6972" lon="5.80149">
        <ele>297</ele>
        <time>2022-04-16T07:29:05.949Z</time>
      </trkpt>
      <trkpt lat="45.69719" lon="5.80139">
        <ele>298</ele>
        <time>2022-04-16T07:29:06.949Z</time>
      </trkpt>
      <trkpt lat="45.69718" lon="5.80132">
        <ele>298</ele>
        <time>2022-04-16T07:29:07.950Z</time>
      </trkpt>
      <trkpt lat="45.69716" lon="5.80124">
        <ele>299</ele>
        <time>2022-04-16T07:29:08.949Z</time>
      </trkpt>
      <trkpt lat="45.69713" lon="5.80114">
        <ele>299</ele>
        <time>2022-04-16T07:29:09.949Z</time>
      </trkpt>
      <trkpt lat="45.69711" lon="5.80108">
        <ele>299</ele>
        <time>2022-04-16T07:29:10.949Z</time>
      </trkpt>
      <trkpt lat="45.69708" lon="5.80098">
        <ele>299</ele>
        <time>2022-04-16T07:29:11.950Z</time>
      </trkpt>
      <trkpt lat="45.69705" lon="5.8009">
        <ele>300</ele>
        <time>2022-04-16T07:29:12.949Z</time>
      </trkpt>
      <trkpt lat="45.69703" lon="5.80082">
        <ele>300</ele>
        <time>2022-04-16T07:29:13.949Z</time>
      </trkpt>
      <trkpt lat="45.69701" lon="5.80075">
        <ele>300</ele>
        <time>2022-04-16T07:29:14.949Z</time>
      </trkpt>
      <trkpt lat="45.69698" lon="5.80067">
        <ele>300</ele>
        <time>2022-04-16T07:29:15.949Z</time>
      </trkpt>
      <trkpt lat="45.69696" lon="5.80057">
        <ele>300</ele>
        <time>2022-04-16T07:29:16.949Z</time>
      </trkpt>
      <trkpt lat="45.69694" lon="5.80048">
        <ele>300</ele>
        <time>2022-04-16T07:29:17.949Z</time>
      </trkpt>
      <trkpt lat="45.69693" lon="5.8004">
        <ele>300</ele>
        <time>2022-04-16T07:29:18.950Z</time>
      </trkpt>
      <trkpt lat="45.69692" lon="5.80033">
        <ele>300</ele>
        <time>2022-04-16T07:29:19.949Z</time>
      </trkpt>
      <trkpt lat="45.6969" lon="5.80023">
        <ele>299</ele>
        <time>2022-04-16T07:29:20.949Z</time>
      </trkpt>
      <trkpt lat="45.69689" lon="5.80014">
        <ele>299</ele>
        <time>2022-04-16T07:29:21.949Z</time>
      </trkpt>
      <trkpt lat="45.69688" lon="5.80004">
        <ele>299</ele>
        <time>2022-04-16T07:29:22.950Z</time>
      </trkpt>
      <trkpt lat="45.69687" lon="5.79992">
        <ele>298</ele>
        <time>2022-04-16T07:29:23.949Z</time>
      </trkpt>
      <trkpt lat="45.69686" lon="5.79983">
        <ele>298</ele>
        <time>2022-04-16T07:29:24.949Z</time>
      </trkpt>
      <trkpt lat="45.69685" lon="5.79975">
        <ele>298</ele>
        <time>2022-04-16T07:29:25.949Z</time>
      </trkpt>
      <trkpt lat="45.69684" lon="5.79965">
        <ele>298</ele>
        <time>2022-04-16T07:29:26.950Z</time>
      </trkpt>
      <trkpt lat="45.69683" lon="5.79954">
        <ele>298</ele>
        <time>2022-04-16T07:29:27.949Z</time>
      </trkpt>
      <trkpt lat="45.69682" lon="5.79946">
        <ele>297</ele>
        <time>2022-04-16T07:29:28.950Z</time>
      </trkpt>
      <trkpt lat="45.69681" lon="5.79936">
        <ele>297</ele>
        <time>2022-04-16T07:29:29.949Z</time>
      </trkpt>
      <trkpt lat="45.6968" lon="5.79926">
        <ele>297</ele>
        <time>2022-04-16T07:29:30.949Z</time>
      </trkpt>
      <trkpt lat="45.69679" lon="5.79917">
        <ele>297</ele>
        <time>2022-04-16T07:29:31.949Z</time>
      </trkpt>
      <trkpt lat="45.69679" lon="5.79907">
        <ele>296</ele>
        <time>2022-04-16T07:29:32.949Z</time>
      </trkpt>
      <trkpt lat="45.69678" lon="5.79895">
        <ele>296</ele>
        <time>2022-04-16T07:29:33.949Z</time>
      </trkpt>
      <trkpt lat="45.69677" lon="5.79887">
        <ele>296</ele>
        <time>2022-04-16T07:29:34.949Z</time>
      </trkpt>
      <trkpt lat="45.69677" lon="5.79878">
        <ele>296</ele>
        <time>2022-04-16T07:29:35.950Z</time>
      </trkpt>
      <trkpt lat="45.69676" lon="5.79868">
        <ele>295</ele>
        <time>2022-04-16T07:29:36.950Z</time>
      </trkpt>
      <trkpt lat="45.69676" lon="5.79858">
        <ele>295</ele>
        <time>2022-04-16T07:29:37.949Z</time>
      </trkpt>
      <trkpt lat="45.69675" lon="5.79846">
        <ele>295</ele>
        <time>2022-04-16T07:29:38.949Z</time>
      </trkpt>
      <trkpt lat="45.69674" lon="5.79835">
        <ele>295</ele>
        <time>2022-04-16T07:29:39.949Z</time>
      </trkpt>
      <trkpt lat="45.69674" lon="5.79827">
        <ele>295</ele>
        <time>2022-04-16T07:29:40.949Z</time>
      </trkpt>
      <trkpt lat="45.69673" lon="5.79817">
        <ele>294</ele>
        <time>2022-04-16T07:29:41.950Z</time>
      </trkpt>
      <trkpt lat="45.69672" lon="5.79807">
        <ele>294</ele>
        <time>2022-04-16T07:29:42.950Z</time>
      </trkpt>
      <trkpt lat="45.69671" lon="5.79795">
        <ele>294</ele>
        <time>2022-04-16T07:29:43.949Z</time>
      </trkpt>
      <trkpt lat="45.6967" lon="5.79785">
        <ele>294</ele>
        <time>2022-04-16T07:29:44.949Z</time>
      </trkpt>
      <trkpt lat="45.69669" lon="5.79775">
        <ele>293</ele>
        <time>2022-04-16T07:29:45.949Z</time>
      </trkpt>
      <trkpt lat="45.69668" lon="5.79767">
        <ele>293</ele>
        <time>2022-04-16T07:29:46.950Z</time>
      </trkpt>
      <trkpt lat="45.69667" lon="5.79757">
        <ele>292</ele>
        <time>2022-04-16T07:29:47.949Z</time>
      </trkpt>
      <trkpt lat="45.69666" lon="5.79746">
        <ele>292</ele>
        <time>2022-04-16T07:29:48.949Z</time>
      </trkpt>
      <trkpt lat="45.69664" lon="5.79737">
        <ele>292</ele>
        <time>2022-04-16T07:29:49.949Z</time>
      </trkpt>
      <trkpt lat="45.69664" lon="5.79727">
        <ele>292</ele>
        <time>2022-04-16T07:29:50.949Z</time>
      </trkpt>
      <trkpt lat="45.69663" lon="5.79717">
        <ele>292</ele>
        <time>2022-04-16T07:29:51.950Z</time>
      </trkpt>
      <trkpt lat="45.69662" lon="5.79707">
        <ele>292</ele>
        <time>2022-04-16T07:29:52.949Z</time>
      </trkpt>
      <trkpt lat="45.69661" lon="5.79696">
        <ele>292</ele>
        <time>2022-04-16T07:29:53.949Z</time>
      </trkpt>
      <trkpt lat="45.6966" lon="5.79685">
        <ele>292</ele>
        <time>2022-04-16T07:29:54.949Z</time>
      </trkpt>
      <trkpt lat="45.69659" lon="5.79675">
        <ele>293</ele>
        <time>2022-04-16T07:29:55.949Z</time>
      </trkpt>
      <trkpt lat="45.69658" lon="5.79665">
        <ele>293</ele>
        <time>2022-04-16T07:29:56.950Z</time>
      </trkpt>
      <trkpt lat="45.69658" lon="5.79655">
        <ele>293</ele>
        <time>2022-04-16T07:29:57.949Z</time>
      </trkpt>
      <trkpt lat="45.69657" lon="5.79644">
        <ele>293</ele>
        <time>2022-04-16T07:29:58.949Z</time>
      </trkpt>
      <trkpt lat="45.69656" lon="5.79634">
        <ele>293</ele>
        <time>2022-04-16T07:29:59.949Z</time>
      </trkpt>
      <trkpt lat="45.69656" lon="5.79624">
        <ele>292</ele>
        <time>2022-04-16T07:30:00.949Z</time>
      </trkpt>
      <trkpt lat="45.69655" lon="5.79615">
        <ele>292</ele>
        <time>2022-04-16T07:30:01.950Z</time>
      </trkpt>
      <trkpt lat="45.69655" lon="5.79605">
        <ele>291</ele>
        <time>2022-04-16T07:30:02.949Z</time>
      </trkpt>
      <trkpt lat="45.69655" lon="5.79594">
        <ele>291</ele>
        <time>2022-04-16T07:30:03.949Z</time>
      </trkpt>
      <trkpt lat="45.69654" lon="5.79584">
        <ele>291</ele>
        <time>2022-04-16T07:30:04.949Z</time>
      </trkpt>
      <trkpt lat="45.69653" lon="5.79574">
        <ele>290</ele>
        <time>2022-04-16T07:30:05.950Z</time>
      </trkpt>
      <trkpt lat="45.69653" lon="5.79563">
        <ele>290</ele>
        <time>2022-04-16T07:30:06.949Z</time>
      </trkpt>
      <trkpt lat="45.69652" lon="5.79553">
        <ele>290</ele>
        <time>2022-04-16T07:30:07.950Z</time>
      </trkpt>
      <trkpt lat="45.69651" lon="5.79542">
        <ele>290</ele>
        <time>2022-04-16T07:30:08.949Z</time>
      </trkpt>
      <trkpt lat="45.6965" lon="5.79532">
        <ele>290</ele>
        <time>2022-04-16T07:30:09.949Z</time>
      </trkpt>
      <trkpt lat="45.69649" lon="5.79522">
        <ele>289</ele>
        <time>2022-04-16T07:30:10.949Z</time>
      </trkpt>
      <trkpt lat="45.69648" lon="5.79512">
        <ele>289</ele>
        <time>2022-04-16T07:30:11.949Z</time>
      </trkpt>
      <trkpt lat="45.69647" lon="5.79503">
        <ele>289</ele>
        <time>2022-04-16T07:30:12.949Z</time>
      </trkpt>
      <trkpt lat="45.69646" lon="5.79494">
        <ele>289</ele>
        <time>2022-04-16T07:30:13.950Z</time>
      </trkpt>
      <trkpt lat="45.69644" lon="5.79484">
        <ele>289</ele>
        <time>2022-04-16T07:30:14.949Z</time>
      </trkpt>
      <trkpt lat="45.69643" lon="5.79474">
        <ele>289</ele>
        <time>2022-04-16T07:30:15.949Z</time>
      </trkpt>
      <trkpt lat="45.69641" lon="5.79463">
        <ele>290</ele>
        <time>2022-04-16T07:30:16.950Z</time>
      </trkpt>
      <trkpt lat="45.6964" lon="5.79454">
        <ele>290</ele>
        <time>2022-04-16T07:30:17.949Z</time>
      </trkpt>
      <trkpt lat="45.69638" lon="5.7944">
        <ele>290</ele>
        <time>2022-04-16T07:30:18.949Z</time>
      </trkpt>
      <trkpt lat="45.69638" lon="5.7943">
        <ele>290</ele>
        <time>2022-04-16T07:30:19.950Z</time>
      </trkpt>
      <trkpt lat="45.69638" lon="5.79419">
        <ele>289</ele>
        <time>2022-04-16T07:30:20.949Z</time>
      </trkpt>
      <trkpt lat="45.69639" lon="5.7941">
        <ele>289</ele>
        <time>2022-04-16T07:30:21.950Z</time>
      </trkpt>
      <trkpt lat="45.69641" lon="5.79399">
        <ele>289</ele>
        <time>2022-04-16T07:30:22.950Z</time>
      </trkpt>
      <trkpt lat="45.69642" lon="5.7939">
        <ele>289</ele>
        <time>2022-04-16T07:30:23.949Z</time>
      </trkpt>
      <trkpt lat="45.69645" lon="5.79381">
        <ele>289</ele>
        <time>2022-04-16T07:30:24.949Z</time>
      </trkpt>
      <trkpt lat="45.6965" lon="5.79374">
        <ele>289</ele>
        <time>2022-04-16T07:30:25.949Z</time>
      </trkpt>
      <trkpt lat="45.69654" lon="5.79366">
        <ele>289</ele>
        <time>2022-04-16T07:30:26.950Z</time>
      </trkpt>
      <trkpt lat="45.6966" lon="5.79358">
        <ele>288</ele>
        <time>2022-04-16T07:30:27.949Z</time>
      </trkpt>
      <trkpt lat="45.69665" lon="5.79352">
        <ele>288</ele>
        <time>2022-04-16T07:30:28.949Z</time>
      </trkpt>
      <trkpt lat="45.69671" lon="5.79347">
        <ele>287</ele>
        <time>2022-04-16T07:30:29.950Z</time>
      </trkpt>
      <trkpt lat="45.69677" lon="5.79341">
        <ele>287</ele>
        <time>2022-04-16T07:30:30.949Z</time>
      </trkpt>
      <trkpt lat="45.69682" lon="5.79337">
        <ele>286</ele>
        <time>2022-04-16T07:30:31.949Z</time>
      </trkpt>
      <trkpt lat="45.69688" lon="5.79334">
        <ele>286</ele>
        <time>2022-04-16T07:30:32.949Z</time>
      </trkpt>
      <trkpt lat="45.69695" lon="5.79331">
        <ele>285</ele>
        <time>2022-04-16T07:30:33.950Z</time>
      </trkpt>
      <trkpt lat="45.69701" lon="5.79328">
        <ele>285</ele>
        <time>2022-04-16T07:30:34.950Z</time>
      </trkpt>
      <trkpt lat="45.69708" lon="5.79327">
        <ele>284</ele>
        <time>2022-04-16T07:30:35.949Z</time>
      </trkpt>
      <trkpt lat="45.69714" lon="5.79327">
        <ele>284</ele>
        <time>2022-04-16T07:30:36.949Z</time>
      </trkpt>
      <trkpt lat="45.6972" lon="5.79327">
        <ele>283</ele>
        <time>2022-04-16T07:30:37.949Z</time>
      </trkpt>
      <trkpt lat="45.69729" lon="5.79326">
        <ele>283</ele>
        <time>2022-04-16T07:30:38.949Z</time>
      </trkpt>
      <trkpt lat="45.69736" lon="5.79327">
        <ele>283</ele>
        <time>2022-04-16T07:30:39.949Z</time>
      </trkpt>
      <trkpt lat="45.69743" lon="5.79328">
        <ele>282</ele>
        <time>2022-04-16T07:30:40.950Z</time>
      </trkpt>
      <trkpt lat="45.6975" lon="5.79329">
        <ele>282</ele>
        <time>2022-04-16T07:30:41.949Z</time>
      </trkpt>
      <trkpt lat="45.69756" lon="5.79331">
        <ele>282</ele>
        <time>2022-04-16T07:30:42.949Z</time>
      </trkpt>
      <trkpt lat="45.69763" lon="5.79334">
        <ele>282</ele>
        <time>2022-04-16T07:30:43.949Z</time>
      </trkpt>
      <trkpt lat="45.69769" lon="5.79338">
        <ele>282</ele>
        <time>2022-04-16T07:30:44.949Z</time>
      </trkpt>
      <trkpt lat="45.69774" lon="5.79343">
        <ele>282</ele>
        <time>2022-04-16T07:30:45.950Z</time>
      </trkpt>
      <trkpt lat="45.6978" lon="5.79349">
        <ele>282</ele>
        <time>2022-04-16T07:30:46.949Z</time>
      </trkpt>
      <trkpt lat="45.69785" lon="5.79356">
        <ele>282</ele>
        <time>2022-04-16T07:30:47.950Z</time>
      </trkpt>
      <trkpt lat="45.69789" lon="5.79363">
        <ele>282</ele>
        <time>2022-04-16T07:30:48.949Z</time>
      </trkpt>
      <trkpt lat="45.69794" lon="5.79369">
        <ele>282</ele>
        <time>2022-04-16T07:30:49.949Z</time>
      </trkpt>
      <trkpt lat="45.69799" lon="5.79376">
        <ele>282</ele>
        <time>2022-04-16T07:30:50.950Z</time>
      </trkpt>
      <trkpt lat="45.69804" lon="5.79382">
        <ele>282</ele>
        <time>2022-04-16T07:30:51.949Z</time>
      </trkpt>
      <trkpt lat="45.69808" lon="5.79387">
        <ele>282</ele>
        <time>2022-04-16T07:30:52.950Z</time>
      </trkpt>
      <trkpt lat="45.69813" lon="5.79391">
        <ele>282</ele>
        <time>2022-04-16T07:30:53.949Z</time>
      </trkpt>
      <trkpt lat="45.6982" lon="5.79395">
        <ele>282</ele>
        <time>2022-04-16T07:30:54.949Z</time>
      </trkpt>
      <trkpt lat="45.69826" lon="5.79399">
        <ele>283</ele>
        <time>2022-04-16T07:30:55.950Z</time>
      </trkpt>
      <trkpt lat="45.69831" lon="5.794">
        <ele>284</ele>
        <time>2022-04-16T07:30:56.949Z</time>
      </trkpt>
      <trkpt lat="45.69837" lon="5.79402">
        <ele>284</ele>
        <time>2022-04-16T07:30:57.949Z</time>
      </trkpt>
      <trkpt lat="45.69843" lon="5.79399">
        <ele>285</ele>
        <time>2022-04-16T07:30:58.949Z</time>
      </trkpt>
      <trkpt lat="45.69851" lon="5.794">
        <ele>285</ele>
        <time>2022-04-16T07:30:59.949Z</time>
      </trkpt>
      <trkpt lat="45.69858" lon="5.794">
        <ele>286</ele>
        <time>2022-04-16T07:31:00.949Z</time>
      </trkpt>
      <trkpt lat="45.69865" lon="5.794">
        <ele>286</ele>
        <time>2022-04-16T07:31:01.949Z</time>
      </trkpt>
      <trkpt lat="45.69872" lon="5.794">
        <ele>287</ele>
        <time>2022-04-16T07:31:02.949Z</time>
      </trkpt>
      <trkpt lat="45.69878" lon="5.794">
        <ele>287</ele>
        <time>2022-04-16T07:31:03.949Z</time>
      </trkpt>
      <trkpt lat="45.69886" lon="5.79397">
        <ele>287</ele>
        <time>2022-04-16T07:31:04.949Z</time>
      </trkpt>
      <trkpt lat="45.69891" lon="5.79396">
        <ele>287</ele>
        <time>2022-04-16T07:31:05.949Z</time>
      </trkpt>
      <trkpt lat="45.69896" lon="5.79394">
        <ele>287</ele>
        <time>2022-04-16T07:31:06.949Z</time>
      </trkpt>
      <trkpt lat="45.69903" lon="5.79392">
        <ele>287</ele>
        <time>2022-04-16T07:31:07.949Z</time>
      </trkpt>
      <trkpt lat="45.69909" lon="5.79389">
        <ele>287</ele>
        <time>2022-04-16T07:31:08.950Z</time>
      </trkpt>
      <trkpt lat="45.69914" lon="5.79387">
        <ele>287</ele>
        <time>2022-04-16T07:31:09.950Z</time>
      </trkpt>
      <trkpt lat="45.6992" lon="5.79385">
        <ele>287</ele>
        <time>2022-04-16T07:31:10.949Z</time>
      </trkpt>
      <trkpt lat="45.69926" lon="5.79383">
        <ele>286</ele>
        <time>2022-04-16T07:31:11.950Z</time>
      </trkpt>
      <trkpt lat="45.69931" lon="5.79381">
        <ele>286</ele>
        <time>2022-04-16T07:31:12.950Z</time>
      </trkpt>
      <trkpt lat="45.69938" lon="5.79379">
        <ele>286</ele>
        <time>2022-04-16T07:31:13.949Z</time>
      </trkpt>
      <trkpt lat="45.69944" lon="5.79378">
        <ele>286</ele>
        <time>2022-04-16T07:31:14.949Z</time>
      </trkpt>
      <trkpt lat="45.6995" lon="5.79378">
        <ele>286</ele>
        <time>2022-04-16T07:31:15.949Z</time>
      </trkpt>
      <trkpt lat="45.69956" lon="5.79377">
        <ele>286</ele>
        <time>2022-04-16T07:31:16.949Z</time>
      </trkpt>
      <trkpt lat="45.69961" lon="5.79378">
        <ele>287</ele>
        <time>2022-04-16T07:31:17.949Z</time>
      </trkpt>
      <trkpt lat="45.69969" lon="5.79379">
        <ele>288</ele>
        <time>2022-04-16T07:31:18.950Z</time>
      </trkpt>
      <trkpt lat="45.69976" lon="5.7938">
        <ele>288</ele>
        <time>2022-04-16T07:31:19.950Z</time>
      </trkpt>
      <trkpt lat="45.69982" lon="5.79381">
        <ele>289</ele>
        <time>2022-04-16T07:31:20.950Z</time>
      </trkpt>
      <trkpt lat="45.69988" lon="5.79382">
        <ele>289</ele>
        <time>2022-04-16T07:31:21.949Z</time>
      </trkpt>
      <trkpt lat="45.69994" lon="5.79383">
        <ele>290</ele>
        <time>2022-04-16T07:31:22.949Z</time>
      </trkpt>
      <trkpt lat="45.7" lon="5.79383">
        <ele>289</ele>
        <time>2022-04-16T07:31:23.950Z</time>
      </trkpt>
      <trkpt lat="45.70006" lon="5.79383">
        <ele>289</ele>
        <time>2022-04-16T07:31:24.949Z</time>
      </trkpt>
      <trkpt lat="45.70012" lon="5.79383">
        <ele>288</ele>
        <time>2022-04-16T07:31:25.949Z</time>
      </trkpt>
      <trkpt lat="45.70018" lon="5.79381">
        <ele>287</ele>
        <time>2022-04-16T07:31:26.949Z</time>
      </trkpt>
      <trkpt lat="45.70024" lon="5.7938">
        <ele>287</ele>
        <time>2022-04-16T07:31:27.950Z</time>
      </trkpt>
      <trkpt lat="45.7003" lon="5.79377">
        <ele>286</ele>
        <time>2022-04-16T07:31:28.950Z</time>
      </trkpt>
      <trkpt lat="45.70036" lon="5.79374">
        <ele>286</ele>
        <time>2022-04-16T07:31:29.950Z</time>
      </trkpt>
      <trkpt lat="45.70042" lon="5.79369">
        <ele>286</ele>
        <time>2022-04-16T07:31:30.950Z</time>
      </trkpt>
      <trkpt lat="45.70048" lon="5.79364">
        <ele>287</ele>
        <time>2022-04-16T07:31:31.950Z</time>
      </trkpt>
      <trkpt lat="45.70054" lon="5.79357">
        <ele>288</ele>
        <time>2022-04-16T07:31:32.949Z</time>
      </trkpt>
      <trkpt lat="45.7006" lon="5.79351">
        <ele>288</ele>
        <time>2022-04-16T07:31:33.949Z</time>
      </trkpt>
      <trkpt lat="45.70065" lon="5.79346">
        <ele>288</ele>
        <time>2022-04-16T07:31:34.949Z</time>
      </trkpt>
      <trkpt lat="45.7007" lon="5.7934">
        <ele>288</ele>
        <time>2022-04-16T07:31:35.949Z</time>
      </trkpt>
      <trkpt lat="45.70075" lon="5.79334">
        <ele>288</ele>
        <time>2022-04-16T07:31:36.950Z</time>
      </trkpt>
      <trkpt lat="45.70081" lon="5.79326">
        <ele>288</ele>
        <time>2022-04-16T07:31:37.950Z</time>
      </trkpt>
      <trkpt lat="45.70087" lon="5.7932">
        <ele>288</ele>
        <time>2022-04-16T07:31:38.949Z</time>
      </trkpt>
      <trkpt lat="45.70092" lon="5.79313">
        <ele>287</ele>
        <time>2022-04-16T07:31:39.950Z</time>
      </trkpt>
      <trkpt lat="45.70097" lon="5.79306">
        <ele>287</ele>
        <time>2022-04-16T07:31:40.949Z</time>
      </trkpt>
      <trkpt lat="45.70102" lon="5.793">
        <ele>286</ele>
        <time>2022-04-16T07:31:41.950Z</time>
      </trkpt>
      <trkpt lat="45.70108" lon="5.79293">
        <ele>286</ele>
        <time>2022-04-16T07:31:42.950Z</time>
      </trkpt>
      <trkpt lat="45.70114" lon="5.79286">
        <ele>285</ele>
        <time>2022-04-16T07:31:43.949Z</time>
      </trkpt>
      <trkpt lat="45.70121" lon="5.7928">
        <ele>285</ele>
        <time>2022-04-16T07:31:44.949Z</time>
      </trkpt>
      <trkpt lat="45.70128" lon="5.79275">
        <ele>284</ele>
        <time>2022-04-16T07:31:45.949Z</time>
      </trkpt>
      <trkpt lat="45.70134" lon="5.79271">
        <ele>284</ele>
        <time>2022-04-16T07:31:46.950Z</time>
      </trkpt>
      <trkpt lat="45.70141" lon="5.79266">
        <ele>283</ele>
        <time>2022-04-16T07:31:47.949Z</time>
      </trkpt>
      <trkpt lat="45.70148" lon="5.79262">
        <ele>283</ele>
        <time>2022-04-16T07:31:48.949Z</time>
      </trkpt>
      <trkpt lat="45.70156" lon="5.79258">
        <ele>282</ele>
        <time>2022-04-16T07:31:49.950Z</time>
      </trkpt>
      <trkpt lat="45.70163" lon="5.79254">
        <ele>282</ele>
        <time>2022-04-16T07:31:50.949Z</time>
      </trkpt>
      <trkpt lat="45.70171" lon="5.79249">
        <ele>281</ele>
        <time>2022-04-16T07:31:51.950Z</time>
      </trkpt>
      <trkpt lat="45.70177" lon="5.79245">
        <ele>281</ele>
        <time>2022-04-16T07:31:52.949Z</time>
      </trkpt>
      <trkpt lat="45.70184" lon="5.79239">
        <ele>281</ele>
        <time>2022-04-16T07:31:53.950Z</time>
      </trkpt>
      <trkpt lat="45.7019" lon="5.79233">
        <ele>281</ele>
        <time>2022-04-16T07:31:54.950Z</time>
      </trkpt>
      <trkpt lat="45.70197" lon="5.79226">
        <ele>281</ele>
        <time>2022-04-16T07:31:55.949Z</time>
      </trkpt>
      <trkpt lat="45.70202" lon="5.79219">
        <ele>281</ele>
        <time>2022-04-16T07:31:56.950Z</time>
      </trkpt>
      <trkpt lat="45.70207" lon="5.79211">
        <ele>281</ele>
        <time>2022-04-16T07:31:57.950Z</time>
      </trkpt>
      <trkpt lat="45.70212" lon="5.79203">
        <ele>280</ele>
        <time>2022-04-16T07:31:58.950Z</time>
      </trkpt>
      <trkpt lat="45.70217" lon="5.79192">
        <ele>280</ele>
        <time>2022-04-16T07:31:59.949Z</time>
      </trkpt>
      <trkpt lat="45.7022" lon="5.79183">
        <ele>280</ele>
        <time>2022-04-16T07:32:00.950Z</time>
      </trkpt>
      <trkpt lat="45.70223" lon="5.79174">
        <ele>279</ele>
        <time>2022-04-16T07:32:01.950Z</time>
      </trkpt>
      <trkpt lat="45.70225" lon="5.79166">
        <ele>279</ele>
        <time>2022-04-16T07:32:02.950Z</time>
      </trkpt>
      <trkpt lat="45.70228" lon="5.79156">
        <ele>278</ele>
        <time>2022-04-16T07:32:03.949Z</time>
      </trkpt>
      <trkpt lat="45.70231" lon="5.79144">
        <ele>278</ele>
        <time>2022-04-16T07:32:04.950Z</time>
      </trkpt>
      <trkpt lat="45.70233" lon="5.79137">
        <ele>277</ele>
        <time>2022-04-16T07:32:05.949Z</time>
      </trkpt>
      <trkpt lat="45.70235" lon="5.79126">
        <ele>276</ele>
        <time>2022-04-16T07:32:06.949Z</time>
      </trkpt>
      <trkpt lat="45.70238" lon="5.79116">
        <ele>276</ele>
        <time>2022-04-16T07:32:07.949Z</time>
      </trkpt>
      <trkpt lat="45.7024" lon="5.79106">
        <ele>275</ele>
        <time>2022-04-16T07:32:08.950Z</time>
      </trkpt>
      <trkpt lat="45.70243" lon="5.79095">
        <ele>274</ele>
        <time>2022-04-16T07:32:09.949Z</time>
      </trkpt>
      <trkpt lat="45.70246" lon="5.79085">
        <ele>273</ele>
        <time>2022-04-16T07:32:10.949Z</time>
      </trkpt>
      <trkpt lat="45.70249" lon="5.79074">
        <ele>272</ele>
        <time>2022-04-16T07:32:11.949Z</time>
      </trkpt>
      <trkpt lat="45.70251" lon="5.79063">
        <ele>271</ele>
        <time>2022-04-16T07:32:12.949Z</time>
      </trkpt>
      <trkpt lat="45.70254" lon="5.79053">
        <ele>271</ele>
        <time>2022-04-16T07:32:13.949Z</time>
      </trkpt>
      <trkpt lat="45.70257" lon="5.79042">
        <ele>270</ele>
        <time>2022-04-16T07:32:14.950Z</time>
      </trkpt>
      <trkpt lat="45.7026" lon="5.79032">
        <ele>269</ele>
        <time>2022-04-16T07:32:15.950Z</time>
      </trkpt>
      <trkpt lat="45.70263" lon="5.79021">
        <ele>269</ele>
        <time>2022-04-16T07:32:16.949Z</time>
      </trkpt>
      <trkpt lat="45.70265" lon="5.79011">
        <ele>268</ele>
        <time>2022-04-16T07:32:17.949Z</time>
      </trkpt>
      <trkpt lat="45.70268" lon="5.79">
        <ele>267</ele>
        <time>2022-04-16T07:32:18.949Z</time>
      </trkpt>
      <trkpt lat="45.70271" lon="5.78989">
        <ele>267</ele>
        <time>2022-04-16T07:32:19.950Z</time>
      </trkpt>
      <trkpt lat="45.70274" lon="5.78978">
        <ele>267</ele>
        <time>2022-04-16T07:32:20.949Z</time>
      </trkpt>
      <trkpt lat="45.70278" lon="5.78967">
        <ele>267</ele>
        <time>2022-04-16T07:32:21.949Z</time>
      </trkpt>
      <trkpt lat="45.70281" lon="5.78957">
        <ele>266</ele>
        <time>2022-04-16T07:32:22.949Z</time>
      </trkpt>
      <trkpt lat="45.70284" lon="5.78946">
        <ele>266</ele>
        <time>2022-04-16T07:32:23.949Z</time>
      </trkpt>
      <trkpt lat="45.70288" lon="5.78935">
        <ele>266</ele>
        <time>2022-04-16T07:32:24.949Z</time>
      </trkpt>
      <trkpt lat="45.70291" lon="5.78924">
        <ele>266</ele>
        <time>2022-04-16T07:32:25.949Z</time>
      </trkpt>
      <trkpt lat="45.70294" lon="5.78913">
        <ele>265</ele>
        <time>2022-04-16T07:32:26.950Z</time>
      </trkpt>
      <trkpt lat="45.70297" lon="5.78902">
        <ele>264</ele>
        <time>2022-04-16T07:32:27.950Z</time>
      </trkpt>
      <trkpt lat="45.70299" lon="5.78891">
        <ele>264</ele>
        <time>2022-04-16T07:32:28.949Z</time>
      </trkpt>
      <trkpt lat="45.70302" lon="5.78879">
        <ele>263</ele>
        <time>2022-04-16T07:32:29.950Z</time>
      </trkpt>
      <trkpt lat="45.70305" lon="5.78868">
        <ele>262</ele>
        <time>2022-04-16T07:32:30.949Z</time>
      </trkpt>
      <trkpt lat="45.70309" lon="5.78857">
        <ele>261</ele>
        <time>2022-04-16T07:32:31.949Z</time>
      </trkpt>
      <trkpt lat="45.70311" lon="5.78847">
        <ele>261</ele>
        <time>2022-04-16T07:32:32.950Z</time>
      </trkpt>
      <trkpt lat="45.70314" lon="5.78836">
        <ele>260</ele>
        <time>2022-04-16T07:32:33.949Z</time>
      </trkpt>
      <trkpt lat="45.70317" lon="5.78825">
        <ele>260</ele>
        <time>2022-04-16T07:32:34.949Z</time>
      </trkpt>
      <trkpt lat="45.7032" lon="5.78815">
        <ele>260</ele>
        <time>2022-04-16T07:32:35.949Z</time>
      </trkpt>
      <trkpt lat="45.70324" lon="5.78804">
        <ele>260</ele>
        <time>2022-04-16T07:32:36.949Z</time>
      </trkpt>
      <trkpt lat="45.70327" lon="5.78793">
        <ele>260</ele>
        <time>2022-04-16T07:32:37.949Z</time>
      </trkpt>
      <trkpt lat="45.7033" lon="5.78783">
        <ele>259</ele>
        <time>2022-04-16T07:32:38.950Z</time>
      </trkpt>
      <trkpt lat="45.70333" lon="5.78772">
        <ele>259</ele>
        <time>2022-04-16T07:32:39.950Z</time>
      </trkpt>
      <trkpt lat="45.70336" lon="5.78762">
        <ele>259</ele>
        <time>2022-04-16T07:32:40.949Z</time>
      </trkpt>
      <trkpt lat="45.70338" lon="5.78751">
        <ele>259</ele>
        <time>2022-04-16T07:32:41.949Z</time>
      </trkpt>
      <trkpt lat="45.7034" lon="5.78741">
        <ele>259</ele>
        <time>2022-04-16T07:32:42.950Z</time>
      </trkpt>
      <trkpt lat="45.70342" lon="5.78731">
        <ele>259</ele>
        <time>2022-04-16T07:32:43.949Z</time>
      </trkpt>
      <trkpt lat="45.70344" lon="5.7872">
        <ele>259</ele>
        <time>2022-04-16T07:32:44.949Z</time>
      </trkpt>
      <trkpt lat="45.70345" lon="5.78709">
        <ele>260</ele>
        <time>2022-04-16T07:32:45.949Z</time>
      </trkpt>
      <trkpt lat="45.70346" lon="5.78698">
        <ele>260</ele>
        <time>2022-04-16T07:32:46.950Z</time>
      </trkpt>
      <trkpt lat="45.70346" lon="5.78687">
        <ele>260</ele>
        <time>2022-04-16T07:32:47.949Z</time>
      </trkpt>
      <trkpt lat="45.70347" lon="5.78677">
        <ele>260</ele>
        <time>2022-04-16T07:32:48.950Z</time>
      </trkpt>
      <trkpt lat="45.70348" lon="5.78666">
        <ele>260</ele>
        <time>2022-04-16T07:32:49.950Z</time>
      </trkpt>
      <trkpt lat="45.70348" lon="5.78655">
        <ele>261</ele>
        <time>2022-04-16T07:32:50.950Z</time>
      </trkpt>
      <trkpt lat="45.70348" lon="5.78644">
        <ele>261</ele>
        <time>2022-04-16T07:32:51.949Z</time>
      </trkpt>
      <trkpt lat="45.70348" lon="5.78634">
        <ele>261</ele>
        <time>2022-04-16T07:32:52.950Z</time>
      </trkpt>
      <trkpt lat="45.70348" lon="5.78623">
        <ele>261</ele>
        <time>2022-04-16T07:32:53.950Z</time>
      </trkpt>
      <trkpt lat="45.70349" lon="5.78613">
        <ele>261</ele>
        <time>2022-04-16T07:32:54.950Z</time>
      </trkpt>
      <trkpt lat="45.70349" lon="5.78603">
        <ele>261</ele>
        <time>2022-04-16T07:32:55.950Z</time>
      </trkpt>
      <trkpt lat="45.70349" lon="5.78592">
        <ele>261</ele>
        <time>2022-04-16T07:32:56.949Z</time>
      </trkpt>
      <trkpt lat="45.70349" lon="5.78581">
        <ele>261</ele>
        <time>2022-04-16T07:32:57.950Z</time>
      </trkpt>
      <trkpt lat="45.70349" lon="5.78573">
        <ele>261</ele>
        <time>2022-04-16T07:32:58.949Z</time>
      </trkpt>
      <trkpt lat="45.7035" lon="5.7856">
        <ele>261</ele>
        <time>2022-04-16T07:32:59.949Z</time>
      </trkpt>
      <trkpt lat="45.70351" lon="5.78549">
        <ele>261</ele>
        <time>2022-04-16T07:33:00.949Z</time>
      </trkpt>
      <trkpt lat="45.70352" lon="5.78539">
        <ele>261</ele>
        <time>2022-04-16T07:33:01.949Z</time>
      </trkpt>
      <trkpt lat="45.70353" lon="5.7853">
        <ele>261</ele>
        <time>2022-04-16T07:33:02.949Z</time>
      </trkpt>
      <trkpt lat="45.70355" lon="5.78517">
        <ele>260</ele>
        <time>2022-04-16T07:33:03.949Z</time>
      </trkpt>
      <trkpt lat="45.70357" lon="5.78507">
        <ele>260</ele>
        <time>2022-04-16T07:33:04.950Z</time>
      </trkpt>
      <trkpt lat="45.70359" lon="5.78496">
        <ele>260</ele>
        <time>2022-04-16T07:33:05.949Z</time>
      </trkpt>
      <trkpt lat="45.7036" lon="5.78485">
        <ele>260</ele>
        <time>2022-04-16T07:33:06.949Z</time>
      </trkpt>
      <trkpt lat="45.70362" lon="5.78475">
        <ele>260</ele>
        <time>2022-04-16T07:33:07.949Z</time>
      </trkpt>
      <trkpt lat="45.70363" lon="5.78464">
        <ele>260</ele>
        <time>2022-04-16T07:33:08.950Z</time>
      </trkpt>
      <trkpt lat="45.70365" lon="5.78453">
        <ele>259</ele>
        <time>2022-04-16T07:33:09.949Z</time>
      </trkpt>
      <trkpt lat="45.70367" lon="5.78442">
        <ele>259</ele>
        <time>2022-04-16T07:33:10.949Z</time>
      </trkpt>
      <trkpt lat="45.70368" lon="5.78431">
        <ele>259</ele>
        <time>2022-04-16T07:33:11.949Z</time>
      </trkpt>
      <trkpt lat="45.7037" lon="5.7842">
        <ele>258</ele>
        <time>2022-04-16T07:33:12.949Z</time>
      </trkpt>
      <trkpt lat="45.70372" lon="5.78409">
        <ele>258</ele>
        <time>2022-04-16T07:33:13.950Z</time>
      </trkpt>
      <trkpt lat="45.70374" lon="5.78397">
        <ele>258</ele>
        <time>2022-04-16T07:33:14.949Z</time>
      </trkpt>
      <trkpt lat="45.70376" lon="5.78386">
        <ele>258</ele>
        <time>2022-04-16T07:33:15.949Z</time>
      </trkpt>
      <trkpt lat="45.70378" lon="5.78375">
        <ele>258</ele>
        <time>2022-04-16T07:33:16.950Z</time>
      </trkpt>
      <trkpt lat="45.70379" lon="5.78364">
        <ele>258</ele>
        <time>2022-04-16T07:33:17.949Z</time>
      </trkpt>
      <trkpt lat="45.70381" lon="5.78352">
        <ele>258</ele>
        <time>2022-04-16T07:33:18.950Z</time>
      </trkpt>
      <trkpt lat="45.70383" lon="5.78341">
        <ele>258</ele>
        <time>2022-04-16T07:33:19.949Z</time>
      </trkpt>
      <trkpt lat="45.70384" lon="5.7833">
        <ele>257</ele>
        <time>2022-04-16T07:33:20.950Z</time>
      </trkpt>
      <trkpt lat="45.70384" lon="5.78319">
        <ele>257</ele>
        <time>2022-04-16T07:33:21.950Z</time>
      </trkpt>
      <trkpt lat="45.70385" lon="5.78307">
        <ele>257</ele>
        <time>2022-04-16T07:33:22.950Z</time>
      </trkpt>
      <trkpt lat="45.70385" lon="5.78296">
        <ele>256</ele>
        <time>2022-04-16T07:33:23.949Z</time>
      </trkpt>
      <trkpt lat="45.70386" lon="5.78285">
        <ele>256</ele>
        <time>2022-04-16T07:33:24.949Z</time>
      </trkpt>
      <trkpt lat="45.70385" lon="5.78273">
        <ele>255</ele>
        <time>2022-04-16T07:33:25.950Z</time>
      </trkpt>
      <trkpt lat="45.70385" lon="5.78261">
        <ele>255</ele>
        <time>2022-04-16T07:33:26.949Z</time>
      </trkpt>
      <trkpt lat="45.70384" lon="5.7825">
        <ele>255</ele>
        <time>2022-04-16T07:33:27.950Z</time>
      </trkpt>
      <trkpt lat="45.70383" lon="5.78239">
        <ele>254</ele>
        <time>2022-04-16T07:33:28.949Z</time>
      </trkpt>
      <trkpt lat="45.70382" lon="5.78227">
        <ele>254</ele>
        <time>2022-04-16T07:33:29.949Z</time>
      </trkpt>
      <trkpt lat="45.7038" lon="5.78216">
        <ele>254</ele>
        <time>2022-04-16T07:33:30.949Z</time>
      </trkpt>
      <trkpt lat="45.70378" lon="5.78205">
        <ele>254</ele>
        <time>2022-04-16T07:33:31.949Z</time>
      </trkpt>
      <trkpt lat="45.70376" lon="5.78194">
        <ele>254</ele>
        <time>2022-04-16T07:33:32.950Z</time>
      </trkpt>
      <trkpt lat="45.70374" lon="5.78183">
        <ele>253</ele>
        <time>2022-04-16T07:33:33.949Z</time>
      </trkpt>
      <trkpt lat="45.70373" lon="5.78172">
        <ele>253</ele>
        <time>2022-04-16T07:33:34.949Z</time>
      </trkpt>
      <trkpt lat="45.70371" lon="5.7816">
        <ele>252</ele>
        <time>2022-04-16T07:33:35.950Z</time>
      </trkpt>
      <trkpt lat="45.70369" lon="5.78149">
        <ele>252</ele>
        <time>2022-04-16T07:33:36.950Z</time>
      </trkpt>
      <trkpt lat="45.70367" lon="5.78138">
        <ele>251</ele>
        <time>2022-04-16T07:33:37.950Z</time>
      </trkpt>
      <trkpt lat="45.70365" lon="5.78126">
        <ele>251</ele>
        <time>2022-04-16T07:33:38.949Z</time>
      </trkpt>
      <trkpt lat="45.70363" lon="5.78115">
        <ele>250</ele>
        <time>2022-04-16T07:33:39.949Z</time>
      </trkpt>
      <trkpt lat="45.70361" lon="5.78104">
        <ele>250</ele>
        <time>2022-04-16T07:33:40.949Z</time>
      </trkpt>
      <trkpt lat="45.7036" lon="5.78093">
        <ele>250</ele>
        <time>2022-04-16T07:33:41.949Z</time>
      </trkpt>
      <trkpt lat="45.70358" lon="5.78081">
        <ele>250</ele>
        <time>2022-04-16T07:33:42.949Z</time>
      </trkpt>
      <trkpt lat="45.70356" lon="5.78071">
        <ele>249</ele>
        <time>2022-04-16T07:33:43.950Z</time>
      </trkpt>
      <trkpt lat="45.70354" lon="5.7806">
        <ele>249</ele>
        <time>2022-04-16T07:33:44.950Z</time>
      </trkpt>
      <trkpt lat="45.70352" lon="5.78048">
        <ele>248</ele>
        <time>2022-04-16T07:33:45.950Z</time>
      </trkpt>
      <trkpt lat="45.70351" lon="5.78037">
        <ele>248</ele>
        <time>2022-04-16T07:33:46.950Z</time>
      </trkpt>
      <trkpt lat="45.70349" lon="5.78026">
        <ele>248</ele>
        <time>2022-04-16T07:33:47.949Z</time>
      </trkpt>
      <trkpt lat="45.70347" lon="5.78014">
        <ele>248</ele>
        <time>2022-04-16T07:33:48.949Z</time>
      </trkpt>
      <trkpt lat="45.70345" lon="5.78003">
        <ele>248</ele>
        <time>2022-04-16T07:33:49.949Z</time>
      </trkpt>
      <trkpt lat="45.70344" lon="5.77992">
        <ele>249</ele>
        <time>2022-04-16T07:33:50.949Z</time>
      </trkpt>
      <trkpt lat="45.70342" lon="5.77982">
        <ele>248</ele>
        <time>2022-04-16T07:33:51.949Z</time>
      </trkpt>
      <trkpt lat="45.7034" lon="5.77971">
        <ele>248</ele>
        <time>2022-04-16T07:33:52.949Z</time>
      </trkpt>
      <trkpt lat="45.70338" lon="5.77959">
        <ele>249</ele>
        <time>2022-04-16T07:33:53.949Z</time>
      </trkpt>
      <trkpt lat="45.70336" lon="5.77947">
        <ele>249</ele>
        <time>2022-04-16T07:33:54.950Z</time>
      </trkpt>
      <trkpt lat="45.70334" lon="5.77935">
        <ele>248</ele>
        <time>2022-04-16T07:33:55.949Z</time>
      </trkpt>
      <trkpt lat="45.70332" lon="5.77924">
        <ele>248</ele>
        <time>2022-04-16T07:33:56.950Z</time>
      </trkpt>
      <trkpt lat="45.7033" lon="5.77912">
        <ele>248</ele>
        <time>2022-04-16T07:33:57.950Z</time>
      </trkpt>
      <trkpt lat="45.70328" lon="5.77901">
        <ele>248</ele>
        <time>2022-04-16T07:33:58.949Z</time>
      </trkpt>
      <trkpt lat="45.70326" lon="5.77889">
        <ele>248</ele>
        <time>2022-04-16T07:33:59.949Z</time>
      </trkpt>
      <trkpt lat="45.70325" lon="5.77877">
        <ele>248</ele>
        <time>2022-04-16T07:34:00.950Z</time>
      </trkpt>
      <trkpt lat="45.70323" lon="5.77865">
        <ele>247</ele>
        <time>2022-04-16T07:34:01.949Z</time>
      </trkpt>
      <trkpt lat="45.70321" lon="5.77854">
        <ele>247</ele>
        <time>2022-04-16T07:34:02.949Z</time>
      </trkpt>
      <trkpt lat="45.7032" lon="5.77843">
        <ele>247</ele>
        <time>2022-04-16T07:34:03.950Z</time>
      </trkpt>
      <trkpt lat="45.70318" lon="5.77831">
        <ele>247</ele>
        <time>2022-04-16T07:34:04.950Z</time>
      </trkpt>
      <trkpt lat="45.70316" lon="5.77819">
        <ele>246</ele>
        <time>2022-04-16T07:34:05.949Z</time>
      </trkpt>
      <trkpt lat="45.70314" lon="5.77807">
        <ele>246</ele>
        <time>2022-04-16T07:34:06.949Z</time>
      </trkpt>
      <trkpt lat="45.70313" lon="5.77796">
        <ele>246</ele>
        <time>2022-04-16T07:34:07.949Z</time>
      </trkpt>
      <trkpt lat="45.70312" lon="5.77784">
        <ele>246</ele>
        <time>2022-04-16T07:34:08.949Z</time>
      </trkpt>
      <trkpt lat="45.7031" lon="5.77772">
        <ele>245</ele>
        <time>2022-04-16T07:34:09.949Z</time>
      </trkpt>
      <trkpt lat="45.70309" lon="5.7776">
        <ele>246</ele>
        <time>2022-04-16T07:34:10.949Z</time>
      </trkpt>
      <trkpt lat="45.70308" lon="5.77748">
        <ele>245</ele>
        <time>2022-04-16T07:34:11.950Z</time>
      </trkpt>
      <trkpt lat="45.70307" lon="5.77737">
        <ele>245</ele>
        <time>2022-04-16T07:34:12.949Z</time>
      </trkpt>
      <trkpt lat="45.70306" lon="5.77726">
        <ele>245</ele>
        <time>2022-04-16T07:34:13.950Z</time>
      </trkpt>
      <trkpt lat="45.70305" lon="5.77715">
        <ele>245</ele>
        <time>2022-04-16T07:34:14.949Z</time>
      </trkpt>
      <trkpt lat="45.70304" lon="5.77704">
        <ele>245</ele>
        <time>2022-04-16T07:34:15.949Z</time>
      </trkpt>
      <trkpt lat="45.70303" lon="5.77693">
        <ele>245</ele>
        <time>2022-04-16T07:34:16.949Z</time>
      </trkpt>
      <trkpt lat="45.70302" lon="5.77682">
        <ele>245</ele>
        <time>2022-04-16T07:34:17.949Z</time>
      </trkpt>
      <trkpt lat="45.70301" lon="5.77672">
        <ele>245</ele>
        <time>2022-04-16T07:34:18.949Z</time>
      </trkpt>
      <trkpt lat="45.70301" lon="5.77661">
        <ele>245</ele>
        <time>2022-04-16T07:34:19.949Z</time>
      </trkpt>
      <trkpt lat="45.70302" lon="5.77651">
        <ele>244</ele>
        <time>2022-04-16T07:34:20.949Z</time>
      </trkpt>
      <trkpt lat="45.70303" lon="5.77641">
        <ele>244</ele>
        <time>2022-04-16T07:34:21.949Z</time>
      </trkpt>
      <trkpt lat="45.70305" lon="5.77632">
        <ele>243</ele>
        <time>2022-04-16T07:34:22.950Z</time>
      </trkpt>
      <trkpt lat="45.70306" lon="5.77622">
        <ele>243</ele>
        <time>2022-04-16T07:34:23.949Z</time>
      </trkpt>
      <trkpt lat="45.70308" lon="5.77612">
        <ele>242</ele>
        <time>2022-04-16T07:34:24.949Z</time>
      </trkpt>
      <trkpt lat="45.7031" lon="5.776">
        <ele>241</ele>
        <time>2022-04-16T07:34:25.949Z</time>
      </trkpt>
      <trkpt lat="45.70311" lon="5.77589">
        <ele>240</ele>
        <time>2022-04-16T07:34:26.949Z</time>
      </trkpt>
      <trkpt lat="45.70313" lon="5.77579">
        <ele>240</ele>
        <time>2022-04-16T07:34:27.949Z</time>
      </trkpt>
      <trkpt lat="45.70315" lon="5.77569">
        <ele>239</ele>
        <time>2022-04-16T07:34:28.949Z</time>
      </trkpt>
      <trkpt lat="45.70317" lon="5.77557">
        <ele>239</ele>
        <time>2022-04-16T07:34:29.949Z</time>
      </trkpt>
      <trkpt lat="45.70319" lon="5.77545">
        <ele>239</ele>
        <time>2022-04-16T07:34:30.949Z</time>
      </trkpt>
      <trkpt lat="45.70321" lon="5.77535">
        <ele>239</ele>
        <time>2022-04-16T07:34:31.950Z</time>
      </trkpt>
      <trkpt lat="45.70322" lon="5.77525">
        <ele>239</ele>
        <time>2022-04-16T07:34:32.950Z</time>
      </trkpt>
      <trkpt lat="45.70324" lon="5.77514">
        <ele>240</ele>
        <time>2022-04-16T07:34:33.949Z</time>
      </trkpt>
      <trkpt lat="45.70324" lon="5.77503">
        <ele>240</ele>
        <time>2022-04-16T07:34:34.949Z</time>
      </trkpt>
      <trkpt lat="45.70325" lon="5.77493">
        <ele>239</ele>
        <time>2022-04-16T07:34:35.949Z</time>
      </trkpt>
      <trkpt lat="45.70326" lon="5.77484">
        <ele>239</ele>
        <time>2022-04-16T07:34:36.949Z</time>
      </trkpt>
      <trkpt lat="45.70326" lon="5.77474">
        <ele>239</ele>
        <time>2022-04-16T07:34:37.949Z</time>
      </trkpt>
      <trkpt lat="45.70327" lon="5.77465">
        <ele>239</ele>
        <time>2022-04-16T07:34:38.949Z</time>
      </trkpt>
      <trkpt lat="45.70328" lon="5.77458">
        <ele>238</ele>
        <time>2022-04-16T07:34:39.949Z</time>
      </trkpt>
      <trkpt lat="45.70329" lon="5.77448">
        <ele>238</ele>
        <time>2022-04-16T07:34:40.950Z</time>
      </trkpt>
      <trkpt lat="45.70331" lon="5.77439">
        <ele>238</ele>
        <time>2022-04-16T07:34:41.949Z</time>
      </trkpt>
      <trkpt lat="45.70333" lon="5.77429">
        <ele>237</ele>
        <time>2022-04-16T07:34:42.949Z</time>
      </trkpt>
      <trkpt lat="45.70334" lon="5.77419">
        <ele>237</ele>
        <time>2022-04-16T07:34:43.949Z</time>
      </trkpt>
      <trkpt lat="45.70337" lon="5.7741">
        <ele>237</ele>
        <time>2022-04-16T07:34:44.950Z</time>
      </trkpt>
      <trkpt lat="45.70339" lon="5.77401">
        <ele>237</ele>
        <time>2022-04-16T07:34:45.949Z</time>
      </trkpt>
      <trkpt lat="45.70341" lon="5.77392">
        <ele>236</ele>
        <time>2022-04-16T07:34:46.949Z</time>
      </trkpt>
      <trkpt lat="45.70343" lon="5.77382">
        <ele>236</ele>
        <time>2022-04-16T07:34:47.949Z</time>
      </trkpt>
      <trkpt lat="45.70345" lon="5.77371">
        <ele>236</ele>
        <time>2022-04-16T07:34:48.949Z</time>
      </trkpt>
      <trkpt lat="45.70346" lon="5.77361">
        <ele>236</ele>
        <time>2022-04-16T07:34:49.949Z</time>
      </trkpt>
      <trkpt lat="45.70348" lon="5.7735">
        <ele>235</ele>
        <time>2022-04-16T07:34:50.949Z</time>
      </trkpt>
      <trkpt lat="45.7035" lon="5.7734">
        <ele>235</ele>
        <time>2022-04-16T07:34:51.949Z</time>
      </trkpt>
      <trkpt lat="45.70352" lon="5.7733">
        <ele>235</ele>
        <time>2022-04-16T07:34:52.949Z</time>
      </trkpt>
      <trkpt lat="45.70354" lon="5.7732">
        <ele>235</ele>
        <time>2022-04-16T07:34:53.950Z</time>
      </trkpt>
      <trkpt lat="45.70355" lon="5.77311">
        <ele>235</ele>
        <time>2022-04-16T07:34:54.950Z</time>
      </trkpt>
      <trkpt lat="45.70358" lon="5.77301">
        <ele>235</ele>
        <time>2022-04-16T07:34:55.949Z</time>
      </trkpt>
      <trkpt lat="45.7036" lon="5.77291">
        <ele>234</ele>
        <time>2022-04-16T07:34:56.950Z</time>
      </trkpt>
      <trkpt lat="45.70363" lon="5.77281">
        <ele>234</ele>
        <time>2022-04-16T07:34:57.949Z</time>
      </trkpt>
      <trkpt lat="45.70365" lon="5.77272">
        <ele>234</ele>
        <time>2022-04-16T07:34:58.949Z</time>
      </trkpt>
      <trkpt lat="45.70367" lon="5.77265">
        <ele>233</ele>
        <time>2022-04-16T07:34:59.949Z</time>
      </trkpt>
      <trkpt lat="45.70369" lon="5.77255">
        <ele>233</ele>
        <time>2022-04-16T07:35:00.949Z</time>
      </trkpt>
      <trkpt lat="45.70371" lon="5.77246">
        <ele>233</ele>
        <time>2022-04-16T07:35:01.949Z</time>
      </trkpt>
      <trkpt lat="45.70373" lon="5.77236">
        <ele>233</ele>
        <time>2022-04-16T07:35:02.950Z</time>
      </trkpt>
      <trkpt lat="45.70375" lon="5.77228">
        <ele>233</ele>
        <time>2022-04-16T07:35:03.949Z</time>
      </trkpt>
      <trkpt lat="45.70377" lon="5.77222">
        <ele>232</ele>
        <time>2022-04-16T07:35:04.949Z</time>
      </trkpt>
      <trkpt lat="45.7038" lon="5.77215">
        <ele>231</ele>
        <time>2022-04-16T07:35:05.949Z</time>
      </trkpt>
      <trkpt lat="45.70385" lon="5.77207">
        <ele>231</ele>
        <time>2022-04-16T07:35:06.949Z</time>
      </trkpt>
      <trkpt lat="45.70389" lon="5.77201">
        <ele>231</ele>
        <time>2022-04-16T07:35:07.949Z</time>
      </trkpt>
      <trkpt lat="45.70394" lon="5.77197">
        <ele>231</ele>
        <time>2022-04-16T07:35:08.950Z</time>
      </trkpt>
      <trkpt lat="45.70399" lon="5.77193">
        <ele>231</ele>
        <time>2022-04-16T07:35:09.950Z</time>
      </trkpt>
      <trkpt lat="45.70404" lon="5.77189">
        <ele>231</ele>
        <time>2022-04-16T07:35:10.949Z</time>
      </trkpt>
      <trkpt lat="45.70409" lon="5.77184">
        <ele>231</ele>
        <time>2022-04-16T07:35:11.949Z</time>
      </trkpt>
      <trkpt lat="45.70415" lon="5.77179">
        <ele>231</ele>
        <time>2022-04-16T07:35:12.949Z</time>
      </trkpt>
      <trkpt lat="45.70419" lon="5.77174">
        <ele>231</ele>
        <time>2022-04-16T07:35:13.950Z</time>
      </trkpt>
      <trkpt lat="45.70425" lon="5.77168">
        <ele>231</ele>
        <time>2022-04-16T07:35:14.949Z</time>
      </trkpt>
      <trkpt lat="45.70429" lon="5.77163">
        <ele>231</ele>
        <time>2022-04-16T07:35:15.949Z</time>
      </trkpt>
      <trkpt lat="45.70433" lon="5.77157">
        <ele>231</ele>
        <time>2022-04-16T07:35:16.949Z</time>
      </trkpt>
      <trkpt lat="45.70439" lon="5.77149">
        <ele>231</ele>
        <time>2022-04-16T07:35:17.949Z</time>
      </trkpt>
      <trkpt lat="45.70443" lon="5.77142">
        <ele>231</ele>
        <time>2022-04-16T07:35:18.949Z</time>
      </trkpt>
      <trkpt lat="45.70447" lon="5.77135">
        <ele>231</ele>
        <time>2022-04-16T07:35:19.950Z</time>
      </trkpt>
      <trkpt lat="45.7045" lon="5.77129">
        <ele>231</ele>
        <time>2022-04-16T07:35:20.949Z</time>
      </trkpt>
      <trkpt lat="45.70454" lon="5.77122">
        <ele>231</ele>
        <time>2022-04-16T07:35:21.949Z</time>
      </trkpt>
      <trkpt lat="45.70457" lon="5.77114">
        <ele>231</ele>
        <time>2022-04-16T07:35:22.949Z</time>
      </trkpt>
      <trkpt lat="45.70462" lon="5.77105">
        <ele>231</ele>
        <time>2022-04-16T07:35:23.949Z</time>
      </trkpt>
      <trkpt lat="45.70465" lon="5.77098">
        <ele>231</ele>
        <time>2022-04-16T07:35:24.950Z</time>
      </trkpt>
      <trkpt lat="45.70468" lon="5.77092">
        <ele>231</ele>
        <time>2022-04-16T07:35:25.950Z</time>
      </trkpt>
      <trkpt lat="45.70473" lon="5.77083">
        <ele>230</ele>
        <time>2022-04-16T07:35:26.949Z</time>
      </trkpt>
      <trkpt lat="45.70477" lon="5.77075">
        <ele>230</ele>
        <time>2022-04-16T07:35:27.949Z</time>
      </trkpt>
      <trkpt lat="45.7048" lon="5.77068">
        <ele>230</ele>
        <time>2022-04-16T07:35:28.949Z</time>
      </trkpt>
      <trkpt lat="45.70484" lon="5.7706">
        <ele>230</ele>
        <time>2022-04-16T07:35:29.949Z</time>
      </trkpt>
      <trkpt lat="45.70487" lon="5.77054">
        <ele>230</ele>
        <time>2022-04-16T07:35:30.949Z</time>
      </trkpt>
      <trkpt lat="45.7049" lon="5.77046">
        <ele>231</ele>
        <time>2022-04-16T07:35:31.949Z</time>
      </trkpt>
      <trkpt lat="45.70495" lon="5.77037">
        <ele>231</ele>
        <time>2022-04-16T07:35:32.950Z</time>
      </trkpt>
      <trkpt lat="45.70498" lon="5.77029">
        <ele>231</ele>
        <time>2022-04-16T07:35:33.950Z</time>
      </trkpt>
      <trkpt lat="45.70502" lon="5.77021">
        <ele>231</ele>
        <time>2022-04-16T07:35:34.949Z</time>
      </trkpt>
      <trkpt lat="45.70506" lon="5.77013">
        <ele>231</ele>
        <time>2022-04-16T07:35:35.949Z</time>
      </trkpt>
      <trkpt lat="45.70509" lon="5.77007">
        <ele>231</ele>
        <time>2022-04-16T07:35:36.950Z</time>
      </trkpt>
      <trkpt lat="45.70513" lon="5.76997">
        <ele>230</ele>
        <time>2022-04-16T07:35:37.949Z</time>
      </trkpt>
      <trkpt lat="45.70516" lon="5.76989">
        <ele>230</ele>
        <time>2022-04-16T07:35:38.949Z</time>
      </trkpt>
      <trkpt lat="45.70519" lon="5.76981">
        <ele>230</ele>
        <time>2022-04-16T07:35:39.949Z</time>
      </trkpt>
      <trkpt lat="45.70522" lon="5.76973">
        <ele>230</ele>
        <time>2022-04-16T07:35:40.949Z</time>
      </trkpt>
      <trkpt lat="45.70524" lon="5.76966">
        <ele>231</ele>
        <time>2022-04-16T07:35:41.949Z</time>
      </trkpt>
      <trkpt lat="45.70528" lon="5.76955">
        <ele>231</ele>
        <time>2022-04-16T07:35:42.949Z</time>
      </trkpt>
      <trkpt lat="45.70531" lon="5.76947">
        <ele>231</ele>
        <time>2022-04-16T07:35:43.949Z</time>
      </trkpt>
      <trkpt lat="45.70534" lon="5.76938">
        <ele>231</ele>
        <time>2022-04-16T07:35:44.949Z</time>
      </trkpt>
      <trkpt lat="45.70536" lon="5.76929">
        <ele>231</ele>
        <time>2022-04-16T07:35:45.950Z</time>
      </trkpt>
      <trkpt lat="45.70538" lon="5.76922">
        <ele>231</ele>
        <time>2022-04-16T07:35:46.950Z</time>
      </trkpt>
      <trkpt lat="45.70541" lon="5.76913">
        <ele>231</ele>
        <time>2022-04-16T07:35:47.950Z</time>
      </trkpt>
      <trkpt lat="45.70544" lon="5.76902">
        <ele>231</ele>
        <time>2022-04-16T07:35:48.949Z</time>
      </trkpt>
      <trkpt lat="45.70546" lon="5.76893">
        <ele>231</ele>
        <time>2022-04-16T07:35:49.950Z</time>
      </trkpt>
      <trkpt lat="45.70548" lon="5.76884">
        <ele>231</ele>
        <time>2022-04-16T07:35:50.949Z</time>
      </trkpt>
      <trkpt lat="45.70551" lon="5.76875">
        <ele>231</ele>
        <time>2022-04-16T07:35:51.949Z</time>
      </trkpt>
      <trkpt lat="45.70553" lon="5.76866">
        <ele>230</ele>
        <time>2022-04-16T07:35:52.950Z</time>
      </trkpt>
      <trkpt lat="45.70555" lon="5.76857">
        <ele>230</ele>
        <time>2022-04-16T07:35:53.949Z</time>
      </trkpt>
      <trkpt lat="45.70557" lon="5.76848">
        <ele>230</ele>
        <time>2022-04-16T07:35:54.950Z</time>
      </trkpt>
      <trkpt lat="45.70558" lon="5.7684">
        <ele>230</ele>
        <time>2022-04-16T07:35:55.950Z</time>
      </trkpt>
      <trkpt lat="45.7056" lon="5.76831">
        <ele>230</ele>
        <time>2022-04-16T07:35:56.949Z</time>
      </trkpt>
      <trkpt lat="45.70562" lon="5.76821">
        <ele>229</ele>
        <time>2022-04-16T07:35:57.949Z</time>
      </trkpt>
      <trkpt lat="45.70565" lon="5.7681">
        <ele>229</ele>
        <time>2022-04-16T07:35:58.950Z</time>
      </trkpt>
      <trkpt lat="45.70567" lon="5.76801">
        <ele>229</ele>
        <time>2022-04-16T07:35:59.950Z</time>
      </trkpt>
      <trkpt lat="45.70568" lon="5.76792">
        <ele>228</ele>
        <time>2022-04-16T07:36:00.950Z</time>
      </trkpt>
      <trkpt lat="45.7057" lon="5.76784">
        <ele>228</ele>
        <time>2022-04-16T07:36:01.949Z</time>
      </trkpt>
      <trkpt lat="45.70571" lon="5.76773">
        <ele>227</ele>
        <time>2022-04-16T07:36:02.949Z</time>
      </trkpt>
      <trkpt lat="45.70573" lon="5.76763">
        <ele>227</ele>
        <time>2022-04-16T07:36:03.949Z</time>
      </trkpt>
      <trkpt lat="45.70575" lon="5.76754">
        <ele>227</ele>
        <time>2022-04-16T07:36:04.949Z</time>
      </trkpt>
      <trkpt lat="45.70577" lon="5.76746">
        <ele>227</ele>
        <time>2022-04-16T07:36:05.950Z</time>
      </trkpt>
      <trkpt lat="45.70579" lon="5.76739">
        <ele>227</ele>
        <time>2022-04-16T07:36:06.949Z</time>
      </trkpt>
      <trkpt lat="45.70582" lon="5.76731">
        <ele>227</ele>
        <time>2022-04-16T07:36:07.949Z</time>
      </trkpt>
      <trkpt lat="45.70586" lon="5.76721">
        <ele>227</ele>
        <time>2022-04-16T07:36:08.949Z</time>
      </trkpt>
      <trkpt lat="45.70588" lon="5.76712">
        <ele>227</ele>
        <time>2022-04-16T07:36:09.949Z</time>
      </trkpt>
      <trkpt lat="45.7059" lon="5.76705">
        <ele>226</ele>
        <time>2022-04-16T07:36:10.949Z</time>
      </trkpt>
      <trkpt lat="45.70591" lon="5.76696">
        <ele>226</ele>
        <time>2022-04-16T07:36:11.950Z</time>
      </trkpt>
      <trkpt lat="45.70592" lon="5.76687">
        <ele>226</ele>
        <time>2022-04-16T07:36:12.950Z</time>
      </trkpt>
      <trkpt lat="45.70592" lon="5.76676">
        <ele>226</ele>
        <time>2022-04-16T07:36:13.949Z</time>
      </trkpt>
      <trkpt lat="45.70593" lon="5.76667">
        <ele>226</ele>
        <time>2022-04-16T07:36:14.949Z</time>
      </trkpt>
      <trkpt lat="45.70594" lon="5.76658">
        <ele>227</ele>
        <time>2022-04-16T07:36:15.949Z</time>
      </trkpt>
      <trkpt lat="45.70594" lon="5.76651">
        <ele>227</ele>
        <time>2022-04-16T07:36:16.950Z</time>
      </trkpt>
      <trkpt lat="45.70595" lon="5.76643">
        <ele>227</ele>
        <time>2022-04-16T07:36:17.949Z</time>
      </trkpt>
      <trkpt lat="45.70596" lon="5.76633">
        <ele>227</ele>
        <time>2022-04-16T07:36:18.949Z</time>
      </trkpt>
      <trkpt lat="45.70597" lon="5.76624">
        <ele>228</ele>
        <time>2022-04-16T07:36:19.949Z</time>
      </trkpt>
      <trkpt lat="45.70597" lon="5.76616">
        <ele>228</ele>
        <time>2022-04-16T07:36:20.949Z</time>
      </trkpt>
      <trkpt lat="45.70598" lon="5.7661">
        <ele>228</ele>
        <time>2022-04-16T07:36:21.949Z</time>
      </trkpt>
      <trkpt lat="45.70599" lon="5.76601">
        <ele>228</ele>
        <time>2022-04-16T07:36:22.950Z</time>
      </trkpt>
      <trkpt lat="45.706" lon="5.76591">
        <ele>228</ele>
        <time>2022-04-16T07:36:23.949Z</time>
      </trkpt>
      <trkpt lat="45.70601" lon="5.76583">
        <ele>228</ele>
        <time>2022-04-16T07:36:24.949Z</time>
      </trkpt>
      <trkpt lat="45.70603" lon="5.76574">
        <ele>227</ele>
        <time>2022-04-16T07:36:25.950Z</time>
      </trkpt>
      <trkpt lat="45.70604" lon="5.76567">
        <ele>227</ele>
        <time>2022-04-16T07:36:26.949Z</time>
      </trkpt>
      <trkpt lat="45.70605" lon="5.76558">
        <ele>227</ele>
        <time>2022-04-16T07:36:27.949Z</time>
      </trkpt>
      <trkpt lat="45.70606" lon="5.76549">
        <ele>226</ele>
        <time>2022-04-16T07:36:28.949Z</time>
      </trkpt>
      <trkpt lat="45.70608" lon="5.76538">
        <ele>226</ele>
        <time>2022-04-16T07:36:29.949Z</time>
      </trkpt>
      <trkpt lat="45.70609" lon="5.76529">
        <ele>226</ele>
        <time>2022-04-16T07:36:30.949Z</time>
      </trkpt>
      <trkpt lat="45.70611" lon="5.76521">
        <ele>226</ele>
        <time>2022-04-16T07:36:31.949Z</time>
      </trkpt>
      <trkpt lat="45.70612" lon="5.76513">
        <ele>226</ele>
        <time>2022-04-16T07:36:32.949Z</time>
      </trkpt>
      <trkpt lat="45.70613" lon="5.76505">
        <ele>225</ele>
        <time>2022-04-16T07:36:33.949Z</time>
      </trkpt>
      <trkpt lat="45.70614" lon="5.76495">
        <ele>225</ele>
        <time>2022-04-16T07:36:34.949Z</time>
      </trkpt>
      <trkpt lat="45.70615" lon="5.76487">
        <ele>225</ele>
        <time>2022-04-16T07:36:35.950Z</time>
      </trkpt>
      <trkpt lat="45.70616" lon="5.76478">
        <ele>225</ele>
        <time>2022-04-16T07:36:36.949Z</time>
      </trkpt>
      <trkpt lat="45.70617" lon="5.76472">
        <ele>224</ele>
        <time>2022-04-16T07:36:37.950Z</time>
      </trkpt>
      <trkpt lat="45.70619" lon="5.76464">
        <ele>224</ele>
        <time>2022-04-16T07:36:38.949Z</time>
      </trkpt>
      <trkpt lat="45.7062" lon="5.76455">
        <ele>223</ele>
        <time>2022-04-16T07:36:39.949Z</time>
      </trkpt>
      <trkpt lat="45.70621" lon="5.76447">
        <ele>223</ele>
        <time>2022-04-16T07:36:40.949Z</time>
      </trkpt>
      <trkpt lat="45.70622" lon="5.7644">
        <ele>223</ele>
        <time>2022-04-16T07:36:41.949Z</time>
      </trkpt>
      <trkpt lat="45.70623" lon="5.76434">
        <ele>222</ele>
        <time>2022-04-16T07:36:42.950Z</time>
      </trkpt>
      <trkpt lat="45.70624" lon="5.76427">
        <ele>222</ele>
        <time>2022-04-16T07:36:43.949Z</time>
      </trkpt>
      <trkpt lat="45.70625" lon="5.76418">
        <ele>222</ele>
        <time>2022-04-16T07:36:44.950Z</time>
      </trkpt>
      <trkpt lat="45.70626" lon="5.7641">
        <ele>223</ele>
        <time>2022-04-16T07:36:45.949Z</time>
      </trkpt>
      <trkpt lat="45.70626" lon="5.76403">
        <ele>223</ele>
        <time>2022-04-16T07:36:46.950Z</time>
      </trkpt>
      <trkpt lat="45.70627" lon="5.76396">
        <ele>223</ele>
        <time>2022-04-16T07:36:47.949Z</time>
      </trkpt>
      <trkpt lat="45.70628" lon="5.7639">
        <ele>223</ele>
        <time>2022-04-16T07:36:48.950Z</time>
      </trkpt>
      <trkpt lat="45.70629" lon="5.76381">
        <ele>223</ele>
        <time>2022-04-16T07:36:49.949Z</time>
      </trkpt>
      <trkpt lat="45.7063" lon="5.76374">
        <ele>224</ele>
        <time>2022-04-16T07:36:50.949Z</time>
      </trkpt>
      <trkpt lat="45.70631" lon="5.76367">
        <ele>224</ele>
        <time>2022-04-16T07:36:51.949Z</time>
      </trkpt>
      <trkpt lat="45.70632" lon="5.7636">
        <ele>224</ele>
        <time>2022-04-16T07:36:52.949Z</time>
      </trkpt>
      <trkpt lat="45.70632" lon="5.76354">
        <ele>224</ele>
        <time>2022-04-16T07:36:53.949Z</time>
      </trkpt>
      <trkpt lat="45.70633" lon="5.76347">
        <ele>224</ele>
        <time>2022-04-16T07:36:54.950Z</time>
      </trkpt>
      <trkpt lat="45.70634" lon="5.76339">
        <ele>223</ele>
        <time>2022-04-16T07:36:55.949Z</time>
      </trkpt>
      <trkpt lat="45.70635" lon="5.76332">
        <ele>223</ele>
        <time>2022-04-16T07:36:56.950Z</time>
      </trkpt>
      <trkpt lat="45.70636" lon="5.76326">
        <ele>223</ele>
        <time>2022-04-16T07:36:57.950Z</time>
      </trkpt>
      <trkpt lat="45.70637" lon="5.76319">
        <ele>223</ele>
        <time>2022-04-16T07:36:58.949Z</time>
      </trkpt>
      <trkpt lat="45.70637" lon="5.76313">
        <ele>223</ele>
        <time>2022-04-16T07:36:59.950Z</time>
      </trkpt>
      <trkpt lat="45.70638" lon="5.76305">
        <ele>224</ele>
        <time>2022-04-16T07:37:00.949Z</time>
      </trkpt>
      <trkpt lat="45.70639" lon="5.76298">
        <ele>224</ele>
        <time>2022-04-16T07:37:01.949Z</time>
      </trkpt>
      <trkpt lat="45.7064" lon="5.76293">
        <ele>224</ele>
        <time>2022-04-16T07:37:02.949Z</time>
      </trkpt>
      <trkpt lat="45.70641" lon="5.76286">
        <ele>224</ele>
        <time>2022-04-16T07:37:03.950Z</time>
      </trkpt>
      <trkpt lat="45.70642" lon="5.76279">
        <ele>224</ele>
        <time>2022-04-16T07:37:04.949Z</time>
      </trkpt>
      <trkpt lat="45.70643" lon="5.76271">
        <ele>224</ele>
        <time>2022-04-16T07:37:05.950Z</time>
      </trkpt>
      <trkpt lat="45.70644" lon="5.76264">
        <ele>224</ele>
        <time>2022-04-16T07:37:06.949Z</time>
      </trkpt>
      <trkpt lat="45.70645" lon="5.76259">
        <ele>224</ele>
        <time>2022-04-16T07:37:07.949Z</time>
      </trkpt>
      <trkpt lat="45.70646" lon="5.76252">
        <ele>224</ele>
        <time>2022-04-16T07:37:08.949Z</time>
      </trkpt>
      <trkpt lat="45.70647" lon="5.76244">
        <ele>225</ele>
        <time>2022-04-16T07:37:09.950Z</time>
      </trkpt>
      <trkpt lat="45.70648" lon="5.76239">
        <ele>225</ele>
        <time>2022-04-16T07:37:10.949Z</time>
      </trkpt>
      <trkpt lat="45.70649" lon="5.76232">
        <ele>225</ele>
        <time>2022-04-16T07:37:11.949Z</time>
      </trkpt>
      <trkpt lat="45.7065" lon="5.76226">
        <ele>225</ele>
        <time>2022-04-16T07:37:12.949Z</time>
      </trkpt>
      <trkpt lat="45.70651" lon="5.76219">
        <ele>225</ele>
        <time>2022-04-16T07:37:13.949Z</time>
      </trkpt>
      <trkpt lat="45.70651" lon="5.76213">
        <ele>225</ele>
        <time>2022-04-16T07:37:14.950Z</time>
      </trkpt>
      <trkpt lat="45.70651" lon="5.76206">
        <ele>225</ele>
        <time>2022-04-16T07:37:15.950Z</time>
      </trkpt>
      <trkpt lat="45.70652" lon="5.762">
        <ele>225</ele>
        <time>2022-04-16T07:37:16.949Z</time>
      </trkpt>
      <trkpt lat="45.70652" lon="5.76194">
        <ele>225</ele>
        <time>2022-04-16T07:37:17.949Z</time>
      </trkpt>
      <trkpt lat="45.70652" lon="5.7619">
        <ele>226</ele>
        <time>2022-04-16T07:37:18.949Z</time>
      </trkpt>
      <trkpt lat="45.70652" lon="5.76185">
        <ele>226</ele>
        <time>2022-04-16T07:37:19.949Z</time>
      </trkpt>
      <trkpt lat="45.70652" lon="5.76179">
        <ele>226</ele>
        <time>2022-04-16T07:37:20.949Z</time>
      </trkpt>
      <trkpt lat="45.70652" lon="5.76175">
        <ele>227</ele>
        <time>2022-04-16T07:37:21.949Z</time>
      </trkpt>
      <trkpt lat="45.70652" lon="5.76171">
        <ele>227</ele>
        <time>2022-04-16T07:37:22.950Z</time>
      </trkpt>
      <trkpt lat="45.70651" lon="5.76168">
        <ele>227</ele>
        <time>2022-04-16T07:37:23.950Z</time>
      </trkpt>
      <trkpt lat="45.70651" lon="5.76165">
        <ele>227</ele>
        <time>2022-04-16T07:37:24.949Z</time>
      </trkpt>
      <trkpt lat="45.70649" lon="5.76162">
        <ele>227</ele>
        <time>2022-04-16T07:37:25.949Z</time>
      </trkpt>
      <trkpt lat="45.70648" lon="5.7616">
        <ele>227</ele>
        <time>2022-04-16T07:37:26.950Z</time>
      </trkpt>
      <trkpt lat="45.70648" lon="5.76156">
        <ele>227</ele>
        <time>2022-04-16T07:37:27.949Z</time>
      </trkpt>
      <trkpt lat="45.70648" lon="5.76153">
        <ele>227</ele>
        <time>2022-04-16T07:37:28.949Z</time>
      </trkpt>
      <trkpt lat="45.70647" lon="5.7615">
        <ele>227</ele>
        <time>2022-04-16T07:37:29.949Z</time>
      </trkpt>
      <trkpt lat="45.70647" lon="5.76145">
        <ele>228</ele>
        <time>2022-04-16T07:37:30.949Z</time>
      </trkpt>
      <trkpt lat="45.70647" lon="5.7614">
        <ele>228</ele>
        <time>2022-04-16T07:37:31.949Z</time>
      </trkpt>
      <trkpt lat="45.70647" lon="5.76136">
        <ele>228</ele>
        <time>2022-04-16T07:37:32.949Z</time>
      </trkpt>
      <trkpt lat="45.70648" lon="5.76132">
        <ele>228</ele>
        <time>2022-04-16T07:37:33.950Z</time>
      </trkpt>
      <trkpt lat="45.70649" lon="5.76128">
        <ele>229</ele>
        <time>2022-04-16T07:37:34.949Z</time>
      </trkpt>
      <trkpt lat="45.70652" lon="5.76124">
        <ele>229</ele>
        <time>2022-04-16T07:37:35.950Z</time>
      </trkpt>
      <trkpt lat="45.70655" lon="5.76119">
        <ele>229</ele>
        <time>2022-04-16T07:37:36.949Z</time>
      </trkpt>
      <trkpt lat="45.70657" lon="5.76115">
        <ele>229</ele>
        <time>2022-04-16T07:37:37.950Z</time>
      </trkpt>
      <trkpt lat="45.7066" lon="5.76111">
        <ele>229</ele>
        <time>2022-04-16T07:37:38.950Z</time>
      </trkpt>
      <trkpt lat="45.70662" lon="5.76107">
        <ele>229</ele>
        <time>2022-04-16T07:37:39.950Z</time>
      </trkpt>
      <trkpt lat="45.70663" lon="5.76102">
        <ele>229</ele>
        <time>2022-04-16T07:37:40.949Z</time>
      </trkpt>
      <trkpt lat="45.70664" lon="5.76095">
        <ele>229</ele>
        <time>2022-04-16T07:37:41.950Z</time>
      </trkpt>
      <trkpt lat="45.70664" lon="5.76089">
        <ele>228</ele>
        <time>2022-04-16T07:37:42.950Z</time>
      </trkpt>
      <trkpt lat="45.70663" lon="5.76084">
        <ele>228</ele>
        <time>2022-04-16T07:37:43.950Z</time>
      </trkpt>
      <trkpt lat="45.70662" lon="5.76079">
        <ele>228</ele>
        <time>2022-04-16T07:37:44.949Z</time>
      </trkpt>
      <trkpt lat="45.7066" lon="5.76074">
        <ele>228</ele>
        <time>2022-04-16T07:37:45.950Z</time>
      </trkpt>
      <trkpt lat="45.70656" lon="5.76068">
        <ele>228</ele>
        <time>2022-04-16T07:37:46.950Z</time>
      </trkpt>
      <trkpt lat="45.70653" lon="5.76063">
        <ele>229</ele>
        <time>2022-04-16T07:37:47.950Z</time>
      </trkpt>
      <trkpt lat="45.70649" lon="5.76058">
        <ele>229</ele>
        <time>2022-04-16T07:37:48.949Z</time>
      </trkpt>
      <trkpt lat="45.70647" lon="5.76053">
        <ele>229</ele>
        <time>2022-04-16T07:37:49.949Z</time>
      </trkpt>
      <trkpt lat="45.70645" lon="5.76047">
        <ele>229</ele>
        <time>2022-04-16T07:37:50.949Z</time>
      </trkpt>
      <trkpt lat="45.70643" lon="5.76039">
        <ele>229</ele>
        <time>2022-04-16T07:37:51.949Z</time>
      </trkpt>
      <trkpt lat="45.70642" lon="5.76033">
        <ele>229</ele>
        <time>2022-04-16T07:37:52.949Z</time>
      </trkpt>
      <trkpt lat="45.70639" lon="5.76025">
        <ele>230</ele>
        <time>2022-04-16T07:37:53.950Z</time>
      </trkpt>
      <trkpt lat="45.70639" lon="5.76019">
        <ele>230</ele>
        <time>2022-04-16T07:37:54.950Z</time>
      </trkpt>
      <trkpt lat="45.70638" lon="5.76012">
        <ele>230</ele>
        <time>2022-04-16T07:37:55.949Z</time>
      </trkpt>
      <trkpt lat="45.70636" lon="5.76004">
        <ele>230</ele>
        <time>2022-04-16T07:37:56.949Z</time>
      </trkpt>
      <trkpt lat="45.70635" lon="5.75997">
        <ele>231</ele>
        <time>2022-04-16T07:37:57.949Z</time>
      </trkpt>
      <trkpt lat="45.70633" lon="5.75989">
        <ele>231</ele>
        <time>2022-04-16T07:37:58.949Z</time>
      </trkpt>
      <trkpt lat="45.70632" lon="5.75982">
        <ele>231</ele>
        <time>2022-04-16T07:37:59.949Z</time>
      </trkpt>
      <trkpt lat="45.70631" lon="5.75975">
        <ele>231</ele>
        <time>2022-04-16T07:38:00.950Z</time>
      </trkpt>
      <trkpt lat="45.7063" lon="5.75968">
        <ele>231</ele>
        <time>2022-04-16T07:38:01.949Z</time>
      </trkpt>
      <trkpt lat="45.70629" lon="5.7596">
        <ele>231</ele>
        <time>2022-04-16T07:38:02.950Z</time>
      </trkpt>
      <trkpt lat="45.70628" lon="5.75953">
        <ele>231</ele>
        <time>2022-04-16T07:38:03.949Z</time>
      </trkpt>
      <trkpt lat="45.70627" lon="5.75947">
        <ele>231</ele>
        <time>2022-04-16T07:38:04.949Z</time>
      </trkpt>
      <trkpt lat="45.70626" lon="5.75938">
        <ele>231</ele>
        <time>2022-04-16T07:38:05.949Z</time>
      </trkpt>
      <trkpt lat="45.70625" lon="5.75931">
        <ele>231</ele>
        <time>2022-04-16T07:38:06.949Z</time>
      </trkpt>
      <trkpt lat="45.70623" lon="5.75923">
        <ele>231</ele>
        <time>2022-04-16T07:38:07.949Z</time>
      </trkpt>
      <trkpt lat="45.70622" lon="5.75916">
        <ele>231</ele>
        <time>2022-04-16T07:38:08.949Z</time>
      </trkpt>
      <trkpt lat="45.70621" lon="5.7591">
        <ele>231</ele>
        <time>2022-04-16T07:38:09.949Z</time>
      </trkpt>
      <trkpt lat="45.70621" lon="5.75903">
        <ele>230</ele>
        <time>2022-04-16T07:38:10.949Z</time>
      </trkpt>
      <trkpt lat="45.70619" lon="5.75894">
        <ele>230</ele>
        <time>2022-04-16T07:38:11.950Z</time>
      </trkpt>
      <trkpt lat="45.70619" lon="5.75887">
        <ele>230</ele>
        <time>2022-04-16T07:38:12.949Z</time>
      </trkpt>
      <trkpt lat="45.70618" lon="5.75879">
        <ele>230</ele>
        <time>2022-04-16T07:38:13.949Z</time>
      </trkpt>
      <trkpt lat="45.70617" lon="5.75872">
        <ele>230</ele>
        <time>2022-04-16T07:38:14.949Z</time>
      </trkpt>
      <trkpt lat="45.70615" lon="5.75864">
        <ele>230</ele>
        <time>2022-04-16T07:38:15.949Z</time>
      </trkpt>
      <trkpt lat="45.70614" lon="5.75856">
        <ele>230</ele>
        <time>2022-04-16T07:38:16.949Z</time>
      </trkpt>
      <trkpt lat="45.70613" lon="5.75849">
        <ele>230</ele>
        <time>2022-04-16T07:38:17.949Z</time>
      </trkpt>
      <trkpt lat="45.70612" lon="5.75841">
        <ele>230</ele>
        <time>2022-04-16T07:38:18.949Z</time>
      </trkpt>
      <trkpt lat="45.70611" lon="5.75834">
        <ele>230</ele>
        <time>2022-04-16T07:38:19.949Z</time>
      </trkpt>
      <trkpt lat="45.7061" lon="5.75828">
        <ele>230</ele>
        <time>2022-04-16T07:38:20.949Z</time>
      </trkpt>
      <trkpt lat="45.70609" lon="5.75819">
        <ele>230</ele>
        <time>2022-04-16T07:38:21.949Z</time>
      </trkpt>
      <trkpt lat="45.70608" lon="5.75811">
        <ele>230</ele>
        <time>2022-04-16T07:38:22.950Z</time>
      </trkpt>
      <trkpt lat="45.70607" lon="5.75803">
        <ele>229</ele>
        <time>2022-04-16T07:38:23.949Z</time>
      </trkpt>
      <trkpt lat="45.70606" lon="5.75795">
        <ele>229</ele>
        <time>2022-04-16T07:38:24.949Z</time>
      </trkpt>
      <trkpt lat="45.70605" lon="5.75789">
        <ele>230</ele>
        <time>2022-04-16T07:38:25.949Z</time>
      </trkpt>
      <trkpt lat="45.70603" lon="5.75779">
        <ele>230</ele>
        <time>2022-04-16T07:38:26.949Z</time>
      </trkpt>
      <trkpt lat="45.70602" lon="5.75771">
        <ele>230</ele>
        <time>2022-04-16T07:38:27.949Z</time>
      </trkpt>
      <trkpt lat="45.70601" lon="5.75763">
        <ele>230</ele>
        <time>2022-04-16T07:38:28.949Z</time>
      </trkpt>
      <trkpt lat="45.706" lon="5.75757">
        <ele>230</ele>
        <time>2022-04-16T07:38:29.949Z</time>
      </trkpt>
      <trkpt lat="45.70599" lon="5.75749">
        <ele>230</ele>
        <time>2022-04-16T07:38:30.949Z</time>
      </trkpt>
      <trkpt lat="45.70597" lon="5.7574">
        <ele>230</ele>
        <time>2022-04-16T07:38:31.949Z</time>
      </trkpt>
      <trkpt lat="45.70596" lon="5.75732">
        <ele>229</ele>
        <time>2022-04-16T07:38:32.950Z</time>
      </trkpt>
      <trkpt lat="45.70595" lon="5.75724">
        <ele>229</ele>
        <time>2022-04-16T07:38:33.949Z</time>
      </trkpt>
      <trkpt lat="45.70594" lon="5.75717">
        <ele>229</ele>
        <time>2022-04-16T07:38:34.950Z</time>
      </trkpt>
      <trkpt lat="45.70592" lon="5.75709">
        <ele>228</ele>
        <time>2022-04-16T07:38:35.949Z</time>
      </trkpt>
      <trkpt lat="45.70591" lon="5.75699">
        <ele>228</ele>
        <time>2022-04-16T07:38:36.949Z</time>
      </trkpt>
      <trkpt lat="45.70589" lon="5.75691">
        <ele>228</ele>
        <time>2022-04-16T07:38:37.949Z</time>
      </trkpt>
      <trkpt lat="45.70588" lon="5.75683">
        <ele>229</ele>
        <time>2022-04-16T07:38:38.950Z</time>
      </trkpt>
      <trkpt lat="45.70587" lon="5.75675">
        <ele>228</ele>
        <time>2022-04-16T07:38:39.950Z</time>
      </trkpt>
      <trkpt lat="45.70586" lon="5.75667">
        <ele>228</ele>
        <time>2022-04-16T07:38:40.949Z</time>
      </trkpt>
      <trkpt lat="45.70585" lon="5.7566">
        <ele>228</ele>
        <time>2022-04-16T07:38:41.950Z</time>
      </trkpt>
      <trkpt lat="45.70584" lon="5.75652">
        <ele>228</ele>
        <time>2022-04-16T07:38:42.949Z</time>
      </trkpt>
      <trkpt lat="45.70583" lon="5.75644">
        <ele>227</ele>
        <time>2022-04-16T07:38:43.950Z</time>
      </trkpt>
      <trkpt lat="45.70582" lon="5.75638">
        <ele>227</ele>
        <time>2022-04-16T07:38:44.950Z</time>
      </trkpt>
      <trkpt lat="45.70581" lon="5.7563">
        <ele>227</ele>
        <time>2022-04-16T07:38:45.949Z</time>
      </trkpt>
      <trkpt lat="45.7058" lon="5.75622">
        <ele>227</ele>
        <time>2022-04-16T07:38:46.949Z</time>
      </trkpt>
      <trkpt lat="45.70578" lon="5.75613">
        <ele>226</ele>
        <time>2022-04-16T07:38:47.949Z</time>
      </trkpt>
      <trkpt lat="45.70577" lon="5.75606">
        <ele>226</ele>
        <time>2022-04-16T07:38:48.949Z</time>
      </trkpt>
      <trkpt lat="45.70576" lon="5.75598">
        <ele>226</ele>
        <time>2022-04-16T07:38:49.949Z</time>
      </trkpt>
      <trkpt lat="45.70575" lon="5.7559">
        <ele>226</ele>
        <time>2022-04-16T07:38:50.949Z</time>
      </trkpt>
      <trkpt lat="45.70574" lon="5.75584">
        <ele>226</ele>
        <time>2022-04-16T07:38:51.949Z</time>
      </trkpt>
      <trkpt lat="45.70573" lon="5.75575">
        <ele>226</ele>
        <time>2022-04-16T07:38:52.949Z</time>
      </trkpt>
      <trkpt lat="45.70572" lon="5.75567">
        <ele>226</ele>
        <time>2022-04-16T07:38:53.950Z</time>
      </trkpt>
      <trkpt lat="45.70571" lon="5.7556">
        <ele>227</ele>
        <time>2022-04-16T07:38:54.950Z</time>
      </trkpt>
      <trkpt lat="45.7057" lon="5.75552">
        <ele>227</ele>
        <time>2022-04-16T07:38:55.949Z</time>
      </trkpt>
      <trkpt lat="45.70568" lon="5.75542">
        <ele>227</ele>
        <time>2022-04-16T07:38:56.950Z</time>
      </trkpt>
      <trkpt lat="45.70566" lon="5.75534">
        <ele>228</ele>
        <time>2022-04-16T07:38:57.949Z</time>
      </trkpt>
      <trkpt lat="45.70565" lon="5.75526">
        <ele>229</ele>
        <time>2022-04-16T07:38:58.949Z</time>
      </trkpt>
      <trkpt lat="45.70564" lon="5.75519">
        <ele>229</ele>
        <time>2022-04-16T07:38:59.949Z</time>
      </trkpt>
      <trkpt lat="45.70562" lon="5.75509">
        <ele>230</ele>
        <time>2022-04-16T07:39:00.950Z</time>
      </trkpt>
      <trkpt lat="45.70561" lon="5.75501">
        <ele>230</ele>
        <time>2022-04-16T07:39:01.949Z</time>
      </trkpt>
      <trkpt lat="45.7056" lon="5.75493">
        <ele>230</ele>
        <time>2022-04-16T07:39:02.949Z</time>
      </trkpt>
      <trkpt lat="45.70558" lon="5.75485">
        <ele>230</ele>
        <time>2022-04-16T07:39:03.949Z</time>
      </trkpt>
      <trkpt lat="45.70557" lon="5.75477">
        <ele>230</ele>
        <time>2022-04-16T07:39:04.949Z</time>
      </trkpt>
      <trkpt lat="45.70556" lon="5.75469">
        <ele>229</ele>
        <time>2022-04-16T07:39:05.949Z</time>
      </trkpt>
      <trkpt lat="45.70555" lon="5.75461">
        <ele>229</ele>
        <time>2022-04-16T07:39:06.949Z</time>
      </trkpt>
      <trkpt lat="45.70554" lon="5.75453">
        <ele>229</ele>
        <time>2022-04-16T07:39:07.950Z</time>
      </trkpt>
      <trkpt lat="45.70553" lon="5.75445">
        <ele>229</ele>
        <time>2022-04-16T07:39:08.949Z</time>
      </trkpt>
      <trkpt lat="45.70551" lon="5.75438">
        <ele>229</ele>
        <time>2022-04-16T07:39:09.949Z</time>
      </trkpt>
      <trkpt lat="45.70551" lon="5.75432">
        <ele>229</ele>
        <time>2022-04-16T07:39:10.949Z</time>
      </trkpt>
      <trkpt lat="45.70549" lon="5.75423">
        <ele>229</ele>
        <time>2022-04-16T07:39:11.949Z</time>
      </trkpt>
      <trkpt lat="45.70548" lon="5.75415">
        <ele>229</ele>
        <time>2022-04-16T07:39:12.949Z</time>
      </trkpt>
      <trkpt lat="45.70547" lon="5.75409">
        <ele>229</ele>
        <time>2022-04-16T07:39:13.949Z</time>
      </trkpt>
      <trkpt lat="45.70546" lon="5.75401">
        <ele>229</ele>
        <time>2022-04-16T07:39:14.949Z</time>
      </trkpt>
      <trkpt lat="45.70545" lon="5.75395">
        <ele>228</ele>
        <time>2022-04-16T07:39:15.949Z</time>
      </trkpt>
      <trkpt lat="45.70544" lon="5.75387">
        <ele>228</ele>
        <time>2022-04-16T07:39:16.950Z</time>
      </trkpt>
      <trkpt lat="45.70543" lon="5.75379">
        <ele>228</ele>
        <time>2022-04-16T07:39:17.949Z</time>
      </trkpt>
      <trkpt lat="45.70543" lon="5.75374">
        <ele>228</ele>
        <time>2022-04-16T07:39:18.949Z</time>
      </trkpt>
      <trkpt lat="45.70542" lon="5.75367">
        <ele>227</ele>
        <time>2022-04-16T07:39:19.949Z</time>
      </trkpt>
      <trkpt lat="45.70541" lon="5.75358">
        <ele>228</ele>
        <time>2022-04-16T07:39:20.949Z</time>
      </trkpt>
      <trkpt lat="45.7054" lon="5.75351">
        <ele>228</ele>
        <time>2022-04-16T07:39:21.949Z</time>
      </trkpt>
      <trkpt lat="45.70539" lon="5.75344">
        <ele>228</ele>
        <time>2022-04-16T07:39:22.950Z</time>
      </trkpt>
      <trkpt lat="45.70538" lon="5.75337">
        <ele>228</ele>
        <time>2022-04-16T07:39:23.950Z</time>
      </trkpt>
      <trkpt lat="45.70537" lon="5.7533">
        <ele>229</ele>
        <time>2022-04-16T07:39:24.949Z</time>
      </trkpt>
      <trkpt lat="45.70537" lon="5.75323">
        <ele>229</ele>
        <time>2022-04-16T07:39:25.949Z</time>
      </trkpt>
      <trkpt lat="45.70536" lon="5.75315">
        <ele>229</ele>
        <time>2022-04-16T07:39:26.949Z</time>
      </trkpt>
      <trkpt lat="45.70536" lon="5.75308">
        <ele>229</ele>
        <time>2022-04-16T07:39:27.949Z</time>
      </trkpt>
      <trkpt lat="45.70535" lon="5.75302">
        <ele>229</ele>
        <time>2022-04-16T07:39:28.949Z</time>
      </trkpt>
      <trkpt lat="45.70535" lon="5.75295">
        <ele>229</ele>
        <time>2022-04-16T07:39:29.949Z</time>
      </trkpt>
      <trkpt lat="45.70535" lon="5.75286">
        <ele>229</ele>
        <time>2022-04-16T07:39:30.949Z</time>
      </trkpt>
      <trkpt lat="45.70535" lon="5.75278">
        <ele>229</ele>
        <time>2022-04-16T07:39:31.949Z</time>
      </trkpt>
      <trkpt lat="45.70535" lon="5.7527">
        <ele>229</ele>
        <time>2022-04-16T07:39:32.949Z</time>
      </trkpt>
      <trkpt lat="45.70534" lon="5.75263">
        <ele>229</ele>
        <time>2022-04-16T07:39:33.950Z</time>
      </trkpt>
      <trkpt lat="45.70534" lon="5.75255">
        <ele>229</ele>
        <time>2022-04-16T07:39:34.949Z</time>
      </trkpt>
      <trkpt lat="45.70534" lon="5.75247">
        <ele>229</ele>
        <time>2022-04-16T07:39:35.949Z</time>
      </trkpt>
      <trkpt lat="45.70534" lon="5.75238">
        <ele>229</ele>
        <time>2022-04-16T07:39:36.950Z</time>
      </trkpt>
      <trkpt lat="45.70535" lon="5.7523">
        <ele>230</ele>
        <time>2022-04-16T07:39:37.950Z</time>
      </trkpt>
      <trkpt lat="45.70535" lon="5.75223">
        <ele>230</ele>
        <time>2022-04-16T07:39:38.950Z</time>
      </trkpt>
      <trkpt lat="45.70536" lon="5.75215">
        <ele>230</ele>
        <time>2022-04-16T07:39:39.950Z</time>
      </trkpt>
      <trkpt lat="45.70536" lon="5.75208">
        <ele>230</ele>
        <time>2022-04-16T07:39:40.949Z</time>
      </trkpt>
      <trkpt lat="45.70536" lon="5.752">
        <ele>230</ele>
        <time>2022-04-16T07:39:41.949Z</time>
      </trkpt>
      <trkpt lat="45.70536" lon="5.75193">
        <ele>230</ele>
        <time>2022-04-16T07:39:42.949Z</time>
      </trkpt>
      <trkpt lat="45.70536" lon="5.75185">
        <ele>230</ele>
        <time>2022-04-16T07:39:43.949Z</time>
      </trkpt>
      <trkpt lat="45.70536" lon="5.75179">
        <ele>230</ele>
        <time>2022-04-16T07:39:44.950Z</time>
      </trkpt>
      <trkpt lat="45.70537" lon="5.75169">
        <ele>230</ele>
        <time>2022-04-16T07:39:45.950Z</time>
      </trkpt>
      <trkpt lat="45.70538" lon="5.75162">
        <ele>229</ele>
        <time>2022-04-16T07:39:46.949Z</time>
      </trkpt>
      <trkpt lat="45.70538" lon="5.75154">
        <ele>229</ele>
        <time>2022-04-16T07:39:47.949Z</time>
      </trkpt>
      <trkpt lat="45.70539" lon="5.75147">
        <ele>229</ele>
        <time>2022-04-16T07:39:48.949Z</time>
      </trkpt>
      <trkpt lat="45.70539" lon="5.7514">
        <ele>229</ele>
        <time>2022-04-16T07:39:49.950Z</time>
      </trkpt>
      <trkpt lat="45.7054" lon="5.75132">
        <ele>229</ele>
        <time>2022-04-16T07:39:50.950Z</time>
      </trkpt>
      <trkpt lat="45.7054" lon="5.75124">
        <ele>229</ele>
        <time>2022-04-16T07:39:51.949Z</time>
      </trkpt>
      <trkpt lat="45.70541" lon="5.75117">
        <ele>230</ele>
        <time>2022-04-16T07:39:52.950Z</time>
      </trkpt>
      <trkpt lat="45.70541" lon="5.7511">
        <ele>230</ele>
        <time>2022-04-16T07:39:53.949Z</time>
      </trkpt>
      <trkpt lat="45.70541" lon="5.75103">
        <ele>229</ele>
        <time>2022-04-16T07:39:54.949Z</time>
      </trkpt>
      <trkpt lat="45.70541" lon="5.75096">
        <ele>229</ele>
        <time>2022-04-16T07:39:55.950Z</time>
      </trkpt>
      <trkpt lat="45.70542" lon="5.7509">
        <ele>229</ele>
        <time>2022-04-16T07:39:56.949Z</time>
      </trkpt>
      <trkpt lat="45.70542" lon="5.75083">
        <ele>229</ele>
        <time>2022-04-16T07:39:57.949Z</time>
      </trkpt>
      <trkpt lat="45.70542" lon="5.75076">
        <ele>229</ele>
        <time>2022-04-16T07:39:58.949Z</time>
      </trkpt>
      <trkpt lat="45.70542" lon="5.75069">
        <ele>229</ele>
        <time>2022-04-16T07:39:59.950Z</time>
      </trkpt>
      <trkpt lat="45.70541" lon="5.75062">
        <ele>229</ele>
        <time>2022-04-16T07:40:00.949Z</time>
      </trkpt>
      <trkpt lat="45.70541" lon="5.75055">
        <ele>229</ele>
        <time>2022-04-16T07:40:01.949Z</time>
      </trkpt>
      <trkpt lat="45.7054" lon="5.75047">
        <ele>230</ele>
        <time>2022-04-16T07:40:02.949Z</time>
      </trkpt>
      <trkpt lat="45.7054" lon="5.7504">
        <ele>230</ele>
        <time>2022-04-16T07:40:03.949Z</time>
      </trkpt>
      <trkpt lat="45.70539" lon="5.75033">
        <ele>229</ele>
        <time>2022-04-16T07:40:04.950Z</time>
      </trkpt>
      <trkpt lat="45.70539" lon="5.75026">
        <ele>229</ele>
        <time>2022-04-16T07:40:05.949Z</time>
      </trkpt>
      <trkpt lat="45.70537" lon="5.75018">
        <ele>229</ele>
        <time>2022-04-16T07:40:06.949Z</time>
      </trkpt>
      <trkpt lat="45.70536" lon="5.75012">
        <ele>229</ele>
        <time>2022-04-16T07:40:07.949Z</time>
      </trkpt>
      <trkpt lat="45.70535" lon="5.75003">
        <ele>229</ele>
        <time>2022-04-16T07:40:08.949Z</time>
      </trkpt>
      <trkpt lat="45.70533" lon="5.74996">
        <ele>229</ele>
        <time>2022-04-16T07:40:09.949Z</time>
      </trkpt>
      <trkpt lat="45.70531" lon="5.74988">
        <ele>229</ele>
        <time>2022-04-16T07:40:10.950Z</time>
      </trkpt>
      <trkpt lat="45.70529" lon="5.7498">
        <ele>229</ele>
        <time>2022-04-16T07:40:11.949Z</time>
      </trkpt>
      <trkpt lat="45.70527" lon="5.74974">
        <ele>229</ele>
        <time>2022-04-16T07:40:12.950Z</time>
      </trkpt>
      <trkpt lat="45.70525" lon="5.74966">
        <ele>229</ele>
        <time>2022-04-16T07:40:13.949Z</time>
      </trkpt>
      <trkpt lat="45.70523" lon="5.74957">
        <ele>230</ele>
        <time>2022-04-16T07:40:14.950Z</time>
      </trkpt>
      <trkpt lat="45.70521" lon="5.74949">
        <ele>230</ele>
        <time>2022-04-16T07:40:15.949Z</time>
      </trkpt>
      <trkpt lat="45.70519" lon="5.74942">
        <ele>230</ele>
        <time>2022-04-16T07:40:16.950Z</time>
      </trkpt>
      <trkpt lat="45.70517" lon="5.74936">
        <ele>230</ele>
        <time>2022-04-16T07:40:17.949Z</time>
      </trkpt>
      <trkpt lat="45.70515" lon="5.74928">
        <ele>230</ele>
        <time>2022-04-16T07:40:18.949Z</time>
      </trkpt>
      <trkpt lat="45.70513" lon="5.74919">
        <ele>231</ele>
        <time>2022-04-16T07:40:19.949Z</time>
      </trkpt>
      <trkpt lat="45.70512" lon="5.74911">
        <ele>231</ele>
        <time>2022-04-16T07:40:20.949Z</time>
      </trkpt>
      <trkpt lat="45.7051" lon="5.74904">
        <ele>231</ele>
        <time>2022-04-16T07:40:21.949Z</time>
      </trkpt>
      <trkpt lat="45.70508" lon="5.74898">
        <ele>231</ele>
        <time>2022-04-16T07:40:22.949Z</time>
      </trkpt>
      <trkpt lat="45.70506" lon="5.74892">
        <ele>231</ele>
        <time>2022-04-16T07:40:23.949Z</time>
      </trkpt>
      <trkpt lat="45.70504" lon="5.74883">
        <ele>231</ele>
        <time>2022-04-16T07:40:24.949Z</time>
      </trkpt>
      <trkpt lat="45.70502" lon="5.74877">
        <ele>231</ele>
        <time>2022-04-16T07:40:25.950Z</time>
      </trkpt>
      <trkpt lat="45.70499" lon="5.7487">
        <ele>231</ele>
        <time>2022-04-16T07:40:26.950Z</time>
      </trkpt>
      <trkpt lat="45.70497" lon="5.74864">
        <ele>231</ele>
        <time>2022-04-16T07:40:27.950Z</time>
      </trkpt>
      <trkpt lat="45.70494" lon="5.74857">
        <ele>231</ele>
        <time>2022-04-16T07:40:28.949Z</time>
      </trkpt>
      <trkpt lat="45.70492" lon="5.74851">
        <ele>231</ele>
        <time>2022-04-16T07:40:29.949Z</time>
      </trkpt>
      <trkpt lat="45.70489" lon="5.74844">
        <ele>231</ele>
        <time>2022-04-16T07:40:30.949Z</time>
      </trkpt>
      <trkpt lat="45.70487" lon="5.74837">
        <ele>231</ele>
        <time>2022-04-16T07:40:31.949Z</time>
      </trkpt>
      <trkpt lat="45.70484" lon="5.7483">
        <ele>230</ele>
        <time>2022-04-16T07:40:32.949Z</time>
      </trkpt>
      <trkpt lat="45.70482" lon="5.74824">
        <ele>230</ele>
        <time>2022-04-16T07:40:33.949Z</time>
      </trkpt>
      <trkpt lat="45.7048" lon="5.74816">
        <ele>230</ele>
        <time>2022-04-16T07:40:34.949Z</time>
      </trkpt>
      <trkpt lat="45.70477" lon="5.74809">
        <ele>229</ele>
        <time>2022-04-16T07:40:35.949Z</time>
      </trkpt>
      <trkpt lat="45.70476" lon="5.74801">
        <ele>229</ele>
        <time>2022-04-16T07:40:36.949Z</time>
      </trkpt>
      <trkpt lat="45.70476" lon="5.74793">
        <ele>229</ele>
        <time>2022-04-16T07:40:37.949Z</time>
      </trkpt>
      <trkpt lat="45.70476" lon="5.74785">
        <ele>229</ele>
        <time>2022-04-16T07:40:38.950Z</time>
      </trkpt>
      <trkpt lat="45.70477" lon="5.74777">
        <ele>228</ele>
        <time>2022-04-16T07:40:39.949Z</time>
      </trkpt>
      <trkpt lat="45.70479" lon="5.74769">
        <ele>228</ele>
        <time>2022-04-16T07:40:40.949Z</time>
      </trkpt>
      <trkpt lat="45.70481" lon="5.74761">
        <ele>227</ele>
        <time>2022-04-16T07:40:41.949Z</time>
      </trkpt>
      <trkpt lat="45.70483" lon="5.74753">
        <ele>227</ele>
        <time>2022-04-16T07:40:42.950Z</time>
      </trkpt>
      <trkpt lat="45.70485" lon="5.74746">
        <ele>226</ele>
        <time>2022-04-16T07:40:43.949Z</time>
      </trkpt>
      <trkpt lat="45.70486" lon="5.74739">
        <ele>226</ele>
        <time>2022-04-16T07:40:44.949Z</time>
      </trkpt>
      <trkpt lat="45.70488" lon="5.74731">
        <ele>226</ele>
        <time>2022-04-16T07:40:45.949Z</time>
      </trkpt>
      <trkpt lat="45.70491" lon="5.74724">
        <ele>226</ele>
        <time>2022-04-16T07:40:46.949Z</time>
      </trkpt>
      <trkpt lat="45.70494" lon="5.74716">
        <ele>226</ele>
        <time>2022-04-16T07:40:47.949Z</time>
      </trkpt>
      <trkpt lat="45.70496" lon="5.74709">
        <ele>227</ele>
        <time>2022-04-16T07:40:48.949Z</time>
      </trkpt>
      <trkpt lat="45.70499" lon="5.74702">
        <ele>227</ele>
        <time>2022-04-16T07:40:49.949Z</time>
      </trkpt>
      <trkpt lat="45.70502" lon="5.74695">
        <ele>228</ele>
        <time>2022-04-16T07:40:50.949Z</time>
      </trkpt>
      <trkpt lat="45.70503" lon="5.74688">
        <ele>228</ele>
        <time>2022-04-16T07:40:51.949Z</time>
      </trkpt>
      <trkpt lat="45.70505" lon="5.74681">
        <ele>228</ele>
        <time>2022-04-16T07:40:52.949Z</time>
      </trkpt>
      <trkpt lat="45.70508" lon="5.74674">
        <ele>229</ele>
        <time>2022-04-16T07:40:53.950Z</time>
      </trkpt>
      <trkpt lat="45.70511" lon="5.74667">
        <ele>229</ele>
        <time>2022-04-16T07:40:54.949Z</time>
      </trkpt>
      <trkpt lat="45.70514" lon="5.7466">
        <ele>230</ele>
        <time>2022-04-16T07:40:55.949Z</time>
      </trkpt>
      <trkpt lat="45.70516" lon="5.74652">
        <ele>230</ele>
        <time>2022-04-16T07:40:56.949Z</time>
      </trkpt>
      <trkpt lat="45.70518" lon="5.74645">
        <ele>230</ele>
        <time>2022-04-16T07:40:57.949Z</time>
      </trkpt>
      <trkpt lat="45.7052" lon="5.74638">
        <ele>231</ele>
        <time>2022-04-16T07:40:58.949Z</time>
      </trkpt>
      <trkpt lat="45.70523" lon="5.74631">
        <ele>231</ele>
        <time>2022-04-16T07:40:59.949Z</time>
      </trkpt>
      <trkpt lat="45.70525" lon="5.74624">
        <ele>231</ele>
        <time>2022-04-16T07:41:00.950Z</time>
      </trkpt>
      <trkpt lat="45.70527" lon="5.74618">
        <ele>232</ele>
        <time>2022-04-16T07:41:01.949Z</time>
      </trkpt>
      <trkpt lat="45.70529" lon="5.74611">
        <ele>232</ele>
        <time>2022-04-16T07:41:02.949Z</time>
      </trkpt>
      <trkpt lat="45.70531" lon="5.74603">
        <ele>233</ele>
        <time>2022-04-16T07:41:03.949Z</time>
      </trkpt>
      <trkpt lat="45.70534" lon="5.74596">
        <ele>233</ele>
        <time>2022-04-16T07:41:04.950Z</time>
      </trkpt>
      <trkpt lat="45.70536" lon="5.7459">
        <ele>234</ele>
        <time>2022-04-16T07:41:05.950Z</time>
      </trkpt>
      <trkpt lat="45.70539" lon="5.74583">
        <ele>234</ele>
        <time>2022-04-16T07:41:06.949Z</time>
      </trkpt>
      <trkpt lat="45.70542" lon="5.74576">
        <ele>234</ele>
        <time>2022-04-16T07:41:07.950Z</time>
      </trkpt>
      <trkpt lat="45.70544" lon="5.74569">
        <ele>234</ele>
        <time>2022-04-16T07:41:08.949Z</time>
      </trkpt>
      <trkpt lat="45.70548" lon="5.74563">
        <ele>235</ele>
        <time>2022-04-16T07:41:09.949Z</time>
      </trkpt>
      <trkpt lat="45.70551" lon="5.74556">
        <ele>235</ele>
        <time>2022-04-16T07:41:10.950Z</time>
      </trkpt>
      <trkpt lat="45.70554" lon="5.74549">
        <ele>235</ele>
        <time>2022-04-16T07:41:11.949Z</time>
      </trkpt>
      <trkpt lat="45.70557" lon="5.74543">
        <ele>235</ele>
        <time>2022-04-16T07:41:12.949Z</time>
      </trkpt>
      <trkpt lat="45.70559" lon="5.74536">
        <ele>236</ele>
        <time>2022-04-16T07:41:13.950Z</time>
      </trkpt>
      <trkpt lat="45.70562" lon="5.74529">
        <ele>236</ele>
        <time>2022-04-16T07:41:14.949Z</time>
      </trkpt>
      <trkpt lat="45.70565" lon="5.74521">
        <ele>236</ele>
        <time>2022-04-16T07:41:15.950Z</time>
      </trkpt>
      <trkpt lat="45.70568" lon="5.74516">
        <ele>236</ele>
        <time>2022-04-16T07:41:16.949Z</time>
      </trkpt>
      <trkpt lat="45.70569" lon="5.74509">
        <ele>237</ele>
        <time>2022-04-16T07:41:17.949Z</time>
      </trkpt>
      <trkpt lat="45.70571" lon="5.745">
        <ele>237</ele>
        <time>2022-04-16T07:41:18.949Z</time>
      </trkpt>
      <trkpt lat="45.70571" lon="5.74495">
        <ele>237</ele>
        <time>2022-04-16T07:41:19.949Z</time>
      </trkpt>
      <trkpt lat="45.70572" lon="5.74488">
        <ele>237</ele>
        <time>2022-04-16T07:41:20.949Z</time>
      </trkpt>
      <trkpt lat="45.70573" lon="5.7448">
        <ele>237</ele>
        <time>2022-04-16T07:41:21.949Z</time>
      </trkpt>
      <trkpt lat="45.70573" lon="5.74473">
        <ele>237</ele>
        <time>2022-04-16T07:41:22.949Z</time>
      </trkpt>
      <trkpt lat="45.70574" lon="5.74465">
        <ele>238</ele>
        <time>2022-04-16T07:41:23.949Z</time>
      </trkpt>
      <trkpt lat="45.70575" lon="5.74457">
        <ele>238</ele>
        <time>2022-04-16T07:41:24.950Z</time>
      </trkpt>
      <trkpt lat="45.70576" lon="5.74451">
        <ele>238</ele>
        <time>2022-04-16T07:41:25.949Z</time>
      </trkpt>
      <trkpt lat="45.70577" lon="5.74444">
        <ele>239</ele>
        <time>2022-04-16T07:41:26.950Z</time>
      </trkpt>
      <trkpt lat="45.70578" lon="5.74437">
        <ele>239</ele>
        <time>2022-04-16T07:41:27.949Z</time>
      </trkpt>
      <trkpt lat="45.70579" lon="5.74429">
        <ele>239</ele>
        <time>2022-04-16T07:41:28.950Z</time>
      </trkpt>
      <trkpt lat="45.7058" lon="5.74422">
        <ele>239</ele>
        <time>2022-04-16T07:41:29.949Z</time>
      </trkpt>
      <trkpt lat="45.70582" lon="5.74415">
        <ele>240</ele>
        <time>2022-04-16T07:41:30.949Z</time>
      </trkpt>
      <trkpt lat="45.70583" lon="5.74409">
        <ele>240</ele>
        <time>2022-04-16T07:41:31.949Z</time>
      </trkpt>
      <trkpt lat="45.70584" lon="5.74403">
        <ele>240</ele>
        <time>2022-04-16T07:41:32.950Z</time>
      </trkpt>
      <trkpt lat="45.70585" lon="5.74396">
        <ele>240</ele>
        <time>2022-04-16T07:41:33.949Z</time>
      </trkpt>
      <trkpt lat="45.70587" lon="5.7439">
        <ele>240</ele>
        <time>2022-04-16T07:41:34.949Z</time>
      </trkpt>
      <trkpt lat="45.70588" lon="5.74383">
        <ele>240</ele>
        <time>2022-04-16T07:41:35.950Z</time>
      </trkpt>
      <trkpt lat="45.70589" lon="5.74377">
        <ele>240</ele>
        <time>2022-04-16T07:41:36.950Z</time>
      </trkpt>
      <trkpt lat="45.7059" lon="5.7437">
        <ele>240</ele>
        <time>2022-04-16T07:41:37.950Z</time>
      </trkpt>
      <trkpt lat="45.70591" lon="5.74363">
        <ele>240</ele>
        <time>2022-04-16T07:41:38.949Z</time>
      </trkpt>
      <trkpt lat="45.70592" lon="5.74355">
        <ele>240</ele>
        <time>2022-04-16T07:41:39.949Z</time>
      </trkpt>
      <trkpt lat="45.70594" lon="5.74348">
        <ele>240</ele>
        <time>2022-04-16T07:41:40.949Z</time>
      </trkpt>
      <trkpt lat="45.70595" lon="5.74341">
        <ele>240</ele>
        <time>2022-04-16T07:41:41.949Z</time>
      </trkpt>
      <trkpt lat="45.70596" lon="5.74334">
        <ele>240</ele>
        <time>2022-04-16T07:41:42.949Z</time>
      </trkpt>
      <trkpt lat="45.70596" lon="5.74327">
        <ele>240</ele>
        <time>2022-04-16T07:41:43.949Z</time>
      </trkpt>
      <trkpt lat="45.70597" lon="5.7432">
        <ele>240</ele>
        <time>2022-04-16T07:41:44.949Z</time>
      </trkpt>
      <trkpt lat="45.70598" lon="5.74313">
        <ele>240</ele>
        <time>2022-04-16T07:41:45.950Z</time>
      </trkpt>
      <trkpt lat="45.70598" lon="5.74306">
        <ele>240</ele>
        <time>2022-04-16T07:41:46.949Z</time>
      </trkpt>
      <trkpt lat="45.70599" lon="5.74299">
        <ele>239</ele>
        <time>2022-04-16T07:41:47.950Z</time>
      </trkpt>
      <trkpt lat="45.706" lon="5.74292">
        <ele>239</ele>
        <time>2022-04-16T07:41:48.949Z</time>
      </trkpt>
      <trkpt lat="45.706" lon="5.74285">
        <ele>239</ele>
        <time>2022-04-16T07:41:49.949Z</time>
      </trkpt>
      <trkpt lat="45.70601" lon="5.74277">
        <ele>238</ele>
        <time>2022-04-16T07:41:50.949Z</time>
      </trkpt>
      <trkpt lat="45.70602" lon="5.7427">
        <ele>238</ele>
        <time>2022-04-16T07:41:51.949Z</time>
      </trkpt>
      <trkpt lat="45.70603" lon="5.74262">
        <ele>238</ele>
        <time>2022-04-16T07:41:52.949Z</time>
      </trkpt>
      <trkpt lat="45.70604" lon="5.74254">
        <ele>237</ele>
        <time>2022-04-16T07:41:53.949Z</time>
      </trkpt>
      <trkpt lat="45.70606" lon="5.74246">
        <ele>237</ele>
        <time>2022-04-16T07:41:54.950Z</time>
      </trkpt>
      <trkpt lat="45.70607" lon="5.74238">
        <ele>237</ele>
        <time>2022-04-16T07:41:55.949Z</time>
      </trkpt>
      <trkpt lat="45.70609" lon="5.7423">
        <ele>237</ele>
        <time>2022-04-16T07:41:56.950Z</time>
      </trkpt>
      <trkpt lat="45.7061" lon="5.74222">
        <ele>237</ele>
        <time>2022-04-16T07:41:57.949Z</time>
      </trkpt>
      <trkpt lat="45.70612" lon="5.74214">
        <ele>236</ele>
        <time>2022-04-16T07:41:58.949Z</time>
      </trkpt>
      <trkpt lat="45.70614" lon="5.74205">
        <ele>236</ele>
        <time>2022-04-16T07:41:59.949Z</time>
      </trkpt>
      <trkpt lat="45.70615" lon="5.74197">
        <ele>235</ele>
        <time>2022-04-16T07:42:00.950Z</time>
      </trkpt>
      <trkpt lat="45.70617" lon="5.74188">
        <ele>235</ele>
        <time>2022-04-16T07:42:01.949Z</time>
      </trkpt>
      <trkpt lat="45.70619" lon="5.74179">
        <ele>234</ele>
        <time>2022-04-16T07:42:02.949Z</time>
      </trkpt>
      <trkpt lat="45.7062" lon="5.7417">
        <ele>234</ele>
        <time>2022-04-16T07:42:03.949Z</time>
      </trkpt>
      <trkpt lat="45.70621" lon="5.74162">
        <ele>233</ele>
        <time>2022-04-16T07:42:04.949Z</time>
      </trkpt>
      <trkpt lat="45.70623" lon="5.74153">
        <ele>232</ele>
        <time>2022-04-16T07:42:05.949Z</time>
      </trkpt>
      <trkpt lat="45.70624" lon="5.74143">
        <ele>232</ele>
        <time>2022-04-16T07:42:06.950Z</time>
      </trkpt>
      <trkpt lat="45.70625" lon="5.74134">
        <ele>232</ele>
        <time>2022-04-16T07:42:07.950Z</time>
      </trkpt>
      <trkpt lat="45.70626" lon="5.74124">
        <ele>231</ele>
        <time>2022-04-16T07:42:08.949Z</time>
      </trkpt>
      <trkpt lat="45.70626" lon="5.74114">
        <ele>231</ele>
        <time>2022-04-16T07:42:09.950Z</time>
      </trkpt>
      <trkpt lat="45.70627" lon="5.74104">
        <ele>231</ele>
        <time>2022-04-16T07:42:10.949Z</time>
      </trkpt>
      <trkpt lat="45.70626" lon="5.74095">
        <ele>231</ele>
        <time>2022-04-16T07:42:11.949Z</time>
      </trkpt>
      <trkpt lat="45.70626" lon="5.74085">
        <ele>231</ele>
        <time>2022-04-16T07:42:12.950Z</time>
      </trkpt>
      <trkpt lat="45.70626" lon="5.74075">
        <ele>231</ele>
        <time>2022-04-16T07:42:13.949Z</time>
      </trkpt>
      <trkpt lat="45.70625" lon="5.74065">
        <ele>231</ele>
        <time>2022-04-16T07:42:14.949Z</time>
      </trkpt>
      <trkpt lat="45.70624" lon="5.74055">
        <ele>231</ele>
        <time>2022-04-16T07:42:15.949Z</time>
      </trkpt>
      <trkpt lat="45.70623" lon="5.74046">
        <ele>230</ele>
        <time>2022-04-16T07:42:16.949Z</time>
      </trkpt>
      <trkpt lat="45.70622" lon="5.74037">
        <ele>230</ele>
        <time>2022-04-16T07:42:17.949Z</time>
      </trkpt>
      <trkpt lat="45.70622" lon="5.74027">
        <ele>230</ele>
        <time>2022-04-16T07:42:18.950Z</time>
      </trkpt>
      <trkpt lat="45.70622" lon="5.74017">
        <ele>231</ele>
        <time>2022-04-16T07:42:19.950Z</time>
      </trkpt>
      <trkpt lat="45.70622" lon="5.74006">
        <ele>231</ele>
        <time>2022-04-16T07:42:20.949Z</time>
      </trkpt>
      <trkpt lat="45.70623" lon="5.73997">
        <ele>232</ele>
        <time>2022-04-16T07:42:21.949Z</time>
      </trkpt>
      <trkpt lat="45.70623" lon="5.73985">
        <ele>232</ele>
        <time>2022-04-16T07:42:22.950Z</time>
      </trkpt>
      <trkpt lat="45.70624" lon="5.73976">
        <ele>233</ele>
        <time>2022-04-16T07:42:23.949Z</time>
      </trkpt>
      <trkpt lat="45.70624" lon="5.73966">
        <ele>233</ele>
        <time>2022-04-16T07:42:24.950Z</time>
      </trkpt>
      <trkpt lat="45.70624" lon="5.73958">
        <ele>233</ele>
        <time>2022-04-16T07:42:25.950Z</time>
      </trkpt>
      <trkpt lat="45.70624" lon="5.73949">
        <ele>234</ele>
        <time>2022-04-16T07:42:26.949Z</time>
      </trkpt>
      <trkpt lat="45.70624" lon="5.73941">
        <ele>234</ele>
        <time>2022-04-16T07:42:27.950Z</time>
      </trkpt>
      <trkpt lat="45.70624" lon="5.73933">
        <ele>234</ele>
        <time>2022-04-16T07:42:28.949Z</time>
      </trkpt>
      <trkpt lat="45.70624" lon="5.73925">
        <ele>235</ele>
        <time>2022-04-16T07:42:29.950Z</time>
      </trkpt>
      <trkpt lat="45.70624" lon="5.73918">
        <ele>235</ele>
        <time>2022-04-16T07:42:30.949Z</time>
      </trkpt>
      <trkpt lat="45.70624" lon="5.7391">
        <ele>235</ele>
        <time>2022-04-16T07:42:31.950Z</time>
      </trkpt>
      <trkpt lat="45.70624" lon="5.73903">
        <ele>236</ele>
        <time>2022-04-16T07:42:32.950Z</time>
      </trkpt>
      <trkpt lat="45.70623" lon="5.73896">
        <ele>236</ele>
        <time>2022-04-16T07:42:33.949Z</time>
      </trkpt>
      <trkpt lat="45.70622" lon="5.73889">
        <ele>236</ele>
        <time>2022-04-16T07:42:34.949Z</time>
      </trkpt>
      <trkpt lat="45.70621" lon="5.73883">
        <ele>237</ele>
        <time>2022-04-16T07:42:35.950Z</time>
      </trkpt>
      <trkpt lat="45.70621" lon="5.73876">
        <ele>237</ele>
        <time>2022-04-16T07:42:36.950Z</time>
      </trkpt>
      <trkpt lat="45.70619" lon="5.7387">
        <ele>238</ele>
        <time>2022-04-16T07:42:37.949Z</time>
      </trkpt>
      <trkpt lat="45.70619" lon="5.73863">
        <ele>238</ele>
        <time>2022-04-16T07:42:38.949Z</time>
      </trkpt>
      <trkpt lat="45.70619" lon="5.73857">
        <ele>239</ele>
        <time>2022-04-16T07:42:39.949Z</time>
      </trkpt>
      <trkpt lat="45.70618" lon="5.7385">
        <ele>239</ele>
        <time>2022-04-16T07:42:40.950Z</time>
      </trkpt>
      <trkpt lat="45.70618" lon="5.73844">
        <ele>239</ele>
        <time>2022-04-16T07:42:41.949Z</time>
      </trkpt>
      <trkpt lat="45.70619" lon="5.73838">
        <ele>240</ele>
        <time>2022-04-16T07:42:42.950Z</time>
      </trkpt>
      <trkpt lat="45.7062" lon="5.73831">
        <ele>240</ele>
        <time>2022-04-16T07:42:43.950Z</time>
      </trkpt>
      <trkpt lat="45.70621" lon="5.73824">
        <ele>241</ele>
        <time>2022-04-16T07:42:44.950Z</time>
      </trkpt>
      <trkpt lat="45.70622" lon="5.73818">
        <ele>241</ele>
        <time>2022-04-16T07:42:45.949Z</time>
      </trkpt>
      <trkpt lat="45.70624" lon="5.73812">
        <ele>242</ele>
        <time>2022-04-16T07:42:46.950Z</time>
      </trkpt>
      <trkpt lat="45.70625" lon="5.73807">
        <ele>242</ele>
        <time>2022-04-16T07:42:47.950Z</time>
      </trkpt>
      <trkpt lat="45.70627" lon="5.73801">
        <ele>243</ele>
        <time>2022-04-16T07:42:48.949Z</time>
      </trkpt>
      <trkpt lat="45.70629" lon="5.73795">
        <ele>244</ele>
        <time>2022-04-16T07:42:49.949Z</time>
      </trkpt>
      <trkpt lat="45.70631" lon="5.73789">
        <ele>244</ele>
        <time>2022-04-16T07:42:50.949Z</time>
      </trkpt>
      <trkpt lat="45.70633" lon="5.73783">
        <ele>245</ele>
        <time>2022-04-16T07:42:51.949Z</time>
      </trkpt>
      <trkpt lat="45.70635" lon="5.73777">
        <ele>246</ele>
        <time>2022-04-16T07:42:52.950Z</time>
      </trkpt>
      <trkpt lat="45.70638" lon="5.73771">
        <ele>246</ele>
        <time>2022-04-16T07:42:53.949Z</time>
      </trkpt>
      <trkpt lat="45.70641" lon="5.73765">
        <ele>247</ele>
        <time>2022-04-16T07:42:54.949Z</time>
      </trkpt>
      <trkpt lat="45.70644" lon="5.73759">
        <ele>248</ele>
        <time>2022-04-16T07:42:55.949Z</time>
      </trkpt>
      <trkpt lat="45.70647" lon="5.73754">
        <ele>249</ele>
        <time>2022-04-16T07:42:56.950Z</time>
      </trkpt>
      <trkpt lat="45.7065" lon="5.73749">
        <ele>250</ele>
        <time>2022-04-16T07:42:57.950Z</time>
      </trkpt>
      <trkpt lat="45.70652" lon="5.73743">
        <ele>250</ele>
        <time>2022-04-16T07:42:58.949Z</time>
      </trkpt>
      <trkpt lat="45.70655" lon="5.73738">
        <ele>251</ele>
        <time>2022-04-16T07:42:59.949Z</time>
      </trkpt>
      <trkpt lat="45.70658" lon="5.73733">
        <ele>252</ele>
        <time>2022-04-16T07:43:00.949Z</time>
      </trkpt>
      <trkpt lat="45.7066" lon="5.73728">
        <ele>253</ele>
        <time>2022-04-16T07:43:01.949Z</time>
      </trkpt>
      <trkpt lat="45.70663" lon="5.73723">
        <ele>253</ele>
        <time>2022-04-16T07:43:02.949Z</time>
      </trkpt>
      <trkpt lat="45.70665" lon="5.73718">
        <ele>254</ele>
        <time>2022-04-16T07:43:03.949Z</time>
      </trkpt>
      <trkpt lat="45.70668" lon="5.73713">
        <ele>254</ele>
        <time>2022-04-16T07:43:04.949Z</time>
      </trkpt>
      <trkpt lat="45.70671" lon="5.73708">
        <ele>255</ele>
        <time>2022-04-16T07:43:05.949Z</time>
      </trkpt>
      <trkpt lat="45.70673" lon="5.73704">
        <ele>255</ele>
        <time>2022-04-16T07:43:06.949Z</time>
      </trkpt>
      <trkpt lat="45.70676" lon="5.737">
        <ele>255</ele>
        <time>2022-04-16T07:43:07.949Z</time>
      </trkpt>
      <trkpt lat="45.70679" lon="5.73696">
        <ele>255</ele>
        <time>2022-04-16T07:43:08.950Z</time>
      </trkpt>
      <trkpt lat="45.70681" lon="5.73692">
        <ele>254</ele>
        <time>2022-04-16T07:43:09.949Z</time>
      </trkpt>
      <trkpt lat="45.70683" lon="5.73687">
        <ele>254</ele>
        <time>2022-04-16T07:43:10.949Z</time>
      </trkpt>
      <trkpt lat="45.70685" lon="5.73682">
        <ele>253</ele>
        <time>2022-04-16T07:43:11.950Z</time>
      </trkpt>
      <trkpt lat="45.70685" lon="5.73677">
        <ele>252</ele>
        <time>2022-04-16T07:43:12.950Z</time>
      </trkpt>
      <trkpt lat="45.70688" lon="5.73672">
        <ele>252</ele>
        <time>2022-04-16T07:43:13.949Z</time>
      </trkpt>
      <trkpt lat="45.70691" lon="5.73668">
        <ele>251</ele>
        <time>2022-04-16T07:43:14.949Z</time>
      </trkpt>
      <trkpt lat="45.70693" lon="5.73663">
        <ele>250</ele>
        <time>2022-04-16T07:43:15.950Z</time>
      </trkpt>
      <trkpt lat="45.70696" lon="5.73657">
        <ele>250</ele>
        <time>2022-04-16T07:43:16.949Z</time>
      </trkpt>
      <trkpt lat="45.707" lon="5.73652">
        <ele>249</ele>
        <time>2022-04-16T07:43:17.949Z</time>
      </trkpt>
      <trkpt lat="45.70703" lon="5.73647">
        <ele>249</ele>
        <time>2022-04-16T07:43:18.949Z</time>
      </trkpt>
      <trkpt lat="45.70706" lon="5.73643">
        <ele>249</ele>
        <time>2022-04-16T07:43:19.949Z</time>
      </trkpt>
      <trkpt lat="45.70709" lon="5.73638">
        <ele>248</ele>
        <time>2022-04-16T07:43:20.949Z</time>
      </trkpt>
      <trkpt lat="45.70712" lon="5.73632">
        <ele>248</ele>
        <time>2022-04-16T07:43:21.949Z</time>
      </trkpt>
      <trkpt lat="45.70716" lon="5.73626">
        <ele>248</ele>
        <time>2022-04-16T07:43:22.949Z</time>
      </trkpt>
      <trkpt lat="45.70719" lon="5.7362">
        <ele>248</ele>
        <time>2022-04-16T07:43:23.949Z</time>
      </trkpt>
      <trkpt lat="45.70724" lon="5.73614">
        <ele>247</ele>
        <time>2022-04-16T07:43:24.950Z</time>
      </trkpt>
      <trkpt lat="45.70727" lon="5.73608">
        <ele>247</ele>
        <time>2022-04-16T07:43:25.949Z</time>
      </trkpt>
      <trkpt lat="45.7073" lon="5.73604">
        <ele>247</ele>
        <time>2022-04-16T07:43:26.949Z</time>
      </trkpt>
      <trkpt lat="45.70734" lon="5.73598">
        <ele>247</ele>
        <time>2022-04-16T07:43:27.949Z</time>
      </trkpt>
      <trkpt lat="45.70737" lon="5.73593">
        <ele>247</ele>
        <time>2022-04-16T07:43:28.949Z</time>
      </trkpt>
      <trkpt lat="45.70741" lon="5.73587">
        <ele>247</ele>
        <time>2022-04-16T07:43:29.949Z</time>
      </trkpt>
      <trkpt lat="45.70746" lon="5.7358">
        <ele>247</ele>
        <time>2022-04-16T07:43:30.949Z</time>
      </trkpt>
      <trkpt lat="45.70749" lon="5.73575">
        <ele>247</ele>
        <time>2022-04-16T07:43:31.949Z</time>
      </trkpt>
      <trkpt lat="45.70753" lon="5.7357">
        <ele>247</ele>
        <time>2022-04-16T07:43:32.949Z</time>
      </trkpt>
      <trkpt lat="45.70757" lon="5.73564">
        <ele>247</ele>
        <time>2022-04-16T07:43:33.949Z</time>
      </trkpt>
      <trkpt lat="45.7076" lon="5.73558">
        <ele>247</ele>
        <time>2022-04-16T07:43:34.950Z</time>
      </trkpt>
      <trkpt lat="45.70764" lon="5.73552">
        <ele>247</ele>
        <time>2022-04-16T07:43:35.950Z</time>
      </trkpt>
      <trkpt lat="45.70768" lon="5.73547">
        <ele>247</ele>
        <time>2022-04-16T07:43:36.949Z</time>
      </trkpt>
      <trkpt lat="45.70771" lon="5.73541">
        <ele>247</ele>
        <time>2022-04-16T07:43:37.950Z</time>
      </trkpt>
      <trkpt lat="45.70775" lon="5.73534">
        <ele>246</ele>
        <time>2022-04-16T07:43:38.949Z</time>
      </trkpt>
      <trkpt lat="45.70779" lon="5.73529">
        <ele>246</ele>
        <time>2022-04-16T07:43:39.950Z</time>
      </trkpt>
      <trkpt lat="45.70782" lon="5.73523">
        <ele>246</ele>
        <time>2022-04-16T07:43:40.949Z</time>
      </trkpt>
      <trkpt lat="45.70786" lon="5.73517">
        <ele>246</ele>
        <time>2022-04-16T07:43:41.950Z</time>
      </trkpt>
      <trkpt lat="45.70789" lon="5.73512">
        <ele>246</ele>
        <time>2022-04-16T07:43:42.949Z</time>
      </trkpt>
      <trkpt lat="45.70793" lon="5.73506">
        <ele>246</ele>
        <time>2022-04-16T07:43:43.949Z</time>
      </trkpt>
      <trkpt lat="45.70796" lon="5.735">
        <ele>247</ele>
        <time>2022-04-16T07:43:44.949Z</time>
      </trkpt>
      <trkpt lat="45.708" lon="5.73494">
        <ele>247</ele>
        <time>2022-04-16T07:43:45.949Z</time>
      </trkpt>
      <trkpt lat="45.70804" lon="5.73487">
        <ele>247</ele>
        <time>2022-04-16T07:43:46.949Z</time>
      </trkpt>
      <trkpt lat="45.70809" lon="5.7348">
        <ele>247</ele>
        <time>2022-04-16T07:43:47.949Z</time>
      </trkpt>
      <trkpt lat="45.70815" lon="5.73472">
        <ele>248</ele>
        <time>2022-04-16T07:43:48.949Z</time>
      </trkpt>
      <trkpt lat="45.70818" lon="5.73467">
        <ele>248</ele>
        <time>2022-04-16T07:43:49.950Z</time>
      </trkpt>
      <trkpt lat="45.70823" lon="5.73459">
        <ele>249</ele>
        <time>2022-04-16T07:43:50.949Z</time>
      </trkpt>
      <trkpt lat="45.70827" lon="5.73454">
        <ele>249</ele>
        <time>2022-04-16T07:43:51.950Z</time>
      </trkpt>
      <trkpt lat="45.70831" lon="5.73448">
        <ele>250</ele>
        <time>2022-04-16T07:43:52.950Z</time>
      </trkpt>
      <trkpt lat="45.70836" lon="5.73441">
        <ele>251</ele>
        <time>2022-04-16T07:43:53.949Z</time>
      </trkpt>
      <trkpt lat="45.7084" lon="5.73436">
        <ele>251</ele>
        <time>2022-04-16T07:43:54.949Z</time>
      </trkpt>
      <trkpt lat="45.70844" lon="5.73431">
        <ele>252</ele>
        <time>2022-04-16T07:43:55.949Z</time>
      </trkpt>
      <trkpt lat="45.70848" lon="5.73425">
        <ele>253</ele>
        <time>2022-04-16T07:43:56.949Z</time>
      </trkpt>
      <trkpt lat="45.70852" lon="5.73419">
        <ele>254</ele>
        <time>2022-04-16T07:43:57.949Z</time>
      </trkpt>
      <trkpt lat="45.70856" lon="5.73413">
        <ele>254</ele>
        <time>2022-04-16T07:43:58.949Z</time>
      </trkpt>
      <trkpt lat="45.7086" lon="5.73407">
        <ele>255</ele>
        <time>2022-04-16T07:43:59.950Z</time>
      </trkpt>
      <trkpt lat="45.70865" lon="5.734">
        <ele>256</ele>
        <time>2022-04-16T07:44:00.949Z</time>
      </trkpt>
      <trkpt lat="45.70868" lon="5.73396">
        <ele>256</ele>
        <time>2022-04-16T07:44:01.949Z</time>
      </trkpt>
      <trkpt lat="45.70872" lon="5.73391">
        <ele>257</ele>
        <time>2022-04-16T07:44:02.949Z</time>
      </trkpt>
      <trkpt lat="45.70876" lon="5.73385">
        <ele>258</ele>
        <time>2022-04-16T07:44:03.949Z</time>
      </trkpt>
      <trkpt lat="45.7088" lon="5.73379">
        <ele>258</ele>
        <time>2022-04-16T07:44:04.949Z</time>
      </trkpt>
      <trkpt lat="45.70885" lon="5.73375">
        <ele>259</ele>
        <time>2022-04-16T07:44:05.949Z</time>
      </trkpt>
      <trkpt lat="45.70889" lon="5.73369">
        <ele>260</ele>
        <time>2022-04-16T07:44:06.949Z</time>
      </trkpt>
      <trkpt lat="45.70894" lon="5.73362">
        <ele>260</ele>
        <time>2022-04-16T07:44:07.950Z</time>
      </trkpt>
      <trkpt lat="45.70899" lon="5.73356">
        <ele>261</ele>
        <time>2022-04-16T07:44:08.949Z</time>
      </trkpt>
      <trkpt lat="45.70902" lon="5.73349">
        <ele>261</ele>
        <time>2022-04-16T07:44:09.949Z</time>
      </trkpt>
      <trkpt lat="45.70904" lon="5.73342">
        <ele>262</ele>
        <time>2022-04-16T07:44:10.950Z</time>
      </trkpt>
      <trkpt lat="45.70906" lon="5.73335">
        <ele>262</ele>
        <time>2022-04-16T07:44:11.950Z</time>
      </trkpt>
      <trkpt lat="45.70906" lon="5.73328">
        <ele>262</ele>
        <time>2022-04-16T07:44:12.949Z</time>
      </trkpt>
      <trkpt lat="45.70908" lon="5.7332">
        <ele>263</ele>
        <time>2022-04-16T07:44:13.950Z</time>
      </trkpt>
      <trkpt lat="45.70909" lon="5.73313">
        <ele>263</ele>
        <time>2022-04-16T07:44:14.949Z</time>
      </trkpt>
      <trkpt lat="45.70912" lon="5.73307">
        <ele>263</ele>
        <time>2022-04-16T07:44:15.949Z</time>
      </trkpt>
      <trkpt lat="45.70915" lon="5.73297">
        <ele>263</ele>
        <time>2022-04-16T07:44:16.949Z</time>
      </trkpt>
      <trkpt lat="45.70916" lon="5.73289">
        <ele>264</ele>
        <time>2022-04-16T07:44:17.949Z</time>
      </trkpt>
      <trkpt lat="45.70916" lon="5.73283">
        <ele>264</ele>
        <time>2022-04-16T07:44:18.949Z</time>
      </trkpt>
      <trkpt lat="45.70917" lon="5.73276">
        <ele>264</ele>
        <time>2022-04-16T07:44:19.950Z</time>
      </trkpt>
      <trkpt lat="45.70917" lon="5.73271">
        <ele>264</ele>
        <time>2022-04-16T07:44:20.949Z</time>
      </trkpt>
      <trkpt lat="45.70919" lon="5.73263">
        <ele>264</ele>
        <time>2022-04-16T07:44:21.949Z</time>
      </trkpt>
      <trkpt lat="45.7092" lon="5.73256">
        <ele>265</ele>
        <time>2022-04-16T07:44:22.950Z</time>
      </trkpt>
      <trkpt lat="45.70922" lon="5.73249">
        <ele>265</ele>
        <time>2022-04-16T07:44:23.950Z</time>
      </trkpt>
      <trkpt lat="45.70922" lon="5.73244">
        <ele>265</ele>
        <time>2022-04-16T07:44:24.949Z</time>
      </trkpt>
      <trkpt lat="45.70922" lon="5.7324">
        <ele>265</ele>
        <time>2022-04-16T07:44:25.949Z</time>
      </trkpt>
      <trkpt lat="45.70922" lon="5.73233">
        <ele>265</ele>
        <time>2022-04-16T07:44:26.950Z</time>
      </trkpt>
      <trkpt lat="45.70923" lon="5.73226">
        <ele>265</ele>
        <time>2022-04-16T07:44:27.950Z</time>
      </trkpt>
      <trkpt lat="45.70925" lon="5.7322">
        <ele>266</ele>
        <time>2022-04-16T07:44:28.949Z</time>
      </trkpt>
      <trkpt lat="45.70925" lon="5.73212">
        <ele>266</ele>
        <time>2022-04-16T07:44:29.950Z</time>
      </trkpt>
      <trkpt lat="45.70928" lon="5.73204">
        <ele>266</ele>
        <time>2022-04-16T07:44:30.950Z</time>
      </trkpt>
      <trkpt lat="45.7093" lon="5.73194">
        <ele>266</ele>
        <time>2022-04-16T07:44:31.950Z</time>
      </trkpt>
      <trkpt lat="45.70931" lon="5.73187">
        <ele>266</ele>
        <time>2022-04-16T07:44:32.950Z</time>
      </trkpt>
      <trkpt lat="45.70935" lon="5.73177">
        <ele>266</ele>
        <time>2022-04-16T07:44:33.950Z</time>
      </trkpt>
      <trkpt lat="45.70942" lon="5.7317">
        <ele>266</ele>
        <time>2022-04-16T07:44:34.950Z</time>
      </trkpt>
      <trkpt lat="45.70947" lon="5.73162">
        <ele>266</ele>
        <time>2022-04-16T07:44:35.949Z</time>
      </trkpt>
      <trkpt lat="45.7095" lon="5.73153">
        <ele>266</ele>
        <time>2022-04-16T07:44:36.950Z</time>
      </trkpt>
      <trkpt lat="45.70953" lon="5.73147">
        <ele>266</ele>
        <time>2022-04-16T07:44:37.949Z</time>
      </trkpt>
      <trkpt lat="45.70956" lon="5.73139">
        <ele>266</ele>
        <time>2022-04-16T07:44:38.950Z</time>
      </trkpt>
      <trkpt lat="45.70959" lon="5.73132">
        <ele>265</ele>
        <time>2022-04-16T07:44:39.949Z</time>
      </trkpt>
      <trkpt lat="45.70963" lon="5.73124">
        <ele>265</ele>
        <time>2022-04-16T07:44:40.949Z</time>
      </trkpt>
      <trkpt lat="45.70966" lon="5.73117">
        <ele>265</ele>
        <time>2022-04-16T07:44:41.949Z</time>
      </trkpt>
      <trkpt lat="45.70968" lon="5.7311">
        <ele>264</ele>
        <time>2022-04-16T07:44:42.949Z</time>
      </trkpt>
      <trkpt lat="45.70971" lon="5.73102">
        <ele>264</ele>
        <time>2022-04-16T07:44:43.950Z</time>
      </trkpt>
      <trkpt lat="45.70973" lon="5.73095">
        <ele>264</ele>
        <time>2022-04-16T07:44:44.950Z</time>
      </trkpt>
      <trkpt lat="45.70974" lon="5.73088">
        <ele>263</ele>
        <time>2022-04-16T07:44:45.949Z</time>
      </trkpt>
      <trkpt lat="45.70976" lon="5.73079">
        <ele>263</ele>
        <time>2022-04-16T07:44:46.950Z</time>
      </trkpt>
      <trkpt lat="45.70976" lon="5.7307">
        <ele>263</ele>
        <time>2022-04-16T07:44:47.949Z</time>
      </trkpt>
      <trkpt lat="45.70975" lon="5.73064">
        <ele>263</ele>
        <time>2022-04-16T07:44:48.949Z</time>
      </trkpt>
      <trkpt lat="45.70974" lon="5.73057">
        <ele>262</ele>
        <time>2022-04-16T07:44:49.949Z</time>
      </trkpt>
      <trkpt lat="45.70973" lon="5.73049">
        <ele>262</ele>
        <time>2022-04-16T07:44:50.949Z</time>
      </trkpt>
      <trkpt lat="45.70972" lon="5.73039">
        <ele>262</ele>
        <time>2022-04-16T07:44:51.949Z</time>
      </trkpt>
      <trkpt lat="45.70971" lon="5.73031">
        <ele>261</ele>
        <time>2022-04-16T07:44:52.949Z</time>
      </trkpt>
      <trkpt lat="45.7097" lon="5.73024">
        <ele>261</ele>
        <time>2022-04-16T07:44:53.950Z</time>
      </trkpt>
      <trkpt lat="45.70969" lon="5.73016">
        <ele>261</ele>
        <time>2022-04-16T07:44:54.950Z</time>
      </trkpt>
      <trkpt lat="45.70968" lon="5.73008">
        <ele>261</ele>
        <time>2022-04-16T07:44:55.949Z</time>
      </trkpt>
      <trkpt lat="45.70966" lon="5.73001">
        <ele>260</ele>
        <time>2022-04-16T07:44:56.949Z</time>
      </trkpt>
      <trkpt lat="45.70966" lon="5.72993">
        <ele>260</ele>
        <time>2022-04-16T07:44:57.949Z</time>
      </trkpt>
      <trkpt lat="45.70964" lon="5.72989">
        <ele>260</ele>
        <time>2022-04-16T07:44:58.949Z</time>
      </trkpt>
      <trkpt lat="45.70961" lon="5.72981">
        <ele>259</ele>
        <time>2022-04-16T07:44:59.949Z</time>
      </trkpt>
      <trkpt lat="45.70959" lon="5.72976">
        <ele>259</ele>
        <time>2022-04-16T07:45:00.949Z</time>
      </trkpt>
      <trkpt lat="45.70956" lon="5.72969">
        <ele>258</ele>
        <time>2022-04-16T07:45:01.949Z</time>
      </trkpt>
      <trkpt lat="45.70953" lon="5.72963">
        <ele>257</ele>
        <time>2022-04-16T07:45:02.950Z</time>
      </trkpt>
      <trkpt lat="45.7095" lon="5.72957">
        <ele>256</ele>
        <time>2022-04-16T07:45:03.950Z</time>
      </trkpt>
      <trkpt lat="45.70948" lon="5.72951">
        <ele>255</ele>
        <time>2022-04-16T07:45:04.949Z</time>
      </trkpt>
      <trkpt lat="45.70946" lon="5.72945">
        <ele>254</ele>
        <time>2022-04-16T07:45:05.949Z</time>
      </trkpt>
      <trkpt lat="45.70943" lon="5.72939">
        <ele>253</ele>
        <time>2022-04-16T07:45:06.950Z</time>
      </trkpt>
      <trkpt lat="45.70941" lon="5.72933">
        <ele>252</ele>
        <time>2022-04-16T07:45:07.950Z</time>
      </trkpt>
      <trkpt lat="45.70938" lon="5.72928">
        <ele>250</ele>
        <time>2022-04-16T07:45:08.949Z</time>
      </trkpt>
      <trkpt lat="45.70936" lon="5.72923">
        <ele>249</ele>
        <time>2022-04-16T07:45:09.950Z</time>
      </trkpt>
      <trkpt lat="45.70935" lon="5.72917">
        <ele>247</ele>
        <time>2022-04-16T07:45:10.949Z</time>
      </trkpt>
      <trkpt lat="45.70933" lon="5.72912">
        <ele>246</ele>
        <time>2022-04-16T07:45:11.950Z</time>
      </trkpt>
      <trkpt lat="45.70932" lon="5.72906">
        <ele>245</ele>
        <time>2022-04-16T07:45:12.950Z</time>
      </trkpt>
      <trkpt lat="45.70931" lon="5.729">
        <ele>244</ele>
        <time>2022-04-16T07:45:13.950Z</time>
      </trkpt>
      <trkpt lat="45.7093" lon="5.72894">
        <ele>243</ele>
        <time>2022-04-16T07:45:14.950Z</time>
      </trkpt>
      <trkpt lat="45.70928" lon="5.72889">
        <ele>242</ele>
        <time>2022-04-16T07:45:15.950Z</time>
      </trkpt>
      <trkpt lat="45.70925" lon="5.72884">
        <ele>241</ele>
        <time>2022-04-16T07:45:16.949Z</time>
      </trkpt>
      <trkpt lat="45.70922" lon="5.72878">
        <ele>241</ele>
        <time>2022-04-16T07:45:17.950Z</time>
      </trkpt>
      <trkpt lat="45.70919" lon="5.72874">
        <ele>240</ele>
        <time>2022-04-16T07:45:18.949Z</time>
      </trkpt>
      <trkpt lat="45.70915" lon="5.72871">
        <ele>239</ele>
        <time>2022-04-16T07:45:19.949Z</time>
      </trkpt>
      <trkpt lat="45.70911" lon="5.72867">
        <ele>239</ele>
        <time>2022-04-16T07:45:20.949Z</time>
      </trkpt>
      <trkpt lat="45.70908" lon="5.72862">
        <ele>238</ele>
        <time>2022-04-16T07:45:21.949Z</time>
      </trkpt>
      <trkpt lat="45.70905" lon="5.72857">
        <ele>237</ele>
        <time>2022-04-16T07:45:22.950Z</time>
      </trkpt>
      <trkpt lat="45.70903" lon="5.72851">
        <ele>237</ele>
        <time>2022-04-16T07:45:23.949Z</time>
      </trkpt>
      <trkpt lat="45.70901" lon="5.72846">
        <ele>237</ele>
        <time>2022-04-16T07:45:24.950Z</time>
      </trkpt>
      <trkpt lat="45.70898" lon="5.72839">
        <ele>236</ele>
        <time>2022-04-16T07:45:25.949Z</time>
      </trkpt>
      <trkpt lat="45.70896" lon="5.72833">
        <ele>236</ele>
        <time>2022-04-16T07:45:26.949Z</time>
      </trkpt>
      <trkpt lat="45.70893" lon="5.72827">
        <ele>236</ele>
        <time>2022-04-16T07:45:27.949Z</time>
      </trkpt>
      <trkpt lat="45.7089" lon="5.72822">
        <ele>236</ele>
        <time>2022-04-16T07:45:28.949Z</time>
      </trkpt>
      <trkpt lat="45.70887" lon="5.72817">
        <ele>235</ele>
        <time>2022-04-16T07:45:29.949Z</time>
      </trkpt>
      <trkpt lat="45.70885" lon="5.72811">
        <ele>235</ele>
        <time>2022-04-16T07:45:30.949Z</time>
      </trkpt>
      <trkpt lat="45.70884" lon="5.72805">
        <ele>235</ele>
        <time>2022-04-16T07:45:31.950Z</time>
      </trkpt>
      <trkpt lat="45.70882" lon="5.72799">
        <ele>234</ele>
        <time>2022-04-16T07:45:32.950Z</time>
      </trkpt>
      <trkpt lat="45.70878" lon="5.72794">
        <ele>234</ele>
        <time>2022-04-16T07:45:33.950Z</time>
      </trkpt>
      <trkpt lat="45.70876" lon="5.72789">
        <ele>234</ele>
        <time>2022-04-16T07:45:34.950Z</time>
      </trkpt>
      <trkpt lat="45.70873" lon="5.72784">
        <ele>235</ele>
        <time>2022-04-16T07:45:35.949Z</time>
      </trkpt>
      <trkpt lat="45.7087" lon="5.72779">
        <ele>235</ele>
        <time>2022-04-16T07:45:36.950Z</time>
      </trkpt>
      <trkpt lat="45.70868" lon="5.72773">
        <ele>235</ele>
        <time>2022-04-16T07:45:37.949Z</time>
      </trkpt>
      <trkpt lat="45.70867" lon="5.72766">
        <ele>235</ele>
        <time>2022-04-16T07:45:38.950Z</time>
      </trkpt>
      <trkpt lat="45.70867" lon="5.72759">
        <ele>235</ele>
        <time>2022-04-16T07:45:39.949Z</time>
      </trkpt>
      <trkpt lat="45.70867" lon="5.72752">
        <ele>235</ele>
        <time>2022-04-16T07:45:40.949Z</time>
      </trkpt>
      <trkpt lat="45.70866" lon="5.72746">
        <ele>235</ele>
        <time>2022-04-16T07:45:41.949Z</time>
      </trkpt>
      <trkpt lat="45.70867" lon="5.7274">
        <ele>235</ele>
        <time>2022-04-16T07:45:42.950Z</time>
      </trkpt>
      <trkpt lat="45.70867" lon="5.72733">
        <ele>235</ele>
        <time>2022-04-16T07:45:43.949Z</time>
      </trkpt>
      <trkpt lat="45.70868" lon="5.72727">
        <ele>235</ele>
        <time>2022-04-16T07:45:44.949Z</time>
      </trkpt>
      <trkpt lat="45.70869" lon="5.7272">
        <ele>236</ele>
        <time>2022-04-16T07:45:45.949Z</time>
      </trkpt>
      <trkpt lat="45.70871" lon="5.72714">
        <ele>236</ele>
        <time>2022-04-16T07:45:46.949Z</time>
      </trkpt>
      <trkpt lat="45.70873" lon="5.72708">
        <ele>236</ele>
        <time>2022-04-16T07:45:47.949Z</time>
      </trkpt>
      <trkpt lat="45.70876" lon="5.72702">
        <ele>236</ele>
        <time>2022-04-16T07:45:48.949Z</time>
      </trkpt>
      <trkpt lat="45.70879" lon="5.72697">
        <ele>236</ele>
        <time>2022-04-16T07:45:49.949Z</time>
      </trkpt>
      <trkpt lat="45.70883" lon="5.72692">
        <ele>236</ele>
        <time>2022-04-16T07:45:50.950Z</time>
      </trkpt>
      <trkpt lat="45.70887" lon="5.72686">
        <ele>236</ele>
        <time>2022-04-16T07:45:51.950Z</time>
      </trkpt>
      <trkpt lat="45.70891" lon="5.72681">
        <ele>236</ele>
        <time>2022-04-16T07:45:52.949Z</time>
      </trkpt>
      <trkpt lat="45.70894" lon="5.72676">
        <ele>236</ele>
        <time>2022-04-16T07:45:53.949Z</time>
      </trkpt>
      <trkpt lat="45.70898" lon="5.72671">
        <ele>236</ele>
        <time>2022-04-16T07:45:54.949Z</time>
      </trkpt>
      <trkpt lat="45.70901" lon="5.72666">
        <ele>236</ele>
        <time>2022-04-16T07:45:55.949Z</time>
      </trkpt>
      <trkpt lat="45.70904" lon="5.72662">
        <ele>236</ele>
        <time>2022-04-16T07:45:56.949Z</time>
      </trkpt>
      <trkpt lat="45.70908" lon="5.72657">
        <ele>236</ele>
        <time>2022-04-16T07:45:57.949Z</time>
      </trkpt>
      <trkpt lat="45.70911" lon="5.72653">
        <ele>236</ele>
        <time>2022-04-16T07:45:58.950Z</time>
      </trkpt>
      <trkpt lat="45.70914" lon="5.72648">
        <ele>235</ele>
        <time>2022-04-16T07:45:59.950Z</time>
      </trkpt>
      <trkpt lat="45.70917" lon="5.72644">
        <ele>235</ele>
        <time>2022-04-16T07:46:00.949Z</time>
      </trkpt>
      <trkpt lat="45.70919" lon="5.72639">
        <ele>236</ele>
        <time>2022-04-16T07:46:01.950Z</time>
      </trkpt>
      <trkpt lat="45.70922" lon="5.72635">
        <ele>236</ele>
        <time>2022-04-16T07:46:02.949Z</time>
      </trkpt>
      <trkpt lat="45.70924" lon="5.7263">
        <ele>236</ele>
        <time>2022-04-16T07:46:03.949Z</time>
      </trkpt>
      <trkpt lat="45.70927" lon="5.72626">
        <ele>236</ele>
        <time>2022-04-16T07:46:04.949Z</time>
      </trkpt>
      <trkpt lat="45.7093" lon="5.72621">
        <ele>236</ele>
        <time>2022-04-16T07:46:05.949Z</time>
      </trkpt>
      <trkpt lat="45.70932" lon="5.72616">
        <ele>237</ele>
        <time>2022-04-16T07:46:06.950Z</time>
      </trkpt>
      <trkpt lat="45.70934" lon="5.7261">
        <ele>237</ele>
        <time>2022-04-16T07:46:07.950Z</time>
      </trkpt>
      <trkpt lat="45.70936" lon="5.72604">
        <ele>237</ele>
        <time>2022-04-16T07:46:08.949Z</time>
      </trkpt>
      <trkpt lat="45.70938" lon="5.72599">
        <ele>238</ele>
        <time>2022-04-16T07:46:09.950Z</time>
      </trkpt>
      <trkpt lat="45.70939" lon="5.72593">
        <ele>238</ele>
        <time>2022-04-16T07:46:10.950Z</time>
      </trkpt>
      <trkpt lat="45.7094" lon="5.72586">
        <ele>239</ele>
        <time>2022-04-16T07:46:11.949Z</time>
      </trkpt>
      <trkpt lat="45.7094" lon="5.7258">
        <ele>239</ele>
        <time>2022-04-16T07:46:12.950Z</time>
      </trkpt>
      <trkpt lat="45.70941" lon="5.72574">
        <ele>240</ele>
        <time>2022-04-16T07:46:13.950Z</time>
      </trkpt>
      <trkpt lat="45.70941" lon="5.72568">
        <ele>240</ele>
        <time>2022-04-16T07:46:14.950Z</time>
      </trkpt>
      <trkpt lat="45.70941" lon="5.72562">
        <ele>240</ele>
        <time>2022-04-16T07:46:15.950Z</time>
      </trkpt>
      <trkpt lat="45.70942" lon="5.72556">
        <ele>240</ele>
        <time>2022-04-16T07:46:16.950Z</time>
      </trkpt>
      <trkpt lat="45.70941" lon="5.7255">
        <ele>240</ele>
        <time>2022-04-16T07:46:17.950Z</time>
      </trkpt>
      <trkpt lat="45.7094" lon="5.72544">
        <ele>240</ele>
        <time>2022-04-16T07:46:18.949Z</time>
      </trkpt>
      <trkpt lat="45.70939" lon="5.72538">
        <ele>241</ele>
        <time>2022-04-16T07:46:19.949Z</time>
      </trkpt>
      <trkpt lat="45.70937" lon="5.72532">
        <ele>241</ele>
        <time>2022-04-16T07:46:20.950Z</time>
      </trkpt>
      <trkpt lat="45.70935" lon="5.72525">
        <ele>242</ele>
        <time>2022-04-16T07:46:21.950Z</time>
      </trkpt>
      <trkpt lat="45.70934" lon="5.7252">
        <ele>243</ele>
        <time>2022-04-16T07:46:22.949Z</time>
      </trkpt>
      <trkpt lat="45.70931" lon="5.72514">
        <ele>243</ele>
        <time>2022-04-16T07:46:23.949Z</time>
      </trkpt>
      <trkpt lat="45.70929" lon="5.72509">
        <ele>244</ele>
        <time>2022-04-16T07:46:24.949Z</time>
      </trkpt>
      <trkpt lat="45.70928" lon="5.72504">
        <ele>244</ele>
        <time>2022-04-16T07:46:25.949Z</time>
      </trkpt>
      <trkpt lat="45.70926" lon="5.72498">
        <ele>245</ele>
        <time>2022-04-16T07:46:26.949Z</time>
      </trkpt>
      <trkpt lat="45.70923" lon="5.72492">
        <ele>246</ele>
        <time>2022-04-16T07:46:27.949Z</time>
      </trkpt>
      <trkpt lat="45.70921" lon="5.72486">
        <ele>246</ele>
        <time>2022-04-16T07:46:28.950Z</time>
      </trkpt>
      <trkpt lat="45.70917" lon="5.7248">
        <ele>247</ele>
        <time>2022-04-16T07:46:29.950Z</time>
      </trkpt>
      <trkpt lat="45.70914" lon="5.72475">
        <ele>247</ele>
        <time>2022-04-16T07:46:30.949Z</time>
      </trkpt>
      <trkpt lat="45.70912" lon="5.7247">
        <ele>247</ele>
        <time>2022-04-16T07:46:31.950Z</time>
      </trkpt>
      <trkpt lat="45.70909" lon="5.72466">
        <ele>248</ele>
        <time>2022-04-16T07:46:32.949Z</time>
      </trkpt>
      <trkpt lat="45.70906" lon="5.7246">
        <ele>248</ele>
        <time>2022-04-16T07:46:33.949Z</time>
      </trkpt>
      <trkpt lat="45.70904" lon="5.72458">
        <ele>248</ele>
        <time>2022-04-16T07:46:34.949Z</time>
      </trkpt>
      <trkpt lat="45.70901" lon="5.72453">
        <ele>249</ele>
        <time>2022-04-16T07:46:35.949Z</time>
      </trkpt>
      <trkpt lat="45.70856" lon="5.72328">
        <ele>249</ele>
        <time>2022-04-16T07:46:50.949Z</time>
      </trkpt>
      <trkpt lat="45.70861" lon="5.72321">
        <ele>249</ele>
        <time>2022-04-16T07:46:51.949Z</time>
      </trkpt>
      <trkpt lat="45.70861" lon="5.72312">
        <ele>249</ele>
        <time>2022-04-16T07:46:52.949Z</time>
      </trkpt>
      <trkpt lat="45.70855" lon="5.72306">
        <ele>249</ele>
        <time>2022-04-16T07:46:53.950Z</time>
      </trkpt>
      <trkpt lat="45.70851" lon="5.72299">
        <ele>249</ele>
        <time>2022-04-16T07:46:54.949Z</time>
      </trkpt>
      <trkpt lat="45.70847" lon="5.7229">
        <ele>249</ele>
        <time>2022-04-16T07:46:55.949Z</time>
      </trkpt>
      <trkpt lat="45.70844" lon="5.72283">
        <ele>249</ele>
        <time>2022-04-16T07:46:56.949Z</time>
      </trkpt>
      <trkpt lat="45.70842" lon="5.72274">
        <ele>249</ele>
        <time>2022-04-16T07:46:57.950Z</time>
      </trkpt>
      <trkpt lat="45.7084" lon="5.72261">
        <ele>250</ele>
        <time>2022-04-16T07:46:58.950Z</time>
      </trkpt>
      <trkpt lat="45.7084" lon="5.72251">
        <ele>250</ele>
        <time>2022-04-16T07:46:59.949Z</time>
      </trkpt>
      <trkpt lat="45.7084" lon="5.7224">
        <ele>250</ele>
        <time>2022-04-16T07:47:00.949Z</time>
      </trkpt>
      <trkpt lat="45.7084" lon="5.72228">
        <ele>250</ele>
        <time>2022-04-16T07:47:01.950Z</time>
      </trkpt>
      <trkpt lat="45.70836" lon="5.7222">
        <ele>250</ele>
        <time>2022-04-16T07:47:02.949Z</time>
      </trkpt>
      <trkpt lat="45.70834" lon="5.72212">
        <ele>249</ele>
        <time>2022-04-16T07:47:03.950Z</time>
      </trkpt>
      <trkpt lat="45.70833" lon="5.72203">
        <ele>249</ele>
        <time>2022-04-16T07:47:04.950Z</time>
      </trkpt>
      <trkpt lat="45.70833" lon="5.72195">
        <ele>249</ele>
        <time>2022-04-16T07:47:05.949Z</time>
      </trkpt>
      <trkpt lat="45.70838" lon="5.72183">
        <ele>249</ele>
        <time>2022-04-16T07:47:06.950Z</time>
      </trkpt>
      <trkpt lat="45.70908" lon="5.72073">
        <ele>247</ele>
        <time>2022-04-16T07:47:20.949Z</time>
      </trkpt>
      <trkpt lat="45.70911" lon="5.72067">
        <ele>245</ele>
        <time>2022-04-16T07:47:21.950Z</time>
      </trkpt>
      <trkpt lat="45.70916" lon="5.72057">
        <ele>243</ele>
        <time>2022-04-16T07:47:22.950Z</time>
      </trkpt>
      <trkpt lat="45.70916" lon="5.72049">
        <ele>241</ele>
        <time>2022-04-16T07:47:23.949Z</time>
      </trkpt>
      <trkpt lat="45.70924" lon="5.7204">
        <ele>239</ele>
        <time>2022-04-16T07:47:24.949Z</time>
      </trkpt>
      <trkpt lat="45.7093" lon="5.72031">
        <ele>238</ele>
        <time>2022-04-16T07:47:25.949Z</time>
      </trkpt>
      <trkpt lat="45.70938" lon="5.72022">
        <ele>237</ele>
        <time>2022-04-16T07:47:26.949Z</time>
      </trkpt>
      <trkpt lat="45.70943" lon="5.72016">
        <ele>235</ele>
        <time>2022-04-16T07:47:27.949Z</time>
      </trkpt>
      <trkpt lat="45.70948" lon="5.72011">
        <ele>234</ele>
        <time>2022-04-16T07:47:28.950Z</time>
      </trkpt>
      <trkpt lat="45.70953" lon="5.72003">
        <ele>233</ele>
        <time>2022-04-16T07:47:29.949Z</time>
      </trkpt>
      <trkpt lat="45.70959" lon="5.71996">
        <ele>232</ele>
        <time>2022-04-16T07:47:30.950Z</time>
      </trkpt>
      <trkpt lat="45.70965" lon="5.7199">
        <ele>231</ele>
        <time>2022-04-16T07:47:31.949Z</time>
      </trkpt>
      <trkpt lat="45.70971" lon="5.71984">
        <ele>230</ele>
        <time>2022-04-16T07:47:32.949Z</time>
      </trkpt>
      <trkpt lat="45.70975" lon="5.7198">
        <ele>230</ele>
        <time>2022-04-16T07:47:33.949Z</time>
      </trkpt>
      <trkpt lat="45.7098" lon="5.71977">
        <ele>229</ele>
        <time>2022-04-16T07:47:34.949Z</time>
      </trkpt>
      <trkpt lat="45.70984" lon="5.71974">
        <ele>228</ele>
        <time>2022-04-16T07:47:35.950Z</time>
      </trkpt>
      <trkpt lat="45.7099" lon="5.71971">
        <ele>228</ele>
        <time>2022-04-16T07:47:36.949Z</time>
      </trkpt>
      <trkpt lat="45.70995" lon="5.7197">
        <ele>226</ele>
        <time>2022-04-16T07:47:37.949Z</time>
      </trkpt>
      <trkpt lat="45.71" lon="5.71969">
        <ele>224</ele>
        <time>2022-04-16T07:47:38.949Z</time>
      </trkpt>
      <trkpt lat="45.71004" lon="5.71969">
        <ele>223</ele>
        <time>2022-04-16T07:47:39.949Z</time>
      </trkpt>
      <trkpt lat="45.71009" lon="5.71969">
        <ele>222</ele>
        <time>2022-04-16T07:47:40.950Z</time>
      </trkpt>
      <trkpt lat="45.71013" lon="5.71967">
        <ele>220</ele>
        <time>2022-04-16T07:47:41.950Z</time>
      </trkpt>
      <trkpt lat="45.71017" lon="5.71965">
        <ele>219</ele>
        <time>2022-04-16T07:47:42.950Z</time>
      </trkpt>
      <trkpt lat="45.7102" lon="5.71962">
        <ele>218</ele>
        <time>2022-04-16T07:47:43.949Z</time>
      </trkpt>
      <trkpt lat="45.71023" lon="5.7196">
        <ele>218</ele>
        <time>2022-04-16T07:47:44.949Z</time>
      </trkpt>
      <trkpt lat="45.71025" lon="5.71957">
        <ele>217</ele>
        <time>2022-04-16T07:47:45.950Z</time>
      </trkpt>
      <trkpt lat="45.71027" lon="5.71955">
        <ele>217</ele>
        <time>2022-04-16T07:47:46.950Z</time>
      </trkpt>
      <trkpt lat="45.71027" lon="5.71953">
        <ele>217</ele>
        <time>2022-04-16T07:47:47.950Z</time>
      </trkpt>
      <trkpt lat="45.71028" lon="5.71951">
        <ele>218</ele>
        <time>2022-04-16T07:47:48.950Z</time>
      </trkpt>
      <trkpt lat="45.71029" lon="5.71949">
        <ele>219</ele>
        <time>2022-04-16T07:47:49.949Z</time>
      </trkpt>
      <trkpt lat="45.7103" lon="5.71945">
        <ele>219</ele>
        <time>2022-04-16T07:47:50.949Z</time>
      </trkpt>
      <trkpt lat="45.7103" lon="5.71942">
        <ele>220</ele>
        <time>2022-04-16T07:47:51.949Z</time>
      </trkpt>
      <trkpt lat="45.71032" lon="5.71939">
        <ele>221</ele>
        <time>2022-04-16T07:47:52.950Z</time>
      </trkpt>
      <trkpt lat="45.71034" lon="5.71937">
        <ele>222</ele>
        <time>2022-04-16T07:47:53.949Z</time>
      </trkpt>
      <trkpt lat="45.71036" lon="5.71934">
        <ele>223</ele>
        <time>2022-04-16T07:47:54.950Z</time>
      </trkpt>
      <trkpt lat="45.71038" lon="5.7193">
        <ele>224</ele>
        <time>2022-04-16T07:47:55.949Z</time>
      </trkpt>
      <trkpt lat="45.7104" lon="5.71926">
        <ele>225</ele>
        <time>2022-04-16T07:47:56.950Z</time>
      </trkpt>
      <trkpt lat="45.71042" lon="5.71922">
        <ele>226</ele>
        <time>2022-04-16T07:47:57.949Z</time>
      </trkpt>
      <trkpt lat="45.71044" lon="5.7192">
        <ele>227</ele>
        <time>2022-04-16T07:47:58.950Z</time>
      </trkpt>
      <trkpt lat="45.71047" lon="5.71916">
        <ele>228</ele>
        <time>2022-04-16T07:47:59.949Z</time>
      </trkpt>
      <trkpt lat="45.71049" lon="5.71914">
        <ele>228</ele>
        <time>2022-04-16T07:48:00.949Z</time>
      </trkpt>
      <trkpt lat="45.71051" lon="5.7191">
        <ele>229</ele>
        <time>2022-04-16T07:48:01.949Z</time>
      </trkpt>
      <trkpt lat="45.71053" lon="5.71907">
        <ele>229</ele>
        <time>2022-04-16T07:48:02.949Z</time>
      </trkpt>
      <trkpt lat="45.71054" lon="5.71903">
        <ele>230</ele>
        <time>2022-04-16T07:48:03.949Z</time>
      </trkpt>
      <trkpt lat="45.71056" lon="5.71899">
        <ele>230</ele>
        <time>2022-04-16T07:48:04.949Z</time>
      </trkpt>
      <trkpt lat="45.71057" lon="5.71894">
        <ele>231</ele>
        <time>2022-04-16T07:48:05.949Z</time>
      </trkpt>
      <trkpt lat="45.71058" lon="5.7189">
        <ele>232</ele>
        <time>2022-04-16T07:48:06.950Z</time>
      </trkpt>
      <trkpt lat="45.7106" lon="5.71887">
        <ele>233</ele>
        <time>2022-04-16T07:48:07.949Z</time>
      </trkpt>
      <trkpt lat="45.71061" lon="5.71883">
        <ele>233</ele>
        <time>2022-04-16T07:48:08.949Z</time>
      </trkpt>
      <trkpt lat="45.71062" lon="5.71879">
        <ele>234</ele>
        <time>2022-04-16T07:48:09.949Z</time>
      </trkpt>
      <trkpt lat="45.71063" lon="5.71874">
        <ele>235</ele>
        <time>2022-04-16T07:48:10.949Z</time>
      </trkpt>
      <trkpt lat="45.71064" lon="5.7187">
        <ele>235</ele>
        <time>2022-04-16T07:48:11.949Z</time>
      </trkpt>
      <trkpt lat="45.71065" lon="5.71866">
        <ele>236</ele>
        <time>2022-04-16T07:48:12.950Z</time>
      </trkpt>
      <trkpt lat="45.71067" lon="5.71862">
        <ele>237</ele>
        <time>2022-04-16T07:48:13.949Z</time>
      </trkpt>
      <trkpt lat="45.71068" lon="5.71858">
        <ele>237</ele>
        <time>2022-04-16T07:48:14.949Z</time>
      </trkpt>
      <trkpt lat="45.7107" lon="5.71854">
        <ele>238</ele>
        <time>2022-04-16T07:48:15.950Z</time>
      </trkpt>
      <trkpt lat="45.71072" lon="5.7185">
        <ele>238</ele>
        <time>2022-04-16T07:48:16.949Z</time>
      </trkpt>
      <trkpt lat="45.71074" lon="5.71846">
        <ele>238</ele>
        <time>2022-04-16T07:48:17.949Z</time>
      </trkpt>
      <trkpt lat="45.71075" lon="5.71843">
        <ele>238</ele>
        <time>2022-04-16T07:48:18.949Z</time>
      </trkpt>
      <trkpt lat="45.71077" lon="5.71839">
        <ele>239</ele>
        <time>2022-04-16T07:48:19.949Z</time>
      </trkpt>
      <trkpt lat="45.71079" lon="5.71835">
        <ele>239</ele>
        <time>2022-04-16T07:48:20.949Z</time>
      </trkpt>
      <trkpt lat="45.7108" lon="5.71832">
        <ele>239</ele>
        <time>2022-04-16T07:48:21.949Z</time>
      </trkpt>
      <trkpt lat="45.71082" lon="5.71828">
        <ele>239</ele>
        <time>2022-04-16T07:48:22.949Z</time>
      </trkpt>
      <trkpt lat="45.71083" lon="5.71824">
        <ele>240</ele>
        <time>2022-04-16T07:48:23.949Z</time>
      </trkpt>
      <trkpt lat="45.71085" lon="5.71821">
        <ele>240</ele>
        <time>2022-04-16T07:48:24.949Z</time>
      </trkpt>
      <trkpt lat="45.71086" lon="5.71817">
        <ele>240</ele>
        <time>2022-04-16T07:48:25.950Z</time>
      </trkpt>
      <trkpt lat="45.71088" lon="5.71813">
        <ele>240</ele>
        <time>2022-04-16T07:48:26.949Z</time>
      </trkpt>
      <trkpt lat="45.71089" lon="5.71808">
        <ele>241</ele>
        <time>2022-04-16T07:48:27.949Z</time>
      </trkpt>
      <trkpt lat="45.7109" lon="5.71805">
        <ele>241</ele>
        <time>2022-04-16T07:48:28.950Z</time>
      </trkpt>
      <trkpt lat="45.71091" lon="5.718">
        <ele>241</ele>
        <time>2022-04-16T07:48:29.949Z</time>
      </trkpt>
      <trkpt lat="45.71092" lon="5.71796">
        <ele>241</ele>
        <time>2022-04-16T07:48:30.950Z</time>
      </trkpt>
      <trkpt lat="45.71093" lon="5.71792">
        <ele>242</ele>
        <time>2022-04-16T07:48:31.950Z</time>
      </trkpt>
      <trkpt lat="45.71094" lon="5.71787">
        <ele>242</ele>
        <time>2022-04-16T07:48:32.950Z</time>
      </trkpt>
      <trkpt lat="45.71095" lon="5.71783">
        <ele>243</ele>
        <time>2022-04-16T07:48:33.950Z</time>
      </trkpt>
      <trkpt lat="45.71096" lon="5.71778">
        <ele>243</ele>
        <time>2022-04-16T07:48:34.949Z</time>
      </trkpt>
      <trkpt lat="45.71097" lon="5.71773">
        <ele>244</ele>
        <time>2022-04-16T07:48:35.950Z</time>
      </trkpt>
      <trkpt lat="45.71097" lon="5.71768">
        <ele>244</ele>
        <time>2022-04-16T07:48:36.949Z</time>
      </trkpt>
      <trkpt lat="45.71097" lon="5.71764">
        <ele>245</ele>
        <time>2022-04-16T07:48:37.949Z</time>
      </trkpt>
      <trkpt lat="45.71098" lon="5.71759">
        <ele>245</ele>
        <time>2022-04-16T07:48:38.949Z</time>
      </trkpt>
      <trkpt lat="45.71099" lon="5.71755">
        <ele>245</ele>
        <time>2022-04-16T07:48:39.949Z</time>
      </trkpt>
      <trkpt lat="45.71099" lon="5.7175">
        <ele>245</ele>
        <time>2022-04-16T07:48:40.949Z</time>
      </trkpt>
      <trkpt lat="45.71099" lon="5.71745">
        <ele>246</ele>
        <time>2022-04-16T07:48:41.949Z</time>
      </trkpt>
      <trkpt lat="45.71099" lon="5.71741">
        <ele>246</ele>
        <time>2022-04-16T07:48:42.949Z</time>
      </trkpt>
      <trkpt lat="45.711" lon="5.71735">
        <ele>246</ele>
        <time>2022-04-16T07:48:43.950Z</time>
      </trkpt>
      <trkpt lat="45.711" lon="5.71731">
        <ele>246</ele>
        <time>2022-04-16T07:48:44.949Z</time>
      </trkpt>
      <trkpt lat="45.71101" lon="5.71729">
        <ele>246</ele>
        <time>2022-04-16T07:48:45.949Z</time>
      </trkpt>
      <trkpt lat="45.71101" lon="5.71724">
        <ele>246</ele>
        <time>2022-04-16T07:48:46.949Z</time>
      </trkpt>
      <trkpt lat="45.71101" lon="5.71719">
        <ele>246</ele>
        <time>2022-04-16T07:48:47.949Z</time>
      </trkpt>
      <trkpt lat="45.71102" lon="5.71715">
        <ele>247</ele>
        <time>2022-04-16T07:48:48.949Z</time>
      </trkpt>
      <trkpt lat="45.71102" lon="5.7171">
        <ele>247</ele>
        <time>2022-04-16T07:48:49.950Z</time>
      </trkpt>
      <trkpt lat="45.71103" lon="5.71706">
        <ele>247</ele>
        <time>2022-04-16T07:48:50.949Z</time>
      </trkpt>
      <trkpt lat="45.71103" lon="5.71702">
        <ele>248</ele>
        <time>2022-04-16T07:48:51.949Z</time>
      </trkpt>
      <trkpt lat="45.71104" lon="5.71698">
        <ele>248</ele>
        <time>2022-04-16T07:48:52.949Z</time>
      </trkpt>
      <trkpt lat="45.71104" lon="5.71695">
        <ele>248</ele>
        <time>2022-04-16T07:48:53.949Z</time>
      </trkpt>
      <trkpt lat="45.71105" lon="5.7169">
        <ele>248</ele>
        <time>2022-04-16T07:48:54.949Z</time>
      </trkpt>
      <trkpt lat="45.71105" lon="5.71687">
        <ele>248</ele>
        <time>2022-04-16T07:48:55.949Z</time>
      </trkpt>
      <trkpt lat="45.71106" lon="5.71682">
        <ele>248</ele>
        <time>2022-04-16T07:48:56.949Z</time>
      </trkpt>
      <trkpt lat="45.71106" lon="5.71679">
        <ele>248</ele>
        <time>2022-04-16T07:48:57.949Z</time>
      </trkpt>
      <trkpt lat="45.71107" lon="5.71674">
        <ele>249</ele>
        <time>2022-04-16T07:48:58.949Z</time>
      </trkpt>
      <trkpt lat="45.71107" lon="5.71671">
        <ele>249</ele>
        <time>2022-04-16T07:48:59.950Z</time>
      </trkpt>
      <trkpt lat="45.71108" lon="5.71667">
        <ele>249</ele>
        <time>2022-04-16T07:49:00.950Z</time>
      </trkpt>
      <trkpt lat="45.71108" lon="5.71661">
        <ele>249</ele>
        <time>2022-04-16T07:49:01.949Z</time>
      </trkpt>
      <trkpt lat="45.71108" lon="5.71658">
        <ele>250</ele>
        <time>2022-04-16T07:49:02.949Z</time>
      </trkpt>
      <trkpt lat="45.71108" lon="5.71653">
        <ele>250</ele>
        <time>2022-04-16T07:49:03.949Z</time>
      </trkpt>
      <trkpt lat="45.71109" lon="5.71649">
        <ele>250</ele>
        <time>2022-04-16T07:49:04.950Z</time>
      </trkpt>
      <trkpt lat="45.7111" lon="5.71644">
        <ele>250</ele>
        <time>2022-04-16T07:49:05.949Z</time>
      </trkpt>
      <trkpt lat="45.7111" lon="5.71641">
        <ele>250</ele>
        <time>2022-04-16T07:49:06.950Z</time>
      </trkpt>
      <trkpt lat="45.7111" lon="5.71637">
        <ele>250</ele>
        <time>2022-04-16T07:49:07.949Z</time>
      </trkpt>
      <trkpt lat="45.7111" lon="5.71633">
        <ele>250</ele>
        <time>2022-04-16T07:49:08.949Z</time>
      </trkpt>
      <trkpt lat="45.7111" lon="5.7163">
        <ele>249</ele>
        <time>2022-04-16T07:49:09.950Z</time>
      </trkpt>
      <trkpt lat="45.71111" lon="5.71626">
        <ele>249</ele>
        <time>2022-04-16T07:49:10.950Z</time>
      </trkpt>
      <trkpt lat="45.71111" lon="5.71622">
        <ele>249</ele>
        <time>2022-04-16T07:49:11.949Z</time>
      </trkpt>
      <trkpt lat="45.71112" lon="5.71618">
        <ele>249</ele>
        <time>2022-04-16T07:49:12.950Z</time>
      </trkpt>
      <trkpt lat="45.71112" lon="5.71614">
        <ele>249</ele>
        <time>2022-04-16T07:49:13.949Z</time>
      </trkpt>
      <trkpt lat="45.71112" lon="5.71609">
        <ele>248</ele>
        <time>2022-04-16T07:49:14.950Z</time>
      </trkpt>
      <trkpt lat="45.71112" lon="5.71605">
        <ele>249</ele>
        <time>2022-04-16T07:49:15.949Z</time>
      </trkpt>
      <trkpt lat="45.71112" lon="5.71601">
        <ele>249</ele>
        <time>2022-04-16T07:49:16.950Z</time>
      </trkpt>
      <trkpt lat="45.71112" lon="5.71597">
        <ele>249</ele>
        <time>2022-04-16T07:49:17.949Z</time>
      </trkpt>
      <trkpt lat="45.71113" lon="5.71592">
        <ele>249</ele>
        <time>2022-04-16T07:49:18.950Z</time>
      </trkpt>
      <trkpt lat="45.71113" lon="5.71588">
        <ele>249</ele>
        <time>2022-04-16T07:49:19.949Z</time>
      </trkpt>
      <trkpt lat="45.71113" lon="5.71583">
        <ele>249</ele>
        <time>2022-04-16T07:49:20.950Z</time>
      </trkpt>
      <trkpt lat="45.71113" lon="5.71579">
        <ele>249</ele>
        <time>2022-04-16T07:49:21.949Z</time>
      </trkpt>
      <trkpt lat="45.71113" lon="5.71574">
        <ele>249</ele>
        <time>2022-04-16T07:49:22.949Z</time>
      </trkpt>
      <trkpt lat="45.71114" lon="5.7157">
        <ele>250</ele>
        <time>2022-04-16T07:49:23.949Z</time>
      </trkpt>
      <trkpt lat="45.71114" lon="5.71565">
        <ele>250</ele>
        <time>2022-04-16T07:49:24.950Z</time>
      </trkpt>
      <trkpt lat="45.71115" lon="5.71561">
        <ele>250</ele>
        <time>2022-04-16T07:49:25.949Z</time>
      </trkpt>
      <trkpt lat="45.71115" lon="5.71557">
        <ele>250</ele>
        <time>2022-04-16T07:49:26.949Z</time>
      </trkpt>
      <trkpt lat="45.71115" lon="5.71553">
        <ele>250</ele>
        <time>2022-04-16T07:49:27.949Z</time>
      </trkpt>
      <trkpt lat="45.71115" lon="5.71548">
        <ele>250</ele>
        <time>2022-04-16T07:49:28.949Z</time>
      </trkpt>
      <trkpt lat="45.71116" lon="5.71544">
        <ele>250</ele>
        <time>2022-04-16T07:49:29.949Z</time>
      </trkpt>
      <trkpt lat="45.71117" lon="5.7154">
        <ele>249</ele>
        <time>2022-04-16T07:49:30.949Z</time>
      </trkpt>
      <trkpt lat="45.71118" lon="5.71535">
        <ele>249</ele>
        <time>2022-04-16T07:49:31.949Z</time>
      </trkpt>
      <trkpt lat="45.7112" lon="5.71532">
        <ele>249</ele>
        <time>2022-04-16T07:49:32.950Z</time>
      </trkpt>
      <trkpt lat="45.71121" lon="5.71528">
        <ele>248</ele>
        <time>2022-04-16T07:49:33.949Z</time>
      </trkpt>
      <trkpt lat="45.71123" lon="5.71524">
        <ele>248</ele>
        <time>2022-04-16T07:49:34.949Z</time>
      </trkpt>
      <trkpt lat="45.71126" lon="5.71521">
        <ele>248</ele>
        <time>2022-04-16T07:49:35.950Z</time>
      </trkpt>
      <trkpt lat="45.71128" lon="5.71517">
        <ele>248</ele>
        <time>2022-04-16T07:49:36.949Z</time>
      </trkpt>
      <trkpt lat="45.71132" lon="5.71513">
        <ele>247</ele>
        <time>2022-04-16T07:49:37.949Z</time>
      </trkpt>
      <trkpt lat="45.71135" lon="5.7151">
        <ele>247</ele>
        <time>2022-04-16T07:49:38.950Z</time>
      </trkpt>
      <trkpt lat="45.71139" lon="5.71507">
        <ele>247</ele>
        <time>2022-04-16T07:49:39.950Z</time>
      </trkpt>
      <trkpt lat="45.71143" lon="5.71504">
        <ele>247</ele>
        <time>2022-04-16T07:49:40.949Z</time>
      </trkpt>
      <trkpt lat="45.71147" lon="5.71502">
        <ele>247</ele>
        <time>2022-04-16T07:49:41.949Z</time>
      </trkpt>
      <trkpt lat="45.71151" lon="5.71502">
        <ele>246</ele>
        <time>2022-04-16T07:49:42.949Z</time>
      </trkpt>
      <trkpt lat="45.71156" lon="5.71501">
        <ele>246</ele>
        <time>2022-04-16T07:49:43.949Z</time>
      </trkpt>
      <trkpt lat="45.71161" lon="5.715">
        <ele>246</ele>
        <time>2022-04-16T07:49:44.949Z</time>
      </trkpt>
      <trkpt lat="45.71166" lon="5.71499">
        <ele>246</ele>
        <time>2022-04-16T07:49:45.949Z</time>
      </trkpt>
      <trkpt lat="45.71171" lon="5.71498">
        <ele>246</ele>
        <time>2022-04-16T07:49:46.949Z</time>
      </trkpt>
      <trkpt lat="45.71177" lon="5.71498">
        <ele>245</ele>
        <time>2022-04-16T07:49:47.949Z</time>
      </trkpt>
      <trkpt lat="45.71182" lon="5.71497">
        <ele>245</ele>
        <time>2022-04-16T07:49:48.950Z</time>
      </trkpt>
      <trkpt lat="45.71188" lon="5.71496">
        <ele>245</ele>
        <time>2022-04-16T07:49:49.950Z</time>
      </trkpt>
      <trkpt lat="45.71194" lon="5.71495">
        <ele>245</ele>
        <time>2022-04-16T07:49:50.950Z</time>
      </trkpt>
      <trkpt lat="45.71201" lon="5.71495">
        <ele>245</ele>
        <time>2022-04-16T07:49:51.949Z</time>
      </trkpt>
      <trkpt lat="45.71208" lon="5.71494">
        <ele>244</ele>
        <time>2022-04-16T07:49:52.949Z</time>
      </trkpt>
      <trkpt lat="45.71215" lon="5.71493">
        <ele>244</ele>
        <time>2022-04-16T07:49:53.950Z</time>
      </trkpt>
      <trkpt lat="45.71222" lon="5.71491">
        <ele>244</ele>
        <time>2022-04-16T07:49:54.950Z</time>
      </trkpt>
      <trkpt lat="45.7123" lon="5.7149">
        <ele>244</ele>
        <time>2022-04-16T07:49:55.950Z</time>
      </trkpt>
      <trkpt lat="45.71237" lon="5.71489">
        <ele>244</ele>
        <time>2022-04-16T07:49:56.950Z</time>
      </trkpt>
      <trkpt lat="45.71245" lon="5.71488">
        <ele>244</ele>
        <time>2022-04-16T07:49:57.950Z</time>
      </trkpt>
      <trkpt lat="45.71253" lon="5.71486">
        <ele>244</ele>
        <time>2022-04-16T07:49:58.950Z</time>
      </trkpt>
      <trkpt lat="45.71261" lon="5.71484">
        <ele>244</ele>
        <time>2022-04-16T07:49:59.949Z</time>
      </trkpt>
      <trkpt lat="45.71269" lon="5.71482">
        <ele>244</ele>
        <time>2022-04-16T07:50:00.949Z</time>
      </trkpt>
      <trkpt lat="45.71278" lon="5.71479">
        <ele>243</ele>
        <time>2022-04-16T07:50:01.949Z</time>
      </trkpt>
      <trkpt lat="45.71286" lon="5.71476">
        <ele>244</ele>
        <time>2022-04-16T07:50:02.949Z</time>
      </trkpt>
      <trkpt lat="45.71294" lon="5.71472">
        <ele>243</ele>
        <time>2022-04-16T07:50:03.949Z</time>
      </trkpt>
      <trkpt lat="45.71303" lon="5.71469">
        <ele>243</ele>
        <time>2022-04-16T07:50:04.949Z</time>
      </trkpt>
      <trkpt lat="45.71313" lon="5.71464">
        <ele>243</ele>
        <time>2022-04-16T07:50:05.949Z</time>
      </trkpt>
      <trkpt lat="45.7132" lon="5.7146">
        <ele>242</ele>
        <time>2022-04-16T07:50:06.950Z</time>
      </trkpt>
      <trkpt lat="45.71329" lon="5.71454">
        <ele>242</ele>
        <time>2022-04-16T07:50:07.950Z</time>
      </trkpt>
      <trkpt lat="45.71337" lon="5.71449">
        <ele>242</ele>
        <time>2022-04-16T07:50:08.950Z</time>
      </trkpt>
      <trkpt lat="45.71346" lon="5.71444">
        <ele>242</ele>
        <time>2022-04-16T07:50:09.950Z</time>
      </trkpt>
      <trkpt lat="45.71354" lon="5.71439">
        <ele>243</ele>
        <time>2022-04-16T07:50:10.949Z</time>
      </trkpt>
      <trkpt lat="45.71363" lon="5.71433">
        <ele>242</ele>
        <time>2022-04-16T07:50:11.950Z</time>
      </trkpt>
      <trkpt lat="45.71372" lon="5.71428">
        <ele>242</ele>
        <time>2022-04-16T07:50:12.949Z</time>
      </trkpt>
      <trkpt lat="45.71381" lon="5.71423">
        <ele>242</ele>
        <time>2022-04-16T07:50:13.949Z</time>
      </trkpt>
      <trkpt lat="45.7139" lon="5.71417">
        <ele>241</ele>
        <time>2022-04-16T07:50:14.950Z</time>
      </trkpt>
      <trkpt lat="45.71399" lon="5.71411">
        <ele>241</ele>
        <time>2022-04-16T07:50:15.949Z</time>
      </trkpt>
      <trkpt lat="45.71407" lon="5.71405">
        <ele>240</ele>
        <time>2022-04-16T07:50:16.950Z</time>
      </trkpt>
      <trkpt lat="45.71415" lon="5.71397">
        <ele>239</ele>
        <time>2022-04-16T07:50:17.950Z</time>
      </trkpt>
      <trkpt lat="45.71423" lon="5.71389">
        <ele>238</ele>
        <time>2022-04-16T07:50:18.949Z</time>
      </trkpt>
      <trkpt lat="45.7143" lon="5.71381">
        <ele>238</ele>
        <time>2022-04-16T07:50:19.949Z</time>
      </trkpt>
      <trkpt lat="45.71439" lon="5.71374">
        <ele>237</ele>
        <time>2022-04-16T07:50:20.949Z</time>
      </trkpt>
      <trkpt lat="45.71448" lon="5.71369">
        <ele>237</ele>
        <time>2022-04-16T07:50:21.950Z</time>
      </trkpt>
      <trkpt lat="45.71458" lon="5.71366">
        <ele>236</ele>
        <time>2022-04-16T07:50:22.950Z</time>
      </trkpt>
      <trkpt lat="45.71467" lon="5.71363">
        <ele>235</ele>
        <time>2022-04-16T07:50:23.950Z</time>
      </trkpt>
      <trkpt lat="45.71476" lon="5.71359">
        <ele>235</ele>
        <time>2022-04-16T07:50:24.950Z</time>
      </trkpt>
      <trkpt lat="45.71485" lon="5.71353">
        <ele>234</ele>
        <time>2022-04-16T07:50:25.950Z</time>
      </trkpt>
      <trkpt lat="45.71492" lon="5.71345">
        <ele>233</ele>
        <time>2022-04-16T07:50:26.949Z</time>
      </trkpt>
      <trkpt lat="45.71498" lon="5.71335">
        <ele>233</ele>
        <time>2022-04-16T07:50:27.949Z</time>
      </trkpt>
      <trkpt lat="45.71504" lon="5.71324">
        <ele>232</ele>
        <time>2022-04-16T07:50:28.949Z</time>
      </trkpt>
      <trkpt lat="45.7151" lon="5.71313">
        <ele>231</ele>
        <time>2022-04-16T07:50:29.949Z</time>
      </trkpt>
      <trkpt lat="45.71515" lon="5.71301">
        <ele>231</ele>
        <time>2022-04-16T07:50:30.950Z</time>
      </trkpt>
      <trkpt lat="45.7152" lon="5.71288">
        <ele>230</ele>
        <time>2022-04-16T07:50:31.949Z</time>
      </trkpt>
      <trkpt lat="45.71526" lon="5.71276">
        <ele>229</ele>
        <time>2022-04-16T07:50:32.949Z</time>
      </trkpt>
      <trkpt lat="45.71531" lon="5.71263">
        <ele>229</ele>
        <time>2022-04-16T07:50:33.949Z</time>
      </trkpt>
      <trkpt lat="45.71536" lon="5.71251">
        <ele>229</ele>
        <time>2022-04-16T07:50:34.949Z</time>
      </trkpt>
      <trkpt lat="45.71541" lon="5.7124">
        <ele>228</ele>
        <time>2022-04-16T07:50:35.950Z</time>
      </trkpt>
      <trkpt lat="45.71546" lon="5.71229">
        <ele>228</ele>
        <time>2022-04-16T07:50:36.949Z</time>
      </trkpt>
      <trkpt lat="45.7155" lon="5.71219">
        <ele>228</ele>
        <time>2022-04-16T07:50:37.949Z</time>
      </trkpt>
      <trkpt lat="45.71554" lon="5.71209">
        <ele>227</ele>
        <time>2022-04-16T07:50:38.949Z</time>
      </trkpt>
      <trkpt lat="45.71558" lon="5.71199">
        <ele>227</ele>
        <time>2022-04-16T07:50:39.949Z</time>
      </trkpt>
      <trkpt lat="45.71562" lon="5.7119">
        <ele>227</ele>
        <time>2022-04-16T07:50:40.949Z</time>
      </trkpt>
      <trkpt lat="45.71566" lon="5.71181">
        <ele>227</ele>
        <time>2022-04-16T07:50:41.949Z</time>
      </trkpt>
      <trkpt lat="45.71569" lon="5.71172">
        <ele>227</ele>
        <time>2022-04-16T07:50:42.949Z</time>
      </trkpt>
      <trkpt lat="45.71573" lon="5.71163">
        <ele>227</ele>
        <time>2022-04-16T07:50:43.949Z</time>
      </trkpt>
      <trkpt lat="45.71576" lon="5.71155">
        <ele>227</ele>
        <time>2022-04-16T07:50:44.949Z</time>
      </trkpt>
      <trkpt lat="45.7158" lon="5.71147">
        <ele>227</ele>
        <time>2022-04-16T07:50:45.950Z</time>
      </trkpt>
      <trkpt lat="45.71583" lon="5.71139">
        <ele>227</ele>
        <time>2022-04-16T07:50:46.950Z</time>
      </trkpt>
      <trkpt lat="45.71586" lon="5.71131">
        <ele>227</ele>
        <time>2022-04-16T07:50:47.950Z</time>
      </trkpt>
      <trkpt lat="45.71589" lon="5.71124">
        <ele>227</ele>
        <time>2022-04-16T07:50:48.949Z</time>
      </trkpt>
      <trkpt lat="45.71591" lon="5.71117">
        <ele>227</ele>
        <time>2022-04-16T07:50:49.949Z</time>
      </trkpt>
      <trkpt lat="45.71593" lon="5.71111">
        <ele>227</ele>
        <time>2022-04-16T07:50:50.950Z</time>
      </trkpt>
      <trkpt lat="45.71596" lon="5.71105">
        <ele>227</ele>
        <time>2022-04-16T07:50:51.949Z</time>
      </trkpt>
      <trkpt lat="45.71599" lon="5.711">
        <ele>227</ele>
        <time>2022-04-16T07:50:52.949Z</time>
      </trkpt>
      <trkpt lat="45.71601" lon="5.71095">
        <ele>227</ele>
        <time>2022-04-16T07:50:53.949Z</time>
      </trkpt>
      <trkpt lat="45.71602" lon="5.71089">
        <ele>227</ele>
        <time>2022-04-16T07:50:54.949Z</time>
      </trkpt>
      <trkpt lat="45.71602" lon="5.71084">
        <ele>227</ele>
        <time>2022-04-16T07:50:55.949Z</time>
      </trkpt>
      <trkpt lat="45.71602" lon="5.71079">
        <ele>227</ele>
        <time>2022-04-16T07:50:56.949Z</time>
      </trkpt>
      <trkpt lat="45.71602" lon="5.71073">
        <ele>227</ele>
        <time>2022-04-16T07:50:57.949Z</time>
      </trkpt>
      <trkpt lat="45.71602" lon="5.71067">
        <ele>227</ele>
        <time>2022-04-16T07:50:58.949Z</time>
      </trkpt>
      <trkpt lat="45.71601" lon="5.71062">
        <ele>227</ele>
        <time>2022-04-16T07:50:59.950Z</time>
      </trkpt>
      <trkpt lat="45.71601" lon="5.71057">
        <ele>227</ele>
        <time>2022-04-16T07:51:00.950Z</time>
      </trkpt>
      <trkpt lat="45.71601" lon="5.71052">
        <ele>227</ele>
        <time>2022-04-16T07:51:01.950Z</time>
      </trkpt>
      <trkpt lat="45.716" lon="5.71049">
        <ele>227</ele>
        <time>2022-04-16T07:51:02.950Z</time>
      </trkpt>
      <trkpt lat="45.716" lon="5.71047">
        <ele>227</ele>
        <time>2022-04-16T07:51:03.950Z</time>
      </trkpt>
      <trkpt lat="45.716" lon="5.71047">
        <ele>227</ele>
        <time>2022-04-16T07:51:04.950Z</time>
      </trkpt>
      <trkpt lat="45.716" lon="5.71047">
        <ele>227</ele>
        <time>2022-04-16T07:51:05.949Z</time>
      </trkpt>
      <trkpt lat="45.716" lon="5.71047">
        <ele>227</ele>
        <time>2022-04-16T07:51:06.949Z</time>
      </trkpt>
      <trkpt lat="45.716" lon="5.71048">
        <ele>227</ele>
        <time>2022-04-16T07:51:07.949Z</time>
      </trkpt>
      <trkpt lat="45.716" lon="5.71048">
        <ele>227</ele>
        <time>2022-04-16T07:51:08.949Z</time>
      </trkpt>
      <trkpt lat="45.716" lon="5.71048">
        <ele>227</ele>
        <time>2022-04-16T07:51:09.949Z</time>
      </trkpt>
      <trkpt lat="45.71599" lon="5.71039">
        <ele>229</ele>
        <time>2022-04-16T07:51:33.035Z</time>
      </trkpt>
      <trkpt lat="45.71599" lon="5.71034">
        <ele>229</ele>
        <time>2022-04-16T07:51:34.034Z</time>
      </trkpt>
      <trkpt lat="45.71599" lon="5.7103">
        <ele>229</ele>
        <time>2022-04-16T07:51:35.034Z</time>
      </trkpt>
      <trkpt lat="45.71599" lon="5.71025">
        <ele>229</ele>
        <time>2022-04-16T07:51:36.034Z</time>
      </trkpt>
      <trkpt lat="45.71599" lon="5.7102">
        <ele>229</ele>
        <time>2022-04-16T07:51:37.034Z</time>
      </trkpt>
      <trkpt lat="45.716" lon="5.71014">
        <ele>229</ele>
        <time>2022-04-16T07:51:38.035Z</time>
      </trkpt>
      <trkpt lat="45.716" lon="5.71009">
        <ele>229</ele>
        <time>2022-04-16T07:51:39.034Z</time>
      </trkpt>
      <trkpt lat="45.716" lon="5.71003">
        <ele>228</ele>
        <time>2022-04-16T07:51:40.035Z</time>
      </trkpt>
      <trkpt lat="45.71601" lon="5.70998">
        <ele>228</ele>
        <time>2022-04-16T07:51:41.034Z</time>
      </trkpt>
      <trkpt lat="45.71601" lon="5.70992">
        <ele>227</ele>
        <time>2022-04-16T07:51:42.034Z</time>
      </trkpt>
      <trkpt lat="45.71602" lon="5.70986">
        <ele>227</ele>
        <time>2022-04-16T07:51:43.034Z</time>
      </trkpt>
      <trkpt lat="45.71603" lon="5.7098">
        <ele>227</ele>
        <time>2022-04-16T07:51:44.034Z</time>
      </trkpt>
      <trkpt lat="45.71603" lon="5.70974">
        <ele>227</ele>
        <time>2022-04-16T07:51:45.034Z</time>
      </trkpt>
      <trkpt lat="45.71604" lon="5.70968">
        <ele>227</ele>
        <time>2022-04-16T07:51:46.034Z</time>
      </trkpt>
      <trkpt lat="45.71604" lon="5.70962">
        <ele>227</ele>
        <time>2022-04-16T07:51:47.034Z</time>
      </trkpt>
      <trkpt lat="45.71605" lon="5.70956">
        <ele>227</ele>
        <time>2022-04-16T07:51:48.034Z</time>
      </trkpt>
      <trkpt lat="45.71606" lon="5.7095">
        <ele>228</ele>
        <time>2022-04-16T07:51:49.034Z</time>
      </trkpt>
      <trkpt lat="45.71607" lon="5.70945">
        <ele>228</ele>
        <time>2022-04-16T07:51:50.035Z</time>
      </trkpt>
      <trkpt lat="45.71607" lon="5.70939">
        <ele>228</ele>
        <time>2022-04-16T07:51:51.034Z</time>
      </trkpt>
      <trkpt lat="45.71608" lon="5.70934">
        <ele>228</ele>
        <time>2022-04-16T07:51:52.034Z</time>
      </trkpt>
      <trkpt lat="45.71608" lon="5.70929">
        <ele>228</ele>
        <time>2022-04-16T07:51:53.035Z</time>
      </trkpt>
      <trkpt lat="45.71609" lon="5.70924">
        <ele>228</ele>
        <time>2022-04-16T07:51:54.035Z</time>
      </trkpt>
      <trkpt lat="45.71609" lon="5.70919">
        <ele>228</ele>
        <time>2022-04-16T07:51:55.034Z</time>
      </trkpt>
      <trkpt lat="45.71609" lon="5.70919">
        <ele>228</ele>
        <time>2022-04-16T07:51:56.034Z</time>
      </trkpt>
      <trkpt lat="45.71608" lon="5.70908">
        <ele>228</ele>
        <time>2022-04-16T07:51:57.034Z</time>
      </trkpt>
      <trkpt lat="45.71607" lon="5.70902">
        <ele>227</ele>
        <time>2022-04-16T07:51:58.035Z</time>
      </trkpt>
      <trkpt lat="45.71606" lon="5.70896">
        <ele>227</ele>
        <time>2022-04-16T07:51:59.035Z</time>
      </trkpt>
      <trkpt lat="45.71605" lon="5.7089">
        <ele>227</ele>
        <time>2022-04-16T07:52:00.034Z</time>
      </trkpt>
      <trkpt lat="45.71603" lon="5.70884">
        <ele>227</ele>
        <time>2022-04-16T07:52:01.035Z</time>
      </trkpt>
      <trkpt lat="45.71602" lon="5.70879">
        <ele>227</ele>
        <time>2022-04-16T07:52:02.034Z</time>
      </trkpt>
      <trkpt lat="45.716" lon="5.70873">
        <ele>227</ele>
        <time>2022-04-16T07:52:03.034Z</time>
      </trkpt>
      <trkpt lat="45.71598" lon="5.70867">
        <ele>227</ele>
        <time>2022-04-16T07:52:04.034Z</time>
      </trkpt>
      <trkpt lat="45.71596" lon="5.70861">
        <ele>227</ele>
        <time>2022-04-16T07:52:05.034Z</time>
      </trkpt>
      <trkpt lat="45.71594" lon="5.70855">
        <ele>228</ele>
        <time>2022-04-16T07:52:06.034Z</time>
      </trkpt>
      <trkpt lat="45.71592" lon="5.70849">
        <ele>228</ele>
        <time>2022-04-16T07:52:07.035Z</time>
      </trkpt>
      <trkpt lat="45.7159" lon="5.70843">
        <ele>228</ele>
        <time>2022-04-16T07:52:08.034Z</time>
      </trkpt>
      <trkpt lat="45.71588" lon="5.70836">
        <ele>228</ele>
        <time>2022-04-16T07:52:09.034Z</time>
      </trkpt>
      <trkpt lat="45.71585" lon="5.70829">
        <ele>228</ele>
        <time>2022-04-16T07:52:10.035Z</time>
      </trkpt>
      <trkpt lat="45.71583" lon="5.70823">
        <ele>228</ele>
        <time>2022-04-16T07:52:11.035Z</time>
      </trkpt>
      <trkpt lat="45.7158" lon="5.70816">
        <ele>228</ele>
        <time>2022-04-16T07:52:12.035Z</time>
      </trkpt>
      <trkpt lat="45.71578" lon="5.7081">
        <ele>228</ele>
        <time>2022-04-16T07:52:13.034Z</time>
      </trkpt>
      <trkpt lat="45.71576" lon="5.70803">
        <ele>228</ele>
        <time>2022-04-16T07:52:14.034Z</time>
      </trkpt>
      <trkpt lat="45.71573" lon="5.70796">
        <ele>228</ele>
        <time>2022-04-16T07:52:15.034Z</time>
      </trkpt>
      <trkpt lat="45.71571" lon="5.7079">
        <ele>228</ele>
        <time>2022-04-16T07:52:16.034Z</time>
      </trkpt>
      <trkpt lat="45.71568" lon="5.70784">
        <ele>227</ele>
        <time>2022-04-16T07:52:17.035Z</time>
      </trkpt>
      <trkpt lat="45.71565" lon="5.70777">
        <ele>227</ele>
        <time>2022-04-16T07:52:18.034Z</time>
      </trkpt>
      <trkpt lat="45.71563" lon="5.7077">
        <ele>227</ele>
        <time>2022-04-16T07:52:19.034Z</time>
      </trkpt>
      <trkpt lat="45.71561" lon="5.70763">
        <ele>227</ele>
        <time>2022-04-16T07:52:20.034Z</time>
      </trkpt>
      <trkpt lat="45.71558" lon="5.70757">
        <ele>226</ele>
        <time>2022-04-16T07:52:21.034Z</time>
      </trkpt>
      <trkpt lat="45.71556" lon="5.7075">
        <ele>226</ele>
        <time>2022-04-16T07:52:22.035Z</time>
      </trkpt>
      <trkpt lat="45.71553" lon="5.70743">
        <ele>226</ele>
        <time>2022-04-16T07:52:23.035Z</time>
      </trkpt>
      <trkpt lat="45.71551" lon="5.70736">
        <ele>226</ele>
        <time>2022-04-16T07:52:24.034Z</time>
      </trkpt>
      <trkpt lat="45.71548" lon="5.7073">
        <ele>226</ele>
        <time>2022-04-16T07:52:25.034Z</time>
      </trkpt>
      <trkpt lat="45.71546" lon="5.70723">
        <ele>226</ele>
        <time>2022-04-16T07:52:26.035Z</time>
      </trkpt>
      <trkpt lat="45.71543" lon="5.70716">
        <ele>226</ele>
        <time>2022-04-16T07:52:27.034Z</time>
      </trkpt>
      <trkpt lat="45.71541" lon="5.70709">
        <ele>226</ele>
        <time>2022-04-16T07:52:28.035Z</time>
      </trkpt>
      <trkpt lat="45.71538" lon="5.70703">
        <ele>226</ele>
        <time>2022-04-16T07:52:29.034Z</time>
      </trkpt>
      <trkpt lat="45.71535" lon="5.70696">
        <ele>227</ele>
        <time>2022-04-16T07:52:30.034Z</time>
      </trkpt>
      <trkpt lat="45.71533" lon="5.70689">
        <ele>227</ele>
        <time>2022-04-16T07:52:31.035Z</time>
      </trkpt>
      <trkpt lat="45.7153" lon="5.70682">
        <ele>228</ele>
        <time>2022-04-16T07:52:32.034Z</time>
      </trkpt>
      <trkpt lat="45.71528" lon="5.70675">
        <ele>228</ele>
        <time>2022-04-16T07:52:33.035Z</time>
      </trkpt>
      <trkpt lat="45.71525" lon="5.70668">
        <ele>228</ele>
        <time>2022-04-16T07:52:34.035Z</time>
      </trkpt>
      <trkpt lat="45.71522" lon="5.70661">
        <ele>228</ele>
        <time>2022-04-16T07:52:35.035Z</time>
      </trkpt>
      <trkpt lat="45.7152" lon="5.70654">
        <ele>228</ele>
        <time>2022-04-16T07:52:36.034Z</time>
      </trkpt>
      <trkpt lat="45.71517" lon="5.70648">
        <ele>228</ele>
        <time>2022-04-16T07:52:37.034Z</time>
      </trkpt>
      <trkpt lat="45.71515" lon="5.70641">
        <ele>228</ele>
        <time>2022-04-16T07:52:38.034Z</time>
      </trkpt>
      <trkpt lat="45.71512" lon="5.70634">
        <ele>228</ele>
        <time>2022-04-16T07:52:39.035Z</time>
      </trkpt>
      <trkpt lat="45.7151" lon="5.70627">
        <ele>227</ele>
        <time>2022-04-16T07:52:40.034Z</time>
      </trkpt>
      <trkpt lat="45.71508" lon="5.7062">
        <ele>227</ele>
        <time>2022-04-16T07:52:41.034Z</time>
      </trkpt>
      <trkpt lat="45.71507" lon="5.70612">
        <ele>227</ele>
        <time>2022-04-16T07:52:42.035Z</time>
      </trkpt>
      <trkpt lat="45.71505" lon="5.70605">
        <ele>227</ele>
        <time>2022-04-16T07:52:43.035Z</time>
      </trkpt>
      <trkpt lat="45.71504" lon="5.70597">
        <ele>227</ele>
        <time>2022-04-16T07:52:44.034Z</time>
      </trkpt>
      <trkpt lat="45.71504" lon="5.7059">
        <ele>226</ele>
        <time>2022-04-16T07:52:45.035Z</time>
      </trkpt>
      <trkpt lat="45.71503" lon="5.70582">
        <ele>226</ele>
        <time>2022-04-16T07:52:46.035Z</time>
      </trkpt>
      <trkpt lat="45.71503" lon="5.70575">
        <ele>226</ele>
        <time>2022-04-16T07:52:47.034Z</time>
      </trkpt>
      <trkpt lat="45.71502" lon="5.70567">
        <ele>226</ele>
        <time>2022-04-16T07:52:48.034Z</time>
      </trkpt>
      <trkpt lat="45.71502" lon="5.7056">
        <ele>226</ele>
        <time>2022-04-16T07:52:49.034Z</time>
      </trkpt>
      <trkpt lat="45.71502" lon="5.70553">
        <ele>226</ele>
        <time>2022-04-16T07:52:50.034Z</time>
      </trkpt>
      <trkpt lat="45.71502" lon="5.70547">
        <ele>226</ele>
        <time>2022-04-16T07:52:51.034Z</time>
      </trkpt>
      <trkpt lat="45.71501" lon="5.70538">
        <ele>226</ele>
        <time>2022-04-16T07:52:52.035Z</time>
      </trkpt>
      <trkpt lat="45.71501" lon="5.70531">
        <ele>226</ele>
        <time>2022-04-16T07:52:53.034Z</time>
      </trkpt>
      <trkpt lat="45.715" lon="5.70523">
        <ele>226</ele>
        <time>2022-04-16T07:52:54.034Z</time>
      </trkpt>
      <trkpt lat="45.715" lon="5.70516">
        <ele>227</ele>
        <time>2022-04-16T07:52:55.035Z</time>
      </trkpt>
      <trkpt lat="45.71499" lon="5.70509">
        <ele>227</ele>
        <time>2022-04-16T07:52:56.034Z</time>
      </trkpt>
      <trkpt lat="45.71499" lon="5.70501">
        <ele>227</ele>
        <time>2022-04-16T07:52:57.035Z</time>
      </trkpt>
      <trkpt lat="45.71499" lon="5.70494">
        <ele>228</ele>
        <time>2022-04-16T07:52:58.034Z</time>
      </trkpt>
      <trkpt lat="45.71499" lon="5.70486">
        <ele>227</ele>
        <time>2022-04-16T07:52:59.034Z</time>
      </trkpt>
      <trkpt lat="45.71499" lon="5.70479">
        <ele>227</ele>
        <time>2022-04-16T07:53:00.035Z</time>
      </trkpt>
      <trkpt lat="45.71499" lon="5.70471">
        <ele>227</ele>
        <time>2022-04-16T07:53:01.035Z</time>
      </trkpt>
      <trkpt lat="45.71498" lon="5.70464">
        <ele>227</ele>
        <time>2022-04-16T07:53:02.034Z</time>
      </trkpt>
      <trkpt lat="45.71498" lon="5.70456">
        <ele>228</ele>
        <time>2022-04-16T07:53:03.034Z</time>
      </trkpt>
      <trkpt lat="45.71498" lon="5.70448">
        <ele>228</ele>
        <time>2022-04-16T07:53:04.035Z</time>
      </trkpt>
      <trkpt lat="45.71498" lon="5.70441">
        <ele>229</ele>
        <time>2022-04-16T07:53:05.035Z</time>
      </trkpt>
      <trkpt lat="45.71498" lon="5.70433">
        <ele>229</ele>
        <time>2022-04-16T07:53:06.034Z</time>
      </trkpt>
      <trkpt lat="45.71498" lon="5.70425">
        <ele>229</ele>
        <time>2022-04-16T07:53:07.034Z</time>
      </trkpt>
      <trkpt lat="45.71498" lon="5.70417">
        <ele>229</ele>
        <time>2022-04-16T07:53:08.035Z</time>
      </trkpt>
      <trkpt lat="45.71498" lon="5.70409">
        <ele>228</ele>
        <time>2022-04-16T07:53:09.035Z</time>
      </trkpt>
      <trkpt lat="45.71498" lon="5.70401">
        <ele>228</ele>
        <time>2022-04-16T07:53:10.034Z</time>
      </trkpt>
      <trkpt lat="45.71498" lon="5.70393">
        <ele>228</ele>
        <time>2022-04-16T07:53:11.034Z</time>
      </trkpt>
      <trkpt lat="45.71498" lon="5.70385">
        <ele>228</ele>
        <time>2022-04-16T07:53:12.035Z</time>
      </trkpt>
      <trkpt lat="45.71497" lon="5.70377">
        <ele>228</ele>
        <time>2022-04-16T07:53:13.035Z</time>
      </trkpt>
      <trkpt lat="45.71497" lon="5.70369">
        <ele>227</ele>
        <time>2022-04-16T07:53:14.034Z</time>
      </trkpt>
      <trkpt lat="45.71497" lon="5.70361">
        <ele>227</ele>
        <time>2022-04-16T07:53:15.035Z</time>
      </trkpt>
      <trkpt lat="45.71497" lon="5.70353">
        <ele>227</ele>
        <time>2022-04-16T07:53:16.035Z</time>
      </trkpt>
      <trkpt lat="45.71497" lon="5.70345">
        <ele>227</ele>
        <time>2022-04-16T07:53:17.034Z</time>
      </trkpt>
      <trkpt lat="45.71496" lon="5.70337">
        <ele>227</ele>
        <time>2022-04-16T07:53:18.034Z</time>
      </trkpt>
      <trkpt lat="45.71496" lon="5.70329">
        <ele>227</ele>
        <time>2022-04-16T07:53:19.035Z</time>
      </trkpt>
      <trkpt lat="45.71496" lon="5.70322">
        <ele>226</ele>
        <time>2022-04-16T07:53:20.035Z</time>
      </trkpt>
      <trkpt lat="45.71495" lon="5.70314">
        <ele>226</ele>
        <time>2022-04-16T07:53:21.035Z</time>
      </trkpt>
      <trkpt lat="45.71495" lon="5.70306">
        <ele>226</ele>
        <time>2022-04-16T07:53:22.035Z</time>
      </trkpt>
      <trkpt lat="45.71495" lon="5.70298">
        <ele>226</ele>
        <time>2022-04-16T07:53:23.035Z</time>
      </trkpt>
      <trkpt lat="45.71494" lon="5.7029">
        <ele>226</ele>
        <time>2022-04-16T07:53:24.034Z</time>
      </trkpt>
      <trkpt lat="45.71494" lon="5.70282">
        <ele>226</ele>
        <time>2022-04-16T07:53:25.034Z</time>
      </trkpt>
      <trkpt lat="45.71493" lon="5.70274">
        <ele>226</ele>
        <time>2022-04-16T07:53:26.034Z</time>
      </trkpt>
      <trkpt lat="45.71491" lon="5.70266">
        <ele>226</ele>
        <time>2022-04-16T07:53:27.034Z</time>
      </trkpt>
      <trkpt lat="45.7149" lon="5.70259">
        <ele>226</ele>
        <time>2022-04-16T07:53:28.034Z</time>
      </trkpt>
      <trkpt lat="45.71487" lon="5.70253">
        <ele>226</ele>
        <time>2022-04-16T07:53:29.035Z</time>
      </trkpt>
      <trkpt lat="45.71483" lon="5.70247">
        <ele>226</ele>
        <time>2022-04-16T07:53:30.034Z</time>
      </trkpt>
      <trkpt lat="45.71479" lon="5.70242">
        <ele>226</ele>
        <time>2022-04-16T07:53:31.035Z</time>
      </trkpt>
      <trkpt lat="45.71476" lon="5.70236">
        <ele>226</ele>
        <time>2022-04-16T07:53:32.035Z</time>
      </trkpt>
      <trkpt lat="45.71473" lon="5.70229">
        <ele>226</ele>
        <time>2022-04-16T07:53:33.034Z</time>
      </trkpt>
      <trkpt lat="45.71471" lon="5.70222">
        <ele>226</ele>
        <time>2022-04-16T07:53:34.034Z</time>
      </trkpt>
      <trkpt lat="45.7147" lon="5.70215">
        <ele>226</ele>
        <time>2022-04-16T07:53:35.034Z</time>
      </trkpt>
      <trkpt lat="45.71469" lon="5.70207">
        <ele>227</ele>
        <time>2022-04-16T07:53:36.034Z</time>
      </trkpt>
      <trkpt lat="45.71469" lon="5.702">
        <ele>227</ele>
        <time>2022-04-16T07:53:37.034Z</time>
      </trkpt>
      <trkpt lat="45.71468" lon="5.70192">
        <ele>227</ele>
        <time>2022-04-16T07:53:38.035Z</time>
      </trkpt>
      <trkpt lat="45.71468" lon="5.70185">
        <ele>227</ele>
        <time>2022-04-16T07:53:39.034Z</time>
      </trkpt>
      <trkpt lat="45.71468" lon="5.70177">
        <ele>227</ele>
        <time>2022-04-16T07:53:40.034Z</time>
      </trkpt>
      <trkpt lat="45.71467" lon="5.7017">
        <ele>227</ele>
        <time>2022-04-16T07:53:41.034Z</time>
      </trkpt>
      <trkpt lat="45.71467" lon="5.70162">
        <ele>228</ele>
        <time>2022-04-16T07:53:42.035Z</time>
      </trkpt>
      <trkpt lat="45.71467" lon="5.70155">
        <ele>228</ele>
        <time>2022-04-16T07:53:43.034Z</time>
      </trkpt>
      <trkpt lat="45.71467" lon="5.70148">
        <ele>228</ele>
        <time>2022-04-16T07:53:44.035Z</time>
      </trkpt>
      <trkpt lat="45.71466" lon="5.70141">
        <ele>228</ele>
        <time>2022-04-16T07:53:45.034Z</time>
      </trkpt>
      <trkpt lat="45.71466" lon="5.70133">
        <ele>228</ele>
        <time>2022-04-16T07:53:46.034Z</time>
      </trkpt>
      <trkpt lat="45.71466" lon="5.70126">
        <ele>228</ele>
        <time>2022-04-16T07:53:47.034Z</time>
      </trkpt>
      <trkpt lat="45.71465" lon="5.70119">
        <ele>228</ele>
        <time>2022-04-16T07:53:48.034Z</time>
      </trkpt>
      <trkpt lat="45.71465" lon="5.70112">
        <ele>228</ele>
        <time>2022-04-16T07:53:49.034Z</time>
      </trkpt>
      <trkpt lat="45.71464" lon="5.70106">
        <ele>228</ele>
        <time>2022-04-16T07:53:50.035Z</time>
      </trkpt>
      <trkpt lat="45.71464" lon="5.701">
        <ele>228</ele>
        <time>2022-04-16T07:53:51.034Z</time>
      </trkpt>
      <trkpt lat="45.71463" lon="5.70095">
        <ele>228</ele>
        <time>2022-04-16T07:53:52.035Z</time>
      </trkpt>
      <trkpt lat="45.71461" lon="5.7009">
        <ele>228</ele>
        <time>2022-04-16T07:53:53.034Z</time>
      </trkpt>
      <trkpt lat="45.71459" lon="5.70087">
        <ele>228</ele>
        <time>2022-04-16T07:53:54.035Z</time>
      </trkpt>
      <trkpt lat="45.71458" lon="5.70084">
        <ele>227</ele>
        <time>2022-04-16T07:53:55.035Z</time>
      </trkpt>
      <trkpt lat="45.71456" lon="5.70081">
        <ele>227</ele>
        <time>2022-04-16T07:53:56.035Z</time>
      </trkpt>
      <trkpt lat="45.71456" lon="5.7008">
        <ele>228</ele>
        <time>2022-04-16T07:53:57.034Z</time>
      </trkpt>
      <trkpt lat="45.71455" lon="5.70079">
        <ele>228</ele>
        <time>2022-04-16T07:53:58.035Z</time>
      </trkpt>
      <trkpt lat="45.71455" lon="5.70079">
        <ele>228</ele>
        <time>2022-04-16T07:53:59.035Z</time>
      </trkpt>
      <trkpt lat="45.71455" lon="5.7008">
        <ele>227</ele>
        <time>2022-04-16T07:54:00.035Z</time>
      </trkpt>
      <trkpt lat="45.71455" lon="5.7008">
        <ele>227</ele>
        <time>2022-04-16T07:54:01.035Z</time>
      </trkpt>
      <trkpt lat="45.71452" lon="5.70084">
        <ele>222</ele>
        <time>2022-04-16T07:56:09.176Z</time>
      </trkpt>
      <trkpt lat="45.71449" lon="5.70083">
        <ele>223</ele>
        <time>2022-04-16T07:56:10.175Z</time>
      </trkpt>
      <trkpt lat="45.71445" lon="5.70082">
        <ele>223</ele>
        <time>2022-04-16T07:56:11.175Z</time>
      </trkpt>
      <trkpt lat="45.71441" lon="5.70082">
        <ele>223</ele>
        <time>2022-04-16T07:56:12.176Z</time>
      </trkpt>
      <trkpt lat="45.71437" lon="5.70082">
        <ele>223</ele>
        <time>2022-04-16T07:56:13.175Z</time>
      </trkpt>
      <trkpt lat="45.71432" lon="5.70082">
        <ele>224</ele>
        <time>2022-04-16T07:56:14.175Z</time>
      </trkpt>
      <trkpt lat="45.71427" lon="5.70082">
        <ele>224</ele>
        <time>2022-04-16T07:56:15.176Z</time>
      </trkpt>
      <trkpt lat="45.71423" lon="5.70082">
        <ele>224</ele>
        <time>2022-04-16T07:56:16.175Z</time>
      </trkpt>
      <trkpt lat="45.71419" lon="5.70083">
        <ele>225</ele>
        <time>2022-04-16T07:56:17.176Z</time>
      </trkpt>
      <trkpt lat="45.71413" lon="5.70083">
        <ele>225</ele>
        <time>2022-04-16T07:56:18.175Z</time>
      </trkpt>
      <trkpt lat="45.71408" lon="5.70083">
        <ele>225</ele>
        <time>2022-04-16T07:56:19.176Z</time>
      </trkpt>
      <trkpt lat="45.71404" lon="5.70083">
        <ele>225</ele>
        <time>2022-04-16T07:56:20.175Z</time>
      </trkpt>
      <trkpt lat="45.714" lon="5.70083">
        <ele>225</ele>
        <time>2022-04-16T07:56:21.176Z</time>
      </trkpt>
      <trkpt lat="45.71395" lon="5.70083">
        <ele>225</ele>
        <time>2022-04-16T07:56:22.176Z</time>
      </trkpt>
      <trkpt lat="45.7139" lon="5.70083">
        <ele>225</ele>
        <time>2022-04-16T07:56:23.176Z</time>
      </trkpt>
      <trkpt lat="45.71386" lon="5.70083">
        <ele>224</ele>
        <time>2022-04-16T07:56:24.175Z</time>
      </trkpt>
      <trkpt lat="45.71381" lon="5.70084">
        <ele>224</ele>
        <time>2022-04-16T07:56:25.176Z</time>
      </trkpt>
      <trkpt lat="45.71376" lon="5.70084">
        <ele>224</ele>
        <time>2022-04-16T07:56:26.176Z</time>
      </trkpt>
      <trkpt lat="45.71371" lon="5.70084">
        <ele>224</ele>
        <time>2022-04-16T07:56:27.175Z</time>
      </trkpt>
      <trkpt lat="45.71366" lon="5.70084">
        <ele>225</ele>
        <time>2022-04-16T07:56:28.176Z</time>
      </trkpt>
      <trkpt lat="45.71361" lon="5.70085">
        <ele>225</ele>
        <time>2022-04-16T07:56:29.175Z</time>
      </trkpt>
      <trkpt lat="45.71356" lon="5.70085">
        <ele>225</ele>
        <time>2022-04-16T07:56:30.176Z</time>
      </trkpt>
      <trkpt lat="45.7135" lon="5.70085">
        <ele>226</ele>
        <time>2022-04-16T07:56:31.176Z</time>
      </trkpt>
      <trkpt lat="45.71346" lon="5.70086">
        <ele>226</ele>
        <time>2022-04-16T07:56:32.175Z</time>
      </trkpt>
      <trkpt lat="45.7134" lon="5.70086">
        <ele>226</ele>
        <time>2022-04-16T07:56:33.176Z</time>
      </trkpt>
      <trkpt lat="45.71335" lon="5.70086">
        <ele>226</ele>
        <time>2022-04-16T07:56:34.176Z</time>
      </trkpt>
      <trkpt lat="45.71329" lon="5.70086">
        <ele>226</ele>
        <time>2022-04-16T07:56:35.175Z</time>
      </trkpt>
      <trkpt lat="45.71324" lon="5.70086">
        <ele>226</ele>
        <time>2022-04-16T07:56:36.176Z</time>
      </trkpt>
      <trkpt lat="45.71318" lon="5.70086">
        <ele>226</ele>
        <time>2022-04-16T07:56:37.176Z</time>
      </trkpt>
      <trkpt lat="45.71312" lon="5.70087">
        <ele>226</ele>
        <time>2022-04-16T07:56:38.175Z</time>
      </trkpt>
      <trkpt lat="45.71307" lon="5.70087">
        <ele>226</ele>
        <time>2022-04-16T07:56:39.176Z</time>
      </trkpt>
      <trkpt lat="45.71301" lon="5.70087">
        <ele>226</ele>
        <time>2022-04-16T07:56:40.176Z</time>
      </trkpt>
      <trkpt lat="45.71295" lon="5.70088">
        <ele>226</ele>
        <time>2022-04-16T07:56:41.175Z</time>
      </trkpt>
      <trkpt lat="45.7129" lon="5.70088">
        <ele>226</ele>
        <time>2022-04-16T07:56:42.175Z</time>
      </trkpt>
      <trkpt lat="45.71284" lon="5.70088">
        <ele>227</ele>
        <time>2022-04-16T07:56:43.176Z</time>
      </trkpt>
      <trkpt lat="45.71278" lon="5.70088">
        <ele>226</ele>
        <time>2022-04-16T07:56:44.176Z</time>
      </trkpt>
      <trkpt lat="45.71273" lon="5.70088">
        <ele>226</ele>
        <time>2022-04-16T07:56:45.176Z</time>
      </trkpt>
      <trkpt lat="45.71267" lon="5.70088">
        <ele>225</ele>
        <time>2022-04-16T07:56:46.176Z</time>
      </trkpt>
      <trkpt lat="45.71262" lon="5.70088">
        <ele>225</ele>
        <time>2022-04-16T07:56:47.176Z</time>
      </trkpt>
      <trkpt lat="45.71257" lon="5.70088">
        <ele>225</ele>
        <time>2022-04-16T07:56:48.176Z</time>
      </trkpt>
      <trkpt lat="45.71251" lon="5.70088">
        <ele>225</ele>
        <time>2022-04-16T07:56:49.176Z</time>
      </trkpt>
      <trkpt lat="45.71246" lon="5.70087">
        <ele>226</ele>
        <time>2022-04-16T07:56:50.176Z</time>
      </trkpt>
      <trkpt lat="45.7124" lon="5.70087">
        <ele>226</ele>
        <time>2022-04-16T07:56:51.176Z</time>
      </trkpt>
      <trkpt lat="45.71234" lon="5.70087">
        <ele>226</ele>
        <time>2022-04-16T07:56:52.176Z</time>
      </trkpt>
      <trkpt lat="45.71229" lon="5.70087">
        <ele>226</ele>
        <time>2022-04-16T07:56:53.176Z</time>
      </trkpt>
      <trkpt lat="45.71224" lon="5.70087">
        <ele>226</ele>
        <time>2022-04-16T07:56:54.176Z</time>
      </trkpt>
      <trkpt lat="45.71218" lon="5.70087">
        <ele>225</ele>
        <time>2022-04-16T07:56:55.176Z</time>
      </trkpt>
      <trkpt lat="45.71213" lon="5.70087">
        <ele>225</ele>
        <time>2022-04-16T07:56:56.176Z</time>
      </trkpt>
      <trkpt lat="45.71207" lon="5.70087">
        <ele>225</ele>
        <time>2022-04-16T07:56:57.176Z</time>
      </trkpt>
      <trkpt lat="45.71201" lon="5.70087">
        <ele>226</ele>
        <time>2022-04-16T07:56:58.176Z</time>
      </trkpt>
      <trkpt lat="45.71196" lon="5.70088">
        <ele>225</ele>
        <time>2022-04-16T07:56:59.176Z</time>
      </trkpt>
      <trkpt lat="45.7119" lon="5.70088">
        <ele>226</ele>
        <time>2022-04-16T07:57:00.176Z</time>
      </trkpt>
      <trkpt lat="45.71184" lon="5.70088">
        <ele>226</ele>
        <time>2022-04-16T07:57:01.176Z</time>
      </trkpt>
      <trkpt lat="45.71179" lon="5.70089">
        <ele>226</ele>
        <time>2022-04-16T07:57:02.176Z</time>
      </trkpt>
      <trkpt lat="45.71173" lon="5.70089">
        <ele>226</ele>
        <time>2022-04-16T07:57:03.175Z</time>
      </trkpt>
      <trkpt lat="45.71168" lon="5.70089">
        <ele>226</ele>
        <time>2022-04-16T07:57:04.175Z</time>
      </trkpt>
      <trkpt lat="45.71164" lon="5.7009">
        <ele>226</ele>
        <time>2022-04-16T07:57:05.176Z</time>
      </trkpt>
      <trkpt lat="45.71159" lon="5.7009">
        <ele>225</ele>
        <time>2022-04-16T07:57:06.176Z</time>
      </trkpt>
      <trkpt lat="45.71155" lon="5.70089">
        <ele>225</ele>
        <time>2022-04-16T07:57:07.176Z</time>
      </trkpt>
      <trkpt lat="45.7115" lon="5.70089">
        <ele>225</ele>
        <time>2022-04-16T07:57:08.176Z</time>
      </trkpt>
      <trkpt lat="45.71145" lon="5.70089">
        <ele>225</ele>
        <time>2022-04-16T07:57:09.176Z</time>
      </trkpt>
      <trkpt lat="45.7114" lon="5.70089">
        <ele>225</ele>
        <time>2022-04-16T07:57:10.175Z</time>
      </trkpt>
      <trkpt lat="45.71135" lon="5.70089">
        <ele>226</ele>
        <time>2022-04-16T07:57:11.176Z</time>
      </trkpt>
      <trkpt lat="45.7113" lon="5.7009">
        <ele>227</ele>
        <time>2022-04-16T07:57:12.176Z</time>
      </trkpt>
      <trkpt lat="45.71125" lon="5.7009">
        <ele>227</ele>
        <time>2022-04-16T07:57:13.176Z</time>
      </trkpt>
      <trkpt lat="45.7112" lon="5.7009">
        <ele>227</ele>
        <time>2022-04-16T07:57:14.176Z</time>
      </trkpt>
      <trkpt lat="45.71115" lon="5.70091">
        <ele>228</ele>
        <time>2022-04-16T07:57:15.175Z</time>
      </trkpt>
      <trkpt lat="45.71111" lon="5.70093">
        <ele>227</ele>
        <time>2022-04-16T07:57:16.175Z</time>
      </trkpt>
      <trkpt lat="45.71108" lon="5.70097">
        <ele>227</ele>
        <time>2022-04-16T07:57:17.176Z</time>
      </trkpt>
      <trkpt lat="45.71106" lon="5.70103">
        <ele>227</ele>
        <time>2022-04-16T07:57:18.175Z</time>
      </trkpt>
      <trkpt lat="45.71105" lon="5.70109">
        <ele>227</ele>
        <time>2022-04-16T07:57:19.176Z</time>
      </trkpt>
      <trkpt lat="45.71105" lon="5.70115">
        <ele>227</ele>
        <time>2022-04-16T07:57:20.176Z</time>
      </trkpt>
      <trkpt lat="45.71107" lon="5.70121">
        <ele>227</ele>
        <time>2022-04-16T07:57:21.175Z</time>
      </trkpt>
      <trkpt lat="45.71109" lon="5.70128">
        <ele>227</ele>
        <time>2022-04-16T07:57:22.176Z</time>
      </trkpt>
      <trkpt lat="45.71111" lon="5.70134">
        <ele>227</ele>
        <time>2022-04-16T07:57:23.176Z</time>
      </trkpt>
      <trkpt lat="45.71114" lon="5.7014">
        <ele>227</ele>
        <time>2022-04-16T07:57:24.176Z</time>
      </trkpt>
      <trkpt lat="45.71116" lon="5.70147">
        <ele>227</ele>
        <time>2022-04-16T07:57:25.175Z</time>
      </trkpt>
      <trkpt lat="45.7112" lon="5.70154">
        <ele>226</ele>
        <time>2022-04-16T07:57:26.176Z</time>
      </trkpt>
      <trkpt lat="45.71122" lon="5.70162">
        <ele>226</ele>
        <time>2022-04-16T07:57:27.176Z</time>
      </trkpt>
      <trkpt lat="45.71125" lon="5.70168">
        <ele>226</ele>
        <time>2022-04-16T07:57:28.176Z</time>
      </trkpt>
      <trkpt lat="45.71128" lon="5.70175">
        <ele>225</ele>
        <time>2022-04-16T07:57:29.176Z</time>
      </trkpt>
      <trkpt lat="45.7113" lon="5.70182">
        <ele>225</ele>
        <time>2022-04-16T07:57:30.176Z</time>
      </trkpt>
      <trkpt lat="45.71133" lon="5.70189">
        <ele>225</ele>
        <time>2022-04-16T07:57:31.176Z</time>
      </trkpt>
      <trkpt lat="45.71135" lon="5.70197">
        <ele>225</ele>
        <time>2022-04-16T07:57:32.176Z</time>
      </trkpt>
      <trkpt lat="45.71137" lon="5.70204">
        <ele>225</ele>
        <time>2022-04-16T07:57:33.176Z</time>
      </trkpt>
      <trkpt lat="45.71139" lon="5.70212">
        <ele>225</ele>
        <time>2022-04-16T07:57:34.176Z</time>
      </trkpt>
      <trkpt lat="45.7114" lon="5.70219">
        <ele>224</ele>
        <time>2022-04-16T07:57:35.175Z</time>
      </trkpt>
      <trkpt lat="45.71142" lon="5.70226">
        <ele>224</ele>
        <time>2022-04-16T07:57:36.176Z</time>
      </trkpt>
      <trkpt lat="45.71143" lon="5.70233">
        <ele>224</ele>
        <time>2022-04-16T07:57:37.176Z</time>
      </trkpt>
      <trkpt lat="45.71144" lon="5.7024">
        <ele>224</ele>
        <time>2022-04-16T07:57:38.176Z</time>
      </trkpt>
      <trkpt lat="45.71145" lon="5.70247">
        <ele>224</ele>
        <time>2022-04-16T07:57:39.176Z</time>
      </trkpt>
      <trkpt lat="45.71147" lon="5.70254">
        <ele>224</ele>
        <time>2022-04-16T07:57:40.176Z</time>
      </trkpt>
      <trkpt lat="45.71148" lon="5.70261">
        <ele>223</ele>
        <time>2022-04-16T07:57:41.176Z</time>
      </trkpt>
      <trkpt lat="45.71149" lon="5.70268">
        <ele>223</ele>
        <time>2022-04-16T07:57:42.176Z</time>
      </trkpt>
      <trkpt lat="45.7115" lon="5.70276">
        <ele>223</ele>
        <time>2022-04-16T07:57:43.176Z</time>
      </trkpt>
      <trkpt lat="45.71151" lon="5.70283">
        <ele>223</ele>
        <time>2022-04-16T07:57:44.176Z</time>
      </trkpt>
      <trkpt lat="45.71151" lon="5.70291">
        <ele>223</ele>
        <time>2022-04-16T07:57:45.176Z</time>
      </trkpt>
      <trkpt lat="45.71152" lon="5.70299">
        <ele>223</ele>
        <time>2022-04-16T07:57:46.176Z</time>
      </trkpt>
      <trkpt lat="45.71152" lon="5.70306">
        <ele>223</ele>
        <time>2022-04-16T07:57:47.176Z</time>
      </trkpt>
      <trkpt lat="45.71153" lon="5.70314">
        <ele>223</ele>
        <time>2022-04-16T07:57:48.176Z</time>
      </trkpt>
      <trkpt lat="45.71154" lon="5.70322">
        <ele>223</ele>
        <time>2022-04-16T07:57:49.176Z</time>
      </trkpt>
      <trkpt lat="45.71155" lon="5.70329">
        <ele>223</ele>
        <time>2022-04-16T07:57:50.176Z</time>
      </trkpt>
      <trkpt lat="45.71155" lon="5.70337">
        <ele>223</ele>
        <time>2022-04-16T07:57:51.176Z</time>
      </trkpt>
      <trkpt lat="45.71156" lon="5.70345">
        <ele>223</ele>
        <time>2022-04-16T07:57:52.176Z</time>
      </trkpt>
      <trkpt lat="45.71156" lon="5.70352">
        <ele>223</ele>
        <time>2022-04-16T07:57:53.176Z</time>
      </trkpt>
      <trkpt lat="45.71157" lon="5.70359">
        <ele>223</ele>
        <time>2022-04-16T07:57:54.176Z</time>
      </trkpt>
      <trkpt lat="45.71157" lon="5.70365">
        <ele>224</ele>
        <time>2022-04-16T07:57:55.176Z</time>
      </trkpt>
      <trkpt lat="45.71159" lon="5.70374">
        <ele>224</ele>
        <time>2022-04-16T07:57:56.176Z</time>
      </trkpt>
      <trkpt lat="45.7116" lon="5.70381">
        <ele>224</ele>
        <time>2022-04-16T07:57:57.176Z</time>
      </trkpt>
      <trkpt lat="45.71162" lon="5.70388">
        <ele>225</ele>
        <time>2022-04-16T07:57:58.176Z</time>
      </trkpt>
      <trkpt lat="45.71165" lon="5.70395">
        <ele>225</ele>
        <time>2022-04-16T07:57:59.176Z</time>
      </trkpt>
      <trkpt lat="45.71167" lon="5.70401">
        <ele>226</ele>
        <time>2022-04-16T07:58:00.176Z</time>
      </trkpt>
      <trkpt lat="45.7117" lon="5.70408">
        <ele>226</ele>
        <time>2022-04-16T07:58:01.175Z</time>
      </trkpt>
      <trkpt lat="45.71173" lon="5.70414">
        <ele>226</ele>
        <time>2022-04-16T07:58:02.176Z</time>
      </trkpt>
      <trkpt lat="45.71176" lon="5.7042">
        <ele>226</ele>
        <time>2022-04-16T07:58:03.176Z</time>
      </trkpt>
      <trkpt lat="45.71178" lon="5.70424">
        <ele>226</ele>
        <time>2022-04-16T07:58:04.175Z</time>
      </trkpt>
      <trkpt lat="45.71182" lon="5.70431">
        <ele>227</ele>
        <time>2022-04-16T07:58:05.176Z</time>
      </trkpt>
      <trkpt lat="45.71185" lon="5.70437">
        <ele>226</ele>
        <time>2022-04-16T07:58:06.176Z</time>
      </trkpt>
      <trkpt lat="45.71187" lon="5.70442">
        <ele>226</ele>
        <time>2022-04-16T07:58:07.176Z</time>
      </trkpt>
      <trkpt lat="45.7119" lon="5.70447">
        <ele>226</ele>
        <time>2022-04-16T07:58:08.176Z</time>
      </trkpt>
      <trkpt lat="45.71193" lon="5.70452">
        <ele>226</ele>
        <time>2022-04-16T07:58:09.176Z</time>
      </trkpt>
      <trkpt lat="45.71196" lon="5.70458">
        <ele>226</ele>
        <time>2022-04-16T07:58:10.175Z</time>
      </trkpt>
      <trkpt lat="45.71199" lon="5.70463">
        <ele>226</ele>
        <time>2022-04-16T07:58:11.176Z</time>
      </trkpt>
      <trkpt lat="45.71202" lon="5.70469">
        <ele>226</ele>
        <time>2022-04-16T07:58:12.176Z</time>
      </trkpt>
      <trkpt lat="45.71204" lon="5.70475">
        <ele>226</ele>
        <time>2022-04-16T07:58:13.176Z</time>
      </trkpt>
      <trkpt lat="45.71204" lon="5.70482">
        <ele>226</ele>
        <time>2022-04-16T07:58:14.175Z</time>
      </trkpt>
      <trkpt lat="45.71203" lon="5.70488">
        <ele>226</ele>
        <time>2022-04-16T07:58:15.176Z</time>
      </trkpt>
      <trkpt lat="45.712" lon="5.70493">
        <ele>226</ele>
        <time>2022-04-16T07:58:16.176Z</time>
      </trkpt>
      <trkpt lat="45.71197" lon="5.70497">
        <ele>226</ele>
        <time>2022-04-16T07:58:17.175Z</time>
      </trkpt>
      <trkpt lat="45.71193" lon="5.70499">
        <ele>226</ele>
        <time>2022-04-16T07:58:18.176Z</time>
      </trkpt>
      <trkpt lat="45.71188" lon="5.70501">
        <ele>226</ele>
        <time>2022-04-16T07:58:19.175Z</time>
      </trkpt>
      <trkpt lat="45.71183" lon="5.70502">
        <ele>226</ele>
        <time>2022-04-16T07:58:20.176Z</time>
      </trkpt>
      <trkpt lat="45.71178" lon="5.70503">
        <ele>226</ele>
        <time>2022-04-16T07:58:21.176Z</time>
      </trkpt>
      <trkpt lat="45.71172" lon="5.70502">
        <ele>227</ele>
        <time>2022-04-16T07:58:22.176Z</time>
      </trkpt>
      <trkpt lat="45.71165" lon="5.70502">
        <ele>227</ele>
        <time>2022-04-16T07:58:23.176Z</time>
      </trkpt>
      <trkpt lat="45.7116" lon="5.70502">
        <ele>227</ele>
        <time>2022-04-16T07:58:24.176Z</time>
      </trkpt>
      <trkpt lat="45.71156" lon="5.70501">
        <ele>227</ele>
        <time>2022-04-16T07:58:25.176Z</time>
      </trkpt>
      <trkpt lat="45.71151" lon="5.70502">
        <ele>228</ele>
        <time>2022-04-16T07:58:26.175Z</time>
      </trkpt>
      <trkpt lat="45.71147" lon="5.70502">
        <ele>228</ele>
        <time>2022-04-16T07:58:27.176Z</time>
      </trkpt>
      <trkpt lat="45.71143" lon="5.70503">
        <ele>228</ele>
        <time>2022-04-16T07:58:28.176Z</time>
      </trkpt>
      <trkpt lat="45.71139" lon="5.70503">
        <ele>228</ele>
        <time>2022-04-16T07:58:29.176Z</time>
      </trkpt>
      <trkpt lat="45.71134" lon="5.70503">
        <ele>228</ele>
        <time>2022-04-16T07:58:30.176Z</time>
      </trkpt>
      <trkpt lat="45.7113" lon="5.70504">
        <ele>228</ele>
        <time>2022-04-16T07:58:31.176Z</time>
      </trkpt>
      <trkpt lat="45.71127" lon="5.70504">
        <ele>229</ele>
        <time>2022-04-16T07:58:32.176Z</time>
      </trkpt>
      <trkpt lat="45.71123" lon="5.70505">
        <ele>229</ele>
        <time>2022-04-16T07:58:33.175Z</time>
      </trkpt>
      <trkpt lat="45.71119" lon="5.70505">
        <ele>229</ele>
        <time>2022-04-16T07:58:34.176Z</time>
      </trkpt>
      <trkpt lat="45.71115" lon="5.70505">
        <ele>230</ele>
        <time>2022-04-16T07:58:35.175Z</time>
      </trkpt>
      <trkpt lat="45.71111" lon="5.70506">
        <ele>230</ele>
        <time>2022-04-16T07:58:36.176Z</time>
      </trkpt>
      <trkpt lat="45.71108" lon="5.70506">
        <ele>230</ele>
        <time>2022-04-16T07:58:37.176Z</time>
      </trkpt>
      <trkpt lat="45.71104" lon="5.70507">
        <ele>230</ele>
        <time>2022-04-16T07:58:38.176Z</time>
      </trkpt>
      <trkpt lat="45.711" lon="5.70507">
        <ele>230</ele>
        <time>2022-04-16T07:58:39.176Z</time>
      </trkpt>
      <trkpt lat="45.71096" lon="5.70507">
        <ele>229</ele>
        <time>2022-04-16T07:58:40.176Z</time>
      </trkpt>
      <trkpt lat="45.71092" lon="5.70508">
        <ele>229</ele>
        <time>2022-04-16T07:58:41.176Z</time>
      </trkpt>
      <trkpt lat="45.71088" lon="5.70508">
        <ele>229</ele>
        <time>2022-04-16T07:58:42.176Z</time>
      </trkpt>
      <trkpt lat="45.71084" lon="5.70508">
        <ele>229</ele>
        <time>2022-04-16T07:58:43.175Z</time>
      </trkpt>
      <trkpt lat="45.7108" lon="5.70509">
        <ele>229</ele>
        <time>2022-04-16T07:58:44.176Z</time>
      </trkpt>
      <trkpt lat="45.71075" lon="5.70509">
        <ele>229</ele>
        <time>2022-04-16T07:58:45.176Z</time>
      </trkpt>
      <trkpt lat="45.71071" lon="5.7051">
        <ele>229</ele>
        <time>2022-04-16T07:58:46.176Z</time>
      </trkpt>
      <trkpt lat="45.71067" lon="5.70511">
        <ele>229</ele>
        <time>2022-04-16T07:58:47.176Z</time>
      </trkpt>
      <trkpt lat="45.71062" lon="5.70511">
        <ele>229</ele>
        <time>2022-04-16T07:58:48.176Z</time>
      </trkpt>
      <trkpt lat="45.71058" lon="5.70511">
        <ele>229</ele>
        <time>2022-04-16T07:58:49.176Z</time>
      </trkpt>
      <trkpt lat="45.71053" lon="5.70512">
        <ele>229</ele>
        <time>2022-04-16T07:58:50.176Z</time>
      </trkpt>
      <trkpt lat="45.71049" lon="5.70512">
        <ele>230</ele>
        <time>2022-04-16T07:58:51.176Z</time>
      </trkpt>
      <trkpt lat="45.71044" lon="5.70513">
        <ele>230</ele>
        <time>2022-04-16T07:58:52.176Z</time>
      </trkpt>
      <trkpt lat="45.7104" lon="5.70513">
        <ele>230</ele>
        <time>2022-04-16T07:58:53.176Z</time>
      </trkpt>
      <trkpt lat="45.71036" lon="5.70514">
        <ele>230</ele>
        <time>2022-04-16T07:58:54.176Z</time>
      </trkpt>
      <trkpt lat="45.71031" lon="5.70514">
        <ele>230</ele>
        <time>2022-04-16T07:58:55.175Z</time>
      </trkpt>
      <trkpt lat="45.71026" lon="5.70515">
        <ele>229</ele>
        <time>2022-04-16T07:58:56.175Z</time>
      </trkpt>
      <trkpt lat="45.71022" lon="5.70515">
        <ele>229</ele>
        <time>2022-04-16T07:58:57.175Z</time>
      </trkpt>
      <trkpt lat="45.71017" lon="5.70515">
        <ele>228</ele>
        <time>2022-04-16T07:58:58.176Z</time>
      </trkpt>
      <trkpt lat="45.71013" lon="5.70516">
        <ele>228</ele>
        <time>2022-04-16T07:58:59.176Z</time>
      </trkpt>
      <trkpt lat="45.71007" lon="5.70516">
        <ele>228</ele>
        <time>2022-04-16T07:59:00.176Z</time>
      </trkpt>
      <trkpt lat="45.71001" lon="5.70517">
        <ele>228</ele>
        <time>2022-04-16T07:59:01.176Z</time>
      </trkpt>
      <trkpt lat="45.70995" lon="5.70517">
        <ele>228</ele>
        <time>2022-04-16T07:59:02.176Z</time>
      </trkpt>
      <trkpt lat="45.7099" lon="5.70518">
        <ele>229</ele>
        <time>2022-04-16T07:59:03.176Z</time>
      </trkpt>
      <trkpt lat="45.70985" lon="5.70519">
        <ele>229</ele>
        <time>2022-04-16T07:59:04.176Z</time>
      </trkpt>
      <trkpt lat="45.7098" lon="5.70518">
        <ele>229</ele>
        <time>2022-04-16T07:59:05.176Z</time>
      </trkpt>
      <trkpt lat="45.70976" lon="5.70514">
        <ele>229</ele>
        <time>2022-04-16T07:59:06.176Z</time>
      </trkpt>
      <trkpt lat="45.70973" lon="5.7051">
        <ele>229</ele>
        <time>2022-04-16T07:59:07.176Z</time>
      </trkpt>
      <trkpt lat="45.7097" lon="5.70504">
        <ele>228</ele>
        <time>2022-04-16T07:59:08.176Z</time>
      </trkpt>
      <trkpt lat="45.70969" lon="5.70499">
        <ele>228</ele>
        <time>2022-04-16T07:59:09.176Z</time>
      </trkpt>
      <trkpt lat="45.70968" lon="5.70493">
        <ele>227</ele>
        <time>2022-04-16T07:59:10.176Z</time>
      </trkpt>
      <trkpt lat="45.70967" lon="5.70487">
        <ele>227</ele>
        <time>2022-04-16T07:59:11.176Z</time>
      </trkpt>
      <trkpt lat="45.70966" lon="5.7048">
        <ele>226</ele>
        <time>2022-04-16T07:59:12.176Z</time>
      </trkpt>
      <trkpt lat="45.70965" lon="5.70474">
        <ele>226</ele>
        <time>2022-04-16T07:59:13.175Z</time>
      </trkpt>
      <trkpt lat="45.70965" lon="5.70467">
        <ele>226</ele>
        <time>2022-04-16T07:59:14.176Z</time>
      </trkpt>
      <trkpt lat="45.70965" lon="5.7046">
        <ele>227</ele>
        <time>2022-04-16T07:59:15.175Z</time>
      </trkpt>
      <trkpt lat="45.70964" lon="5.70454">
        <ele>227</ele>
        <time>2022-04-16T07:59:16.176Z</time>
      </trkpt>
      <trkpt lat="45.70964" lon="5.70449">
        <ele>226</ele>
        <time>2022-04-16T07:59:17.176Z</time>
      </trkpt>
      <trkpt lat="45.70963" lon="5.70444">
        <ele>225</ele>
        <time>2022-04-16T07:59:18.176Z</time>
      </trkpt>
      <trkpt lat="45.70962" lon="5.70438">
        <ele>225</ele>
        <time>2022-04-16T07:59:19.176Z</time>
      </trkpt>
      <trkpt lat="45.70962" lon="5.70432">
        <ele>224</ele>
        <time>2022-04-16T07:59:20.176Z</time>
      </trkpt>
      <trkpt lat="45.70961" lon="5.70427">
        <ele>224</ele>
        <time>2022-04-16T07:59:21.176Z</time>
      </trkpt>
      <trkpt lat="45.7096" lon="5.70422">
        <ele>224</ele>
        <time>2022-04-16T07:59:22.176Z</time>
      </trkpt>
      <trkpt lat="45.70959" lon="5.70416">
        <ele>224</ele>
        <time>2022-04-16T07:59:23.175Z</time>
      </trkpt>
      <trkpt lat="45.70959" lon="5.7041">
        <ele>224</ele>
        <time>2022-04-16T07:59:24.176Z</time>
      </trkpt>
      <trkpt lat="45.70958" lon="5.70403">
        <ele>224</ele>
        <time>2022-04-16T07:59:25.176Z</time>
      </trkpt>
      <trkpt lat="45.70957" lon="5.70396">
        <ele>224</ele>
        <time>2022-04-16T07:59:26.176Z</time>
      </trkpt>
      <trkpt lat="45.70956" lon="5.70389">
        <ele>224</ele>
        <time>2022-04-16T07:59:27.175Z</time>
      </trkpt>
      <trkpt lat="45.70955" lon="5.70382">
        <ele>224</ele>
        <time>2022-04-16T07:59:28.176Z</time>
      </trkpt>
      <trkpt lat="45.70954" lon="5.70375">
        <ele>225</ele>
        <time>2022-04-16T07:59:29.176Z</time>
      </trkpt>
      <trkpt lat="45.70953" lon="5.70367">
        <ele>225</ele>
        <time>2022-04-16T07:59:30.176Z</time>
      </trkpt>
      <trkpt lat="45.70952" lon="5.70361">
        <ele>225</ele>
        <time>2022-04-16T07:59:31.175Z</time>
      </trkpt>
      <trkpt lat="45.70951" lon="5.70354">
        <ele>226</ele>
        <time>2022-04-16T07:59:32.176Z</time>
      </trkpt>
      <trkpt lat="45.7095" lon="5.70345">
        <ele>226</ele>
        <time>2022-04-16T07:59:33.175Z</time>
      </trkpt>
      <trkpt lat="45.70949" lon="5.70337">
        <ele>227</ele>
        <time>2022-04-16T07:59:34.175Z</time>
      </trkpt>
      <trkpt lat="45.70948" lon="5.7033">
        <ele>227</ele>
        <time>2022-04-16T07:59:35.176Z</time>
      </trkpt>
      <trkpt lat="45.70947" lon="5.70322">
        <ele>227</ele>
        <time>2022-04-16T07:59:36.176Z</time>
      </trkpt>
      <trkpt lat="45.70946" lon="5.70315">
        <ele>227</ele>
        <time>2022-04-16T07:59:37.175Z</time>
      </trkpt>
      <trkpt lat="45.70945" lon="5.70308">
        <ele>226</ele>
        <time>2022-04-16T07:59:38.176Z</time>
      </trkpt>
      <trkpt lat="45.70944" lon="5.70301">
        <ele>226</ele>
        <time>2022-04-16T07:59:39.175Z</time>
      </trkpt>
      <trkpt lat="45.70943" lon="5.70294">
        <ele>226</ele>
        <time>2022-04-16T07:59:40.175Z</time>
      </trkpt>
      <trkpt lat="45.70941" lon="5.70287">
        <ele>226</ele>
        <time>2022-04-16T07:59:41.176Z</time>
      </trkpt>
      <trkpt lat="45.7094" lon="5.7028">
        <ele>225</ele>
        <time>2022-04-16T07:59:42.175Z</time>
      </trkpt>
      <trkpt lat="45.70938" lon="5.70273">
        <ele>225</ele>
        <time>2022-04-16T07:59:43.175Z</time>
      </trkpt>
      <trkpt lat="45.70935" lon="5.70267">
        <ele>225</ele>
        <time>2022-04-16T07:59:44.175Z</time>
      </trkpt>
      <trkpt lat="45.70932" lon="5.70262">
        <ele>224</ele>
        <time>2022-04-16T07:59:45.176Z</time>
      </trkpt>
      <trkpt lat="45.70929" lon="5.70258">
        <ele>224</ele>
        <time>2022-04-16T07:59:46.175Z</time>
      </trkpt>
      <trkpt lat="45.70924" lon="5.70252">
        <ele>224</ele>
        <time>2022-04-16T07:59:47.176Z</time>
      </trkpt>
      <trkpt lat="45.70919" lon="5.70249">
        <ele>224</ele>
        <time>2022-04-16T07:59:48.176Z</time>
      </trkpt>
      <trkpt lat="45.70915" lon="5.70247">
        <ele>224</ele>
        <time>2022-04-16T07:59:49.176Z</time>
      </trkpt>
      <trkpt lat="45.70911" lon="5.70245">
        <ele>224</ele>
        <time>2022-04-16T07:59:50.176Z</time>
      </trkpt>
      <trkpt lat="45.70905" lon="5.70245">
        <ele>224</ele>
        <time>2022-04-16T07:59:51.176Z</time>
      </trkpt>
      <trkpt lat="45.70899" lon="5.70245">
        <ele>224</ele>
        <time>2022-04-16T07:59:52.176Z</time>
      </trkpt>
      <trkpt lat="45.70893" lon="5.70245">
        <ele>224</ele>
        <time>2022-04-16T07:59:53.176Z</time>
      </trkpt>
      <trkpt lat="45.70888" lon="5.70246">
        <ele>224</ele>
        <time>2022-04-16T07:59:54.176Z</time>
      </trkpt>
      <trkpt lat="45.70882" lon="5.70247">
        <ele>224</ele>
        <time>2022-04-16T07:59:55.176Z</time>
      </trkpt>
      <trkpt lat="45.70877" lon="5.70248">
        <ele>225</ele>
        <time>2022-04-16T07:59:56.176Z</time>
      </trkpt>
      <trkpt lat="45.7087" lon="5.70249">
        <ele>225</ele>
        <time>2022-04-16T07:59:57.176Z</time>
      </trkpt>
      <trkpt lat="45.70865" lon="5.7025">
        <ele>225</ele>
        <time>2022-04-16T07:59:58.175Z</time>
      </trkpt>
      <trkpt lat="45.70858" lon="5.70251">
        <ele>226</ele>
        <time>2022-04-16T07:59:59.176Z</time>
      </trkpt>
      <trkpt lat="45.70852" lon="5.70252">
        <ele>226</ele>
        <time>2022-04-16T08:00:00.176Z</time>
      </trkpt>
      <trkpt lat="45.70846" lon="5.70253">
        <ele>226</ele>
        <time>2022-04-16T08:00:01.175Z</time>
      </trkpt>
      <trkpt lat="45.7084" lon="5.70254">
        <ele>226</ele>
        <time>2022-04-16T08:00:02.175Z</time>
      </trkpt>
      <trkpt lat="45.70834" lon="5.70256">
        <ele>226</ele>
        <time>2022-04-16T08:00:03.176Z</time>
      </trkpt>
      <trkpt lat="45.70828" lon="5.70257">
        <ele>226</ele>
        <time>2022-04-16T08:00:04.176Z</time>
      </trkpt>
      <trkpt lat="45.70823" lon="5.70259">
        <ele>226</ele>
        <time>2022-04-16T08:00:05.176Z</time>
      </trkpt>
      <trkpt lat="45.70817" lon="5.7026">
        <ele>226</ele>
        <time>2022-04-16T08:00:06.175Z</time>
      </trkpt>
      <trkpt lat="45.70812" lon="5.70261">
        <ele>226</ele>
        <time>2022-04-16T08:00:07.176Z</time>
      </trkpt>
      <trkpt lat="45.70809" lon="5.7026">
        <ele>226</ele>
        <time>2022-04-16T08:00:08.176Z</time>
      </trkpt>
      <trkpt lat="45.70806" lon="5.70257">
        <ele>226</ele>
        <time>2022-04-16T08:00:09.176Z</time>
      </trkpt>
      <trkpt lat="45.70804" lon="5.70252">
        <ele>226</ele>
        <time>2022-04-16T08:00:10.176Z</time>
      </trkpt>
      <trkpt lat="45.70804" lon="5.70244">
        <ele>226</ele>
        <time>2022-04-16T08:00:11.176Z</time>
      </trkpt>
      <trkpt lat="45.70804" lon="5.70238">
        <ele>226</ele>
        <time>2022-04-16T08:00:12.175Z</time>
      </trkpt>
      <trkpt lat="45.70804" lon="5.7023">
        <ele>226</ele>
        <time>2022-04-16T08:00:13.176Z</time>
      </trkpt>
      <trkpt lat="45.70804" lon="5.70224">
        <ele>226</ele>
        <time>2022-04-16T08:00:14.176Z</time>
      </trkpt>
      <trkpt lat="45.70806" lon="5.70216">
        <ele>227</ele>
        <time>2022-04-16T08:00:15.176Z</time>
      </trkpt>
      <trkpt lat="45.70808" lon="5.70209">
        <ele>227</ele>
        <time>2022-04-16T08:00:16.176Z</time>
      </trkpt>
      <trkpt lat="45.70809" lon="5.70201">
        <ele>227</ele>
        <time>2022-04-16T08:00:17.176Z</time>
      </trkpt>
      <trkpt lat="45.70809" lon="5.70193">
        <ele>228</ele>
        <time>2022-04-16T08:00:18.176Z</time>
      </trkpt>
      <trkpt lat="45.7081" lon="5.70185">
        <ele>228</ele>
        <time>2022-04-16T08:00:19.176Z</time>
      </trkpt>
      <trkpt lat="45.70811" lon="5.70176">
        <ele>227</ele>
        <time>2022-04-16T08:00:20.175Z</time>
      </trkpt>
      <trkpt lat="45.70813" lon="5.70167">
        <ele>227</ele>
        <time>2022-04-16T08:00:21.176Z</time>
      </trkpt>
      <trkpt lat="45.70815" lon="5.70159">
        <ele>227</ele>
        <time>2022-04-16T08:00:22.176Z</time>
      </trkpt>
      <trkpt lat="45.70816" lon="5.70152">
        <ele>226</ele>
        <time>2022-04-16T08:00:23.175Z</time>
      </trkpt>
      <trkpt lat="45.70817" lon="5.70144">
        <ele>226</ele>
        <time>2022-04-16T08:00:24.175Z</time>
      </trkpt>
      <trkpt lat="45.70818" lon="5.70136">
        <ele>226</ele>
        <time>2022-04-16T08:00:25.175Z</time>
      </trkpt>
      <trkpt lat="45.70818" lon="5.70128">
        <ele>226</ele>
        <time>2022-04-16T08:00:26.176Z</time>
      </trkpt>
      <trkpt lat="45.70819" lon="5.7012">
        <ele>226</ele>
        <time>2022-04-16T08:00:27.176Z</time>
      </trkpt>
      <trkpt lat="45.7082" lon="5.70113">
        <ele>226</ele>
        <time>2022-04-16T08:00:28.176Z</time>
      </trkpt>
      <trkpt lat="45.70821" lon="5.70104">
        <ele>225</ele>
        <time>2022-04-16T08:00:29.176Z</time>
      </trkpt>
      <trkpt lat="45.70822" lon="5.70096">
        <ele>225</ele>
        <time>2022-04-16T08:00:30.176Z</time>
      </trkpt>
      <trkpt lat="45.70822" lon="5.70088">
        <ele>225</ele>
        <time>2022-04-16T08:00:31.176Z</time>
      </trkpt>
      <trkpt lat="45.70823" lon="5.70082">
        <ele>225</ele>
        <time>2022-04-16T08:00:32.176Z</time>
      </trkpt>
      <trkpt lat="45.70824" lon="5.70075">
        <ele>225</ele>
        <time>2022-04-16T08:00:33.176Z</time>
      </trkpt>
      <trkpt lat="45.70825" lon="5.70066">
        <ele>225</ele>
        <time>2022-04-16T08:00:34.176Z</time>
      </trkpt>
      <trkpt lat="45.70827" lon="5.70059">
        <ele>224</ele>
        <time>2022-04-16T08:00:35.176Z</time>
      </trkpt>
      <trkpt lat="45.7083" lon="5.70052">
        <ele>224</ele>
        <time>2022-04-16T08:00:36.175Z</time>
      </trkpt>
      <trkpt lat="45.70832" lon="5.70047">
        <ele>224</ele>
        <time>2022-04-16T08:00:37.175Z</time>
      </trkpt>
      <trkpt lat="45.70834" lon="5.7004">
        <ele>224</ele>
        <time>2022-04-16T08:00:38.176Z</time>
      </trkpt>
      <trkpt lat="45.70833" lon="5.70035">
        <ele>224</ele>
        <time>2022-04-16T08:00:39.175Z</time>
      </trkpt>
      <trkpt lat="45.70831" lon="5.70034">
        <ele>224</ele>
        <time>2022-04-16T08:00:40.175Z</time>
      </trkpt>
      <trkpt lat="45.7083" lon="5.70035">
        <ele>224</ele>
        <time>2022-04-16T08:00:41.176Z</time>
      </trkpt>
      <trkpt lat="45.70826" lon="5.70036">
        <ele>224</ele>
        <time>2022-04-16T08:00:42.176Z</time>
      </trkpt>
      <trkpt lat="45.70822" lon="5.70038">
        <ele>224</ele>
        <time>2022-04-16T08:00:43.176Z</time>
      </trkpt>
      <trkpt lat="45.70817" lon="5.7004">
        <ele>224</ele>
        <time>2022-04-16T08:00:44.176Z</time>
      </trkpt>
      <trkpt lat="45.70812" lon="5.70043">
        <ele>224</ele>
        <time>2022-04-16T08:00:45.176Z</time>
      </trkpt>
      <trkpt lat="45.70808" lon="5.70046">
        <ele>224</ele>
        <time>2022-04-16T08:00:46.176Z</time>
      </trkpt>
      <trkpt lat="45.70804" lon="5.70048">
        <ele>224</ele>
        <time>2022-04-16T08:00:47.175Z</time>
      </trkpt>
      <trkpt lat="45.70798" lon="5.7005">
        <ele>224</ele>
        <time>2022-04-16T08:00:48.176Z</time>
      </trkpt>
      <trkpt lat="45.70793" lon="5.70051">
        <ele>224</ele>
        <time>2022-04-16T08:00:49.176Z</time>
      </trkpt>
      <trkpt lat="45.70788" lon="5.70053">
        <ele>225</ele>
        <time>2022-04-16T08:00:50.176Z</time>
      </trkpt>
      <trkpt lat="45.70783" lon="5.70055">
        <ele>225</ele>
        <time>2022-04-16T08:00:51.175Z</time>
      </trkpt>
      <trkpt lat="45.70778" lon="5.70057">
        <ele>225</ele>
        <time>2022-04-16T08:00:52.176Z</time>
      </trkpt>
      <trkpt lat="45.70773" lon="5.70058">
        <ele>225</ele>
        <time>2022-04-16T08:00:53.176Z</time>
      </trkpt>
      <trkpt lat="45.70768" lon="5.7006">
        <ele>226</ele>
        <time>2022-04-16T08:00:54.176Z</time>
      </trkpt>
      <trkpt lat="45.70764" lon="5.70062">
        <ele>226</ele>
        <time>2022-04-16T08:00:55.176Z</time>
      </trkpt>
      <trkpt lat="45.70758" lon="5.70063">
        <ele>226</ele>
        <time>2022-04-16T08:00:56.176Z</time>
      </trkpt>
      <trkpt lat="45.70753" lon="5.70064">
        <ele>226</ele>
        <time>2022-04-16T08:00:57.175Z</time>
      </trkpt>
      <trkpt lat="45.70747" lon="5.70066">
        <ele>226</ele>
        <time>2022-04-16T08:00:58.176Z</time>
      </trkpt>
      <trkpt lat="45.70742" lon="5.70067">
        <ele>227</ele>
        <time>2022-04-16T08:00:59.176Z</time>
      </trkpt>
      <trkpt lat="45.70737" lon="5.70068">
        <ele>227</ele>
        <time>2022-04-16T08:01:00.176Z</time>
      </trkpt>
      <trkpt lat="45.70732" lon="5.7007">
        <ele>227</ele>
        <time>2022-04-16T08:01:01.176Z</time>
      </trkpt>
      <trkpt lat="45.70725" lon="5.70071">
        <ele>227</ele>
        <time>2022-04-16T08:01:02.176Z</time>
      </trkpt>
      <trkpt lat="45.70719" lon="5.70072">
        <ele>227</ele>
        <time>2022-04-16T08:01:03.176Z</time>
      </trkpt>
      <trkpt lat="45.70714" lon="5.70074">
        <ele>227</ele>
        <time>2022-04-16T08:01:04.176Z</time>
      </trkpt>
      <trkpt lat="45.70708" lon="5.70075">
        <ele>228</ele>
        <time>2022-04-16T08:01:05.176Z</time>
      </trkpt>
      <trkpt lat="45.70702" lon="5.70076">
        <ele>228</ele>
        <time>2022-04-16T08:01:06.176Z</time>
      </trkpt>
      <trkpt lat="45.70697" lon="5.70077">
        <ele>228</ele>
        <time>2022-04-16T08:01:07.176Z</time>
      </trkpt>
      <trkpt lat="45.70691" lon="5.70077">
        <ele>228</ele>
        <time>2022-04-16T08:01:08.175Z</time>
      </trkpt>
      <trkpt lat="45.70686" lon="5.70078">
        <ele>229</ele>
        <time>2022-04-16T08:01:09.176Z</time>
      </trkpt>
      <trkpt lat="45.70681" lon="5.70079">
        <ele>229</ele>
        <time>2022-04-16T08:01:10.176Z</time>
      </trkpt>
      <trkpt lat="45.70674" lon="5.70081">
        <ele>229</ele>
        <time>2022-04-16T08:01:11.176Z</time>
      </trkpt>
      <trkpt lat="45.70669" lon="5.70081">
        <ele>229</ele>
        <time>2022-04-16T08:01:12.176Z</time>
      </trkpt>
      <trkpt lat="45.70663" lon="5.70083">
        <ele>229</ele>
        <time>2022-04-16T08:01:13.176Z</time>
      </trkpt>
      <trkpt lat="45.70658" lon="5.70083">
        <ele>229</ele>
        <time>2022-04-16T08:01:14.176Z</time>
      </trkpt>
      <trkpt lat="45.70652" lon="5.70084">
        <ele>229</ele>
        <time>2022-04-16T08:01:15.176Z</time>
      </trkpt>
      <trkpt lat="45.70646" lon="5.70084">
        <ele>228</ele>
        <time>2022-04-16T08:01:16.176Z</time>
      </trkpt>
      <trkpt lat="45.70641" lon="5.70085">
        <ele>228</ele>
        <time>2022-04-16T08:01:17.176Z</time>
      </trkpt>
      <trkpt lat="45.70635" lon="5.70085">
        <ele>228</ele>
        <time>2022-04-16T08:01:18.175Z</time>
      </trkpt>
      <trkpt lat="45.7063" lon="5.70085">
        <ele>228</ele>
        <time>2022-04-16T08:01:19.176Z</time>
      </trkpt>
      <trkpt lat="45.70624" lon="5.70086">
        <ele>227</ele>
        <time>2022-04-16T08:01:20.176Z</time>
      </trkpt>
      <trkpt lat="45.70619" lon="5.70086">
        <ele>227</ele>
        <time>2022-04-16T08:01:21.175Z</time>
      </trkpt>
      <trkpt lat="45.70613" lon="5.70086">
        <ele>227</ele>
        <time>2022-04-16T08:01:22.175Z</time>
      </trkpt>
      <trkpt lat="45.70608" lon="5.70086">
        <ele>227</ele>
        <time>2022-04-16T08:01:23.176Z</time>
      </trkpt>
      <trkpt lat="45.70602" lon="5.70086">
        <ele>227</ele>
        <time>2022-04-16T08:01:24.175Z</time>
      </trkpt>
      <trkpt lat="45.70596" lon="5.70087">
        <ele>227</ele>
        <time>2022-04-16T08:01:25.176Z</time>
      </trkpt>
      <trkpt lat="45.70591" lon="5.70087">
        <ele>227</ele>
        <time>2022-04-16T08:01:26.175Z</time>
      </trkpt>
      <trkpt lat="45.70585" lon="5.70088">
        <ele>227</ele>
        <time>2022-04-16T08:01:27.176Z</time>
      </trkpt>
      <trkpt lat="45.70579" lon="5.70088">
        <ele>227</ele>
        <time>2022-04-16T08:01:28.176Z</time>
      </trkpt>
      <trkpt lat="45.70574" lon="5.70089">
        <ele>227</ele>
        <time>2022-04-16T08:01:29.175Z</time>
      </trkpt>
      <trkpt lat="45.70568" lon="5.70089">
        <ele>227</ele>
        <time>2022-04-16T08:01:30.176Z</time>
      </trkpt>
      <trkpt lat="45.70562" lon="5.7009">
        <ele>227</ele>
        <time>2022-04-16T08:01:31.176Z</time>
      </trkpt>
      <trkpt lat="45.70557" lon="5.70091">
        <ele>227</ele>
        <time>2022-04-16T08:01:32.176Z</time>
      </trkpt>
      <trkpt lat="45.70553" lon="5.70093">
        <ele>227</ele>
        <time>2022-04-16T08:01:33.176Z</time>
      </trkpt>
      <trkpt lat="45.70546" lon="5.70095">
        <ele>227</ele>
        <time>2022-04-16T08:01:34.176Z</time>
      </trkpt>
      <trkpt lat="45.70541" lon="5.70096">
        <ele>227</ele>
        <time>2022-04-16T08:01:35.175Z</time>
      </trkpt>
      <trkpt lat="45.70535" lon="5.70098">
        <ele>227</ele>
        <time>2022-04-16T08:01:36.176Z</time>
      </trkpt>
      <trkpt lat="45.7053" lon="5.701">
        <ele>227</ele>
        <time>2022-04-16T08:01:37.176Z</time>
      </trkpt>
      <trkpt lat="45.70524" lon="5.70102">
        <ele>227</ele>
        <time>2022-04-16T08:01:38.176Z</time>
      </trkpt>
      <trkpt lat="45.70518" lon="5.70105">
        <ele>227</ele>
        <time>2022-04-16T08:01:39.175Z</time>
      </trkpt>
      <trkpt lat="45.70513" lon="5.70107">
        <ele>227</ele>
        <time>2022-04-16T08:01:40.176Z</time>
      </trkpt>
      <trkpt lat="45.70507" lon="5.7011">
        <ele>228</ele>
        <time>2022-04-16T08:01:41.175Z</time>
      </trkpt>
      <trkpt lat="45.70502" lon="5.70112">
        <ele>228</ele>
        <time>2022-04-16T08:01:42.175Z</time>
      </trkpt>
      <trkpt lat="45.70496" lon="5.70115">
        <ele>228</ele>
        <time>2022-04-16T08:01:43.176Z</time>
      </trkpt>
      <trkpt lat="45.7049" lon="5.70117">
        <ele>228</ele>
        <time>2022-04-16T08:01:44.175Z</time>
      </trkpt>
      <trkpt lat="45.70484" lon="5.70118">
        <ele>228</ele>
        <time>2022-04-16T08:01:45.176Z</time>
      </trkpt>
      <trkpt lat="45.70479" lon="5.7012">
        <ele>228</ele>
        <time>2022-04-16T08:01:46.176Z</time>
      </trkpt>
      <trkpt lat="45.70473" lon="5.70122">
        <ele>228</ele>
        <time>2022-04-16T08:01:47.176Z</time>
      </trkpt>
      <trkpt lat="45.70467" lon="5.70123">
        <ele>228</ele>
        <time>2022-04-16T08:01:48.176Z</time>
      </trkpt>
      <trkpt lat="45.70461" lon="5.70126">
        <ele>228</ele>
        <time>2022-04-16T08:01:49.176Z</time>
      </trkpt>
      <trkpt lat="45.70456" lon="5.70128">
        <ele>228</ele>
        <time>2022-04-16T08:01:50.175Z</time>
      </trkpt>
      <trkpt lat="45.7045" lon="5.70131">
        <ele>228</ele>
        <time>2022-04-16T08:01:51.176Z</time>
      </trkpt>
      <trkpt lat="45.70444" lon="5.70133">
        <ele>228</ele>
        <time>2022-04-16T08:01:52.175Z</time>
      </trkpt>
      <trkpt lat="45.70439" lon="5.70135">
        <ele>228</ele>
        <time>2022-04-16T08:01:53.176Z</time>
      </trkpt>
      <trkpt lat="45.70433" lon="5.70137">
        <ele>228</ele>
        <time>2022-04-16T08:01:54.176Z</time>
      </trkpt>
      <trkpt lat="45.70427" lon="5.70139">
        <ele>228</ele>
        <time>2022-04-16T08:01:55.176Z</time>
      </trkpt>
      <trkpt lat="45.70421" lon="5.70141">
        <ele>227</ele>
        <time>2022-04-16T08:01:56.175Z</time>
      </trkpt>
      <trkpt lat="45.70416" lon="5.70142">
        <ele>227</ele>
        <time>2022-04-16T08:01:57.175Z</time>
      </trkpt>
      <trkpt lat="45.70409" lon="5.70144">
        <ele>227</ele>
        <time>2022-04-16T08:01:58.175Z</time>
      </trkpt>
      <trkpt lat="45.70403" lon="5.70144">
        <ele>227</ele>
        <time>2022-04-16T08:01:59.176Z</time>
      </trkpt>
      <trkpt lat="45.70397" lon="5.70143">
        <ele>226</ele>
        <time>2022-04-16T08:02:00.175Z</time>
      </trkpt>
      <trkpt lat="45.70391" lon="5.70141">
        <ele>226</ele>
        <time>2022-04-16T08:02:01.176Z</time>
      </trkpt>
      <trkpt lat="45.70386" lon="5.7014">
        <ele>225</ele>
        <time>2022-04-16T08:02:02.176Z</time>
      </trkpt>
      <trkpt lat="45.70379" lon="5.70139">
        <ele>225</ele>
        <time>2022-04-16T08:02:03.175Z</time>
      </trkpt>
      <trkpt lat="45.70373" lon="5.70137">
        <ele>225</ele>
        <time>2022-04-16T08:02:04.176Z</time>
      </trkpt>
      <trkpt lat="45.70368" lon="5.70136">
        <ele>225</ele>
        <time>2022-04-16T08:02:05.176Z</time>
      </trkpt>
      <trkpt lat="45.70362" lon="5.70135">
        <ele>225</ele>
        <time>2022-04-16T08:02:06.175Z</time>
      </trkpt>
      <trkpt lat="45.70356" lon="5.70135">
        <ele>225</ele>
        <time>2022-04-16T08:02:07.176Z</time>
      </trkpt>
      <trkpt lat="45.7035" lon="5.70134">
        <ele>225</ele>
        <time>2022-04-16T08:02:08.175Z</time>
      </trkpt>
      <trkpt lat="45.70345" lon="5.70133">
        <ele>225</ele>
        <time>2022-04-16T08:02:09.176Z</time>
      </trkpt>
      <trkpt lat="45.70339" lon="5.70132">
        <ele>225</ele>
        <time>2022-04-16T08:02:10.175Z</time>
      </trkpt>
      <trkpt lat="45.70334" lon="5.7013">
        <ele>225</ele>
        <time>2022-04-16T08:02:11.176Z</time>
      </trkpt>
      <trkpt lat="45.70329" lon="5.70129">
        <ele>225</ele>
        <time>2022-04-16T08:02:12.176Z</time>
      </trkpt>
      <trkpt lat="45.70323" lon="5.70127">
        <ele>225</ele>
        <time>2022-04-16T08:02:13.176Z</time>
      </trkpt>
      <trkpt lat="45.70318" lon="5.70126">
        <ele>224</ele>
        <time>2022-04-16T08:02:14.176Z</time>
      </trkpt>
      <trkpt lat="45.70313" lon="5.70125">
        <ele>224</ele>
        <time>2022-04-16T08:02:15.176Z</time>
      </trkpt>
      <trkpt lat="45.70309" lon="5.70124">
        <ele>224</ele>
        <time>2022-04-16T08:02:16.176Z</time>
      </trkpt>
      <trkpt lat="45.70303" lon="5.70124">
        <ele>224</ele>
        <time>2022-04-16T08:02:17.176Z</time>
      </trkpt>
      <trkpt lat="45.70298" lon="5.70124">
        <ele>224</ele>
        <time>2022-04-16T08:02:18.176Z</time>
      </trkpt>
      <trkpt lat="45.70293" lon="5.70124">
        <ele>224</ele>
        <time>2022-04-16T08:02:19.176Z</time>
      </trkpt>
      <trkpt lat="45.70288" lon="5.70125">
        <ele>224</ele>
        <time>2022-04-16T08:02:20.176Z</time>
      </trkpt>
      <trkpt lat="45.70283" lon="5.70126">
        <ele>224</ele>
        <time>2022-04-16T08:02:21.176Z</time>
      </trkpt>
      <trkpt lat="45.70278" lon="5.70128">
        <ele>224</ele>
        <time>2022-04-16T08:02:22.175Z</time>
      </trkpt>
      <trkpt lat="45.70273" lon="5.7013">
        <ele>224</ele>
        <time>2022-04-16T08:02:23.175Z</time>
      </trkpt>
      <trkpt lat="45.70269" lon="5.70133">
        <ele>225</ele>
        <time>2022-04-16T08:02:24.176Z</time>
      </trkpt>
      <trkpt lat="45.70264" lon="5.70136">
        <ele>225</ele>
        <time>2022-04-16T08:02:25.175Z</time>
      </trkpt>
      <trkpt lat="45.7026" lon="5.70138">
        <ele>226</ele>
        <time>2022-04-16T08:02:26.176Z</time>
      </trkpt>
      <trkpt lat="45.70255" lon="5.70142">
        <ele>226</ele>
        <time>2022-04-16T08:02:27.176Z</time>
      </trkpt>
      <trkpt lat="45.70251" lon="5.70145">
        <ele>226</ele>
        <time>2022-04-16T08:02:28.176Z</time>
      </trkpt>
      <trkpt lat="45.70246" lon="5.70149">
        <ele>226</ele>
        <time>2022-04-16T08:02:29.175Z</time>
      </trkpt>
      <trkpt lat="45.70242" lon="5.70152">
        <ele>226</ele>
        <time>2022-04-16T08:02:30.176Z</time>
      </trkpt>
      <trkpt lat="45.70237" lon="5.70156">
        <ele>226</ele>
        <time>2022-04-16T08:02:31.176Z</time>
      </trkpt>
      <trkpt lat="45.70232" lon="5.70159">
        <ele>226</ele>
        <time>2022-04-16T08:02:32.176Z</time>
      </trkpt>
      <trkpt lat="45.70228" lon="5.70163">
        <ele>226</ele>
        <time>2022-04-16T08:02:33.176Z</time>
      </trkpt>
      <trkpt lat="45.70223" lon="5.70167">
        <ele>226</ele>
        <time>2022-04-16T08:02:34.176Z</time>
      </trkpt>
      <trkpt lat="45.7022" lon="5.7017">
        <ele>225</ele>
        <time>2022-04-16T08:02:35.176Z</time>
      </trkpt>
      <trkpt lat="45.70215" lon="5.70174">
        <ele>225</ele>
        <time>2022-04-16T08:02:36.175Z</time>
      </trkpt>
      <trkpt lat="45.7021" lon="5.70178">
        <ele>225</ele>
        <time>2022-04-16T08:02:37.175Z</time>
      </trkpt>
      <trkpt lat="45.70205" lon="5.70182">
        <ele>225</ele>
        <time>2022-04-16T08:02:38.176Z</time>
      </trkpt>
      <trkpt lat="45.702" lon="5.70186">
        <ele>224</ele>
        <time>2022-04-16T08:02:39.175Z</time>
      </trkpt>
      <trkpt lat="45.70196" lon="5.70189">
        <ele>224</ele>
        <time>2022-04-16T08:02:40.176Z</time>
      </trkpt>
      <trkpt lat="45.70192" lon="5.70192">
        <ele>224</ele>
        <time>2022-04-16T08:02:41.176Z</time>
      </trkpt>
      <trkpt lat="45.70186" lon="5.70197">
        <ele>224</ele>
        <time>2022-04-16T08:02:42.175Z</time>
      </trkpt>
      <trkpt lat="45.70182" lon="5.702">
        <ele>224</ele>
        <time>2022-04-16T08:02:43.175Z</time>
      </trkpt>
      <trkpt lat="45.70177" lon="5.70204">
        <ele>224</ele>
        <time>2022-04-16T08:02:44.175Z</time>
      </trkpt>
      <trkpt lat="45.70173" lon="5.70208">
        <ele>224</ele>
        <time>2022-04-16T08:02:45.175Z</time>
      </trkpt>
      <trkpt lat="45.70169" lon="5.70211">
        <ele>225</ele>
        <time>2022-04-16T08:02:46.176Z</time>
      </trkpt>
      <trkpt lat="45.70164" lon="5.70215">
        <ele>225</ele>
        <time>2022-04-16T08:02:47.176Z</time>
      </trkpt>
      <trkpt lat="45.70159" lon="5.70219">
        <ele>225</ele>
        <time>2022-04-16T08:02:48.175Z</time>
      </trkpt>
      <trkpt lat="45.70154" lon="5.70223">
        <ele>226</ele>
        <time>2022-04-16T08:02:49.176Z</time>
      </trkpt>
      <trkpt lat="45.70149" lon="5.70227">
        <ele>226</ele>
        <time>2022-04-16T08:02:50.175Z</time>
      </trkpt>
      <trkpt lat="45.70144" lon="5.7023">
        <ele>226</ele>
        <time>2022-04-16T08:02:51.176Z</time>
      </trkpt>
      <trkpt lat="45.70139" lon="5.70234">
        <ele>225</ele>
        <time>2022-04-16T08:02:52.175Z</time>
      </trkpt>
      <trkpt lat="45.70133" lon="5.70237">
        <ele>225</ele>
        <time>2022-04-16T08:02:53.175Z</time>
      </trkpt>
      <trkpt lat="45.70128" lon="5.7024">
        <ele>226</ele>
        <time>2022-04-16T08:02:54.176Z</time>
      </trkpt>
      <trkpt lat="45.70123" lon="5.70244">
        <ele>226</ele>
        <time>2022-04-16T08:02:55.176Z</time>
      </trkpt>
      <trkpt lat="45.70118" lon="5.70248">
        <ele>227</ele>
        <time>2022-04-16T08:02:56.176Z</time>
      </trkpt>
      <trkpt lat="45.70113" lon="5.70252">
        <ele>227</ele>
        <time>2022-04-16T08:02:57.175Z</time>
      </trkpt>
      <trkpt lat="45.70108" lon="5.70255">
        <ele>227</ele>
        <time>2022-04-16T08:02:58.176Z</time>
      </trkpt>
      <trkpt lat="45.70103" lon="5.70258">
        <ele>227</ele>
        <time>2022-04-16T08:02:59.176Z</time>
      </trkpt>
      <trkpt lat="45.70098" lon="5.70261">
        <ele>228</ele>
        <time>2022-04-16T08:03:00.176Z</time>
      </trkpt>
      <trkpt lat="45.70092" lon="5.70266">
        <ele>228</ele>
        <time>2022-04-16T08:03:01.176Z</time>
      </trkpt>
      <trkpt lat="45.70087" lon="5.70269">
        <ele>228</ele>
        <time>2022-04-16T08:03:02.176Z</time>
      </trkpt>
      <trkpt lat="45.70082" lon="5.70273">
        <ele>228</ele>
        <time>2022-04-16T08:03:03.176Z</time>
      </trkpt>
      <trkpt lat="45.70076" lon="5.70276">
        <ele>228</ele>
        <time>2022-04-16T08:03:04.176Z</time>
      </trkpt>
      <trkpt lat="45.70072" lon="5.7028">
        <ele>229</ele>
        <time>2022-04-16T08:03:05.175Z</time>
      </trkpt>
      <trkpt lat="45.70066" lon="5.70283">
        <ele>230</ele>
        <time>2022-04-16T08:03:06.175Z</time>
      </trkpt>
      <trkpt lat="45.70061" lon="5.70287">
        <ele>230</ele>
        <time>2022-04-16T08:03:07.175Z</time>
      </trkpt>
      <trkpt lat="45.70056" lon="5.70291">
        <ele>230</ele>
        <time>2022-04-16T08:03:08.175Z</time>
      </trkpt>
      <trkpt lat="45.70051" lon="5.70295">
        <ele>230</ele>
        <time>2022-04-16T08:03:09.176Z</time>
      </trkpt>
      <trkpt lat="45.70045" lon="5.70298">
        <ele>230</ele>
        <time>2022-04-16T08:03:10.176Z</time>
      </trkpt>
      <trkpt lat="45.7004" lon="5.70301">
        <ele>229</ele>
        <time>2022-04-16T08:03:11.175Z</time>
      </trkpt>
      <trkpt lat="45.70035" lon="5.70305">
        <ele>229</ele>
        <time>2022-04-16T08:03:12.175Z</time>
      </trkpt>
      <trkpt lat="45.70031" lon="5.70308">
        <ele>228</ele>
        <time>2022-04-16T08:03:13.176Z</time>
      </trkpt>
      <trkpt lat="45.70026" lon="5.70312">
        <ele>228</ele>
        <time>2022-04-16T08:03:14.175Z</time>
      </trkpt>
      <trkpt lat="45.7002" lon="5.70316">
        <ele>227</ele>
        <time>2022-04-16T08:03:15.175Z</time>
      </trkpt>
      <trkpt lat="45.70015" lon="5.7032">
        <ele>227</ele>
        <time>2022-04-16T08:03:16.175Z</time>
      </trkpt>
      <trkpt lat="45.7001" lon="5.70323">
        <ele>226</ele>
        <time>2022-04-16T08:03:17.176Z</time>
      </trkpt>
      <trkpt lat="45.70006" lon="5.70326">
        <ele>225</ele>
        <time>2022-04-16T08:03:18.176Z</time>
      </trkpt>
      <trkpt lat="45.70001" lon="5.70331">
        <ele>225</ele>
        <time>2022-04-16T08:03:19.176Z</time>
      </trkpt>
      <trkpt lat="45.69996" lon="5.70335">
        <ele>225</ele>
        <time>2022-04-16T08:03:20.176Z</time>
      </trkpt>
      <trkpt lat="45.6999" lon="5.7034">
        <ele>225</ele>
        <time>2022-04-16T08:03:21.176Z</time>
      </trkpt>
      <trkpt lat="45.69985" lon="5.70344">
        <ele>226</ele>
        <time>2022-04-16T08:03:22.175Z</time>
      </trkpt>
      <trkpt lat="45.6998" lon="5.70348">
        <ele>226</ele>
        <time>2022-04-16T08:03:23.176Z</time>
      </trkpt>
      <trkpt lat="45.69976" lon="5.70351">
        <ele>226</ele>
        <time>2022-04-16T08:03:24.175Z</time>
      </trkpt>
      <trkpt lat="45.69971" lon="5.70357">
        <ele>226</ele>
        <time>2022-04-16T08:03:25.175Z</time>
      </trkpt>
      <trkpt lat="45.69966" lon="5.70361">
        <ele>226</ele>
        <time>2022-04-16T08:03:26.175Z</time>
      </trkpt>
      <trkpt lat="45.69962" lon="5.70366">
        <ele>226</ele>
        <time>2022-04-16T08:03:27.176Z</time>
      </trkpt>
      <trkpt lat="45.69957" lon="5.70371">
        <ele>226</ele>
        <time>2022-04-16T08:03:28.176Z</time>
      </trkpt>
      <trkpt lat="45.69953" lon="5.70377">
        <ele>226</ele>
        <time>2022-04-16T08:03:29.176Z</time>
      </trkpt>
      <trkpt lat="45.69949" lon="5.70383">
        <ele>226</ele>
        <time>2022-04-16T08:03:30.176Z</time>
      </trkpt>
      <trkpt lat="45.69946" lon="5.70389">
        <ele>226</ele>
        <time>2022-04-16T08:03:31.176Z</time>
      </trkpt>
      <trkpt lat="45.69942" lon="5.70395">
        <ele>227</ele>
        <time>2022-04-16T08:03:32.176Z</time>
      </trkpt>
      <trkpt lat="45.69938" lon="5.70401">
        <ele>227</ele>
        <time>2022-04-16T08:03:33.175Z</time>
      </trkpt>
      <trkpt lat="45.69934" lon="5.70407">
        <ele>227</ele>
        <time>2022-04-16T08:03:34.175Z</time>
      </trkpt>
      <trkpt lat="45.6993" lon="5.70413">
        <ele>227</ele>
        <time>2022-04-16T08:03:35.175Z</time>
      </trkpt>
      <trkpt lat="45.69927" lon="5.70419">
        <ele>227</ele>
        <time>2022-04-16T08:03:36.176Z</time>
      </trkpt>
      <trkpt lat="45.69923" lon="5.70425">
        <ele>228</ele>
        <time>2022-04-16T08:03:37.175Z</time>
      </trkpt>
      <trkpt lat="45.69921" lon="5.7043">
        <ele>228</ele>
        <time>2022-04-16T08:03:38.175Z</time>
      </trkpt>
      <trkpt lat="45.69917" lon="5.70438">
        <ele>228</ele>
        <time>2022-04-16T08:03:39.176Z</time>
      </trkpt>
      <trkpt lat="45.69914" lon="5.70445">
        <ele>229</ele>
        <time>2022-04-16T08:03:40.175Z</time>
      </trkpt>
      <trkpt lat="45.69911" lon="5.70452">
        <ele>229</ele>
        <time>2022-04-16T08:03:41.176Z</time>
      </trkpt>
      <trkpt lat="45.69909" lon="5.70459">
        <ele>230</ele>
        <time>2022-04-16T08:03:42.176Z</time>
      </trkpt>
      <trkpt lat="45.69907" lon="5.70465">
        <ele>230</ele>
        <time>2022-04-16T08:03:43.175Z</time>
      </trkpt>
      <trkpt lat="45.69905" lon="5.70473">
        <ele>230</ele>
        <time>2022-04-16T08:03:44.175Z</time>
      </trkpt>
      <trkpt lat="45.69902" lon="5.70482">
        <ele>230</ele>
        <time>2022-04-16T08:03:45.176Z</time>
      </trkpt>
      <trkpt lat="45.69901" lon="5.7049">
        <ele>231</ele>
        <time>2022-04-16T08:03:46.175Z</time>
      </trkpt>
      <trkpt lat="45.69899" lon="5.70498">
        <ele>231</ele>
        <time>2022-04-16T08:03:47.176Z</time>
      </trkpt>
      <trkpt lat="45.69898" lon="5.70506">
        <ele>230</ele>
        <time>2022-04-16T08:03:48.175Z</time>
      </trkpt>
      <trkpt lat="45.69897" lon="5.70514">
        <ele>230</ele>
        <time>2022-04-16T08:03:49.176Z</time>
      </trkpt>
      <trkpt lat="45.69897" lon="5.70523">
        <ele>230</ele>
        <time>2022-04-16T08:03:50.175Z</time>
      </trkpt>
      <trkpt lat="45.69896" lon="5.70531">
        <ele>230</ele>
        <time>2022-04-16T08:03:51.175Z</time>
      </trkpt>
      <trkpt lat="45.69895" lon="5.70539">
        <ele>229</ele>
        <time>2022-04-16T08:03:52.175Z</time>
      </trkpt>
      <trkpt lat="45.69894" lon="5.70545">
        <ele>229</ele>
        <time>2022-04-16T08:03:53.176Z</time>
      </trkpt>
      <trkpt lat="45.69893" lon="5.70555">
        <ele>229</ele>
        <time>2022-04-16T08:03:54.175Z</time>
      </trkpt>
      <trkpt lat="45.69891" lon="5.70563">
        <ele>228</ele>
        <time>2022-04-16T08:03:55.175Z</time>
      </trkpt>
      <trkpt lat="45.6989" lon="5.70571">
        <ele>228</ele>
        <time>2022-04-16T08:03:56.176Z</time>
      </trkpt>
      <trkpt lat="45.69889" lon="5.70577">
        <ele>228</ele>
        <time>2022-04-16T08:03:57.175Z</time>
      </trkpt>
      <trkpt lat="45.69889" lon="5.70585">
        <ele>228</ele>
        <time>2022-04-16T08:03:58.176Z</time>
      </trkpt>
      <trkpt lat="45.69889" lon="5.70594">
        <ele>227</ele>
        <time>2022-04-16T08:03:59.176Z</time>
      </trkpt>
      <trkpt lat="45.69888" lon="5.70602">
        <ele>227</ele>
        <time>2022-04-16T08:04:00.176Z</time>
      </trkpt>
      <trkpt lat="45.69887" lon="5.7061">
        <ele>227</ele>
        <time>2022-04-16T08:04:01.175Z</time>
      </trkpt>
      <trkpt lat="45.69886" lon="5.70618">
        <ele>226</ele>
        <time>2022-04-16T08:04:02.175Z</time>
      </trkpt>
      <trkpt lat="45.69884" lon="5.70624">
        <ele>226</ele>
        <time>2022-04-16T08:04:03.176Z</time>
      </trkpt>
      <trkpt lat="45.69882" lon="5.70633">
        <ele>227</ele>
        <time>2022-04-16T08:04:04.175Z</time>
      </trkpt>
      <trkpt lat="45.6988" lon="5.70641">
        <ele>227</ele>
        <time>2022-04-16T08:04:05.176Z</time>
      </trkpt>
      <trkpt lat="45.69878" lon="5.70648">
        <ele>227</ele>
        <time>2022-04-16T08:04:06.176Z</time>
      </trkpt>
      <trkpt lat="45.69876" lon="5.70656">
        <ele>227</ele>
        <time>2022-04-16T08:04:07.176Z</time>
      </trkpt>
      <trkpt lat="45.69874" lon="5.70662">
        <ele>227</ele>
        <time>2022-04-16T08:04:08.175Z</time>
      </trkpt>
      <trkpt lat="45.69871" lon="5.7067">
        <ele>227</ele>
        <time>2022-04-16T08:04:09.176Z</time>
      </trkpt>
      <trkpt lat="45.69868" lon="5.70678">
        <ele>227</ele>
        <time>2022-04-16T08:04:10.175Z</time>
      </trkpt>
      <trkpt lat="45.69866" lon="5.70684">
        <ele>227</ele>
        <time>2022-04-16T08:04:11.175Z</time>
      </trkpt>
      <trkpt lat="45.69863" lon="5.70691">
        <ele>227</ele>
        <time>2022-04-16T08:04:12.175Z</time>
      </trkpt>
      <trkpt lat="45.69859" lon="5.707">
        <ele>226</ele>
        <time>2022-04-16T08:04:13.176Z</time>
      </trkpt>
      <trkpt lat="45.69856" lon="5.70707">
        <ele>226</ele>
        <time>2022-04-16T08:04:14.176Z</time>
      </trkpt>
      <trkpt lat="45.69853" lon="5.70715">
        <ele>226</ele>
        <time>2022-04-16T08:04:15.176Z</time>
      </trkpt>
      <trkpt lat="45.6985" lon="5.70722">
        <ele>226</ele>
        <time>2022-04-16T08:04:16.176Z</time>
      </trkpt>
      <trkpt lat="45.69846" lon="5.70729">
        <ele>226</ele>
        <time>2022-04-16T08:04:17.176Z</time>
      </trkpt>
      <trkpt lat="45.69843" lon="5.70736">
        <ele>226</ele>
        <time>2022-04-16T08:04:18.176Z</time>
      </trkpt>
      <trkpt lat="45.69839" lon="5.70743">
        <ele>227</ele>
        <time>2022-04-16T08:04:19.176Z</time>
      </trkpt>
      <trkpt lat="45.69835" lon="5.7075">
        <ele>227</ele>
        <time>2022-04-16T08:04:20.175Z</time>
      </trkpt>
      <trkpt lat="45.69832" lon="5.70756">
        <ele>227</ele>
        <time>2022-04-16T08:04:21.176Z</time>
      </trkpt>
      <trkpt lat="45.69828" lon="5.70763">
        <ele>227</ele>
        <time>2022-04-16T08:04:22.176Z</time>
      </trkpt>
      <trkpt lat="45.69824" lon="5.70769">
        <ele>228</ele>
        <time>2022-04-16T08:04:23.175Z</time>
      </trkpt>
      <trkpt lat="45.6982" lon="5.70775">
        <ele>228</ele>
        <time>2022-04-16T08:04:24.175Z</time>
      </trkpt>
      <trkpt lat="45.69816" lon="5.70781">
        <ele>228</ele>
        <time>2022-04-16T08:04:25.176Z</time>
      </trkpt>
      <trkpt lat="45.69811" lon="5.70787">
        <ele>228</ele>
        <time>2022-04-16T08:04:26.176Z</time>
      </trkpt>
      <trkpt lat="45.69807" lon="5.70792">
        <ele>228</ele>
        <time>2022-04-16T08:04:27.175Z</time>
      </trkpt>
      <trkpt lat="45.69803" lon="5.70798">
        <ele>229</ele>
        <time>2022-04-16T08:04:28.176Z</time>
      </trkpt>
      <trkpt lat="45.69798" lon="5.70804">
        <ele>229</ele>
        <time>2022-04-16T08:04:29.176Z</time>
      </trkpt>
      <trkpt lat="45.69794" lon="5.70809">
        <ele>228</ele>
        <time>2022-04-16T08:04:30.176Z</time>
      </trkpt>
      <trkpt lat="45.69789" lon="5.70814">
        <ele>228</ele>
        <time>2022-04-16T08:04:31.175Z</time>
      </trkpt>
      <trkpt lat="45.69784" lon="5.70819">
        <ele>228</ele>
        <time>2022-04-16T08:04:32.175Z</time>
      </trkpt>
      <trkpt lat="45.69779" lon="5.70823">
        <ele>228</ele>
        <time>2022-04-16T08:04:33.176Z</time>
      </trkpt>
      <trkpt lat="45.69774" lon="5.70826">
        <ele>228</ele>
        <time>2022-04-16T08:04:34.176Z</time>
      </trkpt>
      <trkpt lat="45.69768" lon="5.70829">
        <ele>228</ele>
        <time>2022-04-16T08:04:35.176Z</time>
      </trkpt>
      <trkpt lat="45.69762" lon="5.70829">
        <ele>229</ele>
        <time>2022-04-16T08:04:36.176Z</time>
      </trkpt>
      <trkpt lat="45.69756" lon="5.70829">
        <ele>229</ele>
        <time>2022-04-16T08:04:37.175Z</time>
      </trkpt>
      <trkpt lat="45.6975" lon="5.70829">
        <ele>230</ele>
        <time>2022-04-16T08:04:38.175Z</time>
      </trkpt>
      <trkpt lat="45.69744" lon="5.70829">
        <ele>230</ele>
        <time>2022-04-16T08:04:39.176Z</time>
      </trkpt>
      <trkpt lat="45.69738" lon="5.70829">
        <ele>231</ele>
        <time>2022-04-16T08:04:40.176Z</time>
      </trkpt>
      <trkpt lat="45.69732" lon="5.70831">
        <ele>231</ele>
        <time>2022-04-16T08:04:41.176Z</time>
      </trkpt>
      <trkpt lat="45.69727" lon="5.70835">
        <ele>232</ele>
        <time>2022-04-16T08:04:42.176Z</time>
      </trkpt>
      <trkpt lat="45.69722" lon="5.70839">
        <ele>231</ele>
        <time>2022-04-16T08:04:43.176Z</time>
      </trkpt>
      <trkpt lat="45.69718" lon="5.70844">
        <ele>231</ele>
        <time>2022-04-16T08:04:44.176Z</time>
      </trkpt>
      <trkpt lat="45.69715" lon="5.70851">
        <ele>230</ele>
        <time>2022-04-16T08:04:45.175Z</time>
      </trkpt>
      <trkpt lat="45.69713" lon="5.70858">
        <ele>230</ele>
        <time>2022-04-16T08:04:46.175Z</time>
      </trkpt>
      <trkpt lat="45.69711" lon="5.70865">
        <ele>230</ele>
        <time>2022-04-16T08:04:47.176Z</time>
      </trkpt>
      <trkpt lat="45.69708" lon="5.70872">
        <ele>229</ele>
        <time>2022-04-16T08:04:48.176Z</time>
      </trkpt>
      <trkpt lat="45.69706" lon="5.7088">
        <ele>229</ele>
        <time>2022-04-16T08:04:49.176Z</time>
      </trkpt>
      <trkpt lat="45.69703" lon="5.70887">
        <ele>229</ele>
        <time>2022-04-16T08:04:50.176Z</time>
      </trkpt>
      <trkpt lat="45.697" lon="5.70895">
        <ele>229</ele>
        <time>2022-04-16T08:04:51.176Z</time>
      </trkpt>
      <trkpt lat="45.69697" lon="5.70902">
        <ele>228</ele>
        <time>2022-04-16T08:04:52.176Z</time>
      </trkpt>
      <trkpt lat="45.69694" lon="5.70908">
        <ele>228</ele>
        <time>2022-04-16T08:04:53.176Z</time>
      </trkpt>
      <trkpt lat="45.69689" lon="5.70913">
        <ele>228</ele>
        <time>2022-04-16T08:04:54.176Z</time>
      </trkpt>
      <trkpt lat="45.69684" lon="5.70918">
        <ele>229</ele>
        <time>2022-04-16T08:04:55.176Z</time>
      </trkpt>
      <trkpt lat="45.69679" lon="5.70921">
        <ele>229</ele>
        <time>2022-04-16T08:04:56.175Z</time>
      </trkpt>
      <trkpt lat="45.69674" lon="5.70925">
        <ele>229</ele>
        <time>2022-04-16T08:04:57.175Z</time>
      </trkpt>
      <trkpt lat="45.69668" lon="5.70928">
        <ele>229</ele>
        <time>2022-04-16T08:04:58.176Z</time>
      </trkpt>
      <trkpt lat="45.69662" lon="5.70932">
        <ele>229</ele>
        <time>2022-04-16T08:04:59.175Z</time>
      </trkpt>
      <trkpt lat="45.69657" lon="5.70935">
        <ele>228</ele>
        <time>2022-04-16T08:05:00.176Z</time>
      </trkpt>
      <trkpt lat="45.69651" lon="5.70938">
        <ele>228</ele>
        <time>2022-04-16T08:05:01.176Z</time>
      </trkpt>
      <trkpt lat="45.69646" lon="5.70941">
        <ele>228</ele>
        <time>2022-04-16T08:05:02.175Z</time>
      </trkpt>
      <trkpt lat="45.6964" lon="5.70944">
        <ele>227</ele>
        <time>2022-04-16T08:05:03.175Z</time>
      </trkpt>
      <trkpt lat="45.69635" lon="5.70947">
        <ele>227</ele>
        <time>2022-04-16T08:05:04.175Z</time>
      </trkpt>
      <trkpt lat="45.6963" lon="5.70951">
        <ele>227</ele>
        <time>2022-04-16T08:05:05.176Z</time>
      </trkpt>
      <trkpt lat="45.69625" lon="5.70954">
        <ele>227</ele>
        <time>2022-04-16T08:05:06.176Z</time>
      </trkpt>
      <trkpt lat="45.69619" lon="5.70957">
        <ele>226</ele>
        <time>2022-04-16T08:05:07.176Z</time>
      </trkpt>
      <trkpt lat="45.69614" lon="5.7096">
        <ele>226</ele>
        <time>2022-04-16T08:05:08.175Z</time>
      </trkpt>
      <trkpt lat="45.69609" lon="5.70962">
        <ele>226</ele>
        <time>2022-04-16T08:05:09.176Z</time>
      </trkpt>
      <trkpt lat="45.69604" lon="5.70965">
        <ele>226</ele>
        <time>2022-04-16T08:05:10.176Z</time>
      </trkpt>
      <trkpt lat="45.69598" lon="5.70968">
        <ele>226</ele>
        <time>2022-04-16T08:05:11.176Z</time>
      </trkpt>
      <trkpt lat="45.69593" lon="5.70971">
        <ele>226</ele>
        <time>2022-04-16T08:05:12.176Z</time>
      </trkpt>
      <trkpt lat="45.69588" lon="5.70974">
        <ele>226</ele>
        <time>2022-04-16T08:05:13.176Z</time>
      </trkpt>
      <trkpt lat="45.69582" lon="5.70977">
        <ele>226</ele>
        <time>2022-04-16T08:05:14.176Z</time>
      </trkpt>
      <trkpt lat="45.69577" lon="5.7098">
        <ele>226</ele>
        <time>2022-04-16T08:05:15.176Z</time>
      </trkpt>
      <trkpt lat="45.69571" lon="5.70983">
        <ele>226</ele>
        <time>2022-04-16T08:05:16.175Z</time>
      </trkpt>
      <trkpt lat="45.69566" lon="5.70986">
        <ele>227</ele>
        <time>2022-04-16T08:05:17.176Z</time>
      </trkpt>
      <trkpt lat="45.69561" lon="5.70989">
        <ele>227</ele>
        <time>2022-04-16T08:05:18.175Z</time>
      </trkpt>
      <trkpt lat="45.69556" lon="5.70992">
        <ele>228</ele>
        <time>2022-04-16T08:05:19.176Z</time>
      </trkpt>
      <trkpt lat="45.69551" lon="5.70994">
        <ele>228</ele>
        <time>2022-04-16T08:05:20.176Z</time>
      </trkpt>
      <trkpt lat="45.69546" lon="5.70996">
        <ele>228</ele>
        <time>2022-04-16T08:05:21.175Z</time>
      </trkpt>
      <trkpt lat="45.6954" lon="5.70998">
        <ele>228</ele>
        <time>2022-04-16T08:05:22.176Z</time>
      </trkpt>
      <trkpt lat="45.69535" lon="5.70999">
        <ele>228</ele>
        <time>2022-04-16T08:05:23.176Z</time>
      </trkpt>
      <trkpt lat="45.69529" lon="5.71">
        <ele>228</ele>
        <time>2022-04-16T08:05:24.176Z</time>
      </trkpt>
      <trkpt lat="45.69524" lon="5.71">
        <ele>228</ele>
        <time>2022-04-16T08:05:25.175Z</time>
      </trkpt>
      <trkpt lat="45.69518" lon="5.71">
        <ele>228</ele>
        <time>2022-04-16T08:05:26.176Z</time>
      </trkpt>
      <trkpt lat="45.69513" lon="5.71">
        <ele>228</ele>
        <time>2022-04-16T08:05:27.176Z</time>
      </trkpt>
      <trkpt lat="45.69507" lon="5.71">
        <ele>228</ele>
        <time>2022-04-16T08:05:28.176Z</time>
      </trkpt>
      <trkpt lat="45.69501" lon="5.70999">
        <ele>228</ele>
        <time>2022-04-16T08:05:29.176Z</time>
      </trkpt>
      <trkpt lat="45.69496" lon="5.70998">
        <ele>229</ele>
        <time>2022-04-16T08:05:30.175Z</time>
      </trkpt>
      <trkpt lat="45.6949" lon="5.70997">
        <ele>229</ele>
        <time>2022-04-16T08:05:31.176Z</time>
      </trkpt>
      <trkpt lat="45.69484" lon="5.70997">
        <ele>229</ele>
        <time>2022-04-16T08:05:32.175Z</time>
      </trkpt>
      <trkpt lat="45.69478" lon="5.70996">
        <ele>229</ele>
        <time>2022-04-16T08:05:33.176Z</time>
      </trkpt>
      <trkpt lat="45.69471" lon="5.70996">
        <ele>229</ele>
        <time>2022-04-16T08:05:34.176Z</time>
      </trkpt>
      <trkpt lat="45.69464" lon="5.70995">
        <ele>229</ele>
        <time>2022-04-16T08:05:35.175Z</time>
      </trkpt>
      <trkpt lat="45.69458" lon="5.70995">
        <ele>229</ele>
        <time>2022-04-16T08:05:36.175Z</time>
      </trkpt>
      <trkpt lat="45.69451" lon="5.70994">
        <ele>229</ele>
        <time>2022-04-16T08:05:37.176Z</time>
      </trkpt>
      <trkpt lat="45.69445" lon="5.70992">
        <ele>229</ele>
        <time>2022-04-16T08:05:38.175Z</time>
      </trkpt>
      <trkpt lat="45.69439" lon="5.7099">
        <ele>230</ele>
        <time>2022-04-16T08:05:39.176Z</time>
      </trkpt>
      <trkpt lat="45.69433" lon="5.70988">
        <ele>230</ele>
        <time>2022-04-16T08:05:40.175Z</time>
      </trkpt>
      <trkpt lat="45.69428" lon="5.70984">
        <ele>230</ele>
        <time>2022-04-16T08:05:41.176Z</time>
      </trkpt>
      <trkpt lat="45.69423" lon="5.70979">
        <ele>230</ele>
        <time>2022-04-16T08:05:42.175Z</time>
      </trkpt>
      <trkpt lat="45.69419" lon="5.70973">
        <ele>230</ele>
        <time>2022-04-16T08:05:43.175Z</time>
      </trkpt>
      <trkpt lat="45.69415" lon="5.70967">
        <ele>229</ele>
        <time>2022-04-16T08:05:44.176Z</time>
      </trkpt>
      <trkpt lat="45.69412" lon="5.7096">
        <ele>229</ele>
        <time>2022-04-16T08:05:45.176Z</time>
      </trkpt>
      <trkpt lat="45.69409" lon="5.70953">
        <ele>229</ele>
        <time>2022-04-16T08:05:46.175Z</time>
      </trkpt>
      <trkpt lat="45.69404" lon="5.70946">
        <ele>229</ele>
        <time>2022-04-16T08:05:47.176Z</time>
      </trkpt>
      <trkpt lat="45.694" lon="5.7094">
        <ele>229</ele>
        <time>2022-04-16T08:05:48.176Z</time>
      </trkpt>
      <trkpt lat="45.69396" lon="5.70935">
        <ele>229</ele>
        <time>2022-04-16T08:05:49.176Z</time>
      </trkpt>
      <trkpt lat="45.69391" lon="5.70932">
        <ele>229</ele>
        <time>2022-04-16T08:05:50.175Z</time>
      </trkpt>
      <trkpt lat="45.69385" lon="5.7093">
        <ele>228</ele>
        <time>2022-04-16T08:05:51.176Z</time>
      </trkpt>
      <trkpt lat="45.6938" lon="5.70929">
        <ele>228</ele>
        <time>2022-04-16T08:05:52.176Z</time>
      </trkpt>
      <trkpt lat="45.69374" lon="5.70927">
        <ele>228</ele>
        <time>2022-04-16T08:05:53.176Z</time>
      </trkpt>
      <trkpt lat="45.69368" lon="5.70926">
        <ele>228</ele>
        <time>2022-04-16T08:05:54.175Z</time>
      </trkpt>
      <trkpt lat="45.69363" lon="5.70926">
        <ele>227</ele>
        <time>2022-04-16T08:05:55.175Z</time>
      </trkpt>
      <trkpt lat="45.69357" lon="5.70926">
        <ele>227</ele>
        <time>2022-04-16T08:05:56.176Z</time>
      </trkpt>
      <trkpt lat="45.69352" lon="5.70927">
        <ele>227</ele>
        <time>2022-04-16T08:05:57.175Z</time>
      </trkpt>
      <trkpt lat="45.69346" lon="5.70929">
        <ele>228</ele>
        <time>2022-04-16T08:05:58.176Z</time>
      </trkpt>
      <trkpt lat="45.6934" lon="5.70931">
        <ele>228</ele>
        <time>2022-04-16T08:05:59.176Z</time>
      </trkpt>
      <trkpt lat="45.69335" lon="5.70934">
        <ele>229</ele>
        <time>2022-04-16T08:06:00.175Z</time>
      </trkpt>
      <trkpt lat="45.69329" lon="5.70936">
        <ele>229</ele>
        <time>2022-04-16T08:06:01.175Z</time>
      </trkpt>
      <trkpt lat="45.69324" lon="5.70939">
        <ele>229</ele>
        <time>2022-04-16T08:06:02.176Z</time>
      </trkpt>
      <trkpt lat="45.69319" lon="5.70942">
        <ele>230</ele>
        <time>2022-04-16T08:06:03.176Z</time>
      </trkpt>
      <trkpt lat="45.69314" lon="5.70946">
        <ele>230</ele>
        <time>2022-04-16T08:06:04.176Z</time>
      </trkpt>
      <trkpt lat="45.69309" lon="5.70949">
        <ele>230</ele>
        <time>2022-04-16T08:06:05.176Z</time>
      </trkpt>
      <trkpt lat="45.69304" lon="5.70953">
        <ele>230</ele>
        <time>2022-04-16T08:06:06.175Z</time>
      </trkpt>
      <trkpt lat="45.69299" lon="5.70957">
        <ele>230</ele>
        <time>2022-04-16T08:06:07.176Z</time>
      </trkpt>
      <trkpt lat="45.69294" lon="5.70961">
        <ele>230</ele>
        <time>2022-04-16T08:06:08.176Z</time>
      </trkpt>
      <trkpt lat="45.69289" lon="5.70965">
        <ele>230</ele>
        <time>2022-04-16T08:06:09.175Z</time>
      </trkpt>
      <trkpt lat="45.69282" lon="5.70969">
        <ele>230</ele>
        <time>2022-04-16T08:06:10.176Z</time>
      </trkpt>
      <trkpt lat="45.69278" lon="5.70973">
        <ele>229</ele>
        <time>2022-04-16T08:06:11.175Z</time>
      </trkpt>
      <trkpt lat="45.69273" lon="5.70977">
        <ele>229</ele>
        <time>2022-04-16T08:06:12.176Z</time>
      </trkpt>
      <trkpt lat="45.69268" lon="5.70981">
        <ele>228</ele>
        <time>2022-04-16T08:06:13.176Z</time>
      </trkpt>
      <trkpt lat="45.69262" lon="5.70986">
        <ele>228</ele>
        <time>2022-04-16T08:06:14.175Z</time>
      </trkpt>
      <trkpt lat="45.69257" lon="5.7099">
        <ele>228</ele>
        <time>2022-04-16T08:06:15.176Z</time>
      </trkpt>
      <trkpt lat="45.69252" lon="5.70995">
        <ele>228</ele>
        <time>2022-04-16T08:06:16.176Z</time>
      </trkpt>
      <trkpt lat="45.69247" lon="5.70999">
        <ele>229</ele>
        <time>2022-04-16T08:06:17.175Z</time>
      </trkpt>
      <trkpt lat="45.69242" lon="5.71003">
        <ele>229</ele>
        <time>2022-04-16T08:06:18.175Z</time>
      </trkpt>
      <trkpt lat="45.69237" lon="5.71007">
        <ele>229</ele>
        <time>2022-04-16T08:06:19.176Z</time>
      </trkpt>
      <trkpt lat="45.69232" lon="5.71012">
        <ele>229</ele>
        <time>2022-04-16T08:06:20.175Z</time>
      </trkpt>
      <trkpt lat="45.69227" lon="5.71016">
        <ele>229</ele>
        <time>2022-04-16T08:06:21.176Z</time>
      </trkpt>
      <trkpt lat="45.69222" lon="5.71021">
        <ele>230</ele>
        <time>2022-04-16T08:06:22.176Z</time>
      </trkpt>
      <trkpt lat="45.69217" lon="5.71025">
        <ele>230</ele>
        <time>2022-04-16T08:06:23.175Z</time>
      </trkpt>
      <trkpt lat="45.69211" lon="5.7103">
        <ele>230</ele>
        <time>2022-04-16T08:06:24.176Z</time>
      </trkpt>
      <trkpt lat="45.69206" lon="5.71034">
        <ele>230</ele>
        <time>2022-04-16T08:06:25.175Z</time>
      </trkpt>
      <trkpt lat="45.692" lon="5.71038">
        <ele>230</ele>
        <time>2022-04-16T08:06:26.176Z</time>
      </trkpt>
      <trkpt lat="45.69195" lon="5.71042">
        <ele>230</ele>
        <time>2022-04-16T08:06:27.176Z</time>
      </trkpt>
      <trkpt lat="45.69189" lon="5.71045">
        <ele>230</ele>
        <time>2022-04-16T08:06:28.176Z</time>
      </trkpt>
      <trkpt lat="45.69183" lon="5.71049">
        <ele>230</ele>
        <time>2022-04-16T08:06:29.175Z</time>
      </trkpt>
      <trkpt lat="45.69178" lon="5.71052">
        <ele>230</ele>
        <time>2022-04-16T08:06:30.176Z</time>
      </trkpt>
      <trkpt lat="45.69172" lon="5.71054">
        <ele>229</ele>
        <time>2022-04-16T08:06:31.176Z</time>
      </trkpt>
      <trkpt lat="45.69166" lon="5.71057">
        <ele>229</ele>
        <time>2022-04-16T08:06:32.176Z</time>
      </trkpt>
      <trkpt lat="45.69161" lon="5.7106">
        <ele>229</ele>
        <time>2022-04-16T08:06:33.175Z</time>
      </trkpt>
      <trkpt lat="45.69156" lon="5.71064">
        <ele>228</ele>
        <time>2022-04-16T08:06:34.175Z</time>
      </trkpt>
      <trkpt lat="45.6915" lon="5.71069">
        <ele>228</ele>
        <time>2022-04-16T08:06:35.176Z</time>
      </trkpt>
      <trkpt lat="45.69146" lon="5.71074">
        <ele>228</ele>
        <time>2022-04-16T08:06:36.175Z</time>
      </trkpt>
      <trkpt lat="45.69143" lon="5.71081">
        <ele>228</ele>
        <time>2022-04-16T08:06:37.176Z</time>
      </trkpt>
      <trkpt lat="45.69141" lon="5.71089">
        <ele>227</ele>
        <time>2022-04-16T08:06:38.176Z</time>
      </trkpt>
      <trkpt lat="45.69139" lon="5.71097">
        <ele>227</ele>
        <time>2022-04-16T08:06:39.176Z</time>
      </trkpt>
      <trkpt lat="45.69138" lon="5.71106">
        <ele>227</ele>
        <time>2022-04-16T08:06:40.175Z</time>
      </trkpt>
      <trkpt lat="45.69137" lon="5.71114">
        <ele>227</ele>
        <time>2022-04-16T08:06:41.176Z</time>
      </trkpt>
      <trkpt lat="45.69136" lon="5.71122">
        <ele>227</ele>
        <time>2022-04-16T08:06:42.176Z</time>
      </trkpt>
      <trkpt lat="45.69134" lon="5.71131">
        <ele>227</ele>
        <time>2022-04-16T08:06:43.176Z</time>
      </trkpt>
      <trkpt lat="45.69133" lon="5.71139">
        <ele>226</ele>
        <time>2022-04-16T08:06:44.175Z</time>
      </trkpt>
      <trkpt lat="45.69132" lon="5.71147">
        <ele>226</ele>
        <time>2022-04-16T08:06:45.175Z</time>
      </trkpt>
      <trkpt lat="45.69131" lon="5.71155">
        <ele>226</ele>
        <time>2022-04-16T08:06:46.176Z</time>
      </trkpt>
      <trkpt lat="45.6913" lon="5.71163">
        <ele>226</ele>
        <time>2022-04-16T08:06:47.176Z</time>
      </trkpt>
      <trkpt lat="45.69129" lon="5.71171">
        <ele>226</ele>
        <time>2022-04-16T08:06:48.175Z</time>
      </trkpt>
      <trkpt lat="45.69128" lon="5.71179">
        <ele>226</ele>
        <time>2022-04-16T08:06:49.176Z</time>
      </trkpt>
      <trkpt lat="45.69127" lon="5.71186">
        <ele>225</ele>
        <time>2022-04-16T08:06:50.176Z</time>
      </trkpt>
      <trkpt lat="45.69126" lon="5.71194">
        <ele>225</ele>
        <time>2022-04-16T08:06:51.175Z</time>
      </trkpt>
      <trkpt lat="45.69125" lon="5.71202">
        <ele>225</ele>
        <time>2022-04-16T08:06:52.176Z</time>
      </trkpt>
      <trkpt lat="45.69124" lon="5.7121">
        <ele>225</ele>
        <time>2022-04-16T08:06:53.175Z</time>
      </trkpt>
      <trkpt lat="45.69123" lon="5.71217">
        <ele>225</ele>
        <time>2022-04-16T08:06:54.176Z</time>
      </trkpt>
      <trkpt lat="45.69122" lon="5.71225">
        <ele>225</ele>
        <time>2022-04-16T08:06:55.175Z</time>
      </trkpt>
      <trkpt lat="45.69121" lon="5.71233">
        <ele>225</ele>
        <time>2022-04-16T08:06:56.176Z</time>
      </trkpt>
      <trkpt lat="45.69119" lon="5.7124">
        <ele>225</ele>
        <time>2022-04-16T08:06:57.176Z</time>
      </trkpt>
      <trkpt lat="45.69118" lon="5.71248">
        <ele>226</ele>
        <time>2022-04-16T08:06:58.176Z</time>
      </trkpt>
      <trkpt lat="45.69116" lon="5.71254">
        <ele>226</ele>
        <time>2022-04-16T08:06:59.175Z</time>
      </trkpt>
      <trkpt lat="45.69114" lon="5.71258">
        <ele>227</ele>
        <time>2022-04-16T08:07:00.175Z</time>
      </trkpt>
      <trkpt lat="45.6911" lon="5.71261">
        <ele>227</ele>
        <time>2022-04-16T08:07:01.176Z</time>
      </trkpt>
      <trkpt lat="45.69107" lon="5.71262">
        <ele>227</ele>
        <time>2022-04-16T08:07:02.176Z</time>
      </trkpt>
      <trkpt lat="45.69103" lon="5.71262">
        <ele>227</ele>
        <time>2022-04-16T08:07:03.176Z</time>
      </trkpt>
      <trkpt lat="45.69101" lon="5.71261">
        <ele>227</ele>
        <time>2022-04-16T08:07:04.176Z</time>
      </trkpt>
      <trkpt lat="45.69097" lon="5.71259">
        <ele>227</ele>
        <time>2022-04-16T08:07:05.176Z</time>
      </trkpt>
      <trkpt lat="45.69092" lon="5.71256">
        <ele>227</ele>
        <time>2022-04-16T08:07:06.175Z</time>
      </trkpt>
      <trkpt lat="45.69087" lon="5.71252">
        <ele>227</ele>
        <time>2022-04-16T08:07:07.175Z</time>
      </trkpt>
      <trkpt lat="45.69082" lon="5.71249">
        <ele>227</ele>
        <time>2022-04-16T08:07:08.176Z</time>
      </trkpt>
      <trkpt lat="45.69078" lon="5.71245">
        <ele>227</ele>
        <time>2022-04-16T08:07:09.175Z</time>
      </trkpt>
      <trkpt lat="45.69074" lon="5.71241">
        <ele>227</ele>
        <time>2022-04-16T08:07:10.176Z</time>
      </trkpt>
      <trkpt lat="45.69069" lon="5.71236">
        <ele>227</ele>
        <time>2022-04-16T08:07:11.175Z</time>
      </trkpt>
      <trkpt lat="45.69064" lon="5.71232">
        <ele>228</ele>
        <time>2022-04-16T08:07:12.176Z</time>
      </trkpt>
      <trkpt lat="45.69059" lon="5.71228">
        <ele>228</ele>
        <time>2022-04-16T08:07:13.175Z</time>
      </trkpt>
      <trkpt lat="45.69054" lon="5.71225">
        <ele>228</ele>
        <time>2022-04-16T08:07:14.176Z</time>
      </trkpt>
      <trkpt lat="45.69049" lon="5.71221">
        <ele>229</ele>
        <time>2022-04-16T08:07:15.176Z</time>
      </trkpt>
      <trkpt lat="45.69044" lon="5.71218">
        <ele>229</ele>
        <time>2022-04-16T08:07:16.175Z</time>
      </trkpt>
      <trkpt lat="45.69038" lon="5.71214">
        <ele>229</ele>
        <time>2022-04-16T08:07:17.175Z</time>
      </trkpt>
      <trkpt lat="45.69032" lon="5.71211">
        <ele>229</ele>
        <time>2022-04-16T08:07:18.175Z</time>
      </trkpt>
      <trkpt lat="45.69027" lon="5.7121">
        <ele>229</ele>
        <time>2022-04-16T08:07:19.176Z</time>
      </trkpt>
      <trkpt lat="45.69021" lon="5.71207">
        <ele>229</ele>
        <time>2022-04-16T08:07:20.176Z</time>
      </trkpt>
      <trkpt lat="45.69015" lon="5.71203">
        <ele>229</ele>
        <time>2022-04-16T08:07:21.176Z</time>
      </trkpt>
      <trkpt lat="45.6901" lon="5.71201">
        <ele>229</ele>
        <time>2022-04-16T08:07:22.175Z</time>
      </trkpt>
      <trkpt lat="45.69005" lon="5.71198">
        <ele>229</ele>
        <time>2022-04-16T08:07:23.176Z</time>
      </trkpt>
      <trkpt lat="45.69001" lon="5.71196">
        <ele>230</ele>
        <time>2022-04-16T08:07:24.175Z</time>
      </trkpt>
      <trkpt lat="45.68995" lon="5.71194">
        <ele>230</ele>
        <time>2022-04-16T08:07:25.175Z</time>
      </trkpt>
      <trkpt lat="45.68988" lon="5.71192">
        <ele>230</ele>
        <time>2022-04-16T08:07:26.176Z</time>
      </trkpt>
      <trkpt lat="45.68982" lon="5.7119">
        <ele>230</ele>
        <time>2022-04-16T08:07:27.176Z</time>
      </trkpt>
      <trkpt lat="45.68978" lon="5.71189">
        <ele>229</ele>
        <time>2022-04-16T08:07:28.176Z</time>
      </trkpt>
      <trkpt lat="45.68971" lon="5.71186">
        <ele>229</ele>
        <time>2022-04-16T08:07:29.176Z</time>
      </trkpt>
      <trkpt lat="45.68965" lon="5.71184">
        <ele>229</ele>
        <time>2022-04-16T08:07:30.176Z</time>
      </trkpt>
      <trkpt lat="45.6896" lon="5.71182">
        <ele>229</ele>
        <time>2022-04-16T08:07:31.176Z</time>
      </trkpt>
      <trkpt lat="45.68954" lon="5.7118">
        <ele>229</ele>
        <time>2022-04-16T08:07:32.176Z</time>
      </trkpt>
      <trkpt lat="45.6895" lon="5.71179">
        <ele>230</ele>
        <time>2022-04-16T08:07:33.175Z</time>
      </trkpt>
      <trkpt lat="45.68944" lon="5.71177">
        <ele>230</ele>
        <time>2022-04-16T08:07:34.176Z</time>
      </trkpt>
      <trkpt lat="45.68939" lon="5.71176">
        <ele>230</ele>
        <time>2022-04-16T08:07:35.176Z</time>
      </trkpt>
      <trkpt lat="45.68933" lon="5.71173">
        <ele>231</ele>
        <time>2022-04-16T08:07:36.176Z</time>
      </trkpt>
      <trkpt lat="45.68927" lon="5.71172">
        <ele>231</ele>
        <time>2022-04-16T08:07:37.176Z</time>
      </trkpt>
      <trkpt lat="45.68922" lon="5.7117">
        <ele>231</ele>
        <time>2022-04-16T08:07:38.176Z</time>
      </trkpt>
      <trkpt lat="45.68917" lon="5.71167">
        <ele>232</ele>
        <time>2022-04-16T08:07:39.176Z</time>
      </trkpt>
      <trkpt lat="45.6891" lon="5.71165">
        <ele>231</ele>
        <time>2022-04-16T08:07:40.175Z</time>
      </trkpt>
      <trkpt lat="45.68904" lon="5.71162">
        <ele>231</ele>
        <time>2022-04-16T08:07:41.175Z</time>
      </trkpt>
      <trkpt lat="45.68899" lon="5.7116">
        <ele>230</ele>
        <time>2022-04-16T08:07:42.176Z</time>
      </trkpt>
      <trkpt lat="45.68893" lon="5.71157">
        <ele>230</ele>
        <time>2022-04-16T08:07:43.176Z</time>
      </trkpt>
      <trkpt lat="45.68889" lon="5.71155">
        <ele>229</ele>
        <time>2022-04-16T08:07:44.176Z</time>
      </trkpt>
      <trkpt lat="45.68884" lon="5.71153">
        <ele>229</ele>
        <time>2022-04-16T08:07:45.175Z</time>
      </trkpt>
      <trkpt lat="45.68878" lon="5.7115">
        <ele>229</ele>
        <time>2022-04-16T08:07:46.176Z</time>
      </trkpt>
      <trkpt lat="45.68873" lon="5.71149">
        <ele>229</ele>
        <time>2022-04-16T08:07:47.176Z</time>
      </trkpt>
      <trkpt lat="45.68869" lon="5.71147">
        <ele>229</ele>
        <time>2022-04-16T08:07:48.175Z</time>
      </trkpt>
      <trkpt lat="45.68865" lon="5.71146">
        <ele>229</ele>
        <time>2022-04-16T08:07:49.176Z</time>
      </trkpt>
      <trkpt lat="45.68859" lon="5.71144">
        <ele>229</ele>
        <time>2022-04-16T08:07:50.175Z</time>
      </trkpt>
      <trkpt lat="45.68854" lon="5.71143">
        <ele>229</ele>
        <time>2022-04-16T08:07:51.176Z</time>
      </trkpt>
      <trkpt lat="45.6885" lon="5.71142">
        <ele>230</ele>
        <time>2022-04-16T08:07:52.176Z</time>
      </trkpt>
      <trkpt lat="45.68846" lon="5.7114">
        <ele>230</ele>
        <time>2022-04-16T08:07:53.175Z</time>
      </trkpt>
      <trkpt lat="45.68841" lon="5.71139">
        <ele>231</ele>
        <time>2022-04-16T08:07:54.176Z</time>
      </trkpt>
      <trkpt lat="45.68837" lon="5.71138">
        <ele>232</ele>
        <time>2022-04-16T08:07:55.176Z</time>
      </trkpt>
      <trkpt lat="45.68833" lon="5.71137">
        <ele>232</ele>
        <time>2022-04-16T08:07:56.175Z</time>
      </trkpt>
      <trkpt lat="45.68828" lon="5.71136">
        <ele>233</ele>
        <time>2022-04-16T08:07:57.176Z</time>
      </trkpt>
      <trkpt lat="45.68824" lon="5.71135">
        <ele>234</ele>
        <time>2022-04-16T08:07:58.176Z</time>
      </trkpt>
      <trkpt lat="45.6882" lon="5.71134">
        <ele>234</ele>
        <time>2022-04-16T08:07:59.176Z</time>
      </trkpt>
      <trkpt lat="45.68817" lon="5.71133">
        <ele>235</ele>
        <time>2022-04-16T08:08:00.176Z</time>
      </trkpt>
      <trkpt lat="45.68813" lon="5.71132">
        <ele>236</ele>
        <time>2022-04-16T08:08:01.176Z</time>
      </trkpt>
      <trkpt lat="45.68809" lon="5.7113">
        <ele>237</ele>
        <time>2022-04-16T08:08:02.176Z</time>
      </trkpt>
      <trkpt lat="45.68805" lon="5.71129">
        <ele>237</ele>
        <time>2022-04-16T08:08:03.176Z</time>
      </trkpt>
      <trkpt lat="45.68801" lon="5.71128">
        <ele>238</ele>
        <time>2022-04-16T08:08:04.176Z</time>
      </trkpt>
      <trkpt lat="45.68796" lon="5.71126">
        <ele>238</ele>
        <time>2022-04-16T08:08:05.176Z</time>
      </trkpt>
      <trkpt lat="45.68792" lon="5.71125">
        <ele>238</ele>
        <time>2022-04-16T08:08:06.176Z</time>
      </trkpt>
      <trkpt lat="45.68788" lon="5.71123">
        <ele>238</ele>
        <time>2022-04-16T08:08:07.176Z</time>
      </trkpt>
      <trkpt lat="45.68785" lon="5.71121">
        <ele>238</ele>
        <time>2022-04-16T08:08:08.175Z</time>
      </trkpt>
      <trkpt lat="45.68782" lon="5.7112">
        <ele>238</ele>
        <time>2022-04-16T08:08:09.176Z</time>
      </trkpt>
      <trkpt lat="45.68778" lon="5.71118">
        <ele>239</ele>
        <time>2022-04-16T08:08:10.175Z</time>
      </trkpt>
      <trkpt lat="45.68774" lon="5.71116">
        <ele>239</ele>
        <time>2022-04-16T08:08:11.175Z</time>
      </trkpt>
      <trkpt lat="45.6877" lon="5.71114">
        <ele>239</ele>
        <time>2022-04-16T08:08:12.176Z</time>
      </trkpt>
      <trkpt lat="45.68766" lon="5.71111">
        <ele>239</ele>
        <time>2022-04-16T08:08:13.176Z</time>
      </trkpt>
      <trkpt lat="45.6876" lon="5.71108">
        <ele>239</ele>
        <time>2022-04-16T08:08:14.175Z</time>
      </trkpt>
      <trkpt lat="45.68755" lon="5.71106">
        <ele>238</ele>
        <time>2022-04-16T08:08:15.176Z</time>
      </trkpt>
      <trkpt lat="45.6875" lon="5.71103">
        <ele>237</ele>
        <time>2022-04-16T08:08:16.176Z</time>
      </trkpt>
      <trkpt lat="45.68746" lon="5.711">
        <ele>236</ele>
        <time>2022-04-16T08:08:17.176Z</time>
      </trkpt>
      <trkpt lat="45.68742" lon="5.71097">
        <ele>236</ele>
        <time>2022-04-16T08:08:18.175Z</time>
      </trkpt>
      <trkpt lat="45.68737" lon="5.71093">
        <ele>235</ele>
        <time>2022-04-16T08:08:19.176Z</time>
      </trkpt>
      <trkpt lat="45.68733" lon="5.7109">
        <ele>235</ele>
        <time>2022-04-16T08:08:20.175Z</time>
      </trkpt>
      <trkpt lat="45.68728" lon="5.71087">
        <ele>234</ele>
        <time>2022-04-16T08:08:21.175Z</time>
      </trkpt>
      <trkpt lat="45.68723" lon="5.71084">
        <ele>234</ele>
        <time>2022-04-16T08:08:22.176Z</time>
      </trkpt>
      <trkpt lat="45.68718" lon="5.71081">
        <ele>233</ele>
        <time>2022-04-16T08:08:23.176Z</time>
      </trkpt>
      <trkpt lat="45.68714" lon="5.71078">
        <ele>233</ele>
        <time>2022-04-16T08:08:24.175Z</time>
      </trkpt>
      <trkpt lat="45.68708" lon="5.71075">
        <ele>232</ele>
        <time>2022-04-16T08:08:25.176Z</time>
      </trkpt>
      <trkpt lat="45.68702" lon="5.71072">
        <ele>232</ele>
        <time>2022-04-16T08:08:26.176Z</time>
      </trkpt>
      <trkpt lat="45.68697" lon="5.7107">
        <ele>231</ele>
        <time>2022-04-16T08:08:27.176Z</time>
      </trkpt>
      <trkpt lat="45.68692" lon="5.71067">
        <ele>230</ele>
        <time>2022-04-16T08:08:28.176Z</time>
      </trkpt>
      <trkpt lat="45.68687" lon="5.71065">
        <ele>230</ele>
        <time>2022-04-16T08:08:29.176Z</time>
      </trkpt>
      <trkpt lat="45.68681" lon="5.71063">
        <ele>230</ele>
        <time>2022-04-16T08:08:30.176Z</time>
      </trkpt>
      <trkpt lat="45.68675" lon="5.71061">
        <ele>230</ele>
        <time>2022-04-16T08:08:31.176Z</time>
      </trkpt>
      <trkpt lat="45.68669" lon="5.71059">
        <ele>230</ele>
        <time>2022-04-16T08:08:32.176Z</time>
      </trkpt>
      <trkpt lat="45.68663" lon="5.71056">
        <ele>230</ele>
        <time>2022-04-16T08:08:33.175Z</time>
      </trkpt>
      <trkpt lat="45.68657" lon="5.71054">
        <ele>230</ele>
        <time>2022-04-16T08:08:34.176Z</time>
      </trkpt>
      <trkpt lat="45.68651" lon="5.71052">
        <ele>229</ele>
        <time>2022-04-16T08:08:35.175Z</time>
      </trkpt>
      <trkpt lat="45.68645" lon="5.7105">
        <ele>229</ele>
        <time>2022-04-16T08:08:36.175Z</time>
      </trkpt>
      <trkpt lat="45.68639" lon="5.71047">
        <ele>229</ele>
        <time>2022-04-16T08:08:37.176Z</time>
      </trkpt>
      <trkpt lat="45.68634" lon="5.71045">
        <ele>228</ele>
        <time>2022-04-16T08:08:38.175Z</time>
      </trkpt>
      <trkpt lat="45.68627" lon="5.71042">
        <ele>228</ele>
        <time>2022-04-16T08:08:39.175Z</time>
      </trkpt>
      <trkpt lat="45.68621" lon="5.71039">
        <ele>228</ele>
        <time>2022-04-16T08:08:40.175Z</time>
      </trkpt>
      <trkpt lat="45.68615" lon="5.71036">
        <ele>228</ele>
        <time>2022-04-16T08:08:41.176Z</time>
      </trkpt>
      <trkpt lat="45.68609" lon="5.71032">
        <ele>229</ele>
        <time>2022-04-16T08:08:42.176Z</time>
      </trkpt>
      <trkpt lat="45.68604" lon="5.71029">
        <ele>229</ele>
        <time>2022-04-16T08:08:43.175Z</time>
      </trkpt>
      <trkpt lat="45.68599" lon="5.71026">
        <ele>229</ele>
        <time>2022-04-16T08:08:44.176Z</time>
      </trkpt>
      <trkpt lat="45.68593" lon="5.71023">
        <ele>229</ele>
        <time>2022-04-16T08:08:45.176Z</time>
      </trkpt>
      <trkpt lat="45.68588" lon="5.7102">
        <ele>229</ele>
        <time>2022-04-16T08:08:46.176Z</time>
      </trkpt>
      <trkpt lat="45.68583" lon="5.71018">
        <ele>228</ele>
        <time>2022-04-16T08:08:47.176Z</time>
      </trkpt>
      <trkpt lat="45.68577" lon="5.71015">
        <ele>228</ele>
        <time>2022-04-16T08:08:48.176Z</time>
      </trkpt>
      <trkpt lat="45.68571" lon="5.71011">
        <ele>228</ele>
        <time>2022-04-16T08:08:49.175Z</time>
      </trkpt>
      <trkpt lat="45.68565" lon="5.71008">
        <ele>228</ele>
        <time>2022-04-16T08:08:50.175Z</time>
      </trkpt>
      <trkpt lat="45.6856" lon="5.71005">
        <ele>228</ele>
        <time>2022-04-16T08:08:51.176Z</time>
      </trkpt>
      <trkpt lat="45.68555" lon="5.71002">
        <ele>228</ele>
        <time>2022-04-16T08:08:52.176Z</time>
      </trkpt>
      <trkpt lat="45.68549" lon="5.70998">
        <ele>228</ele>
        <time>2022-04-16T08:08:53.176Z</time>
      </trkpt>
      <trkpt lat="45.68543" lon="5.70995">
        <ele>228</ele>
        <time>2022-04-16T08:08:54.176Z</time>
      </trkpt>
      <trkpt lat="45.68537" lon="5.70992">
        <ele>227</ele>
        <time>2022-04-16T08:08:55.175Z</time>
      </trkpt>
      <trkpt lat="45.68532" lon="5.70989">
        <ele>227</ele>
        <time>2022-04-16T08:08:56.176Z</time>
      </trkpt>
      <trkpt lat="45.68527" lon="5.70986">
        <ele>227</ele>
        <time>2022-04-16T08:08:57.176Z</time>
      </trkpt>
      <trkpt lat="45.68521" lon="5.70982">
        <ele>227</ele>
        <time>2022-04-16T08:08:58.176Z</time>
      </trkpt>
      <trkpt lat="45.68516" lon="5.70979">
        <ele>227</ele>
        <time>2022-04-16T08:08:59.176Z</time>
      </trkpt>
      <trkpt lat="45.6851" lon="5.70976">
        <ele>227</ele>
        <time>2022-04-16T08:09:00.176Z</time>
      </trkpt>
      <trkpt lat="45.68505" lon="5.70972">
        <ele>228</ele>
        <time>2022-04-16T08:09:01.176Z</time>
      </trkpt>
      <trkpt lat="45.685" lon="5.70969">
        <ele>228</ele>
        <time>2022-04-16T08:09:02.176Z</time>
      </trkpt>
      <trkpt lat="45.68495" lon="5.70966">
        <ele>228</ele>
        <time>2022-04-16T08:09:03.175Z</time>
      </trkpt>
      <trkpt lat="45.6849" lon="5.70962">
        <ele>228</ele>
        <time>2022-04-16T08:09:04.175Z</time>
      </trkpt>
      <trkpt lat="45.68485" lon="5.70958">
        <ele>228</ele>
        <time>2022-04-16T08:09:05.175Z</time>
      </trkpt>
      <trkpt lat="45.6848" lon="5.70954">
        <ele>229</ele>
        <time>2022-04-16T08:09:06.176Z</time>
      </trkpt>
      <trkpt lat="45.68474" lon="5.70951">
        <ele>229</ele>
        <time>2022-04-16T08:09:07.176Z</time>
      </trkpt>
      <trkpt lat="45.68469" lon="5.70947">
        <ele>229</ele>
        <time>2022-04-16T08:09:08.175Z</time>
      </trkpt>
      <trkpt lat="45.68464" lon="5.70943">
        <ele>229</ele>
        <time>2022-04-16T08:09:09.176Z</time>
      </trkpt>
      <trkpt lat="45.68459" lon="5.70939">
        <ele>229</ele>
        <time>2022-04-16T08:09:10.176Z</time>
      </trkpt>
      <trkpt lat="45.68455" lon="5.70936">
        <ele>229</ele>
        <time>2022-04-16T08:09:11.175Z</time>
      </trkpt>
      <trkpt lat="45.6845" lon="5.70933">
        <ele>229</ele>
        <time>2022-04-16T08:09:12.176Z</time>
      </trkpt>
      <trkpt lat="45.68443" lon="5.70929">
        <ele>229</ele>
        <time>2022-04-16T08:09:13.176Z</time>
      </trkpt>
      <trkpt lat="45.68438" lon="5.70925">
        <ele>229</ele>
        <time>2022-04-16T08:09:14.176Z</time>
      </trkpt>
      <trkpt lat="45.68433" lon="5.70922">
        <ele>229</ele>
        <time>2022-04-16T08:09:15.176Z</time>
      </trkpt>
      <trkpt lat="45.68428" lon="5.70919">
        <ele>230</ele>
        <time>2022-04-16T08:09:16.175Z</time>
      </trkpt>
      <trkpt lat="45.68422" lon="5.70916">
        <ele>230</ele>
        <time>2022-04-16T08:09:17.176Z</time>
      </trkpt>
      <trkpt lat="45.68418" lon="5.70914">
        <ele>231</ele>
        <time>2022-04-16T08:09:18.175Z</time>
      </trkpt>
      <trkpt lat="45.68411" lon="5.7091">
        <ele>231</ele>
        <time>2022-04-16T08:09:19.175Z</time>
      </trkpt>
      <trkpt lat="45.68406" lon="5.70908">
        <ele>231</ele>
        <time>2022-04-16T08:09:20.176Z</time>
      </trkpt>
      <trkpt lat="45.68401" lon="5.70906">
        <ele>231</ele>
        <time>2022-04-16T08:09:21.175Z</time>
      </trkpt>
      <trkpt lat="45.68396" lon="5.70904">
        <ele>232</ele>
        <time>2022-04-16T08:09:22.175Z</time>
      </trkpt>
      <trkpt lat="45.68389" lon="5.70901">
        <ele>232</ele>
        <time>2022-04-16T08:09:23.176Z</time>
      </trkpt>
      <trkpt lat="45.68384" lon="5.709">
        <ele>232</ele>
        <time>2022-04-16T08:09:24.176Z</time>
      </trkpt>
      <trkpt lat="45.68376" lon="5.70898">
        <ele>232</ele>
        <time>2022-04-16T08:09:25.176Z</time>
      </trkpt>
      <trkpt lat="45.6837" lon="5.70897">
        <ele>232</ele>
        <time>2022-04-16T08:09:26.175Z</time>
      </trkpt>
      <trkpt lat="45.68364" lon="5.70895">
        <ele>232</ele>
        <time>2022-04-16T08:09:27.176Z</time>
      </trkpt>
      <trkpt lat="45.68357" lon="5.70895">
        <ele>232</ele>
        <time>2022-04-16T08:09:28.176Z</time>
      </trkpt>
      <trkpt lat="45.6835" lon="5.70894">
        <ele>232</ele>
        <time>2022-04-16T08:09:29.176Z</time>
      </trkpt>
      <trkpt lat="45.68344" lon="5.70892">
        <ele>232</ele>
        <time>2022-04-16T08:09:30.175Z</time>
      </trkpt>
      <trkpt lat="45.68337" lon="5.70891">
        <ele>232</ele>
        <time>2022-04-16T08:09:31.176Z</time>
      </trkpt>
      <trkpt lat="45.6833" lon="5.70889">
        <ele>232</ele>
        <time>2022-04-16T08:09:32.176Z</time>
      </trkpt>
      <trkpt lat="45.68324" lon="5.70887">
        <ele>232</ele>
        <time>2022-04-16T08:09:33.176Z</time>
      </trkpt>
      <trkpt lat="45.68317" lon="5.70886">
        <ele>232</ele>
        <time>2022-04-16T08:09:34.176Z</time>
      </trkpt>
      <trkpt lat="45.6831" lon="5.70885">
        <ele>232</ele>
        <time>2022-04-16T08:09:35.176Z</time>
      </trkpt>
      <trkpt lat="45.68304" lon="5.70884">
        <ele>232</ele>
        <time>2022-04-16T08:09:36.176Z</time>
      </trkpt>
      <trkpt lat="45.68298" lon="5.70883">
        <ele>232</ele>
        <time>2022-04-16T08:09:37.175Z</time>
      </trkpt>
      <trkpt lat="45.68291" lon="5.70883">
        <ele>232</ele>
        <time>2022-04-16T08:09:38.176Z</time>
      </trkpt>
      <trkpt lat="45.68284" lon="5.70882">
        <ele>232</ele>
        <time>2022-04-16T08:09:39.176Z</time>
      </trkpt>
      <trkpt lat="45.68278" lon="5.70882">
        <ele>232</ele>
        <time>2022-04-16T08:09:40.175Z</time>
      </trkpt>
      <trkpt lat="45.68272" lon="5.70881">
        <ele>232</ele>
        <time>2022-04-16T08:09:41.176Z</time>
      </trkpt>
      <trkpt lat="45.68267" lon="5.7088">
        <ele>232</ele>
        <time>2022-04-16T08:09:42.176Z</time>
      </trkpt>
      <trkpt lat="45.68262" lon="5.7088">
        <ele>232</ele>
        <time>2022-04-16T08:09:43.175Z</time>
      </trkpt>
      <trkpt lat="45.68255" lon="5.70879">
        <ele>232</ele>
        <time>2022-04-16T08:09:44.176Z</time>
      </trkpt>
      <trkpt lat="45.6825" lon="5.70878">
        <ele>233</ele>
        <time>2022-04-16T08:09:45.176Z</time>
      </trkpt>
      <trkpt lat="45.68244" lon="5.70876">
        <ele>233</ele>
        <time>2022-04-16T08:09:46.175Z</time>
      </trkpt>
      <trkpt lat="45.68239" lon="5.70875">
        <ele>234</ele>
        <time>2022-04-16T08:09:47.176Z</time>
      </trkpt>
      <trkpt lat="45.68234" lon="5.70873">
        <ele>234</ele>
        <time>2022-04-16T08:09:48.176Z</time>
      </trkpt>
      <trkpt lat="45.68229" lon="5.70872">
        <ele>234</ele>
        <time>2022-04-16T08:09:49.176Z</time>
      </trkpt>
      <trkpt lat="45.68224" lon="5.7087">
        <ele>234</ele>
        <time>2022-04-16T08:09:50.175Z</time>
      </trkpt>
      <trkpt lat="45.68218" lon="5.70868">
        <ele>234</ele>
        <time>2022-04-16T08:09:51.176Z</time>
      </trkpt>
      <trkpt lat="45.68214" lon="5.70867">
        <ele>233</ele>
        <time>2022-04-16T08:09:52.175Z</time>
      </trkpt>
      <trkpt lat="45.68208" lon="5.70864">
        <ele>233</ele>
        <time>2022-04-16T08:09:53.175Z</time>
      </trkpt>
      <trkpt lat="45.68202" lon="5.70862">
        <ele>232</ele>
        <time>2022-04-16T08:09:54.176Z</time>
      </trkpt>
      <trkpt lat="45.68196" lon="5.7086">
        <ele>231</ele>
        <time>2022-04-16T08:09:55.175Z</time>
      </trkpt>
      <trkpt lat="45.68192" lon="5.70858">
        <ele>230</ele>
        <time>2022-04-16T08:09:56.176Z</time>
      </trkpt>
      <trkpt lat="45.68185" lon="5.70855">
        <ele>230</ele>
        <time>2022-04-16T08:09:57.176Z</time>
      </trkpt>
      <trkpt lat="45.68179" lon="5.70852">
        <ele>229</ele>
        <time>2022-04-16T08:09:58.176Z</time>
      </trkpt>
      <trkpt lat="45.68175" lon="5.70849">
        <ele>229</ele>
        <time>2022-04-16T08:09:59.175Z</time>
      </trkpt>
      <trkpt lat="45.68169" lon="5.70846">
        <ele>228</ele>
        <time>2022-04-16T08:10:00.176Z</time>
      </trkpt>
      <trkpt lat="45.68165" lon="5.70844">
        <ele>228</ele>
        <time>2022-04-16T08:10:01.176Z</time>
      </trkpt>
      <trkpt lat="45.6816" lon="5.70841">
        <ele>228</ele>
        <time>2022-04-16T08:10:02.176Z</time>
      </trkpt>
      <trkpt lat="45.68154" lon="5.70838">
        <ele>228</ele>
        <time>2022-04-16T08:10:03.176Z</time>
      </trkpt>
      <trkpt lat="45.68149" lon="5.70835">
        <ele>228</ele>
        <time>2022-04-16T08:10:04.176Z</time>
      </trkpt>
      <trkpt lat="45.68144" lon="5.70832">
        <ele>228</ele>
        <time>2022-04-16T08:10:05.176Z</time>
      </trkpt>
      <trkpt lat="45.68139" lon="5.70829">
        <ele>227</ele>
        <time>2022-04-16T08:10:06.176Z</time>
      </trkpt>
      <trkpt lat="45.68135" lon="5.70827">
        <ele>227</ele>
        <time>2022-04-16T08:10:07.176Z</time>
      </trkpt>
      <trkpt lat="45.68129" lon="5.70823">
        <ele>227</ele>
        <time>2022-04-16T08:10:08.176Z</time>
      </trkpt>
      <trkpt lat="45.68124" lon="5.7082">
        <ele>227</ele>
        <time>2022-04-16T08:10:09.176Z</time>
      </trkpt>
      <trkpt lat="45.6812" lon="5.70818">
        <ele>227</ele>
        <time>2022-04-16T08:10:10.175Z</time>
      </trkpt>
      <trkpt lat="45.68116" lon="5.70815">
        <ele>227</ele>
        <time>2022-04-16T08:10:11.176Z</time>
      </trkpt>
      <trkpt lat="45.68111" lon="5.70811">
        <ele>227</ele>
        <time>2022-04-16T08:10:12.175Z</time>
      </trkpt>
      <trkpt lat="45.68105" lon="5.70807">
        <ele>227</ele>
        <time>2022-04-16T08:10:13.176Z</time>
      </trkpt>
      <trkpt lat="45.681" lon="5.70804">
        <ele>227</ele>
        <time>2022-04-16T08:10:14.175Z</time>
      </trkpt>
      <trkpt lat="45.68096" lon="5.70801">
        <ele>227</ele>
        <time>2022-04-16T08:10:15.176Z</time>
      </trkpt>
      <trkpt lat="45.68092" lon="5.70797">
        <ele>227</ele>
        <time>2022-04-16T08:10:16.176Z</time>
      </trkpt>
      <trkpt lat="45.68087" lon="5.70793">
        <ele>227</ele>
        <time>2022-04-16T08:10:17.176Z</time>
      </trkpt>
      <trkpt lat="45.68081" lon="5.70788">
        <ele>227</ele>
        <time>2022-04-16T08:10:18.176Z</time>
      </trkpt>
      <trkpt lat="45.68076" lon="5.70783">
        <ele>227</ele>
        <time>2022-04-16T08:10:19.176Z</time>
      </trkpt>
      <trkpt lat="45.68071" lon="5.70778">
        <ele>227</ele>
        <time>2022-04-16T08:10:20.176Z</time>
      </trkpt>
      <trkpt lat="45.68067" lon="5.70775">
        <ele>227</ele>
        <time>2022-04-16T08:10:21.176Z</time>
      </trkpt>
      <trkpt lat="45.68062" lon="5.70771">
        <ele>226</ele>
        <time>2022-04-16T08:10:22.176Z</time>
      </trkpt>
      <trkpt lat="45.68057" lon="5.70766">
        <ele>226</ele>
        <time>2022-04-16T08:10:23.176Z</time>
      </trkpt>
      <trkpt lat="45.68052" lon="5.70762">
        <ele>226</ele>
        <time>2022-04-16T08:10:24.175Z</time>
      </trkpt>
      <trkpt lat="45.68047" lon="5.70758">
        <ele>226</ele>
        <time>2022-04-16T08:10:25.176Z</time>
      </trkpt>
      <trkpt lat="45.68042" lon="5.70754">
        <ele>226</ele>
        <time>2022-04-16T08:10:26.176Z</time>
      </trkpt>
      <trkpt lat="45.68036" lon="5.70751">
        <ele>225</ele>
        <time>2022-04-16T08:10:27.176Z</time>
      </trkpt>
      <trkpt lat="45.68031" lon="5.70747">
        <ele>225</ele>
        <time>2022-04-16T08:10:28.175Z</time>
      </trkpt>
      <trkpt lat="45.68026" lon="5.70744">
        <ele>225</ele>
        <time>2022-04-16T08:10:29.175Z</time>
      </trkpt>
      <trkpt lat="45.68019" lon="5.7074">
        <ele>225</ele>
        <time>2022-04-16T08:10:30.176Z</time>
      </trkpt>
      <trkpt lat="45.68015" lon="5.70739">
        <ele>224</ele>
        <time>2022-04-16T08:10:31.175Z</time>
      </trkpt>
      <trkpt lat="45.6801" lon="5.70737">
        <ele>224</ele>
        <time>2022-04-16T08:10:32.176Z</time>
      </trkpt>
      <trkpt lat="45.68004" lon="5.70736">
        <ele>224</ele>
        <time>2022-04-16T08:10:33.176Z</time>
      </trkpt>
      <trkpt lat="45.67998" lon="5.70735">
        <ele>223</ele>
        <time>2022-04-16T08:10:34.176Z</time>
      </trkpt>
      <trkpt lat="45.67993" lon="5.70735">
        <ele>223</ele>
        <time>2022-04-16T08:10:35.176Z</time>
      </trkpt>
      <trkpt lat="45.67987" lon="5.70734">
        <ele>223</ele>
        <time>2022-04-16T08:10:36.176Z</time>
      </trkpt>
      <trkpt lat="45.67982" lon="5.70733">
        <ele>223</ele>
        <time>2022-04-16T08:10:37.176Z</time>
      </trkpt>
      <trkpt lat="45.67976" lon="5.70731">
        <ele>224</ele>
        <time>2022-04-16T08:10:38.175Z</time>
      </trkpt>
      <trkpt lat="45.67971" lon="5.7073">
        <ele>224</ele>
        <time>2022-04-16T08:10:39.176Z</time>
      </trkpt>
      <trkpt lat="45.67966" lon="5.70728">
        <ele>224</ele>
        <time>2022-04-16T08:10:40.176Z</time>
      </trkpt>
      <trkpt lat="45.67961" lon="5.70725">
        <ele>224</ele>
        <time>2022-04-16T08:10:41.175Z</time>
      </trkpt>
      <trkpt lat="45.67956" lon="5.70721">
        <ele>224</ele>
        <time>2022-04-16T08:10:42.176Z</time>
      </trkpt>
      <trkpt lat="45.6795" lon="5.70717">
        <ele>223</ele>
        <time>2022-04-16T08:10:43.176Z</time>
      </trkpt>
      <trkpt lat="45.67945" lon="5.70713">
        <ele>223</ele>
        <time>2022-04-16T08:10:44.176Z</time>
      </trkpt>
      <trkpt lat="45.6794" lon="5.70709">
        <ele>223</ele>
        <time>2022-04-16T08:10:45.175Z</time>
      </trkpt>
      <trkpt lat="45.67935" lon="5.70706">
        <ele>224</ele>
        <time>2022-04-16T08:10:46.176Z</time>
      </trkpt>
      <trkpt lat="45.6793" lon="5.70703">
        <ele>224</ele>
        <time>2022-04-16T08:10:47.176Z</time>
      </trkpt>
      <trkpt lat="45.67924" lon="5.70699">
        <ele>224</ele>
        <time>2022-04-16T08:10:48.175Z</time>
      </trkpt>
      <trkpt lat="45.67919" lon="5.70695">
        <ele>224</ele>
        <time>2022-04-16T08:10:49.176Z</time>
      </trkpt>
      <trkpt lat="45.67913" lon="5.70692">
        <ele>224</ele>
        <time>2022-04-16T08:10:50.176Z</time>
      </trkpt>
      <trkpt lat="45.67909" lon="5.70689">
        <ele>224</ele>
        <time>2022-04-16T08:10:51.175Z</time>
      </trkpt>
      <trkpt lat="45.67904" lon="5.70685">
        <ele>224</ele>
        <time>2022-04-16T08:10:52.176Z</time>
      </trkpt>
      <trkpt lat="45.67899" lon="5.70681">
        <ele>224</ele>
        <time>2022-04-16T08:10:53.176Z</time>
      </trkpt>
      <trkpt lat="45.67893" lon="5.70676">
        <ele>224</ele>
        <time>2022-04-16T08:10:54.176Z</time>
      </trkpt>
      <trkpt lat="45.67888" lon="5.70671">
        <ele>224</ele>
        <time>2022-04-16T08:10:55.176Z</time>
      </trkpt>
      <trkpt lat="45.67884" lon="5.70668">
        <ele>224</ele>
        <time>2022-04-16T08:10:56.176Z</time>
      </trkpt>
      <trkpt lat="45.67879" lon="5.70664">
        <ele>224</ele>
        <time>2022-04-16T08:10:57.176Z</time>
      </trkpt>
      <trkpt lat="45.67874" lon="5.70659">
        <ele>224</ele>
        <time>2022-04-16T08:10:58.176Z</time>
      </trkpt>
      <trkpt lat="45.67868" lon="5.70653">
        <ele>224</ele>
        <time>2022-04-16T08:10:59.176Z</time>
      </trkpt>
      <trkpt lat="45.67864" lon="5.70648">
        <ele>225</ele>
        <time>2022-04-16T08:11:00.176Z</time>
      </trkpt>
      <trkpt lat="45.67859" lon="5.70643">
        <ele>225</ele>
        <time>2022-04-16T08:11:01.175Z</time>
      </trkpt>
      <trkpt lat="45.67855" lon="5.70638">
        <ele>225</ele>
        <time>2022-04-16T08:11:02.176Z</time>
      </trkpt>
      <trkpt lat="45.6785" lon="5.70632">
        <ele>225</ele>
        <time>2022-04-16T08:11:03.176Z</time>
      </trkpt>
      <trkpt lat="45.67846" lon="5.70626">
        <ele>225</ele>
        <time>2022-04-16T08:11:04.176Z</time>
      </trkpt>
      <trkpt lat="45.67842" lon="5.70621">
        <ele>225</ele>
        <time>2022-04-16T08:11:05.175Z</time>
      </trkpt>
      <trkpt lat="45.67837" lon="5.70615">
        <ele>225</ele>
        <time>2022-04-16T08:11:06.176Z</time>
      </trkpt>
      <trkpt lat="45.67834" lon="5.7061">
        <ele>225</ele>
        <time>2022-04-16T08:11:07.176Z</time>
      </trkpt>
      <trkpt lat="45.6783" lon="5.70604">
        <ele>225</ele>
        <time>2022-04-16T08:11:08.176Z</time>
      </trkpt>
      <trkpt lat="45.67825" lon="5.70597">
        <ele>225</ele>
        <time>2022-04-16T08:11:09.176Z</time>
      </trkpt>
      <trkpt lat="45.6782" lon="5.70592">
        <ele>225</ele>
        <time>2022-04-16T08:11:10.176Z</time>
      </trkpt>
      <trkpt lat="45.67817" lon="5.70587">
        <ele>225</ele>
        <time>2022-04-16T08:11:11.176Z</time>
      </trkpt>
      <trkpt lat="45.67813" lon="5.70581">
        <ele>225</ele>
        <time>2022-04-16T08:11:12.176Z</time>
      </trkpt>
      <trkpt lat="45.67809" lon="5.70575">
        <ele>225</ele>
        <time>2022-04-16T08:11:13.176Z</time>
      </trkpt>
      <trkpt lat="45.67803" lon="5.70568">
        <ele>225</ele>
        <time>2022-04-16T08:11:14.176Z</time>
      </trkpt>
      <trkpt lat="45.67799" lon="5.70562">
        <ele>225</ele>
        <time>2022-04-16T08:11:15.176Z</time>
      </trkpt>
      <trkpt lat="45.67796" lon="5.70557">
        <ele>225</ele>
        <time>2022-04-16T08:11:16.176Z</time>
      </trkpt>
      <trkpt lat="45.67792" lon="5.70551">
        <ele>226</ele>
        <time>2022-04-16T08:11:17.176Z</time>
      </trkpt>
      <trkpt lat="45.67787" lon="5.70544">
        <ele>226</ele>
        <time>2022-04-16T08:11:18.176Z</time>
      </trkpt>
      <trkpt lat="45.67784" lon="5.70539">
        <ele>226</ele>
        <time>2022-04-16T08:11:19.176Z</time>
      </trkpt>
      <trkpt lat="45.6778" lon="5.70533">
        <ele>226</ele>
        <time>2022-04-16T08:11:20.175Z</time>
      </trkpt>
      <trkpt lat="45.67776" lon="5.70527">
        <ele>226</ele>
        <time>2022-04-16T08:11:21.176Z</time>
      </trkpt>
      <trkpt lat="45.67771" lon="5.70521">
        <ele>226</ele>
        <time>2022-04-16T08:11:22.176Z</time>
      </trkpt>
      <trkpt lat="45.67766" lon="5.70513">
        <ele>226</ele>
        <time>2022-04-16T08:11:23.176Z</time>
      </trkpt>
      <trkpt lat="45.67763" lon="5.70508">
        <ele>226</ele>
        <time>2022-04-16T08:11:24.175Z</time>
      </trkpt>
      <trkpt lat="45.67758" lon="5.70501">
        <ele>226</ele>
        <time>2022-04-16T08:11:25.175Z</time>
      </trkpt>
      <trkpt lat="45.67755" lon="5.70496">
        <ele>226</ele>
        <time>2022-04-16T08:11:26.176Z</time>
      </trkpt>
      <trkpt lat="45.67751" lon="5.70489">
        <ele>226</ele>
        <time>2022-04-16T08:11:27.176Z</time>
      </trkpt>
      <trkpt lat="45.67748" lon="5.70483">
        <ele>226</ele>
        <time>2022-04-16T08:11:28.176Z</time>
      </trkpt>
      <trkpt lat="45.67743" lon="5.70475">
        <ele>226</ele>
        <time>2022-04-16T08:11:29.176Z</time>
      </trkpt>
      <trkpt lat="45.67739" lon="5.70469">
        <ele>226</ele>
        <time>2022-04-16T08:11:30.175Z</time>
      </trkpt>
      <trkpt lat="45.67736" lon="5.70464">
        <ele>226</ele>
        <time>2022-04-16T08:11:31.176Z</time>
      </trkpt>
      <trkpt lat="45.67732" lon="5.70458">
        <ele>226</ele>
        <time>2022-04-16T08:11:32.176Z</time>
      </trkpt>
      <trkpt lat="45.67728" lon="5.7045">
        <ele>225</ele>
        <time>2022-04-16T08:11:33.176Z</time>
      </trkpt>
      <trkpt lat="45.67724" lon="5.70444">
        <ele>225</ele>
        <time>2022-04-16T08:11:34.176Z</time>
      </trkpt>
      <trkpt lat="45.67721" lon="5.70438">
        <ele>225</ele>
        <time>2022-04-16T08:11:35.176Z</time>
      </trkpt>
      <trkpt lat="45.67718" lon="5.70433">
        <ele>225</ele>
        <time>2022-04-16T08:11:36.176Z</time>
      </trkpt>
      <trkpt lat="45.67714" lon="5.70427">
        <ele>225</ele>
        <time>2022-04-16T08:11:37.176Z</time>
      </trkpt>
      <trkpt lat="45.67711" lon="5.7042">
        <ele>225</ele>
        <time>2022-04-16T08:11:38.176Z</time>
      </trkpt>
      <trkpt lat="45.67707" lon="5.70414">
        <ele>226</ele>
        <time>2022-04-16T08:11:39.176Z</time>
      </trkpt>
      <trkpt lat="45.67703" lon="5.70407">
        <ele>226</ele>
        <time>2022-04-16T08:11:40.176Z</time>
      </trkpt>
      <trkpt lat="45.67701" lon="5.70402">
        <ele>226</ele>
        <time>2022-04-16T08:11:41.175Z</time>
      </trkpt>
      <trkpt lat="45.67697" lon="5.70396">
        <ele>226</ele>
        <time>2022-04-16T08:11:42.176Z</time>
      </trkpt>
      <trkpt lat="45.67693" lon="5.70391">
        <ele>225</ele>
        <time>2022-04-16T08:11:43.176Z</time>
      </trkpt>
      <trkpt lat="45.67689" lon="5.70383">
        <ele>225</ele>
        <time>2022-04-16T08:11:44.176Z</time>
      </trkpt>
      <trkpt lat="45.67685" lon="5.70377">
        <ele>225</ele>
        <time>2022-04-16T08:11:45.175Z</time>
      </trkpt>
      <trkpt lat="45.67682" lon="5.70371">
        <ele>225</ele>
        <time>2022-04-16T08:11:46.176Z</time>
      </trkpt>
      <trkpt lat="45.67679" lon="5.70366">
        <ele>225</ele>
        <time>2022-04-16T08:11:47.176Z</time>
      </trkpt>
      <trkpt lat="45.67675" lon="5.7036">
        <ele>225</ele>
        <time>2022-04-16T08:11:48.176Z</time>
      </trkpt>
      <trkpt lat="45.67672" lon="5.70354">
        <ele>225</ele>
        <time>2022-04-16T08:11:49.176Z</time>
      </trkpt>
      <trkpt lat="45.67668" lon="5.70347">
        <ele>225</ele>
        <time>2022-04-16T08:11:50.175Z</time>
      </trkpt>
      <trkpt lat="45.67664" lon="5.70341">
        <ele>225</ele>
        <time>2022-04-16T08:11:51.175Z</time>
      </trkpt>
      <trkpt lat="45.67662" lon="5.70336">
        <ele>225</ele>
        <time>2022-04-16T08:11:52.176Z</time>
      </trkpt>
      <trkpt lat="45.67658" lon="5.7033">
        <ele>226</ele>
        <time>2022-04-16T08:11:53.175Z</time>
      </trkpt>
      <trkpt lat="45.67654" lon="5.70323">
        <ele>226</ele>
        <time>2022-04-16T08:11:54.176Z</time>
      </trkpt>
      <trkpt lat="45.6765" lon="5.70317">
        <ele>226</ele>
        <time>2022-04-16T08:11:55.176Z</time>
      </trkpt>
      <trkpt lat="45.67647" lon="5.70311">
        <ele>227</ele>
        <time>2022-04-16T08:11:56.176Z</time>
      </trkpt>
      <trkpt lat="45.67644" lon="5.70305">
        <ele>227</ele>
        <time>2022-04-16T08:11:57.175Z</time>
      </trkpt>
      <trkpt lat="45.67641" lon="5.70301">
        <ele>227</ele>
        <time>2022-04-16T08:11:58.175Z</time>
      </trkpt>
      <trkpt lat="45.67637" lon="5.70293">
        <ele>227</ele>
        <time>2022-04-16T08:11:59.176Z</time>
      </trkpt>
      <trkpt lat="45.67633" lon="5.70287">
        <ele>227</ele>
        <time>2022-04-16T08:12:00.175Z</time>
      </trkpt>
      <trkpt lat="45.6763" lon="5.70283">
        <ele>227</ele>
        <time>2022-04-16T08:12:01.175Z</time>
      </trkpt>
      <trkpt lat="45.67626" lon="5.70277">
        <ele>226</ele>
        <time>2022-04-16T08:12:02.176Z</time>
      </trkpt>
      <trkpt lat="45.67622" lon="5.7027">
        <ele>226</ele>
        <time>2022-04-16T08:12:03.175Z</time>
      </trkpt>
      <trkpt lat="45.67619" lon="5.70264">
        <ele>226</ele>
        <time>2022-04-16T08:12:04.175Z</time>
      </trkpt>
      <trkpt lat="45.67615" lon="5.70258">
        <ele>226</ele>
        <time>2022-04-16T08:12:05.176Z</time>
      </trkpt>
      <trkpt lat="45.67612" lon="5.70253">
        <ele>226</ele>
        <time>2022-04-16T08:12:06.176Z</time>
      </trkpt>
      <trkpt lat="45.67609" lon="5.70248">
        <ele>226</ele>
        <time>2022-04-16T08:12:07.176Z</time>
      </trkpt>
      <trkpt lat="45.67605" lon="5.70242">
        <ele>226</ele>
        <time>2022-04-16T08:12:08.176Z</time>
      </trkpt>
      <trkpt lat="45.67601" lon="5.70236">
        <ele>226</ele>
        <time>2022-04-16T08:12:09.176Z</time>
      </trkpt>
      <trkpt lat="45.67598" lon="5.7023">
        <ele>226</ele>
        <time>2022-04-16T08:12:10.175Z</time>
      </trkpt>
      <trkpt lat="45.67595" lon="5.70226">
        <ele>226</ele>
        <time>2022-04-16T08:12:11.176Z</time>
      </trkpt>
      <trkpt lat="45.67591" lon="5.7022">
        <ele>226</ele>
        <time>2022-04-16T08:12:12.175Z</time>
      </trkpt>
      <trkpt lat="45.67587" lon="5.70213">
        <ele>227</ele>
        <time>2022-04-16T08:12:13.176Z</time>
      </trkpt>
      <trkpt lat="45.67583" lon="5.70207">
        <ele>227</ele>
        <time>2022-04-16T08:12:14.176Z</time>
      </trkpt>
      <trkpt lat="45.6758" lon="5.70202">
        <ele>227</ele>
        <time>2022-04-16T08:12:15.175Z</time>
      </trkpt>
      <trkpt lat="45.67576" lon="5.70196">
        <ele>227</ele>
        <time>2022-04-16T08:12:16.175Z</time>
      </trkpt>
      <trkpt lat="45.67572" lon="5.7019">
        <ele>227</ele>
        <time>2022-04-16T08:12:17.176Z</time>
      </trkpt>
      <trkpt lat="45.67567" lon="5.70183">
        <ele>227</ele>
        <time>2022-04-16T08:12:18.176Z</time>
      </trkpt>
      <trkpt lat="45.67563" lon="5.70178">
        <ele>227</ele>
        <time>2022-04-16T08:12:19.176Z</time>
      </trkpt>
      <trkpt lat="45.67559" lon="5.70172">
        <ele>227</ele>
        <time>2022-04-16T08:12:20.176Z</time>
      </trkpt>
      <trkpt lat="45.67556" lon="5.70167">
        <ele>227</ele>
        <time>2022-04-16T08:12:21.175Z</time>
      </trkpt>
      <trkpt lat="45.67551" lon="5.7016">
        <ele>227</ele>
        <time>2022-04-16T08:12:22.175Z</time>
      </trkpt>
      <trkpt lat="45.67547" lon="5.70155">
        <ele>227</ele>
        <time>2022-04-16T08:12:23.176Z</time>
      </trkpt>
      <trkpt lat="45.67543" lon="5.70149">
        <ele>227</ele>
        <time>2022-04-16T08:12:24.176Z</time>
      </trkpt>
      <trkpt lat="45.67539" lon="5.70143">
        <ele>227</ele>
        <time>2022-04-16T08:12:25.175Z</time>
      </trkpt>
      <trkpt lat="45.67535" lon="5.70137">
        <ele>227</ele>
        <time>2022-04-16T08:12:26.176Z</time>
      </trkpt>
      <trkpt lat="45.67531" lon="5.70131">
        <ele>227</ele>
        <time>2022-04-16T08:12:27.176Z</time>
      </trkpt>
      <trkpt lat="45.67527" lon="5.70126">
        <ele>227</ele>
        <time>2022-04-16T08:12:28.176Z</time>
      </trkpt>
      <trkpt lat="45.67523" lon="5.7012">
        <ele>227</ele>
        <time>2022-04-16T08:12:29.176Z</time>
      </trkpt>
      <trkpt lat="45.67519" lon="5.70115">
        <ele>227</ele>
        <time>2022-04-16T08:12:30.176Z</time>
      </trkpt>
      <trkpt lat="45.67515" lon="5.70111">
        <ele>227</ele>
        <time>2022-04-16T08:12:31.176Z</time>
      </trkpt>
      <trkpt lat="45.67511" lon="5.70105">
        <ele>227</ele>
        <time>2022-04-16T08:12:32.176Z</time>
      </trkpt>
      <trkpt lat="45.67507" lon="5.70099">
        <ele>227</ele>
        <time>2022-04-16T08:12:33.176Z</time>
      </trkpt>
      <trkpt lat="45.67503" lon="5.70094">
        <ele>227</ele>
        <time>2022-04-16T08:12:34.176Z</time>
      </trkpt>
      <trkpt lat="45.67499" lon="5.70088">
        <ele>227</ele>
        <time>2022-04-16T08:12:35.175Z</time>
      </trkpt>
      <trkpt lat="45.67495" lon="5.70083">
        <ele>227</ele>
        <time>2022-04-16T08:12:36.176Z</time>
      </trkpt>
      <trkpt lat="45.6749" lon="5.70078">
        <ele>227</ele>
        <time>2022-04-16T08:12:37.175Z</time>
      </trkpt>
      <trkpt lat="45.67486" lon="5.70072">
        <ele>226</ele>
        <time>2022-04-16T08:12:38.176Z</time>
      </trkpt>
      <trkpt lat="45.67482" lon="5.70067">
        <ele>226</ele>
        <time>2022-04-16T08:12:39.176Z</time>
      </trkpt>
      <trkpt lat="45.67478" lon="5.70062">
        <ele>225</ele>
        <time>2022-04-16T08:12:40.176Z</time>
      </trkpt>
      <trkpt lat="45.67473" lon="5.70057">
        <ele>224</ele>
        <time>2022-04-16T08:12:41.176Z</time>
      </trkpt>
      <trkpt lat="45.6747" lon="5.70052">
        <ele>224</ele>
        <time>2022-04-16T08:12:42.176Z</time>
      </trkpt>
      <trkpt lat="45.67465" lon="5.70046">
        <ele>223</ele>
        <time>2022-04-16T08:12:43.175Z</time>
      </trkpt>
      <trkpt lat="45.67461" lon="5.70041">
        <ele>223</ele>
        <time>2022-04-16T08:12:44.176Z</time>
      </trkpt>
      <trkpt lat="45.67458" lon="5.70037">
        <ele>223</ele>
        <time>2022-04-16T08:12:45.176Z</time>
      </trkpt>
      <trkpt lat="45.67453" lon="5.70032">
        <ele>223</ele>
        <time>2022-04-16T08:12:46.176Z</time>
      </trkpt>
      <trkpt lat="45.67449" lon="5.70026">
        <ele>223</ele>
        <time>2022-04-16T08:12:47.176Z</time>
      </trkpt>
      <trkpt lat="45.67445" lon="5.70021">
        <ele>223</ele>
        <time>2022-04-16T08:12:48.176Z</time>
      </trkpt>
      <trkpt lat="45.6744" lon="5.70016">
        <ele>223</ele>
        <time>2022-04-16T08:12:49.175Z</time>
      </trkpt>
      <trkpt lat="45.67436" lon="5.70011">
        <ele>223</ele>
        <time>2022-04-16T08:12:50.176Z</time>
      </trkpt>
      <trkpt lat="45.67433" lon="5.70006">
        <ele>223</ele>
        <time>2022-04-16T08:12:51.175Z</time>
      </trkpt>
      <trkpt lat="45.67428" lon="5.70001">
        <ele>224</ele>
        <time>2022-04-16T08:12:52.176Z</time>
      </trkpt>
      <trkpt lat="45.67423" lon="5.69995">
        <ele>224</ele>
        <time>2022-04-16T08:12:53.176Z</time>
      </trkpt>
      <trkpt lat="45.6742" lon="5.69991">
        <ele>225</ele>
        <time>2022-04-16T08:12:54.175Z</time>
      </trkpt>
      <trkpt lat="45.67415" lon="5.69985">
        <ele>225</ele>
        <time>2022-04-16T08:12:55.175Z</time>
      </trkpt>
      <trkpt lat="45.67412" lon="5.69981">
        <ele>225</ele>
        <time>2022-04-16T08:12:56.176Z</time>
      </trkpt>
      <trkpt lat="45.67408" lon="5.69977">
        <ele>226</ele>
        <time>2022-04-16T08:12:57.176Z</time>
      </trkpt>
      <trkpt lat="45.67402" lon="5.69972">
        <ele>226</ele>
        <time>2022-04-16T08:12:58.176Z</time>
      </trkpt>
      <trkpt lat="45.67397" lon="5.6997">
        <ele>226</ele>
        <time>2022-04-16T08:12:59.176Z</time>
      </trkpt>
      <trkpt lat="45.67392" lon="5.69971">
        <ele>226</ele>
        <time>2022-04-16T08:13:00.176Z</time>
      </trkpt>
      <trkpt lat="45.67387" lon="5.69973">
        <ele>226</ele>
        <time>2022-04-16T08:13:01.175Z</time>
      </trkpt>
      <trkpt lat="45.67383" lon="5.69977">
        <ele>226</ele>
        <time>2022-04-16T08:13:02.176Z</time>
      </trkpt>
      <trkpt lat="45.67378" lon="5.69983">
        <ele>226</ele>
        <time>2022-04-16T08:13:03.175Z</time>
      </trkpt>
      <trkpt lat="45.67374" lon="5.69988">
        <ele>226</ele>
        <time>2022-04-16T08:13:04.176Z</time>
      </trkpt>
      <trkpt lat="45.6737" lon="5.69993">
        <ele>226</ele>
        <time>2022-04-16T08:13:05.176Z</time>
      </trkpt>
      <trkpt lat="45.67365" lon="5.69997">
        <ele>226</ele>
        <time>2022-04-16T08:13:06.175Z</time>
      </trkpt>
      <trkpt lat="45.6736" lon="5.69998">
        <ele>226</ele>
        <time>2022-04-16T08:13:07.176Z</time>
      </trkpt>
      <trkpt lat="45.67354" lon="5.69996">
        <ele>226</ele>
        <time>2022-04-16T08:13:08.176Z</time>
      </trkpt>
      <trkpt lat="45.67351" lon="5.69992">
        <ele>226</ele>
        <time>2022-04-16T08:13:09.175Z</time>
      </trkpt>
      <trkpt lat="45.67347" lon="5.69988">
        <ele>226</ele>
        <time>2022-04-16T08:13:10.175Z</time>
      </trkpt>
      <trkpt lat="45.67344" lon="5.69985">
        <ele>226</ele>
        <time>2022-04-16T08:13:11.176Z</time>
      </trkpt>
      <trkpt lat="45.67341" lon="5.69981">
        <ele>226</ele>
        <time>2022-04-16T08:13:12.175Z</time>
      </trkpt>
      <trkpt lat="45.67337" lon="5.69977">
        <ele>226</ele>
        <time>2022-04-16T08:13:13.176Z</time>
      </trkpt>
      <trkpt lat="45.67333" lon="5.69972">
        <ele>226</ele>
        <time>2022-04-16T08:13:14.176Z</time>
      </trkpt>
      <trkpt lat="45.6733" lon="5.69969">
        <ele>226</ele>
        <time>2022-04-16T08:13:15.176Z</time>
      </trkpt>
      <trkpt lat="45.67327" lon="5.69965">
        <ele>226</ele>
        <time>2022-04-16T08:13:16.175Z</time>
      </trkpt>
      <trkpt lat="45.67323" lon="5.69961">
        <ele>225</ele>
        <time>2022-04-16T08:13:17.176Z</time>
      </trkpt>
      <trkpt lat="45.67319" lon="5.69957">
        <ele>225</ele>
        <time>2022-04-16T08:13:18.176Z</time>
      </trkpt>
      <trkpt lat="45.67315" lon="5.69952">
        <ele>225</ele>
        <time>2022-04-16T08:13:19.175Z</time>
      </trkpt>
      <trkpt lat="45.67311" lon="5.69948">
        <ele>224</ele>
        <time>2022-04-16T08:13:20.175Z</time>
      </trkpt>
      <trkpt lat="45.67307" lon="5.69944">
        <ele>224</ele>
        <time>2022-04-16T08:13:21.176Z</time>
      </trkpt>
      <trkpt lat="45.67303" lon="5.6994">
        <ele>224</ele>
        <time>2022-04-16T08:13:22.176Z</time>
      </trkpt>
      <trkpt lat="45.67299" lon="5.69935">
        <ele>223</ele>
        <time>2022-04-16T08:13:23.176Z</time>
      </trkpt>
      <trkpt lat="45.67294" lon="5.6993">
        <ele>223</ele>
        <time>2022-04-16T08:13:24.176Z</time>
      </trkpt>
      <trkpt lat="45.67291" lon="5.69927">
        <ele>223</ele>
        <time>2022-04-16T08:13:25.176Z</time>
      </trkpt>
      <trkpt lat="45.67286" lon="5.69922">
        <ele>223</ele>
        <time>2022-04-16T08:13:26.175Z</time>
      </trkpt>
      <trkpt lat="45.67282" lon="5.69918">
        <ele>222</ele>
        <time>2022-04-16T08:13:27.176Z</time>
      </trkpt>
      <trkpt lat="45.67278" lon="5.69914">
        <ele>222</ele>
        <time>2022-04-16T08:13:28.176Z</time>
      </trkpt>
      <trkpt lat="45.67273" lon="5.69908">
        <ele>222</ele>
        <time>2022-04-16T08:13:29.176Z</time>
      </trkpt>
      <trkpt lat="45.67269" lon="5.69904">
        <ele>222</ele>
        <time>2022-04-16T08:13:30.176Z</time>
      </trkpt>
      <trkpt lat="45.67265" lon="5.699">
        <ele>222</ele>
        <time>2022-04-16T08:13:31.176Z</time>
      </trkpt>
      <trkpt lat="45.67261" lon="5.69896">
        <ele>222</ele>
        <time>2022-04-16T08:13:32.176Z</time>
      </trkpt>
      <trkpt lat="45.67257" lon="5.69891">
        <ele>221</ele>
        <time>2022-04-16T08:13:33.176Z</time>
      </trkpt>
      <trkpt lat="45.67252" lon="5.69885">
        <ele>221</ele>
        <time>2022-04-16T08:13:34.176Z</time>
      </trkpt>
      <trkpt lat="45.67248" lon="5.69881">
        <ele>221</ele>
        <time>2022-04-16T08:13:35.175Z</time>
      </trkpt>
      <trkpt lat="45.67244" lon="5.69877">
        <ele>221</ele>
        <time>2022-04-16T08:13:36.175Z</time>
      </trkpt>
      <trkpt lat="45.6724" lon="5.69872">
        <ele>221</ele>
        <time>2022-04-16T08:13:37.176Z</time>
      </trkpt>
      <trkpt lat="45.67235" lon="5.69868">
        <ele>221</ele>
        <time>2022-04-16T08:13:38.176Z</time>
      </trkpt>
      <trkpt lat="45.67231" lon="5.69863">
        <ele>221</ele>
        <time>2022-04-16T08:13:39.176Z</time>
      </trkpt>
      <trkpt lat="45.67227" lon="5.69859">
        <ele>221</ele>
        <time>2022-04-16T08:13:40.176Z</time>
      </trkpt>
      <trkpt lat="45.67223" lon="5.69855">
        <ele>222</ele>
        <time>2022-04-16T08:13:41.176Z</time>
      </trkpt>
      <trkpt lat="45.67219" lon="5.6985">
        <ele>222</ele>
        <time>2022-04-16T08:13:42.176Z</time>
      </trkpt>
      <trkpt lat="45.67215" lon="5.69844">
        <ele>222</ele>
        <time>2022-04-16T08:13:43.176Z</time>
      </trkpt>
      <trkpt lat="45.67211" lon="5.6984">
        <ele>222</ele>
        <time>2022-04-16T08:13:44.175Z</time>
      </trkpt>
      <trkpt lat="45.67207" lon="5.69835">
        <ele>223</ele>
        <time>2022-04-16T08:13:45.176Z</time>
      </trkpt>
      <trkpt lat="45.67203" lon="5.69831">
        <ele>223</ele>
        <time>2022-04-16T08:13:46.175Z</time>
      </trkpt>
      <trkpt lat="45.67199" lon="5.69826">
        <ele>223</ele>
        <time>2022-04-16T08:13:47.176Z</time>
      </trkpt>
      <trkpt lat="45.67195" lon="5.69821">
        <ele>223</ele>
        <time>2022-04-16T08:13:48.176Z</time>
      </trkpt>
      <trkpt lat="45.67191" lon="5.69816">
        <ele>223</ele>
        <time>2022-04-16T08:13:49.176Z</time>
      </trkpt>
      <trkpt lat="45.67187" lon="5.69811">
        <ele>223</ele>
        <time>2022-04-16T08:13:50.175Z</time>
      </trkpt>
      <trkpt lat="45.67183" lon="5.69806">
        <ele>224</ele>
        <time>2022-04-16T08:13:51.175Z</time>
      </trkpt>
      <trkpt lat="45.67179" lon="5.698">
        <ele>224</ele>
        <time>2022-04-16T08:13:52.176Z</time>
      </trkpt>
      <trkpt lat="45.67174" lon="5.69794">
        <ele>224</ele>
        <time>2022-04-16T08:13:53.176Z</time>
      </trkpt>
      <trkpt lat="45.67171" lon="5.6979">
        <ele>224</ele>
        <time>2022-04-16T08:13:54.175Z</time>
      </trkpt>
      <trkpt lat="45.67167" lon="5.69785">
        <ele>224</ele>
        <time>2022-04-16T08:13:55.176Z</time>
      </trkpt>
      <trkpt lat="45.67163" lon="5.6978">
        <ele>224</ele>
        <time>2022-04-16T08:13:56.176Z</time>
      </trkpt>
      <trkpt lat="45.67159" lon="5.69775">
        <ele>224</ele>
        <time>2022-04-16T08:13:57.176Z</time>
      </trkpt>
      <trkpt lat="45.67155" lon="5.69769">
        <ele>224</ele>
        <time>2022-04-16T08:13:58.176Z</time>
      </trkpt>
      <trkpt lat="45.67151" lon="5.69764">
        <ele>224</ele>
        <time>2022-04-16T08:13:59.175Z</time>
      </trkpt>
      <trkpt lat="45.67147" lon="5.69759">
        <ele>223</ele>
        <time>2022-04-16T08:14:00.176Z</time>
      </trkpt>
      <trkpt lat="45.67143" lon="5.69754">
        <ele>223</ele>
        <time>2022-04-16T08:14:01.175Z</time>
      </trkpt>
      <trkpt lat="45.6714" lon="5.6975">
        <ele>223</ele>
        <time>2022-04-16T08:14:02.176Z</time>
      </trkpt>
      <trkpt lat="45.67135" lon="5.69743">
        <ele>222</ele>
        <time>2022-04-16T08:14:03.176Z</time>
      </trkpt>
      <trkpt lat="45.67131" lon="5.69738">
        <ele>222</ele>
        <time>2022-04-16T08:14:04.176Z</time>
      </trkpt>
      <trkpt lat="45.67127" lon="5.69732">
        <ele>223</ele>
        <time>2022-04-16T08:14:05.176Z</time>
      </trkpt>
      <trkpt lat="45.67124" lon="5.69728">
        <ele>223</ele>
        <time>2022-04-16T08:14:06.175Z</time>
      </trkpt>
      <trkpt lat="45.6712" lon="5.69722">
        <ele>223</ele>
        <time>2022-04-16T08:14:07.176Z</time>
      </trkpt>
      <trkpt lat="45.67116" lon="5.69715">
        <ele>224</ele>
        <time>2022-04-16T08:14:08.175Z</time>
      </trkpt>
      <trkpt lat="45.67112" lon="5.6971">
        <ele>224</ele>
        <time>2022-04-16T08:14:09.175Z</time>
      </trkpt>
      <trkpt lat="45.67109" lon="5.69706">
        <ele>225</ele>
        <time>2022-04-16T08:14:10.175Z</time>
      </trkpt>
      <trkpt lat="45.67105" lon="5.69701">
        <ele>225</ele>
        <time>2022-04-16T08:14:11.175Z</time>
      </trkpt>
      <trkpt lat="45.67101" lon="5.69695">
        <ele>225</ele>
        <time>2022-04-16T08:14:12.175Z</time>
      </trkpt>
      <trkpt lat="45.67096" lon="5.69688">
        <ele>224</ele>
        <time>2022-04-16T08:14:13.175Z</time>
      </trkpt>
      <trkpt lat="45.67092" lon="5.69683">
        <ele>224</ele>
        <time>2022-04-16T08:14:14.176Z</time>
      </trkpt>
      <trkpt lat="45.67089" lon="5.69678">
        <ele>224</ele>
        <time>2022-04-16T08:14:15.176Z</time>
      </trkpt>
      <trkpt lat="45.67085" lon="5.69672">
        <ele>224</ele>
        <time>2022-04-16T08:14:16.176Z</time>
      </trkpt>
      <trkpt lat="45.6708" lon="5.69665">
        <ele>224</ele>
        <time>2022-04-16T08:14:17.176Z</time>
      </trkpt>
      <trkpt lat="45.67076" lon="5.6966">
        <ele>224</ele>
        <time>2022-04-16T08:14:18.176Z</time>
      </trkpt>
      <trkpt lat="45.67072" lon="5.69654">
        <ele>224</ele>
        <time>2022-04-16T08:14:19.176Z</time>
      </trkpt>
      <trkpt lat="45.67069" lon="5.69649">
        <ele>224</ele>
        <time>2022-04-16T08:14:20.176Z</time>
      </trkpt>
      <trkpt lat="45.67065" lon="5.69643">
        <ele>224</ele>
        <time>2022-04-16T08:14:21.176Z</time>
      </trkpt>
      <trkpt lat="45.6706" lon="5.69637">
        <ele>224</ele>
        <time>2022-04-16T08:14:22.176Z</time>
      </trkpt>
      <trkpt lat="45.67055" lon="5.69631">
        <ele>224</ele>
        <time>2022-04-16T08:14:23.176Z</time>
      </trkpt>
      <trkpt lat="45.67052" lon="5.69626">
        <ele>224</ele>
        <time>2022-04-16T08:14:24.176Z</time>
      </trkpt>
      <trkpt lat="45.67048" lon="5.69621">
        <ele>224</ele>
        <time>2022-04-16T08:14:25.175Z</time>
      </trkpt>
      <trkpt lat="45.67044" lon="5.69615">
        <ele>224</ele>
        <time>2022-04-16T08:14:26.176Z</time>
      </trkpt>
      <trkpt lat="45.67041" lon="5.69609">
        <ele>224</ele>
        <time>2022-04-16T08:14:27.176Z</time>
      </trkpt>
      <trkpt lat="45.67036" lon="5.69602">
        <ele>224</ele>
        <time>2022-04-16T08:14:28.176Z</time>
      </trkpt>
      <trkpt lat="45.67033" lon="5.69597">
        <ele>224</ele>
        <time>2022-04-16T08:14:29.176Z</time>
      </trkpt>
      <trkpt lat="45.67029" lon="5.69591">
        <ele>224</ele>
        <time>2022-04-16T08:14:30.176Z</time>
      </trkpt>
      <trkpt lat="45.67025" lon="5.69585">
        <ele>224</ele>
        <time>2022-04-16T08:14:31.176Z</time>
      </trkpt>
      <trkpt lat="45.67021" lon="5.69579">
        <ele>224</ele>
        <time>2022-04-16T08:14:32.175Z</time>
      </trkpt>
      <trkpt lat="45.67018" lon="5.69572">
        <ele>224</ele>
        <time>2022-04-16T08:14:33.176Z</time>
      </trkpt>
      <trkpt lat="45.67014" lon="5.69566">
        <ele>224</ele>
        <time>2022-04-16T08:14:34.176Z</time>
      </trkpt>
      <trkpt lat="45.6701" lon="5.6956">
        <ele>225</ele>
        <time>2022-04-16T08:14:35.175Z</time>
      </trkpt>
      <trkpt lat="45.67007" lon="5.69554">
        <ele>225</ele>
        <time>2022-04-16T08:14:36.175Z</time>
      </trkpt>
      <trkpt lat="45.67003" lon="5.69547">
        <ele>224</ele>
        <time>2022-04-16T08:14:37.176Z</time>
      </trkpt>
      <trkpt lat="45.66999" lon="5.69541">
        <ele>224</ele>
        <time>2022-04-16T08:14:38.176Z</time>
      </trkpt>
      <trkpt lat="45.66995" lon="5.69533">
        <ele>223</ele>
        <time>2022-04-16T08:14:39.176Z</time>
      </trkpt>
      <trkpt lat="45.66992" lon="5.69527">
        <ele>223</ele>
        <time>2022-04-16T08:14:40.175Z</time>
      </trkpt>
      <trkpt lat="45.66989" lon="5.69522">
        <ele>223</ele>
        <time>2022-04-16T08:14:41.176Z</time>
      </trkpt>
      <trkpt lat="45.66986" lon="5.69515">
        <ele>223</ele>
        <time>2022-04-16T08:14:42.176Z</time>
      </trkpt>
      <trkpt lat="45.66982" lon="5.69509">
        <ele>223</ele>
        <time>2022-04-16T08:14:43.176Z</time>
      </trkpt>
      <trkpt lat="45.66978" lon="5.69501">
        <ele>223</ele>
        <time>2022-04-16T08:14:44.176Z</time>
      </trkpt>
      <trkpt lat="45.66974" lon="5.69495">
        <ele>223</ele>
        <time>2022-04-16T08:14:45.176Z</time>
      </trkpt>
      <trkpt lat="45.66972" lon="5.6949">
        <ele>223</ele>
        <time>2022-04-16T08:14:46.176Z</time>
      </trkpt>
      <trkpt lat="45.66968" lon="5.69484">
        <ele>222</ele>
        <time>2022-04-16T08:14:47.176Z</time>
      </trkpt>
      <trkpt lat="45.66965" lon="5.69478">
        <ele>222</ele>
        <time>2022-04-16T08:14:48.175Z</time>
      </trkpt>
      <trkpt lat="45.66961" lon="5.69472">
        <ele>222</ele>
        <time>2022-04-16T08:14:49.176Z</time>
      </trkpt>
      <trkpt lat="45.66958" lon="5.69465">
        <ele>222</ele>
        <time>2022-04-16T08:14:50.176Z</time>
      </trkpt>
      <trkpt lat="45.66955" lon="5.69459">
        <ele>222</ele>
        <time>2022-04-16T08:14:51.176Z</time>
      </trkpt>
      <trkpt lat="45.66952" lon="5.69453">
        <ele>223</ele>
        <time>2022-04-16T08:14:52.176Z</time>
      </trkpt>
      <trkpt lat="45.66949" lon="5.69447">
        <ele>223</ele>
        <time>2022-04-16T08:14:53.175Z</time>
      </trkpt>
      <trkpt lat="45.66945" lon="5.6944">
        <ele>223</ele>
        <time>2022-04-16T08:14:54.175Z</time>
      </trkpt>
      <trkpt lat="45.66942" lon="5.69435">
        <ele>223</ele>
        <time>2022-04-16T08:14:55.176Z</time>
      </trkpt>
      <trkpt lat="45.66939" lon="5.69428">
        <ele>223</ele>
        <time>2022-04-16T08:14:56.176Z</time>
      </trkpt>
      <trkpt lat="45.66936" lon="5.69422">
        <ele>223</ele>
        <time>2022-04-16T08:14:57.176Z</time>
      </trkpt>
      <trkpt lat="45.66932" lon="5.69415">
        <ele>223</ele>
        <time>2022-04-16T08:14:58.176Z</time>
      </trkpt>
      <trkpt lat="45.66928" lon="5.69409">
        <ele>223</ele>
        <time>2022-04-16T08:14:59.176Z</time>
      </trkpt>
      <trkpt lat="45.66926" lon="5.69404">
        <ele>223</ele>
        <time>2022-04-16T08:15:00.176Z</time>
      </trkpt>
      <trkpt lat="45.66922" lon="5.69397">
        <ele>223</ele>
        <time>2022-04-16T08:15:01.176Z</time>
      </trkpt>
      <trkpt lat="45.66919" lon="5.69391">
        <ele>223</ele>
        <time>2022-04-16T08:15:02.175Z</time>
      </trkpt>
      <trkpt lat="45.66916" lon="5.69385">
        <ele>223</ele>
        <time>2022-04-16T08:15:03.175Z</time>
      </trkpt>
      <trkpt lat="45.66913" lon="5.69378">
        <ele>223</ele>
        <time>2022-04-16T08:15:04.176Z</time>
      </trkpt>
      <trkpt lat="45.66909" lon="5.69372">
        <ele>223</ele>
        <time>2022-04-16T08:15:05.176Z</time>
      </trkpt>
      <trkpt lat="45.66906" lon="5.69365">
        <ele>223</ele>
        <time>2022-04-16T08:15:06.176Z</time>
      </trkpt>
      <trkpt lat="45.66903" lon="5.69359">
        <ele>223</ele>
        <time>2022-04-16T08:15:07.176Z</time>
      </trkpt>
      <trkpt lat="45.66899" lon="5.69351">
        <ele>223</ele>
        <time>2022-04-16T08:15:08.176Z</time>
      </trkpt>
      <trkpt lat="45.66895" lon="5.69345">
        <ele>223</ele>
        <time>2022-04-16T08:15:09.176Z</time>
      </trkpt>
      <trkpt lat="45.66893" lon="5.6934">
        <ele>222</ele>
        <time>2022-04-16T08:15:10.176Z</time>
      </trkpt>
      <trkpt lat="45.6689" lon="5.69334">
        <ele>222</ele>
        <time>2022-04-16T08:15:11.175Z</time>
      </trkpt>
      <trkpt lat="45.66886" lon="5.69327">
        <ele>222</ele>
        <time>2022-04-16T08:15:12.176Z</time>
      </trkpt>
      <trkpt lat="45.66882" lon="5.69319">
        <ele>222</ele>
        <time>2022-04-16T08:15:13.176Z</time>
      </trkpt>
      <trkpt lat="45.66879" lon="5.69313">
        <ele>222</ele>
        <time>2022-04-16T08:15:14.175Z</time>
      </trkpt>
      <trkpt lat="45.66876" lon="5.69307">
        <ele>222</ele>
        <time>2022-04-16T08:15:15.176Z</time>
      </trkpt>
      <trkpt lat="45.66873" lon="5.69301">
        <ele>222</ele>
        <time>2022-04-16T08:15:16.175Z</time>
      </trkpt>
      <trkpt lat="45.66869" lon="5.69294">
        <ele>222</ele>
        <time>2022-04-16T08:15:17.175Z</time>
      </trkpt>
      <trkpt lat="45.66866" lon="5.69288">
        <ele>221</ele>
        <time>2022-04-16T08:15:18.175Z</time>
      </trkpt>
      <trkpt lat="45.66862" lon="5.6928">
        <ele>221</ele>
        <time>2022-04-16T08:15:19.176Z</time>
      </trkpt>
      <trkpt lat="45.66859" lon="5.69275">
        <ele>221</ele>
        <time>2022-04-16T08:15:20.175Z</time>
      </trkpt>
      <trkpt lat="45.66856" lon="5.69269">
        <ele>221</ele>
        <time>2022-04-16T08:15:21.175Z</time>
      </trkpt>
      <trkpt lat="45.66853" lon="5.69262">
        <ele>221</ele>
        <time>2022-04-16T08:15:22.175Z</time>
      </trkpt>
      <trkpt lat="45.66849" lon="5.69255">
        <ele>221</ele>
        <time>2022-04-16T08:15:23.176Z</time>
      </trkpt>
      <trkpt lat="45.66846" lon="5.69249">
        <ele>222</ele>
        <time>2022-04-16T08:15:24.175Z</time>
      </trkpt>
      <trkpt lat="45.66843" lon="5.69243">
        <ele>222</ele>
        <time>2022-04-16T08:15:25.176Z</time>
      </trkpt>
      <trkpt lat="45.66839" lon="5.69236">
        <ele>222</ele>
        <time>2022-04-16T08:15:26.176Z</time>
      </trkpt>
      <trkpt lat="45.66835" lon="5.69229">
        <ele>222</ele>
        <time>2022-04-16T08:15:27.175Z</time>
      </trkpt>
      <trkpt lat="45.66833" lon="5.69223">
        <ele>221</ele>
        <time>2022-04-16T08:15:28.176Z</time>
      </trkpt>
      <trkpt lat="45.66829" lon="5.69217">
        <ele>221</ele>
        <time>2022-04-16T08:15:29.176Z</time>
      </trkpt>
      <trkpt lat="45.66825" lon="5.69211">
        <ele>221</ele>
        <time>2022-04-16T08:15:30.176Z</time>
      </trkpt>
      <trkpt lat="45.66823" lon="5.69204">
        <ele>222</ele>
        <time>2022-04-16T08:15:31.176Z</time>
      </trkpt>
      <trkpt lat="45.6682" lon="5.69198">
        <ele>222</ele>
        <time>2022-04-16T08:15:32.176Z</time>
      </trkpt>
      <trkpt lat="45.66817" lon="5.69191">
        <ele>222</ele>
        <time>2022-04-16T08:15:33.176Z</time>
      </trkpt>
      <trkpt lat="45.66813" lon="5.69184">
        <ele>222</ele>
        <time>2022-04-16T08:15:34.176Z</time>
      </trkpt>
      <trkpt lat="45.66811" lon="5.69178">
        <ele>222</ele>
        <time>2022-04-16T08:15:35.176Z</time>
      </trkpt>
      <trkpt lat="45.66807" lon="5.69172">
        <ele>222</ele>
        <time>2022-04-16T08:15:36.175Z</time>
      </trkpt>
      <trkpt lat="45.66804" lon="5.69166">
        <ele>222</ele>
        <time>2022-04-16T08:15:37.175Z</time>
      </trkpt>
      <trkpt lat="45.66801" lon="5.6916">
        <ele>222</ele>
        <time>2022-04-16T08:15:38.176Z</time>
      </trkpt>
      <trkpt lat="45.66798" lon="5.69154">
        <ele>222</ele>
        <time>2022-04-16T08:15:39.176Z</time>
      </trkpt>
      <trkpt lat="45.66795" lon="5.69148">
        <ele>222</ele>
        <time>2022-04-16T08:15:40.175Z</time>
      </trkpt>
      <trkpt lat="45.66791" lon="5.69141">
        <ele>222</ele>
        <time>2022-04-16T08:15:41.176Z</time>
      </trkpt>
      <trkpt lat="45.66788" lon="5.69135">
        <ele>223</ele>
        <time>2022-04-16T08:15:42.176Z</time>
      </trkpt>
      <trkpt lat="45.66785" lon="5.69129">
        <ele>223</ele>
        <time>2022-04-16T08:15:43.175Z</time>
      </trkpt>
      <trkpt lat="45.66782" lon="5.69122">
        <ele>223</ele>
        <time>2022-04-16T08:15:44.176Z</time>
      </trkpt>
      <trkpt lat="45.66779" lon="5.69117">
        <ele>223</ele>
        <time>2022-04-16T08:15:45.176Z</time>
      </trkpt>
      <trkpt lat="45.66776" lon="5.69111">
        <ele>223</ele>
        <time>2022-04-16T08:15:46.176Z</time>
      </trkpt>
      <trkpt lat="45.66773" lon="5.69104">
        <ele>223</ele>
        <time>2022-04-16T08:15:47.175Z</time>
      </trkpt>
      <trkpt lat="45.6677" lon="5.69098">
        <ele>223</ele>
        <time>2022-04-16T08:15:48.176Z</time>
      </trkpt>
      <trkpt lat="45.66767" lon="5.69092">
        <ele>223</ele>
        <time>2022-04-16T08:15:49.175Z</time>
      </trkpt>
      <trkpt lat="45.66764" lon="5.69086">
        <ele>223</ele>
        <time>2022-04-16T08:15:50.175Z</time>
      </trkpt>
      <trkpt lat="45.66761" lon="5.6908">
        <ele>223</ele>
        <time>2022-04-16T08:15:51.176Z</time>
      </trkpt>
      <trkpt lat="45.66758" lon="5.69074">
        <ele>223</ele>
        <time>2022-04-16T08:15:52.175Z</time>
      </trkpt>
      <trkpt lat="45.66755" lon="5.69068">
        <ele>223</ele>
        <time>2022-04-16T08:15:53.176Z</time>
      </trkpt>
      <trkpt lat="45.66752" lon="5.69062">
        <ele>222</ele>
        <time>2022-04-16T08:15:54.175Z</time>
      </trkpt>
      <trkpt lat="45.66749" lon="5.69056">
        <ele>222</ele>
        <time>2022-04-16T08:15:55.176Z</time>
      </trkpt>
      <trkpt lat="45.66746" lon="5.69051">
        <ele>221</ele>
        <time>2022-04-16T08:15:56.176Z</time>
      </trkpt>
      <trkpt lat="45.66743" lon="5.69044">
        <ele>221</ele>
        <time>2022-04-16T08:15:57.176Z</time>
      </trkpt>
      <trkpt lat="45.6674" lon="5.69038">
        <ele>221</ele>
        <time>2022-04-16T08:15:58.175Z</time>
      </trkpt>
      <trkpt lat="45.66736" lon="5.69031">
        <ele>221</ele>
        <time>2022-04-16T08:15:59.176Z</time>
      </trkpt>
      <trkpt lat="45.66733" lon="5.69026">
        <ele>221</ele>
        <time>2022-04-16T08:16:00.175Z</time>
      </trkpt>
      <trkpt lat="45.6673" lon="5.6902">
        <ele>221</ele>
        <time>2022-04-16T08:16:01.175Z</time>
      </trkpt>
      <trkpt lat="45.66727" lon="5.69014">
        <ele>221</ele>
        <time>2022-04-16T08:16:02.176Z</time>
      </trkpt>
      <trkpt lat="45.66723" lon="5.69006">
        <ele>221</ele>
        <time>2022-04-16T08:16:03.176Z</time>
      </trkpt>
      <trkpt lat="45.66721" lon="5.69001">
        <ele>221</ele>
        <time>2022-04-16T08:16:04.176Z</time>
      </trkpt>
      <trkpt lat="45.66718" lon="5.68995">
        <ele>221</ele>
        <time>2022-04-16T08:16:05.175Z</time>
      </trkpt>
      <trkpt lat="45.66714" lon="5.68988">
        <ele>221</ele>
        <time>2022-04-16T08:16:06.176Z</time>
      </trkpt>
      <trkpt lat="45.66711" lon="5.68982">
        <ele>221</ele>
        <time>2022-04-16T08:16:07.176Z</time>
      </trkpt>
      <trkpt lat="45.66707" lon="5.68975">
        <ele>221</ele>
        <time>2022-04-16T08:16:08.175Z</time>
      </trkpt>
      <trkpt lat="45.66704" lon="5.6897">
        <ele>221</ele>
        <time>2022-04-16T08:16:09.176Z</time>
      </trkpt>
      <trkpt lat="45.66701" lon="5.68964">
        <ele>221</ele>
        <time>2022-04-16T08:16:10.176Z</time>
      </trkpt>
      <trkpt lat="45.66697" lon="5.68958">
        <ele>222</ele>
        <time>2022-04-16T08:16:11.175Z</time>
      </trkpt>
      <trkpt lat="45.66693" lon="5.68952">
        <ele>222</ele>
        <time>2022-04-16T08:16:12.176Z</time>
      </trkpt>
      <trkpt lat="45.6669" lon="5.68947">
        <ele>221</ele>
        <time>2022-04-16T08:16:13.175Z</time>
      </trkpt>
      <trkpt lat="45.66686" lon="5.68941">
        <ele>222</ele>
        <time>2022-04-16T08:16:14.176Z</time>
      </trkpt>
      <trkpt lat="45.66683" lon="5.68935">
        <ele>222</ele>
        <time>2022-04-16T08:16:15.175Z</time>
      </trkpt>
      <trkpt lat="45.66679" lon="5.6893">
        <ele>222</ele>
        <time>2022-04-16T08:16:16.176Z</time>
      </trkpt>
      <trkpt lat="45.66675" lon="5.68924">
        <ele>222</ele>
        <time>2022-04-16T08:16:17.176Z</time>
      </trkpt>
      <trkpt lat="45.66672" lon="5.68919">
        <ele>222</ele>
        <time>2022-04-16T08:16:18.175Z</time>
      </trkpt>
      <trkpt lat="45.66668" lon="5.68913">
        <ele>222</ele>
        <time>2022-04-16T08:16:19.175Z</time>
      </trkpt>
      <trkpt lat="45.66665" lon="5.68907">
        <ele>222</ele>
        <time>2022-04-16T08:16:20.175Z</time>
      </trkpt>
      <trkpt lat="45.66661" lon="5.68902">
        <ele>222</ele>
        <time>2022-04-16T08:16:21.176Z</time>
      </trkpt>
      <trkpt lat="45.66658" lon="5.68897">
        <ele>222</ele>
        <time>2022-04-16T08:16:22.176Z</time>
      </trkpt>
      <trkpt lat="45.66654" lon="5.68891">
        <ele>222</ele>
        <time>2022-04-16T08:16:23.176Z</time>
      </trkpt>
      <trkpt lat="45.66651" lon="5.68886">
        <ele>222</ele>
        <time>2022-04-16T08:16:24.175Z</time>
      </trkpt>
      <trkpt lat="45.66647" lon="5.68881">
        <ele>222</ele>
        <time>2022-04-16T08:16:25.175Z</time>
      </trkpt>
      <trkpt lat="45.66643" lon="5.68876">
        <ele>222</ele>
        <time>2022-04-16T08:16:26.176Z</time>
      </trkpt>
      <trkpt lat="45.6664" lon="5.68871">
        <ele>222</ele>
        <time>2022-04-16T08:16:27.176Z</time>
      </trkpt>
      <trkpt lat="45.66636" lon="5.68866">
        <ele>222</ele>
        <time>2022-04-16T08:16:28.176Z</time>
      </trkpt>
      <trkpt lat="45.66632" lon="5.6886">
        <ele>221</ele>
        <time>2022-04-16T08:16:29.175Z</time>
      </trkpt>
      <trkpt lat="45.66628" lon="5.68856">
        <ele>221</ele>
        <time>2022-04-16T08:16:30.175Z</time>
      </trkpt>
      <trkpt lat="45.66624" lon="5.6885">
        <ele>221</ele>
        <time>2022-04-16T08:16:31.176Z</time>
      </trkpt>
      <trkpt lat="45.6662" lon="5.68846">
        <ele>222</ele>
        <time>2022-04-16T08:16:32.176Z</time>
      </trkpt>
      <trkpt lat="45.66615" lon="5.68841">
        <ele>222</ele>
        <time>2022-04-16T08:16:33.176Z</time>
      </trkpt>
      <trkpt lat="45.66611" lon="5.68836">
        <ele>222</ele>
        <time>2022-04-16T08:16:34.175Z</time>
      </trkpt>
      <trkpt lat="45.66607" lon="5.68831">
        <ele>222</ele>
        <time>2022-04-16T08:16:35.175Z</time>
      </trkpt>
      <trkpt lat="45.66603" lon="5.68826">
        <ele>222</ele>
        <time>2022-04-16T08:16:36.176Z</time>
      </trkpt>
      <trkpt lat="45.66599" lon="5.68821">
        <ele>223</ele>
        <time>2022-04-16T08:16:37.176Z</time>
      </trkpt>
      <trkpt lat="45.66594" lon="5.68815">
        <ele>223</ele>
        <time>2022-04-16T08:16:38.175Z</time>
      </trkpt>
      <trkpt lat="45.6659" lon="5.68811">
        <ele>223</ele>
        <time>2022-04-16T08:16:39.176Z</time>
      </trkpt>
      <trkpt lat="45.66586" lon="5.68807">
        <ele>222</ele>
        <time>2022-04-16T08:16:40.176Z</time>
      </trkpt>
      <trkpt lat="45.66581" lon="5.68802">
        <ele>223</ele>
        <time>2022-04-16T08:16:41.176Z</time>
      </trkpt>
      <trkpt lat="45.66577" lon="5.68798">
        <ele>223</ele>
        <time>2022-04-16T08:16:42.176Z</time>
      </trkpt>
      <trkpt lat="45.66571" lon="5.68793">
        <ele>223</ele>
        <time>2022-04-16T08:16:43.176Z</time>
      </trkpt>
      <trkpt lat="45.66567" lon="5.6879">
        <ele>223</ele>
        <time>2022-04-16T08:16:44.176Z</time>
      </trkpt>
      <trkpt lat="45.66563" lon="5.68785">
        <ele>223</ele>
        <time>2022-04-16T08:16:45.176Z</time>
      </trkpt>
      <trkpt lat="45.66558" lon="5.68781">
        <ele>223</ele>
        <time>2022-04-16T08:16:46.176Z</time>
      </trkpt>
      <trkpt lat="45.66552" lon="5.68775">
        <ele>223</ele>
        <time>2022-04-16T08:16:47.175Z</time>
      </trkpt>
      <trkpt lat="45.66547" lon="5.68771">
        <ele>223</ele>
        <time>2022-04-16T08:16:48.176Z</time>
      </trkpt>
      <trkpt lat="45.66543" lon="5.68767">
        <ele>223</ele>
        <time>2022-04-16T08:16:49.176Z</time>
      </trkpt>
      <trkpt lat="45.66538" lon="5.68763">
        <ele>223</ele>
        <time>2022-04-16T08:16:50.175Z</time>
      </trkpt>
      <trkpt lat="45.66533" lon="5.68758">
        <ele>223</ele>
        <time>2022-04-16T08:16:51.176Z</time>
      </trkpt>
      <trkpt lat="45.66527" lon="5.68753">
        <ele>223</ele>
        <time>2022-04-16T08:16:52.176Z</time>
      </trkpt>
      <trkpt lat="45.66523" lon="5.6875">
        <ele>222</ele>
        <time>2022-04-16T08:16:53.176Z</time>
      </trkpt>
      <trkpt lat="45.66518" lon="5.68746">
        <ele>222</ele>
        <time>2022-04-16T08:16:54.176Z</time>
      </trkpt>
      <trkpt lat="45.66513" lon="5.68743">
        <ele>222</ele>
        <time>2022-04-16T08:16:55.175Z</time>
      </trkpt>
      <trkpt lat="45.66507" lon="5.68738">
        <ele>222</ele>
        <time>2022-04-16T08:16:56.176Z</time>
      </trkpt>
      <trkpt lat="45.66503" lon="5.68736">
        <ele>222</ele>
        <time>2022-04-16T08:16:57.176Z</time>
      </trkpt>
      <trkpt lat="45.66496" lon="5.68732">
        <ele>222</ele>
        <time>2022-04-16T08:16:58.176Z</time>
      </trkpt>
      <trkpt lat="45.66492" lon="5.68729">
        <ele>222</ele>
        <time>2022-04-16T08:16:59.176Z</time>
      </trkpt>
      <trkpt lat="45.66487" lon="5.68726">
        <ele>222</ele>
        <time>2022-04-16T08:17:00.176Z</time>
      </trkpt>
      <trkpt lat="45.66482" lon="5.68723">
        <ele>222</ele>
        <time>2022-04-16T08:17:01.176Z</time>
      </trkpt>
      <trkpt lat="45.66476" lon="5.6872">
        <ele>222</ele>
        <time>2022-04-16T08:17:02.176Z</time>
      </trkpt>
      <trkpt lat="45.66471" lon="5.68718">
        <ele>222</ele>
        <time>2022-04-16T08:17:03.175Z</time>
      </trkpt>
      <trkpt lat="45.66467" lon="5.68716">
        <ele>221</ele>
        <time>2022-04-16T08:17:04.176Z</time>
      </trkpt>
      <trkpt lat="45.66461" lon="5.68713">
        <ele>221</ele>
        <time>2022-04-16T08:17:05.175Z</time>
      </trkpt>
      <trkpt lat="45.66456" lon="5.68711">
        <ele>221</ele>
        <time>2022-04-16T08:17:06.176Z</time>
      </trkpt>
      <trkpt lat="45.66449" lon="5.68708">
        <ele>221</ele>
        <time>2022-04-16T08:17:07.175Z</time>
      </trkpt>
      <trkpt lat="45.66444" lon="5.68705">
        <ele>221</ele>
        <time>2022-04-16T08:17:08.175Z</time>
      </trkpt>
      <trkpt lat="45.6644" lon="5.68703">
        <ele>221</ele>
        <time>2022-04-16T08:17:09.175Z</time>
      </trkpt>
      <trkpt lat="45.66434" lon="5.68701">
        <ele>221</ele>
        <time>2022-04-16T08:17:10.176Z</time>
      </trkpt>
      <trkpt lat="45.66429" lon="5.68699">
        <ele>221</ele>
        <time>2022-04-16T08:17:11.176Z</time>
      </trkpt>
      <trkpt lat="45.66422" lon="5.68697">
        <ele>221</ele>
        <time>2022-04-16T08:17:12.175Z</time>
      </trkpt>
      <trkpt lat="45.66418" lon="5.68696">
        <ele>221</ele>
        <time>2022-04-16T08:17:13.176Z</time>
      </trkpt>
      <trkpt lat="45.66412" lon="5.68695">
        <ele>221</ele>
        <time>2022-04-16T08:17:14.176Z</time>
      </trkpt>
      <trkpt lat="45.66406" lon="5.68696">
        <ele>222</ele>
        <time>2022-04-16T08:17:15.176Z</time>
      </trkpt>
      <trkpt lat="45.664" lon="5.68697">
        <ele>222</ele>
        <time>2022-04-16T08:17:16.176Z</time>
      </trkpt>
      <trkpt lat="45.66394" lon="5.68699">
        <ele>222</ele>
        <time>2022-04-16T08:17:17.176Z</time>
      </trkpt>
      <trkpt lat="45.66389" lon="5.68702">
        <ele>222</ele>
        <time>2022-04-16T08:17:18.176Z</time>
      </trkpt>
      <trkpt lat="45.66384" lon="5.68706">
        <ele>222</ele>
        <time>2022-04-16T08:17:19.176Z</time>
      </trkpt>
      <trkpt lat="45.66379" lon="5.6871">
        <ele>222</ele>
        <time>2022-04-16T08:17:20.176Z</time>
      </trkpt>
      <trkpt lat="45.66374" lon="5.68714">
        <ele>222</ele>
        <time>2022-04-16T08:17:21.175Z</time>
      </trkpt>
      <trkpt lat="45.66369" lon="5.6872">
        <ele>222</ele>
        <time>2022-04-16T08:17:22.176Z</time>
      </trkpt>
      <trkpt lat="45.66362" lon="5.68726">
        <ele>223</ele>
        <time>2022-04-16T08:17:23.175Z</time>
      </trkpt>
      <trkpt lat="45.66359" lon="5.6873">
        <ele>223</ele>
        <time>2022-04-16T08:17:24.175Z</time>
      </trkpt>
      <trkpt lat="45.66354" lon="5.68736">
        <ele>223</ele>
        <time>2022-04-16T08:17:25.176Z</time>
      </trkpt>
      <trkpt lat="45.6635" lon="5.68741">
        <ele>223</ele>
        <time>2022-04-16T08:17:26.176Z</time>
      </trkpt>
      <trkpt lat="45.66345" lon="5.68746">
        <ele>223</ele>
        <time>2022-04-16T08:17:27.175Z</time>
      </trkpt>
      <trkpt lat="45.66342" lon="5.68751">
        <ele>223</ele>
        <time>2022-04-16T08:17:28.175Z</time>
      </trkpt>
      <trkpt lat="45.66338" lon="5.68756">
        <ele>222</ele>
        <time>2022-04-16T08:17:29.175Z</time>
      </trkpt>
      <trkpt lat="45.66334" lon="5.68762">
        <ele>222</ele>
        <time>2022-04-16T08:17:30.175Z</time>
      </trkpt>
      <trkpt lat="45.6633" lon="5.68767">
        <ele>222</ele>
        <time>2022-04-16T08:17:31.176Z</time>
      </trkpt>
      <trkpt lat="45.66326" lon="5.68772">
        <ele>222</ele>
        <time>2022-04-16T08:17:32.176Z</time>
      </trkpt>
      <trkpt lat="45.66321" lon="5.68777">
        <ele>222</ele>
        <time>2022-04-16T08:17:33.176Z</time>
      </trkpt>
      <trkpt lat="45.66317" lon="5.68782">
        <ele>222</ele>
        <time>2022-04-16T08:17:34.175Z</time>
      </trkpt>
      <trkpt lat="45.66312" lon="5.68787">
        <ele>222</ele>
        <time>2022-04-16T08:17:35.175Z</time>
      </trkpt>
      <trkpt lat="45.66308" lon="5.68792">
        <ele>222</ele>
        <time>2022-04-16T08:17:36.175Z</time>
      </trkpt>
      <trkpt lat="45.66303" lon="5.68797">
        <ele>222</ele>
        <time>2022-04-16T08:17:37.176Z</time>
      </trkpt>
      <trkpt lat="45.66299" lon="5.68802">
        <ele>222</ele>
        <time>2022-04-16T08:17:38.175Z</time>
      </trkpt>
      <trkpt lat="45.66295" lon="5.68806">
        <ele>222</ele>
        <time>2022-04-16T08:17:39.176Z</time>
      </trkpt>
      <trkpt lat="45.6629" lon="5.68811">
        <ele>222</ele>
        <time>2022-04-16T08:17:40.176Z</time>
      </trkpt>
      <trkpt lat="45.66285" lon="5.68817">
        <ele>221</ele>
        <time>2022-04-16T08:17:41.175Z</time>
      </trkpt>
      <trkpt lat="45.66282" lon="5.68821">
        <ele>221</ele>
        <time>2022-04-16T08:17:42.176Z</time>
      </trkpt>
      <trkpt lat="45.66277" lon="5.68826">
        <ele>221</ele>
        <time>2022-04-16T08:17:43.176Z</time>
      </trkpt>
      <trkpt lat="45.66273" lon="5.68831">
        <ele>221</ele>
        <time>2022-04-16T08:17:44.176Z</time>
      </trkpt>
      <trkpt lat="45.66268" lon="5.68836">
        <ele>221</ele>
        <time>2022-04-16T08:17:45.176Z</time>
      </trkpt>
      <trkpt lat="45.66264" lon="5.68841">
        <ele>221</ele>
        <time>2022-04-16T08:17:46.175Z</time>
      </trkpt>
      <trkpt lat="45.66259" lon="5.68846">
        <ele>221</ele>
        <time>2022-04-16T08:17:47.176Z</time>
      </trkpt>
      <trkpt lat="45.66255" lon="5.68851">
        <ele>221</ele>
        <time>2022-04-16T08:17:48.175Z</time>
      </trkpt>
      <trkpt lat="45.6625" lon="5.68857">
        <ele>220</ele>
        <time>2022-04-16T08:17:49.175Z</time>
      </trkpt>
      <trkpt lat="45.66245" lon="5.68862">
        <ele>220</ele>
        <time>2022-04-16T08:17:50.175Z</time>
      </trkpt>
      <trkpt lat="45.66241" lon="5.68866">
        <ele>220</ele>
        <time>2022-04-16T08:17:51.176Z</time>
      </trkpt>
      <trkpt lat="45.66236" lon="5.68871">
        <ele>220</ele>
        <time>2022-04-16T08:17:52.176Z</time>
      </trkpt>
      <trkpt lat="45.66231" lon="5.68876">
        <ele>220</ele>
        <time>2022-04-16T08:17:53.176Z</time>
      </trkpt>
      <trkpt lat="45.66227" lon="5.68879">
        <ele>220</ele>
        <time>2022-04-16T08:17:54.176Z</time>
      </trkpt>
      <trkpt lat="45.66222" lon="5.68885">
        <ele>220</ele>
        <time>2022-04-16T08:17:55.176Z</time>
      </trkpt>
      <trkpt lat="45.66217" lon="5.68889">
        <ele>220</ele>
        <time>2022-04-16T08:17:56.176Z</time>
      </trkpt>
      <trkpt lat="45.66212" lon="5.68893">
        <ele>219</ele>
        <time>2022-04-16T08:17:57.176Z</time>
      </trkpt>
      <trkpt lat="45.66208" lon="5.68898">
        <ele>219</ele>
        <time>2022-04-16T08:17:58.175Z</time>
      </trkpt>
      <trkpt lat="45.66203" lon="5.68902">
        <ele>218</ele>
        <time>2022-04-16T08:17:59.176Z</time>
      </trkpt>
      <trkpt lat="45.66198" lon="5.68906">
        <ele>218</ele>
        <time>2022-04-16T08:18:00.176Z</time>
      </trkpt>
      <trkpt lat="45.66193" lon="5.68909">
        <ele>218</ele>
        <time>2022-04-16T08:18:01.175Z</time>
      </trkpt>
      <trkpt lat="45.66188" lon="5.68912">
        <ele>218</ele>
        <time>2022-04-16T08:18:02.176Z</time>
      </trkpt>
      <trkpt lat="45.66183" lon="5.68913">
        <ele>218</ele>
        <time>2022-04-16T08:18:03.175Z</time>
      </trkpt>
      <trkpt lat="45.66179" lon="5.68911">
        <ele>218</ele>
        <time>2022-04-16T08:18:04.175Z</time>
      </trkpt>
      <trkpt lat="45.66174" lon="5.68908">
        <ele>218</ele>
        <time>2022-04-16T08:18:05.176Z</time>
      </trkpt>
      <trkpt lat="45.66171" lon="5.68904">
        <ele>218</ele>
        <time>2022-04-16T08:18:06.176Z</time>
      </trkpt>
      <trkpt lat="45.66168" lon="5.689">
        <ele>218</ele>
        <time>2022-04-16T08:18:07.175Z</time>
      </trkpt>
      <trkpt lat="45.66166" lon="5.68896">
        <ele>218</ele>
        <time>2022-04-16T08:18:08.176Z</time>
      </trkpt>
      <trkpt lat="45.66165" lon="5.68893">
        <ele>219</ele>
        <time>2022-04-16T08:18:09.175Z</time>
      </trkpt>
      <trkpt lat="45.66165" lon="5.68889">
        <ele>219</ele>
        <time>2022-04-16T08:18:10.176Z</time>
      </trkpt>
      <trkpt lat="45.66164" lon="5.68885">
        <ele>219</ele>
        <time>2022-04-16T08:18:11.176Z</time>
      </trkpt>
      <trkpt lat="45.66164" lon="5.68881">
        <ele>219</ele>
        <time>2022-04-16T08:18:12.176Z</time>
      </trkpt>
      <trkpt lat="45.66164" lon="5.68877">
        <ele>220</ele>
        <time>2022-04-16T08:18:13.175Z</time>
      </trkpt>
      <trkpt lat="45.66164" lon="5.68874">
        <ele>220</ele>
        <time>2022-04-16T08:18:14.175Z</time>
      </trkpt>
      <trkpt lat="45.66163" lon="5.68869">
        <ele>220</ele>
        <time>2022-04-16T08:18:15.175Z</time>
      </trkpt>
      <trkpt lat="45.66163" lon="5.68864">
        <ele>221</ele>
        <time>2022-04-16T08:18:16.176Z</time>
      </trkpt>
      <trkpt lat="45.66163" lon="5.68861">
        <ele>221</ele>
        <time>2022-04-16T08:18:17.176Z</time>
      </trkpt>
      <trkpt lat="45.66163" lon="5.68856">
        <ele>222</ele>
        <time>2022-04-16T08:18:18.175Z</time>
      </trkpt>
      <trkpt lat="45.66163" lon="5.68854">
        <ele>221</ele>
        <time>2022-04-16T08:18:19.176Z</time>
      </trkpt>
      <trkpt lat="45.66163" lon="5.68849">
        <ele>221</ele>
        <time>2022-04-16T08:18:20.175Z</time>
      </trkpt>
      <trkpt lat="45.66162" lon="5.68846">
        <ele>221</ele>
        <time>2022-04-16T08:18:21.176Z</time>
      </trkpt>
      <trkpt lat="45.66162" lon="5.68841">
        <ele>221</ele>
        <time>2022-04-16T08:18:22.176Z</time>
      </trkpt>
      <trkpt lat="45.66162" lon="5.68837">
        <ele>220</ele>
        <time>2022-04-16T08:18:23.176Z</time>
      </trkpt>
      <trkpt lat="45.66162" lon="5.68832">
        <ele>220</ele>
        <time>2022-04-16T08:18:24.175Z</time>
      </trkpt>
      <trkpt lat="45.66162" lon="5.68826">
        <ele>220</ele>
        <time>2022-04-16T08:18:25.175Z</time>
      </trkpt>
      <trkpt lat="45.66162" lon="5.6882">
        <ele>220</ele>
        <time>2022-04-16T08:18:26.176Z</time>
      </trkpt>
      <trkpt lat="45.66161" lon="5.68814">
        <ele>220</ele>
        <time>2022-04-16T08:18:27.176Z</time>
      </trkpt>
      <trkpt lat="45.66161" lon="5.68808">
        <ele>220</ele>
        <time>2022-04-16T08:18:28.175Z</time>
      </trkpt>
      <trkpt lat="45.66161" lon="5.68801">
        <ele>220</ele>
        <time>2022-04-16T08:18:29.175Z</time>
      </trkpt>
      <trkpt lat="45.66161" lon="5.68795">
        <ele>220</ele>
        <time>2022-04-16T08:18:30.175Z</time>
      </trkpt>
      <trkpt lat="45.6616" lon="5.68788">
        <ele>220</ele>
        <time>2022-04-16T08:18:31.176Z</time>
      </trkpt>
      <trkpt lat="45.6616" lon="5.68783">
        <ele>220</ele>
        <time>2022-04-16T08:18:32.176Z</time>
      </trkpt>
      <trkpt lat="45.6616" lon="5.68777">
        <ele>219</ele>
        <time>2022-04-16T08:18:33.176Z</time>
      </trkpt>
      <trkpt lat="45.66159" lon="5.68769">
        <ele>219</ele>
        <time>2022-04-16T08:18:34.175Z</time>
      </trkpt>
      <trkpt lat="45.66159" lon="5.68762">
        <ele>219</ele>
        <time>2022-04-16T08:18:35.175Z</time>
      </trkpt>
      <trkpt lat="45.66158" lon="5.68756">
        <ele>218</ele>
        <time>2022-04-16T08:18:36.175Z</time>
      </trkpt>
      <trkpt lat="45.66158" lon="5.6875">
        <ele>218</ele>
        <time>2022-04-16T08:18:37.176Z</time>
      </trkpt>
      <trkpt lat="45.66157" lon="5.68743">
        <ele>218</ele>
        <time>2022-04-16T08:18:38.175Z</time>
      </trkpt>
      <trkpt lat="45.66156" lon="5.68735">
        <ele>219</ele>
        <time>2022-04-16T08:18:39.176Z</time>
      </trkpt>
      <trkpt lat="45.66156" lon="5.68728">
        <ele>219</ele>
        <time>2022-04-16T08:18:40.175Z</time>
      </trkpt>
      <trkpt lat="45.66155" lon="5.68721">
        <ele>219</ele>
        <time>2022-04-16T08:18:41.175Z</time>
      </trkpt>
      <trkpt lat="45.66154" lon="5.68714">
        <ele>219</ele>
        <time>2022-04-16T08:18:42.176Z</time>
      </trkpt>
      <trkpt lat="45.66154" lon="5.68707">
        <ele>220</ele>
        <time>2022-04-16T08:18:43.176Z</time>
      </trkpt>
      <trkpt lat="45.66153" lon="5.68699">
        <ele>220</ele>
        <time>2022-04-16T08:18:44.175Z</time>
      </trkpt>
      <trkpt lat="45.66152" lon="5.68692">
        <ele>220</ele>
        <time>2022-04-16T08:18:45.175Z</time>
      </trkpt>
      <trkpt lat="45.66152" lon="5.68685">
        <ele>220</ele>
        <time>2022-04-16T08:18:46.175Z</time>
      </trkpt>
      <trkpt lat="45.66151" lon="5.68678">
        <ele>220</ele>
        <time>2022-04-16T08:18:47.175Z</time>
      </trkpt>
      <trkpt lat="45.6615" lon="5.68672">
        <ele>220</ele>
        <time>2022-04-16T08:18:48.176Z</time>
      </trkpt>
      <trkpt lat="45.66149" lon="5.68664">
        <ele>220</ele>
        <time>2022-04-16T08:18:49.175Z</time>
      </trkpt>
      <trkpt lat="45.66149" lon="5.68657">
        <ele>219</ele>
        <time>2022-04-16T08:18:50.175Z</time>
      </trkpt>
      <trkpt lat="45.66148" lon="5.6865">
        <ele>219</ele>
        <time>2022-04-16T08:18:51.176Z</time>
      </trkpt>
      <trkpt lat="45.66147" lon="5.68643">
        <ele>219</ele>
        <time>2022-04-16T08:18:52.176Z</time>
      </trkpt>
      <trkpt lat="45.66146" lon="5.68637">
        <ele>219</ele>
        <time>2022-04-16T08:18:53.175Z</time>
      </trkpt>
      <trkpt lat="45.66144" lon="5.68631">
        <ele>219</ele>
        <time>2022-04-16T08:18:54.175Z</time>
      </trkpt>
      <trkpt lat="45.6614" lon="5.68627">
        <ele>219</ele>
        <time>2022-04-16T08:18:55.175Z</time>
      </trkpt>
      <trkpt lat="45.66135" lon="5.68626">
        <ele>219</ele>
        <time>2022-04-16T08:18:56.176Z</time>
      </trkpt>
      <trkpt lat="45.66131" lon="5.68627">
        <ele>219</ele>
        <time>2022-04-16T08:18:57.176Z</time>
      </trkpt>
      <trkpt lat="45.66127" lon="5.68628">
        <ele>219</ele>
        <time>2022-04-16T08:18:58.175Z</time>
      </trkpt>
      <trkpt lat="45.66122" lon="5.6863">
        <ele>219</ele>
        <time>2022-04-16T08:18:59.176Z</time>
      </trkpt>
      <trkpt lat="45.66117" lon="5.68633">
        <ele>219</ele>
        <time>2022-04-16T08:19:00.175Z</time>
      </trkpt>
      <trkpt lat="45.66112" lon="5.68635">
        <ele>219</ele>
        <time>2022-04-16T08:19:01.175Z</time>
      </trkpt>
      <trkpt lat="45.66108" lon="5.68637">
        <ele>219</ele>
        <time>2022-04-16T08:19:02.176Z</time>
      </trkpt>
      <trkpt lat="45.66103" lon="5.68639">
        <ele>219</ele>
        <time>2022-04-16T08:19:03.175Z</time>
      </trkpt>
      <trkpt lat="45.66099" lon="5.68642">
        <ele>219</ele>
        <time>2022-04-16T08:19:04.176Z</time>
      </trkpt>
      <trkpt lat="45.66094" lon="5.68644">
        <ele>219</ele>
        <time>2022-04-16T08:19:05.175Z</time>
      </trkpt>
      <trkpt lat="45.6609" lon="5.68645">
        <ele>219</ele>
        <time>2022-04-16T08:19:06.176Z</time>
      </trkpt>
      <trkpt lat="45.66087" lon="5.68647">
        <ele>219</ele>
        <time>2022-04-16T08:19:07.175Z</time>
      </trkpt>
      <trkpt lat="45.66083" lon="5.68649">
        <ele>219</ele>
        <time>2022-04-16T08:19:08.175Z</time>
      </trkpt>
      <trkpt lat="45.66077" lon="5.68651">
        <ele>219</ele>
        <time>2022-04-16T08:19:09.175Z</time>
      </trkpt>
      <trkpt lat="45.66072" lon="5.68653">
        <ele>219</ele>
        <time>2022-04-16T08:19:10.175Z</time>
      </trkpt>
      <trkpt lat="45.66068" lon="5.68655">
        <ele>219</ele>
        <time>2022-04-16T08:19:11.175Z</time>
      </trkpt>
      <trkpt lat="45.66063" lon="5.68657">
        <ele>219</ele>
        <time>2022-04-16T08:19:12.175Z</time>
      </trkpt>
      <trkpt lat="45.66059" lon="5.68659">
        <ele>219</ele>
        <time>2022-04-16T08:19:13.176Z</time>
      </trkpt>
      <trkpt lat="45.66054" lon="5.68661">
        <ele>219</ele>
        <time>2022-04-16T08:19:14.176Z</time>
      </trkpt>
      <trkpt lat="45.6605" lon="5.68663">
        <ele>218</ele>
        <time>2022-04-16T08:19:15.175Z</time>
      </trkpt>
      <trkpt lat="45.66046" lon="5.68664">
        <ele>218</ele>
        <time>2022-04-16T08:19:16.175Z</time>
      </trkpt>
      <trkpt lat="45.66042" lon="5.68666">
        <ele>218</ele>
        <time>2022-04-16T08:19:17.175Z</time>
      </trkpt>
      <trkpt lat="45.66036" lon="5.68669">
        <ele>218</ele>
        <time>2022-04-16T08:19:18.176Z</time>
      </trkpt>
      <trkpt lat="45.66032" lon="5.68671">
        <ele>218</ele>
        <time>2022-04-16T08:19:19.176Z</time>
      </trkpt>
      <trkpt lat="45.66027" lon="5.68673">
        <ele>218</ele>
        <time>2022-04-16T08:19:20.175Z</time>
      </trkpt>
      <trkpt lat="45.66022" lon="5.68675">
        <ele>218</ele>
        <time>2022-04-16T08:19:21.176Z</time>
      </trkpt>
      <trkpt lat="45.66018" lon="5.68676">
        <ele>218</ele>
        <time>2022-04-16T08:19:22.176Z</time>
      </trkpt>
      <trkpt lat="45.66012" lon="5.68678">
        <ele>218</ele>
        <time>2022-04-16T08:19:23.175Z</time>
      </trkpt>
      <trkpt lat="45.66008" lon="5.6868">
        <ele>218</ele>
        <time>2022-04-16T08:19:24.175Z</time>
      </trkpt>
      <trkpt lat="45.66003" lon="5.68682">
        <ele>218</ele>
        <time>2022-04-16T08:19:25.176Z</time>
      </trkpt>
      <trkpt lat="45.65999" lon="5.68684">
        <ele>218</ele>
        <time>2022-04-16T08:19:26.176Z</time>
      </trkpt>
      <trkpt lat="45.65994" lon="5.68685">
        <ele>219</ele>
        <time>2022-04-16T08:19:27.176Z</time>
      </trkpt>
      <trkpt lat="45.6599" lon="5.68687">
        <ele>219</ele>
        <time>2022-04-16T08:19:28.175Z</time>
      </trkpt>
      <trkpt lat="45.65985" lon="5.68689">
        <ele>219</ele>
        <time>2022-04-16T08:19:29.176Z</time>
      </trkpt>
      <trkpt lat="45.6598" lon="5.68691">
        <ele>220</ele>
        <time>2022-04-16T08:19:30.175Z</time>
      </trkpt>
      <trkpt lat="45.65975" lon="5.68694">
        <ele>220</ele>
        <time>2022-04-16T08:19:31.176Z</time>
      </trkpt>
      <trkpt lat="45.65971" lon="5.68696">
        <ele>220</ele>
        <time>2022-04-16T08:19:32.175Z</time>
      </trkpt>
      <trkpt lat="45.65965" lon="5.68698">
        <ele>220</ele>
        <time>2022-04-16T08:19:33.176Z</time>
      </trkpt>
      <trkpt lat="45.6596" lon="5.687">
        <ele>220</ele>
        <time>2022-04-16T08:19:34.176Z</time>
      </trkpt>
      <trkpt lat="45.65955" lon="5.68702">
        <ele>220</ele>
        <time>2022-04-16T08:19:35.175Z</time>
      </trkpt>
      <trkpt lat="45.6595" lon="5.68704">
        <ele>220</ele>
        <time>2022-04-16T08:19:36.176Z</time>
      </trkpt>
      <trkpt lat="45.65945" lon="5.68706">
        <ele>220</ele>
        <time>2022-04-16T08:19:37.176Z</time>
      </trkpt>
      <trkpt lat="45.6594" lon="5.68708">
        <ele>220</ele>
        <time>2022-04-16T08:19:38.175Z</time>
      </trkpt>
      <trkpt lat="45.65935" lon="5.6871">
        <ele>220</ele>
        <time>2022-04-16T08:19:39.176Z</time>
      </trkpt>
      <trkpt lat="45.65931" lon="5.68712">
        <ele>220</ele>
        <time>2022-04-16T08:19:40.175Z</time>
      </trkpt>
      <trkpt lat="45.65927" lon="5.68713">
        <ele>220</ele>
        <time>2022-04-16T08:19:41.175Z</time>
      </trkpt>
      <trkpt lat="45.65922" lon="5.68715">
        <ele>220</ele>
        <time>2022-04-16T08:19:42.176Z</time>
      </trkpt>
      <trkpt lat="45.65916" lon="5.68717">
        <ele>220</ele>
        <time>2022-04-16T08:19:43.176Z</time>
      </trkpt>
      <trkpt lat="45.65911" lon="5.68719">
        <ele>219</ele>
        <time>2022-04-16T08:19:44.176Z</time>
      </trkpt>
      <trkpt lat="45.65906" lon="5.68721">
        <ele>219</ele>
        <time>2022-04-16T08:19:45.176Z</time>
      </trkpt>
      <trkpt lat="45.65901" lon="5.68723">
        <ele>219</ele>
        <time>2022-04-16T08:19:46.176Z</time>
      </trkpt>
      <trkpt lat="45.65896" lon="5.68725">
        <ele>219</ele>
        <time>2022-04-16T08:19:47.176Z</time>
      </trkpt>
      <trkpt lat="45.65891" lon="5.68728">
        <ele>219</ele>
        <time>2022-04-16T08:19:48.176Z</time>
      </trkpt>
      <trkpt lat="45.65886" lon="5.68729">
        <ele>219</ele>
        <time>2022-04-16T08:19:49.175Z</time>
      </trkpt>
      <trkpt lat="45.65881" lon="5.68731">
        <ele>219</ele>
        <time>2022-04-16T08:19:50.176Z</time>
      </trkpt>
      <trkpt lat="45.65878" lon="5.68732">
        <ele>219</ele>
        <time>2022-04-16T08:19:51.176Z</time>
      </trkpt>
      <trkpt lat="45.65872" lon="5.68734">
        <ele>219</ele>
        <time>2022-04-16T08:19:52.176Z</time>
      </trkpt>
      <trkpt lat="45.65868" lon="5.68736">
        <ele>219</ele>
        <time>2022-04-16T08:19:53.176Z</time>
      </trkpt>
      <trkpt lat="45.65863" lon="5.68738">
        <ele>219</ele>
        <time>2022-04-16T08:19:54.176Z</time>
      </trkpt>
      <trkpt lat="45.65858" lon="5.6874">
        <ele>219</ele>
        <time>2022-04-16T08:19:55.175Z</time>
      </trkpt>
      <trkpt lat="45.65854" lon="5.68742">
        <ele>219</ele>
        <time>2022-04-16T08:19:56.176Z</time>
      </trkpt>
      <trkpt lat="45.65849" lon="5.68744">
        <ele>219</ele>
        <time>2022-04-16T08:19:57.176Z</time>
      </trkpt>
      <trkpt lat="45.65844" lon="5.68746">
        <ele>219</ele>
        <time>2022-04-16T08:19:58.176Z</time>
      </trkpt>
      <trkpt lat="45.65839" lon="5.68748">
        <ele>219</ele>
        <time>2022-04-16T08:19:59.176Z</time>
      </trkpt>
      <trkpt lat="45.65834" lon="5.6875">
        <ele>219</ele>
        <time>2022-04-16T08:20:00.176Z</time>
      </trkpt>
      <trkpt lat="45.6583" lon="5.68752">
        <ele>219</ele>
        <time>2022-04-16T08:20:01.176Z</time>
      </trkpt>
      <trkpt lat="45.65825" lon="5.68754">
        <ele>219</ele>
        <time>2022-04-16T08:20:02.176Z</time>
      </trkpt>
      <trkpt lat="45.6582" lon="5.68756">
        <ele>219</ele>
        <time>2022-04-16T08:20:03.175Z</time>
      </trkpt>
      <trkpt lat="45.65815" lon="5.68758">
        <ele>219</ele>
        <time>2022-04-16T08:20:04.176Z</time>
      </trkpt>
      <trkpt lat="45.6581" lon="5.6876">
        <ele>219</ele>
        <time>2022-04-16T08:20:05.176Z</time>
      </trkpt>
      <trkpt lat="45.65805" lon="5.68762">
        <ele>219</ele>
        <time>2022-04-16T08:20:06.176Z</time>
      </trkpt>
      <trkpt lat="45.65802" lon="5.68764">
        <ele>219</ele>
        <time>2022-04-16T08:20:07.176Z</time>
      </trkpt>
      <trkpt lat="45.65796" lon="5.68766">
        <ele>219</ele>
        <time>2022-04-16T08:20:08.176Z</time>
      </trkpt>
      <trkpt lat="45.65791" lon="5.68768">
        <ele>219</ele>
        <time>2022-04-16T08:20:09.176Z</time>
      </trkpt>
      <trkpt lat="45.65786" lon="5.6877">
        <ele>219</ele>
        <time>2022-04-16T08:20:10.175Z</time>
      </trkpt>
      <trkpt lat="45.65782" lon="5.68772">
        <ele>219</ele>
        <time>2022-04-16T08:20:11.176Z</time>
      </trkpt>
      <trkpt lat="45.65778" lon="5.68773">
        <ele>219</ele>
        <time>2022-04-16T08:20:12.175Z</time>
      </trkpt>
      <trkpt lat="45.65772" lon="5.68776">
        <ele>219</ele>
        <time>2022-04-16T08:20:13.176Z</time>
      </trkpt>
      <trkpt lat="45.65768" lon="5.68778">
        <ele>219</ele>
        <time>2022-04-16T08:20:14.176Z</time>
      </trkpt>
      <trkpt lat="45.65763" lon="5.6878">
        <ele>219</ele>
        <time>2022-04-16T08:20:15.176Z</time>
      </trkpt>
      <trkpt lat="45.65759" lon="5.68781">
        <ele>219</ele>
        <time>2022-04-16T08:20:16.176Z</time>
      </trkpt>
      <trkpt lat="45.65753" lon="5.68783">
        <ele>219</ele>
        <time>2022-04-16T08:20:17.175Z</time>
      </trkpt>
      <trkpt lat="45.65748" lon="5.68785">
        <ele>219</ele>
        <time>2022-04-16T08:20:18.176Z</time>
      </trkpt>
      <trkpt lat="45.65744" lon="5.68787">
        <ele>219</ele>
        <time>2022-04-16T08:20:19.176Z</time>
      </trkpt>
      <trkpt lat="45.65739" lon="5.68789">
        <ele>219</ele>
        <time>2022-04-16T08:20:20.175Z</time>
      </trkpt>
      <trkpt lat="45.65734" lon="5.68791">
        <ele>219</ele>
        <time>2022-04-16T08:20:21.175Z</time>
      </trkpt>
      <trkpt lat="45.65729" lon="5.68793">
        <ele>219</ele>
        <time>2022-04-16T08:20:22.176Z</time>
      </trkpt>
      <trkpt lat="45.65725" lon="5.68795">
        <ele>219</ele>
        <time>2022-04-16T08:20:23.175Z</time>
      </trkpt>
      <trkpt lat="45.6572" lon="5.68797">
        <ele>219</ele>
        <time>2022-04-16T08:20:24.175Z</time>
      </trkpt>
      <trkpt lat="45.65715" lon="5.68799">
        <ele>219</ele>
        <time>2022-04-16T08:20:25.175Z</time>
      </trkpt>
      <trkpt lat="45.6571" lon="5.68801">
        <ele>219</ele>
        <time>2022-04-16T08:20:26.175Z</time>
      </trkpt>
      <trkpt lat="45.65706" lon="5.68803">
        <ele>219</ele>
        <time>2022-04-16T08:20:27.175Z</time>
      </trkpt>
      <trkpt lat="45.65701" lon="5.68805">
        <ele>219</ele>
        <time>2022-04-16T08:20:28.175Z</time>
      </trkpt>
      <trkpt lat="45.65696" lon="5.68807">
        <ele>219</ele>
        <time>2022-04-16T08:20:29.176Z</time>
      </trkpt>
      <trkpt lat="45.65691" lon="5.68809">
        <ele>219</ele>
        <time>2022-04-16T08:20:30.175Z</time>
      </trkpt>
      <trkpt lat="45.65687" lon="5.68811">
        <ele>219</ele>
        <time>2022-04-16T08:20:31.175Z</time>
      </trkpt>
      <trkpt lat="45.65682" lon="5.68813">
        <ele>219</ele>
        <time>2022-04-16T08:20:32.176Z</time>
      </trkpt>
      <trkpt lat="45.65677" lon="5.68815">
        <ele>219</ele>
        <time>2022-04-16T08:20:33.176Z</time>
      </trkpt>
      <trkpt lat="45.65673" lon="5.68817">
        <ele>219</ele>
        <time>2022-04-16T08:20:34.176Z</time>
      </trkpt>
      <trkpt lat="45.65668" lon="5.68819">
        <ele>219</ele>
        <time>2022-04-16T08:20:35.176Z</time>
      </trkpt>
      <trkpt lat="45.65663" lon="5.68821">
        <ele>219</ele>
        <time>2022-04-16T08:20:36.176Z</time>
      </trkpt>
      <trkpt lat="45.65658" lon="5.68822">
        <ele>220</ele>
        <time>2022-04-16T08:20:37.176Z</time>
      </trkpt>
      <trkpt lat="45.65653" lon="5.68825">
        <ele>219</ele>
        <time>2022-04-16T08:20:38.176Z</time>
      </trkpt>
      <trkpt lat="45.65648" lon="5.68827">
        <ele>219</ele>
        <time>2022-04-16T08:20:39.176Z</time>
      </trkpt>
      <trkpt lat="45.65644" lon="5.68828">
        <ele>219</ele>
        <time>2022-04-16T08:20:40.175Z</time>
      </trkpt>
      <trkpt lat="45.65639" lon="5.6883">
        <ele>219</ele>
        <time>2022-04-16T08:20:41.176Z</time>
      </trkpt>
      <trkpt lat="45.65633" lon="5.68833">
        <ele>219</ele>
        <time>2022-04-16T08:20:42.176Z</time>
      </trkpt>
      <trkpt lat="45.65628" lon="5.68835">
        <ele>219</ele>
        <time>2022-04-16T08:20:43.175Z</time>
      </trkpt>
      <trkpt lat="45.65623" lon="5.68837">
        <ele>219</ele>
        <time>2022-04-16T08:20:44.176Z</time>
      </trkpt>
      <trkpt lat="45.65619" lon="5.68839">
        <ele>219</ele>
        <time>2022-04-16T08:20:45.175Z</time>
      </trkpt>
      <trkpt lat="45.65615" lon="5.6884">
        <ele>220</ele>
        <time>2022-04-16T08:20:46.176Z</time>
      </trkpt>
      <trkpt lat="45.65609" lon="5.68842">
        <ele>220</ele>
        <time>2022-04-16T08:20:47.176Z</time>
      </trkpt>
      <trkpt lat="45.65604" lon="5.68844">
        <ele>220</ele>
        <time>2022-04-16T08:20:48.176Z</time>
      </trkpt>
      <trkpt lat="45.65599" lon="5.68846">
        <ele>220</ele>
        <time>2022-04-16T08:20:49.176Z</time>
      </trkpt>
      <trkpt lat="45.65594" lon="5.68848">
        <ele>220</ele>
        <time>2022-04-16T08:20:50.176Z</time>
      </trkpt>
      <trkpt lat="45.65589" lon="5.6885">
        <ele>221</ele>
        <time>2022-04-16T08:20:51.176Z</time>
      </trkpt>
      <trkpt lat="45.65584" lon="5.68852">
        <ele>221</ele>
        <time>2022-04-16T08:20:52.175Z</time>
      </trkpt>
      <trkpt lat="45.65579" lon="5.68854">
        <ele>220</ele>
        <time>2022-04-16T08:20:53.176Z</time>
      </trkpt>
      <trkpt lat="45.65574" lon="5.68856">
        <ele>220</ele>
        <time>2022-04-16T08:20:54.176Z</time>
      </trkpt>
      <trkpt lat="45.6557" lon="5.68858">
        <ele>220</ele>
        <time>2022-04-16T08:20:55.176Z</time>
      </trkpt>
      <trkpt lat="45.65565" lon="5.6886">
        <ele>220</ele>
        <time>2022-04-16T08:20:56.175Z</time>
      </trkpt>
      <trkpt lat="45.6556" lon="5.68862">
        <ele>220</ele>
        <time>2022-04-16T08:20:57.176Z</time>
      </trkpt>
      <trkpt lat="45.65555" lon="5.68864">
        <ele>220</ele>
        <time>2022-04-16T08:20:58.175Z</time>
      </trkpt>
      <trkpt lat="45.65551" lon="5.68866">
        <ele>220</ele>
        <time>2022-04-16T08:20:59.176Z</time>
      </trkpt>
      <trkpt lat="45.65546" lon="5.68868">
        <ele>220</ele>
        <time>2022-04-16T08:21:00.176Z</time>
      </trkpt>
      <trkpt lat="45.65541" lon="5.6887">
        <ele>220</ele>
        <time>2022-04-16T08:21:01.175Z</time>
      </trkpt>
      <trkpt lat="45.65536" lon="5.68872">
        <ele>220</ele>
        <time>2022-04-16T08:21:02.175Z</time>
      </trkpt>
      <trkpt lat="45.65532" lon="5.68874">
        <ele>220</ele>
        <time>2022-04-16T08:21:03.175Z</time>
      </trkpt>
      <trkpt lat="45.65528" lon="5.68875">
        <ele>220</ele>
        <time>2022-04-16T08:21:04.176Z</time>
      </trkpt>
      <trkpt lat="45.65523" lon="5.68877">
        <ele>220</ele>
        <time>2022-04-16T08:21:05.175Z</time>
      </trkpt>
      <trkpt lat="45.65518" lon="5.68879">
        <ele>220</ele>
        <time>2022-04-16T08:21:06.175Z</time>
      </trkpt>
      <trkpt lat="45.65512" lon="5.68881">
        <ele>220</ele>
        <time>2022-04-16T08:21:07.175Z</time>
      </trkpt>
      <trkpt lat="45.65507" lon="5.68884">
        <ele>220</ele>
        <time>2022-04-16T08:21:08.176Z</time>
      </trkpt>
      <trkpt lat="45.65502" lon="5.68886">
        <ele>220</ele>
        <time>2022-04-16T08:21:09.176Z</time>
      </trkpt>
      <trkpt lat="45.65497" lon="5.68887">
        <ele>220</ele>
        <time>2022-04-16T08:21:10.176Z</time>
      </trkpt>
      <trkpt lat="45.65492" lon="5.68889">
        <ele>220</ele>
        <time>2022-04-16T08:21:11.175Z</time>
      </trkpt>
      <trkpt lat="45.65487" lon="5.68892">
        <ele>219</ele>
        <time>2022-04-16T08:21:12.176Z</time>
      </trkpt>
      <trkpt lat="45.65482" lon="5.68894">
        <ele>219</ele>
        <time>2022-04-16T08:21:13.176Z</time>
      </trkpt>
      <trkpt lat="45.65477" lon="5.68896">
        <ele>219</ele>
        <time>2022-04-16T08:21:14.176Z</time>
      </trkpt>
      <trkpt lat="45.65471" lon="5.68898">
        <ele>218</ele>
        <time>2022-04-16T08:21:15.176Z</time>
      </trkpt>
      <trkpt lat="45.65466" lon="5.68899">
        <ele>218</ele>
        <time>2022-04-16T08:21:16.176Z</time>
      </trkpt>
      <trkpt lat="45.65461" lon="5.68901">
        <ele>218</ele>
        <time>2022-04-16T08:21:17.176Z</time>
      </trkpt>
      <trkpt lat="45.65456" lon="5.68904">
        <ele>218</ele>
        <time>2022-04-16T08:21:18.176Z</time>
      </trkpt>
      <trkpt lat="45.6545" lon="5.68906">
        <ele>218</ele>
        <time>2022-04-16T08:21:19.176Z</time>
      </trkpt>
      <trkpt lat="45.65445" lon="5.68908">
        <ele>218</ele>
        <time>2022-04-16T08:21:20.176Z</time>
      </trkpt>
      <trkpt lat="45.6544" lon="5.6891">
        <ele>218</ele>
        <time>2022-04-16T08:21:21.176Z</time>
      </trkpt>
      <trkpt lat="45.65435" lon="5.68911">
        <ele>218</ele>
        <time>2022-04-16T08:21:22.176Z</time>
      </trkpt>
      <trkpt lat="45.6543" lon="5.68914">
        <ele>218</ele>
        <time>2022-04-16T08:21:23.176Z</time>
      </trkpt>
      <trkpt lat="45.65425" lon="5.68915">
        <ele>218</ele>
        <time>2022-04-16T08:21:24.176Z</time>
      </trkpt>
      <trkpt lat="45.6542" lon="5.68918">
        <ele>218</ele>
        <time>2022-04-16T08:21:25.176Z</time>
      </trkpt>
      <trkpt lat="45.65414" lon="5.6892">
        <ele>218</ele>
        <time>2022-04-16T08:21:26.176Z</time>
      </trkpt>
      <trkpt lat="45.65409" lon="5.68922">
        <ele>218</ele>
        <time>2022-04-16T08:21:27.175Z</time>
      </trkpt>
      <trkpt lat="45.65404" lon="5.68924">
        <ele>218</ele>
        <time>2022-04-16T08:21:28.176Z</time>
      </trkpt>
      <trkpt lat="45.65399" lon="5.68926">
        <ele>219</ele>
        <time>2022-04-16T08:21:29.175Z</time>
      </trkpt>
      <trkpt lat="45.65394" lon="5.68928">
        <ele>219</ele>
        <time>2022-04-16T08:21:30.176Z</time>
      </trkpt>
      <trkpt lat="45.65389" lon="5.6893">
        <ele>220</ele>
        <time>2022-04-16T08:21:31.176Z</time>
      </trkpt>
      <trkpt lat="45.65384" lon="5.68932">
        <ele>220</ele>
        <time>2022-04-16T08:21:32.176Z</time>
      </trkpt>
      <trkpt lat="45.65379" lon="5.68934">
        <ele>220</ele>
        <time>2022-04-16T08:21:33.176Z</time>
      </trkpt>
      <trkpt lat="45.65374" lon="5.68937">
        <ele>221</ele>
        <time>2022-04-16T08:21:34.176Z</time>
      </trkpt>
      <trkpt lat="45.65369" lon="5.68939">
        <ele>221</ele>
        <time>2022-04-16T08:21:35.176Z</time>
      </trkpt>
      <trkpt lat="45.65364" lon="5.68941">
        <ele>221</ele>
        <time>2022-04-16T08:21:36.176Z</time>
      </trkpt>
      <trkpt lat="45.65359" lon="5.68943">
        <ele>221</ele>
        <time>2022-04-16T08:21:37.175Z</time>
      </trkpt>
      <trkpt lat="45.65354" lon="5.68944">
        <ele>221</ele>
        <time>2022-04-16T08:21:38.175Z</time>
      </trkpt>
      <trkpt lat="45.65349" lon="5.68946">
        <ele>221</ele>
        <time>2022-04-16T08:21:39.175Z</time>
      </trkpt>
      <trkpt lat="45.65344" lon="5.68948">
        <ele>220</ele>
        <time>2022-04-16T08:21:40.175Z</time>
      </trkpt>
      <trkpt lat="45.65338" lon="5.6895">
        <ele>220</ele>
        <time>2022-04-16T08:21:41.176Z</time>
      </trkpt>
      <trkpt lat="45.65333" lon="5.68952">
        <ele>221</ele>
        <time>2022-04-16T08:21:42.176Z</time>
      </trkpt>
      <trkpt lat="45.65328" lon="5.68954">
        <ele>221</ele>
        <time>2022-04-16T08:21:43.176Z</time>
      </trkpt>
      <trkpt lat="45.65323" lon="5.68956">
        <ele>221</ele>
        <time>2022-04-16T08:21:44.176Z</time>
      </trkpt>
      <trkpt lat="45.65318" lon="5.68958">
        <ele>221</ele>
        <time>2022-04-16T08:21:45.176Z</time>
      </trkpt>
      <trkpt lat="45.65312" lon="5.6896">
        <ele>220</ele>
        <time>2022-04-16T08:21:46.176Z</time>
      </trkpt>
      <trkpt lat="45.65307" lon="5.68962">
        <ele>220</ele>
        <time>2022-04-16T08:21:47.176Z</time>
      </trkpt>
      <trkpt lat="45.65302" lon="5.68964">
        <ele>221</ele>
        <time>2022-04-16T08:21:48.176Z</time>
      </trkpt>
      <trkpt lat="45.65297" lon="5.68966">
        <ele>220</ele>
        <time>2022-04-16T08:21:49.176Z</time>
      </trkpt>
      <trkpt lat="45.65292" lon="5.68969">
        <ele>220</ele>
        <time>2022-04-16T08:21:50.175Z</time>
      </trkpt>
      <trkpt lat="45.65287" lon="5.68971">
        <ele>220</ele>
        <time>2022-04-16T08:21:51.176Z</time>
      </trkpt>
      <trkpt lat="45.65282" lon="5.68973">
        <ele>220</ele>
        <time>2022-04-16T08:21:52.176Z</time>
      </trkpt>
      <trkpt lat="45.65277" lon="5.68975">
        <ele>219</ele>
        <time>2022-04-16T08:21:53.175Z</time>
      </trkpt>
      <trkpt lat="45.65273" lon="5.68977">
        <ele>219</ele>
        <time>2022-04-16T08:21:54.176Z</time>
      </trkpt>
      <trkpt lat="45.65268" lon="5.68978">
        <ele>219</ele>
        <time>2022-04-16T08:21:55.175Z</time>
      </trkpt>
      <trkpt lat="45.65263" lon="5.6898">
        <ele>219</ele>
        <time>2022-04-16T08:21:56.176Z</time>
      </trkpt>
      <trkpt lat="45.65258" lon="5.68982">
        <ele>220</ele>
        <time>2022-04-16T08:21:57.176Z</time>
      </trkpt>
      <trkpt lat="45.65253" lon="5.68984">
        <ele>220</ele>
        <time>2022-04-16T08:21:58.176Z</time>
      </trkpt>
      <trkpt lat="45.65248" lon="5.68986">
        <ele>220</ele>
        <time>2022-04-16T08:21:59.175Z</time>
      </trkpt>
      <trkpt lat="45.65243" lon="5.68988">
        <ele>220</ele>
        <time>2022-04-16T08:22:00.176Z</time>
      </trkpt>
      <trkpt lat="45.65238" lon="5.6899">
        <ele>221</ele>
        <time>2022-04-16T08:22:01.176Z</time>
      </trkpt>
      <trkpt lat="45.65234" lon="5.68992">
        <ele>221</ele>
        <time>2022-04-16T08:22:02.176Z</time>
      </trkpt>
      <trkpt lat="45.65229" lon="5.68995">
        <ele>221</ele>
        <time>2022-04-16T08:22:03.175Z</time>
      </trkpt>
      <trkpt lat="45.65224" lon="5.68997">
        <ele>221</ele>
        <time>2022-04-16T08:22:04.176Z</time>
      </trkpt>
      <trkpt lat="45.65219" lon="5.68998">
        <ele>221</ele>
        <time>2022-04-16T08:22:05.176Z</time>
      </trkpt>
      <trkpt lat="45.65214" lon="5.69">
        <ele>221</ele>
        <time>2022-04-16T08:22:06.176Z</time>
      </trkpt>
      <trkpt lat="45.65209" lon="5.69002">
        <ele>221</ele>
        <time>2022-04-16T08:22:07.175Z</time>
      </trkpt>
      <trkpt lat="45.65203" lon="5.69004">
        <ele>221</ele>
        <time>2022-04-16T08:22:08.176Z</time>
      </trkpt>
      <trkpt lat="45.65198" lon="5.69006">
        <ele>221</ele>
        <time>2022-04-16T08:22:09.176Z</time>
      </trkpt>
      <trkpt lat="45.65193" lon="5.69008">
        <ele>221</ele>
        <time>2022-04-16T08:22:10.176Z</time>
      </trkpt>
      <trkpt lat="45.65188" lon="5.69011">
        <ele>221</ele>
        <time>2022-04-16T08:22:11.175Z</time>
      </trkpt>
      <trkpt lat="45.65183" lon="5.69014">
        <ele>221</ele>
        <time>2022-04-16T08:22:12.176Z</time>
      </trkpt>
      <trkpt lat="45.65178" lon="5.69017">
        <ele>221</ele>
        <time>2022-04-16T08:22:13.175Z</time>
      </trkpt>
      <trkpt lat="45.65173" lon="5.6902">
        <ele>220</ele>
        <time>2022-04-16T08:22:14.176Z</time>
      </trkpt>
      <trkpt lat="45.65168" lon="5.69024">
        <ele>220</ele>
        <time>2022-04-16T08:22:15.176Z</time>
      </trkpt>
      <trkpt lat="45.65164" lon="5.69027">
        <ele>220</ele>
        <time>2022-04-16T08:22:16.176Z</time>
      </trkpt>
      <trkpt lat="45.65158" lon="5.69031">
        <ele>220</ele>
        <time>2022-04-16T08:22:17.176Z</time>
      </trkpt>
      <trkpt lat="45.65153" lon="5.69035">
        <ele>220</ele>
        <time>2022-04-16T08:22:18.176Z</time>
      </trkpt>
      <trkpt lat="45.65147" lon="5.69039">
        <ele>220</ele>
        <time>2022-04-16T08:22:19.175Z</time>
      </trkpt>
      <trkpt lat="45.65143" lon="5.69044">
        <ele>220</ele>
        <time>2022-04-16T08:22:20.175Z</time>
      </trkpt>
      <trkpt lat="45.6514" lon="5.6905">
        <ele>220</ele>
        <time>2022-04-16T08:22:21.176Z</time>
      </trkpt>
      <trkpt lat="45.65138" lon="5.69056">
        <ele>219</ele>
        <time>2022-04-16T08:22:22.175Z</time>
      </trkpt>
      <trkpt lat="45.65137" lon="5.69061">
        <ele>219</ele>
        <time>2022-04-16T08:22:23.175Z</time>
      </trkpt>
      <trkpt lat="45.65137" lon="5.69066">
        <ele>219</ele>
        <time>2022-04-16T08:22:24.175Z</time>
      </trkpt>
      <trkpt lat="45.65136" lon="5.69071">
        <ele>219</ele>
        <time>2022-04-16T08:22:25.176Z</time>
      </trkpt>
      <trkpt lat="45.65136" lon="5.69075">
        <ele>219</ele>
        <time>2022-04-16T08:22:26.176Z</time>
      </trkpt>
      <trkpt lat="45.65135" lon="5.6908">
        <ele>219</ele>
        <time>2022-04-16T08:22:27.176Z</time>
      </trkpt>
      <trkpt lat="45.65134" lon="5.69086">
        <ele>219</ele>
        <time>2022-04-16T08:22:28.176Z</time>
      </trkpt>
      <trkpt lat="45.65132" lon="5.6909">
        <ele>219</ele>
        <time>2022-04-16T08:22:29.175Z</time>
      </trkpt>
      <trkpt lat="45.65129" lon="5.69094">
        <ele>219</ele>
        <time>2022-04-16T08:22:30.175Z</time>
      </trkpt>
      <trkpt lat="45.65126" lon="5.69097">
        <ele>219</ele>
        <time>2022-04-16T08:22:31.176Z</time>
      </trkpt>
      <trkpt lat="45.65122" lon="5.69098">
        <ele>218</ele>
        <time>2022-04-16T08:22:32.176Z</time>
      </trkpt>
      <trkpt lat="45.65118" lon="5.691">
        <ele>218</ele>
        <time>2022-04-16T08:22:33.176Z</time>
      </trkpt>
      <trkpt lat="45.65114" lon="5.69102">
        <ele>219</ele>
        <time>2022-04-16T08:22:34.176Z</time>
      </trkpt>
      <trkpt lat="45.6511" lon="5.69103">
        <ele>219</ele>
        <time>2022-04-16T08:22:35.176Z</time>
      </trkpt>
      <trkpt lat="45.65106" lon="5.69104">
        <ele>219</ele>
        <time>2022-04-16T08:22:36.176Z</time>
      </trkpt>
      <trkpt lat="45.65102" lon="5.69105">
        <ele>218</ele>
        <time>2022-04-16T08:22:37.176Z</time>
      </trkpt>
      <trkpt lat="45.65098" lon="5.69106">
        <ele>218</ele>
        <time>2022-04-16T08:22:38.176Z</time>
      </trkpt>
      <trkpt lat="45.65094" lon="5.69107">
        <ele>218</ele>
        <time>2022-04-16T08:22:39.175Z</time>
      </trkpt>
      <trkpt lat="45.6509" lon="5.69108">
        <ele>218</ele>
        <time>2022-04-16T08:22:40.176Z</time>
      </trkpt>
      <trkpt lat="45.65086" lon="5.6911">
        <ele>218</ele>
        <time>2022-04-16T08:22:41.175Z</time>
      </trkpt>
      <trkpt lat="45.65081" lon="5.6911">
        <ele>218</ele>
        <time>2022-04-16T08:22:42.176Z</time>
      </trkpt>
      <trkpt lat="45.65077" lon="5.69111">
        <ele>219</ele>
        <time>2022-04-16T08:22:43.176Z</time>
      </trkpt>
      <trkpt lat="45.65073" lon="5.69112">
        <ele>219</ele>
        <time>2022-04-16T08:22:44.175Z</time>
      </trkpt>
      <trkpt lat="45.65068" lon="5.69113">
        <ele>219</ele>
        <time>2022-04-16T08:22:45.176Z</time>
      </trkpt>
      <trkpt lat="45.65063" lon="5.69114">
        <ele>219</ele>
        <time>2022-04-16T08:22:46.176Z</time>
      </trkpt>
      <trkpt lat="45.65059" lon="5.69115">
        <ele>219</ele>
        <time>2022-04-16T08:22:47.176Z</time>
      </trkpt>
      <trkpt lat="45.65054" lon="5.69115">
        <ele>220</ele>
        <time>2022-04-16T08:22:48.175Z</time>
      </trkpt>
      <trkpt lat="45.65049" lon="5.69116">
        <ele>219</ele>
        <time>2022-04-16T08:22:49.176Z</time>
      </trkpt>
      <trkpt lat="45.65045" lon="5.69117">
        <ele>219</ele>
        <time>2022-04-16T08:22:50.176Z</time>
      </trkpt>
      <trkpt lat="45.6504" lon="5.69118">
        <ele>219</ele>
        <time>2022-04-16T08:22:51.176Z</time>
      </trkpt>
      <trkpt lat="45.65035" lon="5.69119">
        <ele>219</ele>
        <time>2022-04-16T08:22:52.176Z</time>
      </trkpt>
      <trkpt lat="45.6503" lon="5.6912">
        <ele>219</ele>
        <time>2022-04-16T08:22:53.175Z</time>
      </trkpt>
      <trkpt lat="45.65025" lon="5.69121">
        <ele>219</ele>
        <time>2022-04-16T08:22:54.176Z</time>
      </trkpt>
      <trkpt lat="45.6502" lon="5.69122">
        <ele>219</ele>
        <time>2022-04-16T08:22:55.176Z</time>
      </trkpt>
      <trkpt lat="45.65015" lon="5.69123">
        <ele>219</ele>
        <time>2022-04-16T08:22:56.176Z</time>
      </trkpt>
      <trkpt lat="45.6501" lon="5.69124">
        <ele>219</ele>
        <time>2022-04-16T08:22:57.176Z</time>
      </trkpt>
      <trkpt lat="45.65006" lon="5.69125">
        <ele>219</ele>
        <time>2022-04-16T08:22:58.176Z</time>
      </trkpt>
      <trkpt lat="45.65001" lon="5.69126">
        <ele>219</ele>
        <time>2022-04-16T08:22:59.176Z</time>
      </trkpt>
      <trkpt lat="45.64996" lon="5.69126">
        <ele>219</ele>
        <time>2022-04-16T08:23:00.176Z</time>
      </trkpt>
      <trkpt lat="45.64991" lon="5.69127">
        <ele>219</ele>
        <time>2022-04-16T08:23:01.175Z</time>
      </trkpt>
      <trkpt lat="45.64987" lon="5.69128">
        <ele>220</ele>
        <time>2022-04-16T08:23:02.175Z</time>
      </trkpt>
      <trkpt lat="45.64982" lon="5.69128">
        <ele>220</ele>
        <time>2022-04-16T08:23:03.176Z</time>
      </trkpt>
      <trkpt lat="45.64977" lon="5.69129">
        <ele>220</ele>
        <time>2022-04-16T08:23:04.176Z</time>
      </trkpt>
      <trkpt lat="45.64972" lon="5.69129">
        <ele>220</ele>
        <time>2022-04-16T08:23:05.176Z</time>
      </trkpt>
      <trkpt lat="45.64967" lon="5.6913">
        <ele>219</ele>
        <time>2022-04-16T08:23:06.176Z</time>
      </trkpt>
      <trkpt lat="45.64962" lon="5.69131">
        <ele>219</ele>
        <time>2022-04-16T08:23:07.176Z</time>
      </trkpt>
      <trkpt lat="45.64957" lon="5.69131">
        <ele>219</ele>
        <time>2022-04-16T08:23:08.176Z</time>
      </trkpt>
      <trkpt lat="45.64952" lon="5.69132">
        <ele>219</ele>
        <time>2022-04-16T08:23:09.175Z</time>
      </trkpt>
      <trkpt lat="45.64947" lon="5.69133">
        <ele>219</ele>
        <time>2022-04-16T08:23:10.176Z</time>
      </trkpt>
      <trkpt lat="45.64942" lon="5.69133">
        <ele>219</ele>
        <time>2022-04-16T08:23:11.175Z</time>
      </trkpt>
      <trkpt lat="45.64937" lon="5.69134">
        <ele>219</ele>
        <time>2022-04-16T08:23:12.176Z</time>
      </trkpt>
      <trkpt lat="45.64932" lon="5.69135">
        <ele>219</ele>
        <time>2022-04-16T08:23:13.176Z</time>
      </trkpt>
      <trkpt lat="45.64927" lon="5.69137">
        <ele>219</ele>
        <time>2022-04-16T08:23:14.175Z</time>
      </trkpt>
      <trkpt lat="45.64922" lon="5.69138">
        <ele>219</ele>
        <time>2022-04-16T08:23:15.175Z</time>
      </trkpt>
      <trkpt lat="45.64917" lon="5.6914">
        <ele>219</ele>
        <time>2022-04-16T08:23:16.176Z</time>
      </trkpt>
      <trkpt lat="45.64912" lon="5.69142">
        <ele>219</ele>
        <time>2022-04-16T08:23:17.176Z</time>
      </trkpt>
      <trkpt lat="45.64907" lon="5.69145">
        <ele>219</ele>
        <time>2022-04-16T08:23:18.176Z</time>
      </trkpt>
      <trkpt lat="45.64903" lon="5.69149">
        <ele>219</ele>
        <time>2022-04-16T08:23:19.176Z</time>
      </trkpt>
      <trkpt lat="45.64898" lon="5.69152">
        <ele>218</ele>
        <time>2022-04-16T08:23:20.175Z</time>
      </trkpt>
      <trkpt lat="45.64894" lon="5.69156">
        <ele>218</ele>
        <time>2022-04-16T08:23:21.175Z</time>
      </trkpt>
      <trkpt lat="45.64889" lon="5.69161">
        <ele>217</ele>
        <time>2022-04-16T08:23:22.175Z</time>
      </trkpt>
      <trkpt lat="45.64885" lon="5.69165">
        <ele>217</ele>
        <time>2022-04-16T08:23:23.176Z</time>
      </trkpt>
      <trkpt lat="45.6488" lon="5.69169">
        <ele>216</ele>
        <time>2022-04-16T08:23:24.176Z</time>
      </trkpt>
      <trkpt lat="45.64876" lon="5.69174">
        <ele>217</ele>
        <time>2022-04-16T08:23:25.176Z</time>
      </trkpt>
      <trkpt lat="45.64872" lon="5.69178">
        <ele>217</ele>
        <time>2022-04-16T08:23:26.176Z</time>
      </trkpt>
      <trkpt lat="45.64867" lon="5.69182">
        <ele>217</ele>
        <time>2022-04-16T08:23:27.176Z</time>
      </trkpt>
      <trkpt lat="45.64863" lon="5.69187">
        <ele>217</ele>
        <time>2022-04-16T08:23:28.175Z</time>
      </trkpt>
      <trkpt lat="45.64859" lon="5.69191">
        <ele>218</ele>
        <time>2022-04-16T08:23:29.176Z</time>
      </trkpt>
      <trkpt lat="45.64854" lon="5.69196">
        <ele>218</ele>
        <time>2022-04-16T08:23:30.176Z</time>
      </trkpt>
      <trkpt lat="45.6485" lon="5.692">
        <ele>218</ele>
        <time>2022-04-16T08:23:31.175Z</time>
      </trkpt>
      <trkpt lat="45.64846" lon="5.69205">
        <ele>218</ele>
        <time>2022-04-16T08:23:32.175Z</time>
      </trkpt>
      <trkpt lat="45.64841" lon="5.69209">
        <ele>218</ele>
        <time>2022-04-16T08:23:33.176Z</time>
      </trkpt>
      <trkpt lat="45.64837" lon="5.69213">
        <ele>217</ele>
        <time>2022-04-16T08:23:34.176Z</time>
      </trkpt>
      <trkpt lat="45.64832" lon="5.69218">
        <ele>217</ele>
        <time>2022-04-16T08:23:35.175Z</time>
      </trkpt>
      <trkpt lat="45.64828" lon="5.69222">
        <ele>217</ele>
        <time>2022-04-16T08:23:36.175Z</time>
      </trkpt>
      <trkpt lat="45.64823" lon="5.69226">
        <ele>217</ele>
        <time>2022-04-16T08:23:37.175Z</time>
      </trkpt>
      <trkpt lat="45.64819" lon="5.69231">
        <ele>217</ele>
        <time>2022-04-16T08:23:38.175Z</time>
      </trkpt>
      <trkpt lat="45.64815" lon="5.69235">
        <ele>217</ele>
        <time>2022-04-16T08:23:39.176Z</time>
      </trkpt>
      <trkpt lat="45.6481" lon="5.69239">
        <ele>217</ele>
        <time>2022-04-16T08:23:40.176Z</time>
      </trkpt>
      <trkpt lat="45.64806" lon="5.69243">
        <ele>217</ele>
        <time>2022-04-16T08:23:41.175Z</time>
      </trkpt>
      <trkpt lat="45.64801" lon="5.69248">
        <ele>218</ele>
        <time>2022-04-16T08:23:42.176Z</time>
      </trkpt>
      <trkpt lat="45.64797" lon="5.69252">
        <ele>218</ele>
        <time>2022-04-16T08:23:43.176Z</time>
      </trkpt>
      <trkpt lat="45.64792" lon="5.69257">
        <ele>218</ele>
        <time>2022-04-16T08:23:44.176Z</time>
      </trkpt>
      <trkpt lat="45.64788" lon="5.69261">
        <ele>218</ele>
        <time>2022-04-16T08:23:45.175Z</time>
      </trkpt>
      <trkpt lat="45.64783" lon="5.69265">
        <ele>218</ele>
        <time>2022-04-16T08:23:46.176Z</time>
      </trkpt>
      <trkpt lat="45.64778" lon="5.69269">
        <ele>217</ele>
        <time>2022-04-16T08:23:47.176Z</time>
      </trkpt>
      <trkpt lat="45.64773" lon="5.69273">
        <ele>217</ele>
        <time>2022-04-16T08:23:48.176Z</time>
      </trkpt>
      <trkpt lat="45.64769" lon="5.69277">
        <ele>217</ele>
        <time>2022-04-16T08:23:49.176Z</time>
      </trkpt>
      <trkpt lat="45.64764" lon="5.6928">
        <ele>218</ele>
        <time>2022-04-16T08:23:50.175Z</time>
      </trkpt>
      <trkpt lat="45.64759" lon="5.69284">
        <ele>218</ele>
        <time>2022-04-16T08:23:51.176Z</time>
      </trkpt>
      <trkpt lat="45.64754" lon="5.69287">
        <ele>218</ele>
        <time>2022-04-16T08:23:52.176Z</time>
      </trkpt>
      <trkpt lat="45.64749" lon="5.6929">
        <ele>219</ele>
        <time>2022-04-16T08:23:53.175Z</time>
      </trkpt>
      <trkpt lat="45.64744" lon="5.69293">
        <ele>219</ele>
        <time>2022-04-16T08:23:54.176Z</time>
      </trkpt>
      <trkpt lat="45.64739" lon="5.69296">
        <ele>219</ele>
        <time>2022-04-16T08:23:55.176Z</time>
      </trkpt>
      <trkpt lat="45.64734" lon="5.69298">
        <ele>219</ele>
        <time>2022-04-16T08:23:56.176Z</time>
      </trkpt>
      <trkpt lat="45.64729" lon="5.69301">
        <ele>219</ele>
        <time>2022-04-16T08:23:57.176Z</time>
      </trkpt>
      <trkpt lat="45.64723" lon="5.69303">
        <ele>219</ele>
        <time>2022-04-16T08:23:58.176Z</time>
      </trkpt>
      <trkpt lat="45.64718" lon="5.69305">
        <ele>219</ele>
        <time>2022-04-16T08:23:59.176Z</time>
      </trkpt>
      <trkpt lat="45.64713" lon="5.69307">
        <ele>219</ele>
        <time>2022-04-16T08:24:00.175Z</time>
      </trkpt>
      <trkpt lat="45.64708" lon="5.69309">
        <ele>219</ele>
        <time>2022-04-16T08:24:01.176Z</time>
      </trkpt>
      <trkpt lat="45.64703" lon="5.6931">
        <ele>218</ele>
        <time>2022-04-16T08:24:02.176Z</time>
      </trkpt>
      <trkpt lat="45.64697" lon="5.6931">
        <ele>218</ele>
        <time>2022-04-16T08:24:03.175Z</time>
      </trkpt>
      <trkpt lat="45.64692" lon="5.6931">
        <ele>218</ele>
        <time>2022-04-16T08:24:04.176Z</time>
      </trkpt>
      <trkpt lat="45.64687" lon="5.6931">
        <ele>218</ele>
        <time>2022-04-16T08:24:05.176Z</time>
      </trkpt>
      <trkpt lat="45.64682" lon="5.69309">
        <ele>218</ele>
        <time>2022-04-16T08:24:06.175Z</time>
      </trkpt>
      <trkpt lat="45.64676" lon="5.69308">
        <ele>218</ele>
        <time>2022-04-16T08:24:07.176Z</time>
      </trkpt>
      <trkpt lat="45.64671" lon="5.69306">
        <ele>218</ele>
        <time>2022-04-16T08:24:08.176Z</time>
      </trkpt>
      <trkpt lat="45.64665" lon="5.69304">
        <ele>218</ele>
        <time>2022-04-16T08:24:09.176Z</time>
      </trkpt>
      <trkpt lat="45.6466" lon="5.69302">
        <ele>218</ele>
        <time>2022-04-16T08:24:10.175Z</time>
      </trkpt>
      <trkpt lat="45.64655" lon="5.69299">
        <ele>218</ele>
        <time>2022-04-16T08:24:11.175Z</time>
      </trkpt>
      <trkpt lat="45.6465" lon="5.69296">
        <ele>218</ele>
        <time>2022-04-16T08:24:12.176Z</time>
      </trkpt>
      <trkpt lat="45.64644" lon="5.69294">
        <ele>218</ele>
        <time>2022-04-16T08:24:13.176Z</time>
      </trkpt>
      <trkpt lat="45.64639" lon="5.69291">
        <ele>218</ele>
        <time>2022-04-16T08:24:14.176Z</time>
      </trkpt>
      <trkpt lat="45.64634" lon="5.69288">
        <ele>218</ele>
        <time>2022-04-16T08:24:15.176Z</time>
      </trkpt>
      <trkpt lat="45.64629" lon="5.69285">
        <ele>218</ele>
        <time>2022-04-16T08:24:16.176Z</time>
      </trkpt>
      <trkpt lat="45.64623" lon="5.69282">
        <ele>218</ele>
        <time>2022-04-16T08:24:17.176Z</time>
      </trkpt>
      <trkpt lat="45.64618" lon="5.6928">
        <ele>218</ele>
        <time>2022-04-16T08:24:18.176Z</time>
      </trkpt>
      <trkpt lat="45.64613" lon="5.69278">
        <ele>218</ele>
        <time>2022-04-16T08:24:19.176Z</time>
      </trkpt>
      <trkpt lat="45.64607" lon="5.69276">
        <ele>219</ele>
        <time>2022-04-16T08:24:20.176Z</time>
      </trkpt>
      <trkpt lat="45.64602" lon="5.69275">
        <ele>219</ele>
        <time>2022-04-16T08:24:21.176Z</time>
      </trkpt>
      <trkpt lat="45.64596" lon="5.69273">
        <ele>219</ele>
        <time>2022-04-16T08:24:22.175Z</time>
      </trkpt>
      <trkpt lat="45.64591" lon="5.69272">
        <ele>219</ele>
        <time>2022-04-16T08:24:23.176Z</time>
      </trkpt>
      <trkpt lat="45.64585" lon="5.69272">
        <ele>219</ele>
        <time>2022-04-16T08:24:24.175Z</time>
      </trkpt>
      <trkpt lat="45.6458" lon="5.69273">
        <ele>219</ele>
        <time>2022-04-16T08:24:25.175Z</time>
      </trkpt>
      <trkpt lat="45.64575" lon="5.69276">
        <ele>219</ele>
        <time>2022-04-16T08:24:26.175Z</time>
      </trkpt>
      <trkpt lat="45.6457" lon="5.6928">
        <ele>219</ele>
        <time>2022-04-16T08:24:27.176Z</time>
      </trkpt>
      <trkpt lat="45.64566" lon="5.69285">
        <ele>219</ele>
        <time>2022-04-16T08:24:28.176Z</time>
      </trkpt>
      <trkpt lat="45.64562" lon="5.69291">
        <ele>219</ele>
        <time>2022-04-16T08:24:29.176Z</time>
      </trkpt>
      <trkpt lat="45.64557" lon="5.69296">
        <ele>219</ele>
        <time>2022-04-16T08:24:30.175Z</time>
      </trkpt>
      <trkpt lat="45.64553" lon="5.69301">
        <ele>219</ele>
        <time>2022-04-16T08:24:31.175Z</time>
      </trkpt>
      <trkpt lat="45.64548" lon="5.69306">
        <ele>219</ele>
        <time>2022-04-16T08:24:32.176Z</time>
      </trkpt>
      <trkpt lat="45.64544" lon="5.69308">
        <ele>219</ele>
        <time>2022-04-16T08:24:33.175Z</time>
      </trkpt>
      <trkpt lat="45.64538" lon="5.6931">
        <ele>220</ele>
        <time>2022-04-16T08:24:34.176Z</time>
      </trkpt>
      <trkpt lat="45.64532" lon="5.69311">
        <ele>220</ele>
        <time>2022-04-16T08:24:35.175Z</time>
      </trkpt>
      <trkpt lat="45.64526" lon="5.69312">
        <ele>220</ele>
        <time>2022-04-16T08:24:36.175Z</time>
      </trkpt>
      <trkpt lat="45.64521" lon="5.69313">
        <ele>219</ele>
        <time>2022-04-16T08:24:37.176Z</time>
      </trkpt>
      <trkpt lat="45.64515" lon="5.69315">
        <ele>219</ele>
        <time>2022-04-16T08:24:38.176Z</time>
      </trkpt>
      <trkpt lat="45.64509" lon="5.69316">
        <ele>218</ele>
        <time>2022-04-16T08:24:39.176Z</time>
      </trkpt>
      <trkpt lat="45.64504" lon="5.69317">
        <ele>218</ele>
        <time>2022-04-16T08:24:40.176Z</time>
      </trkpt>
      <trkpt lat="45.64498" lon="5.69318">
        <ele>218</ele>
        <time>2022-04-16T08:24:41.175Z</time>
      </trkpt>
      <trkpt lat="45.64493" lon="5.69319">
        <ele>218</ele>
        <time>2022-04-16T08:24:42.175Z</time>
      </trkpt>
      <trkpt lat="45.64487" lon="5.6932">
        <ele>218</ele>
        <time>2022-04-16T08:24:43.175Z</time>
      </trkpt>
      <trkpt lat="45.64482" lon="5.69321">
        <ele>218</ele>
        <time>2022-04-16T08:24:44.176Z</time>
      </trkpt>
      <trkpt lat="45.64476" lon="5.69321">
        <ele>217</ele>
        <time>2022-04-16T08:24:45.176Z</time>
      </trkpt>
      <trkpt lat="45.64471" lon="5.69321">
        <ele>217</ele>
        <time>2022-04-16T08:24:46.176Z</time>
      </trkpt>
      <trkpt lat="45.64466" lon="5.6932">
        <ele>217</ele>
        <time>2022-04-16T08:24:47.175Z</time>
      </trkpt>
      <trkpt lat="45.6446" lon="5.69319">
        <ele>217</ele>
        <time>2022-04-16T08:24:48.175Z</time>
      </trkpt>
      <trkpt lat="45.64455" lon="5.69317">
        <ele>217</ele>
        <time>2022-04-16T08:24:49.175Z</time>
      </trkpt>
      <trkpt lat="45.6445" lon="5.69314">
        <ele>217</ele>
        <time>2022-04-16T08:24:50.175Z</time>
      </trkpt>
      <trkpt lat="45.64445" lon="5.69311">
        <ele>217</ele>
        <time>2022-04-16T08:24:51.175Z</time>
      </trkpt>
      <trkpt lat="45.6444" lon="5.69307">
        <ele>217</ele>
        <time>2022-04-16T08:24:52.176Z</time>
      </trkpt>
      <trkpt lat="45.64436" lon="5.69303">
        <ele>217</ele>
        <time>2022-04-16T08:24:53.175Z</time>
      </trkpt>
      <trkpt lat="45.64432" lon="5.69298">
        <ele>217</ele>
        <time>2022-04-16T08:24:54.175Z</time>
      </trkpt>
      <trkpt lat="45.64427" lon="5.69293">
        <ele>217</ele>
        <time>2022-04-16T08:24:55.175Z</time>
      </trkpt>
      <trkpt lat="45.64423" lon="5.69288">
        <ele>217</ele>
        <time>2022-04-16T08:24:56.175Z</time>
      </trkpt>
      <trkpt lat="45.64419" lon="5.69283">
        <ele>217</ele>
        <time>2022-04-16T08:24:57.176Z</time>
      </trkpt>
      <trkpt lat="45.64415" lon="5.69278">
        <ele>217</ele>
        <time>2022-04-16T08:24:58.176Z</time>
      </trkpt>
      <trkpt lat="45.64411" lon="5.69272">
        <ele>217</ele>
        <time>2022-04-16T08:24:59.175Z</time>
      </trkpt>
      <trkpt lat="45.64407" lon="5.69267">
        <ele>218</ele>
        <time>2022-04-16T08:25:00.176Z</time>
      </trkpt>
      <trkpt lat="45.64403" lon="5.69261">
        <ele>218</ele>
        <time>2022-04-16T08:25:01.175Z</time>
      </trkpt>
      <trkpt lat="45.64398" lon="5.69255">
        <ele>218</ele>
        <time>2022-04-16T08:25:02.175Z</time>
      </trkpt>
      <trkpt lat="45.64395" lon="5.69249">
        <ele>218</ele>
        <time>2022-04-16T08:25:03.176Z</time>
      </trkpt>
      <trkpt lat="45.64391" lon="5.69243">
        <ele>218</ele>
        <time>2022-04-16T08:25:04.175Z</time>
      </trkpt>
      <trkpt lat="45.64387" lon="5.69236">
        <ele>219</ele>
        <time>2022-04-16T08:25:05.176Z</time>
      </trkpt>
      <trkpt lat="45.64383" lon="5.6923">
        <ele>219</ele>
        <time>2022-04-16T08:25:06.175Z</time>
      </trkpt>
      <trkpt lat="45.6438" lon="5.69224">
        <ele>219</ele>
        <time>2022-04-16T08:25:07.175Z</time>
      </trkpt>
      <trkpt lat="45.64376" lon="5.69217">
        <ele>220</ele>
        <time>2022-04-16T08:25:08.176Z</time>
      </trkpt>
      <trkpt lat="45.64373" lon="5.69211">
        <ele>220</ele>
        <time>2022-04-16T08:25:09.176Z</time>
      </trkpt>
      <trkpt lat="45.64369" lon="5.69204">
        <ele>220</ele>
        <time>2022-04-16T08:25:10.175Z</time>
      </trkpt>
      <trkpt lat="45.64366" lon="5.69198">
        <ele>220</ele>
        <time>2022-04-16T08:25:11.175Z</time>
      </trkpt>
      <trkpt lat="45.64363" lon="5.69191">
        <ele>219</ele>
        <time>2022-04-16T08:25:12.176Z</time>
      </trkpt>
      <trkpt lat="45.64359" lon="5.69185">
        <ele>219</ele>
        <time>2022-04-16T08:25:13.175Z</time>
      </trkpt>
      <trkpt lat="45.64356" lon="5.69178">
        <ele>219</ele>
        <time>2022-04-16T08:25:14.176Z</time>
      </trkpt>
      <trkpt lat="45.64353" lon="5.69171">
        <ele>219</ele>
        <time>2022-04-16T08:25:15.176Z</time>
      </trkpt>
      <trkpt lat="45.6435" lon="5.69163">
        <ele>219</ele>
        <time>2022-04-16T08:25:16.176Z</time>
      </trkpt>
      <trkpt lat="45.64347" lon="5.69156">
        <ele>219</ele>
        <time>2022-04-16T08:25:17.176Z</time>
      </trkpt>
      <trkpt lat="45.64343" lon="5.6915">
        <ele>219</ele>
        <time>2022-04-16T08:25:18.175Z</time>
      </trkpt>
      <trkpt lat="45.64339" lon="5.69144">
        <ele>219</ele>
        <time>2022-04-16T08:25:19.176Z</time>
      </trkpt>
      <trkpt lat="45.64335" lon="5.69139">
        <ele>219</ele>
        <time>2022-04-16T08:25:20.176Z</time>
      </trkpt>
      <trkpt lat="45.64329" lon="5.69135">
        <ele>218</ele>
        <time>2022-04-16T08:25:21.176Z</time>
      </trkpt>
      <trkpt lat="45.64324" lon="5.69132">
        <ele>218</ele>
        <time>2022-04-16T08:25:22.176Z</time>
      </trkpt>
      <trkpt lat="45.64319" lon="5.69129">
        <ele>218</ele>
        <time>2022-04-16T08:25:23.175Z</time>
      </trkpt>
      <trkpt lat="45.64314" lon="5.69126">
        <ele>219</ele>
        <time>2022-04-16T08:25:24.176Z</time>
      </trkpt>
      <trkpt lat="45.64308" lon="5.69124">
        <ele>219</ele>
        <time>2022-04-16T08:25:25.176Z</time>
      </trkpt>
      <trkpt lat="45.64303" lon="5.69121">
        <ele>219</ele>
        <time>2022-04-16T08:25:26.176Z</time>
      </trkpt>
      <trkpt lat="45.64297" lon="5.69118">
        <ele>219</ele>
        <time>2022-04-16T08:25:27.176Z</time>
      </trkpt>
      <trkpt lat="45.64292" lon="5.69116">
        <ele>219</ele>
        <time>2022-04-16T08:25:28.176Z</time>
      </trkpt>
      <trkpt lat="45.64287" lon="5.69113">
        <ele>219</ele>
        <time>2022-04-16T08:25:29.176Z</time>
      </trkpt>
      <trkpt lat="45.64281" lon="5.6911">
        <ele>219</ele>
        <time>2022-04-16T08:25:30.175Z</time>
      </trkpt>
      <trkpt lat="45.64276" lon="5.69107">
        <ele>218</ele>
        <time>2022-04-16T08:25:31.175Z</time>
      </trkpt>
      <trkpt lat="45.64271" lon="5.69104">
        <ele>218</ele>
        <time>2022-04-16T08:25:32.176Z</time>
      </trkpt>
      <trkpt lat="45.64266" lon="5.69101">
        <ele>218</ele>
        <time>2022-04-16T08:25:33.176Z</time>
      </trkpt>
      <trkpt lat="45.64261" lon="5.69098">
        <ele>218</ele>
        <time>2022-04-16T08:25:34.176Z</time>
      </trkpt>
      <trkpt lat="45.64256" lon="5.69095">
        <ele>218</ele>
        <time>2022-04-16T08:25:35.176Z</time>
      </trkpt>
      <trkpt lat="45.64252" lon="5.69092">
        <ele>219</ele>
        <time>2022-04-16T08:25:36.176Z</time>
      </trkpt>
      <trkpt lat="45.64247" lon="5.69089">
        <ele>219</ele>
        <time>2022-04-16T08:25:37.176Z</time>
      </trkpt>
      <trkpt lat="45.64242" lon="5.69086">
        <ele>219</ele>
        <time>2022-04-16T08:25:38.176Z</time>
      </trkpt>
      <trkpt lat="45.64236" lon="5.69083">
        <ele>218</ele>
        <time>2022-04-16T08:25:39.175Z</time>
      </trkpt>
      <trkpt lat="45.64231" lon="5.6908">
        <ele>218</ele>
        <time>2022-04-16T08:25:40.175Z</time>
      </trkpt>
      <trkpt lat="45.64226" lon="5.69077">
        <ele>217</ele>
        <time>2022-04-16T08:25:41.175Z</time>
      </trkpt>
      <trkpt lat="45.64221" lon="5.69073">
        <ele>217</ele>
        <time>2022-04-16T08:25:42.175Z</time>
      </trkpt>
      <trkpt lat="45.64216" lon="5.6907">
        <ele>217</ele>
        <time>2022-04-16T08:25:43.175Z</time>
      </trkpt>
      <trkpt lat="45.64211" lon="5.69066">
        <ele>217</ele>
        <time>2022-04-16T08:25:44.175Z</time>
      </trkpt>
      <trkpt lat="45.64206" lon="5.69062">
        <ele>218</ele>
        <time>2022-04-16T08:25:45.176Z</time>
      </trkpt>
      <trkpt lat="45.64201" lon="5.69059">
        <ele>218</ele>
        <time>2022-04-16T08:25:46.176Z</time>
      </trkpt>
      <trkpt lat="45.64196" lon="5.69055">
        <ele>218</ele>
        <time>2022-04-16T08:25:47.175Z</time>
      </trkpt>
      <trkpt lat="45.64192" lon="5.69051">
        <ele>218</ele>
        <time>2022-04-16T08:25:48.176Z</time>
      </trkpt>
      <trkpt lat="45.64187" lon="5.69048">
        <ele>218</ele>
        <time>2022-04-16T08:25:49.176Z</time>
      </trkpt>
      <trkpt lat="45.64182" lon="5.69044">
        <ele>218</ele>
        <time>2022-04-16T08:25:50.176Z</time>
      </trkpt>
      <trkpt lat="45.64178" lon="5.6904">
        <ele>218</ele>
        <time>2022-04-16T08:25:51.176Z</time>
      </trkpt>
      <trkpt lat="45.64173" lon="5.69036">
        <ele>218</ele>
        <time>2022-04-16T08:25:52.176Z</time>
      </trkpt>
      <trkpt lat="45.64168" lon="5.69032">
        <ele>218</ele>
        <time>2022-04-16T08:25:53.176Z</time>
      </trkpt>
      <trkpt lat="45.64163" lon="5.69028">
        <ele>218</ele>
        <time>2022-04-16T08:25:54.176Z</time>
      </trkpt>
      <trkpt lat="45.64159" lon="5.69025">
        <ele>218</ele>
        <time>2022-04-16T08:25:55.176Z</time>
      </trkpt>
      <trkpt lat="45.64154" lon="5.69021">
        <ele>219</ele>
        <time>2022-04-16T08:25:56.175Z</time>
      </trkpt>
      <trkpt lat="45.64149" lon="5.69016">
        <ele>219</ele>
        <time>2022-04-16T08:25:57.175Z</time>
      </trkpt>
      <trkpt lat="45.64145" lon="5.69012">
        <ele>219</ele>
        <time>2022-04-16T08:25:58.175Z</time>
      </trkpt>
      <trkpt lat="45.6414" lon="5.69008">
        <ele>219</ele>
        <time>2022-04-16T08:25:59.176Z</time>
      </trkpt>
      <trkpt lat="45.64136" lon="5.69004">
        <ele>219</ele>
        <time>2022-04-16T08:26:00.176Z</time>
      </trkpt>
      <trkpt lat="45.64131" lon="5.68999">
        <ele>219</ele>
        <time>2022-04-16T08:26:01.176Z</time>
      </trkpt>
      <trkpt lat="45.64127" lon="5.68995">
        <ele>220</ele>
        <time>2022-04-16T08:26:02.175Z</time>
      </trkpt>
      <trkpt lat="45.64122" lon="5.6899">
        <ele>220</ele>
        <time>2022-04-16T08:26:03.175Z</time>
      </trkpt>
      <trkpt lat="45.64117" lon="5.68986">
        <ele>220</ele>
        <time>2022-04-16T08:26:04.176Z</time>
      </trkpt>
      <trkpt lat="45.64113" lon="5.68981">
        <ele>220</ele>
        <time>2022-04-16T08:26:05.175Z</time>
      </trkpt>
      <trkpt lat="45.64109" lon="5.68976">
        <ele>220</ele>
        <time>2022-04-16T08:26:06.176Z</time>
      </trkpt>
      <trkpt lat="45.64104" lon="5.68972">
        <ele>220</ele>
        <time>2022-04-16T08:26:07.175Z</time>
      </trkpt>
      <trkpt lat="45.641" lon="5.68967">
        <ele>220</ele>
        <time>2022-04-16T08:26:08.176Z</time>
      </trkpt>
      <trkpt lat="45.64095" lon="5.68963">
        <ele>220</ele>
        <time>2022-04-16T08:26:09.175Z</time>
      </trkpt>
      <trkpt lat="45.64091" lon="5.68958">
        <ele>220</ele>
        <time>2022-04-16T08:26:10.176Z</time>
      </trkpt>
      <trkpt lat="45.64086" lon="5.68954">
        <ele>219</ele>
        <time>2022-04-16T08:26:11.176Z</time>
      </trkpt>
      <trkpt lat="45.64082" lon="5.68949">
        <ele>219</ele>
        <time>2022-04-16T08:26:12.176Z</time>
      </trkpt>
      <trkpt lat="45.64078" lon="5.68944">
        <ele>219</ele>
        <time>2022-04-16T08:26:13.175Z</time>
      </trkpt>
      <trkpt lat="45.64073" lon="5.68939">
        <ele>219</ele>
        <time>2022-04-16T08:26:14.175Z</time>
      </trkpt>
      <trkpt lat="45.64069" lon="5.68934">
        <ele>219</ele>
        <time>2022-04-16T08:26:15.176Z</time>
      </trkpt>
      <trkpt lat="45.64065" lon="5.68929">
        <ele>219</ele>
        <time>2022-04-16T08:26:16.176Z</time>
      </trkpt>
      <trkpt lat="45.64061" lon="5.68925">
        <ele>219</ele>
        <time>2022-04-16T08:26:17.176Z</time>
      </trkpt>
      <trkpt lat="45.64056" lon="5.6892">
        <ele>218</ele>
        <time>2022-04-16T08:26:18.176Z</time>
      </trkpt>
      <trkpt lat="45.64052" lon="5.68915">
        <ele>218</ele>
        <time>2022-04-16T08:26:19.176Z</time>
      </trkpt>
      <trkpt lat="45.64048" lon="5.6891">
        <ele>218</ele>
        <time>2022-04-16T08:26:20.176Z</time>
      </trkpt>
      <trkpt lat="45.64044" lon="5.68904">
        <ele>218</ele>
        <time>2022-04-16T08:26:21.176Z</time>
      </trkpt>
      <trkpt lat="45.64039" lon="5.68899">
        <ele>218</ele>
        <time>2022-04-16T08:26:22.176Z</time>
      </trkpt>
      <trkpt lat="45.64035" lon="5.68894">
        <ele>218</ele>
        <time>2022-04-16T08:26:23.176Z</time>
      </trkpt>
      <trkpt lat="45.64031" lon="5.68889">
        <ele>218</ele>
        <time>2022-04-16T08:26:24.175Z</time>
      </trkpt>
      <trkpt lat="45.64027" lon="5.68884">
        <ele>218</ele>
        <time>2022-04-16T08:26:25.176Z</time>
      </trkpt>
      <trkpt lat="45.64023" lon="5.68878">
        <ele>218</ele>
        <time>2022-04-16T08:26:26.175Z</time>
      </trkpt>
      <trkpt lat="45.64019" lon="5.68873">
        <ele>218</ele>
        <time>2022-04-16T08:26:27.175Z</time>
      </trkpt>
      <trkpt lat="45.64015" lon="5.68868">
        <ele>218</ele>
        <time>2022-04-16T08:26:28.175Z</time>
      </trkpt>
      <trkpt lat="45.64011" lon="5.68862">
        <ele>218</ele>
        <time>2022-04-16T08:26:29.176Z</time>
      </trkpt>
      <trkpt lat="45.64008" lon="5.68856">
        <ele>218</ele>
        <time>2022-04-16T08:26:30.175Z</time>
      </trkpt>
      <trkpt lat="45.64004" lon="5.68851">
        <ele>218</ele>
        <time>2022-04-16T08:26:31.175Z</time>
      </trkpt>
      <trkpt lat="45.64" lon="5.68845">
        <ele>218</ele>
        <time>2022-04-16T08:26:32.176Z</time>
      </trkpt>
      <trkpt lat="45.63996" lon="5.68839">
        <ele>218</ele>
        <time>2022-04-16T08:26:33.175Z</time>
      </trkpt>
      <trkpt lat="45.63992" lon="5.68833">
        <ele>218</ele>
        <time>2022-04-16T08:26:34.176Z</time>
      </trkpt>
      <trkpt lat="45.63988" lon="5.68827">
        <ele>218</ele>
        <time>2022-04-16T08:26:35.175Z</time>
      </trkpt>
      <trkpt lat="45.63985" lon="5.68822">
        <ele>218</ele>
        <time>2022-04-16T08:26:36.176Z</time>
      </trkpt>
      <trkpt lat="45.63981" lon="5.68816">
        <ele>218</ele>
        <time>2022-04-16T08:26:37.176Z</time>
      </trkpt>
      <trkpt lat="45.63977" lon="5.6881">
        <ele>218</ele>
        <time>2022-04-16T08:26:38.175Z</time>
      </trkpt>
      <trkpt lat="45.63973" lon="5.68803">
        <ele>218</ele>
        <time>2022-04-16T08:26:39.176Z</time>
      </trkpt>
      <trkpt lat="45.6397" lon="5.68797">
        <ele>219</ele>
        <time>2022-04-16T08:26:40.175Z</time>
      </trkpt>
      <trkpt lat="45.63966" lon="5.68791">
        <ele>219</ele>
        <time>2022-04-16T08:26:41.176Z</time>
      </trkpt>
      <trkpt lat="45.63962" lon="5.68785">
        <ele>219</ele>
        <time>2022-04-16T08:26:42.176Z</time>
      </trkpt>
      <trkpt lat="45.63959" lon="5.68778">
        <ele>219</ele>
        <time>2022-04-16T08:26:43.175Z</time>
      </trkpt>
      <trkpt lat="45.63955" lon="5.68772">
        <ele>219</ele>
        <time>2022-04-16T08:26:44.175Z</time>
      </trkpt>
      <trkpt lat="45.63951" lon="5.68766">
        <ele>219</ele>
        <time>2022-04-16T08:26:45.176Z</time>
      </trkpt>
      <trkpt lat="45.63947" lon="5.6876">
        <ele>219</ele>
        <time>2022-04-16T08:26:46.176Z</time>
      </trkpt>
      <trkpt lat="45.63943" lon="5.68754">
        <ele>219</ele>
        <time>2022-04-16T08:26:47.176Z</time>
      </trkpt>
      <trkpt lat="45.6394" lon="5.68748">
        <ele>219</ele>
        <time>2022-04-16T08:26:48.176Z</time>
      </trkpt>
      <trkpt lat="45.63936" lon="5.68742">
        <ele>219</ele>
        <time>2022-04-16T08:26:49.175Z</time>
      </trkpt>
      <trkpt lat="45.63933" lon="5.68736">
        <ele>219</ele>
        <time>2022-04-16T08:26:50.175Z</time>
      </trkpt>
      <trkpt lat="45.63929" lon="5.6873">
        <ele>219</ele>
        <time>2022-04-16T08:26:51.176Z</time>
      </trkpt>
      <trkpt lat="45.63926" lon="5.68723">
        <ele>220</ele>
        <time>2022-04-16T08:26:52.175Z</time>
      </trkpt>
      <trkpt lat="45.63922" lon="5.68717">
        <ele>220</ele>
        <time>2022-04-16T08:26:53.176Z</time>
      </trkpt>
      <trkpt lat="45.63918" lon="5.68711">
        <ele>220</ele>
        <time>2022-04-16T08:26:54.175Z</time>
      </trkpt>
      <trkpt lat="45.63915" lon="5.68705">
        <ele>220</ele>
        <time>2022-04-16T08:26:55.175Z</time>
      </trkpt>
      <trkpt lat="45.63911" lon="5.68699">
        <ele>220</ele>
        <time>2022-04-16T08:26:56.176Z</time>
      </trkpt>
      <trkpt lat="45.63908" lon="5.68692">
        <ele>220</ele>
        <time>2022-04-16T08:26:57.176Z</time>
      </trkpt>
      <trkpt lat="45.63905" lon="5.68686">
        <ele>220</ele>
        <time>2022-04-16T08:26:58.175Z</time>
      </trkpt>
      <trkpt lat="45.63901" lon="5.6868">
        <ele>221</ele>
        <time>2022-04-16T08:26:59.176Z</time>
      </trkpt>
      <trkpt lat="45.63898" lon="5.68674">
        <ele>221</ele>
        <time>2022-04-16T08:27:00.176Z</time>
      </trkpt>
      <trkpt lat="45.63895" lon="5.68667">
        <ele>221</ele>
        <time>2022-04-16T08:27:01.175Z</time>
      </trkpt>
      <trkpt lat="45.63892" lon="5.68661">
        <ele>221</ele>
        <time>2022-04-16T08:27:02.176Z</time>
      </trkpt>
      <trkpt lat="45.63889" lon="5.68655">
        <ele>221</ele>
        <time>2022-04-16T08:27:03.176Z</time>
      </trkpt>
      <trkpt lat="45.63886" lon="5.68649">
        <ele>221</ele>
        <time>2022-04-16T08:27:04.176Z</time>
      </trkpt>
      <trkpt lat="45.63884" lon="5.68643">
        <ele>221</ele>
        <time>2022-04-16T08:27:05.176Z</time>
      </trkpt>
      <trkpt lat="45.63881" lon="5.68637">
        <ele>222</ele>
        <time>2022-04-16T08:27:06.176Z</time>
      </trkpt>
      <trkpt lat="45.63879" lon="5.68631">
        <ele>222</ele>
        <time>2022-04-16T08:27:07.175Z</time>
      </trkpt>
      <trkpt lat="45.63876" lon="5.68625">
        <ele>222</ele>
        <time>2022-04-16T08:27:08.176Z</time>
      </trkpt>
      <trkpt lat="45.63874" lon="5.68619">
        <ele>222</ele>
        <time>2022-04-16T08:27:09.175Z</time>
      </trkpt>
      <trkpt lat="45.63872" lon="5.68612">
        <ele>221</ele>
        <time>2022-04-16T08:27:10.176Z</time>
      </trkpt>
      <trkpt lat="45.63869" lon="5.68605">
        <ele>222</ele>
        <time>2022-04-16T08:27:11.176Z</time>
      </trkpt>
      <trkpt lat="45.63867" lon="5.68598">
        <ele>222</ele>
        <time>2022-04-16T08:27:12.176Z</time>
      </trkpt>
      <trkpt lat="45.63864" lon="5.68592">
        <ele>222</ele>
        <time>2022-04-16T08:27:13.176Z</time>
      </trkpt>
      <trkpt lat="45.63862" lon="5.68585">
        <ele>222</ele>
        <time>2022-04-16T08:27:14.175Z</time>
      </trkpt>
      <trkpt lat="45.63859" lon="5.68578">
        <ele>222</ele>
        <time>2022-04-16T08:27:15.175Z</time>
      </trkpt>
      <trkpt lat="45.63856" lon="5.68571">
        <ele>222</ele>
        <time>2022-04-16T08:27:16.176Z</time>
      </trkpt>
      <trkpt lat="45.63854" lon="5.68564">
        <ele>222</ele>
        <time>2022-04-16T08:27:17.175Z</time>
      </trkpt>
      <trkpt lat="45.63851" lon="5.68556">
        <ele>222</ele>
        <time>2022-04-16T08:27:18.175Z</time>
      </trkpt>
      <trkpt lat="45.63849" lon="5.68549">
        <ele>222</ele>
        <time>2022-04-16T08:27:19.175Z</time>
      </trkpt>
      <trkpt lat="45.63847" lon="5.68542">
        <ele>222</ele>
        <time>2022-04-16T08:27:20.175Z</time>
      </trkpt>
      <trkpt lat="45.63845" lon="5.68534">
        <ele>222</ele>
        <time>2022-04-16T08:27:21.176Z</time>
      </trkpt>
      <trkpt lat="45.63844" lon="5.68527">
        <ele>222</ele>
        <time>2022-04-16T08:27:22.175Z</time>
      </trkpt>
      <trkpt lat="45.63842" lon="5.68519">
        <ele>222</ele>
        <time>2022-04-16T08:27:23.175Z</time>
      </trkpt>
      <trkpt lat="45.63841" lon="5.68512">
        <ele>222</ele>
        <time>2022-04-16T08:27:24.175Z</time>
      </trkpt>
      <trkpt lat="45.63839" lon="5.68504">
        <ele>222</ele>
        <time>2022-04-16T08:27:25.176Z</time>
      </trkpt>
      <trkpt lat="45.63838" lon="5.68496">
        <ele>221</ele>
        <time>2022-04-16T08:27:26.175Z</time>
      </trkpt>
      <trkpt lat="45.63837" lon="5.68488">
        <ele>221</ele>
        <time>2022-04-16T08:27:27.176Z</time>
      </trkpt>
      <trkpt lat="45.63836" lon="5.6848">
        <ele>221</ele>
        <time>2022-04-16T08:27:28.176Z</time>
      </trkpt>
      <trkpt lat="45.63835" lon="5.68472">
        <ele>221</ele>
        <time>2022-04-16T08:27:29.176Z</time>
      </trkpt>
      <trkpt lat="45.63834" lon="5.68465">
        <ele>221</ele>
        <time>2022-04-16T08:27:30.175Z</time>
      </trkpt>
      <trkpt lat="45.63833" lon="5.68457">
        <ele>221</ele>
        <time>2022-04-16T08:27:31.176Z</time>
      </trkpt>
      <trkpt lat="45.63833" lon="5.68449">
        <ele>221</ele>
        <time>2022-04-16T08:27:32.175Z</time>
      </trkpt>
      <trkpt lat="45.63832" lon="5.68443">
        <ele>221</ele>
        <time>2022-04-16T08:27:33.176Z</time>
      </trkpt>
      <trkpt lat="45.63832" lon="5.68434">
        <ele>221</ele>
        <time>2022-04-16T08:27:34.175Z</time>
      </trkpt>
      <trkpt lat="45.63831" lon="5.68426">
        <ele>221</ele>
        <time>2022-04-16T08:27:35.176Z</time>
      </trkpt>
      <trkpt lat="45.63831" lon="5.68419">
        <ele>221</ele>
        <time>2022-04-16T08:27:36.175Z</time>
      </trkpt>
      <trkpt lat="45.6383" lon="5.68412">
        <ele>221</ele>
        <time>2022-04-16T08:27:37.176Z</time>
      </trkpt>
      <trkpt lat="45.6383" lon="5.68405">
        <ele>221</ele>
        <time>2022-04-16T08:27:38.175Z</time>
      </trkpt>
      <trkpt lat="45.63829" lon="5.68397">
        <ele>221</ele>
        <time>2022-04-16T08:27:39.175Z</time>
      </trkpt>
      <trkpt lat="45.63829" lon="5.68388">
        <ele>221</ele>
        <time>2022-04-16T08:27:40.176Z</time>
      </trkpt>
      <trkpt lat="45.63829" lon="5.68381">
        <ele>221</ele>
        <time>2022-04-16T08:27:41.176Z</time>
      </trkpt>
      <trkpt lat="45.63829" lon="5.68374">
        <ele>221</ele>
        <time>2022-04-16T08:27:42.176Z</time>
      </trkpt>
      <trkpt lat="45.63829" lon="5.68367">
        <ele>221</ele>
        <time>2022-04-16T08:27:43.176Z</time>
      </trkpt>
      <trkpt lat="45.63828" lon="5.68359">
        <ele>221</ele>
        <time>2022-04-16T08:27:44.176Z</time>
      </trkpt>
      <trkpt lat="45.63828" lon="5.6835">
        <ele>221</ele>
        <time>2022-04-16T08:27:45.175Z</time>
      </trkpt>
      <trkpt lat="45.63828" lon="5.68343">
        <ele>221</ele>
        <time>2022-04-16T08:27:46.176Z</time>
      </trkpt>
      <trkpt lat="45.63828" lon="5.68337">
        <ele>220</ele>
        <time>2022-04-16T08:27:47.175Z</time>
      </trkpt>
      <trkpt lat="45.63829" lon="5.68331">
        <ele>220</ele>
        <time>2022-04-16T08:27:48.175Z</time>
      </trkpt>
      <trkpt lat="45.63833" lon="5.68327">
        <ele>220</ele>
        <time>2022-04-16T08:27:49.176Z</time>
      </trkpt>
      <trkpt lat="45.63837" lon="5.68327">
        <ele>219</ele>
        <time>2022-04-16T08:27:50.176Z</time>
      </trkpt>
      <trkpt lat="45.63841" lon="5.68325">
        <ele>219</ele>
        <time>2022-04-16T08:27:51.176Z</time>
      </trkpt>
      <trkpt lat="45.63845" lon="5.68322">
        <ele>220</ele>
        <time>2022-04-16T08:27:52.176Z</time>
      </trkpt>
      <trkpt lat="45.63847" lon="5.68317">
        <ele>220</ele>
        <time>2022-04-16T08:27:53.176Z</time>
      </trkpt>
      <trkpt lat="45.63849" lon="5.68312">
        <ele>220</ele>
        <time>2022-04-16T08:27:54.176Z</time>
      </trkpt>
      <trkpt lat="45.6385" lon="5.68306">
        <ele>220</ele>
        <time>2022-04-16T08:27:55.176Z</time>
      </trkpt>
      <trkpt lat="45.63851" lon="5.683">
        <ele>220</ele>
        <time>2022-04-16T08:27:56.176Z</time>
      </trkpt>
      <trkpt lat="45.63851" lon="5.68294">
        <ele>220</ele>
        <time>2022-04-16T08:27:57.176Z</time>
      </trkpt>
      <trkpt lat="45.63851" lon="5.6829">
        <ele>219</ele>
        <time>2022-04-16T08:27:58.176Z</time>
      </trkpt>
      <trkpt lat="45.63851" lon="5.68283">
        <ele>219</ele>
        <time>2022-04-16T08:27:59.175Z</time>
      </trkpt>
      <trkpt lat="45.63851" lon="5.68277">
        <ele>219</ele>
        <time>2022-04-16T08:28:00.175Z</time>
      </trkpt>
      <trkpt lat="45.6385" lon="5.68271">
        <ele>219</ele>
        <time>2022-04-16T08:28:01.176Z</time>
      </trkpt>
      <trkpt lat="45.6385" lon="5.68267">
        <ele>219</ele>
        <time>2022-04-16T08:28:02.176Z</time>
      </trkpt>
      <trkpt lat="45.6385" lon="5.68262">
        <ele>218</ele>
        <time>2022-04-16T08:28:03.175Z</time>
      </trkpt>
      <trkpt lat="45.63849" lon="5.68257">
        <ele>218</ele>
        <time>2022-04-16T08:28:04.176Z</time>
      </trkpt>
      <trkpt lat="45.63849" lon="5.68251">
        <ele>218</ele>
        <time>2022-04-16T08:28:05.176Z</time>
      </trkpt>
      <trkpt lat="45.63849" lon="5.68246">
        <ele>219</ele>
        <time>2022-04-16T08:28:06.176Z</time>
      </trkpt>
      <trkpt lat="45.63849" lon="5.68242">
        <ele>219</ele>
        <time>2022-04-16T08:28:07.176Z</time>
      </trkpt>
      <trkpt lat="45.63849" lon="5.68237">
        <ele>220</ele>
        <time>2022-04-16T08:28:08.176Z</time>
      </trkpt>
      <trkpt lat="45.63849" lon="5.68231">
        <ele>220</ele>
        <time>2022-04-16T08:28:09.175Z</time>
      </trkpt>
      <trkpt lat="45.63848" lon="5.68226">
        <ele>220</ele>
        <time>2022-04-16T08:28:10.175Z</time>
      </trkpt>
      <trkpt lat="45.63848" lon="5.6822">
        <ele>221</ele>
        <time>2022-04-16T08:28:11.175Z</time>
      </trkpt>
      <trkpt lat="45.63847" lon="5.68216">
        <ele>221</ele>
        <time>2022-04-16T08:28:12.176Z</time>
      </trkpt>
      <trkpt lat="45.63847" lon="5.68211">
        <ele>221</ele>
        <time>2022-04-16T08:28:13.175Z</time>
      </trkpt>
      <trkpt lat="45.63846" lon="5.68205">
        <ele>221</ele>
        <time>2022-04-16T08:28:14.176Z</time>
      </trkpt>
      <trkpt lat="45.63846" lon="5.682">
        <ele>221</ele>
        <time>2022-04-16T08:28:15.176Z</time>
      </trkpt>
      <trkpt lat="45.63845" lon="5.68194">
        <ele>221</ele>
        <time>2022-04-16T08:28:16.176Z</time>
      </trkpt>
      <trkpt lat="45.63845" lon="5.68187">
        <ele>221</ele>
        <time>2022-04-16T08:28:17.176Z</time>
      </trkpt>
      <trkpt lat="45.63844" lon="5.68183">
        <ele>221</ele>
        <time>2022-04-16T08:28:18.176Z</time>
      </trkpt>
      <trkpt lat="45.63843" lon="5.68176">
        <ele>221</ele>
        <time>2022-04-16T08:28:19.176Z</time>
      </trkpt>
      <trkpt lat="45.63842" lon="5.6817">
        <ele>221</ele>
        <time>2022-04-16T08:28:20.176Z</time>
      </trkpt>
      <trkpt lat="45.63841" lon="5.68166">
        <ele>221</ele>
        <time>2022-04-16T08:28:21.175Z</time>
      </trkpt>
      <trkpt lat="45.6384" lon="5.6816">
        <ele>221</ele>
        <time>2022-04-16T08:28:22.175Z</time>
      </trkpt>
      <trkpt lat="45.63838" lon="5.68153">
        <ele>221</ele>
        <time>2022-04-16T08:28:23.176Z</time>
      </trkpt>
      <trkpt lat="45.63837" lon="5.68147">
        <ele>221</ele>
        <time>2022-04-16T08:28:24.176Z</time>
      </trkpt>
      <trkpt lat="45.63836" lon="5.68141">
        <ele>220</ele>
        <time>2022-04-16T08:28:25.176Z</time>
      </trkpt>
      <trkpt lat="45.63834" lon="5.68137">
        <ele>220</ele>
        <time>2022-04-16T08:28:26.176Z</time>
      </trkpt>
      <trkpt lat="45.63833" lon="5.68131">
        <ele>221</ele>
        <time>2022-04-16T08:28:27.175Z</time>
      </trkpt>
      <trkpt lat="45.63831" lon="5.68125">
        <ele>220</ele>
        <time>2022-04-16T08:28:28.176Z</time>
      </trkpt>
      <trkpt lat="45.63829" lon="5.68118">
        <ele>220</ele>
        <time>2022-04-16T08:28:29.175Z</time>
      </trkpt>
      <trkpt lat="45.63827" lon="5.68112">
        <ele>220</ele>
        <time>2022-04-16T08:28:30.175Z</time>
      </trkpt>
      <trkpt lat="45.63826" lon="5.68107">
        <ele>221</ele>
        <time>2022-04-16T08:28:31.176Z</time>
      </trkpt>
      <trkpt lat="45.63824" lon="5.68101">
        <ele>221</ele>
        <time>2022-04-16T08:28:32.176Z</time>
      </trkpt>
      <trkpt lat="45.63822" lon="5.68094">
        <ele>221</ele>
        <time>2022-04-16T08:28:33.176Z</time>
      </trkpt>
      <trkpt lat="45.6382" lon="5.68088">
        <ele>221</ele>
        <time>2022-04-16T08:28:34.175Z</time>
      </trkpt>
      <trkpt lat="45.63819" lon="5.68083">
        <ele>221</ele>
        <time>2022-04-16T08:28:35.176Z</time>
      </trkpt>
      <trkpt lat="45.63817" lon="5.68078">
        <ele>221</ele>
        <time>2022-04-16T08:28:36.175Z</time>
      </trkpt>
      <trkpt lat="45.63815" lon="5.68072">
        <ele>221</ele>
        <time>2022-04-16T08:28:37.176Z</time>
      </trkpt>
      <trkpt lat="45.63813" lon="5.68066">
        <ele>221</ele>
        <time>2022-04-16T08:28:38.176Z</time>
      </trkpt>
      <trkpt lat="45.63812" lon="5.6806">
        <ele>221</ele>
        <time>2022-04-16T08:28:39.176Z</time>
      </trkpt>
      <trkpt lat="45.6381" lon="5.68054">
        <ele>221</ele>
        <time>2022-04-16T08:28:40.175Z</time>
      </trkpt>
      <trkpt lat="45.63808" lon="5.68048">
        <ele>221</ele>
        <time>2022-04-16T08:28:41.176Z</time>
      </trkpt>
      <trkpt lat="45.63806" lon="5.68041">
        <ele>221</ele>
        <time>2022-04-16T08:28:42.176Z</time>
      </trkpt>
      <trkpt lat="45.63804" lon="5.68035">
        <ele>221</ele>
        <time>2022-04-16T08:28:43.176Z</time>
      </trkpt>
      <trkpt lat="45.63802" lon="5.68029">
        <ele>221</ele>
        <time>2022-04-16T08:28:44.176Z</time>
      </trkpt>
      <trkpt lat="45.63801" lon="5.68024">
        <ele>221</ele>
        <time>2022-04-16T08:28:45.176Z</time>
      </trkpt>
      <trkpt lat="45.63799" lon="5.68018">
        <ele>221</ele>
        <time>2022-04-16T08:28:46.176Z</time>
      </trkpt>
      <trkpt lat="45.63798" lon="5.68012">
        <ele>221</ele>
        <time>2022-04-16T08:28:47.176Z</time>
      </trkpt>
      <trkpt lat="45.63796" lon="5.68006">
        <ele>221</ele>
        <time>2022-04-16T08:28:48.176Z</time>
      </trkpt>
      <trkpt lat="45.63794" lon="5.67999">
        <ele>221</ele>
        <time>2022-04-16T08:28:49.176Z</time>
      </trkpt>
      <trkpt lat="45.63792" lon="5.67992">
        <ele>220</ele>
        <time>2022-04-16T08:28:50.176Z</time>
      </trkpt>
      <trkpt lat="45.6379" lon="5.67986">
        <ele>221</ele>
        <time>2022-04-16T08:28:51.176Z</time>
      </trkpt>
      <trkpt lat="45.63788" lon="5.67981">
        <ele>221</ele>
        <time>2022-04-16T08:28:52.176Z</time>
      </trkpt>
      <trkpt lat="45.63786" lon="5.67975">
        <ele>221</ele>
        <time>2022-04-16T08:28:53.176Z</time>
      </trkpt>
      <trkpt lat="45.63784" lon="5.67967">
        <ele>221</ele>
        <time>2022-04-16T08:28:54.176Z</time>
      </trkpt>
      <trkpt lat="45.63782" lon="5.67961">
        <ele>222</ele>
        <time>2022-04-16T08:28:55.176Z</time>
      </trkpt>
      <trkpt lat="45.6378" lon="5.67955">
        <ele>222</ele>
        <time>2022-04-16T08:28:56.176Z</time>
      </trkpt>
      <trkpt lat="45.63779" lon="5.6795">
        <ele>222</ele>
        <time>2022-04-16T08:28:57.176Z</time>
      </trkpt>
      <trkpt lat="45.63777" lon="5.67943">
        <ele>222</ele>
        <time>2022-04-16T08:28:58.176Z</time>
      </trkpt>
      <trkpt lat="45.63775" lon="5.67936">
        <ele>222</ele>
        <time>2022-04-16T08:28:59.176Z</time>
      </trkpt>
      <trkpt lat="45.63773" lon="5.6793">
        <ele>222</ele>
        <time>2022-04-16T08:29:00.176Z</time>
      </trkpt>
      <trkpt lat="45.63771" lon="5.67924">
        <ele>222</ele>
        <time>2022-04-16T08:29:01.176Z</time>
      </trkpt>
      <trkpt lat="45.6377" lon="5.67918">
        <ele>222</ele>
        <time>2022-04-16T08:29:02.176Z</time>
      </trkpt>
      <trkpt lat="45.63767" lon="5.67911">
        <ele>222</ele>
        <time>2022-04-16T08:29:03.176Z</time>
      </trkpt>
      <trkpt lat="45.63765" lon="5.67904">
        <ele>222</ele>
        <time>2022-04-16T08:29:04.176Z</time>
      </trkpt>
      <trkpt lat="45.63764" lon="5.67899">
        <ele>222</ele>
        <time>2022-04-16T08:29:05.175Z</time>
      </trkpt>
      <trkpt lat="45.63762" lon="5.67893">
        <ele>222</ele>
        <time>2022-04-16T08:29:06.176Z</time>
      </trkpt>
      <trkpt lat="45.6376" lon="5.67886">
        <ele>222</ele>
        <time>2022-04-16T08:29:07.176Z</time>
      </trkpt>
      <trkpt lat="45.63758" lon="5.6788">
        <ele>222</ele>
        <time>2022-04-16T08:29:08.176Z</time>
      </trkpt>
      <trkpt lat="45.63756" lon="5.67872">
        <ele>222</ele>
        <time>2022-04-16T08:29:09.176Z</time>
      </trkpt>
      <trkpt lat="45.63754" lon="5.67866">
        <ele>222</ele>
        <time>2022-04-16T08:29:10.175Z</time>
      </trkpt>
      <trkpt lat="45.63753" lon="5.6786">
        <ele>222</ele>
        <time>2022-04-16T08:29:11.175Z</time>
      </trkpt>
      <trkpt lat="45.63751" lon="5.67854">
        <ele>223</ele>
        <time>2022-04-16T08:29:12.175Z</time>
      </trkpt>
      <trkpt lat="45.63749" lon="5.67848">
        <ele>223</ele>
        <time>2022-04-16T08:29:13.176Z</time>
      </trkpt>
      <trkpt lat="45.63747" lon="5.67841">
        <ele>223</ele>
        <time>2022-04-16T08:29:14.176Z</time>
      </trkpt>
      <trkpt lat="45.63745" lon="5.67833">
        <ele>224</ele>
        <time>2022-04-16T08:29:15.175Z</time>
      </trkpt>
      <trkpt lat="45.63743" lon="5.67828">
        <ele>224</ele>
        <time>2022-04-16T08:29:16.176Z</time>
      </trkpt>
      <trkpt lat="45.63741" lon="5.67821">
        <ele>224</ele>
        <time>2022-04-16T08:29:17.176Z</time>
      </trkpt>
      <trkpt lat="45.63739" lon="5.67814">
        <ele>224</ele>
        <time>2022-04-16T08:29:18.176Z</time>
      </trkpt>
      <trkpt lat="45.63737" lon="5.67806">
        <ele>223</ele>
        <time>2022-04-16T08:29:19.176Z</time>
      </trkpt>
      <trkpt lat="45.63734" lon="5.67799">
        <ele>223</ele>
        <time>2022-04-16T08:29:20.176Z</time>
      </trkpt>
      <trkpt lat="45.63733" lon="5.67794">
        <ele>223</ele>
        <time>2022-04-16T08:29:21.176Z</time>
      </trkpt>
      <trkpt lat="45.63731" lon="5.67787">
        <ele>222</ele>
        <time>2022-04-16T08:29:22.176Z</time>
      </trkpt>
      <trkpt lat="45.63729" lon="5.6778">
        <ele>222</ele>
        <time>2022-04-16T08:29:23.176Z</time>
      </trkpt>
      <trkpt lat="45.63727" lon="5.67773">
        <ele>222</ele>
        <time>2022-04-16T08:29:24.175Z</time>
      </trkpt>
      <trkpt lat="45.63725" lon="5.67766">
        <ele>222</ele>
        <time>2022-04-16T08:29:25.175Z</time>
      </trkpt>
      <trkpt lat="45.63723" lon="5.67759">
        <ele>222</ele>
        <time>2022-04-16T08:29:26.176Z</time>
      </trkpt>
      <trkpt lat="45.63722" lon="5.67752">
        <ele>222</ele>
        <time>2022-04-16T08:29:27.176Z</time>
      </trkpt>
      <trkpt lat="45.6372" lon="5.67745">
        <ele>222</ele>
        <time>2022-04-16T08:29:28.176Z</time>
      </trkpt>
      <trkpt lat="45.63718" lon="5.67737">
        <ele>222</ele>
        <time>2022-04-16T08:29:29.175Z</time>
      </trkpt>
      <trkpt lat="45.63717" lon="5.67731">
        <ele>221</ele>
        <time>2022-04-16T08:29:30.175Z</time>
      </trkpt>
      <trkpt lat="45.63715" lon="5.67725">
        <ele>221</ele>
        <time>2022-04-16T08:29:31.176Z</time>
      </trkpt>
      <trkpt lat="45.63713" lon="5.67718">
        <ele>221</ele>
        <time>2022-04-16T08:29:32.175Z</time>
      </trkpt>
      <trkpt lat="45.63712" lon="5.67711">
        <ele>221</ele>
        <time>2022-04-16T08:29:33.176Z</time>
      </trkpt>
      <trkpt lat="45.63709" lon="5.67703">
        <ele>221</ele>
        <time>2022-04-16T08:29:34.175Z</time>
      </trkpt>
      <trkpt lat="45.63707" lon="5.67697">
        <ele>220</ele>
        <time>2022-04-16T08:29:35.175Z</time>
      </trkpt>
      <trkpt lat="45.63705" lon="5.6769">
        <ele>220</ele>
        <time>2022-04-16T08:29:36.176Z</time>
      </trkpt>
      <trkpt lat="45.63703" lon="5.67685">
        <ele>220</ele>
        <time>2022-04-16T08:29:37.176Z</time>
      </trkpt>
      <trkpt lat="45.63699" lon="5.67678">
        <ele>220</ele>
        <time>2022-04-16T08:29:38.176Z</time>
      </trkpt>
      <trkpt lat="45.63697" lon="5.67672">
        <ele>220</ele>
        <time>2022-04-16T08:29:39.175Z</time>
      </trkpt>
      <trkpt lat="45.63692" lon="5.67664">
        <ele>220</ele>
        <time>2022-04-16T08:29:40.176Z</time>
      </trkpt>
      <trkpt lat="45.63687" lon="5.67659">
        <ele>219</ele>
        <time>2022-04-16T08:29:41.176Z</time>
      </trkpt>
      <trkpt lat="45.63681" lon="5.67655">
        <ele>218</ele>
        <time>2022-04-16T08:29:42.175Z</time>
      </trkpt>
      <trkpt lat="45.63675" lon="5.67653">
        <ele>218</ele>
        <time>2022-04-16T08:29:43.176Z</time>
      </trkpt>
      <trkpt lat="45.6367" lon="5.67652">
        <ele>217</ele>
        <time>2022-04-16T08:29:44.175Z</time>
      </trkpt>
      <trkpt lat="45.63665" lon="5.67652">
        <ele>218</ele>
        <time>2022-04-16T08:29:45.176Z</time>
      </trkpt>
      <trkpt lat="45.6366" lon="5.67652">
        <ele>218</ele>
        <time>2022-04-16T08:29:46.176Z</time>
      </trkpt>
      <trkpt lat="45.63657" lon="5.6765">
        <ele>218</ele>
        <time>2022-04-16T08:29:47.175Z</time>
      </trkpt>
      <trkpt lat="45.63655" lon="5.67647">
        <ele>218</ele>
        <time>2022-04-16T08:29:48.175Z</time>
      </trkpt>
      <trkpt lat="45.63652" lon="5.67641">
        <ele>218</ele>
        <time>2022-04-16T08:29:49.175Z</time>
      </trkpt>
      <trkpt lat="45.63651" lon="5.67636">
        <ele>219</ele>
        <time>2022-04-16T08:29:50.176Z</time>
      </trkpt>
      <trkpt lat="45.63649" lon="5.67629">
        <ele>219</ele>
        <time>2022-04-16T08:29:51.176Z</time>
      </trkpt>
      <trkpt lat="45.63648" lon="5.67623">
        <ele>219</ele>
        <time>2022-04-16T08:29:52.176Z</time>
      </trkpt>
      <trkpt lat="45.63648" lon="5.67617">
        <ele>219</ele>
        <time>2022-04-16T08:29:53.176Z</time>
      </trkpt>
      <trkpt lat="45.63647" lon="5.6761">
        <ele>219</ele>
        <time>2022-04-16T08:29:54.176Z</time>
      </trkpt>
      <trkpt lat="45.63646" lon="5.67603">
        <ele>218</ele>
        <time>2022-04-16T08:29:55.176Z</time>
      </trkpt>
      <trkpt lat="45.63645" lon="5.67596">
        <ele>218</ele>
        <time>2022-04-16T08:29:56.176Z</time>
      </trkpt>
      <trkpt lat="45.63645" lon="5.6759">
        <ele>218</ele>
        <time>2022-04-16T08:29:57.176Z</time>
      </trkpt>
      <trkpt lat="45.63644" lon="5.67584">
        <ele>218</ele>
        <time>2022-04-16T08:29:58.176Z</time>
      </trkpt>
      <trkpt lat="45.63644" lon="5.67577">
        <ele>218</ele>
        <time>2022-04-16T08:29:59.176Z</time>
      </trkpt>
      <trkpt lat="45.63644" lon="5.67568">
        <ele>218</ele>
        <time>2022-04-16T08:30:00.176Z</time>
      </trkpt>
      <trkpt lat="45.63644" lon="5.67561">
        <ele>218</ele>
        <time>2022-04-16T08:30:01.176Z</time>
      </trkpt>
      <trkpt lat="45.63644" lon="5.67556">
        <ele>217</ele>
        <time>2022-04-16T08:30:02.176Z</time>
      </trkpt>
      <trkpt lat="45.63643" lon="5.67549">
        <ele>217</ele>
        <time>2022-04-16T08:30:03.176Z</time>
      </trkpt>
      <trkpt lat="45.63643" lon="5.6754">
        <ele>217</ele>
        <time>2022-04-16T08:30:04.176Z</time>
      </trkpt>
      <trkpt lat="45.63643" lon="5.67534">
        <ele>217</ele>
        <time>2022-04-16T08:30:05.175Z</time>
      </trkpt>
      <trkpt lat="45.63643" lon="5.67527">
        <ele>216</ele>
        <time>2022-04-16T08:30:06.176Z</time>
      </trkpt>
      <trkpt lat="45.63643" lon="5.6752">
        <ele>216</ele>
        <time>2022-04-16T08:30:07.176Z</time>
      </trkpt>
      <trkpt lat="45.63643" lon="5.67514">
        <ele>216</ele>
        <time>2022-04-16T08:30:08.176Z</time>
      </trkpt>
      <trkpt lat="45.63642" lon="5.67506">
        <ele>215</ele>
        <time>2022-04-16T08:30:09.176Z</time>
      </trkpt>
      <trkpt lat="45.63643" lon="5.67499">
        <ele>215</ele>
        <time>2022-04-16T08:30:10.176Z</time>
      </trkpt>
      <trkpt lat="45.63643" lon="5.67493">
        <ele>215</ele>
        <time>2022-04-16T08:30:11.176Z</time>
      </trkpt>
      <trkpt lat="45.63643" lon="5.67486">
        <ele>215</ele>
        <time>2022-04-16T08:30:12.175Z</time>
      </trkpt>
      <trkpt lat="45.63644" lon="5.67479">
        <ele>215</ele>
        <time>2022-04-16T08:30:13.176Z</time>
      </trkpt>
      <trkpt lat="45.63644" lon="5.67471">
        <ele>215</ele>
        <time>2022-04-16T08:30:14.176Z</time>
      </trkpt>
      <trkpt lat="45.63644" lon="5.67464">
        <ele>215</ele>
        <time>2022-04-16T08:30:15.176Z</time>
      </trkpt>
      <trkpt lat="45.63645" lon="5.67457">
        <ele>215</ele>
        <time>2022-04-16T08:30:16.176Z</time>
      </trkpt>
      <trkpt lat="45.63645" lon="5.67451">
        <ele>215</ele>
        <time>2022-04-16T08:30:17.176Z</time>
      </trkpt>
      <trkpt lat="45.63645" lon="5.67444">
        <ele>215</ele>
        <time>2022-04-16T08:30:18.176Z</time>
      </trkpt>
      <trkpt lat="45.63645" lon="5.67436">
        <ele>215</ele>
        <time>2022-04-16T08:30:19.176Z</time>
      </trkpt>
      <trkpt lat="45.63646" lon="5.67429">
        <ele>215</ele>
        <time>2022-04-16T08:30:20.175Z</time>
      </trkpt>
      <trkpt lat="45.63647" lon="5.67422">
        <ele>215</ele>
        <time>2022-04-16T08:30:21.175Z</time>
      </trkpt>
      <trkpt lat="45.63647" lon="5.67415">
        <ele>215</ele>
        <time>2022-04-16T08:30:22.176Z</time>
      </trkpt>
      <trkpt lat="45.63647" lon="5.67409">
        <ele>216</ele>
        <time>2022-04-16T08:30:23.176Z</time>
      </trkpt>
      <trkpt lat="45.63647" lon="5.67401">
        <ele>216</ele>
        <time>2022-04-16T08:30:24.176Z</time>
      </trkpt>
      <trkpt lat="45.63647" lon="5.67394">
        <ele>217</ele>
        <time>2022-04-16T08:30:25.176Z</time>
      </trkpt>
      <trkpt lat="45.63648" lon="5.67387">
        <ele>217</ele>
        <time>2022-04-16T08:30:26.175Z</time>
      </trkpt>
      <trkpt lat="45.63648" lon="5.67382">
        <ele>218</ele>
        <time>2022-04-16T08:30:27.175Z</time>
      </trkpt>
      <trkpt lat="45.63648" lon="5.67373">
        <ele>218</ele>
        <time>2022-04-16T08:30:28.175Z</time>
      </trkpt>
      <trkpt lat="45.63648" lon="5.67366">
        <ele>219</ele>
        <time>2022-04-16T08:30:29.176Z</time>
      </trkpt>
      <trkpt lat="45.63649" lon="5.67359">
        <ele>219</ele>
        <time>2022-04-16T08:30:30.175Z</time>
      </trkpt>
      <trkpt lat="45.63649" lon="5.67353">
        <ele>219</ele>
        <time>2022-04-16T08:30:31.176Z</time>
      </trkpt>
      <trkpt lat="45.63649" lon="5.67347">
        <ele>218</ele>
        <time>2022-04-16T08:30:32.175Z</time>
      </trkpt>
      <trkpt lat="45.6365" lon="5.6734">
        <ele>218</ele>
        <time>2022-04-16T08:30:33.176Z</time>
      </trkpt>
      <trkpt lat="45.6365" lon="5.67332">
        <ele>218</ele>
        <time>2022-04-16T08:30:34.175Z</time>
      </trkpt>
      <trkpt lat="45.6365" lon="5.67325">
        <ele>217</ele>
        <time>2022-04-16T08:30:35.176Z</time>
      </trkpt>
      <trkpt lat="45.6365" lon="5.67318">
        <ele>217</ele>
        <time>2022-04-16T08:30:36.176Z</time>
      </trkpt>
      <trkpt lat="45.63651" lon="5.67312">
        <ele>216</ele>
        <time>2022-04-16T08:30:37.176Z</time>
      </trkpt>
      <trkpt lat="45.63651" lon="5.67305">
        <ele>216</ele>
        <time>2022-04-16T08:30:38.176Z</time>
      </trkpt>
      <trkpt lat="45.63651" lon="5.67297">
        <ele>216</ele>
        <time>2022-04-16T08:30:39.176Z</time>
      </trkpt>
      <trkpt lat="45.63651" lon="5.67289">
        <ele>216</ele>
        <time>2022-04-16T08:30:40.176Z</time>
      </trkpt>
      <trkpt lat="45.63651" lon="5.67284">
        <ele>216</ele>
        <time>2022-04-16T08:30:41.176Z</time>
      </trkpt>
      <trkpt lat="45.63652" lon="5.67276">
        <ele>216</ele>
        <time>2022-04-16T08:30:42.176Z</time>
      </trkpt>
      <trkpt lat="45.63651" lon="5.67269">
        <ele>216</ele>
        <time>2022-04-16T08:30:43.176Z</time>
      </trkpt>
      <trkpt lat="45.63652" lon="5.67261">
        <ele>216</ele>
        <time>2022-04-16T08:30:44.175Z</time>
      </trkpt>
      <trkpt lat="45.63651" lon="5.67255">
        <ele>215</ele>
        <time>2022-04-16T08:30:45.176Z</time>
      </trkpt>
      <trkpt lat="45.63652" lon="5.67247">
        <ele>215</ele>
        <time>2022-04-16T08:30:46.175Z</time>
      </trkpt>
      <trkpt lat="45.63652" lon="5.67241">
        <ele>214</ele>
        <time>2022-04-16T08:30:47.176Z</time>
      </trkpt>
      <trkpt lat="45.63652" lon="5.67234">
        <ele>214</ele>
        <time>2022-04-16T08:30:48.176Z</time>
      </trkpt>
      <trkpt lat="45.63653" lon="5.67225">
        <ele>214</ele>
        <time>2022-04-16T08:30:49.175Z</time>
      </trkpt>
      <trkpt lat="45.63653" lon="5.67218">
        <ele>214</ele>
        <time>2022-04-16T08:30:50.176Z</time>
      </trkpt>
      <trkpt lat="45.63653" lon="5.67211">
        <ele>214</ele>
        <time>2022-04-16T08:30:51.176Z</time>
      </trkpt>
      <trkpt lat="45.63653" lon="5.67205">
        <ele>214</ele>
        <time>2022-04-16T08:30:52.176Z</time>
      </trkpt>
      <trkpt lat="45.63654" lon="5.67198">
        <ele>214</ele>
        <time>2022-04-16T08:30:53.176Z</time>
      </trkpt>
      <trkpt lat="45.63654" lon="5.67191">
        <ele>214</ele>
        <time>2022-04-16T08:30:54.175Z</time>
      </trkpt>
      <trkpt lat="45.63654" lon="5.67183">
        <ele>214</ele>
        <time>2022-04-16T08:30:55.176Z</time>
      </trkpt>
      <trkpt lat="45.63654" lon="5.67176">
        <ele>214</ele>
        <time>2022-04-16T08:30:56.175Z</time>
      </trkpt>
      <trkpt lat="45.63654" lon="5.6717">
        <ele>214</ele>
        <time>2022-04-16T08:30:57.176Z</time>
      </trkpt>
      <trkpt lat="45.63654" lon="5.67163">
        <ele>214</ele>
        <time>2022-04-16T08:30:58.176Z</time>
      </trkpt>
      <trkpt lat="45.63654" lon="5.67156">
        <ele>213</ele>
        <time>2022-04-16T08:30:59.176Z</time>
      </trkpt>
      <trkpt lat="45.63654" lon="5.67149">
        <ele>213</ele>
        <time>2022-04-16T08:31:00.175Z</time>
      </trkpt>
      <trkpt lat="45.63654" lon="5.6714">
        <ele>213</ele>
        <time>2022-04-16T08:31:01.176Z</time>
      </trkpt>
      <trkpt lat="45.63655" lon="5.67133">
        <ele>213</ele>
        <time>2022-04-16T08:31:02.175Z</time>
      </trkpt>
      <trkpt lat="45.63655" lon="5.67127">
        <ele>213</ele>
        <time>2022-04-16T08:31:03.176Z</time>
      </trkpt>
      <trkpt lat="45.63655" lon="5.6712">
        <ele>213</ele>
        <time>2022-04-16T08:31:04.175Z</time>
      </trkpt>
      <trkpt lat="45.63656" lon="5.67113">
        <ele>212</ele>
        <time>2022-04-16T08:31:05.176Z</time>
      </trkpt>
      <trkpt lat="45.63656" lon="5.67106">
        <ele>212</ele>
        <time>2022-04-16T08:31:06.176Z</time>
      </trkpt>
      <trkpt lat="45.63656" lon="5.67098">
        <ele>212</ele>
        <time>2022-04-16T08:31:07.176Z</time>
      </trkpt>
      <trkpt lat="45.63657" lon="5.6709">
        <ele>212</ele>
        <time>2022-04-16T08:31:08.176Z</time>
      </trkpt>
      <trkpt lat="45.63657" lon="5.67084">
        <ele>211</ele>
        <time>2022-04-16T08:31:09.176Z</time>
      </trkpt>
      <trkpt lat="45.63657" lon="5.67075">
        <ele>211</ele>
        <time>2022-04-16T08:31:10.175Z</time>
      </trkpt>
      <trkpt lat="45.63658" lon="5.67068">
        <ele>212</ele>
        <time>2022-04-16T08:31:11.176Z</time>
      </trkpt>
      <trkpt lat="45.63658" lon="5.6706">
        <ele>212</ele>
        <time>2022-04-16T08:31:12.176Z</time>
      </trkpt>
      <trkpt lat="45.63658" lon="5.67055">
        <ele>212</ele>
        <time>2022-04-16T08:31:13.176Z</time>
      </trkpt>
      <trkpt lat="45.63658" lon="5.67047">
        <ele>212</ele>
        <time>2022-04-16T08:31:14.176Z</time>
      </trkpt>
      <trkpt lat="45.63659" lon="5.6704">
        <ele>212</ele>
        <time>2022-04-16T08:31:15.176Z</time>
      </trkpt>
      <trkpt lat="45.63659" lon="5.67033">
        <ele>212</ele>
        <time>2022-04-16T08:31:16.176Z</time>
      </trkpt>
      <trkpt lat="45.63659" lon="5.67024">
        <ele>212</ele>
        <time>2022-04-16T08:31:17.176Z</time>
      </trkpt>
      <trkpt lat="45.63659" lon="5.67017">
        <ele>212</ele>
        <time>2022-04-16T08:31:18.176Z</time>
      </trkpt>
      <trkpt lat="45.63659" lon="5.67011">
        <ele>212</ele>
        <time>2022-04-16T08:31:19.175Z</time>
      </trkpt>
      <trkpt lat="45.63659" lon="5.67002">
        <ele>212</ele>
        <time>2022-04-16T08:31:20.176Z</time>
      </trkpt>
      <trkpt lat="45.6366" lon="5.66995">
        <ele>212</ele>
        <time>2022-04-16T08:31:21.176Z</time>
      </trkpt>
      <trkpt lat="45.6366" lon="5.66989">
        <ele>212</ele>
        <time>2022-04-16T08:31:22.176Z</time>
      </trkpt>
      <trkpt lat="45.6366" lon="5.66982">
        <ele>212</ele>
        <time>2022-04-16T08:31:23.175Z</time>
      </trkpt>
      <trkpt lat="45.6366" lon="5.66975">
        <ele>213</ele>
        <time>2022-04-16T08:31:24.176Z</time>
      </trkpt>
      <trkpt lat="45.6366" lon="5.66966">
        <ele>213</ele>
        <time>2022-04-16T08:31:25.175Z</time>
      </trkpt>
      <trkpt lat="45.6366" lon="5.66959">
        <ele>213</ele>
        <time>2022-04-16T08:31:26.176Z</time>
      </trkpt>
      <trkpt lat="45.6366" lon="5.66951">
        <ele>214</ele>
        <time>2022-04-16T08:31:27.176Z</time>
      </trkpt>
      <trkpt lat="45.6366" lon="5.66946">
        <ele>214</ele>
        <time>2022-04-16T08:31:28.176Z</time>
      </trkpt>
      <trkpt lat="45.6366" lon="5.66938">
        <ele>214</ele>
        <time>2022-04-16T08:31:29.176Z</time>
      </trkpt>
      <trkpt lat="45.63661" lon="5.66931">
        <ele>214</ele>
        <time>2022-04-16T08:31:30.175Z</time>
      </trkpt>
      <trkpt lat="45.63661" lon="5.66924">
        <ele>215</ele>
        <time>2022-04-16T08:31:31.176Z</time>
      </trkpt>
      <trkpt lat="45.63661" lon="5.66916">
        <ele>215</ele>
        <time>2022-04-16T08:31:32.176Z</time>
      </trkpt>
      <trkpt lat="45.63661" lon="5.66909">
        <ele>215</ele>
        <time>2022-04-16T08:31:33.176Z</time>
      </trkpt>
      <trkpt lat="45.63661" lon="5.66902">
        <ele>216</ele>
        <time>2022-04-16T08:31:34.175Z</time>
      </trkpt>
      <trkpt lat="45.63661" lon="5.66893">
        <ele>216</ele>
        <time>2022-04-16T08:31:35.176Z</time>
      </trkpt>
      <trkpt lat="45.63662" lon="5.66886">
        <ele>216</ele>
        <time>2022-04-16T08:31:36.176Z</time>
      </trkpt>
      <trkpt lat="45.63662" lon="5.66878">
        <ele>216</ele>
        <time>2022-04-16T08:31:37.176Z</time>
      </trkpt>
      <trkpt lat="45.63662" lon="5.66873">
        <ele>216</ele>
        <time>2022-04-16T08:31:38.175Z</time>
      </trkpt>
      <trkpt lat="45.63663" lon="5.66864">
        <ele>216</ele>
        <time>2022-04-16T08:31:39.176Z</time>
      </trkpt>
      <trkpt lat="45.63663" lon="5.66857">
        <ele>216</ele>
        <time>2022-04-16T08:31:40.176Z</time>
      </trkpt>
      <trkpt lat="45.63663" lon="5.6685">
        <ele>216</ele>
        <time>2022-04-16T08:31:41.175Z</time>
      </trkpt>
      <trkpt lat="45.63663" lon="5.66843">
        <ele>216</ele>
        <time>2022-04-16T08:31:42.176Z</time>
      </trkpt>
      <trkpt lat="45.63664" lon="5.66835">
        <ele>216</ele>
        <time>2022-04-16T08:31:43.175Z</time>
      </trkpt>
      <trkpt lat="45.63664" lon="5.66828">
        <ele>215</ele>
        <time>2022-04-16T08:31:44.176Z</time>
      </trkpt>
      <trkpt lat="45.63664" lon="5.66821">
        <ele>214</ele>
        <time>2022-04-16T08:31:45.175Z</time>
      </trkpt>
      <trkpt lat="45.63664" lon="5.66814">
        <ele>214</ele>
        <time>2022-04-16T08:31:46.176Z</time>
      </trkpt>
      <trkpt lat="45.63665" lon="5.66807">
        <ele>213</ele>
        <time>2022-04-16T08:31:47.176Z</time>
      </trkpt>
      <trkpt lat="45.63665" lon="5.66801">
        <ele>213</ele>
        <time>2022-04-16T08:31:48.176Z</time>
      </trkpt>
      <trkpt lat="45.63665" lon="5.66794">
        <ele>213</ele>
        <time>2022-04-16T08:31:49.176Z</time>
      </trkpt>
      <trkpt lat="45.63665" lon="5.66787">
        <ele>214</ele>
        <time>2022-04-16T08:31:50.176Z</time>
      </trkpt>
      <trkpt lat="45.63664" lon="5.66779">
        <ele>214</ele>
        <time>2022-04-16T08:31:51.175Z</time>
      </trkpt>
      <trkpt lat="45.63664" lon="5.6677">
        <ele>215</ele>
        <time>2022-04-16T08:31:52.176Z</time>
      </trkpt>
      <trkpt lat="45.63664" lon="5.66764">
        <ele>215</ele>
        <time>2022-04-16T08:31:53.175Z</time>
      </trkpt>
      <trkpt lat="45.63665" lon="5.66757">
        <ele>215</ele>
        <time>2022-04-16T08:31:54.176Z</time>
      </trkpt>
      <trkpt lat="45.63666" lon="5.6675">
        <ele>216</ele>
        <time>2022-04-16T08:31:55.175Z</time>
      </trkpt>
      <trkpt lat="45.63666" lon="5.66741">
        <ele>216</ele>
        <time>2022-04-16T08:31:56.176Z</time>
      </trkpt>
      <trkpt lat="45.63667" lon="5.66736">
        <ele>216</ele>
        <time>2022-04-16T08:31:57.175Z</time>
      </trkpt>
      <trkpt lat="45.63667" lon="5.66728">
        <ele>216</ele>
        <time>2022-04-16T08:31:58.176Z</time>
      </trkpt>
      <trkpt lat="45.63667" lon="5.66722">
        <ele>216</ele>
        <time>2022-04-16T08:31:59.176Z</time>
      </trkpt>
      <trkpt lat="45.63667" lon="5.66715">
        <ele>216</ele>
        <time>2022-04-16T08:32:00.176Z</time>
      </trkpt>
      <trkpt lat="45.63668" lon="5.66708">
        <ele>216</ele>
        <time>2022-04-16T08:32:01.176Z</time>
      </trkpt>
      <trkpt lat="45.63668" lon="5.667">
        <ele>216</ele>
        <time>2022-04-16T08:32:02.176Z</time>
      </trkpt>
      <trkpt lat="45.63668" lon="5.66693">
        <ele>216</ele>
        <time>2022-04-16T08:32:03.176Z</time>
      </trkpt>
      <trkpt lat="45.63668" lon="5.66687">
        <ele>216</ele>
        <time>2022-04-16T08:32:04.176Z</time>
      </trkpt>
      <trkpt lat="45.63669" lon="5.66681">
        <ele>216</ele>
        <time>2022-04-16T08:32:05.176Z</time>
      </trkpt>
      <trkpt lat="45.63669" lon="5.66673">
        <ele>216</ele>
        <time>2022-04-16T08:32:06.176Z</time>
      </trkpt>
      <trkpt lat="45.63669" lon="5.66666">
        <ele>216</ele>
        <time>2022-04-16T08:32:07.175Z</time>
      </trkpt>
      <trkpt lat="45.63669" lon="5.66659">
        <ele>216</ele>
        <time>2022-04-16T08:32:08.175Z</time>
      </trkpt>
      <trkpt lat="45.63669" lon="5.66654">
        <ele>216</ele>
        <time>2022-04-16T08:32:09.176Z</time>
      </trkpt>
      <trkpt lat="45.63669" lon="5.66647">
        <ele>216</ele>
        <time>2022-04-16T08:32:10.176Z</time>
      </trkpt>
      <trkpt lat="45.63669" lon="5.66639">
        <ele>216</ele>
        <time>2022-04-16T08:32:11.176Z</time>
      </trkpt>
      <trkpt lat="45.6367" lon="5.66632">
        <ele>216</ele>
        <time>2022-04-16T08:32:12.176Z</time>
      </trkpt>
      <trkpt lat="45.6367" lon="5.66625">
        <ele>215</ele>
        <time>2022-04-16T08:32:13.176Z</time>
      </trkpt>
      <trkpt lat="45.6367" lon="5.6662">
        <ele>215</ele>
        <time>2022-04-16T08:32:14.175Z</time>
      </trkpt>
      <trkpt lat="45.6367" lon="5.66612">
        <ele>215</ele>
        <time>2022-04-16T08:32:15.175Z</time>
      </trkpt>
      <trkpt lat="45.63671" lon="5.66605">
        <ele>214</ele>
        <time>2022-04-16T08:32:16.175Z</time>
      </trkpt>
      <trkpt lat="45.63671" lon="5.66598">
        <ele>214</ele>
        <time>2022-04-16T08:32:17.175Z</time>
      </trkpt>
      <trkpt lat="45.63671" lon="5.66591">
        <ele>214</ele>
        <time>2022-04-16T08:32:18.176Z</time>
      </trkpt>
      <trkpt lat="45.63672" lon="5.66584">
        <ele>214</ele>
        <time>2022-04-16T08:32:19.176Z</time>
      </trkpt>
      <trkpt lat="45.63672" lon="5.66579">
        <ele>214</ele>
        <time>2022-04-16T08:32:20.176Z</time>
      </trkpt>
      <trkpt lat="45.63672" lon="5.66571">
        <ele>214</ele>
        <time>2022-04-16T08:32:21.176Z</time>
      </trkpt>
      <trkpt lat="45.63672" lon="5.66564">
        <ele>214</ele>
        <time>2022-04-16T08:32:22.176Z</time>
      </trkpt>
      <trkpt lat="45.63673" lon="5.66557">
        <ele>214</ele>
        <time>2022-04-16T08:32:23.175Z</time>
      </trkpt>
      <trkpt lat="45.63673" lon="5.66551">
        <ele>214</ele>
        <time>2022-04-16T08:32:24.176Z</time>
      </trkpt>
      <trkpt lat="45.63673" lon="5.66544">
        <ele>215</ele>
        <time>2022-04-16T08:32:25.176Z</time>
      </trkpt>
      <trkpt lat="45.63673" lon="5.66536">
        <ele>215</ele>
        <time>2022-04-16T08:32:26.176Z</time>
      </trkpt>
      <trkpt lat="45.63673" lon="5.66529">
        <ele>216</ele>
        <time>2022-04-16T08:32:27.176Z</time>
      </trkpt>
      <trkpt lat="45.63673" lon="5.66522">
        <ele>216</ele>
        <time>2022-04-16T08:32:28.175Z</time>
      </trkpt>
      <trkpt lat="45.63673" lon="5.66516">
        <ele>216</ele>
        <time>2022-04-16T08:32:29.175Z</time>
      </trkpt>
      <trkpt lat="45.63674" lon="5.66509">
        <ele>215</ele>
        <time>2022-04-16T08:32:30.176Z</time>
      </trkpt>
      <trkpt lat="45.63674" lon="5.665">
        <ele>216</ele>
        <time>2022-04-16T08:32:31.176Z</time>
      </trkpt>
      <trkpt lat="45.63674" lon="5.66493">
        <ele>216</ele>
        <time>2022-04-16T08:32:32.176Z</time>
      </trkpt>
      <trkpt lat="45.63675" lon="5.66488">
        <ele>216</ele>
        <time>2022-04-16T08:32:33.176Z</time>
      </trkpt>
      <trkpt lat="45.63675" lon="5.66481">
        <ele>216</ele>
        <time>2022-04-16T08:32:34.176Z</time>
      </trkpt>
      <trkpt lat="45.63675" lon="5.66473">
        <ele>215</ele>
        <time>2022-04-16T08:32:35.176Z</time>
      </trkpt>
      <trkpt lat="45.63675" lon="5.66466">
        <ele>215</ele>
        <time>2022-04-16T08:32:36.176Z</time>
      </trkpt>
      <trkpt lat="45.63675" lon="5.66459">
        <ele>215</ele>
        <time>2022-04-16T08:32:37.176Z</time>
      </trkpt>
      <trkpt lat="45.63676" lon="5.66452">
        <ele>215</ele>
        <time>2022-04-16T08:32:38.176Z</time>
      </trkpt>
      <trkpt lat="45.63676" lon="5.66445">
        <ele>214</ele>
        <time>2022-04-16T08:32:39.176Z</time>
      </trkpt>
      <trkpt lat="45.63676" lon="5.66438">
        <ele>214</ele>
        <time>2022-04-16T08:32:40.175Z</time>
      </trkpt>
      <trkpt lat="45.63676" lon="5.6643">
        <ele>214</ele>
        <time>2022-04-16T08:32:41.176Z</time>
      </trkpt>
      <trkpt lat="45.63676" lon="5.66423">
        <ele>214</ele>
        <time>2022-04-16T08:32:42.176Z</time>
      </trkpt>
      <trkpt lat="45.63676" lon="5.66416">
        <ele>214</ele>
        <time>2022-04-16T08:32:43.176Z</time>
      </trkpt>
      <trkpt lat="45.63676" lon="5.66409">
        <ele>214</ele>
        <time>2022-04-16T08:32:44.176Z</time>
      </trkpt>
      <trkpt lat="45.63677" lon="5.66402">
        <ele>214</ele>
        <time>2022-04-16T08:32:45.176Z</time>
      </trkpt>
      <trkpt lat="45.63677" lon="5.66394">
        <ele>214</ele>
        <time>2022-04-16T08:32:46.176Z</time>
      </trkpt>
      <trkpt lat="45.63677" lon="5.66387">
        <ele>214</ele>
        <time>2022-04-16T08:32:47.176Z</time>
      </trkpt>
      <trkpt lat="45.63677" lon="5.6638">
        <ele>214</ele>
        <time>2022-04-16T08:32:48.176Z</time>
      </trkpt>
      <trkpt lat="45.63678" lon="5.66373">
        <ele>214</ele>
        <time>2022-04-16T08:32:49.176Z</time>
      </trkpt>
      <trkpt lat="45.63678" lon="5.66366">
        <ele>214</ele>
        <time>2022-04-16T08:32:50.175Z</time>
      </trkpt>
      <trkpt lat="45.63678" lon="5.66358">
        <ele>214</ele>
        <time>2022-04-16T08:32:51.176Z</time>
      </trkpt>
      <trkpt lat="45.63678" lon="5.66351">
        <ele>214</ele>
        <time>2022-04-16T08:32:52.176Z</time>
      </trkpt>
      <trkpt lat="45.63679" lon="5.66344">
        <ele>214</ele>
        <time>2022-04-16T08:32:53.176Z</time>
      </trkpt>
      <trkpt lat="45.63679" lon="5.66337">
        <ele>214</ele>
        <time>2022-04-16T08:32:54.175Z</time>
      </trkpt>
      <trkpt lat="45.63679" lon="5.6633">
        <ele>214</ele>
        <time>2022-04-16T08:32:55.175Z</time>
      </trkpt>
      <trkpt lat="45.63679" lon="5.66323">
        <ele>214</ele>
        <time>2022-04-16T08:32:56.175Z</time>
      </trkpt>
      <trkpt lat="45.63679" lon="5.66316">
        <ele>214</ele>
        <time>2022-04-16T08:32:57.175Z</time>
      </trkpt>
      <trkpt lat="45.63679" lon="5.66308">
        <ele>214</ele>
        <time>2022-04-16T08:32:58.176Z</time>
      </trkpt>
      <trkpt lat="45.63679" lon="5.66301">
        <ele>214</ele>
        <time>2022-04-16T08:32:59.176Z</time>
      </trkpt>
      <trkpt lat="45.63679" lon="5.66294">
        <ele>214</ele>
        <time>2022-04-16T08:33:00.176Z</time>
      </trkpt>
      <trkpt lat="45.63679" lon="5.66287">
        <ele>214</ele>
        <time>2022-04-16T08:33:01.175Z</time>
      </trkpt>
      <trkpt lat="45.6368" lon="5.6628">
        <ele>214</ele>
        <time>2022-04-16T08:33:02.175Z</time>
      </trkpt>
      <trkpt lat="45.6368" lon="5.66273">
        <ele>214</ele>
        <time>2022-04-16T08:33:03.175Z</time>
      </trkpt>
      <trkpt lat="45.6368" lon="5.66266">
        <ele>214</ele>
        <time>2022-04-16T08:33:04.176Z</time>
      </trkpt>
      <trkpt lat="45.63681" lon="5.66258">
        <ele>213</ele>
        <time>2022-04-16T08:33:05.176Z</time>
      </trkpt>
      <trkpt lat="45.63681" lon="5.66251">
        <ele>214</ele>
        <time>2022-04-16T08:33:06.176Z</time>
      </trkpt>
      <trkpt lat="45.63681" lon="5.66244">
        <ele>214</ele>
        <time>2022-04-16T08:33:07.175Z</time>
      </trkpt>
      <trkpt lat="45.63682" lon="5.66235">
        <ele>214</ele>
        <time>2022-04-16T08:33:08.175Z</time>
      </trkpt>
      <trkpt lat="45.63682" lon="5.6623">
        <ele>214</ele>
        <time>2022-04-16T08:33:09.175Z</time>
      </trkpt>
      <trkpt lat="45.63682" lon="5.66223">
        <ele>214</ele>
        <time>2022-04-16T08:33:10.176Z</time>
      </trkpt>
      <trkpt lat="45.63682" lon="5.66214">
        <ele>214</ele>
        <time>2022-04-16T08:33:11.176Z</time>
      </trkpt>
      <trkpt lat="45.63682" lon="5.66206">
        <ele>214</ele>
        <time>2022-04-16T08:33:12.176Z</time>
      </trkpt>
      <trkpt lat="45.63682" lon="5.66199">
        <ele>214</ele>
        <time>2022-04-16T08:33:13.175Z</time>
      </trkpt>
      <trkpt lat="45.63683" lon="5.66193">
        <ele>214</ele>
        <time>2022-04-16T08:33:14.175Z</time>
      </trkpt>
      <trkpt lat="45.63683" lon="5.66186">
        <ele>214</ele>
        <time>2022-04-16T08:33:15.175Z</time>
      </trkpt>
      <trkpt lat="45.63683" lon="5.66178">
        <ele>214</ele>
        <time>2022-04-16T08:33:16.176Z</time>
      </trkpt>
      <trkpt lat="45.63684" lon="5.66169">
        <ele>214</ele>
        <time>2022-04-16T08:33:17.176Z</time>
      </trkpt>
      <trkpt lat="45.63684" lon="5.66163">
        <ele>214</ele>
        <time>2022-04-16T08:33:18.175Z</time>
      </trkpt>
      <trkpt lat="45.63684" lon="5.66156">
        <ele>215</ele>
        <time>2022-04-16T08:33:19.176Z</time>
      </trkpt>
      <trkpt lat="45.63684" lon="5.66149">
        <ele>215</ele>
        <time>2022-04-16T08:33:20.176Z</time>
      </trkpt>
      <trkpt lat="45.63684" lon="5.66142">
        <ele>215</ele>
        <time>2022-04-16T08:33:21.176Z</time>
      </trkpt>
      <trkpt lat="45.63684" lon="5.66134">
        <ele>215</ele>
        <time>2022-04-16T08:33:22.175Z</time>
      </trkpt>
      <trkpt lat="45.63684" lon="5.66127">
        <ele>215</ele>
        <time>2022-04-16T08:33:23.176Z</time>
      </trkpt>
      <trkpt lat="45.63684" lon="5.6612">
        <ele>215</ele>
        <time>2022-04-16T08:33:24.175Z</time>
      </trkpt>
      <trkpt lat="45.63685" lon="5.66112">
        <ele>215</ele>
        <time>2022-04-16T08:33:25.175Z</time>
      </trkpt>
      <trkpt lat="45.63685" lon="5.66105">
        <ele>215</ele>
        <time>2022-04-16T08:33:26.175Z</time>
      </trkpt>
      <trkpt lat="45.63685" lon="5.66097">
        <ele>215</ele>
        <time>2022-04-16T08:33:27.176Z</time>
      </trkpt>
      <trkpt lat="45.63685" lon="5.6609">
        <ele>215</ele>
        <time>2022-04-16T08:33:28.175Z</time>
      </trkpt>
      <trkpt lat="45.63686" lon="5.66083">
        <ele>215</ele>
        <time>2022-04-16T08:33:29.176Z</time>
      </trkpt>
      <trkpt lat="45.63686" lon="5.66077">
        <ele>215</ele>
        <time>2022-04-16T08:33:30.175Z</time>
      </trkpt>
      <trkpt lat="45.63686" lon="5.6607">
        <ele>215</ele>
        <time>2022-04-16T08:33:31.176Z</time>
      </trkpt>
      <trkpt lat="45.63686" lon="5.66062">
        <ele>215</ele>
        <time>2022-04-16T08:33:32.176Z</time>
      </trkpt>
      <trkpt lat="45.63686" lon="5.66055">
        <ele>215</ele>
        <time>2022-04-16T08:33:33.176Z</time>
      </trkpt>
      <trkpt lat="45.63686" lon="5.66048">
        <ele>215</ele>
        <time>2022-04-16T08:33:34.176Z</time>
      </trkpt>
      <trkpt lat="45.63686" lon="5.66042">
        <ele>215</ele>
        <time>2022-04-16T08:33:35.176Z</time>
      </trkpt>
      <trkpt lat="45.63686" lon="5.66035">
        <ele>215</ele>
        <time>2022-04-16T08:33:36.176Z</time>
      </trkpt>
      <trkpt lat="45.63686" lon="5.66028">
        <ele>215</ele>
        <time>2022-04-16T08:33:37.175Z</time>
      </trkpt>
      <trkpt lat="45.63685" lon="5.6602">
        <ele>215</ele>
        <time>2022-04-16T08:33:38.176Z</time>
      </trkpt>
      <trkpt lat="45.63685" lon="5.66014">
        <ele>215</ele>
        <time>2022-04-16T08:33:39.176Z</time>
      </trkpt>
      <trkpt lat="45.63685" lon="5.66007">
        <ele>216</ele>
        <time>2022-04-16T08:33:40.175Z</time>
      </trkpt>
      <trkpt lat="45.63684" lon="5.66">
        <ele>216</ele>
        <time>2022-04-16T08:33:41.176Z</time>
      </trkpt>
      <trkpt lat="45.63683" lon="5.65993">
        <ele>216</ele>
        <time>2022-04-16T08:33:42.175Z</time>
      </trkpt>
      <trkpt lat="45.63683" lon="5.65986">
        <ele>216</ele>
        <time>2022-04-16T08:33:43.176Z</time>
      </trkpt>
      <trkpt lat="45.63682" lon="5.65979">
        <ele>217</ele>
        <time>2022-04-16T08:33:44.176Z</time>
      </trkpt>
      <trkpt lat="45.63681" lon="5.65971">
        <ele>217</ele>
        <time>2022-04-16T08:33:45.175Z</time>
      </trkpt>
      <trkpt lat="45.6368" lon="5.65964">
        <ele>217</ele>
        <time>2022-04-16T08:33:46.175Z</time>
      </trkpt>
      <trkpt lat="45.63679" lon="5.65955">
        <ele>218</ele>
        <time>2022-04-16T08:33:47.176Z</time>
      </trkpt>
      <trkpt lat="45.63678" lon="5.65948">
        <ele>218</ele>
        <time>2022-04-16T08:33:48.176Z</time>
      </trkpt>
      <trkpt lat="45.63677" lon="5.65941">
        <ele>218</ele>
        <time>2022-04-16T08:33:49.176Z</time>
      </trkpt>
      <trkpt lat="45.63676" lon="5.65935">
        <ele>218</ele>
        <time>2022-04-16T08:33:50.176Z</time>
      </trkpt>
      <trkpt lat="45.63674" lon="5.65927">
        <ele>218</ele>
        <time>2022-04-16T08:33:51.176Z</time>
      </trkpt>
      <trkpt lat="45.63673" lon="5.6592">
        <ele>217</ele>
        <time>2022-04-16T08:33:52.175Z</time>
      </trkpt>
      <trkpt lat="45.63671" lon="5.65912">
        <ele>217</ele>
        <time>2022-04-16T08:33:53.176Z</time>
      </trkpt>
      <trkpt lat="45.6367" lon="5.65905">
        <ele>217</ele>
        <time>2022-04-16T08:33:54.176Z</time>
      </trkpt>
      <trkpt lat="45.63668" lon="5.65899">
        <ele>217</ele>
        <time>2022-04-16T08:33:55.176Z</time>
      </trkpt>
      <trkpt lat="45.63666" lon="5.65893">
        <ele>216</ele>
        <time>2022-04-16T08:33:56.175Z</time>
      </trkpt>
      <trkpt lat="45.63665" lon="5.65887">
        <ele>216</ele>
        <time>2022-04-16T08:33:57.176Z</time>
      </trkpt>
      <trkpt lat="45.63663" lon="5.65879">
        <ele>216</ele>
        <time>2022-04-16T08:33:58.176Z</time>
      </trkpt>
      <trkpt lat="45.63661" lon="5.65872">
        <ele>216</ele>
        <time>2022-04-16T08:33:59.175Z</time>
      </trkpt>
      <trkpt lat="45.63659" lon="5.65867">
        <ele>216</ele>
        <time>2022-04-16T08:34:00.175Z</time>
      </trkpt>
      <trkpt lat="45.63657" lon="5.65861">
        <ele>216</ele>
        <time>2022-04-16T08:34:01.176Z</time>
      </trkpt>
      <trkpt lat="45.63653" lon="5.65857">
        <ele>216</ele>
        <time>2022-04-16T08:34:02.176Z</time>
      </trkpt>
      <trkpt lat="45.63648" lon="5.65853">
        <ele>215</ele>
        <time>2022-04-16T08:34:03.175Z</time>
      </trkpt>
      <trkpt lat="45.63644" lon="5.65849">
        <ele>215</ele>
        <time>2022-04-16T08:34:04.175Z</time>
      </trkpt>
      <trkpt lat="45.6364" lon="5.65845">
        <ele>214</ele>
        <time>2022-04-16T08:34:05.176Z</time>
      </trkpt>
      <trkpt lat="45.63638" lon="5.65841">
        <ele>214</ele>
        <time>2022-04-16T08:34:06.175Z</time>
      </trkpt>
      <trkpt lat="45.63634" lon="5.65837">
        <ele>214</ele>
        <time>2022-04-16T08:34:07.175Z</time>
      </trkpt>
      <trkpt lat="45.63631" lon="5.6583">
        <ele>213</ele>
        <time>2022-04-16T08:34:08.176Z</time>
      </trkpt>
      <trkpt lat="45.63629" lon="5.65825">
        <ele>213</ele>
        <time>2022-04-16T08:34:09.175Z</time>
      </trkpt>
      <trkpt lat="45.63626" lon="5.6582">
        <ele>213</ele>
        <time>2022-04-16T08:34:10.176Z</time>
      </trkpt>
      <trkpt lat="45.63623" lon="5.65815">
        <ele>213</ele>
        <time>2022-04-16T08:34:11.175Z</time>
      </trkpt>
      <trkpt lat="45.6362" lon="5.6581">
        <ele>214</ele>
        <time>2022-04-16T08:34:12.175Z</time>
      </trkpt>
      <trkpt lat="45.63617" lon="5.65807">
        <ele>214</ele>
        <time>2022-04-16T08:34:13.175Z</time>
      </trkpt>
      <trkpt lat="45.63612" lon="5.65803">
        <ele>214</ele>
        <time>2022-04-16T08:34:14.176Z</time>
      </trkpt>
      <trkpt lat="45.63608" lon="5.658">
        <ele>215</ele>
        <time>2022-04-16T08:34:15.175Z</time>
      </trkpt>
      <trkpt lat="45.63605" lon="5.65797">
        <ele>215</ele>
        <time>2022-04-16T08:34:16.176Z</time>
      </trkpt>
      <trkpt lat="45.636" lon="5.65793">
        <ele>215</ele>
        <time>2022-04-16T08:34:17.176Z</time>
      </trkpt>
      <trkpt lat="45.63596" lon="5.65788">
        <ele>215</ele>
        <time>2022-04-16T08:34:18.176Z</time>
      </trkpt>
      <trkpt lat="45.63592" lon="5.65784">
        <ele>215</ele>
        <time>2022-04-16T08:34:19.176Z</time>
      </trkpt>
      <trkpt lat="45.6359" lon="5.6578">
        <ele>215</ele>
        <time>2022-04-16T08:34:20.176Z</time>
      </trkpt>
      <trkpt lat="45.63586" lon="5.65775">
        <ele>215</ele>
        <time>2022-04-16T08:34:21.176Z</time>
      </trkpt>
      <trkpt lat="45.63583" lon="5.65771">
        <ele>214</ele>
        <time>2022-04-16T08:34:22.175Z</time>
      </trkpt>
      <trkpt lat="45.63579" lon="5.65765">
        <ele>214</ele>
        <time>2022-04-16T08:34:23.175Z</time>
      </trkpt>
      <trkpt lat="45.63575" lon="5.6576">
        <ele>214</ele>
        <time>2022-04-16T08:34:24.176Z</time>
      </trkpt>
      <trkpt lat="45.63572" lon="5.65755">
        <ele>214</ele>
        <time>2022-04-16T08:34:25.175Z</time>
      </trkpt>
      <trkpt lat="45.63569" lon="5.65751">
        <ele>214</ele>
        <time>2022-04-16T08:34:26.176Z</time>
      </trkpt>
      <trkpt lat="45.63565" lon="5.65746">
        <ele>213</ele>
        <time>2022-04-16T08:34:27.175Z</time>
      </trkpt>
      <trkpt lat="45.63561" lon="5.6574">
        <ele>214</ele>
        <time>2022-04-16T08:34:28.175Z</time>
      </trkpt>
      <trkpt lat="45.63558" lon="5.65737">
        <ele>214</ele>
        <time>2022-04-16T08:34:29.176Z</time>
      </trkpt>
      <trkpt lat="45.63555" lon="5.65732">
        <ele>213</ele>
        <time>2022-04-16T08:34:30.175Z</time>
      </trkpt>
      <trkpt lat="45.63551" lon="5.65727">
        <ele>213</ele>
        <time>2022-04-16T08:34:31.176Z</time>
      </trkpt>
      <trkpt lat="45.63548" lon="5.65723">
        <ele>213</ele>
        <time>2022-04-16T08:34:32.175Z</time>
      </trkpt>
      <trkpt lat="45.63544" lon="5.65718">
        <ele>213</ele>
        <time>2022-04-16T08:34:33.175Z</time>
      </trkpt>
      <trkpt lat="45.6354" lon="5.65712">
        <ele>213</ele>
        <time>2022-04-16T08:34:34.175Z</time>
      </trkpt>
      <trkpt lat="45.63537" lon="5.65707">
        <ele>212</ele>
        <time>2022-04-16T08:34:35.175Z</time>
      </trkpt>
      <trkpt lat="45.63535" lon="5.65704">
        <ele>212</ele>
        <time>2022-04-16T08:34:36.176Z</time>
      </trkpt>
      <trkpt lat="45.63532" lon="5.65699">
        <ele>212</ele>
        <time>2022-04-16T08:34:37.176Z</time>
      </trkpt>
      <trkpt lat="45.63528" lon="5.65694">
        <ele>213</ele>
        <time>2022-04-16T08:34:38.176Z</time>
      </trkpt>
      <trkpt lat="45.63524" lon="5.65688">
        <ele>213</ele>
        <time>2022-04-16T08:34:39.176Z</time>
      </trkpt>
      <trkpt lat="45.63522" lon="5.65684">
        <ele>213</ele>
        <time>2022-04-16T08:34:40.176Z</time>
      </trkpt>
      <trkpt lat="45.63518" lon="5.65679">
        <ele>213</ele>
        <time>2022-04-16T08:34:41.175Z</time>
      </trkpt>
      <trkpt lat="45.63515" lon="5.65675">
        <ele>214</ele>
        <time>2022-04-16T08:34:42.176Z</time>
      </trkpt>
      <trkpt lat="45.63512" lon="5.6567">
        <ele>214</ele>
        <time>2022-04-16T08:34:43.176Z</time>
      </trkpt>
      <trkpt lat="45.63508" lon="5.65667">
        <ele>214</ele>
        <time>2022-04-16T08:34:44.176Z</time>
      </trkpt>
      <trkpt lat="45.63504" lon="5.65663">
        <ele>215</ele>
        <time>2022-04-16T08:34:45.175Z</time>
      </trkpt>
      <trkpt lat="45.635" lon="5.6566">
        <ele>215</ele>
        <time>2022-04-16T08:34:46.175Z</time>
      </trkpt>
      <trkpt lat="45.63497" lon="5.65657">
        <ele>215</ele>
        <time>2022-04-16T08:34:47.176Z</time>
      </trkpt>
      <trkpt lat="45.63493" lon="5.65654">
        <ele>215</ele>
        <time>2022-04-16T08:34:48.176Z</time>
      </trkpt>
      <trkpt lat="45.63488" lon="5.65651">
        <ele>215</ele>
        <time>2022-04-16T08:34:49.176Z</time>
      </trkpt>
      <trkpt lat="45.63484" lon="5.65647">
        <ele>215</ele>
        <time>2022-04-16T08:34:50.176Z</time>
      </trkpt>
      <trkpt lat="45.63481" lon="5.65643">
        <ele>215</ele>
        <time>2022-04-16T08:34:51.176Z</time>
      </trkpt>
      <trkpt lat="45.63478" lon="5.6564">
        <ele>214</ele>
        <time>2022-04-16T08:34:52.176Z</time>
      </trkpt>
      <trkpt lat="45.63476" lon="5.65635">
        <ele>214</ele>
        <time>2022-04-16T08:34:53.176Z</time>
      </trkpt>
      <trkpt lat="45.63473" lon="5.65631">
        <ele>215</ele>
        <time>2022-04-16T08:34:54.176Z</time>
      </trkpt>
      <trkpt lat="45.6347" lon="5.65626">
        <ele>215</ele>
        <time>2022-04-16T08:34:55.176Z</time>
      </trkpt>
      <trkpt lat="45.63468" lon="5.65624">
        <ele>215</ele>
        <time>2022-04-16T08:34:56.176Z</time>
      </trkpt>
      <trkpt lat="45.63466" lon="5.65621">
        <ele>215</ele>
        <time>2022-04-16T08:34:57.175Z</time>
      </trkpt>
      <trkpt lat="45.63464" lon="5.65619">
        <ele>215</ele>
        <time>2022-04-16T08:34:58.176Z</time>
      </trkpt>
      <trkpt lat="45.63461" lon="5.65617">
        <ele>215</ele>
        <time>2022-04-16T08:34:59.175Z</time>
      </trkpt>
      <trkpt lat="45.63459" lon="5.65616">
        <ele>215</ele>
        <time>2022-04-16T08:35:00.176Z</time>
      </trkpt>
      <trkpt lat="45.63457" lon="5.65614">
        <ele>215</ele>
        <time>2022-04-16T08:35:01.176Z</time>
      </trkpt>
      <trkpt lat="45.63456" lon="5.65613">
        <ele>215</ele>
        <time>2022-04-16T08:35:02.176Z</time>
      </trkpt>
      <trkpt lat="45.63454" lon="5.65612">
        <ele>215</ele>
        <time>2022-04-16T08:35:03.176Z</time>
      </trkpt>
      <trkpt lat="45.63454" lon="5.65611">
        <ele>215</ele>
        <time>2022-04-16T08:35:04.175Z</time>
      </trkpt>
      <trkpt lat="45.63454" lon="5.65611">
        <ele>215</ele>
        <time>2022-04-16T08:35:05.175Z</time>
      </trkpt>
      <trkpt lat="45.63453" lon="5.65611">
        <ele>215</ele>
        <time>2022-04-16T08:35:06.176Z</time>
      </trkpt>
      <trkpt lat="45.63453" lon="5.65611">
        <ele>215</ele>
        <time>2022-04-16T08:35:07.175Z</time>
      </trkpt>
      <trkpt lat="45.63453" lon="5.65611">
        <ele>215</ele>
        <time>2022-04-16T08:35:08.176Z</time>
      </trkpt>
      <trkpt lat="45.63453" lon="5.65611">
        <ele>215</ele>
        <time>2022-04-16T08:35:11.219Z</time>
      </trkpt>
      <trkpt lat="45.63453" lon="5.65612">
        <ele>215</ele>
        <time>2022-04-16T08:35:12.219Z</time>
      </trkpt>
      <trkpt lat="45.63453" lon="5.65612">
        <ele>214</ele>
        <time>2022-04-16T08:35:13.219Z</time>
      </trkpt>
      <trkpt lat="45.63452" lon="5.65612">
        <ele>214</ele>
        <time>2022-04-16T08:35:14.220Z</time>
      </trkpt>
      <trkpt lat="45.63453" lon="5.65612">
        <ele>214</ele>
        <time>2022-04-16T08:35:15.219Z</time>
      </trkpt>
      <trkpt lat="45.63456" lon="5.65609">
        <ele>216</ele>
        <time>2022-04-16T08:39:23.368Z</time>
      </trkpt>
      <trkpt lat="45.63457" lon="5.65606">
        <ele>216</ele>
        <time>2022-04-16T08:39:24.368Z</time>
      </trkpt>
      <trkpt lat="45.63458" lon="5.65602">
        <ele>216</ele>
        <time>2022-04-16T08:39:25.367Z</time>
      </trkpt>
      <trkpt lat="45.63459" lon="5.656">
        <ele>216</ele>
        <time>2022-04-16T08:39:26.368Z</time>
      </trkpt>
      <trkpt lat="45.63461" lon="5.65598">
        <ele>216</ele>
        <time>2022-04-16T08:39:27.368Z</time>
      </trkpt>
      <trkpt lat="45.63463" lon="5.65596">
        <ele>216</ele>
        <time>2022-04-16T08:39:28.367Z</time>
      </trkpt>
      <trkpt lat="45.63466" lon="5.65594">
        <ele>217</ele>
        <time>2022-04-16T08:39:29.368Z</time>
      </trkpt>
      <trkpt lat="45.63468" lon="5.65592">
        <ele>217</ele>
        <time>2022-04-16T08:39:30.368Z</time>
      </trkpt>
      <trkpt lat="45.63471" lon="5.6559">
        <ele>218</ele>
        <time>2022-04-16T08:39:31.367Z</time>
      </trkpt>
      <trkpt lat="45.63473" lon="5.65587">
        <ele>218</ele>
        <time>2022-04-16T08:39:32.368Z</time>
      </trkpt>
      <trkpt lat="45.63475" lon="5.65584">
        <ele>218</ele>
        <time>2022-04-16T08:39:33.368Z</time>
      </trkpt>
      <trkpt lat="45.63478" lon="5.6558">
        <ele>218</ele>
        <time>2022-04-16T08:39:34.367Z</time>
      </trkpt>
      <trkpt lat="45.63481" lon="5.65577">
        <ele>218</ele>
        <time>2022-04-16T08:39:35.367Z</time>
      </trkpt>
      <trkpt lat="45.63482" lon="5.65574">
        <ele>218</ele>
        <time>2022-04-16T08:39:36.368Z</time>
      </trkpt>
      <trkpt lat="45.63484" lon="5.65571">
        <ele>218</ele>
        <time>2022-04-16T08:39:37.368Z</time>
      </trkpt>
      <trkpt lat="45.63486" lon="5.65569">
        <ele>217</ele>
        <time>2022-04-16T08:39:38.368Z</time>
      </trkpt>
      <trkpt lat="45.63488" lon="5.65565">
        <ele>217</ele>
        <time>2022-04-16T08:39:39.368Z</time>
      </trkpt>
      <trkpt lat="45.6349" lon="5.65562">
        <ele>216</ele>
        <time>2022-04-16T08:39:40.368Z</time>
      </trkpt>
      <trkpt lat="45.63492" lon="5.65559">
        <ele>216</ele>
        <time>2022-04-16T08:39:41.368Z</time>
      </trkpt>
      <trkpt lat="45.63494" lon="5.65556">
        <ele>216</ele>
        <time>2022-04-16T08:39:42.368Z</time>
      </trkpt>
      <trkpt lat="45.63496" lon="5.65553">
        <ele>216</ele>
        <time>2022-04-16T08:39:43.367Z</time>
      </trkpt>
      <trkpt lat="45.63498" lon="5.65551">
        <ele>216</ele>
        <time>2022-04-16T08:39:44.368Z</time>
      </trkpt>
      <trkpt lat="45.635" lon="5.65548">
        <ele>217</ele>
        <time>2022-04-16T08:39:45.368Z</time>
      </trkpt>
      <trkpt lat="45.63502" lon="5.65544">
        <ele>217</ele>
        <time>2022-04-16T08:39:46.368Z</time>
      </trkpt>
      <trkpt lat="45.63504" lon="5.65541">
        <ele>218</ele>
        <time>2022-04-16T08:39:47.368Z</time>
      </trkpt>
      <trkpt lat="45.63507" lon="5.65537">
        <ele>219</ele>
        <time>2022-04-16T08:39:48.368Z</time>
      </trkpt>
      <trkpt lat="45.63508" lon="5.65534">
        <ele>219</ele>
        <time>2022-04-16T08:39:49.368Z</time>
      </trkpt>
      <trkpt lat="45.63511" lon="5.6553">
        <ele>219</ele>
        <time>2022-04-16T08:39:50.367Z</time>
      </trkpt>
      <trkpt lat="45.63513" lon="5.65527">
        <ele>219</ele>
        <time>2022-04-16T08:39:51.368Z</time>
      </trkpt>
      <trkpt lat="45.63515" lon="5.65523">
        <ele>220</ele>
        <time>2022-04-16T08:39:52.367Z</time>
      </trkpt>
      <trkpt lat="45.63518" lon="5.6552">
        <ele>220</ele>
        <time>2022-04-16T08:39:53.368Z</time>
      </trkpt>
      <trkpt lat="45.6352" lon="5.65516">
        <ele>221</ele>
        <time>2022-04-16T08:39:54.368Z</time>
      </trkpt>
      <trkpt lat="45.63522" lon="5.65513">
        <ele>221</ele>
        <time>2022-04-16T08:39:55.368Z</time>
      </trkpt>
      <trkpt lat="45.63525" lon="5.65509">
        <ele>222</ele>
        <time>2022-04-16T08:39:56.368Z</time>
      </trkpt>
      <trkpt lat="45.63527" lon="5.65505">
        <ele>222</ele>
        <time>2022-04-16T08:39:57.367Z</time>
      </trkpt>
      <trkpt lat="45.6353" lon="5.655">
        <ele>222</ele>
        <time>2022-04-16T08:39:58.368Z</time>
      </trkpt>
      <trkpt lat="45.63532" lon="5.65496">
        <ele>222</ele>
        <time>2022-04-16T08:39:59.368Z</time>
      </trkpt>
      <trkpt lat="45.63534" lon="5.65492">
        <ele>222</ele>
        <time>2022-04-16T08:40:00.368Z</time>
      </trkpt>
      <trkpt lat="45.63538" lon="5.65486">
        <ele>222</ele>
        <time>2022-04-16T08:40:01.368Z</time>
      </trkpt>
      <trkpt lat="45.63541" lon="5.65482">
        <ele>222</ele>
        <time>2022-04-16T08:40:02.368Z</time>
      </trkpt>
      <trkpt lat="45.63544" lon="5.65477">
        <ele>222</ele>
        <time>2022-04-16T08:40:03.368Z</time>
      </trkpt>
      <trkpt lat="45.63548" lon="5.65472">
        <ele>222</ele>
        <time>2022-04-16T08:40:04.368Z</time>
      </trkpt>
      <trkpt lat="45.6355" lon="5.65468">
        <ele>222</ele>
        <time>2022-04-16T08:40:05.368Z</time>
      </trkpt>
      <trkpt lat="45.63554" lon="5.65463">
        <ele>221</ele>
        <time>2022-04-16T08:40:06.368Z</time>
      </trkpt>
      <trkpt lat="45.63557" lon="5.65458">
        <ele>221</ele>
        <time>2022-04-16T08:40:07.368Z</time>
      </trkpt>
      <trkpt lat="45.6356" lon="5.65453">
        <ele>221</ele>
        <time>2022-04-16T08:40:08.368Z</time>
      </trkpt>
      <trkpt lat="45.63563" lon="5.65449">
        <ele>221</ele>
        <time>2022-04-16T08:40:09.367Z</time>
      </trkpt>
      <trkpt lat="45.63567" lon="5.65442">
        <ele>221</ele>
        <time>2022-04-16T08:40:10.368Z</time>
      </trkpt>
      <trkpt lat="45.6357" lon="5.65437">
        <ele>221</ele>
        <time>2022-04-16T08:40:11.367Z</time>
      </trkpt>
      <trkpt lat="45.63574" lon="5.65432">
        <ele>222</ele>
        <time>2022-04-16T08:40:12.368Z</time>
      </trkpt>
      <trkpt lat="45.63577" lon="5.65427">
        <ele>223</ele>
        <time>2022-04-16T08:40:13.368Z</time>
      </trkpt>
      <trkpt lat="45.63581" lon="5.65422">
        <ele>223</ele>
        <time>2022-04-16T08:40:14.368Z</time>
      </trkpt>
      <trkpt lat="45.63584" lon="5.65417">
        <ele>223</ele>
        <time>2022-04-16T08:40:15.368Z</time>
      </trkpt>
      <trkpt lat="45.63587" lon="5.65412">
        <ele>224</ele>
        <time>2022-04-16T08:40:16.368Z</time>
      </trkpt>
      <trkpt lat="45.63591" lon="5.65407">
        <ele>224</ele>
        <time>2022-04-16T08:40:17.368Z</time>
      </trkpt>
      <trkpt lat="45.63594" lon="5.65401">
        <ele>224</ele>
        <time>2022-04-16T08:40:18.367Z</time>
      </trkpt>
      <trkpt lat="45.63597" lon="5.65398">
        <ele>224</ele>
        <time>2022-04-16T08:40:19.368Z</time>
      </trkpt>
      <trkpt lat="45.63601" lon="5.65393">
        <ele>224</ele>
        <time>2022-04-16T08:40:20.368Z</time>
      </trkpt>
      <trkpt lat="45.63606" lon="5.65388">
        <ele>224</ele>
        <time>2022-04-16T08:40:21.368Z</time>
      </trkpt>
      <trkpt lat="45.63609" lon="5.65384">
        <ele>224</ele>
        <time>2022-04-16T08:40:22.368Z</time>
      </trkpt>
      <trkpt lat="45.63613" lon="5.65379">
        <ele>225</ele>
        <time>2022-04-16T08:40:23.368Z</time>
      </trkpt>
      <trkpt lat="45.63617" lon="5.65373">
        <ele>225</ele>
        <time>2022-04-16T08:40:24.368Z</time>
      </trkpt>
      <trkpt lat="45.6362" lon="5.65368">
        <ele>225</ele>
        <time>2022-04-16T08:40:25.368Z</time>
      </trkpt>
      <trkpt lat="45.63623" lon="5.65363">
        <ele>225</ele>
        <time>2022-04-16T08:40:26.368Z</time>
      </trkpt>
      <trkpt lat="45.63627" lon="5.65359">
        <ele>225</ele>
        <time>2022-04-16T08:40:27.367Z</time>
      </trkpt>
      <trkpt lat="45.63631" lon="5.65357">
        <ele>224</ele>
        <time>2022-04-16T08:40:28.367Z</time>
      </trkpt>
      <trkpt lat="45.63635" lon="5.65357">
        <ele>224</ele>
        <time>2022-04-16T08:40:29.368Z</time>
      </trkpt>
      <trkpt lat="45.63638" lon="5.65357">
        <ele>223</ele>
        <time>2022-04-16T08:40:30.367Z</time>
      </trkpt>
      <trkpt lat="45.63643" lon="5.65357">
        <ele>222</ele>
        <time>2022-04-16T08:40:31.368Z</time>
      </trkpt>
      <trkpt lat="45.63646" lon="5.65355">
        <ele>222</ele>
        <time>2022-04-16T08:40:32.367Z</time>
      </trkpt>
      <trkpt lat="45.63649" lon="5.65353">
        <ele>222</ele>
        <time>2022-04-16T08:40:33.367Z</time>
      </trkpt>
      <trkpt lat="45.63653" lon="5.65352">
        <ele>222</ele>
        <time>2022-04-16T08:40:34.368Z</time>
      </trkpt>
      <trkpt lat="45.63657" lon="5.65351">
        <ele>222</ele>
        <time>2022-04-16T08:40:35.368Z</time>
      </trkpt>
      <trkpt lat="45.63659" lon="5.6535">
        <ele>221</ele>
        <time>2022-04-16T08:40:36.368Z</time>
      </trkpt>
      <trkpt lat="45.63663" lon="5.6535">
        <ele>221</ele>
        <time>2022-04-16T08:40:37.368Z</time>
      </trkpt>
      <trkpt lat="45.63667" lon="5.6535">
        <ele>221</ele>
        <time>2022-04-16T08:40:38.368Z</time>
      </trkpt>
      <trkpt lat="45.63671" lon="5.6535">
        <ele>221</ele>
        <time>2022-04-16T08:40:39.368Z</time>
      </trkpt>
      <trkpt lat="45.63674" lon="5.65351">
        <ele>220</ele>
        <time>2022-04-16T08:40:40.368Z</time>
      </trkpt>
      <trkpt lat="45.63678" lon="5.65351">
        <ele>220</ele>
        <time>2022-04-16T08:40:41.367Z</time>
      </trkpt>
      <trkpt lat="45.63683" lon="5.65351">
        <ele>220</ele>
        <time>2022-04-16T08:40:42.368Z</time>
      </trkpt>
      <trkpt lat="45.63687" lon="5.65351">
        <ele>220</ele>
        <time>2022-04-16T08:40:43.368Z</time>
      </trkpt>
      <trkpt lat="45.63692" lon="5.6535">
        <ele>220</ele>
        <time>2022-04-16T08:40:44.368Z</time>
      </trkpt>
      <trkpt lat="45.63695" lon="5.65348">
        <ele>220</ele>
        <time>2022-04-16T08:40:45.368Z</time>
      </trkpt>
      <trkpt lat="45.637" lon="5.65345">
        <ele>220</ele>
        <time>2022-04-16T08:40:46.367Z</time>
      </trkpt>
      <trkpt lat="45.63706" lon="5.65342">
        <ele>221</ele>
        <time>2022-04-16T08:40:47.368Z</time>
      </trkpt>
      <trkpt lat="45.63709" lon="5.65339">
        <ele>221</ele>
        <time>2022-04-16T08:40:48.368Z</time>
      </trkpt>
      <trkpt lat="45.63715" lon="5.65335">
        <ele>221</ele>
        <time>2022-04-16T08:40:49.367Z</time>
      </trkpt>
      <trkpt lat="45.63718" lon="5.65331">
        <ele>221</ele>
        <time>2022-04-16T08:40:50.368Z</time>
      </trkpt>
      <trkpt lat="45.63722" lon="5.65326">
        <ele>221</ele>
        <time>2022-04-16T08:40:51.368Z</time>
      </trkpt>
      <trkpt lat="45.63726" lon="5.6532">
        <ele>222</ele>
        <time>2022-04-16T08:40:52.368Z</time>
      </trkpt>
      <trkpt lat="45.6373" lon="5.65313">
        <ele>222</ele>
        <time>2022-04-16T08:40:53.367Z</time>
      </trkpt>
      <trkpt lat="45.63732" lon="5.65307">
        <ele>222</ele>
        <time>2022-04-16T08:40:54.367Z</time>
      </trkpt>
      <trkpt lat="45.63735" lon="5.653">
        <ele>222</ele>
        <time>2022-04-16T08:40:55.368Z</time>
      </trkpt>
      <trkpt lat="45.63736" lon="5.65293">
        <ele>222</ele>
        <time>2022-04-16T08:40:56.367Z</time>
      </trkpt>
      <trkpt lat="45.63738" lon="5.65288">
        <ele>222</ele>
        <time>2022-04-16T08:40:57.367Z</time>
      </trkpt>
      <trkpt lat="45.63739" lon="5.6528">
        <ele>222</ele>
        <time>2022-04-16T08:40:58.368Z</time>
      </trkpt>
      <trkpt lat="45.6374" lon="5.65273">
        <ele>221</ele>
        <time>2022-04-16T08:40:59.368Z</time>
      </trkpt>
      <trkpt lat="45.6374" lon="5.65267">
        <ele>221</ele>
        <time>2022-04-16T08:41:00.368Z</time>
      </trkpt>
      <trkpt lat="45.6374" lon="5.65261">
        <ele>221</ele>
        <time>2022-04-16T08:41:01.368Z</time>
      </trkpt>
      <trkpt lat="45.6374" lon="5.65254">
        <ele>221</ele>
        <time>2022-04-16T08:41:02.367Z</time>
      </trkpt>
      <trkpt lat="45.63739" lon="5.65246">
        <ele>221</ele>
        <time>2022-04-16T08:41:03.368Z</time>
      </trkpt>
      <trkpt lat="45.63737" lon="5.65239">
        <ele>221</ele>
        <time>2022-04-16T08:41:04.368Z</time>
      </trkpt>
      <trkpt lat="45.63736" lon="5.65232">
        <ele>221</ele>
        <time>2022-04-16T08:41:05.368Z</time>
      </trkpt>
      <trkpt lat="45.63735" lon="5.65226">
        <ele>221</ele>
        <time>2022-04-16T08:41:06.368Z</time>
      </trkpt>
      <trkpt lat="45.63733" lon="5.65219">
        <ele>221</ele>
        <time>2022-04-16T08:41:07.368Z</time>
      </trkpt>
      <trkpt lat="45.63731" lon="5.6521">
        <ele>221</ele>
        <time>2022-04-16T08:41:08.367Z</time>
      </trkpt>
      <trkpt lat="45.63729" lon="5.65203">
        <ele>220</ele>
        <time>2022-04-16T08:41:09.368Z</time>
      </trkpt>
      <trkpt lat="45.63728" lon="5.65197">
        <ele>220</ele>
        <time>2022-04-16T08:41:10.367Z</time>
      </trkpt>
      <trkpt lat="45.63726" lon="5.6519">
        <ele>219</ele>
        <time>2022-04-16T08:41:11.368Z</time>
      </trkpt>
      <trkpt lat="45.63724" lon="5.65183">
        <ele>219</ele>
        <time>2022-04-16T08:41:12.368Z</time>
      </trkpt>
      <trkpt lat="45.63723" lon="5.65174">
        <ele>219</ele>
        <time>2022-04-16T08:41:13.368Z</time>
      </trkpt>
      <trkpt lat="45.63721" lon="5.65168">
        <ele>219</ele>
        <time>2022-04-16T08:41:14.367Z</time>
      </trkpt>
      <trkpt lat="45.63719" lon="5.6516">
        <ele>219</ele>
        <time>2022-04-16T08:41:15.367Z</time>
      </trkpt>
      <trkpt lat="45.63718" lon="5.65153">
        <ele>219</ele>
        <time>2022-04-16T08:41:16.368Z</time>
      </trkpt>
      <trkpt lat="45.63716" lon="5.65147">
        <ele>219</ele>
        <time>2022-04-16T08:41:17.368Z</time>
      </trkpt>
      <trkpt lat="45.63714" lon="5.65139">
        <ele>219</ele>
        <time>2022-04-16T08:41:18.367Z</time>
      </trkpt>
      <trkpt lat="45.63711" lon="5.65132">
        <ele>219</ele>
        <time>2022-04-16T08:41:19.368Z</time>
      </trkpt>
      <trkpt lat="45.63709" lon="5.65126">
        <ele>219</ele>
        <time>2022-04-16T08:41:20.368Z</time>
      </trkpt>
      <trkpt lat="45.63706" lon="5.65119">
        <ele>219</ele>
        <time>2022-04-16T08:41:21.368Z</time>
      </trkpt>
      <trkpt lat="45.63704" lon="5.65114">
        <ele>219</ele>
        <time>2022-04-16T08:41:22.368Z</time>
      </trkpt>
      <trkpt lat="45.63701" lon="5.65106">
        <ele>219</ele>
        <time>2022-04-16T08:41:23.368Z</time>
      </trkpt>
      <trkpt lat="45.63698" lon="5.651">
        <ele>219</ele>
        <time>2022-04-16T08:41:24.368Z</time>
      </trkpt>
      <trkpt lat="45.63695" lon="5.65093">
        <ele>219</ele>
        <time>2022-04-16T08:41:25.367Z</time>
      </trkpt>
      <trkpt lat="45.63693" lon="5.65088">
        <ele>219</ele>
        <time>2022-04-16T08:41:26.367Z</time>
      </trkpt>
      <trkpt lat="45.6369" lon="5.65082">
        <ele>219</ele>
        <time>2022-04-16T08:41:27.368Z</time>
      </trkpt>
      <trkpt lat="45.63686" lon="5.65075">
        <ele>219</ele>
        <time>2022-04-16T08:41:28.368Z</time>
      </trkpt>
      <trkpt lat="45.63682" lon="5.65069">
        <ele>219</ele>
        <time>2022-04-16T08:41:29.367Z</time>
      </trkpt>
      <trkpt lat="45.63679" lon="5.65064">
        <ele>218</ele>
        <time>2022-04-16T08:41:30.368Z</time>
      </trkpt>
      <trkpt lat="45.63675" lon="5.65058">
        <ele>218</ele>
        <time>2022-04-16T08:41:31.368Z</time>
      </trkpt>
      <trkpt lat="45.63671" lon="5.65054">
        <ele>219</ele>
        <time>2022-04-16T08:41:32.367Z</time>
      </trkpt>
      <trkpt lat="45.63667" lon="5.65048">
        <ele>218</ele>
        <time>2022-04-16T08:41:33.368Z</time>
      </trkpt>
      <trkpt lat="45.63663" lon="5.65042">
        <ele>218</ele>
        <time>2022-04-16T08:41:34.368Z</time>
      </trkpt>
      <trkpt lat="45.63659" lon="5.65037">
        <ele>218</ele>
        <time>2022-04-16T08:41:35.368Z</time>
      </trkpt>
      <trkpt lat="45.63655" lon="5.65032">
        <ele>217</ele>
        <time>2022-04-16T08:41:36.368Z</time>
      </trkpt>
      <trkpt lat="45.63651" lon="5.65026">
        <ele>217</ele>
        <time>2022-04-16T08:41:37.368Z</time>
      </trkpt>
      <trkpt lat="45.63647" lon="5.65021">
        <ele>216</ele>
        <time>2022-04-16T08:41:38.368Z</time>
      </trkpt>
      <trkpt lat="45.63644" lon="5.65016">
        <ele>216</ele>
        <time>2022-04-16T08:41:39.368Z</time>
      </trkpt>
      <trkpt lat="45.6364" lon="5.65011">
        <ele>216</ele>
        <time>2022-04-16T08:41:40.368Z</time>
      </trkpt>
      <trkpt lat="45.63636" lon="5.65005">
        <ele>216</ele>
        <time>2022-04-16T08:41:41.368Z</time>
      </trkpt>
      <trkpt lat="45.63632" lon="5.65">
        <ele>215</ele>
        <time>2022-04-16T08:41:42.368Z</time>
      </trkpt>
      <trkpt lat="45.63628" lon="5.64994">
        <ele>215</ele>
        <time>2022-04-16T08:41:43.368Z</time>
      </trkpt>
      <trkpt lat="45.63624" lon="5.64989">
        <ele>215</ele>
        <time>2022-04-16T08:41:44.367Z</time>
      </trkpt>
      <trkpt lat="45.6362" lon="5.64983">
        <ele>215</ele>
        <time>2022-04-16T08:41:45.368Z</time>
      </trkpt>
      <trkpt lat="45.63617" lon="5.64978">
        <ele>216</ele>
        <time>2022-04-16T08:41:46.368Z</time>
      </trkpt>
      <trkpt lat="45.63613" lon="5.64973">
        <ele>216</ele>
        <time>2022-04-16T08:41:47.368Z</time>
      </trkpt>
      <trkpt lat="45.63609" lon="5.64968">
        <ele>216</ele>
        <time>2022-04-16T08:41:48.368Z</time>
      </trkpt>
      <trkpt lat="45.63605" lon="5.64962">
        <ele>216</ele>
        <time>2022-04-16T08:41:49.367Z</time>
      </trkpt>
      <trkpt lat="45.63601" lon="5.64956">
        <ele>215</ele>
        <time>2022-04-16T08:41:50.368Z</time>
      </trkpt>
      <trkpt lat="45.63597" lon="5.64951">
        <ele>215</ele>
        <time>2022-04-16T08:41:51.368Z</time>
      </trkpt>
      <trkpt lat="45.63593" lon="5.64945">
        <ele>216</ele>
        <time>2022-04-16T08:41:52.368Z</time>
      </trkpt>
      <trkpt lat="45.6359" lon="5.6494">
        <ele>216</ele>
        <time>2022-04-16T08:41:53.367Z</time>
      </trkpt>
      <trkpt lat="45.63586" lon="5.64936">
        <ele>216</ele>
        <time>2022-04-16T08:41:54.367Z</time>
      </trkpt>
      <trkpt lat="45.63582" lon="5.64929">
        <ele>216</ele>
        <time>2022-04-16T08:41:55.367Z</time>
      </trkpt>
      <trkpt lat="45.63577" lon="5.64924">
        <ele>216</ele>
        <time>2022-04-16T08:41:56.367Z</time>
      </trkpt>
      <trkpt lat="45.63574" lon="5.64918">
        <ele>216</ele>
        <time>2022-04-16T08:41:57.367Z</time>
      </trkpt>
      <trkpt lat="45.6357" lon="5.64913">
        <ele>216</ele>
        <time>2022-04-16T08:41:58.368Z</time>
      </trkpt>
      <trkpt lat="45.63566" lon="5.64907">
        <ele>216</ele>
        <time>2022-04-16T08:41:59.368Z</time>
      </trkpt>
      <trkpt lat="45.63562" lon="5.64902">
        <ele>216</ele>
        <time>2022-04-16T08:42:00.368Z</time>
      </trkpt>
      <trkpt lat="45.63558" lon="5.64897">
        <ele>217</ele>
        <time>2022-04-16T08:42:01.367Z</time>
      </trkpt>
      <trkpt lat="45.63554" lon="5.64891">
        <ele>217</ele>
        <time>2022-04-16T08:42:02.368Z</time>
      </trkpt>
      <trkpt lat="45.63551" lon="5.64886">
        <ele>217</ele>
        <time>2022-04-16T08:42:03.367Z</time>
      </trkpt>
      <trkpt lat="45.63547" lon="5.6488">
        <ele>217</ele>
        <time>2022-04-16T08:42:04.368Z</time>
      </trkpt>
      <trkpt lat="45.63543" lon="5.64875">
        <ele>217</ele>
        <time>2022-04-16T08:42:05.367Z</time>
      </trkpt>
      <trkpt lat="45.6354" lon="5.6487">
        <ele>217</ele>
        <time>2022-04-16T08:42:06.368Z</time>
      </trkpt>
      <trkpt lat="45.63535" lon="5.64864">
        <ele>217</ele>
        <time>2022-04-16T08:42:07.368Z</time>
      </trkpt>
      <trkpt lat="45.63531" lon="5.64859">
        <ele>217</ele>
        <time>2022-04-16T08:42:08.367Z</time>
      </trkpt>
      <trkpt lat="45.63528" lon="5.64853">
        <ele>217</ele>
        <time>2022-04-16T08:42:09.368Z</time>
      </trkpt>
      <trkpt lat="45.63524" lon="5.64848">
        <ele>218</ele>
        <time>2022-04-16T08:42:10.368Z</time>
      </trkpt>
      <trkpt lat="45.6352" lon="5.64842">
        <ele>218</ele>
        <time>2022-04-16T08:42:11.367Z</time>
      </trkpt>
      <trkpt lat="45.63515" lon="5.64837">
        <ele>218</ele>
        <time>2022-04-16T08:42:12.368Z</time>
      </trkpt>
      <trkpt lat="45.63511" lon="5.64831">
        <ele>218</ele>
        <time>2022-04-16T08:42:13.368Z</time>
      </trkpt>
      <trkpt lat="45.63507" lon="5.64825">
        <ele>218</ele>
        <time>2022-04-16T08:42:14.368Z</time>
      </trkpt>
      <trkpt lat="45.63503" lon="5.6482">
        <ele>218</ele>
        <time>2022-04-16T08:42:15.367Z</time>
      </trkpt>
      <trkpt lat="45.63499" lon="5.64814">
        <ele>218</ele>
        <time>2022-04-16T08:42:16.368Z</time>
      </trkpt>
      <trkpt lat="45.63495" lon="5.64809">
        <ele>218</ele>
        <time>2022-04-16T08:42:17.368Z</time>
      </trkpt>
      <trkpt lat="45.63491" lon="5.64803">
        <ele>218</ele>
        <time>2022-04-16T08:42:18.368Z</time>
      </trkpt>
      <trkpt lat="45.63488" lon="5.64799">
        <ele>218</ele>
        <time>2022-04-16T08:42:19.368Z</time>
      </trkpt>
      <trkpt lat="45.63483" lon="5.64792">
        <ele>218</ele>
        <time>2022-04-16T08:42:20.368Z</time>
      </trkpt>
      <trkpt lat="45.63479" lon="5.64787">
        <ele>218</ele>
        <time>2022-04-16T08:42:21.368Z</time>
      </trkpt>
      <trkpt lat="45.63475" lon="5.64782">
        <ele>218</ele>
        <time>2022-04-16T08:42:22.368Z</time>
      </trkpt>
      <trkpt lat="45.63471" lon="5.64776">
        <ele>218</ele>
        <time>2022-04-16T08:42:23.368Z</time>
      </trkpt>
      <trkpt lat="45.63467" lon="5.64771">
        <ele>218</ele>
        <time>2022-04-16T08:42:24.368Z</time>
      </trkpt>
      <trkpt lat="45.63463" lon="5.64765">
        <ele>217</ele>
        <time>2022-04-16T08:42:25.368Z</time>
      </trkpt>
      <trkpt lat="45.6346" lon="5.6476">
        <ele>217</ele>
        <time>2022-04-16T08:42:26.368Z</time>
      </trkpt>
      <trkpt lat="45.63456" lon="5.64755">
        <ele>217</ele>
        <time>2022-04-16T08:42:27.368Z</time>
      </trkpt>
      <trkpt lat="45.63452" lon="5.6475">
        <ele>217</ele>
        <time>2022-04-16T08:42:28.368Z</time>
      </trkpt>
      <trkpt lat="45.63448" lon="5.64746">
        <ele>217</ele>
        <time>2022-04-16T08:42:29.368Z</time>
      </trkpt>
      <trkpt lat="45.63444" lon="5.64739">
        <ele>217</ele>
        <time>2022-04-16T08:42:30.367Z</time>
      </trkpt>
      <trkpt lat="45.6344" lon="5.64734">
        <ele>217</ele>
        <time>2022-04-16T08:42:31.368Z</time>
      </trkpt>
      <trkpt lat="45.63437" lon="5.64729">
        <ele>217</ele>
        <time>2022-04-16T08:42:32.368Z</time>
      </trkpt>
      <trkpt lat="45.63433" lon="5.64724">
        <ele>217</ele>
        <time>2022-04-16T08:42:33.367Z</time>
      </trkpt>
      <trkpt lat="45.63429" lon="5.64719">
        <ele>217</ele>
        <time>2022-04-16T08:42:34.368Z</time>
      </trkpt>
      <trkpt lat="45.63426" lon="5.64714">
        <ele>217</ele>
        <time>2022-04-16T08:42:35.368Z</time>
      </trkpt>
      <trkpt lat="45.63422" lon="5.64706">
        <ele>217</ele>
        <time>2022-04-16T08:42:36.367Z</time>
      </trkpt>
      <trkpt lat="45.63419" lon="5.647">
        <ele>217</ele>
        <time>2022-04-16T08:42:37.368Z</time>
      </trkpt>
      <trkpt lat="45.63416" lon="5.64695">
        <ele>216</ele>
        <time>2022-04-16T08:42:38.368Z</time>
      </trkpt>
      <trkpt lat="45.63415" lon="5.6469">
        <ele>216</ele>
        <time>2022-04-16T08:42:39.368Z</time>
      </trkpt>
      <trkpt lat="45.63412" lon="5.64684">
        <ele>216</ele>
        <time>2022-04-16T08:42:40.368Z</time>
      </trkpt>
      <trkpt lat="45.6341" lon="5.64677">
        <ele>216</ele>
        <time>2022-04-16T08:42:41.368Z</time>
      </trkpt>
      <trkpt lat="45.63408" lon="5.64671">
        <ele>216</ele>
        <time>2022-04-16T08:42:42.368Z</time>
      </trkpt>
      <trkpt lat="45.63406" lon="5.64666">
        <ele>215</ele>
        <time>2022-04-16T08:42:43.367Z</time>
      </trkpt>
      <trkpt lat="45.63404" lon="5.6466">
        <ele>214</ele>
        <time>2022-04-16T08:42:44.367Z</time>
      </trkpt>
      <trkpt lat="45.63403" lon="5.64656">
        <ele>213</ele>
        <time>2022-04-16T08:42:45.368Z</time>
      </trkpt>
      <trkpt lat="45.63402" lon="5.64649">
        <ele>213</ele>
        <time>2022-04-16T08:42:46.368Z</time>
      </trkpt>
      <trkpt lat="45.63401" lon="5.64644">
        <ele>214</ele>
        <time>2022-04-16T08:42:47.368Z</time>
      </trkpt>
      <trkpt lat="45.634" lon="5.64639">
        <ele>214</ele>
        <time>2022-04-16T08:42:48.367Z</time>
      </trkpt>
      <trkpt lat="45.63399" lon="5.64634">
        <ele>214</ele>
        <time>2022-04-16T08:42:49.368Z</time>
      </trkpt>
      <trkpt lat="45.63399" lon="5.6463">
        <ele>215</ele>
        <time>2022-04-16T08:42:50.368Z</time>
      </trkpt>
      <trkpt lat="45.63398" lon="5.64626">
        <ele>215</ele>
        <time>2022-04-16T08:42:51.368Z</time>
      </trkpt>
      <trkpt lat="45.63398" lon="5.64621">
        <ele>214</ele>
        <time>2022-04-16T08:42:52.368Z</time>
      </trkpt>
      <trkpt lat="45.63397" lon="5.64616">
        <ele>214</ele>
        <time>2022-04-16T08:42:53.368Z</time>
      </trkpt>
      <trkpt lat="45.63398" lon="5.64612">
        <ele>214</ele>
        <time>2022-04-16T08:42:54.367Z</time>
      </trkpt>
      <trkpt lat="45.63398" lon="5.64608">
        <ele>215</ele>
        <time>2022-04-16T08:42:55.368Z</time>
      </trkpt>
      <trkpt lat="45.63397" lon="5.64603">
        <ele>215</ele>
        <time>2022-04-16T08:42:56.368Z</time>
      </trkpt>
      <trkpt lat="45.63396" lon="5.64597">
        <ele>215</ele>
        <time>2022-04-16T08:42:57.367Z</time>
      </trkpt>
      <trkpt lat="45.63395" lon="5.64592">
        <ele>215</ele>
        <time>2022-04-16T08:42:58.368Z</time>
      </trkpt>
      <trkpt lat="45.63395" lon="5.64587">
        <ele>215</ele>
        <time>2022-04-16T08:42:59.367Z</time>
      </trkpt>
      <trkpt lat="45.63394" lon="5.64581">
        <ele>215</ele>
        <time>2022-04-16T08:43:00.367Z</time>
      </trkpt>
      <trkpt lat="45.63394" lon="5.64577">
        <ele>216</ele>
        <time>2022-04-16T08:43:01.367Z</time>
      </trkpt>
      <trkpt lat="45.63394" lon="5.6457">
        <ele>216</ele>
        <time>2022-04-16T08:43:02.368Z</time>
      </trkpt>
      <trkpt lat="45.63394" lon="5.64564">
        <ele>216</ele>
        <time>2022-04-16T08:43:03.367Z</time>
      </trkpt>
      <trkpt lat="45.63394" lon="5.64558">
        <ele>216</ele>
        <time>2022-04-16T08:43:04.367Z</time>
      </trkpt>
      <trkpt lat="45.63395" lon="5.64552">
        <ele>216</ele>
        <time>2022-04-16T08:43:05.368Z</time>
      </trkpt>
      <trkpt lat="45.63396" lon="5.64548">
        <ele>216</ele>
        <time>2022-04-16T08:43:06.368Z</time>
      </trkpt>
      <trkpt lat="45.63397" lon="5.6454">
        <ele>216</ele>
        <time>2022-04-16T08:43:07.368Z</time>
      </trkpt>
      <trkpt lat="45.63398" lon="5.64534">
        <ele>216</ele>
        <time>2022-04-16T08:43:08.368Z</time>
      </trkpt>
      <trkpt lat="45.63399" lon="5.64528">
        <ele>216</ele>
        <time>2022-04-16T08:43:09.368Z</time>
      </trkpt>
      <trkpt lat="45.634" lon="5.64524">
        <ele>216</ele>
        <time>2022-04-16T08:43:10.368Z</time>
      </trkpt>
      <trkpt lat="45.63402" lon="5.64516">
        <ele>216</ele>
        <time>2022-04-16T08:43:11.368Z</time>
      </trkpt>
      <trkpt lat="45.63403" lon="5.64511">
        <ele>215</ele>
        <time>2022-04-16T08:43:12.368Z</time>
      </trkpt>
      <trkpt lat="45.63404" lon="5.64505">
        <ele>215</ele>
        <time>2022-04-16T08:43:13.368Z</time>
      </trkpt>
      <trkpt lat="45.63406" lon="5.64499">
        <ele>216</ele>
        <time>2022-04-16T08:43:14.368Z</time>
      </trkpt>
      <trkpt lat="45.63408" lon="5.64494">
        <ele>216</ele>
        <time>2022-04-16T08:43:15.368Z</time>
      </trkpt>
      <trkpt lat="45.63409" lon="5.64488">
        <ele>216</ele>
        <time>2022-04-16T08:43:16.368Z</time>
      </trkpt>
      <trkpt lat="45.63411" lon="5.64481">
        <ele>216</ele>
        <time>2022-04-16T08:43:17.367Z</time>
      </trkpt>
      <trkpt lat="45.63413" lon="5.64475">
        <ele>216</ele>
        <time>2022-04-16T08:43:18.368Z</time>
      </trkpt>
      <trkpt lat="45.63415" lon="5.6447">
        <ele>217</ele>
        <time>2022-04-16T08:43:19.368Z</time>
      </trkpt>
      <trkpt lat="45.63417" lon="5.64465">
        <ele>217</ele>
        <time>2022-04-16T08:43:20.368Z</time>
      </trkpt>
      <trkpt lat="45.63419" lon="5.64459">
        <ele>217</ele>
        <time>2022-04-16T08:43:21.368Z</time>
      </trkpt>
      <trkpt lat="45.63421" lon="5.64452">
        <ele>216</ele>
        <time>2022-04-16T08:43:22.368Z</time>
      </trkpt>
      <trkpt lat="45.63423" lon="5.64446">
        <ele>216</ele>
        <time>2022-04-16T08:43:23.367Z</time>
      </trkpt>
      <trkpt lat="45.63425" lon="5.6444">
        <ele>216</ele>
        <time>2022-04-16T08:43:24.368Z</time>
      </trkpt>
      <trkpt lat="45.63427" lon="5.64434">
        <ele>216</ele>
        <time>2022-04-16T08:43:25.368Z</time>
      </trkpt>
      <trkpt lat="45.63428" lon="5.64429">
        <ele>216</ele>
        <time>2022-04-16T08:43:26.367Z</time>
      </trkpt>
      <trkpt lat="45.63431" lon="5.64422">
        <ele>216</ele>
        <time>2022-04-16T08:43:27.368Z</time>
      </trkpt>
      <trkpt lat="45.63433" lon="5.64416">
        <ele>216</ele>
        <time>2022-04-16T08:43:28.367Z</time>
      </trkpt>
      <trkpt lat="45.63435" lon="5.64409">
        <ele>217</ele>
        <time>2022-04-16T08:43:29.368Z</time>
      </trkpt>
      <trkpt lat="45.63436" lon="5.64404">
        <ele>217</ele>
        <time>2022-04-16T08:43:30.368Z</time>
      </trkpt>
      <trkpt lat="45.63438" lon="5.64398">
        <ele>217</ele>
        <time>2022-04-16T08:43:31.368Z</time>
      </trkpt>
      <trkpt lat="45.63441" lon="5.64392">
        <ele>217</ele>
        <time>2022-04-16T08:43:32.368Z</time>
      </trkpt>
      <trkpt lat="45.63443" lon="5.64384">
        <ele>217</ele>
        <time>2022-04-16T08:43:33.368Z</time>
      </trkpt>
      <trkpt lat="45.63445" lon="5.64377">
        <ele>217</ele>
        <time>2022-04-16T08:43:34.367Z</time>
      </trkpt>
      <trkpt lat="45.63446" lon="5.64371">
        <ele>217</ele>
        <time>2022-04-16T08:43:35.367Z</time>
      </trkpt>
      <trkpt lat="45.63447" lon="5.64366">
        <ele>217</ele>
        <time>2022-04-16T08:43:36.368Z</time>
      </trkpt>
      <trkpt lat="45.63448" lon="5.64359">
        <ele>217</ele>
        <time>2022-04-16T08:43:37.368Z</time>
      </trkpt>
      <trkpt lat="45.63449" lon="5.64353">
        <ele>217</ele>
        <time>2022-04-16T08:43:38.368Z</time>
      </trkpt>
      <trkpt lat="45.63451" lon="5.64345">
        <ele>217</ele>
        <time>2022-04-16T08:43:39.368Z</time>
      </trkpt>
      <trkpt lat="45.63451" lon="5.64339">
        <ele>217</ele>
        <time>2022-04-16T08:43:40.368Z</time>
      </trkpt>
      <trkpt lat="45.63452" lon="5.64334">
        <ele>217</ele>
        <time>2022-04-16T08:43:41.368Z</time>
      </trkpt>
      <trkpt lat="45.63452" lon="5.64327">
        <ele>217</ele>
        <time>2022-04-16T08:43:42.367Z</time>
      </trkpt>
      <trkpt lat="45.63453" lon="5.6432">
        <ele>217</ele>
        <time>2022-04-16T08:43:43.368Z</time>
      </trkpt>
      <trkpt lat="45.63453" lon="5.64313">
        <ele>217</ele>
        <time>2022-04-16T08:43:44.368Z</time>
      </trkpt>
      <trkpt lat="45.63454" lon="5.64307">
        <ele>217</ele>
        <time>2022-04-16T08:43:45.368Z</time>
      </trkpt>
      <trkpt lat="45.63454" lon="5.64302">
        <ele>218</ele>
        <time>2022-04-16T08:43:46.368Z</time>
      </trkpt>
      <trkpt lat="45.63455" lon="5.64295">
        <ele>218</ele>
        <time>2022-04-16T08:43:47.367Z</time>
      </trkpt>
      <trkpt lat="45.63456" lon="5.64289">
        <ele>219</ele>
        <time>2022-04-16T08:43:48.368Z</time>
      </trkpt>
      <trkpt lat="45.63457" lon="5.64281">
        <ele>219</ele>
        <time>2022-04-16T08:43:49.368Z</time>
      </trkpt>
      <trkpt lat="45.63458" lon="5.64275">
        <ele>219</ele>
        <time>2022-04-16T08:43:50.368Z</time>
      </trkpt>
      <trkpt lat="45.63459" lon="5.64268">
        <ele>219</ele>
        <time>2022-04-16T08:43:51.367Z</time>
      </trkpt>
      <trkpt lat="45.6346" lon="5.64263">
        <ele>219</ele>
        <time>2022-04-16T08:43:52.368Z</time>
      </trkpt>
      <trkpt lat="45.63461" lon="5.64257">
        <ele>219</ele>
        <time>2022-04-16T08:43:53.368Z</time>
      </trkpt>
      <trkpt lat="45.63463" lon="5.64249">
        <ele>218</ele>
        <time>2022-04-16T08:43:54.368Z</time>
      </trkpt>
      <trkpt lat="45.63464" lon="5.64243">
        <ele>218</ele>
        <time>2022-04-16T08:43:55.368Z</time>
      </trkpt>
      <trkpt lat="45.63465" lon="5.64237">
        <ele>217</ele>
        <time>2022-04-16T08:43:56.368Z</time>
      </trkpt>
      <trkpt lat="45.63466" lon="5.64232">
        <ele>217</ele>
        <time>2022-04-16T08:43:57.368Z</time>
      </trkpt>
      <trkpt lat="45.63468" lon="5.64225">
        <ele>217</ele>
        <time>2022-04-16T08:43:58.368Z</time>
      </trkpt>
      <trkpt lat="45.6347" lon="5.64218">
        <ele>216</ele>
        <time>2022-04-16T08:43:59.368Z</time>
      </trkpt>
      <trkpt lat="45.63471" lon="5.64213">
        <ele>216</ele>
        <time>2022-04-16T08:44:00.368Z</time>
      </trkpt>
      <trkpt lat="45.63473" lon="5.64206">
        <ele>217</ele>
        <time>2022-04-16T08:44:01.368Z</time>
      </trkpt>
      <trkpt lat="45.63476" lon="5.642">
        <ele>217</ele>
        <time>2022-04-16T08:44:02.368Z</time>
      </trkpt>
      <trkpt lat="45.63478" lon="5.64195">
        <ele>218</ele>
        <time>2022-04-16T08:44:03.367Z</time>
      </trkpt>
      <trkpt lat="45.63482" lon="5.6419">
        <ele>218</ele>
        <time>2022-04-16T08:44:04.368Z</time>
      </trkpt>
      <trkpt lat="45.63486" lon="5.64183">
        <ele>218</ele>
        <time>2022-04-16T08:44:05.368Z</time>
      </trkpt>
      <trkpt lat="45.63489" lon="5.64178">
        <ele>219</ele>
        <time>2022-04-16T08:44:06.368Z</time>
      </trkpt>
      <trkpt lat="45.63493" lon="5.64174">
        <ele>219</ele>
        <time>2022-04-16T08:44:07.368Z</time>
      </trkpt>
      <trkpt lat="45.63496" lon="5.6417">
        <ele>219</ele>
        <time>2022-04-16T08:44:08.368Z</time>
      </trkpt>
      <trkpt lat="45.63502" lon="5.64165">
        <ele>219</ele>
        <time>2022-04-16T08:44:09.367Z</time>
      </trkpt>
      <trkpt lat="45.63506" lon="5.6416">
        <ele>219</ele>
        <time>2022-04-16T08:44:10.368Z</time>
      </trkpt>
      <trkpt lat="45.6351" lon="5.64156">
        <ele>219</ele>
        <time>2022-04-16T08:44:11.368Z</time>
      </trkpt>
      <trkpt lat="45.63514" lon="5.64152">
        <ele>220</ele>
        <time>2022-04-16T08:44:12.368Z</time>
      </trkpt>
      <trkpt lat="45.63518" lon="5.64147">
        <ele>220</ele>
        <time>2022-04-16T08:44:13.368Z</time>
      </trkpt>
      <trkpt lat="45.63522" lon="5.64144">
        <ele>220</ele>
        <time>2022-04-16T08:44:14.368Z</time>
      </trkpt>
      <trkpt lat="45.63527" lon="5.64139">
        <ele>220</ele>
        <time>2022-04-16T08:44:15.367Z</time>
      </trkpt>
      <trkpt lat="45.63531" lon="5.64135">
        <ele>221</ele>
        <time>2022-04-16T08:44:16.368Z</time>
      </trkpt>
      <trkpt lat="45.63535" lon="5.64132">
        <ele>221</ele>
        <time>2022-04-16T08:44:17.368Z</time>
      </trkpt>
      <trkpt lat="45.63539" lon="5.64128">
        <ele>221</ele>
        <time>2022-04-16T08:44:18.368Z</time>
      </trkpt>
      <trkpt lat="45.63543" lon="5.64125">
        <ele>221</ele>
        <time>2022-04-16T08:44:19.368Z</time>
      </trkpt>
      <trkpt lat="45.63548" lon="5.64122">
        <ele>221</ele>
        <time>2022-04-16T08:44:20.368Z</time>
      </trkpt>
      <trkpt lat="45.63552" lon="5.64119">
        <ele>221</ele>
        <time>2022-04-16T08:44:21.368Z</time>
      </trkpt>
      <trkpt lat="45.63555" lon="5.64117">
        <ele>221</ele>
        <time>2022-04-16T08:44:22.368Z</time>
      </trkpt>
      <trkpt lat="45.63559" lon="5.64114">
        <ele>220</ele>
        <time>2022-04-16T08:44:23.368Z</time>
      </trkpt>
      <trkpt lat="45.63563" lon="5.64111">
        <ele>220</ele>
        <time>2022-04-16T08:44:24.367Z</time>
      </trkpt>
      <trkpt lat="45.63568" lon="5.64109">
        <ele>220</ele>
        <time>2022-04-16T08:44:25.367Z</time>
      </trkpt>
      <trkpt lat="45.63572" lon="5.64107">
        <ele>220</ele>
        <time>2022-04-16T08:44:26.368Z</time>
      </trkpt>
      <trkpt lat="45.63576" lon="5.64106">
        <ele>220</ele>
        <time>2022-04-16T08:44:27.368Z</time>
      </trkpt>
      <trkpt lat="45.63581" lon="5.64104">
        <ele>219</ele>
        <time>2022-04-16T08:44:28.368Z</time>
      </trkpt>
      <trkpt lat="45.63585" lon="5.64103">
        <ele>219</ele>
        <time>2022-04-16T08:44:29.368Z</time>
      </trkpt>
      <trkpt lat="45.6359" lon="5.64102">
        <ele>219</ele>
        <time>2022-04-16T08:44:30.368Z</time>
      </trkpt>
      <trkpt lat="45.63594" lon="5.64101">
        <ele>219</ele>
        <time>2022-04-16T08:44:31.368Z</time>
      </trkpt>
      <trkpt lat="45.63599" lon="5.641">
        <ele>219</ele>
        <time>2022-04-16T08:44:32.367Z</time>
      </trkpt>
      <trkpt lat="45.63604" lon="5.64099">
        <ele>219</ele>
        <time>2022-04-16T08:44:33.367Z</time>
      </trkpt>
      <trkpt lat="45.63608" lon="5.64099">
        <ele>220</ele>
        <time>2022-04-16T08:44:34.368Z</time>
      </trkpt>
      <trkpt lat="45.63613" lon="5.64099">
        <ele>220</ele>
        <time>2022-04-16T08:44:35.368Z</time>
      </trkpt>
      <trkpt lat="45.63618" lon="5.641">
        <ele>220</ele>
        <time>2022-04-16T08:44:36.368Z</time>
      </trkpt>
      <trkpt lat="45.63623" lon="5.641">
        <ele>220</ele>
        <time>2022-04-16T08:44:37.368Z</time>
      </trkpt>
      <trkpt lat="45.63628" lon="5.64101">
        <ele>219</ele>
        <time>2022-04-16T08:44:38.368Z</time>
      </trkpt>
      <trkpt lat="45.63633" lon="5.64102">
        <ele>220</ele>
        <time>2022-04-16T08:44:39.368Z</time>
      </trkpt>
      <trkpt lat="45.63637" lon="5.64103">
        <ele>220</ele>
        <time>2022-04-16T08:44:40.368Z</time>
      </trkpt>
      <trkpt lat="45.63642" lon="5.64104">
        <ele>220</ele>
        <time>2022-04-16T08:44:41.368Z</time>
      </trkpt>
      <trkpt lat="45.63647" lon="5.64104">
        <ele>221</ele>
        <time>2022-04-16T08:44:42.368Z</time>
      </trkpt>
      <trkpt lat="45.63652" lon="5.64106">
        <ele>221</ele>
        <time>2022-04-16T08:44:43.367Z</time>
      </trkpt>
      <trkpt lat="45.63657" lon="5.64107">
        <ele>221</ele>
        <time>2022-04-16T08:44:44.367Z</time>
      </trkpt>
      <trkpt lat="45.63662" lon="5.64108">
        <ele>221</ele>
        <time>2022-04-16T08:44:45.368Z</time>
      </trkpt>
      <trkpt lat="45.63667" lon="5.64109">
        <ele>221</ele>
        <time>2022-04-16T08:44:46.368Z</time>
      </trkpt>
      <trkpt lat="45.63672" lon="5.64111">
        <ele>222</ele>
        <time>2022-04-16T08:44:47.368Z</time>
      </trkpt>
      <trkpt lat="45.63676" lon="5.64113">
        <ele>222</ele>
        <time>2022-04-16T08:44:48.368Z</time>
      </trkpt>
      <trkpt lat="45.63681" lon="5.64115">
        <ele>222</ele>
        <time>2022-04-16T08:44:49.368Z</time>
      </trkpt>
      <trkpt lat="45.63686" lon="5.64118">
        <ele>222</ele>
        <time>2022-04-16T08:44:50.367Z</time>
      </trkpt>
      <trkpt lat="45.63691" lon="5.64121">
        <ele>222</ele>
        <time>2022-04-16T08:44:51.368Z</time>
      </trkpt>
      <trkpt lat="45.63696" lon="5.64124">
        <ele>223</ele>
        <time>2022-04-16T08:44:52.368Z</time>
      </trkpt>
      <trkpt lat="45.637" lon="5.64128">
        <ele>223</ele>
        <time>2022-04-16T08:44:53.368Z</time>
      </trkpt>
      <trkpt lat="45.63705" lon="5.64131">
        <ele>223</ele>
        <time>2022-04-16T08:44:54.368Z</time>
      </trkpt>
      <trkpt lat="45.63708" lon="5.64133">
        <ele>223</ele>
        <time>2022-04-16T08:44:55.368Z</time>
      </trkpt>
      <trkpt lat="45.63713" lon="5.64137">
        <ele>223</ele>
        <time>2022-04-16T08:44:56.368Z</time>
      </trkpt>
      <trkpt lat="45.63718" lon="5.6414">
        <ele>223</ele>
        <time>2022-04-16T08:44:57.368Z</time>
      </trkpt>
      <trkpt lat="45.63722" lon="5.64143">
        <ele>223</ele>
        <time>2022-04-16T08:44:58.368Z</time>
      </trkpt>
      <trkpt lat="45.63725" lon="5.64145">
        <ele>223</ele>
        <time>2022-04-16T08:44:59.368Z</time>
      </trkpt>
      <trkpt lat="45.63729" lon="5.64148">
        <ele>223</ele>
        <time>2022-04-16T08:45:00.368Z</time>
      </trkpt>
      <trkpt lat="45.63732" lon="5.6415">
        <ele>223</ele>
        <time>2022-04-16T08:45:01.367Z</time>
      </trkpt>
      <trkpt lat="45.63735" lon="5.64152">
        <ele>223</ele>
        <time>2022-04-16T08:45:02.367Z</time>
      </trkpt>
      <trkpt lat="45.63739" lon="5.64154">
        <ele>223</ele>
        <time>2022-04-16T08:45:03.367Z</time>
      </trkpt>
      <trkpt lat="45.63742" lon="5.64156">
        <ele>223</ele>
        <time>2022-04-16T08:45:04.368Z</time>
      </trkpt>
      <trkpt lat="45.63744" lon="5.64158">
        <ele>222</ele>
        <time>2022-04-16T08:45:05.368Z</time>
      </trkpt>
      <trkpt lat="45.63747" lon="5.64159">
        <ele>222</ele>
        <time>2022-04-16T08:45:06.368Z</time>
      </trkpt>
      <trkpt lat="45.63751" lon="5.64161">
        <ele>222</ele>
        <time>2022-04-16T08:45:07.368Z</time>
      </trkpt>
      <trkpt lat="45.63754" lon="5.64162">
        <ele>222</ele>
        <time>2022-04-16T08:45:08.368Z</time>
      </trkpt>
      <trkpt lat="45.63757" lon="5.64163">
        <ele>223</ele>
        <time>2022-04-16T08:45:09.367Z</time>
      </trkpt>
      <trkpt lat="45.63759" lon="5.64165">
        <ele>223</ele>
        <time>2022-04-16T08:45:10.368Z</time>
      </trkpt>
      <trkpt lat="45.63761" lon="5.64166">
        <ele>223</ele>
        <time>2022-04-16T08:45:11.368Z</time>
      </trkpt>
      <trkpt lat="45.63764" lon="5.64169">
        <ele>223</ele>
        <time>2022-04-16T08:45:12.368Z</time>
      </trkpt>
      <trkpt lat="45.63767" lon="5.64171">
        <ele>223</ele>
        <time>2022-04-16T08:45:13.368Z</time>
      </trkpt>
      <trkpt lat="45.6377" lon="5.64171">
        <ele>223</ele>
        <time>2022-04-16T08:45:14.368Z</time>
      </trkpt>
      <trkpt lat="45.63772" lon="5.6417">
        <ele>223</ele>
        <time>2022-04-16T08:45:15.368Z</time>
      </trkpt>
      <trkpt lat="45.63774" lon="5.64168">
        <ele>223</ele>
        <time>2022-04-16T08:45:16.368Z</time>
      </trkpt>
      <trkpt lat="45.63775" lon="5.64164">
        <ele>223</ele>
        <time>2022-04-16T08:45:17.367Z</time>
      </trkpt>
      <trkpt lat="45.63776" lon="5.64161">
        <ele>223</ele>
        <time>2022-04-16T08:45:18.368Z</time>
      </trkpt>
      <trkpt lat="45.63777" lon="5.64158">
        <ele>224</ele>
        <time>2022-04-16T08:45:19.367Z</time>
      </trkpt>
      <trkpt lat="45.63778" lon="5.64155">
        <ele>224</ele>
        <time>2022-04-16T08:45:20.368Z</time>
      </trkpt>
      <trkpt lat="45.63779" lon="5.64152">
        <ele>224</ele>
        <time>2022-04-16T08:45:21.368Z</time>
      </trkpt>
      <trkpt lat="45.63781" lon="5.6415">
        <ele>224</ele>
        <time>2022-04-16T08:45:22.368Z</time>
      </trkpt>
      <trkpt lat="45.63784" lon="5.6415">
        <ele>224</ele>
        <time>2022-04-16T08:45:23.367Z</time>
      </trkpt>
      <trkpt lat="45.63787" lon="5.64151">
        <ele>224</ele>
        <time>2022-04-16T08:45:24.368Z</time>
      </trkpt>
      <trkpt lat="45.63789" lon="5.64152">
        <ele>224</ele>
        <time>2022-04-16T08:45:25.368Z</time>
      </trkpt>
      <trkpt lat="45.63792" lon="5.64153">
        <ele>224</ele>
        <time>2022-04-16T08:45:26.368Z</time>
      </trkpt>
      <trkpt lat="45.63796" lon="5.64156">
        <ele>224</ele>
        <time>2022-04-16T08:45:27.368Z</time>
      </trkpt>
      <trkpt lat="45.63799" lon="5.64158">
        <ele>223</ele>
        <time>2022-04-16T08:45:28.367Z</time>
      </trkpt>
      <trkpt lat="45.63803" lon="5.64161">
        <ele>223</ele>
        <time>2022-04-16T08:45:29.367Z</time>
      </trkpt>
      <trkpt lat="45.63805" lon="5.64163">
        <ele>223</ele>
        <time>2022-04-16T08:45:30.368Z</time>
      </trkpt>
      <trkpt lat="45.63809" lon="5.64166">
        <ele>223</ele>
        <time>2022-04-16T08:45:31.368Z</time>
      </trkpt>
      <trkpt lat="45.63813" lon="5.64169">
        <ele>223</ele>
        <time>2022-04-16T08:45:32.367Z</time>
      </trkpt>
      <trkpt lat="45.63817" lon="5.64171">
        <ele>223</ele>
        <time>2022-04-16T08:45:33.368Z</time>
      </trkpt>
      <trkpt lat="45.63821" lon="5.64174">
        <ele>223</ele>
        <time>2022-04-16T08:45:34.367Z</time>
      </trkpt>
      <trkpt lat="45.63823" lon="5.64176">
        <ele>223</ele>
        <time>2022-04-16T08:45:35.368Z</time>
      </trkpt>
      <trkpt lat="45.63827" lon="5.64179">
        <ele>223</ele>
        <time>2022-04-16T08:45:36.367Z</time>
      </trkpt>
      <trkpt lat="45.63831" lon="5.64181">
        <ele>224</ele>
        <time>2022-04-16T08:45:37.367Z</time>
      </trkpt>
      <trkpt lat="45.63835" lon="5.64183">
        <ele>224</ele>
        <time>2022-04-16T08:45:38.368Z</time>
      </trkpt>
      <trkpt lat="45.63839" lon="5.64186">
        <ele>225</ele>
        <time>2022-04-16T08:45:39.368Z</time>
      </trkpt>
      <trkpt lat="45.63842" lon="5.64188">
        <ele>225</ele>
        <time>2022-04-16T08:45:40.368Z</time>
      </trkpt>
      <trkpt lat="45.63846" lon="5.64191">
        <ele>225</ele>
        <time>2022-04-16T08:45:41.367Z</time>
      </trkpt>
      <trkpt lat="45.6385" lon="5.64193">
        <ele>225</ele>
        <time>2022-04-16T08:45:42.368Z</time>
      </trkpt>
      <trkpt lat="45.63854" lon="5.64197">
        <ele>226</ele>
        <time>2022-04-16T08:45:43.368Z</time>
      </trkpt>
      <trkpt lat="45.63857" lon="5.64199">
        <ele>225</ele>
        <time>2022-04-16T08:45:44.368Z</time>
      </trkpt>
      <trkpt lat="45.63861" lon="5.64201">
        <ele>225</ele>
        <time>2022-04-16T08:45:45.368Z</time>
      </trkpt>
      <trkpt lat="45.63863" lon="5.64202">
        <ele>225</ele>
        <time>2022-04-16T08:45:46.367Z</time>
      </trkpt>
      <trkpt lat="45.63865" lon="5.64201">
        <ele>225</ele>
        <time>2022-04-16T08:45:47.368Z</time>
      </trkpt>
      <trkpt lat="45.63866" lon="5.642">
        <ele>225</ele>
        <time>2022-04-16T08:45:48.367Z</time>
      </trkpt>
      <trkpt lat="45.63865" lon="5.64199">
        <ele>225</ele>
        <time>2022-04-16T08:45:49.368Z</time>
      </trkpt>
      <trkpt lat="45.63864" lon="5.64197">
        <ele>225</ele>
        <time>2022-04-16T08:45:50.368Z</time>
      </trkpt>
      <trkpt lat="45.63862" lon="5.64195">
        <ele>225</ele>
        <time>2022-04-16T08:45:51.367Z</time>
      </trkpt>
      <trkpt lat="45.63861" lon="5.64192">
        <ele>225</ele>
        <time>2022-04-16T08:45:52.367Z</time>
      </trkpt>
      <trkpt lat="45.63862" lon="5.6419">
        <ele>225</ele>
        <time>2022-04-16T08:45:53.367Z</time>
      </trkpt>
      <trkpt lat="45.63862" lon="5.64189">
        <ele>225</ele>
        <time>2022-04-16T08:45:54.367Z</time>
      </trkpt>
      <trkpt lat="45.63864" lon="5.64189">
        <ele>225</ele>
        <time>2022-04-16T08:45:55.367Z</time>
      </trkpt>
      <trkpt lat="45.63866" lon="5.64189">
        <ele>225</ele>
        <time>2022-04-16T08:45:56.368Z</time>
      </trkpt>
      <trkpt lat="45.63869" lon="5.6419">
        <ele>226</ele>
        <time>2022-04-16T08:45:57.368Z</time>
      </trkpt>
      <trkpt lat="45.63872" lon="5.64191">
        <ele>226</ele>
        <time>2022-04-16T08:45:58.367Z</time>
      </trkpt>
      <trkpt lat="45.63876" lon="5.64192">
        <ele>226</ele>
        <time>2022-04-16T08:45:59.368Z</time>
      </trkpt>
      <trkpt lat="45.6388" lon="5.64194">
        <ele>226</ele>
        <time>2022-04-16T08:46:00.368Z</time>
      </trkpt>
      <trkpt lat="45.63885" lon="5.64196">
        <ele>225</ele>
        <time>2022-04-16T08:46:01.368Z</time>
      </trkpt>
      <trkpt lat="45.6389" lon="5.64197">
        <ele>225</ele>
        <time>2022-04-16T08:46:02.368Z</time>
      </trkpt>
      <trkpt lat="45.63896" lon="5.64199">
        <ele>225</ele>
        <time>2022-04-16T08:46:03.368Z</time>
      </trkpt>
      <trkpt lat="45.63903" lon="5.64201">
        <ele>225</ele>
        <time>2022-04-16T08:46:04.368Z</time>
      </trkpt>
      <trkpt lat="45.63909" lon="5.64202">
        <ele>224</ele>
        <time>2022-04-16T08:46:05.367Z</time>
      </trkpt>
      <trkpt lat="45.63913" lon="5.64206">
        <ele>224</ele>
        <time>2022-04-16T08:46:06.368Z</time>
      </trkpt>
      <trkpt lat="45.63915" lon="5.6421">
        <ele>224</ele>
        <time>2022-04-16T08:46:07.368Z</time>
      </trkpt>
      <trkpt lat="45.63917" lon="5.64216">
        <ele>224</ele>
        <time>2022-04-16T08:46:08.368Z</time>
      </trkpt>
      <trkpt lat="45.63918" lon="5.64223">
        <ele>224</ele>
        <time>2022-04-16T08:46:09.367Z</time>
      </trkpt>
      <trkpt lat="45.63918" lon="5.64228">
        <ele>224</ele>
        <time>2022-04-16T08:46:10.367Z</time>
      </trkpt>
      <trkpt lat="45.63919" lon="5.64231">
        <ele>224</ele>
        <time>2022-04-16T08:46:11.368Z</time>
      </trkpt>
      <trkpt lat="45.63919" lon="5.64232">
        <ele>224</ele>
        <time>2022-04-16T08:46:12.368Z</time>
      </trkpt>
      <trkpt lat="45.63919" lon="5.64233">
        <ele>224</ele>
        <time>2022-04-16T08:46:13.368Z</time>
      </trkpt>
      <trkpt lat="45.63918" lon="5.64232">
        <ele>224</ele>
        <time>2022-04-16T08:46:14.368Z</time>
      </trkpt>
      <trkpt lat="45.63918" lon="5.64231">
        <ele>224</ele>
        <time>2022-04-16T08:46:15.368Z</time>
      </trkpt>
      <trkpt lat="45.63917" lon="5.64229">
        <ele>224</ele>
        <time>2022-04-16T08:46:16.368Z</time>
      </trkpt>
      <trkpt lat="45.63917" lon="5.64226">
        <ele>225</ele>
        <time>2022-04-16T08:46:17.368Z</time>
      </trkpt>
      <trkpt lat="45.63918" lon="5.64223">
        <ele>225</ele>
        <time>2022-04-16T08:46:18.368Z</time>
      </trkpt>
      <trkpt lat="45.63918" lon="5.6422">
        <ele>225</ele>
        <time>2022-04-16T08:46:19.368Z</time>
      </trkpt>
      <trkpt lat="45.63918" lon="5.64218">
        <ele>224</ele>
        <time>2022-04-16T08:46:20.368Z</time>
      </trkpt>
      <trkpt lat="45.63918" lon="5.64215">
        <ele>224</ele>
        <time>2022-04-16T08:46:21.368Z</time>
      </trkpt>
      <trkpt lat="45.63917" lon="5.64212">
        <ele>224</ele>
        <time>2022-04-16T08:46:22.368Z</time>
      </trkpt>
      <trkpt lat="45.63916" lon="5.6421">
        <ele>224</ele>
        <time>2022-04-16T08:46:23.368Z</time>
      </trkpt>
      <trkpt lat="45.63915" lon="5.64207">
        <ele>223</ele>
        <time>2022-04-16T08:46:24.368Z</time>
      </trkpt>
      <trkpt lat="45.63913" lon="5.64204">
        <ele>223</ele>
        <time>2022-04-16T08:46:25.368Z</time>
      </trkpt>
      <trkpt lat="45.6391" lon="5.64202">
        <ele>223</ele>
        <time>2022-04-16T08:46:26.368Z</time>
      </trkpt>
      <trkpt lat="45.63907" lon="5.64201">
        <ele>223</ele>
        <time>2022-04-16T08:46:27.367Z</time>
      </trkpt>
      <trkpt lat="45.63904" lon="5.642">
        <ele>223</ele>
        <time>2022-04-16T08:46:28.367Z</time>
      </trkpt>
      <trkpt lat="45.639" lon="5.642">
        <ele>223</ele>
        <time>2022-04-16T08:46:29.368Z</time>
      </trkpt>
      <trkpt lat="45.63898" lon="5.64199">
        <ele>223</ele>
        <time>2022-04-16T08:46:30.368Z</time>
      </trkpt>
      <trkpt lat="45.63894" lon="5.64198">
        <ele>222</ele>
        <time>2022-04-16T08:46:31.368Z</time>
      </trkpt>
      <trkpt lat="45.63891" lon="5.64197">
        <ele>222</ele>
        <time>2022-04-16T08:46:32.368Z</time>
      </trkpt>
      <trkpt lat="45.63889" lon="5.64196">
        <ele>222</ele>
        <time>2022-04-16T08:46:33.368Z</time>
      </trkpt>
      <trkpt lat="45.63886" lon="5.64195">
        <ele>222</ele>
        <time>2022-04-16T08:46:34.368Z</time>
      </trkpt>
      <trkpt lat="45.63882" lon="5.64194">
        <ele>222</ele>
        <time>2022-04-16T08:46:35.368Z</time>
      </trkpt>
      <trkpt lat="45.63879" lon="5.64194">
        <ele>222</ele>
        <time>2022-04-16T08:46:36.368Z</time>
      </trkpt>
      <trkpt lat="45.63877" lon="5.64193">
        <ele>222</ele>
        <time>2022-04-16T08:46:37.368Z</time>
      </trkpt>
      <trkpt lat="45.63874" lon="5.64192">
        <ele>222</ele>
        <time>2022-04-16T08:46:38.368Z</time>
      </trkpt>
      <trkpt lat="45.63871" lon="5.64191">
        <ele>222</ele>
        <time>2022-04-16T08:46:39.368Z</time>
      </trkpt>
      <trkpt lat="45.63868" lon="5.6419">
        <ele>222</ele>
        <time>2022-04-16T08:46:40.368Z</time>
      </trkpt>
      <trkpt lat="45.63865" lon="5.64189">
        <ele>223</ele>
        <time>2022-04-16T08:46:41.367Z</time>
      </trkpt>
      <trkpt lat="45.63863" lon="5.64188">
        <ele>223</ele>
        <time>2022-04-16T08:46:42.368Z</time>
      </trkpt>
      <trkpt lat="45.63861" lon="5.64187">
        <ele>223</ele>
        <time>2022-04-16T08:46:43.367Z</time>
      </trkpt>
      <trkpt lat="45.63858" lon="5.64187">
        <ele>223</ele>
        <time>2022-04-16T08:46:44.367Z</time>
      </trkpt>
      <trkpt lat="45.63856" lon="5.64187">
        <ele>224</ele>
        <time>2022-04-16T08:46:45.368Z</time>
      </trkpt>
      <trkpt lat="45.63855" lon="5.64188">
        <ele>224</ele>
        <time>2022-04-16T08:46:46.368Z</time>
      </trkpt>
      <trkpt lat="45.63854" lon="5.6419">
        <ele>224</ele>
        <time>2022-04-16T08:46:47.368Z</time>
      </trkpt>
      <trkpt lat="45.63855" lon="5.64192">
        <ele>224</ele>
        <time>2022-04-16T08:46:48.368Z</time>
      </trkpt>
      <trkpt lat="45.63856" lon="5.64194">
        <ele>225</ele>
        <time>2022-04-16T08:46:49.368Z</time>
      </trkpt>
      <trkpt lat="45.63858" lon="5.64197">
        <ele>225</ele>
        <time>2022-04-16T08:46:50.368Z</time>
      </trkpt>
      <trkpt lat="45.6386" lon="5.642">
        <ele>225</ele>
        <time>2022-04-16T08:46:51.368Z</time>
      </trkpt>
      <trkpt lat="45.63862" lon="5.64202">
        <ele>225</ele>
        <time>2022-04-16T08:46:52.368Z</time>
      </trkpt>
      <trkpt lat="45.63864" lon="5.64204">
        <ele>225</ele>
        <time>2022-04-16T08:46:53.368Z</time>
      </trkpt>
      <trkpt lat="45.63867" lon="5.64206">
        <ele>224</ele>
        <time>2022-04-16T08:46:54.368Z</time>
      </trkpt>
      <trkpt lat="45.63869" lon="5.64208">
        <ele>224</ele>
        <time>2022-04-16T08:46:55.368Z</time>
      </trkpt>
      <trkpt lat="45.63872" lon="5.64211">
        <ele>224</ele>
        <time>2022-04-16T08:46:56.368Z</time>
      </trkpt>
      <trkpt lat="45.63875" lon="5.64213">
        <ele>224</ele>
        <time>2022-04-16T08:46:57.368Z</time>
      </trkpt>
      <trkpt lat="45.63878" lon="5.64215">
        <ele>224</ele>
        <time>2022-04-16T08:46:58.367Z</time>
      </trkpt>
      <trkpt lat="45.6388" lon="5.64217">
        <ele>225</ele>
        <time>2022-04-16T08:46:59.368Z</time>
      </trkpt>
      <trkpt lat="45.63883" lon="5.64219">
        <ele>225</ele>
        <time>2022-04-16T08:47:00.368Z</time>
      </trkpt>
      <trkpt lat="45.63887" lon="5.64221">
        <ele>225</ele>
        <time>2022-04-16T08:47:01.368Z</time>
      </trkpt>
      <trkpt lat="45.63889" lon="5.64223">
        <ele>225</ele>
        <time>2022-04-16T08:47:02.368Z</time>
      </trkpt>
      <trkpt lat="45.63892" lon="5.64225">
        <ele>225</ele>
        <time>2022-04-16T08:47:03.368Z</time>
      </trkpt>
      <trkpt lat="45.63894" lon="5.64227">
        <ele>225</ele>
        <time>2022-04-16T08:47:04.368Z</time>
      </trkpt>
      <trkpt lat="45.63897" lon="5.64228">
        <ele>225</ele>
        <time>2022-04-16T08:47:05.367Z</time>
      </trkpt>
      <trkpt lat="45.63901" lon="5.6423">
        <ele>226</ele>
        <time>2022-04-16T08:47:06.368Z</time>
      </trkpt>
      <trkpt lat="45.63903" lon="5.64232">
        <ele>226</ele>
        <time>2022-04-16T08:47:07.368Z</time>
      </trkpt>
      <trkpt lat="45.63906" lon="5.64234">
        <ele>227</ele>
        <time>2022-04-16T08:47:08.368Z</time>
      </trkpt>
      <trkpt lat="45.63909" lon="5.64236">
        <ele>227</ele>
        <time>2022-04-16T08:47:09.368Z</time>
      </trkpt>
      <trkpt lat="45.63912" lon="5.64238">
        <ele>228</ele>
        <time>2022-04-16T08:47:10.368Z</time>
      </trkpt>
      <trkpt lat="45.63915" lon="5.6424">
        <ele>228</ele>
        <time>2022-04-16T08:47:11.368Z</time>
      </trkpt>
      <trkpt lat="45.63919" lon="5.64242">
        <ele>228</ele>
        <time>2022-04-16T08:47:12.368Z</time>
      </trkpt>
      <trkpt lat="45.63922" lon="5.64244">
        <ele>229</ele>
        <time>2022-04-16T08:47:13.368Z</time>
      </trkpt>
      <trkpt lat="45.63924" lon="5.64246">
        <ele>229</ele>
        <time>2022-04-16T08:47:14.368Z</time>
      </trkpt>
      <trkpt lat="45.63928" lon="5.64249">
        <ele>229</ele>
        <time>2022-04-16T08:47:15.368Z</time>
      </trkpt>
      <trkpt lat="45.63931" lon="5.6425">
        <ele>229</ele>
        <time>2022-04-16T08:47:16.368Z</time>
      </trkpt>
      <trkpt lat="45.63935" lon="5.64253">
        <ele>230</ele>
        <time>2022-04-16T08:47:17.367Z</time>
      </trkpt>
      <trkpt lat="45.63938" lon="5.64255">
        <ele>230</ele>
        <time>2022-04-16T08:47:18.367Z</time>
      </trkpt>
      <trkpt lat="45.63941" lon="5.64257">
        <ele>230</ele>
        <time>2022-04-16T08:47:19.368Z</time>
      </trkpt>
      <trkpt lat="45.63944" lon="5.6426">
        <ele>230</ele>
        <time>2022-04-16T08:47:20.368Z</time>
      </trkpt>
      <trkpt lat="45.63948" lon="5.64263">
        <ele>230</ele>
        <time>2022-04-16T08:47:21.367Z</time>
      </trkpt>
      <trkpt lat="45.63951" lon="5.64265">
        <ele>230</ele>
        <time>2022-04-16T08:47:22.368Z</time>
      </trkpt>
      <trkpt lat="45.63955" lon="5.64268">
        <ele>230</ele>
        <time>2022-04-16T08:47:23.367Z</time>
      </trkpt>
      <trkpt lat="45.63958" lon="5.6427">
        <ele>230</ele>
        <time>2022-04-16T08:47:24.368Z</time>
      </trkpt>
      <trkpt lat="45.63962" lon="5.64273">
        <ele>230</ele>
        <time>2022-04-16T08:47:25.367Z</time>
      </trkpt>
      <trkpt lat="45.63967" lon="5.64276">
        <ele>230</ele>
        <time>2022-04-16T08:47:26.368Z</time>
      </trkpt>
      <trkpt lat="45.63972" lon="5.64279">
        <ele>230</ele>
        <time>2022-04-16T08:47:27.368Z</time>
      </trkpt>
      <trkpt lat="45.63976" lon="5.64282">
        <ele>229</ele>
        <time>2022-04-16T08:47:28.368Z</time>
      </trkpt>
      <trkpt lat="45.6398" lon="5.64285">
        <ele>229</ele>
        <time>2022-04-16T08:47:29.368Z</time>
      </trkpt>
      <trkpt lat="45.63985" lon="5.64288">
        <ele>229</ele>
        <time>2022-04-16T08:47:30.367Z</time>
      </trkpt>
      <trkpt lat="45.63989" lon="5.64291">
        <ele>229</ele>
        <time>2022-04-16T08:47:31.368Z</time>
      </trkpt>
      <trkpt lat="45.63995" lon="5.64295">
        <ele>229</ele>
        <time>2022-04-16T08:47:32.368Z</time>
      </trkpt>
      <trkpt lat="45.64" lon="5.64298">
        <ele>229</ele>
        <time>2022-04-16T08:47:33.368Z</time>
      </trkpt>
      <trkpt lat="45.64004" lon="5.64302">
        <ele>229</ele>
        <time>2022-04-16T08:47:34.368Z</time>
      </trkpt>
      <trkpt lat="45.64009" lon="5.64304">
        <ele>229</ele>
        <time>2022-04-16T08:47:35.367Z</time>
      </trkpt>
      <trkpt lat="45.64014" lon="5.64308">
        <ele>229</ele>
        <time>2022-04-16T08:47:36.368Z</time>
      </trkpt>
      <trkpt lat="45.6402" lon="5.64313">
        <ele>229</ele>
        <time>2022-04-16T08:47:37.368Z</time>
      </trkpt>
      <trkpt lat="45.64026" lon="5.64318">
        <ele>230</ele>
        <time>2022-04-16T08:47:38.368Z</time>
      </trkpt>
      <trkpt lat="45.64032" lon="5.64324">
        <ele>230</ele>
        <time>2022-04-16T08:47:39.368Z</time>
      </trkpt>
      <trkpt lat="45.64036" lon="5.64329">
        <ele>230</ele>
        <time>2022-04-16T08:47:40.367Z</time>
      </trkpt>
      <trkpt lat="45.64041" lon="5.64336">
        <ele>230</ele>
        <time>2022-04-16T08:47:41.368Z</time>
      </trkpt>
      <trkpt lat="45.64047" lon="5.64345">
        <ele>230</ele>
        <time>2022-04-16T08:47:42.367Z</time>
      </trkpt>
      <trkpt lat="45.64051" lon="5.64354">
        <ele>230</ele>
        <time>2022-04-16T08:47:43.368Z</time>
      </trkpt>
      <trkpt lat="45.64054" lon="5.64364">
        <ele>229</ele>
        <time>2022-04-16T08:47:44.368Z</time>
      </trkpt>
      <trkpt lat="45.64056" lon="5.64375">
        <ele>228</ele>
        <time>2022-04-16T08:47:45.368Z</time>
      </trkpt>
      <trkpt lat="45.64057" lon="5.64386">
        <ele>228</ele>
        <time>2022-04-16T08:47:46.367Z</time>
      </trkpt>
      <trkpt lat="45.64057" lon="5.64398">
        <ele>227</ele>
        <time>2022-04-16T08:47:47.367Z</time>
      </trkpt>
      <trkpt lat="45.64056" lon="5.64409">
        <ele>226</ele>
        <time>2022-04-16T08:47:48.367Z</time>
      </trkpt>
      <trkpt lat="45.64055" lon="5.64421">
        <ele>226</ele>
        <time>2022-04-16T08:47:49.367Z</time>
      </trkpt>
      <trkpt lat="45.64053" lon="5.64431">
        <ele>225</ele>
        <time>2022-04-16T08:47:50.368Z</time>
      </trkpt>
      <trkpt lat="45.6405" lon="5.64441">
        <ele>225</ele>
        <time>2022-04-16T08:47:51.368Z</time>
      </trkpt>
      <trkpt lat="45.64045" lon="5.64447">
        <ele>224</ele>
        <time>2022-04-16T08:47:52.368Z</time>
      </trkpt>
      <trkpt lat="45.64041" lon="5.6445">
        <ele>224</ele>
        <time>2022-04-16T08:47:53.368Z</time>
      </trkpt>
      <trkpt lat="45.64035" lon="5.64449">
        <ele>224</ele>
        <time>2022-04-16T08:47:54.368Z</time>
      </trkpt>
      <trkpt lat="45.6403" lon="5.64447">
        <ele>223</ele>
        <time>2022-04-16T08:47:55.367Z</time>
      </trkpt>
      <trkpt lat="45.64025" lon="5.64444">
        <ele>223</ele>
        <time>2022-04-16T08:47:56.368Z</time>
      </trkpt>
      <trkpt lat="45.64021" lon="5.6444">
        <ele>223</ele>
        <time>2022-04-16T08:47:57.368Z</time>
      </trkpt>
      <trkpt lat="45.6402" lon="5.64435">
        <ele>222</ele>
        <time>2022-04-16T08:47:58.367Z</time>
      </trkpt>
      <trkpt lat="45.6402" lon="5.64429">
        <ele>222</ele>
        <time>2022-04-16T08:47:59.367Z</time>
      </trkpt>
      <trkpt lat="45.6402" lon="5.64424">
        <ele>222</ele>
        <time>2022-04-16T08:48:00.368Z</time>
      </trkpt>
      <trkpt lat="45.64021" lon="5.64418">
        <ele>221</ele>
        <time>2022-04-16T08:48:01.367Z</time>
      </trkpt>
      <trkpt lat="45.64021" lon="5.64412">
        <ele>221</ele>
        <time>2022-04-16T08:48:02.368Z</time>
      </trkpt>
      <trkpt lat="45.64022" lon="5.64407">
        <ele>221</ele>
        <time>2022-04-16T08:48:03.367Z</time>
      </trkpt>
      <trkpt lat="45.64023" lon="5.64403">
        <ele>221</ele>
        <time>2022-04-16T08:48:04.368Z</time>
      </trkpt>
      <trkpt lat="45.64024" lon="5.64398">
        <ele>221</ele>
        <time>2022-04-16T08:48:05.368Z</time>
      </trkpt>
      <trkpt lat="45.64025" lon="5.64393">
        <ele>220</ele>
        <time>2022-04-16T08:48:06.368Z</time>
      </trkpt>
      <trkpt lat="45.64026" lon="5.64388">
        <ele>220</ele>
        <time>2022-04-16T08:48:07.368Z</time>
      </trkpt>
      <trkpt lat="45.64026" lon="5.64384">
        <ele>220</ele>
        <time>2022-04-16T08:48:08.368Z</time>
      </trkpt>
      <trkpt lat="45.64027" lon="5.64379">
        <ele>219</ele>
        <time>2022-04-16T08:48:09.368Z</time>
      </trkpt>
      <trkpt lat="45.64027" lon="5.64374">
        <ele>219</ele>
        <time>2022-04-16T08:48:10.367Z</time>
      </trkpt>
      <trkpt lat="45.64027" lon="5.64369">
        <ele>219</ele>
        <time>2022-04-16T08:48:11.367Z</time>
      </trkpt>
      <trkpt lat="45.64027" lon="5.64364">
        <ele>219</ele>
        <time>2022-04-16T08:48:12.368Z</time>
      </trkpt>
      <trkpt lat="45.64027" lon="5.64357">
        <ele>219</ele>
        <time>2022-04-16T08:48:13.368Z</time>
      </trkpt>
      <trkpt lat="45.64026" lon="5.64351">
        <ele>219</ele>
        <time>2022-04-16T08:48:14.368Z</time>
      </trkpt>
      <trkpt lat="45.64024" lon="5.64345">
        <ele>219</ele>
        <time>2022-04-16T08:48:15.368Z</time>
      </trkpt>
      <trkpt lat="45.64021" lon="5.6434">
        <ele>219</ele>
        <time>2022-04-16T08:48:16.367Z</time>
      </trkpt>
      <trkpt lat="45.64017" lon="5.64335">
        <ele>219</ele>
        <time>2022-04-16T08:48:17.368Z</time>
      </trkpt>
      <trkpt lat="45.64014" lon="5.64332">
        <ele>219</ele>
        <time>2022-04-16T08:48:18.368Z</time>
      </trkpt>
      <trkpt lat="45.6401" lon="5.64328">
        <ele>219</ele>
        <time>2022-04-16T08:48:19.368Z</time>
      </trkpt>
      <trkpt lat="45.64006" lon="5.64325">
        <ele>219</ele>
        <time>2022-04-16T08:48:20.368Z</time>
      </trkpt>
      <trkpt lat="45.64001" lon="5.64323">
        <ele>219</ele>
        <time>2022-04-16T08:48:21.368Z</time>
      </trkpt>
      <trkpt lat="45.63997" lon="5.6432">
        <ele>219</ele>
        <time>2022-04-16T08:48:22.367Z</time>
      </trkpt>
      <trkpt lat="45.63993" lon="5.64317">
        <ele>219</ele>
        <time>2022-04-16T08:48:23.368Z</time>
      </trkpt>
      <trkpt lat="45.6399" lon="5.64312">
        <ele>219</ele>
        <time>2022-04-16T08:48:24.368Z</time>
      </trkpt>
      <trkpt lat="45.63987" lon="5.64307">
        <ele>219</ele>
        <time>2022-04-16T08:48:25.368Z</time>
      </trkpt>
      <trkpt lat="45.63986" lon="5.64301">
        <ele>219</ele>
        <time>2022-04-16T08:48:26.368Z</time>
      </trkpt>
      <trkpt lat="45.63986" lon="5.64296">
        <ele>219</ele>
        <time>2022-04-16T08:48:27.367Z</time>
      </trkpt>
      <trkpt lat="45.63987" lon="5.64291">
        <ele>220</ele>
        <time>2022-04-16T08:48:28.368Z</time>
      </trkpt>
      <trkpt lat="45.63988" lon="5.64286">
        <ele>220</ele>
        <time>2022-04-16T08:48:29.368Z</time>
      </trkpt>
      <trkpt lat="45.63989" lon="5.64282">
        <ele>220</ele>
        <time>2022-04-16T08:48:30.368Z</time>
      </trkpt>
      <trkpt lat="45.63991" lon="5.64279">
        <ele>219</ele>
        <time>2022-04-16T08:48:31.368Z</time>
      </trkpt>
      <trkpt lat="45.63994" lon="5.64275">
        <ele>219</ele>
        <time>2022-04-16T08:48:32.368Z</time>
      </trkpt>
      <trkpt lat="45.63998" lon="5.64272">
        <ele>219</ele>
        <time>2022-04-16T08:48:33.368Z</time>
      </trkpt>
      <trkpt lat="45.64002" lon="5.64271">
        <ele>220</ele>
        <time>2022-04-16T08:48:34.368Z</time>
      </trkpt>
      <trkpt lat="45.64007" lon="5.64271">
        <ele>220</ele>
        <time>2022-04-16T08:48:35.368Z</time>
      </trkpt>
      <trkpt lat="45.64011" lon="5.64273">
        <ele>220</ele>
        <time>2022-04-16T08:48:36.368Z</time>
      </trkpt>
      <trkpt lat="45.64017" lon="5.64276">
        <ele>221</ele>
        <time>2022-04-16T08:48:37.368Z</time>
      </trkpt>
      <trkpt lat="45.64021" lon="5.64279">
        <ele>221</ele>
        <time>2022-04-16T08:48:38.368Z</time>
      </trkpt>
      <trkpt lat="45.64026" lon="5.64283">
        <ele>221</ele>
        <time>2022-04-16T08:48:39.368Z</time>
      </trkpt>
      <trkpt lat="45.64031" lon="5.64285">
        <ele>221</ele>
        <time>2022-04-16T08:48:40.367Z</time>
      </trkpt>
      <trkpt lat="45.64036" lon="5.64287">
        <ele>221</ele>
        <time>2022-04-16T08:48:41.368Z</time>
      </trkpt>
      <trkpt lat="45.6404" lon="5.64287">
        <ele>221</ele>
        <time>2022-04-16T08:48:42.368Z</time>
      </trkpt>
      <trkpt lat="45.64044" lon="5.64284">
        <ele>221</ele>
        <time>2022-04-16T08:48:43.368Z</time>
      </trkpt>
      <trkpt lat="45.64047" lon="5.64281">
        <ele>221</ele>
        <time>2022-04-16T08:48:44.368Z</time>
      </trkpt>
      <trkpt lat="45.6405" lon="5.64276">
        <ele>221</ele>
        <time>2022-04-16T08:48:45.368Z</time>
      </trkpt>
      <trkpt lat="45.64052" lon="5.64271">
        <ele>221</ele>
        <time>2022-04-16T08:48:46.368Z</time>
      </trkpt>
      <trkpt lat="45.64054" lon="5.64265">
        <ele>221</ele>
        <time>2022-04-16T08:48:47.368Z</time>
      </trkpt>
      <trkpt lat="45.64056" lon="5.64259">
        <ele>221</ele>
        <time>2022-04-16T08:48:48.368Z</time>
      </trkpt>
      <trkpt lat="45.64057" lon="5.64251">
        <ele>220</ele>
        <time>2022-04-16T08:48:49.367Z</time>
      </trkpt>
      <trkpt lat="45.64057" lon="5.64244">
        <ele>220</ele>
        <time>2022-04-16T08:48:50.368Z</time>
      </trkpt>
      <trkpt lat="45.64057" lon="5.64237">
        <ele>220</ele>
        <time>2022-04-16T08:48:51.368Z</time>
      </trkpt>
      <trkpt lat="45.64057" lon="5.6423">
        <ele>219</ele>
        <time>2022-04-16T08:48:52.367Z</time>
      </trkpt>
      <trkpt lat="45.64056" lon="5.64223">
        <ele>219</ele>
        <time>2022-04-16T08:48:53.368Z</time>
      </trkpt>
      <trkpt lat="45.64055" lon="5.64216">
        <ele>219</ele>
        <time>2022-04-16T08:48:54.368Z</time>
      </trkpt>
      <trkpt lat="45.64053" lon="5.64209">
        <ele>219</ele>
        <time>2022-04-16T08:48:55.368Z</time>
      </trkpt>
      <trkpt lat="45.64053" lon="5.64203">
        <ele>219</ele>
        <time>2022-04-16T08:48:56.368Z</time>
      </trkpt>
      <trkpt lat="45.64054" lon="5.64197">
        <ele>219</ele>
        <time>2022-04-16T08:48:57.368Z</time>
      </trkpt>
      <trkpt lat="45.64056" lon="5.64191">
        <ele>219</ele>
        <time>2022-04-16T08:48:58.368Z</time>
      </trkpt>
      <trkpt lat="45.64059" lon="5.64186">
        <ele>219</ele>
        <time>2022-04-16T08:48:59.368Z</time>
      </trkpt>
      <trkpt lat="45.64062" lon="5.64181">
        <ele>219</ele>
        <time>2022-04-16T08:49:00.367Z</time>
      </trkpt>
      <trkpt lat="45.64065" lon="5.64177">
        <ele>219</ele>
        <time>2022-04-16T08:49:01.368Z</time>
      </trkpt>
      <trkpt lat="45.64068" lon="5.64172">
        <ele>220</ele>
        <time>2022-04-16T08:49:02.368Z</time>
      </trkpt>
      <trkpt lat="45.6407" lon="5.64167">
        <ele>220</ele>
        <time>2022-04-16T08:49:03.367Z</time>
      </trkpt>
      <trkpt lat="45.64072" lon="5.64162">
        <ele>220</ele>
        <time>2022-04-16T08:49:04.367Z</time>
      </trkpt>
      <trkpt lat="45.64074" lon="5.64156">
        <ele>220</ele>
        <time>2022-04-16T08:49:05.368Z</time>
      </trkpt>
      <trkpt lat="45.64076" lon="5.6415">
        <ele>220</ele>
        <time>2022-04-16T08:49:06.368Z</time>
      </trkpt>
      <trkpt lat="45.64077" lon="5.64144">
        <ele>220</ele>
        <time>2022-04-16T08:49:07.367Z</time>
      </trkpt>
      <trkpt lat="45.64078" lon="5.64138">
        <ele>220</ele>
        <time>2022-04-16T08:49:08.368Z</time>
      </trkpt>
      <trkpt lat="45.64079" lon="5.64132">
        <ele>220</ele>
        <time>2022-04-16T08:49:09.368Z</time>
      </trkpt>
      <trkpt lat="45.6408" lon="5.64126">
        <ele>220</ele>
        <time>2022-04-16T08:49:10.368Z</time>
      </trkpt>
      <trkpt lat="45.6408" lon="5.6412">
        <ele>220</ele>
        <time>2022-04-16T08:49:11.368Z</time>
      </trkpt>
      <trkpt lat="45.6408" lon="5.64113">
        <ele>220</ele>
        <time>2022-04-16T08:49:12.368Z</time>
      </trkpt>
      <trkpt lat="45.64081" lon="5.64107">
        <ele>220</ele>
        <time>2022-04-16T08:49:13.368Z</time>
      </trkpt>
      <trkpt lat="45.64081" lon="5.64101">
        <ele>220</ele>
        <time>2022-04-16T08:49:14.368Z</time>
      </trkpt>
      <trkpt lat="45.64081" lon="5.64094">
        <ele>220</ele>
        <time>2022-04-16T08:49:15.367Z</time>
      </trkpt>
      <trkpt lat="45.64081" lon="5.64088">
        <ele>219</ele>
        <time>2022-04-16T08:49:16.368Z</time>
      </trkpt>
      <trkpt lat="45.64081" lon="5.64081">
        <ele>219</ele>
        <time>2022-04-16T08:49:17.368Z</time>
      </trkpt>
      <trkpt lat="45.64082" lon="5.64074">
        <ele>219</ele>
        <time>2022-04-16T08:49:18.368Z</time>
      </trkpt>
      <trkpt lat="45.64082" lon="5.64068">
        <ele>219</ele>
        <time>2022-04-16T08:49:19.368Z</time>
      </trkpt>
      <trkpt lat="45.64082" lon="5.64061">
        <ele>219</ele>
        <time>2022-04-16T08:49:20.368Z</time>
      </trkpt>
      <trkpt lat="45.64083" lon="5.64055">
        <ele>219</ele>
        <time>2022-04-16T08:49:21.368Z</time>
      </trkpt>
      <trkpt lat="45.64083" lon="5.64048">
        <ele>218</ele>
        <time>2022-04-16T08:49:22.368Z</time>
      </trkpt>
      <trkpt lat="45.64083" lon="5.64041">
        <ele>218</ele>
        <time>2022-04-16T08:49:23.368Z</time>
      </trkpt>
      <trkpt lat="45.64084" lon="5.64034">
        <ele>218</ele>
        <time>2022-04-16T08:49:24.368Z</time>
      </trkpt>
      <trkpt lat="45.64084" lon="5.64027">
        <ele>218</ele>
        <time>2022-04-16T08:49:25.368Z</time>
      </trkpt>
      <trkpt lat="45.64084" lon="5.6402">
        <ele>218</ele>
        <time>2022-04-16T08:49:26.367Z</time>
      </trkpt>
      <trkpt lat="45.64084" lon="5.64014">
        <ele>218</ele>
        <time>2022-04-16T08:49:27.368Z</time>
      </trkpt>
      <trkpt lat="45.64084" lon="5.64006">
        <ele>217</ele>
        <time>2022-04-16T08:49:28.368Z</time>
      </trkpt>
      <trkpt lat="45.64084" lon="5.63998">
        <ele>218</ele>
        <time>2022-04-16T08:49:29.368Z</time>
      </trkpt>
      <trkpt lat="45.64084" lon="5.63991">
        <ele>218</ele>
        <time>2022-04-16T08:49:30.368Z</time>
      </trkpt>
      <trkpt lat="45.64084" lon="5.63984">
        <ele>218</ele>
        <time>2022-04-16T08:49:31.368Z</time>
      </trkpt>
      <trkpt lat="45.64084" lon="5.63976">
        <ele>218</ele>
        <time>2022-04-16T08:49:32.368Z</time>
      </trkpt>
      <trkpt lat="45.64084" lon="5.63969">
        <ele>218</ele>
        <time>2022-04-16T08:49:33.368Z</time>
      </trkpt>
      <trkpt lat="45.64085" lon="5.63962">
        <ele>218</ele>
        <time>2022-04-16T08:49:34.367Z</time>
      </trkpt>
      <trkpt lat="45.64085" lon="5.63955">
        <ele>218</ele>
        <time>2022-04-16T08:49:35.368Z</time>
      </trkpt>
      <trkpt lat="45.64085" lon="5.63948">
        <ele>217</ele>
        <time>2022-04-16T08:49:36.368Z</time>
      </trkpt>
      <trkpt lat="45.64085" lon="5.63941">
        <ele>217</ele>
        <time>2022-04-16T08:49:37.367Z</time>
      </trkpt>
      <trkpt lat="45.64085" lon="5.63934">
        <ele>217</ele>
        <time>2022-04-16T08:49:38.367Z</time>
      </trkpt>
      <trkpt lat="45.64086" lon="5.63927">
        <ele>217</ele>
        <time>2022-04-16T08:49:39.368Z</time>
      </trkpt>
      <trkpt lat="45.64086" lon="5.63919">
        <ele>217</ele>
        <time>2022-04-16T08:49:40.367Z</time>
      </trkpt>
      <trkpt lat="45.64085" lon="5.63912">
        <ele>217</ele>
        <time>2022-04-16T08:49:41.368Z</time>
      </trkpt>
      <trkpt lat="45.64085" lon="5.63905">
        <ele>218</ele>
        <time>2022-04-16T08:49:42.368Z</time>
      </trkpt>
      <trkpt lat="45.64085" lon="5.63897">
        <ele>218</ele>
        <time>2022-04-16T08:49:43.367Z</time>
      </trkpt>
      <trkpt lat="45.64085" lon="5.6389">
        <ele>218</ele>
        <time>2022-04-16T08:49:44.367Z</time>
      </trkpt>
      <trkpt lat="45.64085" lon="5.63883">
        <ele>219</ele>
        <time>2022-04-16T08:49:45.368Z</time>
      </trkpt>
      <trkpt lat="45.64085" lon="5.63876">
        <ele>219</ele>
        <time>2022-04-16T08:49:46.367Z</time>
      </trkpt>
      <trkpt lat="45.64084" lon="5.63869">
        <ele>220</ele>
        <time>2022-04-16T08:49:47.367Z</time>
      </trkpt>
      <trkpt lat="45.64084" lon="5.63863">
        <ele>220</ele>
        <time>2022-04-16T08:49:48.368Z</time>
      </trkpt>
      <trkpt lat="45.64083" lon="5.63855">
        <ele>221</ele>
        <time>2022-04-16T08:49:49.368Z</time>
      </trkpt>
      <trkpt lat="45.64082" lon="5.63848">
        <ele>221</ele>
        <time>2022-04-16T08:49:50.368Z</time>
      </trkpt>
      <trkpt lat="45.64082" lon="5.6384">
        <ele>221</ele>
        <time>2022-04-16T08:49:51.368Z</time>
      </trkpt>
      <trkpt lat="45.64081" lon="5.63833">
        <ele>221</ele>
        <time>2022-04-16T08:49:52.368Z</time>
      </trkpt>
      <trkpt lat="45.6408" lon="5.63826">
        <ele>222</ele>
        <time>2022-04-16T08:49:53.368Z</time>
      </trkpt>
      <trkpt lat="45.6408" lon="5.63818">
        <ele>222</ele>
        <time>2022-04-16T08:49:54.367Z</time>
      </trkpt>
      <trkpt lat="45.64079" lon="5.63811">
        <ele>222</ele>
        <time>2022-04-16T08:49:55.367Z</time>
      </trkpt>
      <trkpt lat="45.64078" lon="5.63803">
        <ele>222</ele>
        <time>2022-04-16T08:49:56.368Z</time>
      </trkpt>
      <trkpt lat="45.64078" lon="5.63796">
        <ele>222</ele>
        <time>2022-04-16T08:49:57.368Z</time>
      </trkpt>
      <trkpt lat="45.64077" lon="5.63789">
        <ele>222</ele>
        <time>2022-04-16T08:49:58.368Z</time>
      </trkpt>
      <trkpt lat="45.64077" lon="5.63781">
        <ele>222</ele>
        <time>2022-04-16T08:49:59.368Z</time>
      </trkpt>
      <trkpt lat="45.64076" lon="5.63773">
        <ele>222</ele>
        <time>2022-04-16T08:50:00.368Z</time>
      </trkpt>
      <trkpt lat="45.64076" lon="5.63766">
        <ele>221</ele>
        <time>2022-04-16T08:50:01.367Z</time>
      </trkpt>
      <trkpt lat="45.64076" lon="5.63758">
        <ele>221</ele>
        <time>2022-04-16T08:50:02.368Z</time>
      </trkpt>
      <trkpt lat="45.64075" lon="5.6375">
        <ele>221</ele>
        <time>2022-04-16T08:50:03.367Z</time>
      </trkpt>
      <trkpt lat="45.64075" lon="5.63743">
        <ele>220</ele>
        <time>2022-04-16T08:50:04.368Z</time>
      </trkpt>
      <trkpt lat="45.64075" lon="5.63736">
        <ele>220</ele>
        <time>2022-04-16T08:50:05.368Z</time>
      </trkpt>
      <trkpt lat="45.64074" lon="5.63728">
        <ele>220</ele>
        <time>2022-04-16T08:50:06.368Z</time>
      </trkpt>
      <trkpt lat="45.64074" lon="5.63721">
        <ele>219</ele>
        <time>2022-04-16T08:50:07.368Z</time>
      </trkpt>
      <trkpt lat="45.64073" lon="5.63713">
        <ele>219</ele>
        <time>2022-04-16T08:50:08.367Z</time>
      </trkpt>
      <trkpt lat="45.64073" lon="5.63706">
        <ele>218</ele>
        <time>2022-04-16T08:50:09.368Z</time>
      </trkpt>
      <trkpt lat="45.64073" lon="5.63698">
        <ele>217</ele>
        <time>2022-04-16T08:50:10.368Z</time>
      </trkpt>
      <trkpt lat="45.64073" lon="5.63691">
        <ele>217</ele>
        <time>2022-04-16T08:50:11.368Z</time>
      </trkpt>
      <trkpt lat="45.64073" lon="5.63684">
        <ele>216</ele>
        <time>2022-04-16T08:50:12.367Z</time>
      </trkpt>
      <trkpt lat="45.64073" lon="5.63677">
        <ele>216</ele>
        <time>2022-04-16T08:50:13.368Z</time>
      </trkpt>
      <trkpt lat="45.64074" lon="5.6367">
        <ele>216</ele>
        <time>2022-04-16T08:50:14.367Z</time>
      </trkpt>
      <trkpt lat="45.64075" lon="5.63663">
        <ele>216</ele>
        <time>2022-04-16T08:50:15.368Z</time>
      </trkpt>
      <trkpt lat="45.64076" lon="5.63657">
        <ele>215</ele>
        <time>2022-04-16T08:50:16.368Z</time>
      </trkpt>
      <trkpt lat="45.64076" lon="5.6365">
        <ele>215</ele>
        <time>2022-04-16T08:50:17.368Z</time>
      </trkpt>
      <trkpt lat="45.64077" lon="5.63643">
        <ele>216</ele>
        <time>2022-04-16T08:50:18.367Z</time>
      </trkpt>
      <trkpt lat="45.64078" lon="5.63637">
        <ele>216</ele>
        <time>2022-04-16T08:50:19.368Z</time>
      </trkpt>
      <trkpt lat="45.64079" lon="5.6363">
        <ele>217</ele>
        <time>2022-04-16T08:50:20.368Z</time>
      </trkpt>
      <trkpt lat="45.64079" lon="5.63624">
        <ele>217</ele>
        <time>2022-04-16T08:50:21.368Z</time>
      </trkpt>
      <trkpt lat="45.64079" lon="5.63617">
        <ele>218</ele>
        <time>2022-04-16T08:50:22.368Z</time>
      </trkpt>
      <trkpt lat="45.64079" lon="5.6361">
        <ele>218</ele>
        <time>2022-04-16T08:50:23.367Z</time>
      </trkpt>
      <trkpt lat="45.64078" lon="5.63604">
        <ele>218</ele>
        <time>2022-04-16T08:50:24.368Z</time>
      </trkpt>
      <trkpt lat="45.64078" lon="5.63598">
        <ele>219</ele>
        <time>2022-04-16T08:50:25.368Z</time>
      </trkpt>
      <trkpt lat="45.64076" lon="5.63592">
        <ele>219</ele>
        <time>2022-04-16T08:50:26.367Z</time>
      </trkpt>
      <trkpt lat="45.64075" lon="5.63585">
        <ele>219</ele>
        <time>2022-04-16T08:50:27.368Z</time>
      </trkpt>
      <trkpt lat="45.64074" lon="5.63579">
        <ele>219</ele>
        <time>2022-04-16T08:50:28.368Z</time>
      </trkpt>
      <trkpt lat="45.64073" lon="5.63573">
        <ele>219</ele>
        <time>2022-04-16T08:50:29.367Z</time>
      </trkpt>
      <trkpt lat="45.64071" lon="5.63567">
        <ele>219</ele>
        <time>2022-04-16T08:50:30.367Z</time>
      </trkpt>
      <trkpt lat="45.6407" lon="5.63561">
        <ele>219</ele>
        <time>2022-04-16T08:50:31.368Z</time>
      </trkpt>
      <trkpt lat="45.64069" lon="5.63554">
        <ele>219</ele>
        <time>2022-04-16T08:50:32.368Z</time>
      </trkpt>
      <trkpt lat="45.64067" lon="5.63548">
        <ele>219</ele>
        <time>2022-04-16T08:50:33.368Z</time>
      </trkpt>
      <trkpt lat="45.64065" lon="5.63541">
        <ele>219</ele>
        <time>2022-04-16T08:50:34.367Z</time>
      </trkpt>
      <trkpt lat="45.64064" lon="5.63535">
        <ele>220</ele>
        <time>2022-04-16T08:50:35.368Z</time>
      </trkpt>
      <trkpt lat="45.64062" lon="5.63528">
        <ele>220</ele>
        <time>2022-04-16T08:50:36.367Z</time>
      </trkpt>
      <trkpt lat="45.64061" lon="5.63521">
        <ele>220</ele>
        <time>2022-04-16T08:50:37.368Z</time>
      </trkpt>
      <trkpt lat="45.64059" lon="5.63515">
        <ele>221</ele>
        <time>2022-04-16T08:50:38.368Z</time>
      </trkpt>
      <trkpt lat="45.64057" lon="5.63508">
        <ele>221</ele>
        <time>2022-04-16T08:50:39.368Z</time>
      </trkpt>
      <trkpt lat="45.64056" lon="5.63502">
        <ele>221</ele>
        <time>2022-04-16T08:50:40.368Z</time>
      </trkpt>
      <trkpt lat="45.64055" lon="5.63495">
        <ele>221</ele>
        <time>2022-04-16T08:50:41.368Z</time>
      </trkpt>
      <trkpt lat="45.64054" lon="5.63489">
        <ele>220</ele>
        <time>2022-04-16T08:50:42.368Z</time>
      </trkpt>
      <trkpt lat="45.64053" lon="5.63482">
        <ele>219</ele>
        <time>2022-04-16T08:50:43.368Z</time>
      </trkpt>
      <trkpt lat="45.64052" lon="5.63476">
        <ele>219</ele>
        <time>2022-04-16T08:50:44.368Z</time>
      </trkpt>
      <trkpt lat="45.64052" lon="5.63469">
        <ele>219</ele>
        <time>2022-04-16T08:50:45.368Z</time>
      </trkpt>
      <trkpt lat="45.64051" lon="5.63462">
        <ele>218</ele>
        <time>2022-04-16T08:50:46.368Z</time>
      </trkpt>
      <trkpt lat="45.6405" lon="5.63456">
        <ele>218</ele>
        <time>2022-04-16T08:50:47.367Z</time>
      </trkpt>
      <trkpt lat="45.6405" lon="5.63449">
        <ele>218</ele>
        <time>2022-04-16T08:50:48.368Z</time>
      </trkpt>
      <trkpt lat="45.64049" lon="5.63442">
        <ele>218</ele>
        <time>2022-04-16T08:50:49.368Z</time>
      </trkpt>
      <trkpt lat="45.64049" lon="5.63437">
        <ele>218</ele>
        <time>2022-04-16T08:50:50.367Z</time>
      </trkpt>
      <trkpt lat="45.64048" lon="5.63429">
        <ele>218</ele>
        <time>2022-04-16T08:50:51.367Z</time>
      </trkpt>
      <trkpt lat="45.64047" lon="5.63422">
        <ele>219</ele>
        <time>2022-04-16T08:50:52.368Z</time>
      </trkpt>
      <trkpt lat="45.64047" lon="5.63416">
        <ele>219</ele>
        <time>2022-04-16T08:50:53.368Z</time>
      </trkpt>
      <trkpt lat="45.64046" lon="5.63409">
        <ele>219</ele>
        <time>2022-04-16T08:50:54.367Z</time>
      </trkpt>
      <trkpt lat="45.64046" lon="5.63403">
        <ele>219</ele>
        <time>2022-04-16T08:50:55.368Z</time>
      </trkpt>
      <trkpt lat="45.64046" lon="5.63397">
        <ele>219</ele>
        <time>2022-04-16T08:50:56.368Z</time>
      </trkpt>
      <trkpt lat="45.64045" lon="5.6339">
        <ele>219</ele>
        <time>2022-04-16T08:50:57.367Z</time>
      </trkpt>
      <trkpt lat="45.64046" lon="5.63384">
        <ele>219</ele>
        <time>2022-04-16T08:50:58.368Z</time>
      </trkpt>
      <trkpt lat="45.64046" lon="5.63378">
        <ele>219</ele>
        <time>2022-04-16T08:50:59.368Z</time>
      </trkpt>
      <trkpt lat="45.64046" lon="5.63371">
        <ele>219</ele>
        <time>2022-04-16T08:51:00.368Z</time>
      </trkpt>
      <trkpt lat="45.64047" lon="5.63365">
        <ele>218</ele>
        <time>2022-04-16T08:51:01.368Z</time>
      </trkpt>
      <trkpt lat="45.64048" lon="5.63359">
        <ele>218</ele>
        <time>2022-04-16T08:51:02.368Z</time>
      </trkpt>
      <trkpt lat="45.64049" lon="5.63352">
        <ele>217</ele>
        <time>2022-04-16T08:51:03.368Z</time>
      </trkpt>
      <trkpt lat="45.6405" lon="5.63346">
        <ele>217</ele>
        <time>2022-04-16T08:51:04.368Z</time>
      </trkpt>
      <trkpt lat="45.64051" lon="5.6334">
        <ele>217</ele>
        <time>2022-04-16T08:51:05.367Z</time>
      </trkpt>
      <trkpt lat="45.64051" lon="5.63334">
        <ele>217</ele>
        <time>2022-04-16T08:51:06.368Z</time>
      </trkpt>
      <trkpt lat="45.64052" lon="5.63329">
        <ele>217</ele>
        <time>2022-04-16T08:51:07.368Z</time>
      </trkpt>
      <trkpt lat="45.64053" lon="5.63323">
        <ele>217</ele>
        <time>2022-04-16T08:51:08.367Z</time>
      </trkpt>
      <trkpt lat="45.64054" lon="5.63317">
        <ele>217</ele>
        <time>2022-04-16T08:51:09.368Z</time>
      </trkpt>
      <trkpt lat="45.64056" lon="5.63312">
        <ele>217</ele>
        <time>2022-04-16T08:51:10.368Z</time>
      </trkpt>
      <trkpt lat="45.64057" lon="5.63308">
        <ele>218</ele>
        <time>2022-04-16T08:51:11.367Z</time>
      </trkpt>
      <trkpt lat="45.64058" lon="5.63304">
        <ele>218</ele>
        <time>2022-04-16T08:51:12.368Z</time>
      </trkpt>
      <trkpt lat="45.64059" lon="5.63299">
        <ele>218</ele>
        <time>2022-04-16T08:51:13.368Z</time>
      </trkpt>
      <trkpt lat="45.64061" lon="5.63295">
        <ele>218</ele>
        <time>2022-04-16T08:51:14.368Z</time>
      </trkpt>
      <trkpt lat="45.64063" lon="5.6329">
        <ele>218</ele>
        <time>2022-04-16T08:51:15.368Z</time>
      </trkpt>
      <trkpt lat="45.64065" lon="5.63285">
        <ele>218</ele>
        <time>2022-04-16T08:51:16.368Z</time>
      </trkpt>
      <trkpt lat="45.64066" lon="5.6328">
        <ele>218</ele>
        <time>2022-04-16T08:51:17.368Z</time>
      </trkpt>
      <trkpt lat="45.64066" lon="5.63275">
        <ele>218</ele>
        <time>2022-04-16T08:51:18.368Z</time>
      </trkpt>
      <trkpt lat="45.64067" lon="5.6327">
        <ele>219</ele>
        <time>2022-04-16T08:51:19.368Z</time>
      </trkpt>
      <trkpt lat="45.64067" lon="5.63265">
        <ele>219</ele>
        <time>2022-04-16T08:51:20.368Z</time>
      </trkpt>
      <trkpt lat="45.64067" lon="5.63261">
        <ele>220</ele>
        <time>2022-04-16T08:51:21.368Z</time>
      </trkpt>
      <trkpt lat="45.64067" lon="5.63256">
        <ele>220</ele>
        <time>2022-04-16T08:51:22.368Z</time>
      </trkpt>
      <trkpt lat="45.64068" lon="5.63252">
        <ele>220</ele>
        <time>2022-04-16T08:51:23.368Z</time>
      </trkpt>
      <trkpt lat="45.64068" lon="5.63247">
        <ele>220</ele>
        <time>2022-04-16T08:51:24.367Z</time>
      </trkpt>
      <trkpt lat="45.64068" lon="5.63243">
        <ele>221</ele>
        <time>2022-04-16T08:51:25.368Z</time>
      </trkpt>
      <trkpt lat="45.64068" lon="5.63238">
        <ele>221</ele>
        <time>2022-04-16T08:51:26.367Z</time>
      </trkpt>
      <trkpt lat="45.64069" lon="5.63234">
        <ele>221</ele>
        <time>2022-04-16T08:51:27.368Z</time>
      </trkpt>
      <trkpt lat="45.64069" lon="5.6323">
        <ele>221</ele>
        <time>2022-04-16T08:51:28.368Z</time>
      </trkpt>
      <trkpt lat="45.64069" lon="5.63225">
        <ele>221</ele>
        <time>2022-04-16T08:51:29.367Z</time>
      </trkpt>
      <trkpt lat="45.64069" lon="5.63221">
        <ele>220</ele>
        <time>2022-04-16T08:51:30.368Z</time>
      </trkpt>
      <trkpt lat="45.6407" lon="5.63217">
        <ele>220</ele>
        <time>2022-04-16T08:51:31.368Z</time>
      </trkpt>
      <trkpt lat="45.6407" lon="5.63213">
        <ele>220</ele>
        <time>2022-04-16T08:51:32.368Z</time>
      </trkpt>
      <trkpt lat="45.6407" lon="5.63208">
        <ele>220</ele>
        <time>2022-04-16T08:51:33.368Z</time>
      </trkpt>
      <trkpt lat="45.6407" lon="5.63204">
        <ele>220</ele>
        <time>2022-04-16T08:51:34.368Z</time>
      </trkpt>
      <trkpt lat="45.6407" lon="5.63199">
        <ele>220</ele>
        <time>2022-04-16T08:51:35.367Z</time>
      </trkpt>
      <trkpt lat="45.64071" lon="5.63195">
        <ele>220</ele>
        <time>2022-04-16T08:51:36.368Z</time>
      </trkpt>
      <trkpt lat="45.64071" lon="5.63191">
        <ele>220</ele>
        <time>2022-04-16T08:51:37.368Z</time>
      </trkpt>
      <trkpt lat="45.64072" lon="5.63186">
        <ele>220</ele>
        <time>2022-04-16T08:51:38.368Z</time>
      </trkpt>
      <trkpt lat="45.64072" lon="5.63182">
        <ele>220</ele>
        <time>2022-04-16T08:51:39.368Z</time>
      </trkpt>
      <trkpt lat="45.64072" lon="5.63178">
        <ele>221</ele>
        <time>2022-04-16T08:51:40.367Z</time>
      </trkpt>
      <trkpt lat="45.64072" lon="5.63174">
        <ele>220</ele>
        <time>2022-04-16T08:51:41.367Z</time>
      </trkpt>
      <trkpt lat="45.64072" lon="5.63169">
        <ele>220</ele>
        <time>2022-04-16T08:51:42.368Z</time>
      </trkpt>
      <trkpt lat="45.64073" lon="5.63165">
        <ele>220</ele>
        <time>2022-04-16T08:51:43.368Z</time>
      </trkpt>
      <trkpt lat="45.64074" lon="5.6316">
        <ele>220</ele>
        <time>2022-04-16T08:51:44.367Z</time>
      </trkpt>
      <trkpt lat="45.64074" lon="5.63156">
        <ele>220</ele>
        <time>2022-04-16T08:51:45.368Z</time>
      </trkpt>
      <trkpt lat="45.64074" lon="5.63152">
        <ele>220</ele>
        <time>2022-04-16T08:51:46.367Z</time>
      </trkpt>
      <trkpt lat="45.64074" lon="5.63147">
        <ele>220</ele>
        <time>2022-04-16T08:51:47.368Z</time>
      </trkpt>
      <trkpt lat="45.64075" lon="5.63143">
        <ele>220</ele>
        <time>2022-04-16T08:51:48.368Z</time>
      </trkpt>
      <trkpt lat="45.64075" lon="5.63139">
        <ele>219</ele>
        <time>2022-04-16T08:51:49.368Z</time>
      </trkpt>
      <trkpt lat="45.64076" lon="5.63134">
        <ele>219</ele>
        <time>2022-04-16T08:51:50.368Z</time>
      </trkpt>
      <trkpt lat="45.64076" lon="5.6313">
        <ele>219</ele>
        <time>2022-04-16T08:51:51.368Z</time>
      </trkpt>
      <trkpt lat="45.64077" lon="5.63125">
        <ele>218</ele>
        <time>2022-04-16T08:51:52.368Z</time>
      </trkpt>
      <trkpt lat="45.64077" lon="5.63121">
        <ele>218</ele>
        <time>2022-04-16T08:51:53.368Z</time>
      </trkpt>
      <trkpt lat="45.64078" lon="5.63117">
        <ele>218</ele>
        <time>2022-04-16T08:51:54.368Z</time>
      </trkpt>
      <trkpt lat="45.64079" lon="5.63113">
        <ele>218</ele>
        <time>2022-04-16T08:51:55.367Z</time>
      </trkpt>
      <trkpt lat="45.6408" lon="5.63109">
        <ele>218</ele>
        <time>2022-04-16T08:51:56.368Z</time>
      </trkpt>
      <trkpt lat="45.64081" lon="5.63104">
        <ele>218</ele>
        <time>2022-04-16T08:51:57.368Z</time>
      </trkpt>
      <trkpt lat="45.64082" lon="5.631">
        <ele>219</ele>
        <time>2022-04-16T08:51:58.368Z</time>
      </trkpt>
      <trkpt lat="45.64083" lon="5.63096">
        <ele>219</ele>
        <time>2022-04-16T08:51:59.368Z</time>
      </trkpt>
      <trkpt lat="45.64085" lon="5.63091">
        <ele>220</ele>
        <time>2022-04-16T08:52:00.367Z</time>
      </trkpt>
      <trkpt lat="45.64086" lon="5.63088">
        <ele>221</ele>
        <time>2022-04-16T08:52:01.367Z</time>
      </trkpt>
      <trkpt lat="45.64087" lon="5.63084">
        <ele>222</ele>
        <time>2022-04-16T08:52:02.367Z</time>
      </trkpt>
      <trkpt lat="45.64088" lon="5.63079">
        <ele>223</ele>
        <time>2022-04-16T08:52:03.367Z</time>
      </trkpt>
      <trkpt lat="45.64089" lon="5.63075">
        <ele>224</ele>
        <time>2022-04-16T08:52:04.367Z</time>
      </trkpt>
      <trkpt lat="45.64091" lon="5.6307">
        <ele>225</ele>
        <time>2022-04-16T08:52:05.367Z</time>
      </trkpt>
      <trkpt lat="45.64092" lon="5.63066">
        <ele>225</ele>
        <time>2022-04-16T08:52:06.367Z</time>
      </trkpt>
      <trkpt lat="45.64093" lon="5.63062">
        <ele>225</ele>
        <time>2022-04-16T08:52:07.368Z</time>
      </trkpt>
      <trkpt lat="45.64094" lon="5.63057">
        <ele>225</ele>
        <time>2022-04-16T08:52:08.368Z</time>
      </trkpt>
      <trkpt lat="45.64095" lon="5.63053">
        <ele>225</ele>
        <time>2022-04-16T08:52:09.368Z</time>
      </trkpt>
      <trkpt lat="45.64097" lon="5.63048">
        <ele>226</ele>
        <time>2022-04-16T08:52:10.367Z</time>
      </trkpt>
      <trkpt lat="45.64098" lon="5.63044">
        <ele>226</ele>
        <time>2022-04-16T08:52:11.367Z</time>
      </trkpt>
      <trkpt lat="45.64099" lon="5.63039">
        <ele>226</ele>
        <time>2022-04-16T08:52:12.367Z</time>
      </trkpt>
      <trkpt lat="45.64101" lon="5.63034">
        <ele>226</ele>
        <time>2022-04-16T08:52:13.368Z</time>
      </trkpt>
      <trkpt lat="45.64102" lon="5.63029">
        <ele>226</ele>
        <time>2022-04-16T08:52:14.367Z</time>
      </trkpt>
      <trkpt lat="45.64103" lon="5.63023">
        <ele>226</ele>
        <time>2022-04-16T08:52:15.367Z</time>
      </trkpt>
      <trkpt lat="45.64105" lon="5.63017">
        <ele>226</ele>
        <time>2022-04-16T08:52:16.367Z</time>
      </trkpt>
      <trkpt lat="45.64106" lon="5.63011">
        <ele>226</ele>
        <time>2022-04-16T08:52:17.367Z</time>
      </trkpt>
      <trkpt lat="45.64107" lon="5.63005">
        <ele>226</ele>
        <time>2022-04-16T08:52:18.367Z</time>
      </trkpt>
      <trkpt lat="45.64108" lon="5.62998">
        <ele>227</ele>
        <time>2022-04-16T08:52:19.367Z</time>
      </trkpt>
      <trkpt lat="45.64109" lon="5.62991">
        <ele>227</ele>
        <time>2022-04-16T08:52:20.368Z</time>
      </trkpt>
      <trkpt lat="45.64109" lon="5.62984">
        <ele>227</ele>
        <time>2022-04-16T08:52:21.368Z</time>
      </trkpt>
      <trkpt lat="45.6411" lon="5.62976">
        <ele>228</ele>
        <time>2022-04-16T08:52:22.368Z</time>
      </trkpt>
      <trkpt lat="45.64111" lon="5.62968">
        <ele>228</ele>
        <time>2022-04-16T08:52:23.368Z</time>
      </trkpt>
      <trkpt lat="45.64111" lon="5.6296">
        <ele>228</ele>
        <time>2022-04-16T08:52:24.368Z</time>
      </trkpt>
      <trkpt lat="45.64112" lon="5.62951">
        <ele>228</ele>
        <time>2022-04-16T08:52:25.367Z</time>
      </trkpt>
      <trkpt lat="45.64112" lon="5.62943">
        <ele>228</ele>
        <time>2022-04-16T08:52:26.367Z</time>
      </trkpt>
      <trkpt lat="45.64112" lon="5.62934">
        <ele>228</ele>
        <time>2022-04-16T08:52:27.368Z</time>
      </trkpt>
      <trkpt lat="45.64113" lon="5.62925">
        <ele>228</ele>
        <time>2022-04-16T08:52:28.368Z</time>
      </trkpt>
      <trkpt lat="45.64113" lon="5.62916">
        <ele>227</ele>
        <time>2022-04-16T08:52:29.368Z</time>
      </trkpt>
      <trkpt lat="45.64113" lon="5.62907">
        <ele>227</ele>
        <time>2022-04-16T08:52:30.367Z</time>
      </trkpt>
      <trkpt lat="45.64113" lon="5.62898">
        <ele>227</ele>
        <time>2022-04-16T08:52:31.367Z</time>
      </trkpt>
      <trkpt lat="45.64113" lon="5.62889">
        <ele>227</ele>
        <time>2022-04-16T08:52:32.368Z</time>
      </trkpt>
      <trkpt lat="45.64113" lon="5.6288">
        <ele>227</ele>
        <time>2022-04-16T08:52:33.368Z</time>
      </trkpt>
      <trkpt lat="45.64114" lon="5.62871">
        <ele>227</ele>
        <time>2022-04-16T08:52:34.367Z</time>
      </trkpt>
      <trkpt lat="45.64114" lon="5.62862">
        <ele>226</ele>
        <time>2022-04-16T08:52:35.367Z</time>
      </trkpt>
      <trkpt lat="45.64115" lon="5.62854">
        <ele>226</ele>
        <time>2022-04-16T08:52:36.367Z</time>
      </trkpt>
      <trkpt lat="45.64115" lon="5.62846">
        <ele>226</ele>
        <time>2022-04-16T08:52:37.367Z</time>
      </trkpt>
      <trkpt lat="45.64116" lon="5.62838">
        <ele>226</ele>
        <time>2022-04-16T08:52:38.368Z</time>
      </trkpt>
      <trkpt lat="45.64117" lon="5.6283">
        <ele>226</ele>
        <time>2022-04-16T08:52:39.368Z</time>
      </trkpt>
      <trkpt lat="45.64117" lon="5.62823">
        <ele>226</ele>
        <time>2022-04-16T08:52:40.368Z</time>
      </trkpt>
      <trkpt lat="45.64118" lon="5.62816">
        <ele>225</ele>
        <time>2022-04-16T08:52:41.367Z</time>
      </trkpt>
      <trkpt lat="45.6412" lon="5.62811">
        <ele>225</ele>
        <time>2022-04-16T08:52:42.367Z</time>
      </trkpt>
      <trkpt lat="45.64121" lon="5.62805">
        <ele>225</ele>
        <time>2022-04-16T08:52:43.367Z</time>
      </trkpt>
      <trkpt lat="45.64122" lon="5.628">
        <ele>224</ele>
        <time>2022-04-16T08:52:44.367Z</time>
      </trkpt>
      <trkpt lat="45.64123" lon="5.62795">
        <ele>224</ele>
        <time>2022-04-16T08:52:45.367Z</time>
      </trkpt>
      <trkpt lat="45.64123" lon="5.62792">
        <ele>224</ele>
        <time>2022-04-16T08:52:46.368Z</time>
      </trkpt>
      <trkpt lat="45.64125" lon="5.62787">
        <ele>224</ele>
        <time>2022-04-16T08:52:47.367Z</time>
      </trkpt>
      <trkpt lat="45.64126" lon="5.62782">
        <ele>224</ele>
        <time>2022-04-16T08:52:48.368Z</time>
      </trkpt>
      <trkpt lat="45.64127" lon="5.62778">
        <ele>224</ele>
        <time>2022-04-16T08:52:49.368Z</time>
      </trkpt>
      <trkpt lat="45.64128" lon="5.62774">
        <ele>224</ele>
        <time>2022-04-16T08:52:50.368Z</time>
      </trkpt>
      <trkpt lat="45.64129" lon="5.62769">
        <ele>224</ele>
        <time>2022-04-16T08:52:51.368Z</time>
      </trkpt>
      <trkpt lat="45.64131" lon="5.62765">
        <ele>224</ele>
        <time>2022-04-16T08:52:52.368Z</time>
      </trkpt>
      <trkpt lat="45.64132" lon="5.62761">
        <ele>224</ele>
        <time>2022-04-16T08:52:53.368Z</time>
      </trkpt>
      <trkpt lat="45.64133" lon="5.62757">
        <ele>224</ele>
        <time>2022-04-16T08:52:54.368Z</time>
      </trkpt>
      <trkpt lat="45.64134" lon="5.62753">
        <ele>224</ele>
        <time>2022-04-16T08:52:55.368Z</time>
      </trkpt>
      <trkpt lat="45.64136" lon="5.62749">
        <ele>225</ele>
        <time>2022-04-16T08:52:56.368Z</time>
      </trkpt>
      <trkpt lat="45.64137" lon="5.62746">
        <ele>225</ele>
        <time>2022-04-16T08:52:57.368Z</time>
      </trkpt>
      <trkpt lat="45.64138" lon="5.62744">
        <ele>224</ele>
        <time>2022-04-16T08:52:58.368Z</time>
      </trkpt>
      <trkpt lat="45.6414" lon="5.62741">
        <ele>224</ele>
        <time>2022-04-16T08:52:59.368Z</time>
      </trkpt>
      <trkpt lat="45.64141" lon="5.62738">
        <ele>224</ele>
        <time>2022-04-16T08:53:00.368Z</time>
      </trkpt>
      <trkpt lat="45.64142" lon="5.62735">
        <ele>223</ele>
        <time>2022-04-16T08:53:01.368Z</time>
      </trkpt>
      <trkpt lat="45.64143" lon="5.62731">
        <ele>223</ele>
        <time>2022-04-16T08:53:02.368Z</time>
      </trkpt>
      <trkpt lat="45.64144" lon="5.62727">
        <ele>223</ele>
        <time>2022-04-16T08:53:03.367Z</time>
      </trkpt>
      <trkpt lat="45.64145" lon="5.62723">
        <ele>223</ele>
        <time>2022-04-16T08:53:04.367Z</time>
      </trkpt>
      <trkpt lat="45.64146" lon="5.62719">
        <ele>223</ele>
        <time>2022-04-16T08:53:05.368Z</time>
      </trkpt>
      <trkpt lat="45.64147" lon="5.62715">
        <ele>223</ele>
        <time>2022-04-16T08:53:06.367Z</time>
      </trkpt>
      <trkpt lat="45.64148" lon="5.6271">
        <ele>223</ele>
        <time>2022-04-16T08:53:07.368Z</time>
      </trkpt>
      <trkpt lat="45.64148" lon="5.62706">
        <ele>223</ele>
        <time>2022-04-16T08:53:08.368Z</time>
      </trkpt>
      <trkpt lat="45.64149" lon="5.62701">
        <ele>222</ele>
        <time>2022-04-16T08:53:09.368Z</time>
      </trkpt>
      <trkpt lat="45.6415" lon="5.62697">
        <ele>222</ele>
        <time>2022-04-16T08:53:10.368Z</time>
      </trkpt>
      <trkpt lat="45.64151" lon="5.62692">
        <ele>222</ele>
        <time>2022-04-16T08:53:11.368Z</time>
      </trkpt>
      <trkpt lat="45.64152" lon="5.62687">
        <ele>223</ele>
        <time>2022-04-16T08:53:12.367Z</time>
      </trkpt>
      <trkpt lat="45.64152" lon="5.62682">
        <ele>223</ele>
        <time>2022-04-16T08:53:13.368Z</time>
      </trkpt>
      <trkpt lat="45.64153" lon="5.62677">
        <ele>224</ele>
        <time>2022-04-16T08:53:14.367Z</time>
      </trkpt>
      <trkpt lat="45.64154" lon="5.62673">
        <ele>224</ele>
        <time>2022-04-16T08:53:15.368Z</time>
      </trkpt>
      <trkpt lat="45.64155" lon="5.62668">
        <ele>225</ele>
        <time>2022-04-16T08:53:16.368Z</time>
      </trkpt>
      <trkpt lat="45.64156" lon="5.62663">
        <ele>225</ele>
        <time>2022-04-16T08:53:17.368Z</time>
      </trkpt>
      <trkpt lat="45.64155" lon="5.62658">
        <ele>225</ele>
        <time>2022-04-16T08:53:18.368Z</time>
      </trkpt>
      <trkpt lat="45.64155" lon="5.62652">
        <ele>226</ele>
        <time>2022-04-16T08:53:19.368Z</time>
      </trkpt>
      <trkpt lat="45.64155" lon="5.62648">
        <ele>226</ele>
        <time>2022-04-16T08:53:20.368Z</time>
      </trkpt>
      <trkpt lat="45.64154" lon="5.62643">
        <ele>227</ele>
        <time>2022-04-16T08:53:21.368Z</time>
      </trkpt>
      <trkpt lat="45.64154" lon="5.62639">
        <ele>227</ele>
        <time>2022-04-16T08:53:22.367Z</time>
      </trkpt>
      <trkpt lat="45.64153" lon="5.62634">
        <ele>227</ele>
        <time>2022-04-16T08:53:23.368Z</time>
      </trkpt>
      <trkpt lat="45.64152" lon="5.6263">
        <ele>227</ele>
        <time>2022-04-16T08:53:24.368Z</time>
      </trkpt>
      <trkpt lat="45.64151" lon="5.62625">
        <ele>227</ele>
        <time>2022-04-16T08:53:25.367Z</time>
      </trkpt>
      <trkpt lat="45.6415" lon="5.62621">
        <ele>228</ele>
        <time>2022-04-16T08:53:26.368Z</time>
      </trkpt>
      <trkpt lat="45.64149" lon="5.62616">
        <ele>228</ele>
        <time>2022-04-16T08:53:27.368Z</time>
      </trkpt>
      <trkpt lat="45.64149" lon="5.62612">
        <ele>229</ele>
        <time>2022-04-16T08:53:28.368Z</time>
      </trkpt>
      <trkpt lat="45.64148" lon="5.62609">
        <ele>230</ele>
        <time>2022-04-16T08:53:29.368Z</time>
      </trkpt>
      <trkpt lat="45.64147" lon="5.62605">
        <ele>230</ele>
        <time>2022-04-16T08:53:30.368Z</time>
      </trkpt>
      <trkpt lat="45.64147" lon="5.62601">
        <ele>230</ele>
        <time>2022-04-16T08:53:31.368Z</time>
      </trkpt>
      <trkpt lat="45.64146" lon="5.62598">
        <ele>231</ele>
        <time>2022-04-16T08:53:32.368Z</time>
      </trkpt>
      <trkpt lat="45.64145" lon="5.62594">
        <ele>231</ele>
        <time>2022-04-16T08:53:33.368Z</time>
      </trkpt>
      <trkpt lat="45.64145" lon="5.62591">
        <ele>232</ele>
        <time>2022-04-16T08:53:34.367Z</time>
      </trkpt>
      <trkpt lat="45.64144" lon="5.62589">
        <ele>233</ele>
        <time>2022-04-16T08:53:35.368Z</time>
      </trkpt>
      <trkpt lat="45.64144" lon="5.62588">
        <ele>233</ele>
        <time>2022-04-16T08:53:36.367Z</time>
      </trkpt>
      <trkpt lat="45.64144" lon="5.62586">
        <ele>233</ele>
        <time>2022-04-16T08:53:37.368Z</time>
      </trkpt>
      <trkpt lat="45.64144" lon="5.62585">
        <ele>233</ele>
        <time>2022-04-16T08:53:38.367Z</time>
      </trkpt>
      <trkpt lat="45.64143" lon="5.62583">
        <ele>233</ele>
        <time>2022-04-16T08:53:39.368Z</time>
      </trkpt>
      <trkpt lat="45.64143" lon="5.62582">
        <ele>233</ele>
        <time>2022-04-16T08:53:40.368Z</time>
      </trkpt>
      <trkpt lat="45.64143" lon="5.62581">
        <ele>233</ele>
        <time>2022-04-16T08:53:41.368Z</time>
      </trkpt>
      <trkpt lat="45.64143" lon="5.6258">
        <ele>233</ele>
        <time>2022-04-16T08:53:42.368Z</time>
      </trkpt>
      <trkpt lat="45.64143" lon="5.62579">
        <ele>232</ele>
        <time>2022-04-16T08:53:43.368Z</time>
      </trkpt>
      <trkpt lat="45.64144" lon="5.62578">
        <ele>232</ele>
        <time>2022-04-16T08:53:44.368Z</time>
      </trkpt>
      <trkpt lat="45.64144" lon="5.62578">
        <ele>231</ele>
        <time>2022-04-16T08:53:45.368Z</time>
      </trkpt>
      <trkpt lat="45.64144" lon="5.62578">
        <ele>231</ele>
        <time>2022-04-16T08:53:46.368Z</time>
      </trkpt>
      <trkpt lat="45.64144" lon="5.62576">
        <ele>230</ele>
        <time>2022-04-16T08:53:49.516Z</time>
      </trkpt>
      <trkpt lat="45.64145" lon="5.62574">
        <ele>230</ele>
        <time>2022-04-16T08:53:50.516Z</time>
      </trkpt>
      <trkpt lat="45.64146" lon="5.62572">
        <ele>230</ele>
        <time>2022-04-16T08:53:51.515Z</time>
      </trkpt>
      <trkpt lat="45.64147" lon="5.6257">
        <ele>230</ele>
        <time>2022-04-16T08:53:52.515Z</time>
      </trkpt>
      <trkpt lat="45.64148" lon="5.62567">
        <ele>229</ele>
        <time>2022-04-16T08:53:53.515Z</time>
      </trkpt>
      <trkpt lat="45.64148" lon="5.62565">
        <ele>229</ele>
        <time>2022-04-16T08:53:54.516Z</time>
      </trkpt>
      <trkpt lat="45.64147" lon="5.62564">
        <ele>228</ele>
        <time>2022-04-16T08:53:55.515Z</time>
      </trkpt>
      <trkpt lat="45.64146" lon="5.62562">
        <ele>228</ele>
        <time>2022-04-16T08:53:56.516Z</time>
      </trkpt>
      <trkpt lat="45.64143" lon="5.62561">
        <ele>228</ele>
        <time>2022-04-16T08:53:57.516Z</time>
      </trkpt>
      <trkpt lat="45.6414" lon="5.6256">
        <ele>228</ele>
        <time>2022-04-16T08:53:58.515Z</time>
      </trkpt>
      <trkpt lat="45.64137" lon="5.62558">
        <ele>228</ele>
        <time>2022-04-16T08:53:59.515Z</time>
      </trkpt>
      <trkpt lat="45.64134" lon="5.62556">
        <ele>228</ele>
        <time>2022-04-16T08:54:00.516Z</time>
      </trkpt>
      <trkpt lat="45.64131" lon="5.62553">
        <ele>228</ele>
        <time>2022-04-16T08:54:01.516Z</time>
      </trkpt>
      <trkpt lat="45.64127" lon="5.6255">
        <ele>228</ele>
        <time>2022-04-16T08:54:02.516Z</time>
      </trkpt>
      <trkpt lat="45.64124" lon="5.62547">
        <ele>228</ele>
        <time>2022-04-16T08:54:03.515Z</time>
      </trkpt>
      <trkpt lat="45.64121" lon="5.62544">
        <ele>228</ele>
        <time>2022-04-16T08:54:04.516Z</time>
      </trkpt>
      <trkpt lat="45.64117" lon="5.62541">
        <ele>229</ele>
        <time>2022-04-16T08:54:05.516Z</time>
      </trkpt>
      <trkpt lat="45.64114" lon="5.62538">
        <ele>229</ele>
        <time>2022-04-16T08:54:06.516Z</time>
      </trkpt>
      <trkpt lat="45.64111" lon="5.62535">
        <ele>230</ele>
        <time>2022-04-16T08:54:07.515Z</time>
      </trkpt>
      <trkpt lat="45.64107" lon="5.62532">
        <ele>230</ele>
        <time>2022-04-16T08:54:08.516Z</time>
      </trkpt>
      <trkpt lat="45.64104" lon="5.62529">
        <ele>230</ele>
        <time>2022-04-16T08:54:09.516Z</time>
      </trkpt>
      <trkpt lat="45.64101" lon="5.62526">
        <ele>231</ele>
        <time>2022-04-16T08:54:10.516Z</time>
      </trkpt>
      <trkpt lat="45.64098" lon="5.62522">
        <ele>231</ele>
        <time>2022-04-16T08:54:11.516Z</time>
      </trkpt>
      <trkpt lat="45.64093" lon="5.62516">
        <ele>232</ele>
        <time>2022-04-16T08:54:12.516Z</time>
      </trkpt>
      <trkpt lat="45.6409" lon="5.62513">
        <ele>232</ele>
        <time>2022-04-16T08:54:13.516Z</time>
      </trkpt>
      <trkpt lat="45.64087" lon="5.62509">
        <ele>233</ele>
        <time>2022-04-16T08:54:14.515Z</time>
      </trkpt>
      <trkpt lat="45.64084" lon="5.62505">
        <ele>233</ele>
        <time>2022-04-16T08:54:15.516Z</time>
      </trkpt>
      <trkpt lat="45.64081" lon="5.62501">
        <ele>234</ele>
        <time>2022-04-16T08:54:16.515Z</time>
      </trkpt>
      <trkpt lat="45.64078" lon="5.62496">
        <ele>234</ele>
        <time>2022-04-16T08:54:17.516Z</time>
      </trkpt>
      <trkpt lat="45.64075" lon="5.62492">
        <ele>235</ele>
        <time>2022-04-16T08:54:18.516Z</time>
      </trkpt>
      <trkpt lat="45.64072" lon="5.62488">
        <ele>235</ele>
        <time>2022-04-16T08:54:19.515Z</time>
      </trkpt>
      <trkpt lat="45.64069" lon="5.62484">
        <ele>235</ele>
        <time>2022-04-16T08:54:20.515Z</time>
      </trkpt>
      <trkpt lat="45.64066" lon="5.62479">
        <ele>235</ele>
        <time>2022-04-16T08:54:21.516Z</time>
      </trkpt>
      <trkpt lat="45.64063" lon="5.62475">
        <ele>235</ele>
        <time>2022-04-16T08:54:22.516Z</time>
      </trkpt>
      <trkpt lat="45.6406" lon="5.6247">
        <ele>235</ele>
        <time>2022-04-16T08:54:23.515Z</time>
      </trkpt>
      <trkpt lat="45.64057" lon="5.62466">
        <ele>234</ele>
        <time>2022-04-16T08:54:24.515Z</time>
      </trkpt>
      <trkpt lat="45.64055" lon="5.62461">
        <ele>234</ele>
        <time>2022-04-16T08:54:25.516Z</time>
      </trkpt>
      <trkpt lat="45.64052" lon="5.62456">
        <ele>234</ele>
        <time>2022-04-16T08:54:26.516Z</time>
      </trkpt>
      <trkpt lat="45.64049" lon="5.62451">
        <ele>234</ele>
        <time>2022-04-16T08:54:27.515Z</time>
      </trkpt>
      <trkpt lat="45.64046" lon="5.62445">
        <ele>235</ele>
        <time>2022-04-16T08:54:28.516Z</time>
      </trkpt>
      <trkpt lat="45.64043" lon="5.62439">
        <ele>235</ele>
        <time>2022-04-16T08:54:29.516Z</time>
      </trkpt>
      <trkpt lat="45.6404" lon="5.62433">
        <ele>234</ele>
        <time>2022-04-16T08:54:30.516Z</time>
      </trkpt>
      <trkpt lat="45.64037" lon="5.62426">
        <ele>233</ele>
        <time>2022-04-16T08:54:31.516Z</time>
      </trkpt>
      <trkpt lat="45.64033" lon="5.62419">
        <ele>233</ele>
        <time>2022-04-16T08:54:32.515Z</time>
      </trkpt>
      <trkpt lat="45.6403" lon="5.62413">
        <ele>232</ele>
        <time>2022-04-16T08:54:33.516Z</time>
      </trkpt>
      <trkpt lat="45.64026" lon="5.62406">
        <ele>231</ele>
        <time>2022-04-16T08:54:34.515Z</time>
      </trkpt>
      <trkpt lat="45.64023" lon="5.62399">
        <ele>231</ele>
        <time>2022-04-16T08:54:35.516Z</time>
      </trkpt>
      <trkpt lat="45.6402" lon="5.62392">
        <ele>231</ele>
        <time>2022-04-16T08:54:36.516Z</time>
      </trkpt>
      <trkpt lat="45.64016" lon="5.62386">
        <ele>231</ele>
        <time>2022-04-16T08:54:37.515Z</time>
      </trkpt>
      <trkpt lat="45.64013" lon="5.6238">
        <ele>230</ele>
        <time>2022-04-16T08:54:38.516Z</time>
      </trkpt>
      <trkpt lat="45.64009" lon="5.62375">
        <ele>229</ele>
        <time>2022-04-16T08:54:39.516Z</time>
      </trkpt>
      <trkpt lat="45.64005" lon="5.62369">
        <ele>229</ele>
        <time>2022-04-16T08:54:40.515Z</time>
      </trkpt>
      <trkpt lat="45.64001" lon="5.62364">
        <ele>229</ele>
        <time>2022-04-16T08:54:41.516Z</time>
      </trkpt>
      <trkpt lat="45.63997" lon="5.62359">
        <ele>229</ele>
        <time>2022-04-16T08:54:42.516Z</time>
      </trkpt>
      <trkpt lat="45.63993" lon="5.62355">
        <ele>229</ele>
        <time>2022-04-16T08:54:43.515Z</time>
      </trkpt>
      <trkpt lat="45.63988" lon="5.6235">
        <ele>229</ele>
        <time>2022-04-16T08:54:44.516Z</time>
      </trkpt>
      <trkpt lat="45.63983" lon="5.62346">
        <ele>230</ele>
        <time>2022-04-16T08:54:45.516Z</time>
      </trkpt>
      <trkpt lat="45.63978" lon="5.62342">
        <ele>230</ele>
        <time>2022-04-16T08:54:46.516Z</time>
      </trkpt>
      <trkpt lat="45.63973" lon="5.62338">
        <ele>229</ele>
        <time>2022-04-16T08:54:47.516Z</time>
      </trkpt>
      <trkpt lat="45.63968" lon="5.62335">
        <ele>229</ele>
        <time>2022-04-16T08:54:48.515Z</time>
      </trkpt>
      <trkpt lat="45.63962" lon="5.62332">
        <ele>229</ele>
        <time>2022-04-16T08:54:49.515Z</time>
      </trkpt>
      <trkpt lat="45.63957" lon="5.62329">
        <ele>229</ele>
        <time>2022-04-16T08:54:50.515Z</time>
      </trkpt>
      <trkpt lat="45.63951" lon="5.62327">
        <ele>229</ele>
        <time>2022-04-16T08:54:51.515Z</time>
      </trkpt>
      <trkpt lat="45.63946" lon="5.62324">
        <ele>229</ele>
        <time>2022-04-16T08:54:52.516Z</time>
      </trkpt>
      <trkpt lat="45.6394" lon="5.62322">
        <ele>229</ele>
        <time>2022-04-16T08:54:53.515Z</time>
      </trkpt>
      <trkpt lat="45.63934" lon="5.62321">
        <ele>229</ele>
        <time>2022-04-16T08:54:54.515Z</time>
      </trkpt>
      <trkpt lat="45.63929" lon="5.62319">
        <ele>229</ele>
        <time>2022-04-16T08:54:55.516Z</time>
      </trkpt>
      <trkpt lat="45.63923" lon="5.62317">
        <ele>228</ele>
        <time>2022-04-16T08:54:56.515Z</time>
      </trkpt>
      <trkpt lat="45.63917" lon="5.62315">
        <ele>228</ele>
        <time>2022-04-16T08:54:57.515Z</time>
      </trkpt>
      <trkpt lat="45.63912" lon="5.62314">
        <ele>227</ele>
        <time>2022-04-16T08:54:58.515Z</time>
      </trkpt>
      <trkpt lat="45.63908" lon="5.62313">
        <ele>227</ele>
        <time>2022-04-16T08:54:59.516Z</time>
      </trkpt>
      <trkpt lat="45.63901" lon="5.62311">
        <ele>227</ele>
        <time>2022-04-16T08:55:00.516Z</time>
      </trkpt>
      <trkpt lat="45.63896" lon="5.6231">
        <ele>227</ele>
        <time>2022-04-16T08:55:01.516Z</time>
      </trkpt>
      <trkpt lat="45.63891" lon="5.62308">
        <ele>227</ele>
        <time>2022-04-16T08:55:02.516Z</time>
      </trkpt>
      <trkpt lat="45.63885" lon="5.62307">
        <ele>227</ele>
        <time>2022-04-16T08:55:03.515Z</time>
      </trkpt>
      <trkpt lat="45.6388" lon="5.62305">
        <ele>227</ele>
        <time>2022-04-16T08:55:04.516Z</time>
      </trkpt>
      <trkpt lat="45.63875" lon="5.62304">
        <ele>227</ele>
        <time>2022-04-16T08:55:05.515Z</time>
      </trkpt>
      <trkpt lat="45.63869" lon="5.62302">
        <ele>227</ele>
        <time>2022-04-16T08:55:06.516Z</time>
      </trkpt>
      <trkpt lat="45.63864" lon="5.62301">
        <ele>227</ele>
        <time>2022-04-16T08:55:07.516Z</time>
      </trkpt>
      <trkpt lat="45.63859" lon="5.62299">
        <ele>227</ele>
        <time>2022-04-16T08:55:08.515Z</time>
      </trkpt>
      <trkpt lat="45.63853" lon="5.62298">
        <ele>227</ele>
        <time>2022-04-16T08:55:09.515Z</time>
      </trkpt>
      <trkpt lat="45.63848" lon="5.62296">
        <ele>227</ele>
        <time>2022-04-16T08:55:10.515Z</time>
      </trkpt>
      <trkpt lat="45.63843" lon="5.62295">
        <ele>227</ele>
        <time>2022-04-16T08:55:11.516Z</time>
      </trkpt>
      <trkpt lat="45.63837" lon="5.62293">
        <ele>227</ele>
        <time>2022-04-16T08:55:12.516Z</time>
      </trkpt>
      <trkpt lat="45.63832" lon="5.62292">
        <ele>227</ele>
        <time>2022-04-16T08:55:13.516Z</time>
      </trkpt>
      <trkpt lat="45.63827" lon="5.62291">
        <ele>227</ele>
        <time>2022-04-16T08:55:14.516Z</time>
      </trkpt>
      <trkpt lat="45.63821" lon="5.62289">
        <ele>227</ele>
        <time>2022-04-16T08:55:15.516Z</time>
      </trkpt>
      <trkpt lat="45.63816" lon="5.62288">
        <ele>227</ele>
        <time>2022-04-16T08:55:16.515Z</time>
      </trkpt>
      <trkpt lat="45.63811" lon="5.62286">
        <ele>227</ele>
        <time>2022-04-16T08:55:17.516Z</time>
      </trkpt>
      <trkpt lat="45.63807" lon="5.62285">
        <ele>228</ele>
        <time>2022-04-16T08:55:18.515Z</time>
      </trkpt>
      <trkpt lat="45.63802" lon="5.62284">
        <ele>228</ele>
        <time>2022-04-16T08:55:19.515Z</time>
      </trkpt>
      <trkpt lat="45.63798" lon="5.62283">
        <ele>228</ele>
        <time>2022-04-16T08:55:20.516Z</time>
      </trkpt>
      <trkpt lat="45.63792" lon="5.62281">
        <ele>228</ele>
        <time>2022-04-16T08:55:21.516Z</time>
      </trkpt>
      <trkpt lat="45.63787" lon="5.6228">
        <ele>228</ele>
        <time>2022-04-16T08:55:22.515Z</time>
      </trkpt>
      <trkpt lat="45.63781" lon="5.62278">
        <ele>228</ele>
        <time>2022-04-16T08:55:23.515Z</time>
      </trkpt>
      <trkpt lat="45.63776" lon="5.62277">
        <ele>228</ele>
        <time>2022-04-16T08:55:24.515Z</time>
      </trkpt>
      <trkpt lat="45.6377" lon="5.62275">
        <ele>228</ele>
        <time>2022-04-16T08:55:25.515Z</time>
      </trkpt>
      <trkpt lat="45.63764" lon="5.62273">
        <ele>228</ele>
        <time>2022-04-16T08:55:26.515Z</time>
      </trkpt>
      <trkpt lat="45.63758" lon="5.62271">
        <ele>228</ele>
        <time>2022-04-16T08:55:27.515Z</time>
      </trkpt>
      <trkpt lat="45.63752" lon="5.62269">
        <ele>229</ele>
        <time>2022-04-16T08:55:28.516Z</time>
      </trkpt>
      <trkpt lat="45.63748" lon="5.62267">
        <ele>229</ele>
        <time>2022-04-16T08:55:29.516Z</time>
      </trkpt>
      <trkpt lat="45.63742" lon="5.62265">
        <ele>229</ele>
        <time>2022-04-16T08:55:30.516Z</time>
      </trkpt>
      <trkpt lat="45.63735" lon="5.62263">
        <ele>229</ele>
        <time>2022-04-16T08:55:31.515Z</time>
      </trkpt>
      <trkpt lat="45.63729" lon="5.6226">
        <ele>229</ele>
        <time>2022-04-16T08:55:32.515Z</time>
      </trkpt>
      <trkpt lat="45.63723" lon="5.62258">
        <ele>229</ele>
        <time>2022-04-16T08:55:33.516Z</time>
      </trkpt>
      <trkpt lat="45.63717" lon="5.62256">
        <ele>229</ele>
        <time>2022-04-16T08:55:34.516Z</time>
      </trkpt>
      <trkpt lat="45.63713" lon="5.62255">
        <ele>229</ele>
        <time>2022-04-16T08:55:35.515Z</time>
      </trkpt>
      <trkpt lat="45.63706" lon="5.62253">
        <ele>229</ele>
        <time>2022-04-16T08:55:36.516Z</time>
      </trkpt>
      <trkpt lat="45.637" lon="5.62251">
        <ele>229</ele>
        <time>2022-04-16T08:55:37.515Z</time>
      </trkpt>
      <trkpt lat="45.63695" lon="5.6225">
        <ele>229</ele>
        <time>2022-04-16T08:55:38.516Z</time>
      </trkpt>
      <trkpt lat="45.63689" lon="5.62248">
        <ele>228</ele>
        <time>2022-04-16T08:55:39.515Z</time>
      </trkpt>
      <trkpt lat="45.63686" lon="5.62245">
        <ele>228</ele>
        <time>2022-04-16T08:55:40.516Z</time>
      </trkpt>
      <trkpt lat="45.63683" lon="5.62241">
        <ele>228</ele>
        <time>2022-04-16T08:55:41.515Z</time>
      </trkpt>
      <trkpt lat="45.63683" lon="5.62235">
        <ele>228</ele>
        <time>2022-04-16T08:55:42.515Z</time>
      </trkpt>
      <trkpt lat="45.63683" lon="5.62229">
        <ele>228</ele>
        <time>2022-04-16T08:55:43.516Z</time>
      </trkpt>
      <trkpt lat="45.63686" lon="5.62223">
        <ele>228</ele>
        <time>2022-04-16T08:55:44.515Z</time>
      </trkpt>
      <trkpt lat="45.63688" lon="5.62218">
        <ele>228</ele>
        <time>2022-04-16T08:55:45.516Z</time>
      </trkpt>
      <trkpt lat="45.63692" lon="5.62213">
        <ele>228</ele>
        <time>2022-04-16T08:55:46.516Z</time>
      </trkpt>
      <trkpt lat="45.63697" lon="5.62209">
        <ele>227</ele>
        <time>2022-04-16T08:55:47.515Z</time>
      </trkpt>
      <trkpt lat="45.63702" lon="5.62208">
        <ele>227</ele>
        <time>2022-04-16T08:55:48.516Z</time>
      </trkpt>
      <trkpt lat="45.63708" lon="5.62208">
        <ele>226</ele>
        <time>2022-04-16T08:55:49.515Z</time>
      </trkpt>
      <trkpt lat="45.63714" lon="5.62208">
        <ele>226</ele>
        <time>2022-04-16T08:55:50.515Z</time>
      </trkpt>
      <trkpt lat="45.6372" lon="5.62207">
        <ele>226</ele>
        <time>2022-04-16T08:55:51.515Z</time>
      </trkpt>
      <trkpt lat="45.63727" lon="5.62207">
        <ele>226</ele>
        <time>2022-04-16T08:55:52.515Z</time>
      </trkpt>
      <trkpt lat="45.63733" lon="5.62207">
        <ele>225</ele>
        <time>2022-04-16T08:55:53.516Z</time>
      </trkpt>
      <trkpt lat="45.63739" lon="5.62205">
        <ele>225</ele>
        <time>2022-04-16T08:55:54.515Z</time>
      </trkpt>
      <trkpt lat="45.63744" lon="5.62204">
        <ele>224</ele>
        <time>2022-04-16T08:55:55.515Z</time>
      </trkpt>
      <trkpt lat="45.63752" lon="5.622">
        <ele>224</ele>
        <time>2022-04-16T08:55:56.515Z</time>
      </trkpt>
      <trkpt lat="45.63758" lon="5.62196">
        <ele>224</ele>
        <time>2022-04-16T08:55:57.516Z</time>
      </trkpt>
      <trkpt lat="45.63763" lon="5.62191">
        <ele>223</ele>
        <time>2022-04-16T08:55:58.516Z</time>
      </trkpt>
      <trkpt lat="45.63768" lon="5.62185">
        <ele>223</ele>
        <time>2022-04-16T08:55:59.515Z</time>
      </trkpt>
      <trkpt lat="45.63772" lon="5.62177">
        <ele>222</ele>
        <time>2022-04-16T08:56:00.515Z</time>
      </trkpt>
      <trkpt lat="45.63775" lon="5.6217">
        <ele>222</ele>
        <time>2022-04-16T08:56:01.515Z</time>
      </trkpt>
      <trkpt lat="45.63778" lon="5.62159">
        <ele>222</ele>
        <time>2022-04-16T08:56:02.515Z</time>
      </trkpt>
      <trkpt lat="45.63779" lon="5.62149">
        <ele>222</ele>
        <time>2022-04-16T08:56:03.515Z</time>
      </trkpt>
      <trkpt lat="45.63779" lon="5.6214">
        <ele>221</ele>
        <time>2022-04-16T08:56:04.515Z</time>
      </trkpt>
      <trkpt lat="45.63778" lon="5.6213">
        <ele>221</ele>
        <time>2022-04-16T08:56:05.516Z</time>
      </trkpt>
      <trkpt lat="45.63777" lon="5.62123">
        <ele>221</ele>
        <time>2022-04-16T08:56:06.515Z</time>
      </trkpt>
      <trkpt lat="45.63777" lon="5.62114">
        <ele>221</ele>
        <time>2022-04-16T08:56:07.515Z</time>
      </trkpt>
      <trkpt lat="45.63776" lon="5.62103">
        <ele>221</ele>
        <time>2022-04-16T08:56:08.515Z</time>
      </trkpt>
      <trkpt lat="45.63776" lon="5.62095">
        <ele>221</ele>
        <time>2022-04-16T08:56:09.516Z</time>
      </trkpt>
      <trkpt lat="45.63775" lon="5.62086">
        <ele>221</ele>
        <time>2022-04-16T08:56:10.515Z</time>
      </trkpt>
      <trkpt lat="45.63775" lon="5.62078">
        <ele>220</ele>
        <time>2022-04-16T08:56:11.515Z</time>
      </trkpt>
      <trkpt lat="45.63775" lon="5.6207">
        <ele>220</ele>
        <time>2022-04-16T08:56:12.516Z</time>
      </trkpt>
      <trkpt lat="45.63774" lon="5.62063">
        <ele>219</ele>
        <time>2022-04-16T08:56:13.516Z</time>
      </trkpt>
      <trkpt lat="45.63773" lon="5.62056">
        <ele>219</ele>
        <time>2022-04-16T08:56:14.515Z</time>
      </trkpt>
      <trkpt lat="45.63773" lon="5.62048">
        <ele>219</ele>
        <time>2022-04-16T08:56:15.515Z</time>
      </trkpt>
      <trkpt lat="45.63773" lon="5.62041">
        <ele>219</ele>
        <time>2022-04-16T08:56:16.515Z</time>
      </trkpt>
      <trkpt lat="45.63772" lon="5.62035">
        <ele>219</ele>
        <time>2022-04-16T08:56:17.515Z</time>
      </trkpt>
      <trkpt lat="45.63772" lon="5.62026">
        <ele>219</ele>
        <time>2022-04-16T08:56:18.516Z</time>
      </trkpt>
      <trkpt lat="45.63772" lon="5.62019">
        <ele>219</ele>
        <time>2022-04-16T08:56:19.515Z</time>
      </trkpt>
      <trkpt lat="45.63772" lon="5.62011">
        <ele>219</ele>
        <time>2022-04-16T08:56:20.515Z</time>
      </trkpt>
      <trkpt lat="45.63772" lon="5.62005">
        <ele>218</ele>
        <time>2022-04-16T08:56:21.515Z</time>
      </trkpt>
      <trkpt lat="45.63773" lon="5.61997">
        <ele>218</ele>
        <time>2022-04-16T08:56:22.515Z</time>
      </trkpt>
      <trkpt lat="45.63773" lon="5.61989">
        <ele>218</ele>
        <time>2022-04-16T08:56:23.515Z</time>
      </trkpt>
      <trkpt lat="45.63773" lon="5.61982">
        <ele>218</ele>
        <time>2022-04-16T08:56:24.515Z</time>
      </trkpt>
      <trkpt lat="45.63773" lon="5.61974">
        <ele>218</ele>
        <time>2022-04-16T08:56:25.515Z</time>
      </trkpt>
      <trkpt lat="45.63774" lon="5.61967">
        <ele>218</ele>
        <time>2022-04-16T08:56:26.516Z</time>
      </trkpt>
      <trkpt lat="45.63774" lon="5.61961">
        <ele>218</ele>
        <time>2022-04-16T08:56:27.516Z</time>
      </trkpt>
      <trkpt lat="45.63774" lon="5.61952">
        <ele>218</ele>
        <time>2022-04-16T08:56:28.515Z</time>
      </trkpt>
      <trkpt lat="45.63774" lon="5.61945">
        <ele>218</ele>
        <time>2022-04-16T08:56:29.515Z</time>
      </trkpt>
      <trkpt lat="45.63775" lon="5.61937">
        <ele>218</ele>
        <time>2022-04-16T08:56:30.515Z</time>
      </trkpt>
      <trkpt lat="45.63775" lon="5.61931">
        <ele>218</ele>
        <time>2022-04-16T08:56:31.515Z</time>
      </trkpt>
      <trkpt lat="45.63776" lon="5.61923">
        <ele>217</ele>
        <time>2022-04-16T08:56:32.516Z</time>
      </trkpt>
      <trkpt lat="45.63777" lon="5.61914">
        <ele>217</ele>
        <time>2022-04-16T08:56:33.515Z</time>
      </trkpt>
      <trkpt lat="45.63777" lon="5.61907">
        <ele>217</ele>
        <time>2022-04-16T08:56:34.515Z</time>
      </trkpt>
      <trkpt lat="45.63778" lon="5.61899">
        <ele>217</ele>
        <time>2022-04-16T08:56:35.516Z</time>
      </trkpt>
      <trkpt lat="45.63778" lon="5.61892">
        <ele>217</ele>
        <time>2022-04-16T08:56:36.516Z</time>
      </trkpt>
      <trkpt lat="45.63779" lon="5.61884">
        <ele>217</ele>
        <time>2022-04-16T08:56:37.515Z</time>
      </trkpt>
      <trkpt lat="45.63779" lon="5.61876">
        <ele>217</ele>
        <time>2022-04-16T08:56:38.515Z</time>
      </trkpt>
      <trkpt lat="45.6378" lon="5.61869">
        <ele>218</ele>
        <time>2022-04-16T08:56:39.515Z</time>
      </trkpt>
      <trkpt lat="45.63781" lon="5.61862">
        <ele>218</ele>
        <time>2022-04-16T08:56:40.515Z</time>
      </trkpt>
      <trkpt lat="45.63782" lon="5.61854">
        <ele>218</ele>
        <time>2022-04-16T08:56:41.515Z</time>
      </trkpt>
      <trkpt lat="45.63782" lon="5.61847">
        <ele>218</ele>
        <time>2022-04-16T08:56:42.515Z</time>
      </trkpt>
      <trkpt lat="45.63783" lon="5.61841">
        <ele>218</ele>
        <time>2022-04-16T08:56:43.515Z</time>
      </trkpt>
      <trkpt lat="45.63784" lon="5.61832">
        <ele>218</ele>
        <time>2022-04-16T08:56:44.515Z</time>
      </trkpt>
      <trkpt lat="45.63785" lon="5.61825">
        <ele>218</ele>
        <time>2022-04-16T08:56:45.515Z</time>
      </trkpt>
      <trkpt lat="45.63786" lon="5.61817">
        <ele>218</ele>
        <time>2022-04-16T08:56:46.515Z</time>
      </trkpt>
      <trkpt lat="45.63787" lon="5.6181">
        <ele>218</ele>
        <time>2022-04-16T08:56:47.515Z</time>
      </trkpt>
      <trkpt lat="45.63788" lon="5.61804">
        <ele>218</ele>
        <time>2022-04-16T08:56:48.515Z</time>
      </trkpt>
      <trkpt lat="45.63789" lon="5.61795">
        <ele>218</ele>
        <time>2022-04-16T08:56:49.516Z</time>
      </trkpt>
      <trkpt lat="45.6379" lon="5.61787">
        <ele>218</ele>
        <time>2022-04-16T08:56:50.516Z</time>
      </trkpt>
      <trkpt lat="45.63791" lon="5.6178">
        <ele>218</ele>
        <time>2022-04-16T08:56:51.515Z</time>
      </trkpt>
      <trkpt lat="45.63792" lon="5.61772">
        <ele>219</ele>
        <time>2022-04-16T08:56:52.516Z</time>
      </trkpt>
      <trkpt lat="45.63793" lon="5.61767">
        <ele>219</ele>
        <time>2022-04-16T08:56:53.515Z</time>
      </trkpt>
      <trkpt lat="45.63794" lon="5.61758">
        <ele>219</ele>
        <time>2022-04-16T08:56:54.516Z</time>
      </trkpt>
      <trkpt lat="45.63796" lon="5.61751">
        <ele>219</ele>
        <time>2022-04-16T08:56:55.515Z</time>
      </trkpt>
      <trkpt lat="45.63798" lon="5.61745">
        <ele>219</ele>
        <time>2022-04-16T08:56:56.516Z</time>
      </trkpt>
      <trkpt lat="45.63799" lon="5.61739">
        <ele>219</ele>
        <time>2022-04-16T08:56:57.515Z</time>
      </trkpt>
      <trkpt lat="45.638" lon="5.61733">
        <ele>219</ele>
        <time>2022-04-16T08:56:58.515Z</time>
      </trkpt>
      <trkpt lat="45.63801" lon="5.61727">
        <ele>220</ele>
        <time>2022-04-16T08:56:59.515Z</time>
      </trkpt>
      <trkpt lat="45.63802" lon="5.61721">
        <ele>220</ele>
        <time>2022-04-16T08:57:00.516Z</time>
      </trkpt>
      <trkpt lat="45.63803" lon="5.61716">
        <ele>220</ele>
        <time>2022-04-16T08:57:01.516Z</time>
      </trkpt>
      <trkpt lat="45.63804" lon="5.61711">
        <ele>220</ele>
        <time>2022-04-16T08:57:02.516Z</time>
      </trkpt>
      <trkpt lat="45.63805" lon="5.61707">
        <ele>220</ele>
        <time>2022-04-16T08:57:03.516Z</time>
      </trkpt>
      <trkpt lat="45.63806" lon="5.61702">
        <ele>219</ele>
        <time>2022-04-16T08:57:04.516Z</time>
      </trkpt>
      <trkpt lat="45.63808" lon="5.61696">
        <ele>220</ele>
        <time>2022-04-16T08:57:05.516Z</time>
      </trkpt>
      <trkpt lat="45.63809" lon="5.61691">
        <ele>220</ele>
        <time>2022-04-16T08:57:06.515Z</time>
      </trkpt>
      <trkpt lat="45.6381" lon="5.61687">
        <ele>220</ele>
        <time>2022-04-16T08:57:07.516Z</time>
      </trkpt>
      <trkpt lat="45.63811" lon="5.61682">
        <ele>220</ele>
        <time>2022-04-16T08:57:08.515Z</time>
      </trkpt>
      <trkpt lat="45.63812" lon="5.61677">
        <ele>220</ele>
        <time>2022-04-16T08:57:09.516Z</time>
      </trkpt>
      <trkpt lat="45.63813" lon="5.61673">
        <ele>220</ele>
        <time>2022-04-16T08:57:10.515Z</time>
      </trkpt>
      <trkpt lat="45.63815" lon="5.61667">
        <ele>220</ele>
        <time>2022-04-16T08:57:11.515Z</time>
      </trkpt>
      <trkpt lat="45.63816" lon="5.61662">
        <ele>220</ele>
        <time>2022-04-16T08:57:12.516Z</time>
      </trkpt>
      <trkpt lat="45.63817" lon="5.61658">
        <ele>220</ele>
        <time>2022-04-16T08:57:13.515Z</time>
      </trkpt>
      <trkpt lat="45.63819" lon="5.61652">
        <ele>219</ele>
        <time>2022-04-16T08:57:14.515Z</time>
      </trkpt>
      <trkpt lat="45.6382" lon="5.61647">
        <ele>219</ele>
        <time>2022-04-16T08:57:15.516Z</time>
      </trkpt>
      <trkpt lat="45.63822" lon="5.61643">
        <ele>219</ele>
        <time>2022-04-16T08:57:16.515Z</time>
      </trkpt>
      <trkpt lat="45.63823" lon="5.61639">
        <ele>218</ele>
        <time>2022-04-16T08:57:17.516Z</time>
      </trkpt>
      <trkpt lat="45.63825" lon="5.61634">
        <ele>218</ele>
        <time>2022-04-16T08:57:18.515Z</time>
      </trkpt>
      <trkpt lat="45.63826" lon="5.6163">
        <ele>217</ele>
        <time>2022-04-16T08:57:19.515Z</time>
      </trkpt>
      <trkpt lat="45.63828" lon="5.61625">
        <ele>217</ele>
        <time>2022-04-16T08:57:20.515Z</time>
      </trkpt>
      <trkpt lat="45.63829" lon="5.61621">
        <ele>217</ele>
        <time>2022-04-16T08:57:21.516Z</time>
      </trkpt>
      <trkpt lat="45.63831" lon="5.61616">
        <ele>217</ele>
        <time>2022-04-16T08:57:22.515Z</time>
      </trkpt>
      <trkpt lat="45.63832" lon="5.6161">
        <ele>217</ele>
        <time>2022-04-16T08:57:23.516Z</time>
      </trkpt>
      <trkpt lat="45.63834" lon="5.61606">
        <ele>217</ele>
        <time>2022-04-16T08:57:24.516Z</time>
      </trkpt>
      <trkpt lat="45.63836" lon="5.61599">
        <ele>217</ele>
        <time>2022-04-16T08:57:25.516Z</time>
      </trkpt>
      <trkpt lat="45.63838" lon="5.61594">
        <ele>217</ele>
        <time>2022-04-16T08:57:26.515Z</time>
      </trkpt>
      <trkpt lat="45.6384" lon="5.61588">
        <ele>217</ele>
        <time>2022-04-16T08:57:27.515Z</time>
      </trkpt>
      <trkpt lat="45.63841" lon="5.61582">
        <ele>217</ele>
        <time>2022-04-16T08:57:28.516Z</time>
      </trkpt>
      <trkpt lat="45.63844" lon="5.61576">
        <ele>218</ele>
        <time>2022-04-16T08:57:29.516Z</time>
      </trkpt>
      <trkpt lat="45.63846" lon="5.6157">
        <ele>218</ele>
        <time>2022-04-16T08:57:30.516Z</time>
      </trkpt>
      <trkpt lat="45.63848" lon="5.61564">
        <ele>218</ele>
        <time>2022-04-16T08:57:31.515Z</time>
      </trkpt>
      <trkpt lat="45.6385" lon="5.61558">
        <ele>218</ele>
        <time>2022-04-16T08:57:32.515Z</time>
      </trkpt>
      <trkpt lat="45.63853" lon="5.61552">
        <ele>218</ele>
        <time>2022-04-16T08:57:33.515Z</time>
      </trkpt>
      <trkpt lat="45.63855" lon="5.61547">
        <ele>218</ele>
        <time>2022-04-16T08:57:34.515Z</time>
      </trkpt>
      <trkpt lat="45.63857" lon="5.6154">
        <ele>219</ele>
        <time>2022-04-16T08:57:35.516Z</time>
      </trkpt>
      <trkpt lat="45.63859" lon="5.61534">
        <ele>219</ele>
        <time>2022-04-16T08:57:36.515Z</time>
      </trkpt>
      <trkpt lat="45.63861" lon="5.61528">
        <ele>219</ele>
        <time>2022-04-16T08:57:37.515Z</time>
      </trkpt>
      <trkpt lat="45.63864" lon="5.61522">
        <ele>219</ele>
        <time>2022-04-16T08:57:38.515Z</time>
      </trkpt>
      <trkpt lat="45.63866" lon="5.61517">
        <ele>219</ele>
        <time>2022-04-16T08:57:39.516Z</time>
      </trkpt>
      <trkpt lat="45.63869" lon="5.6151">
        <ele>219</ele>
        <time>2022-04-16T08:57:40.516Z</time>
      </trkpt>
      <trkpt lat="45.63871" lon="5.61504">
        <ele>219</ele>
        <time>2022-04-16T08:57:41.516Z</time>
      </trkpt>
      <trkpt lat="45.63874" lon="5.61497">
        <ele>219</ele>
        <time>2022-04-16T08:57:42.515Z</time>
      </trkpt>
      <trkpt lat="45.63876" lon="5.61491">
        <ele>219</ele>
        <time>2022-04-16T08:57:43.515Z</time>
      </trkpt>
      <trkpt lat="45.63879" lon="5.61485">
        <ele>219</ele>
        <time>2022-04-16T08:57:44.516Z</time>
      </trkpt>
      <trkpt lat="45.63881" lon="5.61479">
        <ele>219</ele>
        <time>2022-04-16T08:57:45.515Z</time>
      </trkpt>
      <trkpt lat="45.63884" lon="5.61473">
        <ele>219</ele>
        <time>2022-04-16T08:57:46.516Z</time>
      </trkpt>
      <trkpt lat="45.63887" lon="5.61466">
        <ele>219</ele>
        <time>2022-04-16T08:57:47.515Z</time>
      </trkpt>
      <trkpt lat="45.6389" lon="5.6146">
        <ele>219</ele>
        <time>2022-04-16T08:57:48.516Z</time>
      </trkpt>
      <trkpt lat="45.63893" lon="5.61454">
        <ele>219</ele>
        <time>2022-04-16T08:57:49.516Z</time>
      </trkpt>
      <trkpt lat="45.63895" lon="5.6145">
        <ele>219</ele>
        <time>2022-04-16T08:57:50.516Z</time>
      </trkpt>
      <trkpt lat="45.63898" lon="5.61444">
        <ele>219</ele>
        <time>2022-04-16T08:57:51.516Z</time>
      </trkpt>
      <trkpt lat="45.63901" lon="5.61437">
        <ele>218</ele>
        <time>2022-04-16T08:57:52.515Z</time>
      </trkpt>
      <trkpt lat="45.63904" lon="5.61431">
        <ele>219</ele>
        <time>2022-04-16T08:57:53.516Z</time>
      </trkpt>
      <trkpt lat="45.63907" lon="5.61425">
        <ele>218</ele>
        <time>2022-04-16T08:57:54.516Z</time>
      </trkpt>
      <trkpt lat="45.6391" lon="5.61421">
        <ele>218</ele>
        <time>2022-04-16T08:57:55.516Z</time>
      </trkpt>
      <trkpt lat="45.63913" lon="5.61414">
        <ele>218</ele>
        <time>2022-04-16T08:57:56.516Z</time>
      </trkpt>
      <trkpt lat="45.63916" lon="5.61408">
        <ele>218</ele>
        <time>2022-04-16T08:57:57.515Z</time>
      </trkpt>
      <trkpt lat="45.63919" lon="5.61403">
        <ele>218</ele>
        <time>2022-04-16T08:57:58.516Z</time>
      </trkpt>
      <trkpt lat="45.63922" lon="5.61397">
        <ele>218</ele>
        <time>2022-04-16T08:57:59.516Z</time>
      </trkpt>
      <trkpt lat="45.63925" lon="5.61392">
        <ele>218</ele>
        <time>2022-04-16T08:58:00.516Z</time>
      </trkpt>
      <trkpt lat="45.63928" lon="5.61386">
        <ele>218</ele>
        <time>2022-04-16T08:58:01.516Z</time>
      </trkpt>
      <trkpt lat="45.63931" lon="5.61381">
        <ele>218</ele>
        <time>2022-04-16T08:58:02.516Z</time>
      </trkpt>
      <trkpt lat="45.63934" lon="5.61375">
        <ele>219</ele>
        <time>2022-04-16T08:58:03.515Z</time>
      </trkpt>
      <trkpt lat="45.63937" lon="5.6137">
        <ele>219</ele>
        <time>2022-04-16T08:58:04.516Z</time>
      </trkpt>
      <trkpt lat="45.6394" lon="5.61365">
        <ele>219</ele>
        <time>2022-04-16T08:58:05.516Z</time>
      </trkpt>
      <trkpt lat="45.63943" lon="5.6136">
        <ele>219</ele>
        <time>2022-04-16T08:58:06.516Z</time>
      </trkpt>
      <trkpt lat="45.63946" lon="5.61355">
        <ele>219</ele>
        <time>2022-04-16T08:58:07.516Z</time>
      </trkpt>
      <trkpt lat="45.63949" lon="5.6135">
        <ele>219</ele>
        <time>2022-04-16T08:58:08.516Z</time>
      </trkpt>
      <trkpt lat="45.63952" lon="5.61345">
        <ele>219</ele>
        <time>2022-04-16T08:58:09.516Z</time>
      </trkpt>
      <trkpt lat="45.63956" lon="5.6134">
        <ele>219</ele>
        <time>2022-04-16T08:58:10.516Z</time>
      </trkpt>
      <trkpt lat="45.63958" lon="5.61336">
        <ele>219</ele>
        <time>2022-04-16T08:58:11.516Z</time>
      </trkpt>
      <trkpt lat="45.63961" lon="5.61331">
        <ele>219</ele>
        <time>2022-04-16T08:58:12.515Z</time>
      </trkpt>
      <trkpt lat="45.63965" lon="5.61325">
        <ele>219</ele>
        <time>2022-04-16T08:58:13.516Z</time>
      </trkpt>
      <trkpt lat="45.63969" lon="5.6132">
        <ele>219</ele>
        <time>2022-04-16T08:58:14.516Z</time>
      </trkpt>
      <trkpt lat="45.63972" lon="5.61315">
        <ele>220</ele>
        <time>2022-04-16T08:58:15.515Z</time>
      </trkpt>
      <trkpt lat="45.63975" lon="5.6131">
        <ele>220</ele>
        <time>2022-04-16T08:58:16.516Z</time>
      </trkpt>
      <trkpt lat="45.63978" lon="5.61305">
        <ele>220</ele>
        <time>2022-04-16T08:58:17.516Z</time>
      </trkpt>
      <trkpt lat="45.63982" lon="5.61299">
        <ele>220</ele>
        <time>2022-04-16T08:58:18.516Z</time>
      </trkpt>
      <trkpt lat="45.63985" lon="5.61295">
        <ele>220</ele>
        <time>2022-04-16T08:58:19.516Z</time>
      </trkpt>
      <trkpt lat="45.63988" lon="5.61291">
        <ele>220</ele>
        <time>2022-04-16T08:58:20.515Z</time>
      </trkpt>
      <trkpt lat="45.63992" lon="5.61286">
        <ele>220</ele>
        <time>2022-04-16T08:58:21.515Z</time>
      </trkpt>
      <trkpt lat="45.63995" lon="5.61281">
        <ele>220</ele>
        <time>2022-04-16T08:58:22.516Z</time>
      </trkpt>
      <trkpt lat="45.64" lon="5.61275">
        <ele>220</ele>
        <time>2022-04-16T08:58:23.516Z</time>
      </trkpt>
      <trkpt lat="45.64003" lon="5.61271">
        <ele>220</ele>
        <time>2022-04-16T08:58:24.515Z</time>
      </trkpt>
      <trkpt lat="45.64007" lon="5.61266">
        <ele>220</ele>
        <time>2022-04-16T08:58:25.516Z</time>
      </trkpt>
      <trkpt lat="45.6401" lon="5.61261">
        <ele>221</ele>
        <time>2022-04-16T08:58:26.515Z</time>
      </trkpt>
      <trkpt lat="45.64013" lon="5.61258">
        <ele>221</ele>
        <time>2022-04-16T08:58:27.516Z</time>
      </trkpt>
      <trkpt lat="45.64017" lon="5.61253">
        <ele>221</ele>
        <time>2022-04-16T08:58:28.515Z</time>
      </trkpt>
      <trkpt lat="45.64022" lon="5.61247">
        <ele>221</ele>
        <time>2022-04-16T08:58:29.516Z</time>
      </trkpt>
      <trkpt lat="45.64025" lon="5.61243">
        <ele>221</ele>
        <time>2022-04-16T08:58:30.515Z</time>
      </trkpt>
      <trkpt lat="45.64029" lon="5.61238">
        <ele>221</ele>
        <time>2022-04-16T08:58:31.515Z</time>
      </trkpt>
      <trkpt lat="45.64033" lon="5.61234">
        <ele>221</ele>
        <time>2022-04-16T08:58:32.515Z</time>
      </trkpt>
      <trkpt lat="45.64037" lon="5.6123">
        <ele>220</ele>
        <time>2022-04-16T08:58:33.515Z</time>
      </trkpt>
      <trkpt lat="45.64041" lon="5.61226">
        <ele>220</ele>
        <time>2022-04-16T08:58:34.516Z</time>
      </trkpt>
      <trkpt lat="45.64045" lon="5.61221">
        <ele>220</ele>
        <time>2022-04-16T08:58:35.516Z</time>
      </trkpt>
      <trkpt lat="45.64049" lon="5.61217">
        <ele>220</ele>
        <time>2022-04-16T08:58:36.516Z</time>
      </trkpt>
      <trkpt lat="45.64053" lon="5.61212">
        <ele>220</ele>
        <time>2022-04-16T08:58:37.516Z</time>
      </trkpt>
      <trkpt lat="45.64057" lon="5.61208">
        <ele>220</ele>
        <time>2022-04-16T08:58:38.516Z</time>
      </trkpt>
      <trkpt lat="45.64061" lon="5.61204">
        <ele>221</ele>
        <time>2022-04-16T08:58:39.516Z</time>
      </trkpt>
      <trkpt lat="45.64066" lon="5.61199">
        <ele>221</ele>
        <time>2022-04-16T08:58:40.516Z</time>
      </trkpt>
      <trkpt lat="45.6407" lon="5.61195">
        <ele>221</ele>
        <time>2022-04-16T08:58:41.516Z</time>
      </trkpt>
      <trkpt lat="45.64074" lon="5.61191">
        <ele>221</ele>
        <time>2022-04-16T08:58:42.516Z</time>
      </trkpt>
      <trkpt lat="45.64078" lon="5.61186">
        <ele>221</ele>
        <time>2022-04-16T08:58:43.516Z</time>
      </trkpt>
      <trkpt lat="45.64082" lon="5.61183">
        <ele>220</ele>
        <time>2022-04-16T08:58:44.516Z</time>
      </trkpt>
      <trkpt lat="45.64086" lon="5.61179">
        <ele>220</ele>
        <time>2022-04-16T08:58:45.516Z</time>
      </trkpt>
      <trkpt lat="45.6409" lon="5.61175">
        <ele>219</ele>
        <time>2022-04-16T08:58:46.516Z</time>
      </trkpt>
      <trkpt lat="45.64095" lon="5.61172">
        <ele>219</ele>
        <time>2022-04-16T08:58:47.516Z</time>
      </trkpt>
      <trkpt lat="45.64099" lon="5.61168">
        <ele>219</ele>
        <time>2022-04-16T08:58:48.516Z</time>
      </trkpt>
      <trkpt lat="45.64103" lon="5.61165">
        <ele>219</ele>
        <time>2022-04-16T08:58:49.516Z</time>
      </trkpt>
      <trkpt lat="45.64107" lon="5.61161">
        <ele>219</ele>
        <time>2022-04-16T08:58:50.515Z</time>
      </trkpt>
      <trkpt lat="45.64111" lon="5.61157">
        <ele>218</ele>
        <time>2022-04-16T08:58:51.516Z</time>
      </trkpt>
      <trkpt lat="45.64115" lon="5.61154">
        <ele>218</ele>
        <time>2022-04-16T08:58:52.516Z</time>
      </trkpt>
      <trkpt lat="45.64119" lon="5.6115">
        <ele>218</ele>
        <time>2022-04-16T08:58:53.515Z</time>
      </trkpt>
      <trkpt lat="45.64124" lon="5.61147">
        <ele>218</ele>
        <time>2022-04-16T08:58:54.516Z</time>
      </trkpt>
      <trkpt lat="45.64128" lon="5.61143">
        <ele>219</ele>
        <time>2022-04-16T08:58:55.516Z</time>
      </trkpt>
      <trkpt lat="45.64132" lon="5.6114">
        <ele>218</ele>
        <time>2022-04-16T08:58:56.516Z</time>
      </trkpt>
      <trkpt lat="45.64136" lon="5.61136">
        <ele>219</ele>
        <time>2022-04-16T08:58:57.515Z</time>
      </trkpt>
      <trkpt lat="45.64141" lon="5.61133">
        <ele>219</ele>
        <time>2022-04-16T08:58:58.516Z</time>
      </trkpt>
      <trkpt lat="45.64145" lon="5.61129">
        <ele>219</ele>
        <time>2022-04-16T08:58:59.516Z</time>
      </trkpt>
      <trkpt lat="45.6415" lon="5.61126">
        <ele>219</ele>
        <time>2022-04-16T08:59:00.516Z</time>
      </trkpt>
      <trkpt lat="45.64154" lon="5.61123">
        <ele>219</ele>
        <time>2022-04-16T08:59:01.516Z</time>
      </trkpt>
      <trkpt lat="45.64159" lon="5.6112">
        <ele>219</ele>
        <time>2022-04-16T08:59:02.515Z</time>
      </trkpt>
      <trkpt lat="45.64163" lon="5.61116">
        <ele>219</ele>
        <time>2022-04-16T08:59:03.515Z</time>
      </trkpt>
      <trkpt lat="45.64167" lon="5.61114">
        <ele>219</ele>
        <time>2022-04-16T08:59:04.516Z</time>
      </trkpt>
      <trkpt lat="45.64172" lon="5.6111">
        <ele>219</ele>
        <time>2022-04-16T08:59:05.516Z</time>
      </trkpt>
      <trkpt lat="45.64176" lon="5.61107">
        <ele>220</ele>
        <time>2022-04-16T08:59:06.516Z</time>
      </trkpt>
      <trkpt lat="45.64181" lon="5.61104">
        <ele>220</ele>
        <time>2022-04-16T08:59:07.516Z</time>
      </trkpt>
      <trkpt lat="45.64184" lon="5.61102">
        <ele>220</ele>
        <time>2022-04-16T08:59:08.516Z</time>
      </trkpt>
      <trkpt lat="45.6419" lon="5.61098">
        <ele>220</ele>
        <time>2022-04-16T08:59:09.516Z</time>
      </trkpt>
      <trkpt lat="45.64194" lon="5.61095">
        <ele>220</ele>
        <time>2022-04-16T08:59:10.515Z</time>
      </trkpt>
      <trkpt lat="45.64199" lon="5.61092">
        <ele>220</ele>
        <time>2022-04-16T08:59:11.516Z</time>
      </trkpt>
      <trkpt lat="45.64203" lon="5.6109">
        <ele>219</ele>
        <time>2022-04-16T08:59:12.516Z</time>
      </trkpt>
      <trkpt lat="45.64208" lon="5.61087">
        <ele>219</ele>
        <time>2022-04-16T08:59:13.516Z</time>
      </trkpt>
      <trkpt lat="45.64212" lon="5.61085">
        <ele>219</ele>
        <time>2022-04-16T08:59:14.515Z</time>
      </trkpt>
      <trkpt lat="45.64217" lon="5.61081">
        <ele>219</ele>
        <time>2022-04-16T08:59:15.515Z</time>
      </trkpt>
      <trkpt lat="45.64222" lon="5.61079">
        <ele>218</ele>
        <time>2022-04-16T08:59:16.516Z</time>
      </trkpt>
      <trkpt lat="45.64226" lon="5.61076">
        <ele>218</ele>
        <time>2022-04-16T08:59:17.515Z</time>
      </trkpt>
      <trkpt lat="45.64231" lon="5.61073">
        <ele>219</ele>
        <time>2022-04-16T08:59:18.516Z</time>
      </trkpt>
      <trkpt lat="45.64234" lon="5.61071">
        <ele>219</ele>
        <time>2022-04-16T08:59:19.516Z</time>
      </trkpt>
      <trkpt lat="45.6424" lon="5.61067">
        <ele>219</ele>
        <time>2022-04-16T08:59:20.515Z</time>
      </trkpt>
      <trkpt lat="45.64245" lon="5.61065">
        <ele>219</ele>
        <time>2022-04-16T08:59:21.516Z</time>
      </trkpt>
      <trkpt lat="45.64249" lon="5.61062">
        <ele>219</ele>
        <time>2022-04-16T08:59:22.516Z</time>
      </trkpt>
      <trkpt lat="45.64254" lon="5.61059">
        <ele>219</ele>
        <time>2022-04-16T08:59:23.516Z</time>
      </trkpt>
      <trkpt lat="45.64258" lon="5.61056">
        <ele>219</ele>
        <time>2022-04-16T08:59:24.515Z</time>
      </trkpt>
      <trkpt lat="45.64263" lon="5.61053">
        <ele>219</ele>
        <time>2022-04-16T08:59:25.515Z</time>
      </trkpt>
      <trkpt lat="45.64267" lon="5.61051">
        <ele>219</ele>
        <time>2022-04-16T08:59:26.515Z</time>
      </trkpt>
      <trkpt lat="45.64272" lon="5.61048">
        <ele>219</ele>
        <time>2022-04-16T08:59:27.516Z</time>
      </trkpt>
      <trkpt lat="45.64276" lon="5.61045">
        <ele>219</ele>
        <time>2022-04-16T08:59:28.516Z</time>
      </trkpt>
      <trkpt lat="45.64281" lon="5.61042">
        <ele>219</ele>
        <time>2022-04-16T08:59:29.515Z</time>
      </trkpt>
      <trkpt lat="45.64285" lon="5.6104">
        <ele>219</ele>
        <time>2022-04-16T08:59:30.516Z</time>
      </trkpt>
      <trkpt lat="45.6429" lon="5.61037">
        <ele>220</ele>
        <time>2022-04-16T08:59:31.516Z</time>
      </trkpt>
      <trkpt lat="45.64295" lon="5.61034">
        <ele>220</ele>
        <time>2022-04-16T08:59:32.516Z</time>
      </trkpt>
      <trkpt lat="45.64299" lon="5.61031">
        <ele>220</ele>
        <time>2022-04-16T08:59:33.515Z</time>
      </trkpt>
      <trkpt lat="45.64304" lon="5.61028">
        <ele>220</ele>
        <time>2022-04-16T08:59:34.516Z</time>
      </trkpt>
      <trkpt lat="45.64308" lon="5.61026">
        <ele>220</ele>
        <time>2022-04-16T08:59:35.515Z</time>
      </trkpt>
      <trkpt lat="45.64313" lon="5.61023">
        <ele>220</ele>
        <time>2022-04-16T08:59:36.515Z</time>
      </trkpt>
      <trkpt lat="45.64318" lon="5.6102">
        <ele>220</ele>
        <time>2022-04-16T08:59:37.515Z</time>
      </trkpt>
      <trkpt lat="45.64322" lon="5.61017">
        <ele>220</ele>
        <time>2022-04-16T08:59:38.516Z</time>
      </trkpt>
      <trkpt lat="45.64327" lon="5.61014">
        <ele>220</ele>
        <time>2022-04-16T08:59:39.516Z</time>
      </trkpt>
      <trkpt lat="45.64331" lon="5.61011">
        <ele>220</ele>
        <time>2022-04-16T08:59:40.516Z</time>
      </trkpt>
      <trkpt lat="45.64336" lon="5.61008">
        <ele>220</ele>
        <time>2022-04-16T08:59:41.516Z</time>
      </trkpt>
      <trkpt lat="45.64341" lon="5.61005">
        <ele>220</ele>
        <time>2022-04-16T08:59:42.516Z</time>
      </trkpt>
      <trkpt lat="45.64346" lon="5.61002">
        <ele>220</ele>
        <time>2022-04-16T08:59:43.516Z</time>
      </trkpt>
      <trkpt lat="45.6435" lon="5.60999">
        <ele>221</ele>
        <time>2022-04-16T08:59:44.515Z</time>
      </trkpt>
      <trkpt lat="45.64355" lon="5.60996">
        <ele>221</ele>
        <time>2022-04-16T08:59:45.516Z</time>
      </trkpt>
      <trkpt lat="45.6436" lon="5.60993">
        <ele>221</ele>
        <time>2022-04-16T08:59:46.516Z</time>
      </trkpt>
      <trkpt lat="45.64365" lon="5.6099">
        <ele>221</ele>
        <time>2022-04-16T08:59:47.516Z</time>
      </trkpt>
      <trkpt lat="45.64369" lon="5.60987">
        <ele>221</ele>
        <time>2022-04-16T08:59:48.515Z</time>
      </trkpt>
      <trkpt lat="45.64374" lon="5.60983">
        <ele>221</ele>
        <time>2022-04-16T08:59:49.516Z</time>
      </trkpt>
      <trkpt lat="45.64379" lon="5.6098">
        <ele>221</ele>
        <time>2022-04-16T08:59:50.516Z</time>
      </trkpt>
      <trkpt lat="45.64384" lon="5.60977">
        <ele>221</ele>
        <time>2022-04-16T08:59:51.516Z</time>
      </trkpt>
      <trkpt lat="45.64389" lon="5.60974">
        <ele>222</ele>
        <time>2022-04-16T08:59:52.516Z</time>
      </trkpt>
      <trkpt lat="45.64394" lon="5.60971">
        <ele>222</ele>
        <time>2022-04-16T08:59:53.516Z</time>
      </trkpt>
      <trkpt lat="45.64398" lon="5.60969">
        <ele>222</ele>
        <time>2022-04-16T08:59:54.516Z</time>
      </trkpt>
      <trkpt lat="45.64404" lon="5.60965">
        <ele>222</ele>
        <time>2022-04-16T08:59:55.516Z</time>
      </trkpt>
      <trkpt lat="45.64409" lon="5.60962">
        <ele>222</ele>
        <time>2022-04-16T08:59:56.516Z</time>
      </trkpt>
      <trkpt lat="45.64413" lon="5.60959">
        <ele>221</ele>
        <time>2022-04-16T08:59:57.516Z</time>
      </trkpt>
      <trkpt lat="45.64418" lon="5.60956">
        <ele>222</ele>
        <time>2022-04-16T08:59:58.515Z</time>
      </trkpt>
      <trkpt lat="45.64423" lon="5.60953">
        <ele>221</ele>
        <time>2022-04-16T08:59:59.516Z</time>
      </trkpt>
      <trkpt lat="45.64428" lon="5.6095">
        <ele>221</ele>
        <time>2022-04-16T09:00:00.516Z</time>
      </trkpt>
      <trkpt lat="45.64433" lon="5.60947">
        <ele>222</ele>
        <time>2022-04-16T09:00:01.516Z</time>
      </trkpt>
      <trkpt lat="45.64438" lon="5.60944">
        <ele>222</ele>
        <time>2022-04-16T09:00:02.515Z</time>
      </trkpt>
      <trkpt lat="45.64443" lon="5.60941">
        <ele>222</ele>
        <time>2022-04-16T09:00:03.516Z</time>
      </trkpt>
      <trkpt lat="45.64448" lon="5.60938">
        <ele>221</ele>
        <time>2022-04-16T09:00:04.516Z</time>
      </trkpt>
      <trkpt lat="45.64453" lon="5.60935">
        <ele>221</ele>
        <time>2022-04-16T09:00:05.516Z</time>
      </trkpt>
      <trkpt lat="45.64458" lon="5.60932">
        <ele>221</ele>
        <time>2022-04-16T09:00:06.516Z</time>
      </trkpt>
      <trkpt lat="45.64463" lon="5.60928">
        <ele>220</ele>
        <time>2022-04-16T09:00:07.515Z</time>
      </trkpt>
      <trkpt lat="45.64468" lon="5.60925">
        <ele>220</ele>
        <time>2022-04-16T09:00:08.515Z</time>
      </trkpt>
      <trkpt lat="45.64473" lon="5.60922">
        <ele>220</ele>
        <time>2022-04-16T09:00:09.516Z</time>
      </trkpt>
      <trkpt lat="45.64477" lon="5.60919">
        <ele>220</ele>
        <time>2022-04-16T09:00:10.516Z</time>
      </trkpt>
      <trkpt lat="45.64481" lon="5.60916">
        <ele>220</ele>
        <time>2022-04-16T09:00:11.516Z</time>
      </trkpt>
      <trkpt lat="45.64487" lon="5.60913">
        <ele>220</ele>
        <time>2022-04-16T09:00:12.516Z</time>
      </trkpt>
      <trkpt lat="45.64492" lon="5.6091">
        <ele>220</ele>
        <time>2022-04-16T09:00:13.516Z</time>
      </trkpt>
      <trkpt lat="45.64496" lon="5.60907">
        <ele>220</ele>
        <time>2022-04-16T09:00:14.516Z</time>
      </trkpt>
      <trkpt lat="45.64501" lon="5.60904">
        <ele>221</ele>
        <time>2022-04-16T09:00:15.516Z</time>
      </trkpt>
      <trkpt lat="45.64505" lon="5.60901">
        <ele>220</ele>
        <time>2022-04-16T09:00:16.516Z</time>
      </trkpt>
      <trkpt lat="45.6451" lon="5.60899">
        <ele>220</ele>
        <time>2022-04-16T09:00:17.516Z</time>
      </trkpt>
      <trkpt lat="45.64514" lon="5.60896">
        <ele>220</ele>
        <time>2022-04-16T09:00:18.516Z</time>
      </trkpt>
      <trkpt lat="45.64518" lon="5.60893">
        <ele>220</ele>
        <time>2022-04-16T09:00:19.516Z</time>
      </trkpt>
      <trkpt lat="45.64523" lon="5.6089">
        <ele>220</ele>
        <time>2022-04-16T09:00:20.515Z</time>
      </trkpt>
      <trkpt lat="45.64527" lon="5.60887">
        <ele>220</ele>
        <time>2022-04-16T09:00:21.516Z</time>
      </trkpt>
      <trkpt lat="45.64531" lon="5.60885">
        <ele>220</ele>
        <time>2022-04-16T09:00:22.516Z</time>
      </trkpt>
      <trkpt lat="45.64536" lon="5.60882">
        <ele>221</ele>
        <time>2022-04-16T09:00:23.516Z</time>
      </trkpt>
      <trkpt lat="45.6454" lon="5.60879">
        <ele>221</ele>
        <time>2022-04-16T09:00:24.515Z</time>
      </trkpt>
      <trkpt lat="45.64545" lon="5.60877">
        <ele>221</ele>
        <time>2022-04-16T09:00:25.516Z</time>
      </trkpt>
      <trkpt lat="45.64549" lon="5.60874">
        <ele>221</ele>
        <time>2022-04-16T09:00:26.515Z</time>
      </trkpt>
      <trkpt lat="45.64554" lon="5.60871">
        <ele>221</ele>
        <time>2022-04-16T09:00:27.516Z</time>
      </trkpt>
      <trkpt lat="45.64558" lon="5.60868">
        <ele>221</ele>
        <time>2022-04-16T09:00:28.516Z</time>
      </trkpt>
      <trkpt lat="45.64563" lon="5.60865">
        <ele>221</ele>
        <time>2022-04-16T09:00:29.516Z</time>
      </trkpt>
      <trkpt lat="45.64568" lon="5.60862">
        <ele>221</ele>
        <time>2022-04-16T09:00:30.515Z</time>
      </trkpt>
      <trkpt lat="45.64572" lon="5.60859">
        <ele>221</ele>
        <time>2022-04-16T09:00:31.516Z</time>
      </trkpt>
      <trkpt lat="45.64577" lon="5.60856">
        <ele>220</ele>
        <time>2022-04-16T09:00:32.516Z</time>
      </trkpt>
      <trkpt lat="45.64582" lon="5.60853">
        <ele>220</ele>
        <time>2022-04-16T09:00:33.516Z</time>
      </trkpt>
      <trkpt lat="45.64586" lon="5.60851">
        <ele>221</ele>
        <time>2022-04-16T09:00:34.516Z</time>
      </trkpt>
      <trkpt lat="45.64591" lon="5.60848">
        <ele>221</ele>
        <time>2022-04-16T09:00:35.516Z</time>
      </trkpt>
      <trkpt lat="45.64595" lon="5.60845">
        <ele>221</ele>
        <time>2022-04-16T09:00:36.516Z</time>
      </trkpt>
      <trkpt lat="45.646" lon="5.60842">
        <ele>220</ele>
        <time>2022-04-16T09:00:37.515Z</time>
      </trkpt>
      <trkpt lat="45.64605" lon="5.60839">
        <ele>220</ele>
        <time>2022-04-16T09:00:38.515Z</time>
      </trkpt>
      <trkpt lat="45.64609" lon="5.60836">
        <ele>220</ele>
        <time>2022-04-16T09:00:39.515Z</time>
      </trkpt>
      <trkpt lat="45.64614" lon="5.60833">
        <ele>220</ele>
        <time>2022-04-16T09:00:40.515Z</time>
      </trkpt>
      <trkpt lat="45.64618" lon="5.6083">
        <ele>220</ele>
        <time>2022-04-16T09:00:41.515Z</time>
      </trkpt>
      <trkpt lat="45.64623" lon="5.60827">
        <ele>220</ele>
        <time>2022-04-16T09:00:42.516Z</time>
      </trkpt>
      <trkpt lat="45.64627" lon="5.60824">
        <ele>219</ele>
        <time>2022-04-16T09:00:43.515Z</time>
      </trkpt>
      <trkpt lat="45.64632" lon="5.60822">
        <ele>219</ele>
        <time>2022-04-16T09:00:44.515Z</time>
      </trkpt>
      <trkpt lat="45.64636" lon="5.60819">
        <ele>219</ele>
        <time>2022-04-16T09:00:45.515Z</time>
      </trkpt>
      <trkpt lat="45.64641" lon="5.60816">
        <ele>219</ele>
        <time>2022-04-16T09:00:46.516Z</time>
      </trkpt>
      <trkpt lat="45.64645" lon="5.60813">
        <ele>219</ele>
        <time>2022-04-16T09:00:47.515Z</time>
      </trkpt>
      <trkpt lat="45.6465" lon="5.6081">
        <ele>219</ele>
        <time>2022-04-16T09:00:48.515Z</time>
      </trkpt>
      <trkpt lat="45.64655" lon="5.60807">
        <ele>219</ele>
        <time>2022-04-16T09:00:49.515Z</time>
      </trkpt>
      <trkpt lat="45.64659" lon="5.60804">
        <ele>219</ele>
        <time>2022-04-16T09:00:50.516Z</time>
      </trkpt>
      <trkpt lat="45.64663" lon="5.60802">
        <ele>219</ele>
        <time>2022-04-16T09:00:51.516Z</time>
      </trkpt>
      <trkpt lat="45.64668" lon="5.60799">
        <ele>219</ele>
        <time>2022-04-16T09:00:52.516Z</time>
      </trkpt>
      <trkpt lat="45.64672" lon="5.60796">
        <ele>219</ele>
        <time>2022-04-16T09:00:53.516Z</time>
      </trkpt>
      <trkpt lat="45.64677" lon="5.60794">
        <ele>219</ele>
        <time>2022-04-16T09:00:54.515Z</time>
      </trkpt>
      <trkpt lat="45.64682" lon="5.60791">
        <ele>219</ele>
        <time>2022-04-16T09:00:55.516Z</time>
      </trkpt>
      <trkpt lat="45.64686" lon="5.60788">
        <ele>219</ele>
        <time>2022-04-16T09:00:56.515Z</time>
      </trkpt>
      <trkpt lat="45.64691" lon="5.60785">
        <ele>219</ele>
        <time>2022-04-16T09:00:57.516Z</time>
      </trkpt>
      <trkpt lat="45.64696" lon="5.60782">
        <ele>219</ele>
        <time>2022-04-16T09:00:58.515Z</time>
      </trkpt>
      <trkpt lat="45.647" lon="5.60779">
        <ele>219</ele>
        <time>2022-04-16T09:00:59.516Z</time>
      </trkpt>
      <trkpt lat="45.64705" lon="5.60776">
        <ele>219</ele>
        <time>2022-04-16T09:01:00.515Z</time>
      </trkpt>
      <trkpt lat="45.6471" lon="5.60774">
        <ele>219</ele>
        <time>2022-04-16T09:01:01.516Z</time>
      </trkpt>
      <trkpt lat="45.64714" lon="5.60771">
        <ele>219</ele>
        <time>2022-04-16T09:01:02.515Z</time>
      </trkpt>
      <trkpt lat="45.64719" lon="5.60768">
        <ele>218</ele>
        <time>2022-04-16T09:01:03.515Z</time>
      </trkpt>
      <trkpt lat="45.64723" lon="5.60765">
        <ele>218</ele>
        <time>2022-04-16T09:01:04.516Z</time>
      </trkpt>
      <trkpt lat="45.64728" lon="5.60762">
        <ele>218</ele>
        <time>2022-04-16T09:01:05.516Z</time>
      </trkpt>
      <trkpt lat="45.64732" lon="5.6076">
        <ele>218</ele>
        <time>2022-04-16T09:01:06.516Z</time>
      </trkpt>
      <trkpt lat="45.64737" lon="5.60757">
        <ele>218</ele>
        <time>2022-04-16T09:01:07.516Z</time>
      </trkpt>
      <trkpt lat="45.64742" lon="5.60754">
        <ele>218</ele>
        <time>2022-04-16T09:01:08.515Z</time>
      </trkpt>
      <trkpt lat="45.64747" lon="5.60751">
        <ele>218</ele>
        <time>2022-04-16T09:01:09.516Z</time>
      </trkpt>
      <trkpt lat="45.64751" lon="5.60748">
        <ele>218</ele>
        <time>2022-04-16T09:01:10.516Z</time>
      </trkpt>
      <trkpt lat="45.64755" lon="5.60746">
        <ele>218</ele>
        <time>2022-04-16T09:01:11.516Z</time>
      </trkpt>
      <trkpt lat="45.64761" lon="5.60742">
        <ele>218</ele>
        <time>2022-04-16T09:01:12.516Z</time>
      </trkpt>
      <trkpt lat="45.64765" lon="5.60739">
        <ele>218</ele>
        <time>2022-04-16T09:01:13.516Z</time>
      </trkpt>
      <trkpt lat="45.6477" lon="5.60736">
        <ele>218</ele>
        <time>2022-04-16T09:01:14.516Z</time>
      </trkpt>
      <trkpt lat="45.64775" lon="5.60733">
        <ele>218</ele>
        <time>2022-04-16T09:01:15.516Z</time>
      </trkpt>
      <trkpt lat="45.64779" lon="5.6073">
        <ele>218</ele>
        <time>2022-04-16T09:01:16.516Z</time>
      </trkpt>
      <trkpt lat="45.64784" lon="5.60727">
        <ele>218</ele>
        <time>2022-04-16T09:01:17.515Z</time>
      </trkpt>
      <trkpt lat="45.64789" lon="5.60724">
        <ele>218</ele>
        <time>2022-04-16T09:01:18.516Z</time>
      </trkpt>
      <trkpt lat="45.64794" lon="5.60722">
        <ele>217</ele>
        <time>2022-04-16T09:01:19.516Z</time>
      </trkpt>
      <trkpt lat="45.64799" lon="5.60718">
        <ele>218</ele>
        <time>2022-04-16T09:01:20.516Z</time>
      </trkpt>
      <trkpt lat="45.64803" lon="5.60716">
        <ele>218</ele>
        <time>2022-04-16T09:01:21.515Z</time>
      </trkpt>
      <trkpt lat="45.64808" lon="5.60712">
        <ele>218</ele>
        <time>2022-04-16T09:01:22.516Z</time>
      </trkpt>
      <trkpt lat="45.64813" lon="5.60709">
        <ele>218</ele>
        <time>2022-04-16T09:01:23.516Z</time>
      </trkpt>
      <trkpt lat="45.64818" lon="5.60706">
        <ele>218</ele>
        <time>2022-04-16T09:01:24.516Z</time>
      </trkpt>
      <trkpt lat="45.64822" lon="5.60703">
        <ele>218</ele>
        <time>2022-04-16T09:01:25.516Z</time>
      </trkpt>
      <trkpt lat="45.64827" lon="5.607">
        <ele>218</ele>
        <time>2022-04-16T09:01:26.516Z</time>
      </trkpt>
      <trkpt lat="45.64832" lon="5.60697">
        <ele>219</ele>
        <time>2022-04-16T09:01:27.516Z</time>
      </trkpt>
      <trkpt lat="45.64837" lon="5.60694">
        <ele>219</ele>
        <time>2022-04-16T09:01:28.516Z</time>
      </trkpt>
      <trkpt lat="45.64842" lon="5.60691">
        <ele>219</ele>
        <time>2022-04-16T09:01:29.516Z</time>
      </trkpt>
      <trkpt lat="45.64847" lon="5.60688">
        <ele>219</ele>
        <time>2022-04-16T09:01:30.516Z</time>
      </trkpt>
      <trkpt lat="45.64852" lon="5.60685">
        <ele>219</ele>
        <time>2022-04-16T09:01:31.516Z</time>
      </trkpt>
      <trkpt lat="45.64856" lon="5.60682">
        <ele>219</ele>
        <time>2022-04-16T09:01:32.515Z</time>
      </trkpt>
      <trkpt lat="45.64861" lon="5.60679">
        <ele>219</ele>
        <time>2022-04-16T09:01:33.516Z</time>
      </trkpt>
      <trkpt lat="45.64866" lon="5.60676">
        <ele>219</ele>
        <time>2022-04-16T09:01:34.515Z</time>
      </trkpt>
      <trkpt lat="45.64871" lon="5.60673">
        <ele>218</ele>
        <time>2022-04-16T09:01:35.515Z</time>
      </trkpt>
      <trkpt lat="45.64876" lon="5.6067">
        <ele>218</ele>
        <time>2022-04-16T09:01:36.515Z</time>
      </trkpt>
      <trkpt lat="45.64881" lon="5.60667">
        <ele>218</ele>
        <time>2022-04-16T09:01:37.516Z</time>
      </trkpt>
      <trkpt lat="45.64885" lon="5.60664">
        <ele>218</ele>
        <time>2022-04-16T09:01:38.515Z</time>
      </trkpt>
      <trkpt lat="45.6489" lon="5.60661">
        <ele>218</ele>
        <time>2022-04-16T09:01:39.516Z</time>
      </trkpt>
      <trkpt lat="45.64895" lon="5.60658">
        <ele>217</ele>
        <time>2022-04-16T09:01:40.516Z</time>
      </trkpt>
      <trkpt lat="45.649" lon="5.60655">
        <ele>217</ele>
        <time>2022-04-16T09:01:41.515Z</time>
      </trkpt>
      <trkpt lat="45.64904" lon="5.60652">
        <ele>217</ele>
        <time>2022-04-16T09:01:42.516Z</time>
      </trkpt>
      <trkpt lat="45.64908" lon="5.60649">
        <ele>218</ele>
        <time>2022-04-16T09:01:43.516Z</time>
      </trkpt>
      <trkpt lat="45.64913" lon="5.60647">
        <ele>218</ele>
        <time>2022-04-16T09:01:44.516Z</time>
      </trkpt>
      <trkpt lat="45.64917" lon="5.60644">
        <ele>218</ele>
        <time>2022-04-16T09:01:45.515Z</time>
      </trkpt>
      <trkpt lat="45.64921" lon="5.60641">
        <ele>218</ele>
        <time>2022-04-16T09:01:46.516Z</time>
      </trkpt>
      <trkpt lat="45.64925" lon="5.60638">
        <ele>218</ele>
        <time>2022-04-16T09:01:47.516Z</time>
      </trkpt>
      <trkpt lat="45.6493" lon="5.60636">
        <ele>218</ele>
        <time>2022-04-16T09:01:48.515Z</time>
      </trkpt>
      <trkpt lat="45.64934" lon="5.60633">
        <ele>218</ele>
        <time>2022-04-16T09:01:49.515Z</time>
      </trkpt>
      <trkpt lat="45.64938" lon="5.6063">
        <ele>218</ele>
        <time>2022-04-16T09:01:50.515Z</time>
      </trkpt>
      <trkpt lat="45.64942" lon="5.60628">
        <ele>218</ele>
        <time>2022-04-16T09:01:51.516Z</time>
      </trkpt>
      <trkpt lat="45.64947" lon="5.60625">
        <ele>218</ele>
        <time>2022-04-16T09:01:52.515Z</time>
      </trkpt>
      <trkpt lat="45.64951" lon="5.60622">
        <ele>217</ele>
        <time>2022-04-16T09:01:53.515Z</time>
      </trkpt>
      <trkpt lat="45.64956" lon="5.6062">
        <ele>218</ele>
        <time>2022-04-16T09:01:54.515Z</time>
      </trkpt>
      <trkpt lat="45.6496" lon="5.60617">
        <ele>218</ele>
        <time>2022-04-16T09:01:55.516Z</time>
      </trkpt>
      <trkpt lat="45.64964" lon="5.60614">
        <ele>218</ele>
        <time>2022-04-16T09:01:56.516Z</time>
      </trkpt>
      <trkpt lat="45.64968" lon="5.60611">
        <ele>218</ele>
        <time>2022-04-16T09:01:57.515Z</time>
      </trkpt>
      <trkpt lat="45.64973" lon="5.60609">
        <ele>218</ele>
        <time>2022-04-16T09:01:58.516Z</time>
      </trkpt>
      <trkpt lat="45.64977" lon="5.60606">
        <ele>218</ele>
        <time>2022-04-16T09:01:59.516Z</time>
      </trkpt>
      <trkpt lat="45.64981" lon="5.60603">
        <ele>218</ele>
        <time>2022-04-16T09:02:00.515Z</time>
      </trkpt>
      <trkpt lat="45.64986" lon="5.606">
        <ele>219</ele>
        <time>2022-04-16T09:02:01.516Z</time>
      </trkpt>
      <trkpt lat="45.6499" lon="5.60598">
        <ele>219</ele>
        <time>2022-04-16T09:02:02.516Z</time>
      </trkpt>
      <trkpt lat="45.64995" lon="5.60595">
        <ele>218</ele>
        <time>2022-04-16T09:02:03.516Z</time>
      </trkpt>
      <trkpt lat="45.64999" lon="5.60593">
        <ele>218</ele>
        <time>2022-04-16T09:02:04.516Z</time>
      </trkpt>
      <trkpt lat="45.65003" lon="5.6059">
        <ele>218</ele>
        <time>2022-04-16T09:02:05.515Z</time>
      </trkpt>
      <trkpt lat="45.65008" lon="5.60587">
        <ele>218</ele>
        <time>2022-04-16T09:02:06.515Z</time>
      </trkpt>
      <trkpt lat="45.65012" lon="5.60585">
        <ele>218</ele>
        <time>2022-04-16T09:02:07.516Z</time>
      </trkpt>
      <trkpt lat="45.65016" lon="5.60582">
        <ele>218</ele>
        <time>2022-04-16T09:02:08.516Z</time>
      </trkpt>
      <trkpt lat="45.65021" lon="5.60579">
        <ele>218</ele>
        <time>2022-04-16T09:02:09.516Z</time>
      </trkpt>
      <trkpt lat="45.65025" lon="5.60577">
        <ele>218</ele>
        <time>2022-04-16T09:02:10.515Z</time>
      </trkpt>
      <trkpt lat="45.6503" lon="5.60574">
        <ele>218</ele>
        <time>2022-04-16T09:02:11.515Z</time>
      </trkpt>
      <trkpt lat="45.65034" lon="5.60571">
        <ele>218</ele>
        <time>2022-04-16T09:02:12.515Z</time>
      </trkpt>
      <trkpt lat="45.65038" lon="5.60569">
        <ele>218</ele>
        <time>2022-04-16T09:02:13.516Z</time>
      </trkpt>
      <trkpt lat="45.65043" lon="5.60566">
        <ele>218</ele>
        <time>2022-04-16T09:02:14.516Z</time>
      </trkpt>
      <trkpt lat="45.65047" lon="5.60563">
        <ele>218</ele>
        <time>2022-04-16T09:02:15.516Z</time>
      </trkpt>
      <trkpt lat="45.65051" lon="5.6056">
        <ele>218</ele>
        <time>2022-04-16T09:02:16.515Z</time>
      </trkpt>
      <trkpt lat="45.65054" lon="5.60557">
        <ele>218</ele>
        <time>2022-04-16T09:02:17.515Z</time>
      </trkpt>
      <trkpt lat="45.65057" lon="5.60552">
        <ele>218</ele>
        <time>2022-04-16T09:02:18.516Z</time>
      </trkpt>
      <trkpt lat="45.6506" lon="5.60547">
        <ele>218</ele>
        <time>2022-04-16T09:02:19.515Z</time>
      </trkpt>
      <trkpt lat="45.65062" lon="5.60543">
        <ele>218</ele>
        <time>2022-04-16T09:02:20.516Z</time>
      </trkpt>
      <trkpt lat="45.65065" lon="5.60539">
        <ele>217</ele>
        <time>2022-04-16T09:02:21.515Z</time>
      </trkpt>
      <trkpt lat="45.65068" lon="5.60535">
        <ele>217</ele>
        <time>2022-04-16T09:02:22.516Z</time>
      </trkpt>
      <trkpt lat="45.65071" lon="5.6053">
        <ele>217</ele>
        <time>2022-04-16T09:02:23.516Z</time>
      </trkpt>
      <trkpt lat="45.65075" lon="5.60526">
        <ele>217</ele>
        <time>2022-04-16T09:02:24.516Z</time>
      </trkpt>
      <trkpt lat="45.65078" lon="5.60522">
        <ele>216</ele>
        <time>2022-04-16T09:02:25.515Z</time>
      </trkpt>
      <trkpt lat="45.65082" lon="5.60517">
        <ele>217</ele>
        <time>2022-04-16T09:02:26.516Z</time>
      </trkpt>
      <trkpt lat="45.65085" lon="5.60512">
        <ele>217</ele>
        <time>2022-04-16T09:02:27.516Z</time>
      </trkpt>
      <trkpt lat="45.65089" lon="5.60508">
        <ele>217</ele>
        <time>2022-04-16T09:02:28.515Z</time>
      </trkpt>
      <trkpt lat="45.65093" lon="5.60503">
        <ele>217</ele>
        <time>2022-04-16T09:02:29.516Z</time>
      </trkpt>
      <trkpt lat="45.65097" lon="5.60498">
        <ele>217</ele>
        <time>2022-04-16T09:02:30.515Z</time>
      </trkpt>
      <trkpt lat="45.651" lon="5.60493">
        <ele>216</ele>
        <time>2022-04-16T09:02:31.516Z</time>
      </trkpt>
      <trkpt lat="45.65104" lon="5.60489">
        <ele>216</ele>
        <time>2022-04-16T09:02:32.516Z</time>
      </trkpt>
      <trkpt lat="45.65108" lon="5.60484">
        <ele>216</ele>
        <time>2022-04-16T09:02:33.515Z</time>
      </trkpt>
      <trkpt lat="45.65112" lon="5.6048">
        <ele>216</ele>
        <time>2022-04-16T09:02:34.516Z</time>
      </trkpt>
      <trkpt lat="45.65116" lon="5.60477">
        <ele>217</ele>
        <time>2022-04-16T09:02:35.516Z</time>
      </trkpt>
      <trkpt lat="45.6512" lon="5.60473">
        <ele>217</ele>
        <time>2022-04-16T09:02:36.516Z</time>
      </trkpt>
      <trkpt lat="45.65124" lon="5.60469">
        <ele>217</ele>
        <time>2022-04-16T09:02:37.515Z</time>
      </trkpt>
      <trkpt lat="45.65129" lon="5.60466">
        <ele>217</ele>
        <time>2022-04-16T09:02:38.516Z</time>
      </trkpt>
      <trkpt lat="45.65133" lon="5.60463">
        <ele>218</ele>
        <time>2022-04-16T09:02:39.516Z</time>
      </trkpt>
      <trkpt lat="45.65138" lon="5.60459">
        <ele>218</ele>
        <time>2022-04-16T09:02:40.515Z</time>
      </trkpt>
      <trkpt lat="45.65142" lon="5.60456">
        <ele>218</ele>
        <time>2022-04-16T09:02:41.516Z</time>
      </trkpt>
      <trkpt lat="45.65147" lon="5.60453">
        <ele>219</ele>
        <time>2022-04-16T09:02:42.515Z</time>
      </trkpt>
      <trkpt lat="45.65152" lon="5.6045">
        <ele>219</ele>
        <time>2022-04-16T09:02:43.516Z</time>
      </trkpt>
      <trkpt lat="45.65157" lon="5.60447">
        <ele>219</ele>
        <time>2022-04-16T09:02:44.516Z</time>
      </trkpt>
      <trkpt lat="45.65162" lon="5.60444">
        <ele>219</ele>
        <time>2022-04-16T09:02:45.516Z</time>
      </trkpt>
      <trkpt lat="45.65167" lon="5.60441">
        <ele>219</ele>
        <time>2022-04-16T09:02:46.516Z</time>
      </trkpt>
      <trkpt lat="45.65172" lon="5.60437">
        <ele>219</ele>
        <time>2022-04-16T09:02:47.516Z</time>
      </trkpt>
      <trkpt lat="45.65177" lon="5.60434">
        <ele>219</ele>
        <time>2022-04-16T09:02:48.516Z</time>
      </trkpt>
      <trkpt lat="45.65182" lon="5.60431">
        <ele>218</ele>
        <time>2022-04-16T09:02:49.516Z</time>
      </trkpt>
      <trkpt lat="45.65187" lon="5.60427">
        <ele>218</ele>
        <time>2022-04-16T09:02:50.515Z</time>
      </trkpt>
      <trkpt lat="45.65192" lon="5.60424">
        <ele>218</ele>
        <time>2022-04-16T09:02:51.516Z</time>
      </trkpt>
      <trkpt lat="45.65196" lon="5.60421">
        <ele>218</ele>
        <time>2022-04-16T09:02:52.515Z</time>
      </trkpt>
      <trkpt lat="45.65202" lon="5.60417">
        <ele>218</ele>
        <time>2022-04-16T09:02:53.515Z</time>
      </trkpt>
      <trkpt lat="45.65207" lon="5.60414">
        <ele>218</ele>
        <time>2022-04-16T09:02:54.516Z</time>
      </trkpt>
      <trkpt lat="45.65211" lon="5.6041">
        <ele>218</ele>
        <time>2022-04-16T09:02:55.516Z</time>
      </trkpt>
      <trkpt lat="45.65216" lon="5.60406">
        <ele>218</ele>
        <time>2022-04-16T09:02:56.516Z</time>
      </trkpt>
      <trkpt lat="45.65221" lon="5.60403">
        <ele>218</ele>
        <time>2022-04-16T09:02:57.516Z</time>
      </trkpt>
      <trkpt lat="45.65226" lon="5.60399">
        <ele>218</ele>
        <time>2022-04-16T09:02:58.515Z</time>
      </trkpt>
      <trkpt lat="45.65231" lon="5.60395">
        <ele>218</ele>
        <time>2022-04-16T09:02:59.515Z</time>
      </trkpt>
      <trkpt lat="45.65236" lon="5.60391">
        <ele>218</ele>
        <time>2022-04-16T09:03:00.515Z</time>
      </trkpt>
      <trkpt lat="45.65241" lon="5.60387">
        <ele>218</ele>
        <time>2022-04-16T09:03:01.515Z</time>
      </trkpt>
      <trkpt lat="45.65246" lon="5.60383">
        <ele>218</ele>
        <time>2022-04-16T09:03:02.515Z</time>
      </trkpt>
      <trkpt lat="45.6525" lon="5.60378">
        <ele>218</ele>
        <time>2022-04-16T09:03:03.516Z</time>
      </trkpt>
      <trkpt lat="45.65254" lon="5.60374">
        <ele>218</ele>
        <time>2022-04-16T09:03:04.515Z</time>
      </trkpt>
      <trkpt lat="45.65259" lon="5.60369">
        <ele>218</ele>
        <time>2022-04-16T09:03:05.515Z</time>
      </trkpt>
      <trkpt lat="45.65263" lon="5.60365">
        <ele>218</ele>
        <time>2022-04-16T09:03:06.516Z</time>
      </trkpt>
      <trkpt lat="45.65268" lon="5.60361">
        <ele>217</ele>
        <time>2022-04-16T09:03:07.516Z</time>
      </trkpt>
      <trkpt lat="45.65272" lon="5.60357">
        <ele>217</ele>
        <time>2022-04-16T09:03:08.515Z</time>
      </trkpt>
      <trkpt lat="45.65276" lon="5.60353">
        <ele>216</ele>
        <time>2022-04-16T09:03:09.516Z</time>
      </trkpt>
      <trkpt lat="45.6528" lon="5.60349">
        <ele>216</ele>
        <time>2022-04-16T09:03:10.516Z</time>
      </trkpt>
      <trkpt lat="45.65284" lon="5.60344">
        <ele>216</ele>
        <time>2022-04-16T09:03:11.516Z</time>
      </trkpt>
      <trkpt lat="45.65289" lon="5.60339">
        <ele>216</ele>
        <time>2022-04-16T09:03:12.516Z</time>
      </trkpt>
      <trkpt lat="45.65294" lon="5.60334">
        <ele>215</ele>
        <time>2022-04-16T09:03:13.516Z</time>
      </trkpt>
      <trkpt lat="45.65298" lon="5.6033">
        <ele>215</ele>
        <time>2022-04-16T09:03:14.516Z</time>
      </trkpt>
      <trkpt lat="45.65303" lon="5.60326">
        <ele>215</ele>
        <time>2022-04-16T09:03:15.516Z</time>
      </trkpt>
      <trkpt lat="45.65307" lon="5.60321">
        <ele>215</ele>
        <time>2022-04-16T09:03:16.516Z</time>
      </trkpt>
      <trkpt lat="45.65311" lon="5.60317">
        <ele>215</ele>
        <time>2022-04-16T09:03:17.515Z</time>
      </trkpt>
      <trkpt lat="45.65317" lon="5.60312">
        <ele>215</ele>
        <time>2022-04-16T09:03:18.515Z</time>
      </trkpt>
      <trkpt lat="45.65321" lon="5.60308">
        <ele>215</ele>
        <time>2022-04-16T09:03:19.515Z</time>
      </trkpt>
      <trkpt lat="45.65325" lon="5.60303">
        <ele>215</ele>
        <time>2022-04-16T09:03:20.516Z</time>
      </trkpt>
      <trkpt lat="45.6533" lon="5.60299">
        <ele>215</ele>
        <time>2022-04-16T09:03:21.516Z</time>
      </trkpt>
      <trkpt lat="45.65334" lon="5.60294">
        <ele>215</ele>
        <time>2022-04-16T09:03:22.515Z</time>
      </trkpt>
      <trkpt lat="45.65339" lon="5.6029">
        <ele>215</ele>
        <time>2022-04-16T09:03:23.515Z</time>
      </trkpt>
      <trkpt lat="45.65344" lon="5.60286">
        <ele>216</ele>
        <time>2022-04-16T09:03:24.516Z</time>
      </trkpt>
      <trkpt lat="45.65348" lon="5.60283">
        <ele>216</ele>
        <time>2022-04-16T09:03:25.515Z</time>
      </trkpt>
      <trkpt lat="45.65353" lon="5.6028">
        <ele>216</ele>
        <time>2022-04-16T09:03:26.515Z</time>
      </trkpt>
      <trkpt lat="45.65358" lon="5.60277">
        <ele>216</ele>
        <time>2022-04-16T09:03:27.515Z</time>
      </trkpt>
      <trkpt lat="45.65363" lon="5.60273">
        <ele>215</ele>
        <time>2022-04-16T09:03:28.516Z</time>
      </trkpt>
      <trkpt lat="45.65367" lon="5.6027">
        <ele>215</ele>
        <time>2022-04-16T09:03:29.515Z</time>
      </trkpt>
      <trkpt lat="45.65372" lon="5.60269">
        <ele>216</ele>
        <time>2022-04-16T09:03:30.516Z</time>
      </trkpt>
      <trkpt lat="45.65375" lon="5.60269">
        <ele>216</ele>
        <time>2022-04-16T09:03:31.515Z</time>
      </trkpt>
      <trkpt lat="45.65377" lon="5.6027">
        <ele>216</ele>
        <time>2022-04-16T09:03:32.516Z</time>
      </trkpt>
      <trkpt lat="45.65379" lon="5.60271">
        <ele>216</ele>
        <time>2022-04-16T09:03:33.516Z</time>
      </trkpt>
      <trkpt lat="45.65381" lon="5.60272">
        <ele>216</ele>
        <time>2022-04-16T09:03:34.516Z</time>
      </trkpt>
      <trkpt lat="45.65382" lon="5.60273">
        <ele>216</ele>
        <time>2022-04-16T09:03:35.516Z</time>
      </trkpt>
      <trkpt lat="45.65384" lon="5.60274">
        <ele>216</ele>
        <time>2022-04-16T09:03:36.516Z</time>
      </trkpt>
      <trkpt lat="45.65385" lon="5.60274">
        <ele>217</ele>
        <time>2022-04-16T09:03:37.516Z</time>
      </trkpt>
      <trkpt lat="45.65387" lon="5.60273">
        <ele>216</ele>
        <time>2022-04-16T09:03:38.515Z</time>
      </trkpt>
      <trkpt lat="45.65388" lon="5.60272">
        <ele>216</ele>
        <time>2022-04-16T09:03:39.516Z</time>
      </trkpt>
      <trkpt lat="45.6539" lon="5.60271">
        <ele>216</ele>
        <time>2022-04-16T09:03:40.515Z</time>
      </trkpt>
      <trkpt lat="45.65391" lon="5.6027">
        <ele>216</ele>
        <time>2022-04-16T09:03:41.516Z</time>
      </trkpt>
      <trkpt lat="45.65393" lon="5.60269">
        <ele>216</ele>
        <time>2022-04-16T09:03:42.516Z</time>
      </trkpt>
      <trkpt lat="45.65395" lon="5.60267">
        <ele>216</ele>
        <time>2022-04-16T09:03:43.515Z</time>
      </trkpt>
      <trkpt lat="45.65397" lon="5.60265">
        <ele>216</ele>
        <time>2022-04-16T09:03:44.516Z</time>
      </trkpt>
      <trkpt lat="45.65399" lon="5.60264">
        <ele>216</ele>
        <time>2022-04-16T09:03:45.516Z</time>
      </trkpt>
      <trkpt lat="45.65401" lon="5.60263">
        <ele>216</ele>
        <time>2022-04-16T09:03:46.516Z</time>
      </trkpt>
      <trkpt lat="45.65404" lon="5.60262">
        <ele>216</ele>
        <time>2022-04-16T09:03:47.516Z</time>
      </trkpt>
      <trkpt lat="45.65406" lon="5.60261">
        <ele>216</ele>
        <time>2022-04-16T09:03:48.516Z</time>
      </trkpt>
      <trkpt lat="45.65408" lon="5.6026">
        <ele>216</ele>
        <time>2022-04-16T09:03:49.516Z</time>
      </trkpt>
      <trkpt lat="45.65411" lon="5.60259">
        <ele>216</ele>
        <time>2022-04-16T09:03:50.515Z</time>
      </trkpt>
      <trkpt lat="45.65413" lon="5.60258">
        <ele>216</ele>
        <time>2022-04-16T09:03:51.516Z</time>
      </trkpt>
      <trkpt lat="45.65415" lon="5.60257">
        <ele>216</ele>
        <time>2022-04-16T09:03:52.516Z</time>
      </trkpt>
      <trkpt lat="45.65416" lon="5.60256">
        <ele>215</ele>
        <time>2022-04-16T09:03:53.516Z</time>
      </trkpt>
      <trkpt lat="45.65419" lon="5.60255">
        <ele>215</ele>
        <time>2022-04-16T09:03:54.516Z</time>
      </trkpt>
      <trkpt lat="45.65421" lon="5.60254">
        <ele>215</ele>
        <time>2022-04-16T09:03:55.516Z</time>
      </trkpt>
      <trkpt lat="45.65423" lon="5.60253">
        <ele>215</ele>
        <time>2022-04-16T09:03:56.516Z</time>
      </trkpt>
      <trkpt lat="45.65425" lon="5.6025">
        <ele>215</ele>
        <time>2022-04-16T09:03:57.516Z</time>
      </trkpt>
      <trkpt lat="45.65428" lon="5.60249">
        <ele>215</ele>
        <time>2022-04-16T09:03:58.516Z</time>
      </trkpt>
      <trkpt lat="45.6543" lon="5.60248">
        <ele>216</ele>
        <time>2022-04-16T09:03:59.516Z</time>
      </trkpt>
      <trkpt lat="45.65433" lon="5.60248">
        <ele>216</ele>
        <time>2022-04-16T09:04:00.516Z</time>
      </trkpt>
      <trkpt lat="45.65434" lon="5.60246">
        <ele>216</ele>
        <time>2022-04-16T09:04:01.516Z</time>
      </trkpt>
      <trkpt lat="45.65435" lon="5.60245">
        <ele>216</ele>
        <time>2022-04-16T09:04:02.515Z</time>
      </trkpt>
      <trkpt lat="45.65434" lon="5.60244">
        <ele>216</ele>
        <time>2022-04-16T09:04:03.515Z</time>
      </trkpt>
      <trkpt lat="45.65433" lon="5.60244">
        <ele>217</ele>
        <time>2022-04-16T09:04:04.516Z</time>
      </trkpt>
      <trkpt lat="45.65431" lon="5.60244">
        <ele>217</ele>
        <time>2022-04-16T09:04:05.515Z</time>
      </trkpt>
      <trkpt lat="45.65428" lon="5.60245">
        <ele>218</ele>
        <time>2022-04-16T09:04:06.515Z</time>
      </trkpt>
      <trkpt lat="45.65425" lon="5.60247">
        <ele>218</ele>
        <time>2022-04-16T09:04:07.516Z</time>
      </trkpt>
      <trkpt lat="45.65421" lon="5.60249">
        <ele>218</ele>
        <time>2022-04-16T09:04:08.516Z</time>
      </trkpt>
      <trkpt lat="45.65417" lon="5.60252">
        <ele>218</ele>
        <time>2022-04-16T09:04:09.516Z</time>
      </trkpt>
      <trkpt lat="45.65413" lon="5.60254">
        <ele>218</ele>
        <time>2022-04-16T09:04:10.516Z</time>
      </trkpt>
      <trkpt lat="45.65408" lon="5.60256">
        <ele>218</ele>
        <time>2022-04-16T09:04:11.516Z</time>
      </trkpt>
      <trkpt lat="45.65403" lon="5.60258">
        <ele>219</ele>
        <time>2022-04-16T09:04:12.515Z</time>
      </trkpt>
      <trkpt lat="45.65399" lon="5.60261">
        <ele>219</ele>
        <time>2022-04-16T09:04:13.516Z</time>
      </trkpt>
      <trkpt lat="45.65394" lon="5.60264">
        <ele>219</ele>
        <time>2022-04-16T09:04:14.516Z</time>
      </trkpt>
      <trkpt lat="45.6539" lon="5.60268">
        <ele>219</ele>
        <time>2022-04-16T09:04:15.516Z</time>
      </trkpt>
      <trkpt lat="45.65387" lon="5.60272">
        <ele>219</ele>
        <time>2022-04-16T09:04:16.516Z</time>
      </trkpt>
      <trkpt lat="45.65384" lon="5.60277">
        <ele>219</ele>
        <time>2022-04-16T09:04:17.516Z</time>
      </trkpt>
      <trkpt lat="45.65382" lon="5.60283">
        <ele>218</ele>
        <time>2022-04-16T09:04:18.515Z</time>
      </trkpt>
      <trkpt lat="45.65381" lon="5.60289">
        <ele>218</ele>
        <time>2022-04-16T09:04:19.516Z</time>
      </trkpt>
      <trkpt lat="45.65381" lon="5.60295">
        <ele>217</ele>
        <time>2022-04-16T09:04:20.516Z</time>
      </trkpt>
      <trkpt lat="45.65382" lon="5.60301">
        <ele>217</ele>
        <time>2022-04-16T09:04:21.516Z</time>
      </trkpt>
      <trkpt lat="45.65384" lon="5.60308">
        <ele>216</ele>
        <time>2022-04-16T09:04:22.516Z</time>
      </trkpt>
      <trkpt lat="45.65386" lon="5.60315">
        <ele>216</ele>
        <time>2022-04-16T09:04:23.516Z</time>
      </trkpt>
      <trkpt lat="45.65388" lon="5.60321">
        <ele>216</ele>
        <time>2022-04-16T09:04:24.516Z</time>
      </trkpt>
      <trkpt lat="45.65389" lon="5.60326">
        <ele>215</ele>
        <time>2022-04-16T09:04:25.515Z</time>
      </trkpt>
      <trkpt lat="45.65391" lon="5.60331">
        <ele>215</ele>
        <time>2022-04-16T09:04:26.516Z</time>
      </trkpt>
      <trkpt lat="45.65393" lon="5.60336">
        <ele>215</ele>
        <time>2022-04-16T09:04:27.516Z</time>
      </trkpt>
      <trkpt lat="45.65394" lon="5.60341">
        <ele>215</ele>
        <time>2022-04-16T09:04:28.515Z</time>
      </trkpt>
      <trkpt lat="45.65396" lon="5.60346">
        <ele>214</ele>
        <time>2022-04-16T09:04:29.516Z</time>
      </trkpt>
      <trkpt lat="45.65398" lon="5.60352">
        <ele>214</ele>
        <time>2022-04-16T09:04:30.516Z</time>
      </trkpt>
      <trkpt lat="45.65399" lon="5.60359">
        <ele>214</ele>
        <time>2022-04-16T09:04:31.516Z</time>
      </trkpt>
      <trkpt lat="45.65401" lon="5.60366">
        <ele>213</ele>
        <time>2022-04-16T09:04:32.515Z</time>
      </trkpt>
      <trkpt lat="45.65403" lon="5.60373">
        <ele>213</ele>
        <time>2022-04-16T09:04:33.516Z</time>
      </trkpt>
      <trkpt lat="45.65405" lon="5.60379">
        <ele>213</ele>
        <time>2022-04-16T09:04:34.516Z</time>
      </trkpt>
      <trkpt lat="45.65407" lon="5.60386">
        <ele>212</ele>
        <time>2022-04-16T09:04:35.516Z</time>
      </trkpt>
      <trkpt lat="45.65409" lon="5.60392">
        <ele>212</ele>
        <time>2022-04-16T09:04:36.516Z</time>
      </trkpt>
      <trkpt lat="45.65411" lon="5.60398">
        <ele>211</ele>
        <time>2022-04-16T09:04:37.515Z</time>
      </trkpt>
      <trkpt lat="45.65412" lon="5.60403">
        <ele>211</ele>
        <time>2022-04-16T09:04:38.516Z</time>
      </trkpt>
      <trkpt lat="45.65414" lon="5.60409">
        <ele>211</ele>
        <time>2022-04-16T09:04:39.515Z</time>
      </trkpt>
      <trkpt lat="45.65416" lon="5.60415">
        <ele>210</ele>
        <time>2022-04-16T09:04:40.516Z</time>
      </trkpt>
      <trkpt lat="45.65418" lon="5.60421">
        <ele>210</ele>
        <time>2022-04-16T09:04:41.515Z</time>
      </trkpt>
      <trkpt lat="45.6542" lon="5.60428">
        <ele>209</ele>
        <time>2022-04-16T09:04:42.515Z</time>
      </trkpt>
      <trkpt lat="45.65422" lon="5.60435">
        <ele>209</ele>
        <time>2022-04-16T09:04:43.516Z</time>
      </trkpt>
      <trkpt lat="45.65424" lon="5.60442">
        <ele>209</ele>
        <time>2022-04-16T09:04:44.516Z</time>
      </trkpt>
      <trkpt lat="45.65426" lon="5.60448">
        <ele>210</ele>
        <time>2022-04-16T09:04:45.516Z</time>
      </trkpt>
      <trkpt lat="45.65429" lon="5.60455">
        <ele>209</ele>
        <time>2022-04-16T09:04:46.516Z</time>
      </trkpt>
      <trkpt lat="45.65431" lon="5.60462">
        <ele>209</ele>
        <time>2022-04-16T09:04:47.516Z</time>
      </trkpt>
      <trkpt lat="45.65433" lon="5.60468">
        <ele>209</ele>
        <time>2022-04-16T09:04:48.515Z</time>
      </trkpt>
      <trkpt lat="45.65435" lon="5.60475">
        <ele>209</ele>
        <time>2022-04-16T09:04:49.516Z</time>
      </trkpt>
      <trkpt lat="45.65436" lon="5.60482">
        <ele>209</ele>
        <time>2022-04-16T09:04:50.516Z</time>
      </trkpt>
      <trkpt lat="45.65438" lon="5.60489">
        <ele>209</ele>
        <time>2022-04-16T09:04:51.516Z</time>
      </trkpt>
      <trkpt lat="45.6544" lon="5.60496">
        <ele>209</ele>
        <time>2022-04-16T09:04:52.516Z</time>
      </trkpt>
      <trkpt lat="45.65442" lon="5.60503">
        <ele>209</ele>
        <time>2022-04-16T09:04:53.516Z</time>
      </trkpt>
      <trkpt lat="45.65444" lon="5.60509">
        <ele>209</ele>
        <time>2022-04-16T09:04:54.515Z</time>
      </trkpt>
      <trkpt lat="45.65446" lon="5.60515">
        <ele>209</ele>
        <time>2022-04-16T09:04:55.516Z</time>
      </trkpt>
      <trkpt lat="45.65449" lon="5.60521">
        <ele>209</ele>
        <time>2022-04-16T09:04:56.516Z</time>
      </trkpt>
      <trkpt lat="45.65451" lon="5.60528">
        <ele>209</ele>
        <time>2022-04-16T09:04:57.516Z</time>
      </trkpt>
      <trkpt lat="45.65453" lon="5.60534">
        <ele>209</ele>
        <time>2022-04-16T09:04:58.516Z</time>
      </trkpt>
      <trkpt lat="45.65454" lon="5.60539">
        <ele>209</ele>
        <time>2022-04-16T09:04:59.516Z</time>
      </trkpt>
      <trkpt lat="45.65456" lon="5.60545">
        <ele>210</ele>
        <time>2022-04-16T09:05:00.516Z</time>
      </trkpt>
      <trkpt lat="45.65457" lon="5.6055">
        <ele>210</ele>
        <time>2022-04-16T09:05:01.515Z</time>
      </trkpt>
      <trkpt lat="45.65459" lon="5.60555">
        <ele>210</ele>
        <time>2022-04-16T09:05:02.515Z</time>
      </trkpt>
      <trkpt lat="45.6546" lon="5.60559">
        <ele>210</ele>
        <time>2022-04-16T09:05:03.516Z</time>
      </trkpt>
      <trkpt lat="45.65462" lon="5.60563">
        <ele>210</ele>
        <time>2022-04-16T09:05:04.516Z</time>
      </trkpt>
      <trkpt lat="45.65463" lon="5.60568">
        <ele>210</ele>
        <time>2022-04-16T09:05:05.515Z</time>
      </trkpt>
      <trkpt lat="45.65464" lon="5.60572">
        <ele>209</ele>
        <time>2022-04-16T09:05:06.516Z</time>
      </trkpt>
      <trkpt lat="45.65466" lon="5.60576">
        <ele>209</ele>
        <time>2022-04-16T09:05:07.516Z</time>
      </trkpt>
      <trkpt lat="45.65468" lon="5.60579">
        <ele>210</ele>
        <time>2022-04-16T09:05:08.516Z</time>
      </trkpt>
      <trkpt lat="45.6547" lon="5.60582">
        <ele>210</ele>
        <time>2022-04-16T09:05:09.516Z</time>
      </trkpt>
      <trkpt lat="45.65472" lon="5.60583">
        <ele>210</ele>
        <time>2022-04-16T09:05:10.516Z</time>
      </trkpt>
      <trkpt lat="45.65474" lon="5.60584">
        <ele>210</ele>
        <time>2022-04-16T09:05:11.515Z</time>
      </trkpt>
      <trkpt lat="45.65475" lon="5.60584">
        <ele>210</ele>
        <time>2022-04-16T09:05:12.516Z</time>
      </trkpt>
      <trkpt lat="45.65476" lon="5.60584">
        <ele>210</ele>
        <time>2022-04-16T09:05:13.516Z</time>
      </trkpt>
      <trkpt lat="45.65476" lon="5.60584">
        <ele>210</ele>
        <time>2022-04-16T09:05:14.516Z</time>
      </trkpt>
      <trkpt lat="45.65476" lon="5.60584">
        <ele>209</ele>
        <time>2022-04-16T09:05:15.516Z</time>
      </trkpt>
      <trkpt lat="45.65474" lon="5.6058">
        <ele>212</ele>
        <time>2022-04-16T09:05:24.646Z</time>
      </trkpt>
      <trkpt lat="45.65474" lon="5.60579">
        <ele>212</ele>
        <time>2022-04-16T09:05:25.646Z</time>
      </trkpt>
      <trkpt lat="45.65475" lon="5.60578">
        <ele>212</ele>
        <time>2022-04-16T09:05:26.645Z</time>
      </trkpt>
      <trkpt lat="45.65475" lon="5.60578">
        <ele>212</ele>
        <time>2022-04-16T09:05:27.646Z</time>
      </trkpt>
      <trkpt lat="45.65477" lon="5.60577">
        <ele>212</ele>
        <time>2022-04-16T09:05:28.645Z</time>
      </trkpt>
      <trkpt lat="45.65478" lon="5.60577">
        <ele>212</ele>
        <time>2022-04-16T09:05:29.646Z</time>
      </trkpt>
      <trkpt lat="45.6548" lon="5.60576">
        <ele>212</ele>
        <time>2022-04-16T09:05:30.646Z</time>
      </trkpt>
      <trkpt lat="45.65483" lon="5.60575">
        <ele>212</ele>
        <time>2022-04-16T09:05:31.646Z</time>
      </trkpt>
      <trkpt lat="45.65486" lon="5.60574">
        <ele>212</ele>
        <time>2022-04-16T09:05:32.646Z</time>
      </trkpt>
      <trkpt lat="45.65489" lon="5.60572">
        <ele>212</ele>
        <time>2022-04-16T09:05:33.645Z</time>
      </trkpt>
      <trkpt lat="45.65493" lon="5.6057">
        <ele>211</ele>
        <time>2022-04-16T09:05:34.646Z</time>
      </trkpt>
      <trkpt lat="45.65496" lon="5.60568">
        <ele>211</ele>
        <time>2022-04-16T09:05:35.646Z</time>
      </trkpt>
      <trkpt lat="45.655" lon="5.60565">
        <ele>211</ele>
        <time>2022-04-16T09:05:36.646Z</time>
      </trkpt>
      <trkpt lat="45.65505" lon="5.60563">
        <ele>211</ele>
        <time>2022-04-16T09:05:37.646Z</time>
      </trkpt>
      <trkpt lat="45.65509" lon="5.6056">
        <ele>211</ele>
        <time>2022-04-16T09:05:38.645Z</time>
      </trkpt>
      <trkpt lat="45.65514" lon="5.60557">
        <ele>211</ele>
        <time>2022-04-16T09:05:39.646Z</time>
      </trkpt>
      <trkpt lat="45.65519" lon="5.60554">
        <ele>210</ele>
        <time>2022-04-16T09:05:40.646Z</time>
      </trkpt>
      <trkpt lat="45.65524" lon="5.60551">
        <ele>210</ele>
        <time>2022-04-16T09:05:41.645Z</time>
      </trkpt>
      <trkpt lat="45.6553" lon="5.60547">
        <ele>209</ele>
        <time>2022-04-16T09:05:42.646Z</time>
      </trkpt>
      <trkpt lat="45.65535" lon="5.60544">
        <ele>209</ele>
        <time>2022-04-16T09:05:43.646Z</time>
      </trkpt>
      <trkpt lat="45.6554" lon="5.6054">
        <ele>209</ele>
        <time>2022-04-16T09:05:44.645Z</time>
      </trkpt>
      <trkpt lat="45.65546" lon="5.60536">
        <ele>209</ele>
        <time>2022-04-16T09:05:45.646Z</time>
      </trkpt>
      <trkpt lat="45.65551" lon="5.60533">
        <ele>209</ele>
        <time>2022-04-16T09:05:46.646Z</time>
      </trkpt>
      <trkpt lat="45.65557" lon="5.60529">
        <ele>209</ele>
        <time>2022-04-16T09:05:47.646Z</time>
      </trkpt>
      <trkpt lat="45.65562" lon="5.60525">
        <ele>209</ele>
        <time>2022-04-16T09:05:48.646Z</time>
      </trkpt>
      <trkpt lat="45.65567" lon="5.60521">
        <ele>209</ele>
        <time>2022-04-16T09:05:49.646Z</time>
      </trkpt>
      <trkpt lat="45.65573" lon="5.60516">
        <ele>209</ele>
        <time>2022-04-16T09:05:50.646Z</time>
      </trkpt>
      <trkpt lat="45.65578" lon="5.60512">
        <ele>209</ele>
        <time>2022-04-16T09:05:51.646Z</time>
      </trkpt>
      <trkpt lat="45.65583" lon="5.60507">
        <ele>209</ele>
        <time>2022-04-16T09:05:52.646Z</time>
      </trkpt>
      <trkpt lat="45.65589" lon="5.60503">
        <ele>209</ele>
        <time>2022-04-16T09:05:53.645Z</time>
      </trkpt>
      <trkpt lat="45.65594" lon="5.60498">
        <ele>209</ele>
        <time>2022-04-16T09:05:54.646Z</time>
      </trkpt>
      <trkpt lat="45.65599" lon="5.60494">
        <ele>209</ele>
        <time>2022-04-16T09:05:55.646Z</time>
      </trkpt>
      <trkpt lat="45.65604" lon="5.6049">
        <ele>209</ele>
        <time>2022-04-16T09:05:56.646Z</time>
      </trkpt>
      <trkpt lat="45.65609" lon="5.60485">
        <ele>209</ele>
        <time>2022-04-16T09:05:57.645Z</time>
      </trkpt>
      <trkpt lat="45.65613" lon="5.6048">
        <ele>209</ele>
        <time>2022-04-16T09:05:58.646Z</time>
      </trkpt>
      <trkpt lat="45.65618" lon="5.60474">
        <ele>210</ele>
        <time>2022-04-16T09:05:59.645Z</time>
      </trkpt>
      <trkpt lat="45.65621" lon="5.60467">
        <ele>210</ele>
        <time>2022-04-16T09:06:00.645Z</time>
      </trkpt>
      <trkpt lat="45.65624" lon="5.6046">
        <ele>210</ele>
        <time>2022-04-16T09:06:01.646Z</time>
      </trkpt>
      <trkpt lat="45.65627" lon="5.60452">
        <ele>210</ele>
        <time>2022-04-16T09:06:02.646Z</time>
      </trkpt>
      <trkpt lat="45.65631" lon="5.60445">
        <ele>211</ele>
        <time>2022-04-16T09:06:03.645Z</time>
      </trkpt>
      <trkpt lat="45.65636" lon="5.6044">
        <ele>211</ele>
        <time>2022-04-16T09:06:04.646Z</time>
      </trkpt>
      <trkpt lat="45.65641" lon="5.60436">
        <ele>210</ele>
        <time>2022-04-16T09:06:05.646Z</time>
      </trkpt>
      <trkpt lat="45.65646" lon="5.60432">
        <ele>210</ele>
        <time>2022-04-16T09:06:06.646Z</time>
      </trkpt>
      <trkpt lat="45.6565" lon="5.60426">
        <ele>211</ele>
        <time>2022-04-16T09:06:07.646Z</time>
      </trkpt>
      <trkpt lat="45.65654" lon="5.6042">
        <ele>211</ele>
        <time>2022-04-16T09:06:08.646Z</time>
      </trkpt>
      <trkpt lat="45.65657" lon="5.60413">
        <ele>210</ele>
        <time>2022-04-16T09:06:09.646Z</time>
      </trkpt>
      <trkpt lat="45.65659" lon="5.60406">
        <ele>210</ele>
        <time>2022-04-16T09:06:10.646Z</time>
      </trkpt>
      <trkpt lat="45.65662" lon="5.60398">
        <ele>210</ele>
        <time>2022-04-16T09:06:11.646Z</time>
      </trkpt>
      <trkpt lat="45.65665" lon="5.60391">
        <ele>210</ele>
        <time>2022-04-16T09:06:12.646Z</time>
      </trkpt>
      <trkpt lat="45.65668" lon="5.60383">
        <ele>210</ele>
        <time>2022-04-16T09:06:13.645Z</time>
      </trkpt>
      <trkpt lat="45.6567" lon="5.60378">
        <ele>210</ele>
        <time>2022-04-16T09:06:14.646Z</time>
      </trkpt>
      <trkpt lat="45.65673" lon="5.60371">
        <ele>209</ele>
        <time>2022-04-16T09:06:15.645Z</time>
      </trkpt>
      <trkpt lat="45.65676" lon="5.60364">
        <ele>209</ele>
        <time>2022-04-16T09:06:16.646Z</time>
      </trkpt>
      <trkpt lat="45.65679" lon="5.60358">
        <ele>209</ele>
        <time>2022-04-16T09:06:17.646Z</time>
      </trkpt>
      <trkpt lat="45.65682" lon="5.60351">
        <ele>210</ele>
        <time>2022-04-16T09:06:18.645Z</time>
      </trkpt>
      <trkpt lat="45.65685" lon="5.60346">
        <ele>210</ele>
        <time>2022-04-16T09:06:19.646Z</time>
      </trkpt>
      <trkpt lat="45.65689" lon="5.6034">
        <ele>210</ele>
        <time>2022-04-16T09:06:20.645Z</time>
      </trkpt>
      <trkpt lat="45.65693" lon="5.60335">
        <ele>210</ele>
        <time>2022-04-16T09:06:21.646Z</time>
      </trkpt>
      <trkpt lat="45.65698" lon="5.60329">
        <ele>209</ele>
        <time>2022-04-16T09:06:22.645Z</time>
      </trkpt>
      <trkpt lat="45.65702" lon="5.60324">
        <ele>209</ele>
        <time>2022-04-16T09:06:23.645Z</time>
      </trkpt>
      <trkpt lat="45.65706" lon="5.60319">
        <ele>209</ele>
        <time>2022-04-16T09:06:24.646Z</time>
      </trkpt>
      <trkpt lat="45.6571" lon="5.60313">
        <ele>208</ele>
        <time>2022-04-16T09:06:25.646Z</time>
      </trkpt>
      <trkpt lat="45.65714" lon="5.60308">
        <ele>208</ele>
        <time>2022-04-16T09:06:26.645Z</time>
      </trkpt>
      <trkpt lat="45.65718" lon="5.60303">
        <ele>208</ele>
        <time>2022-04-16T09:06:27.646Z</time>
      </trkpt>
      <trkpt lat="45.65723" lon="5.60298">
        <ele>209</ele>
        <time>2022-04-16T09:06:28.645Z</time>
      </trkpt>
      <trkpt lat="45.65727" lon="5.60293">
        <ele>209</ele>
        <time>2022-04-16T09:06:29.645Z</time>
      </trkpt>
      <trkpt lat="45.65732" lon="5.60289">
        <ele>208</ele>
        <time>2022-04-16T09:06:30.645Z</time>
      </trkpt>
      <trkpt lat="45.65736" lon="5.60285">
        <ele>208</ele>
        <time>2022-04-16T09:06:31.645Z</time>
      </trkpt>
      <trkpt lat="45.6574" lon="5.60281">
        <ele>208</ele>
        <time>2022-04-16T09:06:32.645Z</time>
      </trkpt>
      <trkpt lat="45.65744" lon="5.60277">
        <ele>208</ele>
        <time>2022-04-16T09:06:33.645Z</time>
      </trkpt>
      <trkpt lat="45.65748" lon="5.60272">
        <ele>208</ele>
        <time>2022-04-16T09:06:34.646Z</time>
      </trkpt>
      <trkpt lat="45.65752" lon="5.60268">
        <ele>208</ele>
        <time>2022-04-16T09:06:35.645Z</time>
      </trkpt>
      <trkpt lat="45.65756" lon="5.60263">
        <ele>208</ele>
        <time>2022-04-16T09:06:36.646Z</time>
      </trkpt>
      <trkpt lat="45.6576" lon="5.60259">
        <ele>208</ele>
        <time>2022-04-16T09:06:37.645Z</time>
      </trkpt>
      <trkpt lat="45.65764" lon="5.60254">
        <ele>208</ele>
        <time>2022-04-16T09:06:38.646Z</time>
      </trkpt>
      <trkpt lat="45.65768" lon="5.6025">
        <ele>208</ele>
        <time>2022-04-16T09:06:39.646Z</time>
      </trkpt>
      <trkpt lat="45.65772" lon="5.60245">
        <ele>208</ele>
        <time>2022-04-16T09:06:40.646Z</time>
      </trkpt>
      <trkpt lat="45.65776" lon="5.60241">
        <ele>208</ele>
        <time>2022-04-16T09:06:41.646Z</time>
      </trkpt>
      <trkpt lat="45.6578" lon="5.60237">
        <ele>208</ele>
        <time>2022-04-16T09:06:42.645Z</time>
      </trkpt>
      <trkpt lat="45.65784" lon="5.60232">
        <ele>208</ele>
        <time>2022-04-16T09:06:43.646Z</time>
      </trkpt>
      <trkpt lat="45.65788" lon="5.60227">
        <ele>208</ele>
        <time>2022-04-16T09:06:44.646Z</time>
      </trkpt>
      <trkpt lat="45.65792" lon="5.60223">
        <ele>208</ele>
        <time>2022-04-16T09:06:45.646Z</time>
      </trkpt>
      <trkpt lat="45.65796" lon="5.60218">
        <ele>208</ele>
        <time>2022-04-16T09:06:46.646Z</time>
      </trkpt>
      <trkpt lat="45.658" lon="5.60213">
        <ele>208</ele>
        <time>2022-04-16T09:06:47.645Z</time>
      </trkpt>
      <trkpt lat="45.65804" lon="5.60208">
        <ele>208</ele>
        <time>2022-04-16T09:06:48.646Z</time>
      </trkpt>
      <trkpt lat="45.65807" lon="5.60203">
        <ele>208</ele>
        <time>2022-04-16T09:06:49.646Z</time>
      </trkpt>
      <trkpt lat="45.65811" lon="5.60197">
        <ele>208</ele>
        <time>2022-04-16T09:06:50.646Z</time>
      </trkpt>
      <trkpt lat="45.65815" lon="5.60192">
        <ele>208</ele>
        <time>2022-04-16T09:06:51.646Z</time>
      </trkpt>
      <trkpt lat="45.65818" lon="5.60187">
        <ele>208</ele>
        <time>2022-04-16T09:06:52.646Z</time>
      </trkpt>
      <trkpt lat="45.65822" lon="5.60182">
        <ele>208</ele>
        <time>2022-04-16T09:06:53.646Z</time>
      </trkpt>
      <trkpt lat="45.65826" lon="5.60177">
        <ele>209</ele>
        <time>2022-04-16T09:06:54.646Z</time>
      </trkpt>
      <trkpt lat="45.6583" lon="5.60171">
        <ele>208</ele>
        <time>2022-04-16T09:06:55.646Z</time>
      </trkpt>
      <trkpt lat="45.65834" lon="5.60166">
        <ele>208</ele>
        <time>2022-04-16T09:06:56.645Z</time>
      </trkpt>
      <trkpt lat="45.65837" lon="5.60161">
        <ele>208</ele>
        <time>2022-04-16T09:06:57.645Z</time>
      </trkpt>
      <trkpt lat="45.65841" lon="5.60156">
        <ele>208</ele>
        <time>2022-04-16T09:06:58.645Z</time>
      </trkpt>
      <trkpt lat="45.65844" lon="5.6015">
        <ele>208</ele>
        <time>2022-04-16T09:06:59.645Z</time>
      </trkpt>
      <trkpt lat="45.65848" lon="5.60145">
        <ele>208</ele>
        <time>2022-04-16T09:07:00.646Z</time>
      </trkpt>
      <trkpt lat="45.65852" lon="5.6014">
        <ele>208</ele>
        <time>2022-04-16T09:07:01.645Z</time>
      </trkpt>
      <trkpt lat="45.65856" lon="5.60135">
        <ele>208</ele>
        <time>2022-04-16T09:07:02.645Z</time>
      </trkpt>
      <trkpt lat="45.65859" lon="5.60129">
        <ele>208</ele>
        <time>2022-04-16T09:07:03.645Z</time>
      </trkpt>
      <trkpt lat="45.65863" lon="5.60124">
        <ele>208</ele>
        <time>2022-04-16T09:07:04.646Z</time>
      </trkpt>
      <trkpt lat="45.65866" lon="5.60118">
        <ele>208</ele>
        <time>2022-04-16T09:07:05.646Z</time>
      </trkpt>
      <trkpt lat="45.65869" lon="5.60113">
        <ele>208</ele>
        <time>2022-04-16T09:07:06.646Z</time>
      </trkpt>
      <trkpt lat="45.65873" lon="5.60107">
        <ele>208</ele>
        <time>2022-04-16T09:07:07.645Z</time>
      </trkpt>
      <trkpt lat="45.65876" lon="5.60102">
        <ele>208</ele>
        <time>2022-04-16T09:07:08.645Z</time>
      </trkpt>
      <trkpt lat="45.6588" lon="5.60096">
        <ele>208</ele>
        <time>2022-04-16T09:07:09.646Z</time>
      </trkpt>
      <trkpt lat="45.65883" lon="5.6009">
        <ele>208</ele>
        <time>2022-04-16T09:07:10.646Z</time>
      </trkpt>
      <trkpt lat="45.65886" lon="5.60085">
        <ele>208</ele>
        <time>2022-04-16T09:07:11.646Z</time>
      </trkpt>
      <trkpt lat="45.65889" lon="5.6008">
        <ele>208</ele>
        <time>2022-04-16T09:07:12.646Z</time>
      </trkpt>
      <trkpt lat="45.65893" lon="5.60074">
        <ele>208</ele>
        <time>2022-04-16T09:07:13.645Z</time>
      </trkpt>
      <trkpt lat="45.65896" lon="5.60068">
        <ele>208</ele>
        <time>2022-04-16T09:07:14.646Z</time>
      </trkpt>
      <trkpt lat="45.65899" lon="5.60063">
        <ele>207</ele>
        <time>2022-04-16T09:07:15.646Z</time>
      </trkpt>
      <trkpt lat="45.65901" lon="5.60057">
        <ele>207</ele>
        <time>2022-04-16T09:07:16.646Z</time>
      </trkpt>
      <trkpt lat="45.65904" lon="5.60051">
        <ele>207</ele>
        <time>2022-04-16T09:07:17.645Z</time>
      </trkpt>
      <trkpt lat="45.65907" lon="5.60046">
        <ele>208</ele>
        <time>2022-04-16T09:07:18.645Z</time>
      </trkpt>
      <trkpt lat="45.6591" lon="5.6004">
        <ele>208</ele>
        <time>2022-04-16T09:07:19.645Z</time>
      </trkpt>
      <trkpt lat="45.65913" lon="5.60034">
        <ele>207</ele>
        <time>2022-04-16T09:07:20.646Z</time>
      </trkpt>
      <trkpt lat="45.65915" lon="5.60029">
        <ele>207</ele>
        <time>2022-04-16T09:07:21.645Z</time>
      </trkpt>
      <trkpt lat="45.65918" lon="5.60023">
        <ele>207</ele>
        <time>2022-04-16T09:07:22.645Z</time>
      </trkpt>
      <trkpt lat="45.65921" lon="5.60018">
        <ele>207</ele>
        <time>2022-04-16T09:07:23.646Z</time>
      </trkpt>
      <trkpt lat="45.65923" lon="5.60012">
        <ele>207</ele>
        <time>2022-04-16T09:07:24.645Z</time>
      </trkpt>
      <trkpt lat="45.65926" lon="5.60007">
        <ele>207</ele>
        <time>2022-04-16T09:07:25.646Z</time>
      </trkpt>
      <trkpt lat="45.65928" lon="5.60001">
        <ele>207</ele>
        <time>2022-04-16T09:07:26.646Z</time>
      </trkpt>
      <trkpt lat="45.65931" lon="5.59995">
        <ele>207</ele>
        <time>2022-04-16T09:07:27.645Z</time>
      </trkpt>
      <trkpt lat="45.65933" lon="5.59989">
        <ele>207</ele>
        <time>2022-04-16T09:07:28.645Z</time>
      </trkpt>
      <trkpt lat="45.65936" lon="5.59984">
        <ele>208</ele>
        <time>2022-04-16T09:07:29.646Z</time>
      </trkpt>
      <trkpt lat="45.65939" lon="5.59978">
        <ele>208</ele>
        <time>2022-04-16T09:07:30.645Z</time>
      </trkpt>
      <trkpt lat="45.65941" lon="5.59973">
        <ele>208</ele>
        <time>2022-04-16T09:07:31.645Z</time>
      </trkpt>
      <trkpt lat="45.65943" lon="5.59967">
        <ele>208</ele>
        <time>2022-04-16T09:07:32.645Z</time>
      </trkpt>
      <trkpt lat="45.65946" lon="5.59961">
        <ele>208</ele>
        <time>2022-04-16T09:07:33.645Z</time>
      </trkpt>
      <trkpt lat="45.65948" lon="5.59955">
        <ele>208</ele>
        <time>2022-04-16T09:07:34.646Z</time>
      </trkpt>
      <trkpt lat="45.65951" lon="5.59949">
        <ele>208</ele>
        <time>2022-04-16T09:07:35.646Z</time>
      </trkpt>
      <trkpt lat="45.65953" lon="5.59943">
        <ele>209</ele>
        <time>2022-04-16T09:07:36.646Z</time>
      </trkpt>
      <trkpt lat="45.65955" lon="5.59937">
        <ele>209</ele>
        <time>2022-04-16T09:07:37.645Z</time>
      </trkpt>
      <trkpt lat="45.65958" lon="5.59931">
        <ele>209</ele>
        <time>2022-04-16T09:07:38.645Z</time>
      </trkpt>
      <trkpt lat="45.6596" lon="5.59925">
        <ele>209</ele>
        <time>2022-04-16T09:07:39.646Z</time>
      </trkpt>
      <trkpt lat="45.65962" lon="5.59919">
        <ele>209</ele>
        <time>2022-04-16T09:07:40.645Z</time>
      </trkpt>
      <trkpt lat="45.65964" lon="5.59913">
        <ele>209</ele>
        <time>2022-04-16T09:07:41.646Z</time>
      </trkpt>
      <trkpt lat="45.65967" lon="5.59907">
        <ele>209</ele>
        <time>2022-04-16T09:07:42.645Z</time>
      </trkpt>
      <trkpt lat="45.65969" lon="5.59901">
        <ele>208</ele>
        <time>2022-04-16T09:07:43.645Z</time>
      </trkpt>
      <trkpt lat="45.65971" lon="5.59895">
        <ele>208</ele>
        <time>2022-04-16T09:07:44.646Z</time>
      </trkpt>
      <trkpt lat="45.65973" lon="5.59889">
        <ele>208</ele>
        <time>2022-04-16T09:07:45.645Z</time>
      </trkpt>
      <trkpt lat="45.65975" lon="5.59883">
        <ele>208</ele>
        <time>2022-04-16T09:07:46.646Z</time>
      </trkpt>
      <trkpt lat="45.65977" lon="5.59876">
        <ele>208</ele>
        <time>2022-04-16T09:07:47.646Z</time>
      </trkpt>
      <trkpt lat="45.65979" lon="5.5987">
        <ele>208</ele>
        <time>2022-04-16T09:07:48.646Z</time>
      </trkpt>
      <trkpt lat="45.65981" lon="5.59863">
        <ele>208</ele>
        <time>2022-04-16T09:07:49.646Z</time>
      </trkpt>
      <trkpt lat="45.65983" lon="5.59857">
        <ele>208</ele>
        <time>2022-04-16T09:07:50.645Z</time>
      </trkpt>
      <trkpt lat="45.65984" lon="5.59851">
        <ele>208</ele>
        <time>2022-04-16T09:07:51.646Z</time>
      </trkpt>
      <trkpt lat="45.65987" lon="5.59843">
        <ele>208</ele>
        <time>2022-04-16T09:07:52.645Z</time>
      </trkpt>
      <trkpt lat="45.65989" lon="5.59836">
        <ele>208</ele>
        <time>2022-04-16T09:07:53.646Z</time>
      </trkpt>
      <trkpt lat="45.65991" lon="5.59829">
        <ele>208</ele>
        <time>2022-04-16T09:07:54.645Z</time>
      </trkpt>
      <trkpt lat="45.65993" lon="5.59823">
        <ele>208</ele>
        <time>2022-04-16T09:07:55.646Z</time>
      </trkpt>
      <trkpt lat="45.65995" lon="5.59816">
        <ele>208</ele>
        <time>2022-04-16T09:07:56.645Z</time>
      </trkpt>
      <trkpt lat="45.65996" lon="5.59809">
        <ele>208</ele>
        <time>2022-04-16T09:07:57.645Z</time>
      </trkpt>
      <trkpt lat="45.65998" lon="5.59802">
        <ele>208</ele>
        <time>2022-04-16T09:07:58.646Z</time>
      </trkpt>
      <trkpt lat="45.66" lon="5.59795">
        <ele>208</ele>
        <time>2022-04-16T09:07:59.646Z</time>
      </trkpt>
      <trkpt lat="45.66002" lon="5.59788">
        <ele>208</ele>
        <time>2022-04-16T09:08:00.646Z</time>
      </trkpt>
      <trkpt lat="45.66004" lon="5.59782">
        <ele>209</ele>
        <time>2022-04-16T09:08:01.645Z</time>
      </trkpt>
      <trkpt lat="45.66005" lon="5.59775">
        <ele>209</ele>
        <time>2022-04-16T09:08:02.646Z</time>
      </trkpt>
      <trkpt lat="45.66007" lon="5.59768">
        <ele>209</ele>
        <time>2022-04-16T09:08:03.646Z</time>
      </trkpt>
      <trkpt lat="45.66009" lon="5.59761">
        <ele>209</ele>
        <time>2022-04-16T09:08:04.646Z</time>
      </trkpt>
      <trkpt lat="45.6601" lon="5.59754">
        <ele>209</ele>
        <time>2022-04-16T09:08:05.646Z</time>
      </trkpt>
      <trkpt lat="45.66012" lon="5.59747">
        <ele>209</ele>
        <time>2022-04-16T09:08:06.646Z</time>
      </trkpt>
      <trkpt lat="45.66013" lon="5.5974">
        <ele>209</ele>
        <time>2022-04-16T09:08:07.646Z</time>
      </trkpt>
      <trkpt lat="45.66014" lon="5.59733">
        <ele>209</ele>
        <time>2022-04-16T09:08:08.646Z</time>
      </trkpt>
      <trkpt lat="45.66016" lon="5.59726">
        <ele>208</ele>
        <time>2022-04-16T09:08:09.646Z</time>
      </trkpt>
      <trkpt lat="45.66017" lon="5.59719">
        <ele>208</ele>
        <time>2022-04-16T09:08:10.645Z</time>
      </trkpt>
      <trkpt lat="45.66019" lon="5.59712">
        <ele>208</ele>
        <time>2022-04-16T09:08:11.646Z</time>
      </trkpt>
      <trkpt lat="45.6602" lon="5.59705">
        <ele>208</ele>
        <time>2022-04-16T09:08:12.646Z</time>
      </trkpt>
      <trkpt lat="45.66021" lon="5.59698">
        <ele>209</ele>
        <time>2022-04-16T09:08:13.646Z</time>
      </trkpt>
      <trkpt lat="45.66022" lon="5.59691">
        <ele>209</ele>
        <time>2022-04-16T09:08:14.646Z</time>
      </trkpt>
      <trkpt lat="45.66023" lon="5.59684">
        <ele>210</ele>
        <time>2022-04-16T09:08:15.645Z</time>
      </trkpt>
      <trkpt lat="45.66024" lon="5.59678">
        <ele>210</ele>
        <time>2022-04-16T09:08:16.646Z</time>
      </trkpt>
      <trkpt lat="45.66025" lon="5.59669">
        <ele>210</ele>
        <time>2022-04-16T09:08:17.646Z</time>
      </trkpt>
      <trkpt lat="45.66026" lon="5.59662">
        <ele>211</ele>
        <time>2022-04-16T09:08:18.645Z</time>
      </trkpt>
      <trkpt lat="45.66028" lon="5.59655">
        <ele>211</ele>
        <time>2022-04-16T09:08:19.645Z</time>
      </trkpt>
      <trkpt lat="45.66029" lon="5.59648">
        <ele>211</ele>
        <time>2022-04-16T09:08:20.646Z</time>
      </trkpt>
      <trkpt lat="45.6603" lon="5.59641">
        <ele>212</ele>
        <time>2022-04-16T09:08:21.646Z</time>
      </trkpt>
      <trkpt lat="45.66031" lon="5.59633">
        <ele>212</ele>
        <time>2022-04-16T09:08:22.646Z</time>
      </trkpt>
      <trkpt lat="45.66032" lon="5.59627">
        <ele>212</ele>
        <time>2022-04-16T09:08:23.646Z</time>
      </trkpt>
      <trkpt lat="45.66034" lon="5.59619">
        <ele>212</ele>
        <time>2022-04-16T09:08:24.646Z</time>
      </trkpt>
      <trkpt lat="45.66035" lon="5.59612">
        <ele>213</ele>
        <time>2022-04-16T09:08:25.645Z</time>
      </trkpt>
      <trkpt lat="45.66035" lon="5.59605">
        <ele>213</ele>
        <time>2022-04-16T09:08:26.646Z</time>
      </trkpt>
      <trkpt lat="45.66036" lon="5.59598">
        <ele>213</ele>
        <time>2022-04-16T09:08:27.645Z</time>
      </trkpt>
      <trkpt lat="45.66037" lon="5.59591">
        <ele>213</ele>
        <time>2022-04-16T09:08:28.646Z</time>
      </trkpt>
      <trkpt lat="45.66038" lon="5.59584">
        <ele>214</ele>
        <time>2022-04-16T09:08:29.646Z</time>
      </trkpt>
      <trkpt lat="45.6604" lon="5.59577">
        <ele>213</ele>
        <time>2022-04-16T09:08:30.646Z</time>
      </trkpt>
      <trkpt lat="45.66041" lon="5.5957">
        <ele>214</ele>
        <time>2022-04-16T09:08:31.646Z</time>
      </trkpt>
      <trkpt lat="45.66043" lon="5.59564">
        <ele>214</ele>
        <time>2022-04-16T09:08:32.645Z</time>
      </trkpt>
      <trkpt lat="45.66044" lon="5.59557">
        <ele>214</ele>
        <time>2022-04-16T09:08:33.646Z</time>
      </trkpt>
      <trkpt lat="45.66045" lon="5.5955">
        <ele>213</ele>
        <time>2022-04-16T09:08:34.645Z</time>
      </trkpt>
      <trkpt lat="45.66047" lon="5.59543">
        <ele>213</ele>
        <time>2022-04-16T09:08:35.645Z</time>
      </trkpt>
      <trkpt lat="45.66048" lon="5.59536">
        <ele>213</ele>
        <time>2022-04-16T09:08:36.645Z</time>
      </trkpt>
      <trkpt lat="45.6605" lon="5.59529">
        <ele>213</ele>
        <time>2022-04-16T09:08:37.646Z</time>
      </trkpt>
      <trkpt lat="45.66051" lon="5.59522">
        <ele>212</ele>
        <time>2022-04-16T09:08:38.646Z</time>
      </trkpt>
      <trkpt lat="45.66053" lon="5.59515">
        <ele>212</ele>
        <time>2022-04-16T09:08:39.646Z</time>
      </trkpt>
      <trkpt lat="45.66054" lon="5.5951">
        <ele>211</ele>
        <time>2022-04-16T09:08:40.645Z</time>
      </trkpt>
      <trkpt lat="45.66056" lon="5.59502">
        <ele>211</ele>
        <time>2022-04-16T09:08:41.646Z</time>
      </trkpt>
      <trkpt lat="45.66058" lon="5.59495">
        <ele>211</ele>
        <time>2022-04-16T09:08:42.646Z</time>
      </trkpt>
      <trkpt lat="45.6606" lon="5.59488">
        <ele>211</ele>
        <time>2022-04-16T09:08:43.645Z</time>
      </trkpt>
      <trkpt lat="45.66061" lon="5.59481">
        <ele>210</ele>
        <time>2022-04-16T09:08:44.646Z</time>
      </trkpt>
      <trkpt lat="45.66063" lon="5.59476">
        <ele>210</ele>
        <time>2022-04-16T09:08:45.646Z</time>
      </trkpt>
      <trkpt lat="45.66065" lon="5.59468">
        <ele>210</ele>
        <time>2022-04-16T09:08:46.646Z</time>
      </trkpt>
      <trkpt lat="45.66067" lon="5.59461">
        <ele>210</ele>
        <time>2022-04-16T09:08:47.645Z</time>
      </trkpt>
      <trkpt lat="45.66069" lon="5.59455">
        <ele>211</ele>
        <time>2022-04-16T09:08:48.646Z</time>
      </trkpt>
      <trkpt lat="45.66071" lon="5.59448">
        <ele>211</ele>
        <time>2022-04-16T09:08:49.646Z</time>
      </trkpt>
      <trkpt lat="45.66073" lon="5.59441">
        <ele>211</ele>
        <time>2022-04-16T09:08:50.646Z</time>
      </trkpt>
      <trkpt lat="45.66075" lon="5.59435">
        <ele>210</ele>
        <time>2022-04-16T09:08:51.646Z</time>
      </trkpt>
      <trkpt lat="45.66077" lon="5.59428">
        <ele>210</ele>
        <time>2022-04-16T09:08:52.646Z</time>
      </trkpt>
      <trkpt lat="45.6608" lon="5.59422">
        <ele>210</ele>
        <time>2022-04-16T09:08:53.645Z</time>
      </trkpt>
      <trkpt lat="45.66082" lon="5.59415">
        <ele>210</ele>
        <time>2022-04-16T09:08:54.645Z</time>
      </trkpt>
      <trkpt lat="45.66083" lon="5.5941">
        <ele>210</ele>
        <time>2022-04-16T09:08:55.646Z</time>
      </trkpt>
      <trkpt lat="45.66086" lon="5.59402">
        <ele>210</ele>
        <time>2022-04-16T09:08:56.646Z</time>
      </trkpt>
      <trkpt lat="45.66088" lon="5.59395">
        <ele>209</ele>
        <time>2022-04-16T09:08:57.646Z</time>
      </trkpt>
      <trkpt lat="45.6609" lon="5.59389">
        <ele>209</ele>
        <time>2022-04-16T09:08:58.646Z</time>
      </trkpt>
      <trkpt lat="45.66092" lon="5.59382">
        <ele>209</ele>
        <time>2022-04-16T09:08:59.646Z</time>
      </trkpt>
      <trkpt lat="45.66094" lon="5.59376">
        <ele>209</ele>
        <time>2022-04-16T09:09:00.646Z</time>
      </trkpt>
      <trkpt lat="45.66097" lon="5.5937">
        <ele>209</ele>
        <time>2022-04-16T09:09:01.646Z</time>
      </trkpt>
      <trkpt lat="45.66099" lon="5.59363">
        <ele>209</ele>
        <time>2022-04-16T09:09:02.646Z</time>
      </trkpt>
      <trkpt lat="45.66102" lon="5.59357">
        <ele>209</ele>
        <time>2022-04-16T09:09:03.646Z</time>
      </trkpt>
      <trkpt lat="45.66104" lon="5.59351">
        <ele>209</ele>
        <time>2022-04-16T09:09:04.646Z</time>
      </trkpt>
      <trkpt lat="45.66107" lon="5.59345">
        <ele>209</ele>
        <time>2022-04-16T09:09:05.645Z</time>
      </trkpt>
      <trkpt lat="45.66109" lon="5.59339">
        <ele>209</ele>
        <time>2022-04-16T09:09:06.646Z</time>
      </trkpt>
      <trkpt lat="45.66111" lon="5.59334">
        <ele>209</ele>
        <time>2022-04-16T09:09:07.646Z</time>
      </trkpt>
      <trkpt lat="45.66115" lon="5.59327">
        <ele>210</ele>
        <time>2022-04-16T09:09:08.646Z</time>
      </trkpt>
      <trkpt lat="45.66117" lon="5.59321">
        <ele>210</ele>
        <time>2022-04-16T09:09:09.646Z</time>
      </trkpt>
      <trkpt lat="45.6612" lon="5.59315">
        <ele>210</ele>
        <time>2022-04-16T09:09:10.646Z</time>
      </trkpt>
      <trkpt lat="45.66123" lon="5.59309">
        <ele>210</ele>
        <time>2022-04-16T09:09:11.646Z</time>
      </trkpt>
      <trkpt lat="45.66126" lon="5.59303">
        <ele>210</ele>
        <time>2022-04-16T09:09:12.646Z</time>
      </trkpt>
      <trkpt lat="45.66129" lon="5.59297">
        <ele>210</ele>
        <time>2022-04-16T09:09:13.646Z</time>
      </trkpt>
      <trkpt lat="45.66132" lon="5.59291">
        <ele>210</ele>
        <time>2022-04-16T09:09:14.646Z</time>
      </trkpt>
      <trkpt lat="45.66135" lon="5.59285">
        <ele>210</ele>
        <time>2022-04-16T09:09:15.646Z</time>
      </trkpt>
      <trkpt lat="45.66139" lon="5.59279">
        <ele>210</ele>
        <time>2022-04-16T09:09:16.646Z</time>
      </trkpt>
      <trkpt lat="45.66142" lon="5.59273">
        <ele>210</ele>
        <time>2022-04-16T09:09:17.645Z</time>
      </trkpt>
      <trkpt lat="45.66145" lon="5.59267">
        <ele>211</ele>
        <time>2022-04-16T09:09:18.646Z</time>
      </trkpt>
      <trkpt lat="45.66148" lon="5.59261">
        <ele>211</ele>
        <time>2022-04-16T09:09:19.645Z</time>
      </trkpt>
      <trkpt lat="45.66151" lon="5.59256">
        <ele>211</ele>
        <time>2022-04-16T09:09:20.645Z</time>
      </trkpt>
      <trkpt lat="45.66155" lon="5.5925">
        <ele>211</ele>
        <time>2022-04-16T09:09:21.645Z</time>
      </trkpt>
      <trkpt lat="45.66158" lon="5.59244">
        <ele>211</ele>
        <time>2022-04-16T09:09:22.646Z</time>
      </trkpt>
      <trkpt lat="45.66161" lon="5.59239">
        <ele>211</ele>
        <time>2022-04-16T09:09:23.645Z</time>
      </trkpt>
      <trkpt lat="45.66165" lon="5.59233">
        <ele>211</ele>
        <time>2022-04-16T09:09:24.646Z</time>
      </trkpt>
      <trkpt lat="45.66169" lon="5.59228">
        <ele>211</ele>
        <time>2022-04-16T09:09:25.646Z</time>
      </trkpt>
      <trkpt lat="45.66172" lon="5.59223">
        <ele>210</ele>
        <time>2022-04-16T09:09:26.646Z</time>
      </trkpt>
      <trkpt lat="45.66176" lon="5.59217">
        <ele>210</ele>
        <time>2022-04-16T09:09:27.646Z</time>
      </trkpt>
      <trkpt lat="45.6618" lon="5.59212">
        <ele>210</ele>
        <time>2022-04-16T09:09:28.646Z</time>
      </trkpt>
      <trkpt lat="45.66183" lon="5.59207">
        <ele>210</ele>
        <time>2022-04-16T09:09:29.646Z</time>
      </trkpt>
      <trkpt lat="45.66187" lon="5.59202">
        <ele>210</ele>
        <time>2022-04-16T09:09:30.646Z</time>
      </trkpt>
      <trkpt lat="45.66191" lon="5.59196">
        <ele>210</ele>
        <time>2022-04-16T09:09:31.645Z</time>
      </trkpt>
      <trkpt lat="45.66194" lon="5.59191">
        <ele>210</ele>
        <time>2022-04-16T09:09:32.646Z</time>
      </trkpt>
      <trkpt lat="45.66198" lon="5.59186">
        <ele>210</ele>
        <time>2022-04-16T09:09:33.646Z</time>
      </trkpt>
      <trkpt lat="45.66202" lon="5.59181">
        <ele>209</ele>
        <time>2022-04-16T09:09:34.646Z</time>
      </trkpt>
      <trkpt lat="45.66206" lon="5.59176">
        <ele>209</ele>
        <time>2022-04-16T09:09:35.646Z</time>
      </trkpt>
      <trkpt lat="45.66209" lon="5.59171">
        <ele>209</ele>
        <time>2022-04-16T09:09:36.646Z</time>
      </trkpt>
      <trkpt lat="45.66213" lon="5.59166">
        <ele>209</ele>
        <time>2022-04-16T09:09:37.645Z</time>
      </trkpt>
      <trkpt lat="45.66217" lon="5.59162">
        <ele>209</ele>
        <time>2022-04-16T09:09:38.646Z</time>
      </trkpt>
      <trkpt lat="45.66221" lon="5.59157">
        <ele>209</ele>
        <time>2022-04-16T09:09:39.646Z</time>
      </trkpt>
      <trkpt lat="45.66225" lon="5.59152">
        <ele>209</ele>
        <time>2022-04-16T09:09:40.645Z</time>
      </trkpt>
      <trkpt lat="45.6623" lon="5.59147">
        <ele>209</ele>
        <time>2022-04-16T09:09:41.645Z</time>
      </trkpt>
      <trkpt lat="45.66234" lon="5.59143">
        <ele>210</ele>
        <time>2022-04-16T09:09:42.646Z</time>
      </trkpt>
      <trkpt lat="45.66238" lon="5.59138">
        <ele>210</ele>
        <time>2022-04-16T09:09:43.646Z</time>
      </trkpt>
      <trkpt lat="45.66242" lon="5.59133">
        <ele>210</ele>
        <time>2022-04-16T09:09:44.646Z</time>
      </trkpt>
      <trkpt lat="45.66246" lon="5.59129">
        <ele>210</ele>
        <time>2022-04-16T09:09:45.646Z</time>
      </trkpt>
      <trkpt lat="45.6625" lon="5.59125">
        <ele>210</ele>
        <time>2022-04-16T09:09:46.646Z</time>
      </trkpt>
      <trkpt lat="45.66254" lon="5.5912">
        <ele>210</ele>
        <time>2022-04-16T09:09:47.646Z</time>
      </trkpt>
      <trkpt lat="45.66258" lon="5.59116">
        <ele>210</ele>
        <time>2022-04-16T09:09:48.646Z</time>
      </trkpt>
      <trkpt lat="45.66262" lon="5.59112">
        <ele>210</ele>
        <time>2022-04-16T09:09:49.645Z</time>
      </trkpt>
      <trkpt lat="45.66267" lon="5.59108">
        <ele>210</ele>
        <time>2022-04-16T09:09:50.646Z</time>
      </trkpt>
      <trkpt lat="45.66271" lon="5.59104">
        <ele>210</ele>
        <time>2022-04-16T09:09:51.645Z</time>
      </trkpt>
      <trkpt lat="45.66275" lon="5.591">
        <ele>210</ele>
        <time>2022-04-16T09:09:52.646Z</time>
      </trkpt>
      <trkpt lat="45.6628" lon="5.59096">
        <ele>210</ele>
        <time>2022-04-16T09:09:53.646Z</time>
      </trkpt>
      <trkpt lat="45.66284" lon="5.59092">
        <ele>210</ele>
        <time>2022-04-16T09:09:54.646Z</time>
      </trkpt>
      <trkpt lat="45.66288" lon="5.59089">
        <ele>210</ele>
        <time>2022-04-16T09:09:55.645Z</time>
      </trkpt>
      <trkpt lat="45.66292" lon="5.59085">
        <ele>210</ele>
        <time>2022-04-16T09:09:56.646Z</time>
      </trkpt>
      <trkpt lat="45.66296" lon="5.59082">
        <ele>210</ele>
        <time>2022-04-16T09:09:57.646Z</time>
      </trkpt>
      <trkpt lat="45.66301" lon="5.59078">
        <ele>210</ele>
        <time>2022-04-16T09:09:58.646Z</time>
      </trkpt>
      <trkpt lat="45.66305" lon="5.59075">
        <ele>210</ele>
        <time>2022-04-16T09:09:59.646Z</time>
      </trkpt>
      <trkpt lat="45.66309" lon="5.59071">
        <ele>210</ele>
        <time>2022-04-16T09:10:00.646Z</time>
      </trkpt>
      <trkpt lat="45.66314" lon="5.59068">
        <ele>210</ele>
        <time>2022-04-16T09:10:01.646Z</time>
      </trkpt>
      <trkpt lat="45.66318" lon="5.59065">
        <ele>210</ele>
        <time>2022-04-16T09:10:02.646Z</time>
      </trkpt>
      <trkpt lat="45.66322" lon="5.59061">
        <ele>210</ele>
        <time>2022-04-16T09:10:03.646Z</time>
      </trkpt>
      <trkpt lat="45.66327" lon="5.59058">
        <ele>210</ele>
        <time>2022-04-16T09:10:04.645Z</time>
      </trkpt>
      <trkpt lat="45.66331" lon="5.59055">
        <ele>210</ele>
        <time>2022-04-16T09:10:05.646Z</time>
      </trkpt>
      <trkpt lat="45.66336" lon="5.59051">
        <ele>209</ele>
        <time>2022-04-16T09:10:06.645Z</time>
      </trkpt>
      <trkpt lat="45.6634" lon="5.59048">
        <ele>209</ele>
        <time>2022-04-16T09:10:07.646Z</time>
      </trkpt>
      <trkpt lat="45.66345" lon="5.59045">
        <ele>209</ele>
        <time>2022-04-16T09:10:08.645Z</time>
      </trkpt>
      <trkpt lat="45.66349" lon="5.59042">
        <ele>209</ele>
        <time>2022-04-16T09:10:09.646Z</time>
      </trkpt>
      <trkpt lat="45.66354" lon="5.59038">
        <ele>208</ele>
        <time>2022-04-16T09:10:10.646Z</time>
      </trkpt>
      <trkpt lat="45.66358" lon="5.59035">
        <ele>208</ele>
        <time>2022-04-16T09:10:11.646Z</time>
      </trkpt>
      <trkpt lat="45.66363" lon="5.59032">
        <ele>209</ele>
        <time>2022-04-16T09:10:12.646Z</time>
      </trkpt>
      <trkpt lat="45.66367" lon="5.5903">
        <ele>208</ele>
        <time>2022-04-16T09:10:13.646Z</time>
      </trkpt>
      <trkpt lat="45.66373" lon="5.59027">
        <ele>208</ele>
        <time>2022-04-16T09:10:14.646Z</time>
      </trkpt>
      <trkpt lat="45.66378" lon="5.59024">
        <ele>209</ele>
        <time>2022-04-16T09:10:15.645Z</time>
      </trkpt>
      <trkpt lat="45.66382" lon="5.59021">
        <ele>208</ele>
        <time>2022-04-16T09:10:16.645Z</time>
      </trkpt>
      <trkpt lat="45.66387" lon="5.59019">
        <ele>208</ele>
        <time>2022-04-16T09:10:17.646Z</time>
      </trkpt>
      <trkpt lat="45.66392" lon="5.59016">
        <ele>208</ele>
        <time>2022-04-16T09:10:18.645Z</time>
      </trkpt>
      <trkpt lat="45.66397" lon="5.59013">
        <ele>208</ele>
        <time>2022-04-16T09:10:19.646Z</time>
      </trkpt>
      <trkpt lat="45.66401" lon="5.59011">
        <ele>208</ele>
        <time>2022-04-16T09:10:20.646Z</time>
      </trkpt>
      <trkpt lat="45.66406" lon="5.59008">
        <ele>208</ele>
        <time>2022-04-16T09:10:21.646Z</time>
      </trkpt>
      <trkpt lat="45.66411" lon="5.59005">
        <ele>208</ele>
        <time>2022-04-16T09:10:22.645Z</time>
      </trkpt>
      <trkpt lat="45.66415" lon="5.59003">
        <ele>208</ele>
        <time>2022-04-16T09:10:23.645Z</time>
      </trkpt>
      <trkpt lat="45.6642" lon="5.59">
        <ele>209</ele>
        <time>2022-04-16T09:10:24.646Z</time>
      </trkpt>
      <trkpt lat="45.66425" lon="5.58997">
        <ele>209</ele>
        <time>2022-04-16T09:10:25.646Z</time>
      </trkpt>
      <trkpt lat="45.6643" lon="5.58995">
        <ele>209</ele>
        <time>2022-04-16T09:10:26.646Z</time>
      </trkpt>
      <trkpt lat="45.66435" lon="5.58992">
        <ele>209</ele>
        <time>2022-04-16T09:10:27.646Z</time>
      </trkpt>
      <trkpt lat="45.6644" lon="5.5899">
        <ele>209</ele>
        <time>2022-04-16T09:10:28.646Z</time>
      </trkpt>
      <trkpt lat="45.66444" lon="5.58987">
        <ele>209</ele>
        <time>2022-04-16T09:10:29.646Z</time>
      </trkpt>
      <trkpt lat="45.66449" lon="5.58984">
        <ele>209</ele>
        <time>2022-04-16T09:10:30.646Z</time>
      </trkpt>
      <trkpt lat="45.66453" lon="5.58981">
        <ele>209</ele>
        <time>2022-04-16T09:10:31.646Z</time>
      </trkpt>
      <trkpt lat="45.66458" lon="5.58978">
        <ele>209</ele>
        <time>2022-04-16T09:10:32.645Z</time>
      </trkpt>
      <trkpt lat="45.66463" lon="5.58975">
        <ele>209</ele>
        <time>2022-04-16T09:10:33.646Z</time>
      </trkpt>
      <trkpt lat="45.66468" lon="5.58972">
        <ele>209</ele>
        <time>2022-04-16T09:10:34.646Z</time>
      </trkpt>
      <trkpt lat="45.66472" lon="5.58969">
        <ele>209</ele>
        <time>2022-04-16T09:10:35.646Z</time>
      </trkpt>
      <trkpt lat="45.66477" lon="5.58966">
        <ele>209</ele>
        <time>2022-04-16T09:10:36.646Z</time>
      </trkpt>
      <trkpt lat="45.66482" lon="5.58963">
        <ele>209</ele>
        <time>2022-04-16T09:10:37.646Z</time>
      </trkpt>
      <trkpt lat="45.66486" lon="5.5896">
        <ele>209</ele>
        <time>2022-04-16T09:10:38.646Z</time>
      </trkpt>
      <trkpt lat="45.66491" lon="5.58957">
        <ele>209</ele>
        <time>2022-04-16T09:10:39.645Z</time>
      </trkpt>
      <trkpt lat="45.66495" lon="5.58954">
        <ele>209</ele>
        <time>2022-04-16T09:10:40.645Z</time>
      </trkpt>
      <trkpt lat="45.665" lon="5.58951">
        <ele>209</ele>
        <time>2022-04-16T09:10:41.646Z</time>
      </trkpt>
      <trkpt lat="45.66504" lon="5.58947">
        <ele>209</ele>
        <time>2022-04-16T09:10:42.646Z</time>
      </trkpt>
      <trkpt lat="45.66508" lon="5.58944">
        <ele>209</ele>
        <time>2022-04-16T09:10:43.645Z</time>
      </trkpt>
      <trkpt lat="45.66513" lon="5.5894">
        <ele>209</ele>
        <time>2022-04-16T09:10:44.646Z</time>
      </trkpt>
      <trkpt lat="45.66517" lon="5.58937">
        <ele>209</ele>
        <time>2022-04-16T09:10:45.645Z</time>
      </trkpt>
      <trkpt lat="45.66522" lon="5.58934">
        <ele>209</ele>
        <time>2022-04-16T09:10:46.646Z</time>
      </trkpt>
      <trkpt lat="45.66526" lon="5.5893">
        <ele>210</ele>
        <time>2022-04-16T09:10:47.646Z</time>
      </trkpt>
      <trkpt lat="45.6653" lon="5.58926">
        <ele>210</ele>
        <time>2022-04-16T09:10:48.645Z</time>
      </trkpt>
      <trkpt lat="45.66535" lon="5.58923">
        <ele>210</ele>
        <time>2022-04-16T09:10:49.646Z</time>
      </trkpt>
      <trkpt lat="45.66539" lon="5.58919">
        <ele>210</ele>
        <time>2022-04-16T09:10:50.645Z</time>
      </trkpt>
      <trkpt lat="45.66543" lon="5.58915">
        <ele>210</ele>
        <time>2022-04-16T09:10:51.646Z</time>
      </trkpt>
      <trkpt lat="45.66547" lon="5.58912">
        <ele>210</ele>
        <time>2022-04-16T09:10:52.646Z</time>
      </trkpt>
      <trkpt lat="45.66551" lon="5.58908">
        <ele>210</ele>
        <time>2022-04-16T09:10:53.645Z</time>
      </trkpt>
      <trkpt lat="45.66556" lon="5.58904">
        <ele>210</ele>
        <time>2022-04-16T09:10:54.646Z</time>
      </trkpt>
      <trkpt lat="45.6656" lon="5.589">
        <ele>210</ele>
        <time>2022-04-16T09:10:55.646Z</time>
      </trkpt>
      <trkpt lat="45.66564" lon="5.58896">
        <ele>210</ele>
        <time>2022-04-16T09:10:56.646Z</time>
      </trkpt>
      <trkpt lat="45.66569" lon="5.58892">
        <ele>210</ele>
        <time>2022-04-16T09:10:57.646Z</time>
      </trkpt>
      <trkpt lat="45.66573" lon="5.58888">
        <ele>210</ele>
        <time>2022-04-16T09:10:58.646Z</time>
      </trkpt>
      <trkpt lat="45.66576" lon="5.58885">
        <ele>210</ele>
        <time>2022-04-16T09:10:59.646Z</time>
      </trkpt>
      <trkpt lat="45.66582" lon="5.5888">
        <ele>210</ele>
        <time>2022-04-16T09:11:00.646Z</time>
      </trkpt>
      <trkpt lat="45.66586" lon="5.58876">
        <ele>211</ele>
        <time>2022-04-16T09:11:01.645Z</time>
      </trkpt>
      <trkpt lat="45.6659" lon="5.58872">
        <ele>211</ele>
        <time>2022-04-16T09:11:02.646Z</time>
      </trkpt>
      <trkpt lat="45.66594" lon="5.58868">
        <ele>211</ele>
        <time>2022-04-16T09:11:03.646Z</time>
      </trkpt>
      <trkpt lat="45.66597" lon="5.58864">
        <ele>210</ele>
        <time>2022-04-16T09:11:04.646Z</time>
      </trkpt>
      <trkpt lat="45.66602" lon="5.58859">
        <ele>211</ele>
        <time>2022-04-16T09:11:05.646Z</time>
      </trkpt>
      <trkpt lat="45.66607" lon="5.58855">
        <ele>211</ele>
        <time>2022-04-16T09:11:06.645Z</time>
      </trkpt>
      <trkpt lat="45.66611" lon="5.5885">
        <ele>211</ele>
        <time>2022-04-16T09:11:07.646Z</time>
      </trkpt>
      <trkpt lat="45.66614" lon="5.58847">
        <ele>210</ele>
        <time>2022-04-16T09:11:08.645Z</time>
      </trkpt>
      <trkpt lat="45.66618" lon="5.58842">
        <ele>210</ele>
        <time>2022-04-16T09:11:09.646Z</time>
      </trkpt>
      <trkpt lat="45.66623" lon="5.58837">
        <ele>211</ele>
        <time>2022-04-16T09:11:10.646Z</time>
      </trkpt>
      <trkpt lat="45.66627" lon="5.58833">
        <ele>211</ele>
        <time>2022-04-16T09:11:11.646Z</time>
      </trkpt>
      <trkpt lat="45.66631" lon="5.58828">
        <ele>211</ele>
        <time>2022-04-16T09:11:12.646Z</time>
      </trkpt>
      <trkpt lat="45.66635" lon="5.58824">
        <ele>210</ele>
        <time>2022-04-16T09:11:13.645Z</time>
      </trkpt>
      <trkpt lat="45.66638" lon="5.5882">
        <ele>210</ele>
        <time>2022-04-16T09:11:14.646Z</time>
      </trkpt>
      <trkpt lat="45.66642" lon="5.58815">
        <ele>210</ele>
        <time>2022-04-16T09:11:15.646Z</time>
      </trkpt>
      <trkpt lat="45.66646" lon="5.58811">
        <ele>210</ele>
        <time>2022-04-16T09:11:16.646Z</time>
      </trkpt>
      <trkpt lat="45.6665" lon="5.58806">
        <ele>210</ele>
        <time>2022-04-16T09:11:17.646Z</time>
      </trkpt>
      <trkpt lat="45.66654" lon="5.58802">
        <ele>210</ele>
        <time>2022-04-16T09:11:18.645Z</time>
      </trkpt>
      <trkpt lat="45.66658" lon="5.58796">
        <ele>210</ele>
        <time>2022-04-16T09:11:19.646Z</time>
      </trkpt>
      <trkpt lat="45.66662" lon="5.58792">
        <ele>210</ele>
        <time>2022-04-16T09:11:20.645Z</time>
      </trkpt>
      <trkpt lat="45.66666" lon="5.58787">
        <ele>210</ele>
        <time>2022-04-16T09:11:21.646Z</time>
      </trkpt>
      <trkpt lat="45.66671" lon="5.58782">
        <ele>210</ele>
        <time>2022-04-16T09:11:22.645Z</time>
      </trkpt>
      <trkpt lat="45.66674" lon="5.58778">
        <ele>210</ele>
        <time>2022-04-16T09:11:23.645Z</time>
      </trkpt>
      <trkpt lat="45.66678" lon="5.58773">
        <ele>210</ele>
        <time>2022-04-16T09:11:24.646Z</time>
      </trkpt>
      <trkpt lat="45.66682" lon="5.58767">
        <ele>211</ele>
        <time>2022-04-16T09:11:25.646Z</time>
      </trkpt>
      <trkpt lat="45.66686" lon="5.58762">
        <ele>211</ele>
        <time>2022-04-16T09:11:26.646Z</time>
      </trkpt>
      <trkpt lat="45.6669" lon="5.58756">
        <ele>211</ele>
        <time>2022-04-16T09:11:27.646Z</time>
      </trkpt>
      <trkpt lat="45.66694" lon="5.58751">
        <ele>211</ele>
        <time>2022-04-16T09:11:28.645Z</time>
      </trkpt>
      <trkpt lat="45.66697" lon="5.58747">
        <ele>212</ele>
        <time>2022-04-16T09:11:29.646Z</time>
      </trkpt>
      <trkpt lat="45.66701" lon="5.58741">
        <ele>212</ele>
        <time>2022-04-16T09:11:30.646Z</time>
      </trkpt>
      <trkpt lat="45.66705" lon="5.58735">
        <ele>212</ele>
        <time>2022-04-16T09:11:31.645Z</time>
      </trkpt>
      <trkpt lat="45.66708" lon="5.58731">
        <ele>212</ele>
        <time>2022-04-16T09:11:32.645Z</time>
      </trkpt>
      <trkpt lat="45.66711" lon="5.58726">
        <ele>211</ele>
        <time>2022-04-16T09:11:33.646Z</time>
      </trkpt>
      <trkpt lat="45.66715" lon="5.58721">
        <ele>211</ele>
        <time>2022-04-16T09:11:34.646Z</time>
      </trkpt>
      <trkpt lat="45.66719" lon="5.58715">
        <ele>211</ele>
        <time>2022-04-16T09:11:35.646Z</time>
      </trkpt>
      <trkpt lat="45.66724" lon="5.58709">
        <ele>211</ele>
        <time>2022-04-16T09:11:36.645Z</time>
      </trkpt>
      <trkpt lat="45.66727" lon="5.58704">
        <ele>211</ele>
        <time>2022-04-16T09:11:37.646Z</time>
      </trkpt>
      <trkpt lat="45.66731" lon="5.58699">
        <ele>211</ele>
        <time>2022-04-16T09:11:38.646Z</time>
      </trkpt>
      <trkpt lat="45.66734" lon="5.58694">
        <ele>211</ele>
        <time>2022-04-16T09:11:39.646Z</time>
      </trkpt>
      <trkpt lat="45.66738" lon="5.58688">
        <ele>212</ele>
        <time>2022-04-16T09:11:40.646Z</time>
      </trkpt>
      <trkpt lat="45.66741" lon="5.58683">
        <ele>212</ele>
        <time>2022-04-16T09:11:41.646Z</time>
      </trkpt>
      <trkpt lat="45.66745" lon="5.58677">
        <ele>212</ele>
        <time>2022-04-16T09:11:42.646Z</time>
      </trkpt>
      <trkpt lat="45.66748" lon="5.58672">
        <ele>211</ele>
        <time>2022-04-16T09:11:43.645Z</time>
      </trkpt>
      <trkpt lat="45.66751" lon="5.58666">
        <ele>211</ele>
        <time>2022-04-16T09:11:44.645Z</time>
      </trkpt>
      <trkpt lat="45.66754" lon="5.5866">
        <ele>211</ele>
        <time>2022-04-16T09:11:45.645Z</time>
      </trkpt>
      <trkpt lat="45.66757" lon="5.58655">
        <ele>211</ele>
        <time>2022-04-16T09:11:46.646Z</time>
      </trkpt>
      <trkpt lat="45.6676" lon="5.58649">
        <ele>211</ele>
        <time>2022-04-16T09:11:47.646Z</time>
      </trkpt>
      <trkpt lat="45.66763" lon="5.58643">
        <ele>211</ele>
        <time>2022-04-16T09:11:48.646Z</time>
      </trkpt>
      <trkpt lat="45.66767" lon="5.58637">
        <ele>211</ele>
        <time>2022-04-16T09:11:49.646Z</time>
      </trkpt>
      <trkpt lat="45.6677" lon="5.58631">
        <ele>211</ele>
        <time>2022-04-16T09:11:50.646Z</time>
      </trkpt>
      <trkpt lat="45.66773" lon="5.58625">
        <ele>211</ele>
        <time>2022-04-16T09:11:51.646Z</time>
      </trkpt>
      <trkpt lat="45.66776" lon="5.5862">
        <ele>211</ele>
        <time>2022-04-16T09:11:52.646Z</time>
      </trkpt>
      <trkpt lat="45.66779" lon="5.58614">
        <ele>211</ele>
        <time>2022-04-16T09:11:53.646Z</time>
      </trkpt>
      <trkpt lat="45.66781" lon="5.58608">
        <ele>211</ele>
        <time>2022-04-16T09:11:54.646Z</time>
      </trkpt>
      <trkpt lat="45.66784" lon="5.58602">
        <ele>210</ele>
        <time>2022-04-16T09:11:55.646Z</time>
      </trkpt>
      <trkpt lat="45.66786" lon="5.58596">
        <ele>211</ele>
        <time>2022-04-16T09:11:56.645Z</time>
      </trkpt>
      <trkpt lat="45.66789" lon="5.5859">
        <ele>211</ele>
        <time>2022-04-16T09:11:57.645Z</time>
      </trkpt>
      <trkpt lat="45.66792" lon="5.58584">
        <ele>211</ele>
        <time>2022-04-16T09:11:58.645Z</time>
      </trkpt>
      <trkpt lat="45.66794" lon="5.58578">
        <ele>211</ele>
        <time>2022-04-16T09:11:59.646Z</time>
      </trkpt>
      <trkpt lat="45.66796" lon="5.58573">
        <ele>211</ele>
        <time>2022-04-16T09:12:00.645Z</time>
      </trkpt>
      <trkpt lat="45.66799" lon="5.58565">
        <ele>211</ele>
        <time>2022-04-16T09:12:01.645Z</time>
      </trkpt>
      <trkpt lat="45.66801" lon="5.58559">
        <ele>212</ele>
        <time>2022-04-16T09:12:02.646Z</time>
      </trkpt>
      <trkpt lat="45.66804" lon="5.58553">
        <ele>212</ele>
        <time>2022-04-16T09:12:03.646Z</time>
      </trkpt>
      <trkpt lat="45.66806" lon="5.58548">
        <ele>212</ele>
        <time>2022-04-16T09:12:04.646Z</time>
      </trkpt>
      <trkpt lat="45.66809" lon="5.5854">
        <ele>212</ele>
        <time>2022-04-16T09:12:05.646Z</time>
      </trkpt>
      <trkpt lat="45.66811" lon="5.58534">
        <ele>212</ele>
        <time>2022-04-16T09:12:06.646Z</time>
      </trkpt>
      <trkpt lat="45.66813" lon="5.58527">
        <ele>213</ele>
        <time>2022-04-16T09:12:07.646Z</time>
      </trkpt>
      <trkpt lat="45.66816" lon="5.5852">
        <ele>212</ele>
        <time>2022-04-16T09:12:08.646Z</time>
      </trkpt>
      <trkpt lat="45.66818" lon="5.58514">
        <ele>212</ele>
        <time>2022-04-16T09:12:09.645Z</time>
      </trkpt>
      <trkpt lat="45.6682" lon="5.58507">
        <ele>212</ele>
        <time>2022-04-16T09:12:10.645Z</time>
      </trkpt>
      <trkpt lat="45.66822" lon="5.585">
        <ele>212</ele>
        <time>2022-04-16T09:12:11.646Z</time>
      </trkpt>
      <trkpt lat="45.66824" lon="5.58493">
        <ele>211</ele>
        <time>2022-04-16T09:12:12.646Z</time>
      </trkpt>
      <trkpt lat="45.66827" lon="5.58486">
        <ele>211</ele>
        <time>2022-04-16T09:12:13.646Z</time>
      </trkpt>
      <trkpt lat="45.66829" lon="5.58479">
        <ele>211</ele>
        <time>2022-04-16T09:12:14.645Z</time>
      </trkpt>
      <trkpt lat="45.66831" lon="5.58472">
        <ele>210</ele>
        <time>2022-04-16T09:12:15.646Z</time>
      </trkpt>
      <trkpt lat="45.66833" lon="5.58467">
        <ele>210</ele>
        <time>2022-04-16T09:12:16.646Z</time>
      </trkpt>
      <trkpt lat="45.66835" lon="5.58458">
        <ele>210</ele>
        <time>2022-04-16T09:12:17.646Z</time>
      </trkpt>
      <trkpt lat="45.66837" lon="5.58451">
        <ele>209</ele>
        <time>2022-04-16T09:12:18.645Z</time>
      </trkpt>
      <trkpt lat="45.66839" lon="5.58445">
        <ele>209</ele>
        <time>2022-04-16T09:12:19.646Z</time>
      </trkpt>
      <trkpt lat="45.66841" lon="5.58438">
        <ele>209</ele>
        <time>2022-04-16T09:12:20.646Z</time>
      </trkpt>
      <trkpt lat="45.66843" lon="5.58431">
        <ele>209</ele>
        <time>2022-04-16T09:12:21.646Z</time>
      </trkpt>
      <trkpt lat="45.66845" lon="5.58424">
        <ele>209</ele>
        <time>2022-04-16T09:12:22.645Z</time>
      </trkpt>
      <trkpt lat="45.66847" lon="5.58418">
        <ele>209</ele>
        <time>2022-04-16T09:12:23.645Z</time>
      </trkpt>
      <trkpt lat="45.66848" lon="5.58411">
        <ele>209</ele>
        <time>2022-04-16T09:12:24.646Z</time>
      </trkpt>
      <trkpt lat="45.6685" lon="5.58404">
        <ele>209</ele>
        <time>2022-04-16T09:12:25.646Z</time>
      </trkpt>
      <trkpt lat="45.66852" lon="5.58397">
        <ele>209</ele>
        <time>2022-04-16T09:12:26.646Z</time>
      </trkpt>
      <trkpt lat="45.66853" lon="5.5839">
        <ele>210</ele>
        <time>2022-04-16T09:12:27.646Z</time>
      </trkpt>
      <trkpt lat="45.66855" lon="5.58384">
        <ele>210</ele>
        <time>2022-04-16T09:12:28.646Z</time>
      </trkpt>
      <trkpt lat="45.66856" lon="5.58378">
        <ele>210</ele>
        <time>2022-04-16T09:12:29.646Z</time>
      </trkpt>
      <trkpt lat="45.66857" lon="5.58372">
        <ele>209</ele>
        <time>2022-04-16T09:12:30.646Z</time>
      </trkpt>
      <trkpt lat="45.66859" lon="5.58364">
        <ele>209</ele>
        <time>2022-04-16T09:12:31.645Z</time>
      </trkpt>
      <trkpt lat="45.66861" lon="5.58357">
        <ele>209</ele>
        <time>2022-04-16T09:12:32.645Z</time>
      </trkpt>
      <trkpt lat="45.66862" lon="5.58351">
        <ele>209</ele>
        <time>2022-04-16T09:12:33.646Z</time>
      </trkpt>
      <trkpt lat="45.66864" lon="5.58345">
        <ele>209</ele>
        <time>2022-04-16T09:12:34.645Z</time>
      </trkpt>
      <trkpt lat="45.66865" lon="5.58339">
        <ele>209</ele>
        <time>2022-04-16T09:12:35.646Z</time>
      </trkpt>
      <trkpt lat="45.66867" lon="5.58334">
        <ele>209</ele>
        <time>2022-04-16T09:12:36.646Z</time>
      </trkpt>
      <trkpt lat="45.66869" lon="5.58329">
        <ele>209</ele>
        <time>2022-04-16T09:12:37.646Z</time>
      </trkpt>
      <trkpt lat="45.66871" lon="5.58324">
        <ele>209</ele>
        <time>2022-04-16T09:12:38.646Z</time>
      </trkpt>
      <trkpt lat="45.66873" lon="5.58319">
        <ele>209</ele>
        <time>2022-04-16T09:12:39.645Z</time>
      </trkpt>
      <trkpt lat="45.66874" lon="5.58314">
        <ele>209</ele>
        <time>2022-04-16T09:12:40.646Z</time>
      </trkpt>
      <trkpt lat="45.66876" lon="5.58309">
        <ele>209</ele>
        <time>2022-04-16T09:12:41.645Z</time>
      </trkpt>
      <trkpt lat="45.66878" lon="5.58304">
        <ele>209</ele>
        <time>2022-04-16T09:12:42.645Z</time>
      </trkpt>
      <trkpt lat="45.66881" lon="5.58299">
        <ele>209</ele>
        <time>2022-04-16T09:12:43.645Z</time>
      </trkpt>
      <trkpt lat="45.66883" lon="5.58295">
        <ele>209</ele>
        <time>2022-04-16T09:12:44.646Z</time>
      </trkpt>
      <trkpt lat="45.66886" lon="5.5829">
        <ele>209</ele>
        <time>2022-04-16T09:12:45.646Z</time>
      </trkpt>
      <trkpt lat="45.66888" lon="5.58285">
        <ele>208</ele>
        <time>2022-04-16T09:12:46.646Z</time>
      </trkpt>
      <trkpt lat="45.66891" lon="5.5828">
        <ele>208</ele>
        <time>2022-04-16T09:12:47.646Z</time>
      </trkpt>
      <trkpt lat="45.66894" lon="5.58274">
        <ele>208</ele>
        <time>2022-04-16T09:12:48.646Z</time>
      </trkpt>
      <trkpt lat="45.66897" lon="5.58269">
        <ele>208</ele>
        <time>2022-04-16T09:12:49.646Z</time>
      </trkpt>
      <trkpt lat="45.669" lon="5.58265">
        <ele>209</ele>
        <time>2022-04-16T09:12:50.646Z</time>
      </trkpt>
      <trkpt lat="45.66902" lon="5.58262">
        <ele>209</ele>
        <time>2022-04-16T09:12:51.646Z</time>
      </trkpt>
      <trkpt lat="45.66905" lon="5.58257">
        <ele>209</ele>
        <time>2022-04-16T09:12:52.646Z</time>
      </trkpt>
      <trkpt lat="45.66907" lon="5.58253">
        <ele>209</ele>
        <time>2022-04-16T09:12:53.646Z</time>
      </trkpt>
      <trkpt lat="45.66909" lon="5.58249">
        <ele>209</ele>
        <time>2022-04-16T09:12:54.646Z</time>
      </trkpt>
      <trkpt lat="45.66909" lon="5.58245">
        <ele>209</ele>
        <time>2022-04-16T09:12:55.646Z</time>
      </trkpt>
      <trkpt lat="45.6691" lon="5.5824">
        <ele>209</ele>
        <time>2022-04-16T09:12:56.646Z</time>
      </trkpt>
      <trkpt lat="45.6691" lon="5.58237">
        <ele>209</ele>
        <time>2022-04-16T09:12:57.646Z</time>
      </trkpt>
      <trkpt lat="45.66909" lon="5.58233">
        <ele>210</ele>
        <time>2022-04-16T09:12:58.645Z</time>
      </trkpt>
      <trkpt lat="45.66909" lon="5.5823">
        <ele>210</ele>
        <time>2022-04-16T09:12:59.645Z</time>
      </trkpt>
      <trkpt lat="45.66909" lon="5.58228">
        <ele>211</ele>
        <time>2022-04-16T09:13:00.645Z</time>
      </trkpt>
      <trkpt lat="45.66908" lon="5.58223">
        <ele>212</ele>
        <time>2022-04-16T09:13:01.646Z</time>
      </trkpt>
      <trkpt lat="45.66909" lon="5.58219">
        <ele>213</ele>
        <time>2022-04-16T09:13:02.646Z</time>
      </trkpt>
      <trkpt lat="45.66909" lon="5.58212">
        <ele>214</ele>
        <time>2022-04-16T09:13:03.645Z</time>
      </trkpt>
      <trkpt lat="45.66909" lon="5.58207">
        <ele>214</ele>
        <time>2022-04-16T09:13:04.645Z</time>
      </trkpt>
      <trkpt lat="45.6691" lon="5.58201">
        <ele>214</ele>
        <time>2022-04-16T09:13:05.646Z</time>
      </trkpt>
      <trkpt lat="45.6691" lon="5.58197">
        <ele>215</ele>
        <time>2022-04-16T09:13:06.646Z</time>
      </trkpt>
      <trkpt lat="45.66911" lon="5.5819">
        <ele>215</ele>
        <time>2022-04-16T09:13:07.645Z</time>
      </trkpt>
      <trkpt lat="45.66913" lon="5.58186">
        <ele>214</ele>
        <time>2022-04-16T09:13:08.645Z</time>
      </trkpt>
      <trkpt lat="45.66914" lon="5.5818">
        <ele>214</ele>
        <time>2022-04-16T09:13:09.645Z</time>
      </trkpt>
      <trkpt lat="45.66915" lon="5.58175">
        <ele>214</ele>
        <time>2022-04-16T09:13:10.646Z</time>
      </trkpt>
      <trkpt lat="45.66916" lon="5.58169">
        <ele>213</ele>
        <time>2022-04-16T09:13:11.646Z</time>
      </trkpt>
      <trkpt lat="45.66916" lon="5.58163">
        <ele>213</ele>
        <time>2022-04-16T09:13:12.646Z</time>
      </trkpt>
      <trkpt lat="45.66916" lon="5.58156">
        <ele>213</ele>
        <time>2022-04-16T09:13:13.646Z</time>
      </trkpt>
      <trkpt lat="45.66916" lon="5.58149">
        <ele>213</ele>
        <time>2022-04-16T09:13:14.646Z</time>
      </trkpt>
      <trkpt lat="45.66916" lon="5.58142">
        <ele>213</ele>
        <time>2022-04-16T09:13:15.646Z</time>
      </trkpt>
      <trkpt lat="45.66917" lon="5.58135">
        <ele>213</ele>
        <time>2022-04-16T09:13:16.646Z</time>
      </trkpt>
      <trkpt lat="45.66918" lon="5.58129">
        <ele>213</ele>
        <time>2022-04-16T09:13:17.646Z</time>
      </trkpt>
      <trkpt lat="45.66919" lon="5.58122">
        <ele>213</ele>
        <time>2022-04-16T09:13:18.646Z</time>
      </trkpt>
      <trkpt lat="45.66921" lon="5.58116">
        <ele>213</ele>
        <time>2022-04-16T09:13:19.646Z</time>
      </trkpt>
      <trkpt lat="45.66922" lon="5.58109">
        <ele>213</ele>
        <time>2022-04-16T09:13:20.646Z</time>
      </trkpt>
      <trkpt lat="45.66923" lon="5.58103">
        <ele>213</ele>
        <time>2022-04-16T09:13:21.646Z</time>
      </trkpt>
      <trkpt lat="45.66924" lon="5.58096">
        <ele>212</ele>
        <time>2022-04-16T09:13:22.646Z</time>
      </trkpt>
      <trkpt lat="45.66925" lon="5.5809">
        <ele>212</ele>
        <time>2022-04-16T09:13:23.645Z</time>
      </trkpt>
      <trkpt lat="45.66927" lon="5.58083">
        <ele>212</ele>
        <time>2022-04-16T09:13:24.645Z</time>
      </trkpt>
      <trkpt lat="45.66928" lon="5.58077">
        <ele>212</ele>
        <time>2022-04-16T09:13:25.646Z</time>
      </trkpt>
      <trkpt lat="45.66929" lon="5.58071">
        <ele>212</ele>
        <time>2022-04-16T09:13:26.646Z</time>
      </trkpt>
      <trkpt lat="45.6693" lon="5.58064">
        <ele>212</ele>
        <time>2022-04-16T09:13:27.646Z</time>
      </trkpt>
      <trkpt lat="45.66931" lon="5.58058">
        <ele>212</ele>
        <time>2022-04-16T09:13:28.645Z</time>
      </trkpt>
      <trkpt lat="45.66933" lon="5.58051">
        <ele>212</ele>
        <time>2022-04-16T09:13:29.645Z</time>
      </trkpt>
      <trkpt lat="45.66934" lon="5.58044">
        <ele>212</ele>
        <time>2022-04-16T09:13:30.646Z</time>
      </trkpt>
      <trkpt lat="45.66936" lon="5.58038">
        <ele>212</ele>
        <time>2022-04-16T09:13:31.646Z</time>
      </trkpt>
      <trkpt lat="45.66937" lon="5.58031">
        <ele>213</ele>
        <time>2022-04-16T09:13:32.645Z</time>
      </trkpt>
      <trkpt lat="45.66939" lon="5.58024">
        <ele>213</ele>
        <time>2022-04-16T09:13:33.646Z</time>
      </trkpt>
      <trkpt lat="45.6694" lon="5.58017">
        <ele>213</ele>
        <time>2022-04-16T09:13:34.646Z</time>
      </trkpt>
      <trkpt lat="45.66942" lon="5.58011">
        <ele>213</ele>
        <time>2022-04-16T09:13:35.646Z</time>
      </trkpt>
      <trkpt lat="45.66943" lon="5.58004">
        <ele>213</ele>
        <time>2022-04-16T09:13:36.646Z</time>
      </trkpt>
      <trkpt lat="45.66945" lon="5.57998">
        <ele>213</ele>
        <time>2022-04-16T09:13:37.646Z</time>
      </trkpt>
      <trkpt lat="45.66946" lon="5.57991">
        <ele>213</ele>
        <time>2022-04-16T09:13:38.646Z</time>
      </trkpt>
      <trkpt lat="45.66948" lon="5.57985">
        <ele>212</ele>
        <time>2022-04-16T09:13:39.645Z</time>
      </trkpt>
      <trkpt lat="45.6695" lon="5.57979">
        <ele>212</ele>
        <time>2022-04-16T09:13:40.645Z</time>
      </trkpt>
      <trkpt lat="45.66951" lon="5.57972">
        <ele>212</ele>
        <time>2022-04-16T09:13:41.646Z</time>
      </trkpt>
      <trkpt lat="45.66953" lon="5.57966">
        <ele>212</ele>
        <time>2022-04-16T09:13:42.646Z</time>
      </trkpt>
      <trkpt lat="45.66955" lon="5.57959">
        <ele>212</ele>
        <time>2022-04-16T09:13:43.646Z</time>
      </trkpt>
      <trkpt lat="45.66956" lon="5.57953">
        <ele>212</ele>
        <time>2022-04-16T09:13:44.645Z</time>
      </trkpt>
      <trkpt lat="45.66957" lon="5.57947">
        <ele>212</ele>
        <time>2022-04-16T09:13:45.646Z</time>
      </trkpt>
      <trkpt lat="45.66958" lon="5.5794">
        <ele>212</ele>
        <time>2022-04-16T09:13:46.646Z</time>
      </trkpt>
      <trkpt lat="45.66959" lon="5.57934">
        <ele>212</ele>
        <time>2022-04-16T09:13:47.646Z</time>
      </trkpt>
      <trkpt lat="45.66961" lon="5.57927">
        <ele>212</ele>
        <time>2022-04-16T09:13:48.646Z</time>
      </trkpt>
      <trkpt lat="45.66962" lon="5.5792">
        <ele>211</ele>
        <time>2022-04-16T09:13:49.646Z</time>
      </trkpt>
      <trkpt lat="45.66964" lon="5.57914">
        <ele>211</ele>
        <time>2022-04-16T09:13:50.646Z</time>
      </trkpt>
      <trkpt lat="45.66965" lon="5.57908">
        <ele>211</ele>
        <time>2022-04-16T09:13:51.646Z</time>
      </trkpt>
      <trkpt lat="45.66966" lon="5.57902">
        <ele>210</ele>
        <time>2022-04-16T09:13:52.645Z</time>
      </trkpt>
      <trkpt lat="45.66968" lon="5.57896">
        <ele>210</ele>
        <time>2022-04-16T09:13:53.645Z</time>
      </trkpt>
      <trkpt lat="45.66969" lon="5.57889">
        <ele>209</ele>
        <time>2022-04-16T09:13:54.646Z</time>
      </trkpt>
      <trkpt lat="45.66971" lon="5.57883">
        <ele>208</ele>
        <time>2022-04-16T09:13:55.646Z</time>
      </trkpt>
      <trkpt lat="45.66972" lon="5.57877">
        <ele>208</ele>
        <time>2022-04-16T09:13:56.646Z</time>
      </trkpt>
      <trkpt lat="45.66974" lon="5.5787">
        <ele>208</ele>
        <time>2022-04-16T09:13:57.645Z</time>
      </trkpt>
      <trkpt lat="45.66976" lon="5.57864">
        <ele>208</ele>
        <time>2022-04-16T09:13:58.645Z</time>
      </trkpt>
      <trkpt lat="45.66978" lon="5.57857">
        <ele>208</ele>
        <time>2022-04-16T09:13:59.645Z</time>
      </trkpt>
      <trkpt lat="45.66979" lon="5.57851">
        <ele>208</ele>
        <time>2022-04-16T09:14:00.646Z</time>
      </trkpt>
      <trkpt lat="45.66981" lon="5.57845">
        <ele>209</ele>
        <time>2022-04-16T09:14:01.646Z</time>
      </trkpt>
      <trkpt lat="45.66983" lon="5.57839">
        <ele>209</ele>
        <time>2022-04-16T09:14:02.646Z</time>
      </trkpt>
      <trkpt lat="45.66985" lon="5.57833">
        <ele>209</ele>
        <time>2022-04-16T09:14:03.645Z</time>
      </trkpt>
      <trkpt lat="45.66987" lon="5.57827">
        <ele>209</ele>
        <time>2022-04-16T09:14:04.645Z</time>
      </trkpt>
      <trkpt lat="45.66989" lon="5.57821">
        <ele>209</ele>
        <time>2022-04-16T09:14:05.646Z</time>
      </trkpt>
      <trkpt lat="45.66991" lon="5.57815">
        <ele>209</ele>
        <time>2022-04-16T09:14:06.646Z</time>
      </trkpt>
      <trkpt lat="45.66993" lon="5.57808">
        <ele>209</ele>
        <time>2022-04-16T09:14:07.645Z</time>
      </trkpt>
      <trkpt lat="45.66995" lon="5.57802">
        <ele>209</ele>
        <time>2022-04-16T09:14:08.645Z</time>
      </trkpt>
      <trkpt lat="45.66997" lon="5.57797">
        <ele>209</ele>
        <time>2022-04-16T09:14:09.646Z</time>
      </trkpt>
      <trkpt lat="45.67" lon="5.57791">
        <ele>208</ele>
        <time>2022-04-16T09:14:10.646Z</time>
      </trkpt>
      <trkpt lat="45.67002" lon="5.57785">
        <ele>208</ele>
        <time>2022-04-16T09:14:11.646Z</time>
      </trkpt>
      <trkpt lat="45.67004" lon="5.57779">
        <ele>208</ele>
        <time>2022-04-16T09:14:12.645Z</time>
      </trkpt>
      <trkpt lat="45.67006" lon="5.57773">
        <ele>209</ele>
        <time>2022-04-16T09:14:13.645Z</time>
      </trkpt>
      <trkpt lat="45.67008" lon="5.57767">
        <ele>209</ele>
        <time>2022-04-16T09:14:14.646Z</time>
      </trkpt>
      <trkpt lat="45.6701" lon="5.5776">
        <ele>210</ele>
        <time>2022-04-16T09:14:15.645Z</time>
      </trkpt>
      <trkpt lat="45.67011" lon="5.57754">
        <ele>210</ele>
        <time>2022-04-16T09:14:16.645Z</time>
      </trkpt>
      <trkpt lat="45.67013" lon="5.57748">
        <ele>210</ele>
        <time>2022-04-16T09:14:17.645Z</time>
      </trkpt>
      <trkpt lat="45.67016" lon="5.57742">
        <ele>211</ele>
        <time>2022-04-16T09:14:18.645Z</time>
      </trkpt>
      <trkpt lat="45.67018" lon="5.57736">
        <ele>211</ele>
        <time>2022-04-16T09:14:19.645Z</time>
      </trkpt>
      <trkpt lat="45.6702" lon="5.5773">
        <ele>211</ele>
        <time>2022-04-16T09:14:20.646Z</time>
      </trkpt>
      <trkpt lat="45.67022" lon="5.57724">
        <ele>212</ele>
        <time>2022-04-16T09:14:21.646Z</time>
      </trkpt>
      <trkpt lat="45.67024" lon="5.57717">
        <ele>212</ele>
        <time>2022-04-16T09:14:22.646Z</time>
      </trkpt>
      <trkpt lat="45.67026" lon="5.57711">
        <ele>212</ele>
        <time>2022-04-16T09:14:23.645Z</time>
      </trkpt>
      <trkpt lat="45.67028" lon="5.57705">
        <ele>212</ele>
        <time>2022-04-16T09:14:24.646Z</time>
      </trkpt>
      <trkpt lat="45.6703" lon="5.57698">
        <ele>212</ele>
        <time>2022-04-16T09:14:25.645Z</time>
      </trkpt>
      <trkpt lat="45.67033" lon="5.57692">
        <ele>212</ele>
        <time>2022-04-16T09:14:26.646Z</time>
      </trkpt>
      <trkpt lat="45.67035" lon="5.57686">
        <ele>212</ele>
        <time>2022-04-16T09:14:27.646Z</time>
      </trkpt>
      <trkpt lat="45.67038" lon="5.57679">
        <ele>212</ele>
        <time>2022-04-16T09:14:28.646Z</time>
      </trkpt>
      <trkpt lat="45.67041" lon="5.57674">
        <ele>212</ele>
        <time>2022-04-16T09:14:29.646Z</time>
      </trkpt>
      <trkpt lat="45.67043" lon="5.57667">
        <ele>212</ele>
        <time>2022-04-16T09:14:30.646Z</time>
      </trkpt>
      <trkpt lat="45.67046" lon="5.57661">
        <ele>212</ele>
        <time>2022-04-16T09:14:31.646Z</time>
      </trkpt>
      <trkpt lat="45.67049" lon="5.57655">
        <ele>212</ele>
        <time>2022-04-16T09:14:32.646Z</time>
      </trkpt>
      <trkpt lat="45.67051" lon="5.57649">
        <ele>212</ele>
        <time>2022-04-16T09:14:33.646Z</time>
      </trkpt>
      <trkpt lat="45.67053" lon="5.57643">
        <ele>212</ele>
        <time>2022-04-16T09:14:34.646Z</time>
      </trkpt>
      <trkpt lat="45.67056" lon="5.57636">
        <ele>212</ele>
        <time>2022-04-16T09:14:35.646Z</time>
      </trkpt>
      <trkpt lat="45.67058" lon="5.5763">
        <ele>212</ele>
        <time>2022-04-16T09:14:36.645Z</time>
      </trkpt>
      <trkpt lat="45.6706" lon="5.57625">
        <ele>212</ele>
        <time>2022-04-16T09:14:37.645Z</time>
      </trkpt>
      <trkpt lat="45.67062" lon="5.57619">
        <ele>212</ele>
        <time>2022-04-16T09:14:38.646Z</time>
      </trkpt>
      <trkpt lat="45.67065" lon="5.57613">
        <ele>213</ele>
        <time>2022-04-16T09:14:39.645Z</time>
      </trkpt>
      <trkpt lat="45.67067" lon="5.57608">
        <ele>213</ele>
        <time>2022-04-16T09:14:40.646Z</time>
      </trkpt>
      <trkpt lat="45.6707" lon="5.57601">
        <ele>213</ele>
        <time>2022-04-16T09:14:41.646Z</time>
      </trkpt>
      <trkpt lat="45.67073" lon="5.57595">
        <ele>213</ele>
        <time>2022-04-16T09:14:42.645Z</time>
      </trkpt>
      <trkpt lat="45.67076" lon="5.57588">
        <ele>213</ele>
        <time>2022-04-16T09:14:43.645Z</time>
      </trkpt>
      <trkpt lat="45.67079" lon="5.57582">
        <ele>213</ele>
        <time>2022-04-16T09:14:44.646Z</time>
      </trkpt>
      <trkpt lat="45.67081" lon="5.57575">
        <ele>214</ele>
        <time>2022-04-16T09:14:45.645Z</time>
      </trkpt>
      <trkpt lat="45.67083" lon="5.57567">
        <ele>214</ele>
        <time>2022-04-16T09:14:46.645Z</time>
      </trkpt>
      <trkpt lat="45.67084" lon="5.5756">
        <ele>214</ele>
        <time>2022-04-16T09:14:47.645Z</time>
      </trkpt>
      <trkpt lat="45.67085" lon="5.57552">
        <ele>214</ele>
        <time>2022-04-16T09:14:48.645Z</time>
      </trkpt>
      <trkpt lat="45.67086" lon="5.57545">
        <ele>213</ele>
        <time>2022-04-16T09:14:49.646Z</time>
      </trkpt>
      <trkpt lat="45.67085" lon="5.57538">
        <ele>213</ele>
        <time>2022-04-16T09:14:50.646Z</time>
      </trkpt>
      <trkpt lat="45.67084" lon="5.57532">
        <ele>212</ele>
        <time>2022-04-16T09:14:51.646Z</time>
      </trkpt>
      <trkpt lat="45.67082" lon="5.57525">
        <ele>212</ele>
        <time>2022-04-16T09:14:52.645Z</time>
      </trkpt>
      <trkpt lat="45.67082" lon="5.57519">
        <ele>211</ele>
        <time>2022-04-16T09:14:53.646Z</time>
      </trkpt>
      <trkpt lat="45.67083" lon="5.57514">
        <ele>211</ele>
        <time>2022-04-16T09:14:54.645Z</time>
      </trkpt>
      <trkpt lat="45.67085" lon="5.57506">
        <ele>210</ele>
        <time>2022-04-16T09:14:55.646Z</time>
      </trkpt>
      <trkpt lat="45.67087" lon="5.575">
        <ele>210</ele>
        <time>2022-04-16T09:14:56.646Z</time>
      </trkpt>
      <trkpt lat="45.67089" lon="5.57494">
        <ele>209</ele>
        <time>2022-04-16T09:14:57.646Z</time>
      </trkpt>
      <trkpt lat="45.67092" lon="5.5749">
        <ele>209</ele>
        <time>2022-04-16T09:14:58.646Z</time>
      </trkpt>
      <trkpt lat="45.67094" lon="5.57486">
        <ele>208</ele>
        <time>2022-04-16T09:14:59.646Z</time>
      </trkpt>
      <trkpt lat="45.67096" lon="5.57483">
        <ele>208</ele>
        <time>2022-04-16T09:15:00.646Z</time>
      </trkpt>
      <trkpt lat="45.67098" lon="5.5748">
        <ele>208</ele>
        <time>2022-04-16T09:15:01.646Z</time>
      </trkpt>
      <trkpt lat="45.671" lon="5.57477">
        <ele>208</ele>
        <time>2022-04-16T09:15:02.646Z</time>
      </trkpt>
      <trkpt lat="45.67102" lon="5.57473">
        <ele>208</ele>
        <time>2022-04-16T09:15:03.646Z</time>
      </trkpt>
      <trkpt lat="45.67105" lon="5.57472">
        <ele>208</ele>
        <time>2022-04-16T09:15:04.646Z</time>
      </trkpt>
      <trkpt lat="45.67107" lon="5.57472">
        <ele>208</ele>
        <time>2022-04-16T09:15:05.645Z</time>
      </trkpt>
      <trkpt lat="45.6711" lon="5.57474">
        <ele>209</ele>
        <time>2022-04-16T09:15:06.646Z</time>
      </trkpt>
      <trkpt lat="45.67112" lon="5.57477">
        <ele>209</ele>
        <time>2022-04-16T09:15:07.646Z</time>
      </trkpt>
      <trkpt lat="45.67113" lon="5.57481">
        <ele>209</ele>
        <time>2022-04-16T09:15:08.645Z</time>
      </trkpt>
      <trkpt lat="45.67114" lon="5.57485">
        <ele>210</ele>
        <time>2022-04-16T09:15:09.645Z</time>
      </trkpt>
      <trkpt lat="45.67114" lon="5.57489">
        <ele>210</ele>
        <time>2022-04-16T09:15:10.646Z</time>
      </trkpt>
      <trkpt lat="45.67115" lon="5.57493">
        <ele>210</ele>
        <time>2022-04-16T09:15:11.646Z</time>
      </trkpt>
      <trkpt lat="45.67116" lon="5.57497">
        <ele>210</ele>
        <time>2022-04-16T09:15:12.645Z</time>
      </trkpt>
      <trkpt lat="45.67117" lon="5.57501">
        <ele>210</ele>
        <time>2022-04-16T09:15:13.646Z</time>
      </trkpt>
      <trkpt lat="45.67119" lon="5.57505">
        <ele>211</ele>
        <time>2022-04-16T09:15:14.645Z</time>
      </trkpt>
      <trkpt lat="45.6712" lon="5.57509">
        <ele>211</ele>
        <time>2022-04-16T09:15:15.646Z</time>
      </trkpt>
      <trkpt lat="45.67122" lon="5.57512">
        <ele>212</ele>
        <time>2022-04-16T09:15:16.646Z</time>
      </trkpt>
      <trkpt lat="45.67125" lon="5.57514">
        <ele>212</ele>
        <time>2022-04-16T09:15:17.645Z</time>
      </trkpt>
      <trkpt lat="45.67127" lon="5.57516">
        <ele>212</ele>
        <time>2022-04-16T09:15:18.645Z</time>
      </trkpt>
      <trkpt lat="45.6713" lon="5.57517">
        <ele>212</ele>
        <time>2022-04-16T09:15:19.646Z</time>
      </trkpt>
      <trkpt lat="45.67133" lon="5.57517">
        <ele>212</ele>
        <time>2022-04-16T09:15:20.646Z</time>
      </trkpt>
      <trkpt lat="45.67136" lon="5.57516">
        <ele>213</ele>
        <time>2022-04-16T09:15:21.646Z</time>
      </trkpt>
      <trkpt lat="45.67139" lon="5.57515">
        <ele>213</ele>
        <time>2022-04-16T09:15:22.646Z</time>
      </trkpt>
      <trkpt lat="45.67142" lon="5.57514">
        <ele>213</ele>
        <time>2022-04-16T09:15:23.645Z</time>
      </trkpt>
      <trkpt lat="45.67145" lon="5.57514">
        <ele>213</ele>
        <time>2022-04-16T09:15:24.645Z</time>
      </trkpt>
      <trkpt lat="45.67148" lon="5.57513">
        <ele>214</ele>
        <time>2022-04-16T09:15:25.646Z</time>
      </trkpt>
      <trkpt lat="45.67151" lon="5.57513">
        <ele>214</ele>
        <time>2022-04-16T09:15:26.645Z</time>
      </trkpt>
      <trkpt lat="45.67154" lon="5.57513">
        <ele>214</ele>
        <time>2022-04-16T09:15:27.645Z</time>
      </trkpt>
      <trkpt lat="45.67157" lon="5.57513">
        <ele>214</ele>
        <time>2022-04-16T09:15:28.645Z</time>
      </trkpt>
      <trkpt lat="45.6716" lon="5.57514">
        <ele>214</ele>
        <time>2022-04-16T09:15:29.646Z</time>
      </trkpt>
      <trkpt lat="45.67162" lon="5.57516">
        <ele>215</ele>
        <time>2022-04-16T09:15:30.646Z</time>
      </trkpt>
      <trkpt lat="45.67165" lon="5.57518">
        <ele>215</ele>
        <time>2022-04-16T09:15:31.646Z</time>
      </trkpt>
      <trkpt lat="45.67167" lon="5.5752">
        <ele>215</ele>
        <time>2022-04-16T09:15:32.645Z</time>
      </trkpt>
      <trkpt lat="45.67169" lon="5.57522">
        <ele>215</ele>
        <time>2022-04-16T09:15:33.646Z</time>
      </trkpt>
      <trkpt lat="45.67172" lon="5.57523">
        <ele>215</ele>
        <time>2022-04-16T09:15:34.645Z</time>
      </trkpt>
      <trkpt lat="45.67174" lon="5.57525">
        <ele>215</ele>
        <time>2022-04-16T09:15:35.646Z</time>
      </trkpt>
      <trkpt lat="45.67176" lon="5.57527">
        <ele>215</ele>
        <time>2022-04-16T09:15:36.646Z</time>
      </trkpt>
      <trkpt lat="45.67178" lon="5.5753">
        <ele>215</ele>
        <time>2022-04-16T09:15:37.646Z</time>
      </trkpt>
      <trkpt lat="45.6718" lon="5.57533">
        <ele>215</ele>
        <time>2022-04-16T09:15:38.645Z</time>
      </trkpt>
      <trkpt lat="45.67181" lon="5.57537">
        <ele>215</ele>
        <time>2022-04-16T09:15:39.646Z</time>
      </trkpt>
      <trkpt lat="45.67181" lon="5.57541">
        <ele>216</ele>
        <time>2022-04-16T09:15:40.645Z</time>
      </trkpt>
      <trkpt lat="45.67181" lon="5.57544">
        <ele>216</ele>
        <time>2022-04-16T09:15:41.646Z</time>
      </trkpt>
      <trkpt lat="45.6718" lon="5.57548">
        <ele>216</ele>
        <time>2022-04-16T09:15:42.646Z</time>
      </trkpt>
      <trkpt lat="45.6718" lon="5.57552">
        <ele>216</ele>
        <time>2022-04-16T09:15:43.645Z</time>
      </trkpt>
      <trkpt lat="45.67178" lon="5.57555">
        <ele>216</ele>
        <time>2022-04-16T09:15:44.646Z</time>
      </trkpt>
      <trkpt lat="45.67177" lon="5.57558">
        <ele>217</ele>
        <time>2022-04-16T09:15:45.645Z</time>
      </trkpt>
      <trkpt lat="45.67176" lon="5.57561">
        <ele>217</ele>
        <time>2022-04-16T09:15:46.646Z</time>
      </trkpt>
      <trkpt lat="45.67176" lon="5.57563">
        <ele>217</ele>
        <time>2022-04-16T09:15:47.646Z</time>
      </trkpt>
      <trkpt lat="45.67175" lon="5.57565">
        <ele>217</ele>
        <time>2022-04-16T09:15:48.646Z</time>
      </trkpt>
      <trkpt lat="45.67176" lon="5.57567">
        <ele>217</ele>
        <time>2022-04-16T09:15:49.646Z</time>
      </trkpt>
      <trkpt lat="45.67176" lon="5.57567">
        <ele>217</ele>
        <time>2022-04-16T09:15:50.646Z</time>
      </trkpt>
      <trkpt lat="45.67177" lon="5.57568">
        <ele>217</ele>
        <time>2022-04-16T09:15:51.646Z</time>
      </trkpt>
      <trkpt lat="45.67178" lon="5.57569">
        <ele>218</ele>
        <time>2022-04-16T09:15:52.645Z</time>
      </trkpt>
      <trkpt lat="45.6718" lon="5.5757">
        <ele>218</ele>
        <time>2022-04-16T09:15:53.645Z</time>
      </trkpt>
      <trkpt lat="45.67182" lon="5.57571">
        <ele>218</ele>
        <time>2022-04-16T09:15:54.646Z</time>
      </trkpt>
      <trkpt lat="45.67184" lon="5.57572">
        <ele>218</ele>
        <time>2022-04-16T09:15:55.646Z</time>
      </trkpt>
      <trkpt lat="45.67186" lon="5.57573">
        <ele>218</ele>
        <time>2022-04-16T09:15:56.646Z</time>
      </trkpt>
      <trkpt lat="45.67189" lon="5.57574">
        <ele>218</ele>
        <time>2022-04-16T09:15:57.646Z</time>
      </trkpt>
      <trkpt lat="45.67191" lon="5.57576">
        <ele>219</ele>
        <time>2022-04-16T09:15:58.646Z</time>
      </trkpt>
      <trkpt lat="45.67194" lon="5.57579">
        <ele>219</ele>
        <time>2022-04-16T09:15:59.645Z</time>
      </trkpt>
      <trkpt lat="45.67197" lon="5.57581">
        <ele>219</ele>
        <time>2022-04-16T09:16:00.646Z</time>
      </trkpt>
      <trkpt lat="45.67199" lon="5.57584">
        <ele>220</ele>
        <time>2022-04-16T09:16:01.645Z</time>
      </trkpt>
      <trkpt lat="45.67201" lon="5.57586">
        <ele>220</ele>
        <time>2022-04-16T09:16:02.646Z</time>
      </trkpt>
      <trkpt lat="45.67202" lon="5.57586">
        <ele>220</ele>
        <time>2022-04-16T09:16:03.645Z</time>
      </trkpt>
      <trkpt lat="45.67203" lon="5.57587">
        <ele>220</ele>
        <time>2022-04-16T09:16:04.646Z</time>
      </trkpt>
      <trkpt lat="45.67203" lon="5.57587">
        <ele>220</ele>
        <time>2022-04-16T09:16:05.646Z</time>
      </trkpt>
      <trkpt lat="45.67202" lon="5.57587">
        <ele>220</ele>
        <time>2022-04-16T09:16:06.645Z</time>
      </trkpt>
      <trkpt lat="45.67202" lon="5.57586">
        <ele>219</ele>
        <time>2022-04-16T09:16:09.760Z</time>
      </trkpt>
      <trkpt lat="45.67197" lon="5.57583">
        <ele>224</ele>
        <time>2022-04-16T09:19:01.541Z</time>
      </trkpt>
      <trkpt lat="45.67196" lon="5.57581">
        <ele>223</ele>
        <time>2022-04-16T09:19:02.540Z</time>
      </trkpt>
      <trkpt lat="45.67194" lon="5.5758">
        <ele>223</ele>
        <time>2022-04-16T09:19:03.540Z</time>
      </trkpt>
      <trkpt lat="45.67193" lon="5.57579">
        <ele>223</ele>
        <time>2022-04-16T09:19:04.540Z</time>
      </trkpt>
      <trkpt lat="45.67192" lon="5.57579">
        <ele>223</ele>
        <time>2022-04-16T09:19:05.540Z</time>
      </trkpt>
      <trkpt lat="45.67191" lon="5.57579">
        <ele>223</ele>
        <time>2022-04-16T09:19:06.540Z</time>
      </trkpt>
      <trkpt lat="45.6719" lon="5.57578">
        <ele>222</ele>
        <time>2022-04-16T09:19:07.541Z</time>
      </trkpt>
      <trkpt lat="45.67189" lon="5.57579">
        <ele>222</ele>
        <time>2022-04-16T09:19:08.541Z</time>
      </trkpt>
      <trkpt lat="45.67188" lon="5.57578">
        <ele>221</ele>
        <time>2022-04-16T09:19:09.540Z</time>
      </trkpt>
      <trkpt lat="45.67187" lon="5.57577">
        <ele>221</ele>
        <time>2022-04-16T09:19:10.540Z</time>
      </trkpt>
      <trkpt lat="45.67185" lon="5.57576">
        <ele>221</ele>
        <time>2022-04-16T09:19:11.541Z</time>
      </trkpt>
      <trkpt lat="45.67183" lon="5.57574">
        <ele>221</ele>
        <time>2022-04-16T09:19:12.541Z</time>
      </trkpt>
      <trkpt lat="45.67181" lon="5.57572">
        <ele>221</ele>
        <time>2022-04-16T09:19:13.541Z</time>
      </trkpt>
      <trkpt lat="45.67178" lon="5.57571">
        <ele>221</ele>
        <time>2022-04-16T09:19:14.540Z</time>
      </trkpt>
      <trkpt lat="45.67176" lon="5.57569">
        <ele>221</ele>
        <time>2022-04-16T09:19:15.541Z</time>
      </trkpt>
      <trkpt lat="45.67175" lon="5.57568">
        <ele>221</ele>
        <time>2022-04-16T09:19:16.540Z</time>
      </trkpt>
      <trkpt lat="45.67173" lon="5.57567">
        <ele>220</ele>
        <time>2022-04-16T09:19:17.541Z</time>
      </trkpt>
      <trkpt lat="45.67171" lon="5.57565">
        <ele>220</ele>
        <time>2022-04-16T09:19:18.541Z</time>
      </trkpt>
      <trkpt lat="45.67168" lon="5.57564">
        <ele>220</ele>
        <time>2022-04-16T09:19:19.541Z</time>
      </trkpt>
      <trkpt lat="45.67167" lon="5.57562">
        <ele>219</ele>
        <time>2022-04-16T09:19:20.541Z</time>
      </trkpt>
      <trkpt lat="45.67164" lon="5.57561">
        <ele>219</ele>
        <time>2022-04-16T09:19:21.540Z</time>
      </trkpt>
      <trkpt lat="45.67162" lon="5.57559">
        <ele>218</ele>
        <time>2022-04-16T09:19:22.540Z</time>
      </trkpt>
      <trkpt lat="45.67159" lon="5.57558">
        <ele>218</ele>
        <time>2022-04-16T09:19:23.540Z</time>
      </trkpt>
      <trkpt lat="45.67155" lon="5.57556">
        <ele>219</ele>
        <time>2022-04-16T09:19:24.540Z</time>
      </trkpt>
      <trkpt lat="45.67152" lon="5.57553">
        <ele>219</ele>
        <time>2022-04-16T09:19:25.541Z</time>
      </trkpt>
      <trkpt lat="45.67148" lon="5.57551">
        <ele>219</ele>
        <time>2022-04-16T09:19:26.541Z</time>
      </trkpt>
      <trkpt lat="45.67144" lon="5.57549">
        <ele>219</ele>
        <time>2022-04-16T09:19:27.540Z</time>
      </trkpt>
      <trkpt lat="45.6714" lon="5.57546">
        <ele>219</ele>
        <time>2022-04-16T09:19:28.541Z</time>
      </trkpt>
      <trkpt lat="45.67136" lon="5.57543">
        <ele>219</ele>
        <time>2022-04-16T09:19:29.540Z</time>
      </trkpt>
      <trkpt lat="45.67131" lon="5.5754">
        <ele>219</ele>
        <time>2022-04-16T09:19:30.541Z</time>
      </trkpt>
      <trkpt lat="45.67126" lon="5.57537">
        <ele>219</ele>
        <time>2022-04-16T09:19:31.540Z</time>
      </trkpt>
      <trkpt lat="45.67121" lon="5.57533">
        <ele>219</ele>
        <time>2022-04-16T09:19:32.541Z</time>
      </trkpt>
      <trkpt lat="45.67116" lon="5.5753">
        <ele>219</ele>
        <time>2022-04-16T09:19:33.541Z</time>
      </trkpt>
      <trkpt lat="45.67111" lon="5.57527">
        <ele>219</ele>
        <time>2022-04-16T09:19:34.540Z</time>
      </trkpt>
      <trkpt lat="45.67106" lon="5.57524">
        <ele>219</ele>
        <time>2022-04-16T09:19:35.540Z</time>
      </trkpt>
      <trkpt lat="45.67101" lon="5.57521">
        <ele>219</ele>
        <time>2022-04-16T09:19:36.541Z</time>
      </trkpt>
      <trkpt lat="45.67096" lon="5.57518">
        <ele>219</ele>
        <time>2022-04-16T09:19:37.540Z</time>
      </trkpt>
      <trkpt lat="45.67091" lon="5.57515">
        <ele>219</ele>
        <time>2022-04-16T09:19:38.541Z</time>
      </trkpt>
      <trkpt lat="45.67086" lon="5.57512">
        <ele>219</ele>
        <time>2022-04-16T09:19:39.540Z</time>
      </trkpt>
      <trkpt lat="45.67081" lon="5.57509">
        <ele>219</ele>
        <time>2022-04-16T09:19:40.541Z</time>
      </trkpt>
      <trkpt lat="45.67077" lon="5.57506">
        <ele>218</ele>
        <time>2022-04-16T09:19:41.541Z</time>
      </trkpt>
      <trkpt lat="45.67072" lon="5.57503">
        <ele>218</ele>
        <time>2022-04-16T09:19:42.540Z</time>
      </trkpt>
      <trkpt lat="45.67067" lon="5.575">
        <ele>218</ele>
        <time>2022-04-16T09:19:43.540Z</time>
      </trkpt>
      <trkpt lat="45.67061" lon="5.57497">
        <ele>218</ele>
        <time>2022-04-16T09:19:44.541Z</time>
      </trkpt>
      <trkpt lat="45.67056" lon="5.57493">
        <ele>218</ele>
        <time>2022-04-16T09:19:45.540Z</time>
      </trkpt>
      <trkpt lat="45.67051" lon="5.57489">
        <ele>218</ele>
        <time>2022-04-16T09:19:46.541Z</time>
      </trkpt>
      <trkpt lat="45.67046" lon="5.57486">
        <ele>217</ele>
        <time>2022-04-16T09:19:47.541Z</time>
      </trkpt>
      <trkpt lat="45.67041" lon="5.57482">
        <ele>217</ele>
        <time>2022-04-16T09:19:48.541Z</time>
      </trkpt>
      <trkpt lat="45.67036" lon="5.57479">
        <ele>217</ele>
        <time>2022-04-16T09:19:49.541Z</time>
      </trkpt>
      <trkpt lat="45.6703" lon="5.57476">
        <ele>217</ele>
        <time>2022-04-16T09:19:50.541Z</time>
      </trkpt>
      <trkpt lat="45.67025" lon="5.57472">
        <ele>217</ele>
        <time>2022-04-16T09:19:51.541Z</time>
      </trkpt>
      <trkpt lat="45.6702" lon="5.57468">
        <ele>216</ele>
        <time>2022-04-16T09:19:52.540Z</time>
      </trkpt>
      <trkpt lat="45.67014" lon="5.57465">
        <ele>216</ele>
        <time>2022-04-16T09:19:53.541Z</time>
      </trkpt>
      <trkpt lat="45.67008" lon="5.57461">
        <ele>216</ele>
        <time>2022-04-16T09:19:54.541Z</time>
      </trkpt>
      <trkpt lat="45.67003" lon="5.57458">
        <ele>216</ele>
        <time>2022-04-16T09:19:55.541Z</time>
      </trkpt>
      <trkpt lat="45.66997" lon="5.57455">
        <ele>216</ele>
        <time>2022-04-16T09:19:56.541Z</time>
      </trkpt>
      <trkpt lat="45.66992" lon="5.57451">
        <ele>217</ele>
        <time>2022-04-16T09:19:57.540Z</time>
      </trkpt>
      <trkpt lat="45.66986" lon="5.57448">
        <ele>217</ele>
        <time>2022-04-16T09:19:58.541Z</time>
      </trkpt>
      <trkpt lat="45.66981" lon="5.57444">
        <ele>218</ele>
        <time>2022-04-16T09:19:59.541Z</time>
      </trkpt>
      <trkpt lat="45.66975" lon="5.5744">
        <ele>218</ele>
        <time>2022-04-16T09:20:00.541Z</time>
      </trkpt>
      <trkpt lat="45.6697" lon="5.57437">
        <ele>218</ele>
        <time>2022-04-16T09:20:01.540Z</time>
      </trkpt>
      <trkpt lat="45.66964" lon="5.57433">
        <ele>218</ele>
        <time>2022-04-16T09:20:02.541Z</time>
      </trkpt>
      <trkpt lat="45.66959" lon="5.5743">
        <ele>218</ele>
        <time>2022-04-16T09:20:03.541Z</time>
      </trkpt>
      <trkpt lat="45.66953" lon="5.57427">
        <ele>218</ele>
        <time>2022-04-16T09:20:04.541Z</time>
      </trkpt>
      <trkpt lat="45.66948" lon="5.57424">
        <ele>219</ele>
        <time>2022-04-16T09:20:05.540Z</time>
      </trkpt>
      <trkpt lat="45.66942" lon="5.5742">
        <ele>219</ele>
        <time>2022-04-16T09:20:06.541Z</time>
      </trkpt>
      <trkpt lat="45.66937" lon="5.57417">
        <ele>219</ele>
        <time>2022-04-16T09:20:07.541Z</time>
      </trkpt>
      <trkpt lat="45.66932" lon="5.57413">
        <ele>219</ele>
        <time>2022-04-16T09:20:08.541Z</time>
      </trkpt>
      <trkpt lat="45.66927" lon="5.5741">
        <ele>219</ele>
        <time>2022-04-16T09:20:09.541Z</time>
      </trkpt>
      <trkpt lat="45.66922" lon="5.57406">
        <ele>218</ele>
        <time>2022-04-16T09:20:10.541Z</time>
      </trkpt>
      <trkpt lat="45.66917" lon="5.57403">
        <ele>218</ele>
        <time>2022-04-16T09:20:11.540Z</time>
      </trkpt>
      <trkpt lat="45.66911" lon="5.574">
        <ele>218</ele>
        <time>2022-04-16T09:20:12.540Z</time>
      </trkpt>
      <trkpt lat="45.66906" lon="5.57397">
        <ele>217</ele>
        <time>2022-04-16T09:20:13.541Z</time>
      </trkpt>
      <trkpt lat="45.66901" lon="5.57393">
        <ele>217</ele>
        <time>2022-04-16T09:20:14.541Z</time>
      </trkpt>
      <trkpt lat="45.66896" lon="5.5739">
        <ele>217</ele>
        <time>2022-04-16T09:20:15.540Z</time>
      </trkpt>
      <trkpt lat="45.6689" lon="5.57386">
        <ele>217</ele>
        <time>2022-04-16T09:20:16.540Z</time>
      </trkpt>
      <trkpt lat="45.66885" lon="5.57383">
        <ele>217</ele>
        <time>2022-04-16T09:20:17.540Z</time>
      </trkpt>
      <trkpt lat="45.6688" lon="5.5738">
        <ele>216</ele>
        <time>2022-04-16T09:20:18.541Z</time>
      </trkpt>
      <trkpt lat="45.66874" lon="5.57376">
        <ele>216</ele>
        <time>2022-04-16T09:20:19.541Z</time>
      </trkpt>
      <trkpt lat="45.66868" lon="5.57372">
        <ele>216</ele>
        <time>2022-04-16T09:20:20.541Z</time>
      </trkpt>
      <trkpt lat="45.66863" lon="5.57368">
        <ele>216</ele>
        <time>2022-04-16T09:20:21.541Z</time>
      </trkpt>
      <trkpt lat="45.66857" lon="5.57365">
        <ele>215</ele>
        <time>2022-04-16T09:20:22.541Z</time>
      </trkpt>
      <trkpt lat="45.66851" lon="5.57361">
        <ele>215</ele>
        <time>2022-04-16T09:20:23.541Z</time>
      </trkpt>
      <trkpt lat="45.66845" lon="5.57357">
        <ele>215</ele>
        <time>2022-04-16T09:20:24.540Z</time>
      </trkpt>
      <trkpt lat="45.66839" lon="5.57354">
        <ele>215</ele>
        <time>2022-04-16T09:20:25.541Z</time>
      </trkpt>
      <trkpt lat="45.66834" lon="5.5735">
        <ele>215</ele>
        <time>2022-04-16T09:20:26.540Z</time>
      </trkpt>
      <trkpt lat="45.66828" lon="5.57347">
        <ele>215</ele>
        <time>2022-04-16T09:20:27.540Z</time>
      </trkpt>
      <trkpt lat="45.66822" lon="5.57344">
        <ele>215</ele>
        <time>2022-04-16T09:20:28.540Z</time>
      </trkpt>
      <trkpt lat="45.66816" lon="5.5734">
        <ele>215</ele>
        <time>2022-04-16T09:20:29.541Z</time>
      </trkpt>
      <trkpt lat="45.6681" lon="5.57337">
        <ele>215</ele>
        <time>2022-04-16T09:20:30.541Z</time>
      </trkpt>
      <trkpt lat="45.66804" lon="5.57333">
        <ele>215</ele>
        <time>2022-04-16T09:20:31.540Z</time>
      </trkpt>
      <trkpt lat="45.66798" lon="5.5733">
        <ele>214</ele>
        <time>2022-04-16T09:20:32.541Z</time>
      </trkpt>
      <trkpt lat="45.66792" lon="5.57326">
        <ele>215</ele>
        <time>2022-04-16T09:20:33.540Z</time>
      </trkpt>
      <trkpt lat="45.66786" lon="5.57323">
        <ele>215</ele>
        <time>2022-04-16T09:20:34.541Z</time>
      </trkpt>
      <trkpt lat="45.6678" lon="5.5732">
        <ele>215</ele>
        <time>2022-04-16T09:20:35.541Z</time>
      </trkpt>
      <trkpt lat="45.66774" lon="5.57317">
        <ele>214</ele>
        <time>2022-04-16T09:20:36.540Z</time>
      </trkpt>
      <trkpt lat="45.66768" lon="5.57314">
        <ele>214</ele>
        <time>2022-04-16T09:20:37.541Z</time>
      </trkpt>
      <trkpt lat="45.66762" lon="5.57311">
        <ele>213</ele>
        <time>2022-04-16T09:20:38.540Z</time>
      </trkpt>
      <trkpt lat="45.66756" lon="5.57307">
        <ele>213</ele>
        <time>2022-04-16T09:20:39.541Z</time>
      </trkpt>
      <trkpt lat="45.6675" lon="5.57303">
        <ele>213</ele>
        <time>2022-04-16T09:20:40.541Z</time>
      </trkpt>
      <trkpt lat="45.66745" lon="5.57299">
        <ele>212</ele>
        <time>2022-04-16T09:20:41.541Z</time>
      </trkpt>
      <trkpt lat="45.66739" lon="5.57296">
        <ele>212</ele>
        <time>2022-04-16T09:20:42.541Z</time>
      </trkpt>
      <trkpt lat="45.66733" lon="5.57293">
        <ele>212</ele>
        <time>2022-04-16T09:20:43.541Z</time>
      </trkpt>
      <trkpt lat="45.66727" lon="5.57289">
        <ele>212</ele>
        <time>2022-04-16T09:20:44.540Z</time>
      </trkpt>
      <trkpt lat="45.66721" lon="5.57284">
        <ele>212</ele>
        <time>2022-04-16T09:20:45.541Z</time>
      </trkpt>
      <trkpt lat="45.66715" lon="5.5728">
        <ele>211</ele>
        <time>2022-04-16T09:20:46.541Z</time>
      </trkpt>
      <trkpt lat="45.6671" lon="5.57277">
        <ele>211</ele>
        <time>2022-04-16T09:20:47.541Z</time>
      </trkpt>
      <trkpt lat="45.66704" lon="5.57273">
        <ele>211</ele>
        <time>2022-04-16T09:20:48.541Z</time>
      </trkpt>
      <trkpt lat="45.66698" lon="5.5727">
        <ele>211</ele>
        <time>2022-04-16T09:20:49.541Z</time>
      </trkpt>
      <trkpt lat="45.66693" lon="5.57266">
        <ele>211</ele>
        <time>2022-04-16T09:20:50.541Z</time>
      </trkpt>
      <trkpt lat="45.66687" lon="5.57263">
        <ele>211</ele>
        <time>2022-04-16T09:20:51.541Z</time>
      </trkpt>
      <trkpt lat="45.66681" lon="5.57259">
        <ele>211</ele>
        <time>2022-04-16T09:20:52.541Z</time>
      </trkpt>
      <trkpt lat="45.66676" lon="5.57256">
        <ele>211</ele>
        <time>2022-04-16T09:20:53.541Z</time>
      </trkpt>
      <trkpt lat="45.6667" lon="5.57253">
        <ele>212</ele>
        <time>2022-04-16T09:20:54.541Z</time>
      </trkpt>
      <trkpt lat="45.66665" lon="5.57249">
        <ele>212</ele>
        <time>2022-04-16T09:20:55.541Z</time>
      </trkpt>
      <trkpt lat="45.66659" lon="5.57246">
        <ele>213</ele>
        <time>2022-04-16T09:20:56.540Z</time>
      </trkpt>
      <trkpt lat="45.66653" lon="5.57243">
        <ele>213</ele>
        <time>2022-04-16T09:20:57.540Z</time>
      </trkpt>
      <trkpt lat="45.66648" lon="5.57239">
        <ele>213</ele>
        <time>2022-04-16T09:20:58.540Z</time>
      </trkpt>
      <trkpt lat="45.66643" lon="5.57236">
        <ele>212</ele>
        <time>2022-04-16T09:20:59.540Z</time>
      </trkpt>
      <trkpt lat="45.66637" lon="5.57233">
        <ele>212</ele>
        <time>2022-04-16T09:21:00.540Z</time>
      </trkpt>
      <trkpt lat="45.66632" lon="5.57229">
        <ele>212</ele>
        <time>2022-04-16T09:21:01.541Z</time>
      </trkpt>
      <trkpt lat="45.66626" lon="5.57226">
        <ele>211</ele>
        <time>2022-04-16T09:21:02.540Z</time>
      </trkpt>
      <trkpt lat="45.66621" lon="5.57223">
        <ele>211</ele>
        <time>2022-04-16T09:21:03.540Z</time>
      </trkpt>
      <trkpt lat="45.66616" lon="5.57219">
        <ele>210</ele>
        <time>2022-04-16T09:21:04.540Z</time>
      </trkpt>
      <trkpt lat="45.6661" lon="5.57215">
        <ele>210</ele>
        <time>2022-04-16T09:21:05.541Z</time>
      </trkpt>
      <trkpt lat="45.66605" lon="5.57211">
        <ele>209</ele>
        <time>2022-04-16T09:21:06.541Z</time>
      </trkpt>
      <trkpt lat="45.666" lon="5.57207">
        <ele>209</ele>
        <time>2022-04-16T09:21:07.541Z</time>
      </trkpt>
      <trkpt lat="45.66595" lon="5.57202">
        <ele>209</ele>
        <time>2022-04-16T09:21:08.541Z</time>
      </trkpt>
      <trkpt lat="45.6659" lon="5.57197">
        <ele>209</ele>
        <time>2022-04-16T09:21:09.541Z</time>
      </trkpt>
      <trkpt lat="45.66584" lon="5.57193">
        <ele>209</ele>
        <time>2022-04-16T09:21:10.540Z</time>
      </trkpt>
      <trkpt lat="45.6658" lon="5.57188">
        <ele>209</ele>
        <time>2022-04-16T09:21:11.541Z</time>
      </trkpt>
      <trkpt lat="45.66575" lon="5.57183">
        <ele>209</ele>
        <time>2022-04-16T09:21:12.540Z</time>
      </trkpt>
      <trkpt lat="45.6657" lon="5.57178">
        <ele>208</ele>
        <time>2022-04-16T09:21:13.541Z</time>
      </trkpt>
      <trkpt lat="45.66565" lon="5.57173">
        <ele>208</ele>
        <time>2022-04-16T09:21:14.541Z</time>
      </trkpt>
      <trkpt lat="45.66561" lon="5.57168">
        <ele>208</ele>
        <time>2022-04-16T09:21:15.541Z</time>
      </trkpt>
      <trkpt lat="45.66557" lon="5.57162">
        <ele>208</ele>
        <time>2022-04-16T09:21:16.541Z</time>
      </trkpt>
      <trkpt lat="45.66552" lon="5.57157">
        <ele>208</ele>
        <time>2022-04-16T09:21:17.541Z</time>
      </trkpt>
      <trkpt lat="45.66548" lon="5.57152">
        <ele>208</ele>
        <time>2022-04-16T09:21:18.541Z</time>
      </trkpt>
      <trkpt lat="45.66543" lon="5.57146">
        <ele>208</ele>
        <time>2022-04-16T09:21:19.541Z</time>
      </trkpt>
      <trkpt lat="45.66539" lon="5.57141">
        <ele>208</ele>
        <time>2022-04-16T09:21:20.541Z</time>
      </trkpt>
      <trkpt lat="45.66535" lon="5.57136">
        <ele>208</ele>
        <time>2022-04-16T09:21:21.541Z</time>
      </trkpt>
      <trkpt lat="45.66531" lon="5.5713">
        <ele>208</ele>
        <time>2022-04-16T09:21:22.541Z</time>
      </trkpt>
      <trkpt lat="45.66527" lon="5.57124">
        <ele>209</ele>
        <time>2022-04-16T09:21:23.541Z</time>
      </trkpt>
      <trkpt lat="45.66523" lon="5.57119">
        <ele>209</ele>
        <time>2022-04-16T09:21:24.540Z</time>
      </trkpt>
      <trkpt lat="45.6652" lon="5.57113">
        <ele>210</ele>
        <time>2022-04-16T09:21:25.541Z</time>
      </trkpt>
      <trkpt lat="45.66516" lon="5.57107">
        <ele>210</ele>
        <time>2022-04-16T09:21:26.541Z</time>
      </trkpt>
      <trkpt lat="45.66512" lon="5.57102">
        <ele>210</ele>
        <time>2022-04-16T09:21:27.541Z</time>
      </trkpt>
      <trkpt lat="45.66508" lon="5.57096">
        <ele>211</ele>
        <time>2022-04-16T09:21:28.541Z</time>
      </trkpt>
      <trkpt lat="45.66505" lon="5.5709">
        <ele>211</ele>
        <time>2022-04-16T09:21:29.540Z</time>
      </trkpt>
      <trkpt lat="45.66502" lon="5.57084">
        <ele>210</ele>
        <time>2022-04-16T09:21:30.540Z</time>
      </trkpt>
      <trkpt lat="45.66498" lon="5.57078">
        <ele>211</ele>
        <time>2022-04-16T09:21:31.540Z</time>
      </trkpt>
      <trkpt lat="45.66495" lon="5.57071">
        <ele>211</ele>
        <time>2022-04-16T09:21:32.540Z</time>
      </trkpt>
      <trkpt lat="45.66491" lon="5.57065">
        <ele>211</ele>
        <time>2022-04-16T09:21:33.541Z</time>
      </trkpt>
      <trkpt lat="45.66488" lon="5.57059">
        <ele>211</ele>
        <time>2022-04-16T09:21:34.541Z</time>
      </trkpt>
      <trkpt lat="45.66484" lon="5.57053">
        <ele>211</ele>
        <time>2022-04-16T09:21:35.540Z</time>
      </trkpt>
      <trkpt lat="45.66481" lon="5.57046">
        <ele>210</ele>
        <time>2022-04-16T09:21:36.540Z</time>
      </trkpt>
      <trkpt lat="45.66478" lon="5.5704">
        <ele>210</ele>
        <time>2022-04-16T09:21:37.541Z</time>
      </trkpt>
      <trkpt lat="45.66474" lon="5.57033">
        <ele>210</ele>
        <time>2022-04-16T09:21:38.541Z</time>
      </trkpt>
      <trkpt lat="45.66471" lon="5.57026">
        <ele>210</ele>
        <time>2022-04-16T09:21:39.540Z</time>
      </trkpt>
      <trkpt lat="45.66469" lon="5.5702">
        <ele>210</ele>
        <time>2022-04-16T09:21:40.541Z</time>
      </trkpt>
      <trkpt lat="45.66466" lon="5.57013">
        <ele>210</ele>
        <time>2022-04-16T09:21:41.540Z</time>
      </trkpt>
      <trkpt lat="45.66463" lon="5.57006">
        <ele>210</ele>
        <time>2022-04-16T09:21:42.541Z</time>
      </trkpt>
      <trkpt lat="45.6646" lon="5.56999">
        <ele>211</ele>
        <time>2022-04-16T09:21:43.541Z</time>
      </trkpt>
      <trkpt lat="45.66458" lon="5.56992">
        <ele>211</ele>
        <time>2022-04-16T09:21:44.541Z</time>
      </trkpt>
      <trkpt lat="45.66456" lon="5.56985">
        <ele>210</ele>
        <time>2022-04-16T09:21:45.540Z</time>
      </trkpt>
      <trkpt lat="45.66453" lon="5.56978">
        <ele>210</ele>
        <time>2022-04-16T09:21:46.540Z</time>
      </trkpt>
      <trkpt lat="45.66451" lon="5.56971">
        <ele>210</ele>
        <time>2022-04-16T09:21:47.541Z</time>
      </trkpt>
      <trkpt lat="45.66449" lon="5.56964">
        <ele>210</ele>
        <time>2022-04-16T09:21:48.541Z</time>
      </trkpt>
      <trkpt lat="45.66447" lon="5.56956">
        <ele>210</ele>
        <time>2022-04-16T09:21:49.541Z</time>
      </trkpt>
      <trkpt lat="45.66445" lon="5.56949">
        <ele>210</ele>
        <time>2022-04-16T09:21:50.541Z</time>
      </trkpt>
      <trkpt lat="45.66443" lon="5.56942">
        <ele>210</ele>
        <time>2022-04-16T09:21:51.541Z</time>
      </trkpt>
      <trkpt lat="45.66441" lon="5.56934">
        <ele>210</ele>
        <time>2022-04-16T09:21:52.541Z</time>
      </trkpt>
      <trkpt lat="45.66439" lon="5.56927">
        <ele>210</ele>
        <time>2022-04-16T09:21:53.541Z</time>
      </trkpt>
      <trkpt lat="45.66437" lon="5.5692">
        <ele>209</ele>
        <time>2022-04-16T09:21:54.541Z</time>
      </trkpt>
      <trkpt lat="45.66435" lon="5.56913">
        <ele>209</ele>
        <time>2022-04-16T09:21:55.540Z</time>
      </trkpt>
      <trkpt lat="45.66433" lon="5.56905">
        <ele>208</ele>
        <time>2022-04-16T09:21:56.540Z</time>
      </trkpt>
      <trkpt lat="45.66432" lon="5.56898">
        <ele>207</ele>
        <time>2022-04-16T09:21:57.541Z</time>
      </trkpt>
      <trkpt lat="45.6643" lon="5.56891">
        <ele>207</ele>
        <time>2022-04-16T09:21:58.540Z</time>
      </trkpt>
      <trkpt lat="45.66429" lon="5.56883">
        <ele>206</ele>
        <time>2022-04-16T09:21:59.541Z</time>
      </trkpt>
      <trkpt lat="45.66428" lon="5.56876">
        <ele>206</ele>
        <time>2022-04-16T09:22:00.540Z</time>
      </trkpt>
      <trkpt lat="45.66426" lon="5.56868">
        <ele>206</ele>
        <time>2022-04-16T09:22:01.541Z</time>
      </trkpt>
      <trkpt lat="45.66425" lon="5.56861">
        <ele>207</ele>
        <time>2022-04-16T09:22:02.541Z</time>
      </trkpt>
      <trkpt lat="45.66424" lon="5.56853">
        <ele>207</ele>
        <time>2022-04-16T09:22:03.540Z</time>
      </trkpt>
      <trkpt lat="45.66422" lon="5.56846">
        <ele>207</ele>
        <time>2022-04-16T09:22:04.541Z</time>
      </trkpt>
      <trkpt lat="45.66421" lon="5.56838">
        <ele>207</ele>
        <time>2022-04-16T09:22:05.540Z</time>
      </trkpt>
      <trkpt lat="45.6642" lon="5.56831">
        <ele>207</ele>
        <time>2022-04-16T09:22:06.541Z</time>
      </trkpt>
      <trkpt lat="45.6642" lon="5.56824">
        <ele>207</ele>
        <time>2022-04-16T09:22:07.541Z</time>
      </trkpt>
      <trkpt lat="45.66419" lon="5.56816">
        <ele>208</ele>
        <time>2022-04-16T09:22:08.541Z</time>
      </trkpt>
      <trkpt lat="45.66418" lon="5.56809">
        <ele>208</ele>
        <time>2022-04-16T09:22:09.541Z</time>
      </trkpt>
      <trkpt lat="45.66418" lon="5.56801">
        <ele>208</ele>
        <time>2022-04-16T09:22:10.541Z</time>
      </trkpt>
      <trkpt lat="45.66417" lon="5.56794">
        <ele>208</ele>
        <time>2022-04-16T09:22:11.541Z</time>
      </trkpt>
      <trkpt lat="45.66417" lon="5.56786">
        <ele>208</ele>
        <time>2022-04-16T09:22:12.540Z</time>
      </trkpt>
      <trkpt lat="45.66417" lon="5.56779">
        <ele>209</ele>
        <time>2022-04-16T09:22:13.540Z</time>
      </trkpt>
      <trkpt lat="45.66416" lon="5.56772">
        <ele>209</ele>
        <time>2022-04-16T09:22:14.540Z</time>
      </trkpt>
      <trkpt lat="45.66416" lon="5.56764">
        <ele>209</ele>
        <time>2022-04-16T09:22:15.541Z</time>
      </trkpt>
      <trkpt lat="45.66416" lon="5.56757">
        <ele>209</ele>
        <time>2022-04-16T09:22:16.541Z</time>
      </trkpt>
      <trkpt lat="45.66416" lon="5.56749">
        <ele>209</ele>
        <time>2022-04-16T09:22:17.540Z</time>
      </trkpt>
      <trkpt lat="45.66416" lon="5.56742">
        <ele>208</ele>
        <time>2022-04-16T09:22:18.541Z</time>
      </trkpt>
      <trkpt lat="45.66416" lon="5.56735">
        <ele>208</ele>
        <time>2022-04-16T09:22:19.540Z</time>
      </trkpt>
      <trkpt lat="45.66416" lon="5.56727">
        <ele>208</ele>
        <time>2022-04-16T09:22:20.540Z</time>
      </trkpt>
      <trkpt lat="45.66416" lon="5.5672">
        <ele>207</ele>
        <time>2022-04-16T09:22:21.540Z</time>
      </trkpt>
      <trkpt lat="45.66416" lon="5.56712">
        <ele>207</ele>
        <time>2022-04-16T09:22:22.540Z</time>
      </trkpt>
      <trkpt lat="45.66417" lon="5.56704">
        <ele>207</ele>
        <time>2022-04-16T09:22:23.540Z</time>
      </trkpt>
      <trkpt lat="45.66417" lon="5.56697">
        <ele>207</ele>
        <time>2022-04-16T09:22:24.540Z</time>
      </trkpt>
      <trkpt lat="45.66418" lon="5.5669">
        <ele>207</ele>
        <time>2022-04-16T09:22:25.541Z</time>
      </trkpt>
      <trkpt lat="45.66418" lon="5.56682">
        <ele>206</ele>
        <time>2022-04-16T09:22:26.541Z</time>
      </trkpt>
      <trkpt lat="45.66419" lon="5.56675">
        <ele>206</ele>
        <time>2022-04-16T09:22:27.541Z</time>
      </trkpt>
      <trkpt lat="45.6642" lon="5.56667">
        <ele>207</ele>
        <time>2022-04-16T09:22:28.541Z</time>
      </trkpt>
      <trkpt lat="45.6642" lon="5.5666">
        <ele>207</ele>
        <time>2022-04-16T09:22:29.540Z</time>
      </trkpt>
      <trkpt lat="45.66421" lon="5.56652">
        <ele>207</ele>
        <time>2022-04-16T09:22:30.541Z</time>
      </trkpt>
      <trkpt lat="45.66422" lon="5.56645">
        <ele>207</ele>
        <time>2022-04-16T09:22:31.540Z</time>
      </trkpt>
      <trkpt lat="45.66423" lon="5.56638">
        <ele>207</ele>
        <time>2022-04-16T09:22:32.541Z</time>
      </trkpt>
      <trkpt lat="45.66425" lon="5.5663">
        <ele>206</ele>
        <time>2022-04-16T09:22:33.540Z</time>
      </trkpt>
      <trkpt lat="45.66426" lon="5.56623">
        <ele>206</ele>
        <time>2022-04-16T09:22:34.541Z</time>
      </trkpt>
      <trkpt lat="45.66427" lon="5.56616">
        <ele>206</ele>
        <time>2022-04-16T09:22:35.541Z</time>
      </trkpt>
      <trkpt lat="45.66428" lon="5.56608">
        <ele>207</ele>
        <time>2022-04-16T09:22:36.541Z</time>
      </trkpt>
      <trkpt lat="45.6643" lon="5.56601">
        <ele>207</ele>
        <time>2022-04-16T09:22:37.541Z</time>
      </trkpt>
      <trkpt lat="45.66431" lon="5.56594">
        <ele>207</ele>
        <time>2022-04-16T09:22:38.541Z</time>
      </trkpt>
      <trkpt lat="45.66433" lon="5.56586">
        <ele>208</ele>
        <time>2022-04-16T09:22:39.541Z</time>
      </trkpt>
      <trkpt lat="45.66434" lon="5.56579">
        <ele>208</ele>
        <time>2022-04-16T09:22:40.541Z</time>
      </trkpt>
      <trkpt lat="45.66436" lon="5.56572">
        <ele>208</ele>
        <time>2022-04-16T09:22:41.540Z</time>
      </trkpt>
      <trkpt lat="45.66437" lon="5.56565">
        <ele>208</ele>
        <time>2022-04-16T09:22:42.541Z</time>
      </trkpt>
      <trkpt lat="45.66439" lon="5.56558">
        <ele>208</ele>
        <time>2022-04-16T09:22:43.540Z</time>
      </trkpt>
      <trkpt lat="45.6644" lon="5.56551">
        <ele>209</ele>
        <time>2022-04-16T09:22:44.541Z</time>
      </trkpt>
      <trkpt lat="45.66441" lon="5.56544">
        <ele>209</ele>
        <time>2022-04-16T09:22:45.540Z</time>
      </trkpt>
      <trkpt lat="45.66443" lon="5.56537">
        <ele>210</ele>
        <time>2022-04-16T09:22:46.541Z</time>
      </trkpt>
      <trkpt lat="45.66444" lon="5.5653">
        <ele>210</ele>
        <time>2022-04-16T09:22:47.541Z</time>
      </trkpt>
      <trkpt lat="45.66445" lon="5.56523">
        <ele>210</ele>
        <time>2022-04-16T09:22:48.540Z</time>
      </trkpt>
      <trkpt lat="45.66447" lon="5.56516">
        <ele>210</ele>
        <time>2022-04-16T09:22:49.540Z</time>
      </trkpt>
      <trkpt lat="45.66448" lon="5.56509">
        <ele>210</ele>
        <time>2022-04-16T09:22:50.541Z</time>
      </trkpt>
      <trkpt lat="45.6645" lon="5.56503">
        <ele>210</ele>
        <time>2022-04-16T09:22:51.541Z</time>
      </trkpt>
      <trkpt lat="45.66451" lon="5.56496">
        <ele>210</ele>
        <time>2022-04-16T09:22:52.540Z</time>
      </trkpt>
      <trkpt lat="45.66453" lon="5.56489">
        <ele>210</ele>
        <time>2022-04-16T09:22:53.541Z</time>
      </trkpt>
      <trkpt lat="45.66454" lon="5.56483">
        <ele>210</ele>
        <time>2022-04-16T09:22:54.541Z</time>
      </trkpt>
      <trkpt lat="45.66455" lon="5.56476">
        <ele>210</ele>
        <time>2022-04-16T09:22:55.540Z</time>
      </trkpt>
      <trkpt lat="45.66457" lon="5.56469">
        <ele>210</ele>
        <time>2022-04-16T09:22:56.541Z</time>
      </trkpt>
      <trkpt lat="45.66458" lon="5.56463">
        <ele>210</ele>
        <time>2022-04-16T09:22:57.540Z</time>
      </trkpt>
      <trkpt lat="45.66459" lon="5.56456">
        <ele>210</ele>
        <time>2022-04-16T09:22:58.540Z</time>
      </trkpt>
      <trkpt lat="45.66461" lon="5.56449">
        <ele>210</ele>
        <time>2022-04-16T09:22:59.540Z</time>
      </trkpt>
      <trkpt lat="45.66462" lon="5.56443">
        <ele>210</ele>
        <time>2022-04-16T09:23:00.541Z</time>
      </trkpt>
      <trkpt lat="45.66464" lon="5.56436">
        <ele>210</ele>
        <time>2022-04-16T09:23:01.541Z</time>
      </trkpt>
      <trkpt lat="45.66465" lon="5.56429">
        <ele>210</ele>
        <time>2022-04-16T09:23:02.540Z</time>
      </trkpt>
      <trkpt lat="45.66466" lon="5.56422">
        <ele>210</ele>
        <time>2022-04-16T09:23:03.541Z</time>
      </trkpt>
      <trkpt lat="45.66468" lon="5.56416">
        <ele>210</ele>
        <time>2022-04-16T09:23:04.541Z</time>
      </trkpt>
      <trkpt lat="45.66469" lon="5.56409">
        <ele>210</ele>
        <time>2022-04-16T09:23:05.541Z</time>
      </trkpt>
      <trkpt lat="45.6647" lon="5.56403">
        <ele>211</ele>
        <time>2022-04-16T09:23:06.541Z</time>
      </trkpt>
      <trkpt lat="45.66472" lon="5.56396">
        <ele>211</ele>
        <time>2022-04-16T09:23:07.541Z</time>
      </trkpt>
      <trkpt lat="45.66473" lon="5.56389">
        <ele>211</ele>
        <time>2022-04-16T09:23:08.540Z</time>
      </trkpt>
      <trkpt lat="45.66474" lon="5.56383">
        <ele>211</ele>
        <time>2022-04-16T09:23:09.541Z</time>
      </trkpt>
      <trkpt lat="45.66475" lon="5.56376">
        <ele>211</ele>
        <time>2022-04-16T09:23:10.541Z</time>
      </trkpt>
      <trkpt lat="45.66477" lon="5.56369">
        <ele>211</ele>
        <time>2022-04-16T09:23:11.540Z</time>
      </trkpt>
      <trkpt lat="45.66478" lon="5.56362">
        <ele>212</ele>
        <time>2022-04-16T09:23:12.541Z</time>
      </trkpt>
      <trkpt lat="45.66479" lon="5.56355">
        <ele>212</ele>
        <time>2022-04-16T09:23:13.541Z</time>
      </trkpt>
      <trkpt lat="45.66481" lon="5.56348">
        <ele>212</ele>
        <time>2022-04-16T09:23:14.540Z</time>
      </trkpt>
      <trkpt lat="45.66482" lon="5.56341">
        <ele>212</ele>
        <time>2022-04-16T09:23:15.541Z</time>
      </trkpt>
      <trkpt lat="45.66483" lon="5.56334">
        <ele>212</ele>
        <time>2022-04-16T09:23:16.541Z</time>
      </trkpt>
      <trkpt lat="45.66485" lon="5.56327">
        <ele>212</ele>
        <time>2022-04-16T09:23:17.540Z</time>
      </trkpt>
      <trkpt lat="45.66486" lon="5.5632">
        <ele>212</ele>
        <time>2022-04-16T09:23:18.541Z</time>
      </trkpt>
      <trkpt lat="45.66488" lon="5.56313">
        <ele>212</ele>
        <time>2022-04-16T09:23:19.541Z</time>
      </trkpt>
      <trkpt lat="45.66489" lon="5.56306">
        <ele>212</ele>
        <time>2022-04-16T09:23:20.541Z</time>
      </trkpt>
      <trkpt lat="45.66491" lon="5.56298">
        <ele>212</ele>
        <time>2022-04-16T09:23:21.541Z</time>
      </trkpt>
      <trkpt lat="45.66492" lon="5.56291">
        <ele>212</ele>
        <time>2022-04-16T09:23:22.541Z</time>
      </trkpt>
      <trkpt lat="45.66493" lon="5.56284">
        <ele>212</ele>
        <time>2022-04-16T09:23:23.540Z</time>
      </trkpt>
      <trkpt lat="45.66495" lon="5.56277">
        <ele>212</ele>
        <time>2022-04-16T09:23:24.541Z</time>
      </trkpt>
      <trkpt lat="45.66497" lon="5.5627">
        <ele>211</ele>
        <time>2022-04-16T09:23:25.541Z</time>
      </trkpt>
      <trkpt lat="45.66498" lon="5.56263">
        <ele>211</ele>
        <time>2022-04-16T09:23:26.541Z</time>
      </trkpt>
      <trkpt lat="45.665" lon="5.56256">
        <ele>211</ele>
        <time>2022-04-16T09:23:27.540Z</time>
      </trkpt>
      <trkpt lat="45.66501" lon="5.56249">
        <ele>210</ele>
        <time>2022-04-16T09:23:28.540Z</time>
      </trkpt>
      <trkpt lat="45.66502" lon="5.56242">
        <ele>210</ele>
        <time>2022-04-16T09:23:29.541Z</time>
      </trkpt>
      <trkpt lat="45.66504" lon="5.56235">
        <ele>210</ele>
        <time>2022-04-16T09:23:30.540Z</time>
      </trkpt>
      <trkpt lat="45.66505" lon="5.56228">
        <ele>209</ele>
        <time>2022-04-16T09:23:31.540Z</time>
      </trkpt>
      <trkpt lat="45.66507" lon="5.5622">
        <ele>209</ele>
        <time>2022-04-16T09:23:32.541Z</time>
      </trkpt>
      <trkpt lat="45.66508" lon="5.56213">
        <ele>209</ele>
        <time>2022-04-16T09:23:33.541Z</time>
      </trkpt>
      <trkpt lat="45.6651" lon="5.56206">
        <ele>209</ele>
        <time>2022-04-16T09:23:34.540Z</time>
      </trkpt>
      <trkpt lat="45.66511" lon="5.56198">
        <ele>209</ele>
        <time>2022-04-16T09:23:35.540Z</time>
      </trkpt>
      <trkpt lat="45.66513" lon="5.56191">
        <ele>209</ele>
        <time>2022-04-16T09:23:36.541Z</time>
      </trkpt>
      <trkpt lat="45.66514" lon="5.56184">
        <ele>209</ele>
        <time>2022-04-16T09:23:37.541Z</time>
      </trkpt>
      <trkpt lat="45.66516" lon="5.56176">
        <ele>209</ele>
        <time>2022-04-16T09:23:38.541Z</time>
      </trkpt>
      <trkpt lat="45.66517" lon="5.56169">
        <ele>209</ele>
        <time>2022-04-16T09:23:39.541Z</time>
      </trkpt>
      <trkpt lat="45.66519" lon="5.56162">
        <ele>209</ele>
        <time>2022-04-16T09:23:40.540Z</time>
      </trkpt>
      <trkpt lat="45.6652" lon="5.56154">
        <ele>209</ele>
        <time>2022-04-16T09:23:41.541Z</time>
      </trkpt>
      <trkpt lat="45.66522" lon="5.56147">
        <ele>210</ele>
        <time>2022-04-16T09:23:42.541Z</time>
      </trkpt>
      <trkpt lat="45.66523" lon="5.56139">
        <ele>210</ele>
        <time>2022-04-16T09:23:43.540Z</time>
      </trkpt>
      <trkpt lat="45.66525" lon="5.56132">
        <ele>210</ele>
        <time>2022-04-16T09:23:44.541Z</time>
      </trkpt>
      <trkpt lat="45.66526" lon="5.56124">
        <ele>210</ele>
        <time>2022-04-16T09:23:45.541Z</time>
      </trkpt>
      <trkpt lat="45.66528" lon="5.56117">
        <ele>210</ele>
        <time>2022-04-16T09:23:46.540Z</time>
      </trkpt>
      <trkpt lat="45.66529" lon="5.5611">
        <ele>210</ele>
        <time>2022-04-16T09:23:47.540Z</time>
      </trkpt>
      <trkpt lat="45.66531" lon="5.56102">
        <ele>209</ele>
        <time>2022-04-16T09:23:48.541Z</time>
      </trkpt>
      <trkpt lat="45.66533" lon="5.56095">
        <ele>209</ele>
        <time>2022-04-16T09:23:49.540Z</time>
      </trkpt>
      <trkpt lat="45.66534" lon="5.56087">
        <ele>208</ele>
        <time>2022-04-16T09:23:50.540Z</time>
      </trkpt>
      <trkpt lat="45.66536" lon="5.5608">
        <ele>208</ele>
        <time>2022-04-16T09:23:51.540Z</time>
      </trkpt>
      <trkpt lat="45.66537" lon="5.56072">
        <ele>209</ele>
        <time>2022-04-16T09:23:52.541Z</time>
      </trkpt>
      <trkpt lat="45.66538" lon="5.56065">
        <ele>210</ele>
        <time>2022-04-16T09:23:53.540Z</time>
      </trkpt>
      <trkpt lat="45.6654" lon="5.56057">
        <ele>211</ele>
        <time>2022-04-16T09:23:54.541Z</time>
      </trkpt>
      <trkpt lat="45.66541" lon="5.5605">
        <ele>211</ele>
        <time>2022-04-16T09:23:55.541Z</time>
      </trkpt>
      <trkpt lat="45.66543" lon="5.56042">
        <ele>211</ele>
        <time>2022-04-16T09:23:56.541Z</time>
      </trkpt>
      <trkpt lat="45.66544" lon="5.56035">
        <ele>212</ele>
        <time>2022-04-16T09:23:57.540Z</time>
      </trkpt>
      <trkpt lat="45.66545" lon="5.56028">
        <ele>212</ele>
        <time>2022-04-16T09:23:58.541Z</time>
      </trkpt>
      <trkpt lat="45.66547" lon="5.56021">
        <ele>212</ele>
        <time>2022-04-16T09:23:59.541Z</time>
      </trkpt>
      <trkpt lat="45.66548" lon="5.56014">
        <ele>212</ele>
        <time>2022-04-16T09:24:00.540Z</time>
      </trkpt>
      <trkpt lat="45.6655" lon="5.56007">
        <ele>212</ele>
        <time>2022-04-16T09:24:01.540Z</time>
      </trkpt>
      <trkpt lat="45.66551" lon="5.56">
        <ele>212</ele>
        <time>2022-04-16T09:24:02.540Z</time>
      </trkpt>
      <trkpt lat="45.66553" lon="5.55993">
        <ele>213</ele>
        <time>2022-04-16T09:24:03.541Z</time>
      </trkpt>
      <trkpt lat="45.66554" lon="5.55986">
        <ele>213</ele>
        <time>2022-04-16T09:24:04.540Z</time>
      </trkpt>
      <trkpt lat="45.66555" lon="5.55978">
        <ele>213</ele>
        <time>2022-04-16T09:24:05.540Z</time>
      </trkpt>
      <trkpt lat="45.66557" lon="5.55971">
        <ele>214</ele>
        <time>2022-04-16T09:24:06.540Z</time>
      </trkpt>
      <trkpt lat="45.66558" lon="5.55964">
        <ele>214</ele>
        <time>2022-04-16T09:24:07.540Z</time>
      </trkpt>
      <trkpt lat="45.6656" lon="5.55957">
        <ele>214</ele>
        <time>2022-04-16T09:24:08.540Z</time>
      </trkpt>
      <trkpt lat="45.66561" lon="5.55949">
        <ele>214</ele>
        <time>2022-04-16T09:24:09.540Z</time>
      </trkpt>
      <trkpt lat="45.66563" lon="5.55942">
        <ele>214</ele>
        <time>2022-04-16T09:24:10.541Z</time>
      </trkpt>
      <trkpt lat="45.66564" lon="5.55935">
        <ele>214</ele>
        <time>2022-04-16T09:24:11.540Z</time>
      </trkpt>
      <trkpt lat="45.66566" lon="5.55927">
        <ele>214</ele>
        <time>2022-04-16T09:24:12.540Z</time>
      </trkpt>
      <trkpt lat="45.66567" lon="5.5592">
        <ele>214</ele>
        <time>2022-04-16T09:24:13.540Z</time>
      </trkpt>
      <trkpt lat="45.66569" lon="5.55913">
        <ele>214</ele>
        <time>2022-04-16T09:24:14.540Z</time>
      </trkpt>
      <trkpt lat="45.6657" lon="5.55905">
        <ele>213</ele>
        <time>2022-04-16T09:24:15.540Z</time>
      </trkpt>
      <trkpt lat="45.66572" lon="5.55898">
        <ele>213</ele>
        <time>2022-04-16T09:24:16.541Z</time>
      </trkpt>
      <trkpt lat="45.66573" lon="5.55891">
        <ele>213</ele>
        <time>2022-04-16T09:24:17.540Z</time>
      </trkpt>
      <trkpt lat="45.66575" lon="5.55884">
        <ele>213</ele>
        <time>2022-04-16T09:24:18.540Z</time>
      </trkpt>
      <trkpt lat="45.66576" lon="5.55877">
        <ele>213</ele>
        <time>2022-04-16T09:24:19.541Z</time>
      </trkpt>
      <trkpt lat="45.66578" lon="5.5587">
        <ele>213</ele>
        <time>2022-04-16T09:24:20.540Z</time>
      </trkpt>
      <trkpt lat="45.66579" lon="5.55862">
        <ele>213</ele>
        <time>2022-04-16T09:24:21.541Z</time>
      </trkpt>
      <trkpt lat="45.6658" lon="5.55855">
        <ele>213</ele>
        <time>2022-04-16T09:24:22.540Z</time>
      </trkpt>
      <trkpt lat="45.66582" lon="5.55848">
        <ele>212</ele>
        <time>2022-04-16T09:24:23.540Z</time>
      </trkpt>
      <trkpt lat="45.66583" lon="5.55841">
        <ele>212</ele>
        <time>2022-04-16T09:24:24.541Z</time>
      </trkpt>
      <trkpt lat="45.66585" lon="5.55834">
        <ele>212</ele>
        <time>2022-04-16T09:24:25.541Z</time>
      </trkpt>
      <trkpt lat="45.66586" lon="5.55827">
        <ele>211</ele>
        <time>2022-04-16T09:24:26.541Z</time>
      </trkpt>
      <trkpt lat="45.66587" lon="5.5582">
        <ele>211</ele>
        <time>2022-04-16T09:24:27.541Z</time>
      </trkpt>
      <trkpt lat="45.66589" lon="5.55813">
        <ele>211</ele>
        <time>2022-04-16T09:24:28.541Z</time>
      </trkpt>
      <trkpt lat="45.6659" lon="5.55806">
        <ele>211</ele>
        <time>2022-04-16T09:24:29.540Z</time>
      </trkpt>
      <trkpt lat="45.66592" lon="5.55799">
        <ele>211</ele>
        <time>2022-04-16T09:24:30.540Z</time>
      </trkpt>
      <trkpt lat="45.66593" lon="5.55792">
        <ele>212</ele>
        <time>2022-04-16T09:24:31.541Z</time>
      </trkpt>
      <trkpt lat="45.66595" lon="5.55785">
        <ele>212</ele>
        <time>2022-04-16T09:24:32.540Z</time>
      </trkpt>
      <trkpt lat="45.66596" lon="5.55777">
        <ele>212</ele>
        <time>2022-04-16T09:24:33.540Z</time>
      </trkpt>
      <trkpt lat="45.66597" lon="5.5577">
        <ele>212</ele>
        <time>2022-04-16T09:24:34.540Z</time>
      </trkpt>
      <trkpt lat="45.66599" lon="5.55763">
        <ele>213</ele>
        <time>2022-04-16T09:24:35.540Z</time>
      </trkpt>
      <trkpt lat="45.666" lon="5.55756">
        <ele>213</ele>
        <time>2022-04-16T09:24:36.540Z</time>
      </trkpt>
      <trkpt lat="45.66601" lon="5.55749">
        <ele>214</ele>
        <time>2022-04-16T09:24:37.540Z</time>
      </trkpt>
      <trkpt lat="45.66603" lon="5.55741">
        <ele>214</ele>
        <time>2022-04-16T09:24:38.541Z</time>
      </trkpt>
      <trkpt lat="45.66604" lon="5.55734">
        <ele>214</ele>
        <time>2022-04-16T09:24:39.541Z</time>
      </trkpt>
      <trkpt lat="45.66605" lon="5.55727">
        <ele>214</ele>
        <time>2022-04-16T09:24:40.540Z</time>
      </trkpt>
      <trkpt lat="45.66607" lon="5.55719">
        <ele>214</ele>
        <time>2022-04-16T09:24:41.540Z</time>
      </trkpt>
      <trkpt lat="45.66608" lon="5.55712">
        <ele>214</ele>
        <time>2022-04-16T09:24:42.540Z</time>
      </trkpt>
      <trkpt lat="45.6661" lon="5.55704">
        <ele>213</ele>
        <time>2022-04-16T09:24:43.540Z</time>
      </trkpt>
      <trkpt lat="45.66611" lon="5.55697">
        <ele>213</ele>
        <time>2022-04-16T09:24:44.540Z</time>
      </trkpt>
      <trkpt lat="45.66613" lon="5.5569">
        <ele>213</ele>
        <time>2022-04-16T09:24:45.540Z</time>
      </trkpt>
      <trkpt lat="45.66614" lon="5.55682">
        <ele>213</ele>
        <time>2022-04-16T09:24:46.540Z</time>
      </trkpt>
      <trkpt lat="45.66616" lon="5.55675">
        <ele>213</ele>
        <time>2022-04-16T09:24:47.540Z</time>
      </trkpt>
      <trkpt lat="45.66617" lon="5.55667">
        <ele>213</ele>
        <time>2022-04-16T09:24:48.540Z</time>
      </trkpt>
      <trkpt lat="45.66619" lon="5.5566">
        <ele>213</ele>
        <time>2022-04-16T09:24:49.540Z</time>
      </trkpt>
      <trkpt lat="45.6662" lon="5.55652">
        <ele>213</ele>
        <time>2022-04-16T09:24:50.540Z</time>
      </trkpt>
      <trkpt lat="45.66622" lon="5.55645">
        <ele>213</ele>
        <time>2022-04-16T09:24:51.541Z</time>
      </trkpt>
      <trkpt lat="45.66623" lon="5.55637">
        <ele>213</ele>
        <time>2022-04-16T09:24:52.540Z</time>
      </trkpt>
      <trkpt lat="45.66625" lon="5.5563">
        <ele>213</ele>
        <time>2022-04-16T09:24:53.540Z</time>
      </trkpt>
      <trkpt lat="45.66626" lon="5.55623">
        <ele>213</ele>
        <time>2022-04-16T09:24:54.541Z</time>
      </trkpt>
      <trkpt lat="45.66628" lon="5.55615">
        <ele>213</ele>
        <time>2022-04-16T09:24:55.540Z</time>
      </trkpt>
      <trkpt lat="45.66629" lon="5.55608">
        <ele>213</ele>
        <time>2022-04-16T09:24:56.541Z</time>
      </trkpt>
      <trkpt lat="45.66631" lon="5.55601">
        <ele>212</ele>
        <time>2022-04-16T09:24:57.540Z</time>
      </trkpt>
      <trkpt lat="45.66632" lon="5.55594">
        <ele>212</ele>
        <time>2022-04-16T09:24:58.541Z</time>
      </trkpt>
      <trkpt lat="45.66634" lon="5.55586">
        <ele>212</ele>
        <time>2022-04-16T09:24:59.541Z</time>
      </trkpt>
      <trkpt lat="45.66635" lon="5.55579">
        <ele>212</ele>
        <time>2022-04-16T09:25:00.541Z</time>
      </trkpt>
      <trkpt lat="45.66637" lon="5.55572">
        <ele>211</ele>
        <time>2022-04-16T09:25:01.541Z</time>
      </trkpt>
      <trkpt lat="45.66639" lon="5.55564">
        <ele>212</ele>
        <time>2022-04-16T09:25:02.541Z</time>
      </trkpt>
      <trkpt lat="45.6664" lon="5.55557">
        <ele>212</ele>
        <time>2022-04-16T09:25:03.541Z</time>
      </trkpt>
      <trkpt lat="45.66641" lon="5.55549">
        <ele>212</ele>
        <time>2022-04-16T09:25:04.540Z</time>
      </trkpt>
      <trkpt lat="45.66643" lon="5.55542">
        <ele>212</ele>
        <time>2022-04-16T09:25:05.540Z</time>
      </trkpt>
      <trkpt lat="45.66644" lon="5.55535">
        <ele>213</ele>
        <time>2022-04-16T09:25:06.541Z</time>
      </trkpt>
      <trkpt lat="45.66645" lon="5.55528">
        <ele>213</ele>
        <time>2022-04-16T09:25:07.540Z</time>
      </trkpt>
      <trkpt lat="45.66647" lon="5.55521">
        <ele>212</ele>
        <time>2022-04-16T09:25:08.541Z</time>
      </trkpt>
      <trkpt lat="45.66648" lon="5.55514">
        <ele>212</ele>
        <time>2022-04-16T09:25:09.540Z</time>
      </trkpt>
      <trkpt lat="45.6665" lon="5.55507">
        <ele>211</ele>
        <time>2022-04-16T09:25:10.541Z</time>
      </trkpt>
      <trkpt lat="45.66651" lon="5.555">
        <ele>211</ele>
        <time>2022-04-16T09:25:11.541Z</time>
      </trkpt>
      <trkpt lat="45.66652" lon="5.55492">
        <ele>211</ele>
        <time>2022-04-16T09:25:12.541Z</time>
      </trkpt>
      <trkpt lat="45.66654" lon="5.55485">
        <ele>211</ele>
        <time>2022-04-16T09:25:13.540Z</time>
      </trkpt>
      <trkpt lat="45.66655" lon="5.55478">
        <ele>211</ele>
        <time>2022-04-16T09:25:14.540Z</time>
      </trkpt>
      <trkpt lat="45.66657" lon="5.5547">
        <ele>212</ele>
        <time>2022-04-16T09:25:15.540Z</time>
      </trkpt>
      <trkpt lat="45.66658" lon="5.55463">
        <ele>212</ele>
        <time>2022-04-16T09:25:16.541Z</time>
      </trkpt>
      <trkpt lat="45.66659" lon="5.55456">
        <ele>212</ele>
        <time>2022-04-16T09:25:17.540Z</time>
      </trkpt>
      <trkpt lat="45.66661" lon="5.55449">
        <ele>211</ele>
        <time>2022-04-16T09:25:18.540Z</time>
      </trkpt>
      <trkpt lat="45.66663" lon="5.55441">
        <ele>211</ele>
        <time>2022-04-16T09:25:19.541Z</time>
      </trkpt>
      <trkpt lat="45.66664" lon="5.55434">
        <ele>210</ele>
        <time>2022-04-16T09:25:20.541Z</time>
      </trkpt>
      <trkpt lat="45.66666" lon="5.55427">
        <ele>209</ele>
        <time>2022-04-16T09:25:21.541Z</time>
      </trkpt>
      <trkpt lat="45.66667" lon="5.5542">
        <ele>209</ele>
        <time>2022-04-16T09:25:22.541Z</time>
      </trkpt>
      <trkpt lat="45.66669" lon="5.55412">
        <ele>209</ele>
        <time>2022-04-16T09:25:23.541Z</time>
      </trkpt>
      <trkpt lat="45.6667" lon="5.55405">
        <ele>209</ele>
        <time>2022-04-16T09:25:24.541Z</time>
      </trkpt>
      <trkpt lat="45.66672" lon="5.55398">
        <ele>210</ele>
        <time>2022-04-16T09:25:25.540Z</time>
      </trkpt>
      <trkpt lat="45.66673" lon="5.55391">
        <ele>210</ele>
        <time>2022-04-16T09:25:26.541Z</time>
      </trkpt>
      <trkpt lat="45.66675" lon="5.55384">
        <ele>210</ele>
        <time>2022-04-16T09:25:27.540Z</time>
      </trkpt>
      <trkpt lat="45.66677" lon="5.55377">
        <ele>210</ele>
        <time>2022-04-16T09:25:28.541Z</time>
      </trkpt>
      <trkpt lat="45.66678" lon="5.5537">
        <ele>210</ele>
        <time>2022-04-16T09:25:29.540Z</time>
      </trkpt>
      <trkpt lat="45.6668" lon="5.55363">
        <ele>210</ele>
        <time>2022-04-16T09:25:30.541Z</time>
      </trkpt>
      <trkpt lat="45.66681" lon="5.55356">
        <ele>210</ele>
        <time>2022-04-16T09:25:31.541Z</time>
      </trkpt>
      <trkpt lat="45.66683" lon="5.55348">
        <ele>210</ele>
        <time>2022-04-16T09:25:32.541Z</time>
      </trkpt>
      <trkpt lat="45.66684" lon="5.55341">
        <ele>210</ele>
        <time>2022-04-16T09:25:33.541Z</time>
      </trkpt>
      <trkpt lat="45.66685" lon="5.55334">
        <ele>211</ele>
        <time>2022-04-16T09:25:34.541Z</time>
      </trkpt>
      <trkpt lat="45.66687" lon="5.55327">
        <ele>211</ele>
        <time>2022-04-16T09:25:35.541Z</time>
      </trkpt>
      <trkpt lat="45.66688" lon="5.5532">
        <ele>212</ele>
        <time>2022-04-16T09:25:36.541Z</time>
      </trkpt>
      <trkpt lat="45.6669" lon="5.55312">
        <ele>212</ele>
        <time>2022-04-16T09:25:37.541Z</time>
      </trkpt>
      <trkpt lat="45.66691" lon="5.55305">
        <ele>212</ele>
        <time>2022-04-16T09:25:38.540Z</time>
      </trkpt>
      <trkpt lat="45.66692" lon="5.55298">
        <ele>211</ele>
        <time>2022-04-16T09:25:39.540Z</time>
      </trkpt>
      <trkpt lat="45.66694" lon="5.55291">
        <ele>211</ele>
        <time>2022-04-16T09:25:40.541Z</time>
      </trkpt>
      <trkpt lat="45.66695" lon="5.55284">
        <ele>211</ele>
        <time>2022-04-16T09:25:41.540Z</time>
      </trkpt>
      <trkpt lat="45.66696" lon="5.55277">
        <ele>211</ele>
        <time>2022-04-16T09:25:42.541Z</time>
      </trkpt>
      <trkpt lat="45.66698" lon="5.5527">
        <ele>211</ele>
        <time>2022-04-16T09:25:43.540Z</time>
      </trkpt>
      <trkpt lat="45.66699" lon="5.55263">
        <ele>211</ele>
        <time>2022-04-16T09:25:44.541Z</time>
      </trkpt>
      <trkpt lat="45.667" lon="5.55256">
        <ele>211</ele>
        <time>2022-04-16T09:25:45.540Z</time>
      </trkpt>
      <trkpt lat="45.66701" lon="5.55249">
        <ele>211</ele>
        <time>2022-04-16T09:25:46.541Z</time>
      </trkpt>
      <trkpt lat="45.66703" lon="5.55242">
        <ele>211</ele>
        <time>2022-04-16T09:25:47.541Z</time>
      </trkpt>
      <trkpt lat="45.66704" lon="5.55235">
        <ele>210</ele>
        <time>2022-04-16T09:25:48.541Z</time>
      </trkpt>
      <trkpt lat="45.66706" lon="5.55227">
        <ele>210</ele>
        <time>2022-04-16T09:25:49.541Z</time>
      </trkpt>
      <trkpt lat="45.66707" lon="5.5522">
        <ele>210</ele>
        <time>2022-04-16T09:25:50.540Z</time>
      </trkpt>
      <trkpt lat="45.66709" lon="5.55213">
        <ele>210</ele>
        <time>2022-04-16T09:25:51.540Z</time>
      </trkpt>
      <trkpt lat="45.6671" lon="5.55206">
        <ele>211</ele>
        <time>2022-04-16T09:25:52.541Z</time>
      </trkpt>
      <trkpt lat="45.66712" lon="5.55199">
        <ele>210</ele>
        <time>2022-04-16T09:25:53.541Z</time>
      </trkpt>
      <trkpt lat="45.66713" lon="5.55192">
        <ele>211</ele>
        <time>2022-04-16T09:25:54.541Z</time>
      </trkpt>
      <trkpt lat="45.66715" lon="5.55185">
        <ele>211</ele>
        <time>2022-04-16T09:25:55.541Z</time>
      </trkpt>
      <trkpt lat="45.66716" lon="5.55178">
        <ele>211</ele>
        <time>2022-04-16T09:25:56.541Z</time>
      </trkpt>
      <trkpt lat="45.66718" lon="5.55171">
        <ele>211</ele>
        <time>2022-04-16T09:25:57.541Z</time>
      </trkpt>
      <trkpt lat="45.6672" lon="5.55164">
        <ele>211</ele>
        <time>2022-04-16T09:25:58.540Z</time>
      </trkpt>
      <trkpt lat="45.66721" lon="5.55156">
        <ele>211</ele>
        <time>2022-04-16T09:25:59.540Z</time>
      </trkpt>
      <trkpt lat="45.66723" lon="5.55149">
        <ele>210</ele>
        <time>2022-04-16T09:26:00.540Z</time>
      </trkpt>
      <trkpt lat="45.66724" lon="5.55142">
        <ele>211</ele>
        <time>2022-04-16T09:26:01.540Z</time>
      </trkpt>
      <trkpt lat="45.66725" lon="5.55135">
        <ele>211</ele>
        <time>2022-04-16T09:26:02.541Z</time>
      </trkpt>
      <trkpt lat="45.66727" lon="5.55128">
        <ele>211</ele>
        <time>2022-04-16T09:26:03.541Z</time>
      </trkpt>
      <trkpt lat="45.66728" lon="5.55121">
        <ele>212</ele>
        <time>2022-04-16T09:26:04.540Z</time>
      </trkpt>
      <trkpt lat="45.66729" lon="5.55114">
        <ele>213</ele>
        <time>2022-04-16T09:26:05.541Z</time>
      </trkpt>
      <trkpt lat="45.66731" lon="5.55107">
        <ele>213</ele>
        <time>2022-04-16T09:26:06.541Z</time>
      </trkpt>
      <trkpt lat="45.66732" lon="5.551">
        <ele>213</ele>
        <time>2022-04-16T09:26:07.541Z</time>
      </trkpt>
      <trkpt lat="45.66734" lon="5.55093">
        <ele>213</ele>
        <time>2022-04-16T09:26:08.540Z</time>
      </trkpt>
      <trkpt lat="45.66735" lon="5.55086">
        <ele>212</ele>
        <time>2022-04-16T09:26:09.541Z</time>
      </trkpt>
      <trkpt lat="45.66737" lon="5.55079">
        <ele>211</ele>
        <time>2022-04-16T09:26:10.541Z</time>
      </trkpt>
      <trkpt lat="45.66738" lon="5.55072">
        <ele>210</ele>
        <time>2022-04-16T09:26:11.541Z</time>
      </trkpt>
      <trkpt lat="45.66739" lon="5.55065">
        <ele>210</ele>
        <time>2022-04-16T09:26:12.541Z</time>
      </trkpt>
      <trkpt lat="45.66741" lon="5.55058">
        <ele>210</ele>
        <time>2022-04-16T09:26:13.540Z</time>
      </trkpt>
      <trkpt lat="45.66742" lon="5.55052">
        <ele>209</ele>
        <time>2022-04-16T09:26:14.540Z</time>
      </trkpt>
      <trkpt lat="45.66743" lon="5.55045">
        <ele>210</ele>
        <time>2022-04-16T09:26:15.541Z</time>
      </trkpt>
      <trkpt lat="45.66745" lon="5.55038">
        <ele>209</ele>
        <time>2022-04-16T09:26:16.540Z</time>
      </trkpt>
      <trkpt lat="45.66746" lon="5.55031">
        <ele>209</ele>
        <time>2022-04-16T09:26:17.541Z</time>
      </trkpt>
      <trkpt lat="45.66747" lon="5.55025">
        <ele>209</ele>
        <time>2022-04-16T09:26:18.540Z</time>
      </trkpt>
      <trkpt lat="45.66749" lon="5.55018">
        <ele>208</ele>
        <time>2022-04-16T09:26:19.540Z</time>
      </trkpt>
      <trkpt lat="45.6675" lon="5.55011">
        <ele>208</ele>
        <time>2022-04-16T09:26:20.541Z</time>
      </trkpt>
      <trkpt lat="45.66752" lon="5.55005">
        <ele>207</ele>
        <time>2022-04-16T09:26:21.541Z</time>
      </trkpt>
      <trkpt lat="45.66753" lon="5.54998">
        <ele>208</ele>
        <time>2022-04-16T09:26:22.541Z</time>
      </trkpt>
      <trkpt lat="45.66755" lon="5.54991">
        <ele>208</ele>
        <time>2022-04-16T09:26:23.540Z</time>
      </trkpt>
      <trkpt lat="45.66756" lon="5.54984">
        <ele>208</ele>
        <time>2022-04-16T09:26:24.541Z</time>
      </trkpt>
      <trkpt lat="45.66757" lon="5.54977">
        <ele>209</ele>
        <time>2022-04-16T09:26:25.541Z</time>
      </trkpt>
      <trkpt lat="45.66759" lon="5.5497">
        <ele>209</ele>
        <time>2022-04-16T09:26:26.540Z</time>
      </trkpt>
      <trkpt lat="45.6676" lon="5.54963">
        <ele>210</ele>
        <time>2022-04-16T09:26:27.540Z</time>
      </trkpt>
      <trkpt lat="45.66762" lon="5.54956">
        <ele>210</ele>
        <time>2022-04-16T09:26:28.541Z</time>
      </trkpt>
      <trkpt lat="45.66763" lon="5.54949">
        <ele>211</ele>
        <time>2022-04-16T09:26:29.540Z</time>
      </trkpt>
      <trkpt lat="45.66764" lon="5.54943">
        <ele>211</ele>
        <time>2022-04-16T09:26:30.541Z</time>
      </trkpt>
      <trkpt lat="45.66766" lon="5.54936">
        <ele>212</ele>
        <time>2022-04-16T09:26:31.541Z</time>
      </trkpt>
      <trkpt lat="45.66767" lon="5.54929">
        <ele>212</ele>
        <time>2022-04-16T09:26:32.541Z</time>
      </trkpt>
      <trkpt lat="45.66768" lon="5.54922">
        <ele>213</ele>
        <time>2022-04-16T09:26:33.540Z</time>
      </trkpt>
      <trkpt lat="45.6677" lon="5.54915">
        <ele>213</ele>
        <time>2022-04-16T09:26:34.541Z</time>
      </trkpt>
      <trkpt lat="45.66771" lon="5.54908">
        <ele>212</ele>
        <time>2022-04-16T09:26:35.540Z</time>
      </trkpt>
      <trkpt lat="45.66773" lon="5.54901">
        <ele>212</ele>
        <time>2022-04-16T09:26:36.541Z</time>
      </trkpt>
      <trkpt lat="45.66775" lon="5.54893">
        <ele>212</ele>
        <time>2022-04-16T09:26:37.541Z</time>
      </trkpt>
      <trkpt lat="45.66776" lon="5.54886">
        <ele>211</ele>
        <time>2022-04-16T09:26:38.540Z</time>
      </trkpt>
      <trkpt lat="45.66777" lon="5.54879">
        <ele>211</ele>
        <time>2022-04-16T09:26:39.540Z</time>
      </trkpt>
      <trkpt lat="45.66779" lon="5.54872">
        <ele>210</ele>
        <time>2022-04-16T09:26:40.541Z</time>
      </trkpt>
      <trkpt lat="45.6678" lon="5.54865">
        <ele>210</ele>
        <time>2022-04-16T09:26:41.541Z</time>
      </trkpt>
      <trkpt lat="45.66782" lon="5.54858">
        <ele>209</ele>
        <time>2022-04-16T09:26:42.541Z</time>
      </trkpt>
      <trkpt lat="45.66783" lon="5.54851">
        <ele>209</ele>
        <time>2022-04-16T09:26:43.541Z</time>
      </trkpt>
      <trkpt lat="45.66785" lon="5.54844">
        <ele>209</ele>
        <time>2022-04-16T09:26:44.540Z</time>
      </trkpt>
      <trkpt lat="45.66786" lon="5.54837">
        <ele>209</ele>
        <time>2022-04-16T09:26:45.541Z</time>
      </trkpt>
      <trkpt lat="45.66787" lon="5.5483">
        <ele>209</ele>
        <time>2022-04-16T09:26:46.540Z</time>
      </trkpt>
      <trkpt lat="45.66789" lon="5.54823">
        <ele>209</ele>
        <time>2022-04-16T09:26:47.541Z</time>
      </trkpt>
      <trkpt lat="45.6679" lon="5.54816">
        <ele>208</ele>
        <time>2022-04-16T09:26:48.541Z</time>
      </trkpt>
      <trkpt lat="45.66792" lon="5.54809">
        <ele>208</ele>
        <time>2022-04-16T09:26:49.541Z</time>
      </trkpt>
      <trkpt lat="45.66793" lon="5.54802">
        <ele>208</ele>
        <time>2022-04-16T09:26:50.541Z</time>
      </trkpt>
      <trkpt lat="45.66795" lon="5.54795">
        <ele>208</ele>
        <time>2022-04-16T09:26:51.541Z</time>
      </trkpt>
      <trkpt lat="45.66796" lon="5.54788">
        <ele>208</ele>
        <time>2022-04-16T09:26:52.541Z</time>
      </trkpt>
      <trkpt lat="45.66797" lon="5.54781">
        <ele>208</ele>
        <time>2022-04-16T09:26:53.540Z</time>
      </trkpt>
      <trkpt lat="45.66799" lon="5.54774">
        <ele>209</ele>
        <time>2022-04-16T09:26:54.541Z</time>
      </trkpt>
      <trkpt lat="45.668" lon="5.54767">
        <ele>210</ele>
        <time>2022-04-16T09:26:55.541Z</time>
      </trkpt>
      <trkpt lat="45.66801" lon="5.5476">
        <ele>211</ele>
        <time>2022-04-16T09:26:56.540Z</time>
      </trkpt>
      <trkpt lat="45.66802" lon="5.54753">
        <ele>212</ele>
        <time>2022-04-16T09:26:57.541Z</time>
      </trkpt>
      <trkpt lat="45.66804" lon="5.54746">
        <ele>212</ele>
        <time>2022-04-16T09:26:58.541Z</time>
      </trkpt>
      <trkpt lat="45.66805" lon="5.54739">
        <ele>212</ele>
        <time>2022-04-16T09:26:59.541Z</time>
      </trkpt>
      <trkpt lat="45.66807" lon="5.54732">
        <ele>212</ele>
        <time>2022-04-16T09:27:00.541Z</time>
      </trkpt>
      <trkpt lat="45.66808" lon="5.54725">
        <ele>211</ele>
        <time>2022-04-16T09:27:01.540Z</time>
      </trkpt>
      <trkpt lat="45.66809" lon="5.54718">
        <ele>211</ele>
        <time>2022-04-16T09:27:02.541Z</time>
      </trkpt>
      <trkpt lat="45.66811" lon="5.54712">
        <ele>211</ele>
        <time>2022-04-16T09:27:03.541Z</time>
      </trkpt>
      <trkpt lat="45.66812" lon="5.54705">
        <ele>210</ele>
        <time>2022-04-16T09:27:04.541Z</time>
      </trkpt>
      <trkpt lat="45.66814" lon="5.54698">
        <ele>210</ele>
        <time>2022-04-16T09:27:05.541Z</time>
      </trkpt>
      <trkpt lat="45.66815" lon="5.54691">
        <ele>210</ele>
        <time>2022-04-16T09:27:06.541Z</time>
      </trkpt>
      <trkpt lat="45.66816" lon="5.54684">
        <ele>210</ele>
        <time>2022-04-16T09:27:07.541Z</time>
      </trkpt>
      <trkpt lat="45.66818" lon="5.54677">
        <ele>210</ele>
        <time>2022-04-16T09:27:08.540Z</time>
      </trkpt>
      <trkpt lat="45.66819" lon="5.5467">
        <ele>210</ele>
        <time>2022-04-16T09:27:09.541Z</time>
      </trkpt>
      <trkpt lat="45.6682" lon="5.54663">
        <ele>209</ele>
        <time>2022-04-16T09:27:10.540Z</time>
      </trkpt>
      <trkpt lat="45.66822" lon="5.54656">
        <ele>209</ele>
        <time>2022-04-16T09:27:11.541Z</time>
      </trkpt>
      <trkpt lat="45.66823" lon="5.54649">
        <ele>209</ele>
        <time>2022-04-16T09:27:12.541Z</time>
      </trkpt>
      <trkpt lat="45.66825" lon="5.54642">
        <ele>209</ele>
        <time>2022-04-16T09:27:13.541Z</time>
      </trkpt>
      <trkpt lat="45.66826" lon="5.54635">
        <ele>210</ele>
        <time>2022-04-16T09:27:14.541Z</time>
      </trkpt>
      <trkpt lat="45.66828" lon="5.54628">
        <ele>210</ele>
        <time>2022-04-16T09:27:15.540Z</time>
      </trkpt>
      <trkpt lat="45.66829" lon="5.54621">
        <ele>210</ele>
        <time>2022-04-16T09:27:16.540Z</time>
      </trkpt>
      <trkpt lat="45.6683" lon="5.54613">
        <ele>210</ele>
        <time>2022-04-16T09:27:17.541Z</time>
      </trkpt>
      <trkpt lat="45.66831" lon="5.54606">
        <ele>210</ele>
        <time>2022-04-16T09:27:18.541Z</time>
      </trkpt>
      <trkpt lat="45.66832" lon="5.546">
        <ele>210</ele>
        <time>2022-04-16T09:27:19.540Z</time>
      </trkpt>
      <trkpt lat="45.66833" lon="5.54592">
        <ele>210</ele>
        <time>2022-04-16T09:27:20.541Z</time>
      </trkpt>
      <trkpt lat="45.66834" lon="5.54585">
        <ele>210</ele>
        <time>2022-04-16T09:27:21.541Z</time>
      </trkpt>
      <trkpt lat="45.66835" lon="5.54578">
        <ele>210</ele>
        <time>2022-04-16T09:27:22.540Z</time>
      </trkpt>
      <trkpt lat="45.66836" lon="5.54571">
        <ele>210</ele>
        <time>2022-04-16T09:27:23.540Z</time>
      </trkpt>
      <trkpt lat="45.66837" lon="5.54563">
        <ele>211</ele>
        <time>2022-04-16T09:27:24.541Z</time>
      </trkpt>
      <trkpt lat="45.66837" lon="5.54556">
        <ele>210</ele>
        <time>2022-04-16T09:27:25.541Z</time>
      </trkpt>
      <trkpt lat="45.66838" lon="5.54549">
        <ele>210</ele>
        <time>2022-04-16T09:27:26.541Z</time>
      </trkpt>
      <trkpt lat="45.66838" lon="5.54542">
        <ele>210</ele>
        <time>2022-04-16T09:27:27.541Z</time>
      </trkpt>
      <trkpt lat="45.66839" lon="5.54534">
        <ele>210</ele>
        <time>2022-04-16T09:27:28.540Z</time>
      </trkpt>
      <trkpt lat="45.66839" lon="5.54527">
        <ele>209</ele>
        <time>2022-04-16T09:27:29.541Z</time>
      </trkpt>
      <trkpt lat="45.6684" lon="5.5452">
        <ele>209</ele>
        <time>2022-04-16T09:27:30.541Z</time>
      </trkpt>
      <trkpt lat="45.66841" lon="5.54513">
        <ele>209</ele>
        <time>2022-04-16T09:27:31.540Z</time>
      </trkpt>
      <trkpt lat="45.66841" lon="5.54505">
        <ele>209</ele>
        <time>2022-04-16T09:27:32.541Z</time>
      </trkpt>
      <trkpt lat="45.66842" lon="5.54498">
        <ele>209</ele>
        <time>2022-04-16T09:27:33.541Z</time>
      </trkpt>
      <trkpt lat="45.66842" lon="5.5449">
        <ele>209</ele>
        <time>2022-04-16T09:27:34.541Z</time>
      </trkpt>
      <trkpt lat="45.66843" lon="5.54483">
        <ele>209</ele>
        <time>2022-04-16T09:27:35.540Z</time>
      </trkpt>
      <trkpt lat="45.66844" lon="5.54476">
        <ele>209</ele>
        <time>2022-04-16T09:27:36.540Z</time>
      </trkpt>
      <trkpt lat="45.66844" lon="5.54468">
        <ele>209</ele>
        <time>2022-04-16T09:27:37.541Z</time>
      </trkpt>
      <trkpt lat="45.66845" lon="5.54461">
        <ele>209</ele>
        <time>2022-04-16T09:27:38.541Z</time>
      </trkpt>
      <trkpt lat="45.66846" lon="5.54453">
        <ele>210</ele>
        <time>2022-04-16T09:27:39.541Z</time>
      </trkpt>
      <trkpt lat="45.66846" lon="5.54446">
        <ele>210</ele>
        <time>2022-04-16T09:27:40.541Z</time>
      </trkpt>
      <trkpt lat="45.66847" lon="5.54438">
        <ele>210</ele>
        <time>2022-04-16T09:27:41.541Z</time>
      </trkpt>
      <trkpt lat="45.66847" lon="5.54431">
        <ele>210</ele>
        <time>2022-04-16T09:27:42.541Z</time>
      </trkpt>
      <trkpt lat="45.66848" lon="5.54424">
        <ele>210</ele>
        <time>2022-04-16T09:27:43.541Z</time>
      </trkpt>
      <trkpt lat="45.66848" lon="5.54417">
        <ele>211</ele>
        <time>2022-04-16T09:27:44.540Z</time>
      </trkpt>
      <trkpt lat="45.66849" lon="5.54409">
        <ele>212</ele>
        <time>2022-04-16T09:27:45.541Z</time>
      </trkpt>
      <trkpt lat="45.6685" lon="5.54402">
        <ele>212</ele>
        <time>2022-04-16T09:27:46.541Z</time>
      </trkpt>
      <trkpt lat="45.6685" lon="5.54395">
        <ele>212</ele>
        <time>2022-04-16T09:27:47.540Z</time>
      </trkpt>
      <trkpt lat="45.66851" lon="5.54388">
        <ele>212</ele>
        <time>2022-04-16T09:27:48.541Z</time>
      </trkpt>
      <trkpt lat="45.66851" lon="5.54381">
        <ele>212</ele>
        <time>2022-04-16T09:27:49.541Z</time>
      </trkpt>
      <trkpt lat="45.66852" lon="5.54374">
        <ele>212</ele>
        <time>2022-04-16T09:27:50.541Z</time>
      </trkpt>
      <trkpt lat="45.66852" lon="5.54367">
        <ele>212</ele>
        <time>2022-04-16T09:27:51.541Z</time>
      </trkpt>
      <trkpt lat="45.66853" lon="5.5436">
        <ele>212</ele>
        <time>2022-04-16T09:27:52.541Z</time>
      </trkpt>
      <trkpt lat="45.66853" lon="5.54353">
        <ele>211</ele>
        <time>2022-04-16T09:27:53.540Z</time>
      </trkpt>
      <trkpt lat="45.66854" lon="5.54346">
        <ele>211</ele>
        <time>2022-04-16T09:27:54.541Z</time>
      </trkpt>
      <trkpt lat="45.66854" lon="5.5434">
        <ele>211</ele>
        <time>2022-04-16T09:27:55.541Z</time>
      </trkpt>
      <trkpt lat="45.66855" lon="5.54333">
        <ele>211</ele>
        <time>2022-04-16T09:27:56.540Z</time>
      </trkpt>
      <trkpt lat="45.66855" lon="5.54326">
        <ele>210</ele>
        <time>2022-04-16T09:27:57.541Z</time>
      </trkpt>
      <trkpt lat="45.66856" lon="5.54319">
        <ele>210</ele>
        <time>2022-04-16T09:27:58.541Z</time>
      </trkpt>
      <trkpt lat="45.66856" lon="5.54312">
        <ele>210</ele>
        <time>2022-04-16T09:27:59.541Z</time>
      </trkpt>
      <trkpt lat="45.66857" lon="5.54305">
        <ele>210</ele>
        <time>2022-04-16T09:28:00.541Z</time>
      </trkpt>
      <trkpt lat="45.66857" lon="5.54298">
        <ele>210</ele>
        <time>2022-04-16T09:28:01.541Z</time>
      </trkpt>
      <trkpt lat="45.66858" lon="5.54291">
        <ele>210</ele>
        <time>2022-04-16T09:28:02.541Z</time>
      </trkpt>
      <trkpt lat="45.66859" lon="5.54284">
        <ele>210</ele>
        <time>2022-04-16T09:28:03.541Z</time>
      </trkpt>
      <trkpt lat="45.6686" lon="5.54277">
        <ele>209</ele>
        <time>2022-04-16T09:28:04.540Z</time>
      </trkpt>
      <trkpt lat="45.6686" lon="5.5427">
        <ele>209</ele>
        <time>2022-04-16T09:28:05.540Z</time>
      </trkpt>
      <trkpt lat="45.66861" lon="5.54263">
        <ele>209</ele>
        <time>2022-04-16T09:28:06.541Z</time>
      </trkpt>
      <trkpt lat="45.66862" lon="5.54256">
        <ele>209</ele>
        <time>2022-04-16T09:28:07.540Z</time>
      </trkpt>
      <trkpt lat="45.66862" lon="5.54249">
        <ele>210</ele>
        <time>2022-04-16T09:28:08.540Z</time>
      </trkpt>
      <trkpt lat="45.66863" lon="5.54242">
        <ele>210</ele>
        <time>2022-04-16T09:28:09.540Z</time>
      </trkpt>
      <trkpt lat="45.66864" lon="5.54235">
        <ele>209</ele>
        <time>2022-04-16T09:28:10.541Z</time>
      </trkpt>
      <trkpt lat="45.66864" lon="5.54227">
        <ele>209</ele>
        <time>2022-04-16T09:28:11.541Z</time>
      </trkpt>
      <trkpt lat="45.66865" lon="5.5422">
        <ele>209</ele>
        <time>2022-04-16T09:28:12.541Z</time>
      </trkpt>
      <trkpt lat="45.66866" lon="5.54213">
        <ele>209</ele>
        <time>2022-04-16T09:28:13.540Z</time>
      </trkpt>
      <trkpt lat="45.66866" lon="5.54206">
        <ele>209</ele>
        <time>2022-04-16T09:28:14.540Z</time>
      </trkpt>
      <trkpt lat="45.66866" lon="5.54199">
        <ele>208</ele>
        <time>2022-04-16T09:28:15.541Z</time>
      </trkpt>
      <trkpt lat="45.66867" lon="5.54192">
        <ele>208</ele>
        <time>2022-04-16T09:28:16.540Z</time>
      </trkpt>
      <trkpt lat="45.66868" lon="5.54184">
        <ele>208</ele>
        <time>2022-04-16T09:28:17.540Z</time>
      </trkpt>
      <trkpt lat="45.66868" lon="5.54177">
        <ele>208</ele>
        <time>2022-04-16T09:28:18.541Z</time>
      </trkpt>
      <trkpt lat="45.66869" lon="5.5417">
        <ele>207</ele>
        <time>2022-04-16T09:28:19.541Z</time>
      </trkpt>
      <trkpt lat="45.66869" lon="5.54163">
        <ele>207</ele>
        <time>2022-04-16T09:28:20.540Z</time>
      </trkpt>
      <trkpt lat="45.6687" lon="5.54155">
        <ele>207</ele>
        <time>2022-04-16T09:28:21.541Z</time>
      </trkpt>
      <trkpt lat="45.6687" lon="5.54148">
        <ele>207</ele>
        <time>2022-04-16T09:28:22.540Z</time>
      </trkpt>
      <trkpt lat="45.66871" lon="5.5414">
        <ele>207</ele>
        <time>2022-04-16T09:28:23.541Z</time>
      </trkpt>
      <trkpt lat="45.66872" lon="5.54133">
        <ele>208</ele>
        <time>2022-04-16T09:28:24.541Z</time>
      </trkpt>
      <trkpt lat="45.66872" lon="5.54125">
        <ele>208</ele>
        <time>2022-04-16T09:28:25.540Z</time>
      </trkpt>
      <trkpt lat="45.66873" lon="5.54118">
        <ele>209</ele>
        <time>2022-04-16T09:28:26.540Z</time>
      </trkpt>
      <trkpt lat="45.66873" lon="5.5411">
        <ele>209</ele>
        <time>2022-04-16T09:28:27.540Z</time>
      </trkpt>
      <trkpt lat="45.66874" lon="5.54103">
        <ele>209</ele>
        <time>2022-04-16T09:28:28.540Z</time>
      </trkpt>
      <trkpt lat="45.66874" lon="5.54095">
        <ele>209</ele>
        <time>2022-04-16T09:28:29.541Z</time>
      </trkpt>
      <trkpt lat="45.66875" lon="5.54088">
        <ele>209</ele>
        <time>2022-04-16T09:28:30.541Z</time>
      </trkpt>
      <trkpt lat="45.66876" lon="5.5408">
        <ele>210</ele>
        <time>2022-04-16T09:28:31.540Z</time>
      </trkpt>
      <trkpt lat="45.66876" lon="5.54073">
        <ele>210</ele>
        <time>2022-04-16T09:28:32.541Z</time>
      </trkpt>
      <trkpt lat="45.66877" lon="5.54065">
        <ele>210</ele>
        <time>2022-04-16T09:28:33.541Z</time>
      </trkpt>
      <trkpt lat="45.66877" lon="5.54058">
        <ele>211</ele>
        <time>2022-04-16T09:28:34.540Z</time>
      </trkpt>
      <trkpt lat="45.66878" lon="5.5405">
        <ele>210</ele>
        <time>2022-04-16T09:28:35.541Z</time>
      </trkpt>
      <trkpt lat="45.66879" lon="5.54043">
        <ele>209</ele>
        <time>2022-04-16T09:28:36.541Z</time>
      </trkpt>
      <trkpt lat="45.66879" lon="5.54036">
        <ele>209</ele>
        <time>2022-04-16T09:28:37.541Z</time>
      </trkpt>
      <trkpt lat="45.6688" lon="5.54028">
        <ele>209</ele>
        <time>2022-04-16T09:28:38.541Z</time>
      </trkpt>
      <trkpt lat="45.6688" lon="5.54021">
        <ele>209</ele>
        <time>2022-04-16T09:28:39.541Z</time>
      </trkpt>
      <trkpt lat="45.66881" lon="5.54013">
        <ele>209</ele>
        <time>2022-04-16T09:28:40.540Z</time>
      </trkpt>
      <trkpt lat="45.66881" lon="5.54006">
        <ele>209</ele>
        <time>2022-04-16T09:28:41.541Z</time>
      </trkpt>
      <trkpt lat="45.66882" lon="5.53998">
        <ele>209</ele>
        <time>2022-04-16T09:28:42.541Z</time>
      </trkpt>
      <trkpt lat="45.66882" lon="5.53991">
        <ele>209</ele>
        <time>2022-04-16T09:28:43.541Z</time>
      </trkpt>
      <trkpt lat="45.66883" lon="5.53983">
        <ele>209</ele>
        <time>2022-04-16T09:28:44.541Z</time>
      </trkpt>
      <trkpt lat="45.66883" lon="5.53976">
        <ele>209</ele>
        <time>2022-04-16T09:28:45.541Z</time>
      </trkpt>
      <trkpt lat="45.66884" lon="5.53968">
        <ele>209</ele>
        <time>2022-04-16T09:28:46.541Z</time>
      </trkpt>
      <trkpt lat="45.66884" lon="5.53961">
        <ele>209</ele>
        <time>2022-04-16T09:28:47.541Z</time>
      </trkpt>
      <trkpt lat="45.66885" lon="5.53953">
        <ele>209</ele>
        <time>2022-04-16T09:28:48.541Z</time>
      </trkpt>
      <trkpt lat="45.66886" lon="5.53945">
        <ele>209</ele>
        <time>2022-04-16T09:28:49.541Z</time>
      </trkpt>
      <trkpt lat="45.66886" lon="5.53938">
        <ele>208</ele>
        <time>2022-04-16T09:28:50.541Z</time>
      </trkpt>
      <trkpt lat="45.66887" lon="5.5393">
        <ele>208</ele>
        <time>2022-04-16T09:28:51.541Z</time>
      </trkpt>
      <trkpt lat="45.66888" lon="5.53922">
        <ele>208</ele>
        <time>2022-04-16T09:28:52.541Z</time>
      </trkpt>
      <trkpt lat="45.66888" lon="5.53914">
        <ele>208</ele>
        <time>2022-04-16T09:28:53.541Z</time>
      </trkpt>
      <trkpt lat="45.66889" lon="5.53907">
        <ele>208</ele>
        <time>2022-04-16T09:28:54.540Z</time>
      </trkpt>
      <trkpt lat="45.66889" lon="5.53899">
        <ele>208</ele>
        <time>2022-04-16T09:28:55.541Z</time>
      </trkpt>
      <trkpt lat="45.6689" lon="5.53891">
        <ele>208</ele>
        <time>2022-04-16T09:28:56.540Z</time>
      </trkpt>
      <trkpt lat="45.66891" lon="5.53883">
        <ele>208</ele>
        <time>2022-04-16T09:28:57.541Z</time>
      </trkpt>
      <trkpt lat="45.66891" lon="5.53875">
        <ele>208</ele>
        <time>2022-04-16T09:28:58.541Z</time>
      </trkpt>
      <trkpt lat="45.66892" lon="5.53867">
        <ele>207</ele>
        <time>2022-04-16T09:28:59.541Z</time>
      </trkpt>
      <trkpt lat="45.66893" lon="5.53859">
        <ele>207</ele>
        <time>2022-04-16T09:29:00.541Z</time>
      </trkpt>
      <trkpt lat="45.66894" lon="5.53851">
        <ele>207</ele>
        <time>2022-04-16T09:29:01.540Z</time>
      </trkpt>
      <trkpt lat="45.66894" lon="5.53843">
        <ele>208</ele>
        <time>2022-04-16T09:29:02.541Z</time>
      </trkpt>
      <trkpt lat="45.66895" lon="5.53835">
        <ele>208</ele>
        <time>2022-04-16T09:29:03.541Z</time>
      </trkpt>
      <trkpt lat="45.66896" lon="5.53827">
        <ele>208</ele>
        <time>2022-04-16T09:29:04.540Z</time>
      </trkpt>
      <trkpt lat="45.66896" lon="5.53819">
        <ele>208</ele>
        <time>2022-04-16T09:29:05.541Z</time>
      </trkpt>
      <trkpt lat="45.66897" lon="5.53811">
        <ele>208</ele>
        <time>2022-04-16T09:29:06.541Z</time>
      </trkpt>
      <trkpt lat="45.66897" lon="5.53804">
        <ele>208</ele>
        <time>2022-04-16T09:29:07.541Z</time>
      </trkpt>
      <trkpt lat="45.66898" lon="5.53796">
        <ele>208</ele>
        <time>2022-04-16T09:29:08.541Z</time>
      </trkpt>
      <trkpt lat="45.66899" lon="5.53788">
        <ele>208</ele>
        <time>2022-04-16T09:29:09.541Z</time>
      </trkpt>
      <trkpt lat="45.66899" lon="5.5378">
        <ele>208</ele>
        <time>2022-04-16T09:29:10.541Z</time>
      </trkpt>
      <trkpt lat="45.669" lon="5.53772">
        <ele>209</ele>
        <time>2022-04-16T09:29:11.541Z</time>
      </trkpt>
      <trkpt lat="45.66901" lon="5.53765">
        <ele>209</ele>
        <time>2022-04-16T09:29:12.541Z</time>
      </trkpt>
      <trkpt lat="45.66901" lon="5.53757">
        <ele>209</ele>
        <time>2022-04-16T09:29:13.541Z</time>
      </trkpt>
      <trkpt lat="45.66901" lon="5.53749">
        <ele>209</ele>
        <time>2022-04-16T09:29:14.541Z</time>
      </trkpt>
      <trkpt lat="45.66902" lon="5.53741">
        <ele>209</ele>
        <time>2022-04-16T09:29:15.541Z</time>
      </trkpt>
      <trkpt lat="45.66902" lon="5.53734">
        <ele>209</ele>
        <time>2022-04-16T09:29:16.541Z</time>
      </trkpt>
      <trkpt lat="45.66903" lon="5.53726">
        <ele>209</ele>
        <time>2022-04-16T09:29:17.541Z</time>
      </trkpt>
      <trkpt lat="45.66904" lon="5.53718">
        <ele>209</ele>
        <time>2022-04-16T09:29:18.541Z</time>
      </trkpt>
      <trkpt lat="45.66904" lon="5.53711">
        <ele>209</ele>
        <time>2022-04-16T09:29:19.541Z</time>
      </trkpt>
      <trkpt lat="45.66905" lon="5.53703">
        <ele>209</ele>
        <time>2022-04-16T09:29:20.540Z</time>
      </trkpt>
      <trkpt lat="45.66905" lon="5.53695">
        <ele>209</ele>
        <time>2022-04-16T09:29:21.541Z</time>
      </trkpt>
      <trkpt lat="45.66906" lon="5.53688">
        <ele>209</ele>
        <time>2022-04-16T09:29:22.540Z</time>
      </trkpt>
      <trkpt lat="45.66906" lon="5.5368">
        <ele>208</ele>
        <time>2022-04-16T09:29:23.541Z</time>
      </trkpt>
      <trkpt lat="45.66907" lon="5.53673">
        <ele>208</ele>
        <time>2022-04-16T09:29:24.541Z</time>
      </trkpt>
      <trkpt lat="45.66907" lon="5.53665">
        <ele>208</ele>
        <time>2022-04-16T09:29:25.540Z</time>
      </trkpt>
      <trkpt lat="45.66908" lon="5.53657">
        <ele>208</ele>
        <time>2022-04-16T09:29:26.541Z</time>
      </trkpt>
      <trkpt lat="45.66908" lon="5.5365">
        <ele>208</ele>
        <time>2022-04-16T09:29:27.540Z</time>
      </trkpt>
      <trkpt lat="45.66909" lon="5.53642">
        <ele>208</ele>
        <time>2022-04-16T09:29:28.540Z</time>
      </trkpt>
      <trkpt lat="45.66909" lon="5.53634">
        <ele>209</ele>
        <time>2022-04-16T09:29:29.541Z</time>
      </trkpt>
      <trkpt lat="45.6691" lon="5.53626">
        <ele>209</ele>
        <time>2022-04-16T09:29:30.541Z</time>
      </trkpt>
      <trkpt lat="45.6691" lon="5.53618">
        <ele>209</ele>
        <time>2022-04-16T09:29:31.541Z</time>
      </trkpt>
      <trkpt lat="45.66911" lon="5.5361">
        <ele>208</ele>
        <time>2022-04-16T09:29:32.541Z</time>
      </trkpt>
      <trkpt lat="45.66911" lon="5.53603">
        <ele>208</ele>
        <time>2022-04-16T09:29:33.541Z</time>
      </trkpt>
      <trkpt lat="45.66912" lon="5.53595">
        <ele>208</ele>
        <time>2022-04-16T09:29:34.541Z</time>
      </trkpt>
      <trkpt lat="45.66912" lon="5.53587">
        <ele>208</ele>
        <time>2022-04-16T09:29:35.541Z</time>
      </trkpt>
      <trkpt lat="45.66913" lon="5.5358">
        <ele>208</ele>
        <time>2022-04-16T09:29:36.541Z</time>
      </trkpt>
      <trkpt lat="45.66914" lon="5.53572">
        <ele>209</ele>
        <time>2022-04-16T09:29:37.541Z</time>
      </trkpt>
      <trkpt lat="45.66914" lon="5.53565">
        <ele>209</ele>
        <time>2022-04-16T09:29:38.541Z</time>
      </trkpt>
      <trkpt lat="45.66915" lon="5.53558">
        <ele>209</ele>
        <time>2022-04-16T09:29:39.540Z</time>
      </trkpt>
      <trkpt lat="45.66915" lon="5.5355">
        <ele>209</ele>
        <time>2022-04-16T09:29:40.541Z</time>
      </trkpt>
      <trkpt lat="45.66916" lon="5.53543">
        <ele>209</ele>
        <time>2022-04-16T09:29:41.541Z</time>
      </trkpt>
      <trkpt lat="45.66916" lon="5.53535">
        <ele>209</ele>
        <time>2022-04-16T09:29:42.541Z</time>
      </trkpt>
      <trkpt lat="45.66917" lon="5.53528">
        <ele>209</ele>
        <time>2022-04-16T09:29:43.540Z</time>
      </trkpt>
      <trkpt lat="45.66917" lon="5.53521">
        <ele>208</ele>
        <time>2022-04-16T09:29:44.541Z</time>
      </trkpt>
      <trkpt lat="45.66918" lon="5.53514">
        <ele>208</ele>
        <time>2022-04-16T09:29:45.540Z</time>
      </trkpt>
      <trkpt lat="45.66918" lon="5.53507">
        <ele>208</ele>
        <time>2022-04-16T09:29:46.541Z</time>
      </trkpt>
      <trkpt lat="45.66919" lon="5.53499">
        <ele>209</ele>
        <time>2022-04-16T09:29:47.541Z</time>
      </trkpt>
      <trkpt lat="45.6692" lon="5.53492">
        <ele>209</ele>
        <time>2022-04-16T09:29:48.541Z</time>
      </trkpt>
      <trkpt lat="45.6692" lon="5.53485">
        <ele>209</ele>
        <time>2022-04-16T09:29:49.541Z</time>
      </trkpt>
      <trkpt lat="45.66921" lon="5.53478">
        <ele>209</ele>
        <time>2022-04-16T09:29:50.541Z</time>
      </trkpt>
      <trkpt lat="45.66921" lon="5.5347">
        <ele>209</ele>
        <time>2022-04-16T09:29:51.541Z</time>
      </trkpt>
      <trkpt lat="45.66922" lon="5.53464">
        <ele>209</ele>
        <time>2022-04-16T09:29:52.541Z</time>
      </trkpt>
      <trkpt lat="45.66923" lon="5.53457">
        <ele>209</ele>
        <time>2022-04-16T09:29:53.540Z</time>
      </trkpt>
      <trkpt lat="45.66923" lon="5.53449">
        <ele>209</ele>
        <time>2022-04-16T09:29:54.541Z</time>
      </trkpt>
      <trkpt lat="45.66924" lon="5.53441">
        <ele>209</ele>
        <time>2022-04-16T09:29:55.541Z</time>
      </trkpt>
      <trkpt lat="45.66925" lon="5.53434">
        <ele>209</ele>
        <time>2022-04-16T09:29:56.541Z</time>
      </trkpt>
      <trkpt lat="45.66925" lon="5.53428">
        <ele>209</ele>
        <time>2022-04-16T09:29:57.541Z</time>
      </trkpt>
      <trkpt lat="45.66926" lon="5.53421">
        <ele>209</ele>
        <time>2022-04-16T09:29:58.541Z</time>
      </trkpt>
      <trkpt lat="45.66927" lon="5.53412">
        <ele>209</ele>
        <time>2022-04-16T09:29:59.540Z</time>
      </trkpt>
      <trkpt lat="45.66927" lon="5.53404">
        <ele>209</ele>
        <time>2022-04-16T09:30:00.541Z</time>
      </trkpt>
      <trkpt lat="45.66928" lon="5.53397">
        <ele>209</ele>
        <time>2022-04-16T09:30:01.541Z</time>
      </trkpt>
      <trkpt lat="45.66928" lon="5.53391">
        <ele>209</ele>
        <time>2022-04-16T09:30:02.540Z</time>
      </trkpt>
      <trkpt lat="45.66929" lon="5.53383">
        <ele>209</ele>
        <time>2022-04-16T09:30:03.540Z</time>
      </trkpt>
      <trkpt lat="45.66929" lon="5.53376">
        <ele>209</ele>
        <time>2022-04-16T09:30:04.541Z</time>
      </trkpt>
      <trkpt lat="45.66929" lon="5.53367">
        <ele>210</ele>
        <time>2022-04-16T09:30:05.541Z</time>
      </trkpt>
      <trkpt lat="45.6693" lon="5.5336">
        <ele>210</ele>
        <time>2022-04-16T09:30:06.541Z</time>
      </trkpt>
      <trkpt lat="45.66931" lon="5.53353">
        <ele>210</ele>
        <time>2022-04-16T09:30:07.541Z</time>
      </trkpt>
      <trkpt lat="45.66931" lon="5.53346">
        <ele>210</ele>
        <time>2022-04-16T09:30:08.540Z</time>
      </trkpt>
      <trkpt lat="45.66932" lon="5.53338">
        <ele>210</ele>
        <time>2022-04-16T09:30:09.541Z</time>
      </trkpt>
      <trkpt lat="45.66933" lon="5.53331">
        <ele>211</ele>
        <time>2022-04-16T09:30:10.541Z</time>
      </trkpt>
      <trkpt lat="45.66933" lon="5.53323">
        <ele>211</ele>
        <time>2022-04-16T09:30:11.541Z</time>
      </trkpt>
      <trkpt lat="45.66934" lon="5.53316">
        <ele>211</ele>
        <time>2022-04-16T09:30:12.541Z</time>
      </trkpt>
      <trkpt lat="45.66934" lon="5.5331">
        <ele>211</ele>
        <time>2022-04-16T09:30:13.541Z</time>
      </trkpt>
      <trkpt lat="45.66935" lon="5.53301">
        <ele>212</ele>
        <time>2022-04-16T09:30:14.541Z</time>
      </trkpt>
      <trkpt lat="45.66935" lon="5.53293">
        <ele>212</ele>
        <time>2022-04-16T09:30:15.541Z</time>
      </trkpt>
      <trkpt lat="45.66936" lon="5.53286">
        <ele>212</ele>
        <time>2022-04-16T09:30:16.540Z</time>
      </trkpt>
      <trkpt lat="45.66936" lon="5.53279">
        <ele>212</ele>
        <time>2022-04-16T09:30:17.541Z</time>
      </trkpt>
      <trkpt lat="45.66937" lon="5.53271">
        <ele>211</ele>
        <time>2022-04-16T09:30:18.541Z</time>
      </trkpt>
      <trkpt lat="45.66937" lon="5.53264">
        <ele>211</ele>
        <time>2022-04-16T09:30:19.540Z</time>
      </trkpt>
      <trkpt lat="45.66938" lon="5.53256">
        <ele>211</ele>
        <time>2022-04-16T09:30:20.541Z</time>
      </trkpt>
      <trkpt lat="45.66939" lon="5.53249">
        <ele>211</ele>
        <time>2022-04-16T09:30:21.541Z</time>
      </trkpt>
      <trkpt lat="45.66939" lon="5.53242">
        <ele>211</ele>
        <time>2022-04-16T09:30:22.540Z</time>
      </trkpt>
      <trkpt lat="45.6694" lon="5.53233">
        <ele>211</ele>
        <time>2022-04-16T09:30:23.541Z</time>
      </trkpt>
      <trkpt lat="45.66941" lon="5.53226">
        <ele>211</ele>
        <time>2022-04-16T09:30:24.540Z</time>
      </trkpt>
      <trkpt lat="45.66941" lon="5.53218">
        <ele>211</ele>
        <time>2022-04-16T09:30:25.541Z</time>
      </trkpt>
      <trkpt lat="45.66942" lon="5.5321">
        <ele>211</ele>
        <time>2022-04-16T09:30:26.541Z</time>
      </trkpt>
      <trkpt lat="45.66942" lon="5.53204">
        <ele>211</ele>
        <time>2022-04-16T09:30:27.541Z</time>
      </trkpt>
      <trkpt lat="45.66943" lon="5.53197">
        <ele>211</ele>
        <time>2022-04-16T09:30:28.541Z</time>
      </trkpt>
      <trkpt lat="45.66943" lon="5.53187">
        <ele>211</ele>
        <time>2022-04-16T09:30:29.541Z</time>
      </trkpt>
      <trkpt lat="45.66944" lon="5.5318">
        <ele>211</ele>
        <time>2022-04-16T09:30:30.540Z</time>
      </trkpt>
      <trkpt lat="45.66945" lon="5.53172">
        <ele>212</ele>
        <time>2022-04-16T09:30:31.541Z</time>
      </trkpt>
      <trkpt lat="45.66945" lon="5.53166">
        <ele>212</ele>
        <time>2022-04-16T09:30:32.541Z</time>
      </trkpt>
      <trkpt lat="45.66946" lon="5.53158">
        <ele>212</ele>
        <time>2022-04-16T09:30:33.541Z</time>
      </trkpt>
      <trkpt lat="45.66946" lon="5.53149">
        <ele>212</ele>
        <time>2022-04-16T09:30:34.541Z</time>
      </trkpt>
      <trkpt lat="45.66947" lon="5.53142">
        <ele>211</ele>
        <time>2022-04-16T09:30:35.541Z</time>
      </trkpt>
      <trkpt lat="45.66948" lon="5.53135">
        <ele>211</ele>
        <time>2022-04-16T09:30:36.541Z</time>
      </trkpt>
      <trkpt lat="45.66949" lon="5.53129">
        <ele>211</ele>
        <time>2022-04-16T09:30:37.541Z</time>
      </trkpt>
      <trkpt lat="45.66949" lon="5.53122">
        <ele>211</ele>
        <time>2022-04-16T09:30:38.541Z</time>
      </trkpt>
      <trkpt lat="45.6695" lon="5.53113">
        <ele>210</ele>
        <time>2022-04-16T09:30:39.540Z</time>
      </trkpt>
      <trkpt lat="45.6695" lon="5.53105">
        <ele>211</ele>
        <time>2022-04-16T09:30:40.541Z</time>
      </trkpt>
      <trkpt lat="45.66951" lon="5.53098">
        <ele>211</ele>
        <time>2022-04-16T09:30:41.541Z</time>
      </trkpt>
      <trkpt lat="45.66951" lon="5.5309">
        <ele>211</ele>
        <time>2022-04-16T09:30:42.541Z</time>
      </trkpt>
      <trkpt lat="45.66952" lon="5.53083">
        <ele>211</ele>
        <time>2022-04-16T09:30:43.540Z</time>
      </trkpt>
      <trkpt lat="45.66953" lon="5.53075">
        <ele>211</ele>
        <time>2022-04-16T09:30:44.541Z</time>
      </trkpt>
      <trkpt lat="45.66954" lon="5.53068">
        <ele>211</ele>
        <time>2022-04-16T09:30:45.541Z</time>
      </trkpt>
      <trkpt lat="45.66954" lon="5.5306">
        <ele>212</ele>
        <time>2022-04-16T09:30:46.541Z</time>
      </trkpt>
      <trkpt lat="45.66955" lon="5.53054">
        <ele>212</ele>
        <time>2022-04-16T09:30:47.541Z</time>
      </trkpt>
      <trkpt lat="45.66955" lon="5.53047">
        <ele>212</ele>
        <time>2022-04-16T09:30:48.540Z</time>
      </trkpt>
      <trkpt lat="45.66956" lon="5.53038">
        <ele>212</ele>
        <time>2022-04-16T09:30:49.541Z</time>
      </trkpt>
      <trkpt lat="45.66957" lon="5.5303">
        <ele>212</ele>
        <time>2022-04-16T09:30:50.541Z</time>
      </trkpt>
      <trkpt lat="45.66957" lon="5.53023">
        <ele>212</ele>
        <time>2022-04-16T09:30:51.540Z</time>
      </trkpt>
      <trkpt lat="45.66958" lon="5.53016">
        <ele>212</ele>
        <time>2022-04-16T09:30:52.541Z</time>
      </trkpt>
      <trkpt lat="45.66958" lon="5.53008">
        <ele>212</ele>
        <time>2022-04-16T09:30:53.541Z</time>
      </trkpt>
      <trkpt lat="45.66959" lon="5.53001">
        <ele>212</ele>
        <time>2022-04-16T09:30:54.541Z</time>
      </trkpt>
      <trkpt lat="45.66959" lon="5.52994">
        <ele>212</ele>
        <time>2022-04-16T09:30:55.541Z</time>
      </trkpt>
      <trkpt lat="45.66959" lon="5.52986">
        <ele>212</ele>
        <time>2022-04-16T09:30:56.541Z</time>
      </trkpt>
      <trkpt lat="45.6696" lon="5.52979">
        <ele>212</ele>
        <time>2022-04-16T09:30:57.541Z</time>
      </trkpt>
      <trkpt lat="45.6696" lon="5.52973">
        <ele>211</ele>
        <time>2022-04-16T09:30:58.541Z</time>
      </trkpt>
      <trkpt lat="45.66961" lon="5.52964">
        <ele>212</ele>
        <time>2022-04-16T09:30:59.541Z</time>
      </trkpt>
      <trkpt lat="45.66961" lon="5.52957">
        <ele>211</ele>
        <time>2022-04-16T09:31:00.541Z</time>
      </trkpt>
      <trkpt lat="45.66962" lon="5.52949">
        <ele>211</ele>
        <time>2022-04-16T09:31:01.541Z</time>
      </trkpt>
      <trkpt lat="45.66963" lon="5.52942">
        <ele>211</ele>
        <time>2022-04-16T09:31:02.541Z</time>
      </trkpt>
      <trkpt lat="45.66963" lon="5.52936">
        <ele>211</ele>
        <time>2022-04-16T09:31:03.541Z</time>
      </trkpt>
      <trkpt lat="45.66964" lon="5.52928">
        <ele>211</ele>
        <time>2022-04-16T09:31:04.541Z</time>
      </trkpt>
      <trkpt lat="45.66965" lon="5.52919">
        <ele>211</ele>
        <time>2022-04-16T09:31:05.541Z</time>
      </trkpt>
      <trkpt lat="45.66965" lon="5.52913">
        <ele>210</ele>
        <time>2022-04-16T09:31:06.541Z</time>
      </trkpt>
      <trkpt lat="45.66966" lon="5.52904">
        <ele>210</ele>
        <time>2022-04-16T09:31:07.541Z</time>
      </trkpt>
      <trkpt lat="45.66966" lon="5.52898">
        <ele>210</ele>
        <time>2022-04-16T09:31:08.541Z</time>
      </trkpt>
      <trkpt lat="45.66967" lon="5.5289">
        <ele>210</ele>
        <time>2022-04-16T09:31:09.540Z</time>
      </trkpt>
      <trkpt lat="45.66968" lon="5.52882">
        <ele>210</ele>
        <time>2022-04-16T09:31:10.541Z</time>
      </trkpt>
      <trkpt lat="45.66968" lon="5.52873">
        <ele>210</ele>
        <time>2022-04-16T09:31:11.540Z</time>
      </trkpt>
      <trkpt lat="45.66969" lon="5.52865">
        <ele>210</ele>
        <time>2022-04-16T09:31:12.541Z</time>
      </trkpt>
      <trkpt lat="45.6697" lon="5.52859">
        <ele>210</ele>
        <time>2022-04-16T09:31:13.541Z</time>
      </trkpt>
      <trkpt lat="45.6697" lon="5.52851">
        <ele>211</ele>
        <time>2022-04-16T09:31:14.541Z</time>
      </trkpt>
      <trkpt lat="45.66971" lon="5.52842">
        <ele>211</ele>
        <time>2022-04-16T09:31:15.541Z</time>
      </trkpt>
      <trkpt lat="45.66971" lon="5.52834">
        <ele>211</ele>
        <time>2022-04-16T09:31:16.541Z</time>
      </trkpt>
      <trkpt lat="45.66972" lon="5.52827">
        <ele>211</ele>
        <time>2022-04-16T09:31:17.541Z</time>
      </trkpt>
      <trkpt lat="45.66972" lon="5.52821">
        <ele>211</ele>
        <time>2022-04-16T09:31:18.541Z</time>
      </trkpt>
      <trkpt lat="45.66973" lon="5.52814">
        <ele>211</ele>
        <time>2022-04-16T09:31:19.541Z</time>
      </trkpt>
      <trkpt lat="45.66974" lon="5.52804">
        <ele>211</ele>
        <time>2022-04-16T09:31:20.540Z</time>
      </trkpt>
      <trkpt lat="45.66974" lon="5.52797">
        <ele>211</ele>
        <time>2022-04-16T09:31:21.541Z</time>
      </trkpt>
      <trkpt lat="45.66975" lon="5.52789">
        <ele>211</ele>
        <time>2022-04-16T09:31:22.541Z</time>
      </trkpt>
      <trkpt lat="45.66975" lon="5.52783">
        <ele>211</ele>
        <time>2022-04-16T09:31:23.541Z</time>
      </trkpt>
      <trkpt lat="45.66976" lon="5.52776">
        <ele>211</ele>
        <time>2022-04-16T09:31:24.540Z</time>
      </trkpt>
      <trkpt lat="45.66976" lon="5.52766">
        <ele>210</ele>
        <time>2022-04-16T09:31:25.541Z</time>
      </trkpt>
      <trkpt lat="45.66977" lon="5.52759">
        <ele>210</ele>
        <time>2022-04-16T09:31:26.540Z</time>
      </trkpt>
      <trkpt lat="45.66978" lon="5.52751">
        <ele>210</ele>
        <time>2022-04-16T09:31:27.541Z</time>
      </trkpt>
      <trkpt lat="45.66978" lon="5.52745">
        <ele>209</ele>
        <time>2022-04-16T09:31:28.541Z</time>
      </trkpt>
      <trkpt lat="45.66979" lon="5.52738">
        <ele>209</ele>
        <time>2022-04-16T09:31:29.541Z</time>
      </trkpt>
      <trkpt lat="45.6698" lon="5.52729">
        <ele>209</ele>
        <time>2022-04-16T09:31:30.541Z</time>
      </trkpt>
      <trkpt lat="45.6698" lon="5.52721">
        <ele>209</ele>
        <time>2022-04-16T09:31:31.540Z</time>
      </trkpt>
      <trkpt lat="45.66981" lon="5.52713">
        <ele>209</ele>
        <time>2022-04-16T09:31:32.541Z</time>
      </trkpt>
      <trkpt lat="45.66982" lon="5.52706">
        <ele>209</ele>
        <time>2022-04-16T09:31:33.541Z</time>
      </trkpt>
      <trkpt lat="45.66983" lon="5.52699">
        <ele>209</ele>
        <time>2022-04-16T09:31:34.540Z</time>
      </trkpt>
      <trkpt lat="45.66984" lon="5.52689">
        <ele>209</ele>
        <time>2022-04-16T09:31:35.541Z</time>
      </trkpt>
      <trkpt lat="45.66985" lon="5.52682">
        <ele>209</ele>
        <time>2022-04-16T09:31:36.541Z</time>
      </trkpt>
      <trkpt lat="45.66986" lon="5.52674">
        <ele>209</ele>
        <time>2022-04-16T09:31:37.541Z</time>
      </trkpt>
      <trkpt lat="45.66987" lon="5.52668">
        <ele>209</ele>
        <time>2022-04-16T09:31:38.540Z</time>
      </trkpt>
      <trkpt lat="45.66988" lon="5.5266">
        <ele>209</ele>
        <time>2022-04-16T09:31:39.540Z</time>
      </trkpt>
      <trkpt lat="45.66989" lon="5.52651">
        <ele>210</ele>
        <time>2022-04-16T09:31:40.541Z</time>
      </trkpt>
      <trkpt lat="45.66991" lon="5.52643">
        <ele>210</ele>
        <time>2022-04-16T09:31:41.541Z</time>
      </trkpt>
      <trkpt lat="45.66992" lon="5.52636">
        <ele>210</ele>
        <time>2022-04-16T09:31:42.540Z</time>
      </trkpt>
      <trkpt lat="45.66993" lon="5.5263">
        <ele>210</ele>
        <time>2022-04-16T09:31:43.541Z</time>
      </trkpt>
      <trkpt lat="45.66994" lon="5.52622">
        <ele>211</ele>
        <time>2022-04-16T09:31:44.540Z</time>
      </trkpt>
      <trkpt lat="45.66995" lon="5.52614">
        <ele>211</ele>
        <time>2022-04-16T09:31:45.541Z</time>
      </trkpt>
      <trkpt lat="45.66996" lon="5.52608">
        <ele>210</ele>
        <time>2022-04-16T09:31:46.541Z</time>
      </trkpt>
      <trkpt lat="45.66997" lon="5.52598">
        <ele>210</ele>
        <time>2022-04-16T09:31:47.541Z</time>
      </trkpt>
      <trkpt lat="45.66998" lon="5.52593">
        <ele>209</ele>
        <time>2022-04-16T09:31:48.541Z</time>
      </trkpt>
      <trkpt lat="45.66999" lon="5.52585">
        <ele>209</ele>
        <time>2022-04-16T09:31:49.541Z</time>
      </trkpt>
      <trkpt lat="45.67" lon="5.52578">
        <ele>208</ele>
        <time>2022-04-16T09:31:50.541Z</time>
      </trkpt>
      <trkpt lat="45.67001" lon="5.52569">
        <ele>208</ele>
        <time>2022-04-16T09:31:51.540Z</time>
      </trkpt>
      <trkpt lat="45.67002" lon="5.52562">
        <ele>208</ele>
        <time>2022-04-16T09:31:52.541Z</time>
      </trkpt>
      <trkpt lat="45.67003" lon="5.52555">
        <ele>208</ele>
        <time>2022-04-16T09:31:53.541Z</time>
      </trkpt>
      <trkpt lat="45.67004" lon="5.52549">
        <ele>208</ele>
        <time>2022-04-16T09:31:54.541Z</time>
      </trkpt>
      <trkpt lat="45.67004" lon="5.52542">
        <ele>209</ele>
        <time>2022-04-16T09:31:55.541Z</time>
      </trkpt>
      <trkpt lat="45.67005" lon="5.52534">
        <ele>209</ele>
        <time>2022-04-16T09:31:56.541Z</time>
      </trkpt>
      <trkpt lat="45.67006" lon="5.52527">
        <ele>209</ele>
        <time>2022-04-16T09:31:57.541Z</time>
      </trkpt>
      <trkpt lat="45.67007" lon="5.52519">
        <ele>208</ele>
        <time>2022-04-16T09:31:58.540Z</time>
      </trkpt>
      <trkpt lat="45.67008" lon="5.52514">
        <ele>208</ele>
        <time>2022-04-16T09:31:59.540Z</time>
      </trkpt>
      <trkpt lat="45.67009" lon="5.52506">
        <ele>209</ele>
        <time>2022-04-16T09:32:00.541Z</time>
      </trkpt>
      <trkpt lat="45.6701" lon="5.52498">
        <ele>209</ele>
        <time>2022-04-16T09:32:01.541Z</time>
      </trkpt>
      <trkpt lat="45.6701" lon="5.52491">
        <ele>209</ele>
        <time>2022-04-16T09:32:02.541Z</time>
      </trkpt>
      <trkpt lat="45.67011" lon="5.52485">
        <ele>210</ele>
        <time>2022-04-16T09:32:03.540Z</time>
      </trkpt>
      <trkpt lat="45.67012" lon="5.52478">
        <ele>210</ele>
        <time>2022-04-16T09:32:04.541Z</time>
      </trkpt>
      <trkpt lat="45.67013" lon="5.52471">
        <ele>210</ele>
        <time>2022-04-16T09:32:05.541Z</time>
      </trkpt>
      <trkpt lat="45.67013" lon="5.52464">
        <ele>210</ele>
        <time>2022-04-16T09:32:06.541Z</time>
      </trkpt>
      <trkpt lat="45.67014" lon="5.52456">
        <ele>210</ele>
        <time>2022-04-16T09:32:07.541Z</time>
      </trkpt>
      <trkpt lat="45.67015" lon="5.5245">
        <ele>210</ele>
        <time>2022-04-16T09:32:08.540Z</time>
      </trkpt>
      <trkpt lat="45.67015" lon="5.52444">
        <ele>210</ele>
        <time>2022-04-16T09:32:09.541Z</time>
      </trkpt>
      <trkpt lat="45.67016" lon="5.52438">
        <ele>211</ele>
        <time>2022-04-16T09:32:10.541Z</time>
      </trkpt>
      <trkpt lat="45.67017" lon="5.52431">
        <ele>210</ele>
        <time>2022-04-16T09:32:11.541Z</time>
      </trkpt>
      <trkpt lat="45.67018" lon="5.52423">
        <ele>211</ele>
        <time>2022-04-16T09:32:12.541Z</time>
      </trkpt>
      <trkpt lat="45.67018" lon="5.52416">
        <ele>211</ele>
        <time>2022-04-16T09:32:13.541Z</time>
      </trkpt>
      <trkpt lat="45.67019" lon="5.52411">
        <ele>211</ele>
        <time>2022-04-16T09:32:14.541Z</time>
      </trkpt>
      <trkpt lat="45.6702" lon="5.52404">
        <ele>211</ele>
        <time>2022-04-16T09:32:15.541Z</time>
      </trkpt>
      <trkpt lat="45.67021" lon="5.52398">
        <ele>211</ele>
        <time>2022-04-16T09:32:16.541Z</time>
      </trkpt>
      <trkpt lat="45.67021" lon="5.52391">
        <ele>211</ele>
        <time>2022-04-16T09:32:17.541Z</time>
      </trkpt>
      <trkpt lat="45.67022" lon="5.52383">
        <ele>211</ele>
        <time>2022-04-16T09:32:18.541Z</time>
      </trkpt>
      <trkpt lat="45.67023" lon="5.52376">
        <ele>211</ele>
        <time>2022-04-16T09:32:19.540Z</time>
      </trkpt>
      <trkpt lat="45.67024" lon="5.52371">
        <ele>210</ele>
        <time>2022-04-16T09:32:20.541Z</time>
      </trkpt>
      <trkpt lat="45.67024" lon="5.52364">
        <ele>210</ele>
        <time>2022-04-16T09:32:21.541Z</time>
      </trkpt>
      <trkpt lat="45.67025" lon="5.52356">
        <ele>210</ele>
        <time>2022-04-16T09:32:22.541Z</time>
      </trkpt>
      <trkpt lat="45.67026" lon="5.52349">
        <ele>209</ele>
        <time>2022-04-16T09:32:23.540Z</time>
      </trkpt>
      <trkpt lat="45.67026" lon="5.52344">
        <ele>209</ele>
        <time>2022-04-16T09:32:24.540Z</time>
      </trkpt>
      <trkpt lat="45.67027" lon="5.52335">
        <ele>209</ele>
        <time>2022-04-16T09:32:25.541Z</time>
      </trkpt>
      <trkpt lat="45.67027" lon="5.5233">
        <ele>210</ele>
        <time>2022-04-16T09:32:26.541Z</time>
      </trkpt>
      <trkpt lat="45.67028" lon="5.52322">
        <ele>210</ele>
        <time>2022-04-16T09:32:27.541Z</time>
      </trkpt>
      <trkpt lat="45.67029" lon="5.52315">
        <ele>210</ele>
        <time>2022-04-16T09:32:28.540Z</time>
      </trkpt>
      <trkpt lat="45.67029" lon="5.52308">
        <ele>211</ele>
        <time>2022-04-16T09:32:29.541Z</time>
      </trkpt>
      <trkpt lat="45.6703" lon="5.52302">
        <ele>211</ele>
        <time>2022-04-16T09:32:30.541Z</time>
      </trkpt>
      <trkpt lat="45.67031" lon="5.52295">
        <ele>211</ele>
        <time>2022-04-16T09:32:31.541Z</time>
      </trkpt>
      <trkpt lat="45.67032" lon="5.52287">
        <ele>211</ele>
        <time>2022-04-16T09:32:32.541Z</time>
      </trkpt>
      <trkpt lat="45.67032" lon="5.5228">
        <ele>211</ele>
        <time>2022-04-16T09:32:33.540Z</time>
      </trkpt>
      <trkpt lat="45.67033" lon="5.52274">
        <ele>212</ele>
        <time>2022-04-16T09:32:34.540Z</time>
      </trkpt>
      <trkpt lat="45.67034" lon="5.52267">
        <ele>212</ele>
        <time>2022-04-16T09:32:35.540Z</time>
      </trkpt>
      <trkpt lat="45.67034" lon="5.5226">
        <ele>211</ele>
        <time>2022-04-16T09:32:36.541Z</time>
      </trkpt>
      <trkpt lat="45.67035" lon="5.52251">
        <ele>211</ele>
        <time>2022-04-16T09:32:37.541Z</time>
      </trkpt>
      <trkpt lat="45.67036" lon="5.52244">
        <ele>211</ele>
        <time>2022-04-16T09:32:38.541Z</time>
      </trkpt>
      <trkpt lat="45.67037" lon="5.52238">
        <ele>211</ele>
        <time>2022-04-16T09:32:39.541Z</time>
      </trkpt>
      <trkpt lat="45.67038" lon="5.52231">
        <ele>211</ele>
        <time>2022-04-16T09:32:40.541Z</time>
      </trkpt>
      <trkpt lat="45.67038" lon="5.52223">
        <ele>211</ele>
        <time>2022-04-16T09:32:41.541Z</time>
      </trkpt>
      <trkpt lat="45.67039" lon="5.52214">
        <ele>211</ele>
        <time>2022-04-16T09:32:42.541Z</time>
      </trkpt>
      <trkpt lat="45.6704" lon="5.52206">
        <ele>211</ele>
        <time>2022-04-16T09:32:43.540Z</time>
      </trkpt>
      <trkpt lat="45.67041" lon="5.52199">
        <ele>211</ele>
        <time>2022-04-16T09:32:44.541Z</time>
      </trkpt>
      <trkpt lat="45.67042" lon="5.52192">
        <ele>211</ele>
        <time>2022-04-16T09:32:45.541Z</time>
      </trkpt>
      <trkpt lat="45.67042" lon="5.52184">
        <ele>211</ele>
        <time>2022-04-16T09:32:46.541Z</time>
      </trkpt>
      <trkpt lat="45.67043" lon="5.52175">
        <ele>210</ele>
        <time>2022-04-16T09:32:47.541Z</time>
      </trkpt>
      <trkpt lat="45.67044" lon="5.52167">
        <ele>210</ele>
        <time>2022-04-16T09:32:48.541Z</time>
      </trkpt>
      <trkpt lat="45.67045" lon="5.52159">
        <ele>210</ele>
        <time>2022-04-16T09:32:49.541Z</time>
      </trkpt>
      <trkpt lat="45.67046" lon="5.52153">
        <ele>210</ele>
        <time>2022-04-16T09:32:50.541Z</time>
      </trkpt>
      <trkpt lat="45.67046" lon="5.52145">
        <ele>210</ele>
        <time>2022-04-16T09:32:51.541Z</time>
      </trkpt>
      <trkpt lat="45.67047" lon="5.52138">
        <ele>209</ele>
        <time>2022-04-16T09:32:52.541Z</time>
      </trkpt>
      <trkpt lat="45.67048" lon="5.52129">
        <ele>209</ele>
        <time>2022-04-16T09:32:53.541Z</time>
      </trkpt>
      <trkpt lat="45.67049" lon="5.52121">
        <ele>209</ele>
        <time>2022-04-16T09:32:54.540Z</time>
      </trkpt>
      <trkpt lat="45.6705" lon="5.52115">
        <ele>209</ele>
        <time>2022-04-16T09:32:55.541Z</time>
      </trkpt>
      <trkpt lat="45.67051" lon="5.52108">
        <ele>209</ele>
        <time>2022-04-16T09:32:56.541Z</time>
      </trkpt>
      <trkpt lat="45.67052" lon="5.52099">
        <ele>209</ele>
        <time>2022-04-16T09:32:57.540Z</time>
      </trkpt>
      <trkpt lat="45.67052" lon="5.52091">
        <ele>209</ele>
        <time>2022-04-16T09:32:58.541Z</time>
      </trkpt>
      <trkpt lat="45.67053" lon="5.52084">
        <ele>209</ele>
        <time>2022-04-16T09:32:59.541Z</time>
      </trkpt>
      <trkpt lat="45.67054" lon="5.52078">
        <ele>210</ele>
        <time>2022-04-16T09:33:00.540Z</time>
      </trkpt>
      <trkpt lat="45.67055" lon="5.5207">
        <ele>210</ele>
        <time>2022-04-16T09:33:01.541Z</time>
      </trkpt>
      <trkpt lat="45.67056" lon="5.52062">
        <ele>211</ele>
        <time>2022-04-16T09:33:02.540Z</time>
      </trkpt>
      <trkpt lat="45.67056" lon="5.52054">
        <ele>211</ele>
        <time>2022-04-16T09:33:03.541Z</time>
      </trkpt>
      <trkpt lat="45.67057" lon="5.52047">
        <ele>211</ele>
        <time>2022-04-16T09:33:04.540Z</time>
      </trkpt>
      <trkpt lat="45.67058" lon="5.52041">
        <ele>211</ele>
        <time>2022-04-16T09:33:05.541Z</time>
      </trkpt>
      <trkpt lat="45.67058" lon="5.52033">
        <ele>211</ele>
        <time>2022-04-16T09:33:06.541Z</time>
      </trkpt>
      <trkpt lat="45.67059" lon="5.52025">
        <ele>211</ele>
        <time>2022-04-16T09:33:07.540Z</time>
      </trkpt>
      <trkpt lat="45.6706" lon="5.52016">
        <ele>211</ele>
        <time>2022-04-16T09:33:08.541Z</time>
      </trkpt>
      <trkpt lat="45.67061" lon="5.52009">
        <ele>211</ele>
        <time>2022-04-16T09:33:09.541Z</time>
      </trkpt>
      <trkpt lat="45.67062" lon="5.52003">
        <ele>210</ele>
        <time>2022-04-16T09:33:10.541Z</time>
      </trkpt>
      <trkpt lat="45.67063" lon="5.51995">
        <ele>210</ele>
        <time>2022-04-16T09:33:11.540Z</time>
      </trkpt>
      <trkpt lat="45.67064" lon="5.51987">
        <ele>210</ele>
        <time>2022-04-16T09:33:12.541Z</time>
      </trkpt>
      <trkpt lat="45.67064" lon="5.51979">
        <ele>210</ele>
        <time>2022-04-16T09:33:13.540Z</time>
      </trkpt>
      <trkpt lat="45.67065" lon="5.51971">
        <ele>210</ele>
        <time>2022-04-16T09:33:14.541Z</time>
      </trkpt>
      <trkpt lat="45.67066" lon="5.51964">
        <ele>210</ele>
        <time>2022-04-16T09:33:15.540Z</time>
      </trkpt>
      <trkpt lat="45.67067" lon="5.51958">
        <ele>210</ele>
        <time>2022-04-16T09:33:16.541Z</time>
      </trkpt>
      <trkpt lat="45.67067" lon="5.5195">
        <ele>210</ele>
        <time>2022-04-16T09:33:17.541Z</time>
      </trkpt>
      <trkpt lat="45.67068" lon="5.51941">
        <ele>210</ele>
        <time>2022-04-16T09:33:18.541Z</time>
      </trkpt>
      <trkpt lat="45.67069" lon="5.51934">
        <ele>210</ele>
        <time>2022-04-16T09:33:19.541Z</time>
      </trkpt>
      <trkpt lat="45.6707" lon="5.51927">
        <ele>210</ele>
        <time>2022-04-16T09:33:20.541Z</time>
      </trkpt>
      <trkpt lat="45.67071" lon="5.51919">
        <ele>210</ele>
        <time>2022-04-16T09:33:21.541Z</time>
      </trkpt>
      <trkpt lat="45.67071" lon="5.51913">
        <ele>210</ele>
        <time>2022-04-16T09:33:22.541Z</time>
      </trkpt>
      <trkpt lat="45.67072" lon="5.51904">
        <ele>210</ele>
        <time>2022-04-16T09:33:23.541Z</time>
      </trkpt>
      <trkpt lat="45.67073" lon="5.51896">
        <ele>211</ele>
        <time>2022-04-16T09:33:24.541Z</time>
      </trkpt>
      <trkpt lat="45.67073" lon="5.5189">
        <ele>211</ele>
        <time>2022-04-16T09:33:25.541Z</time>
      </trkpt>
      <trkpt lat="45.67074" lon="5.51883">
        <ele>211</ele>
        <time>2022-04-16T09:33:26.541Z</time>
      </trkpt>
      <trkpt lat="45.67075" lon="5.51874">
        <ele>211</ele>
        <time>2022-04-16T09:33:27.540Z</time>
      </trkpt>
      <trkpt lat="45.67076" lon="5.51867">
        <ele>211</ele>
        <time>2022-04-16T09:33:28.540Z</time>
      </trkpt>
      <trkpt lat="45.67077" lon="5.51859">
        <ele>211</ele>
        <time>2022-04-16T09:33:29.540Z</time>
      </trkpt>
      <trkpt lat="45.67077" lon="5.51854">
        <ele>212</ele>
        <time>2022-04-16T09:33:30.540Z</time>
      </trkpt>
      <trkpt lat="45.67078" lon="5.51844">
        <ele>212</ele>
        <time>2022-04-16T09:33:31.541Z</time>
      </trkpt>
      <trkpt lat="45.67079" lon="5.51837">
        <ele>212</ele>
        <time>2022-04-16T09:33:32.540Z</time>
      </trkpt>
      <trkpt lat="45.67079" lon="5.51829">
        <ele>212</ele>
        <time>2022-04-16T09:33:33.541Z</time>
      </trkpt>
      <trkpt lat="45.6708" lon="5.51821">
        <ele>212</ele>
        <time>2022-04-16T09:33:34.541Z</time>
      </trkpt>
      <trkpt lat="45.67081" lon="5.51815">
        <ele>211</ele>
        <time>2022-04-16T09:33:35.541Z</time>
      </trkpt>
      <trkpt lat="45.67082" lon="5.51808">
        <ele>211</ele>
        <time>2022-04-16T09:33:36.541Z</time>
      </trkpt>
      <trkpt lat="45.67082" lon="5.51799">
        <ele>211</ele>
        <time>2022-04-16T09:33:37.541Z</time>
      </trkpt>
      <trkpt lat="45.67083" lon="5.51791">
        <ele>211</ele>
        <time>2022-04-16T09:33:38.540Z</time>
      </trkpt>
      <trkpt lat="45.67084" lon="5.51784">
        <ele>211</ele>
        <time>2022-04-16T09:33:39.540Z</time>
      </trkpt>
      <trkpt lat="45.67084" lon="5.51778">
        <ele>211</ele>
        <time>2022-04-16T09:33:40.541Z</time>
      </trkpt>
      <trkpt lat="45.67085" lon="5.5177">
        <ele>211</ele>
        <time>2022-04-16T09:33:41.541Z</time>
      </trkpt>
      <trkpt lat="45.67086" lon="5.51763">
        <ele>211</ele>
        <time>2022-04-16T09:33:42.541Z</time>
      </trkpt>
      <trkpt lat="45.67087" lon="5.51754">
        <ele>211</ele>
        <time>2022-04-16T09:33:43.540Z</time>
      </trkpt>
      <trkpt lat="45.67088" lon="5.51747">
        <ele>210</ele>
        <time>2022-04-16T09:33:44.541Z</time>
      </trkpt>
      <trkpt lat="45.67088" lon="5.5174">
        <ele>210</ele>
        <time>2022-04-16T09:33:45.541Z</time>
      </trkpt>
      <trkpt lat="45.67089" lon="5.51733">
        <ele>210</ele>
        <time>2022-04-16T09:33:46.541Z</time>
      </trkpt>
      <trkpt lat="45.6709" lon="5.51724">
        <ele>211</ele>
        <time>2022-04-16T09:33:47.541Z</time>
      </trkpt>
      <trkpt lat="45.6709" lon="5.51716">
        <ele>211</ele>
        <time>2022-04-16T09:33:48.540Z</time>
      </trkpt>
      <trkpt lat="45.67091" lon="5.51709">
        <ele>211</ele>
        <time>2022-04-16T09:33:49.541Z</time>
      </trkpt>
      <trkpt lat="45.67092" lon="5.51703">
        <ele>211</ele>
        <time>2022-04-16T09:33:50.540Z</time>
      </trkpt>
      <trkpt lat="45.67092" lon="5.51696">
        <ele>211</ele>
        <time>2022-04-16T09:33:51.541Z</time>
      </trkpt>
      <trkpt lat="45.67093" lon="5.51687">
        <ele>211</ele>
        <time>2022-04-16T09:33:52.541Z</time>
      </trkpt>
      <trkpt lat="45.67094" lon="5.5168">
        <ele>211</ele>
        <time>2022-04-16T09:33:53.541Z</time>
      </trkpt>
      <trkpt lat="45.67095" lon="5.51672">
        <ele>211</ele>
        <time>2022-04-16T09:33:54.541Z</time>
      </trkpt>
      <trkpt lat="45.67096" lon="5.51666">
        <ele>211</ele>
        <time>2022-04-16T09:33:55.541Z</time>
      </trkpt>
      <trkpt lat="45.67096" lon="5.51658">
        <ele>211</ele>
        <time>2022-04-16T09:33:56.541Z</time>
      </trkpt>
      <trkpt lat="45.67097" lon="5.51649">
        <ele>211</ele>
        <time>2022-04-16T09:33:57.540Z</time>
      </trkpt>
      <trkpt lat="45.67098" lon="5.51642">
        <ele>211</ele>
        <time>2022-04-16T09:33:58.541Z</time>
      </trkpt>
      <trkpt lat="45.67099" lon="5.51634">
        <ele>211</ele>
        <time>2022-04-16T09:33:59.541Z</time>
      </trkpt>
      <trkpt lat="45.671" lon="5.51627">
        <ele>211</ele>
        <time>2022-04-16T09:34:00.540Z</time>
      </trkpt>
      <trkpt lat="45.67101" lon="5.51619">
        <ele>211</ele>
        <time>2022-04-16T09:34:01.540Z</time>
      </trkpt>
      <trkpt lat="45.67102" lon="5.51611">
        <ele>211</ele>
        <time>2022-04-16T09:34:02.540Z</time>
      </trkpt>
      <trkpt lat="45.67103" lon="5.51603">
        <ele>211</ele>
        <time>2022-04-16T09:34:03.541Z</time>
      </trkpt>
      <trkpt lat="45.67104" lon="5.51595">
        <ele>211</ele>
        <time>2022-04-16T09:34:04.540Z</time>
      </trkpt>
      <trkpt lat="45.67104" lon="5.51587">
        <ele>211</ele>
        <time>2022-04-16T09:34:05.541Z</time>
      </trkpt>
      <trkpt lat="45.67105" lon="5.51579">
        <ele>211</ele>
        <time>2022-04-16T09:34:06.541Z</time>
      </trkpt>
      <trkpt lat="45.67106" lon="5.51569">
        <ele>211</ele>
        <time>2022-04-16T09:34:07.541Z</time>
      </trkpt>
      <trkpt lat="45.67107" lon="5.51561">
        <ele>211</ele>
        <time>2022-04-16T09:34:08.541Z</time>
      </trkpt>
      <trkpt lat="45.67108" lon="5.51555">
        <ele>211</ele>
        <time>2022-04-16T09:34:09.541Z</time>
      </trkpt>
      <trkpt lat="45.67108" lon="5.51547">
        <ele>211</ele>
        <time>2022-04-16T09:34:10.541Z</time>
      </trkpt>
      <trkpt lat="45.67109" lon="5.51539">
        <ele>211</ele>
        <time>2022-04-16T09:34:11.541Z</time>
      </trkpt>
      <trkpt lat="45.6711" lon="5.51529">
        <ele>211</ele>
        <time>2022-04-16T09:34:12.541Z</time>
      </trkpt>
      <trkpt lat="45.67111" lon="5.51521">
        <ele>211</ele>
        <time>2022-04-16T09:34:13.541Z</time>
      </trkpt>
      <trkpt lat="45.67112" lon="5.51513">
        <ele>212</ele>
        <time>2022-04-16T09:34:14.541Z</time>
      </trkpt>
      <trkpt lat="45.67112" lon="5.51507">
        <ele>212</ele>
        <time>2022-04-16T09:34:15.541Z</time>
      </trkpt>
      <trkpt lat="45.67113" lon="5.51499">
        <ele>212</ele>
        <time>2022-04-16T09:34:16.541Z</time>
      </trkpt>
      <trkpt lat="45.67114" lon="5.5149">
        <ele>212</ele>
        <time>2022-04-16T09:34:17.541Z</time>
      </trkpt>
      <trkpt lat="45.67115" lon="5.51482">
        <ele>212</ele>
        <time>2022-04-16T09:34:18.541Z</time>
      </trkpt>
      <trkpt lat="45.67115" lon="5.51474">
        <ele>212</ele>
        <time>2022-04-16T09:34:19.541Z</time>
      </trkpt>
      <trkpt lat="45.67116" lon="5.51468">
        <ele>212</ele>
        <time>2022-04-16T09:34:20.541Z</time>
      </trkpt>
      <trkpt lat="45.67116" lon="5.5146">
        <ele>212</ele>
        <time>2022-04-16T09:34:21.541Z</time>
      </trkpt>
      <trkpt lat="45.67117" lon="5.51451">
        <ele>212</ele>
        <time>2022-04-16T09:34:22.541Z</time>
      </trkpt>
      <trkpt lat="45.67117" lon="5.51443">
        <ele>212</ele>
        <time>2022-04-16T09:34:23.540Z</time>
      </trkpt>
      <trkpt lat="45.67117" lon="5.51437">
        <ele>212</ele>
        <time>2022-04-16T09:34:24.541Z</time>
      </trkpt>
      <trkpt lat="45.67117" lon="5.51429">
        <ele>212</ele>
        <time>2022-04-16T09:34:25.541Z</time>
      </trkpt>
      <trkpt lat="45.67117" lon="5.51422">
        <ele>212</ele>
        <time>2022-04-16T09:34:26.541Z</time>
      </trkpt>
      <trkpt lat="45.67117" lon="5.51413">
        <ele>212</ele>
        <time>2022-04-16T09:34:27.541Z</time>
      </trkpt>
      <trkpt lat="45.67116" lon="5.51405">
        <ele>212</ele>
        <time>2022-04-16T09:34:28.540Z</time>
      </trkpt>
      <trkpt lat="45.67116" lon="5.51399">
        <ele>212</ele>
        <time>2022-04-16T09:34:29.541Z</time>
      </trkpt>
      <trkpt lat="45.67116" lon="5.51392">
        <ele>212</ele>
        <time>2022-04-16T09:34:30.541Z</time>
      </trkpt>
      <trkpt lat="45.67115" lon="5.51384">
        <ele>212</ele>
        <time>2022-04-16T09:34:31.541Z</time>
      </trkpt>
      <trkpt lat="45.67114" lon="5.51377">
        <ele>211</ele>
        <time>2022-04-16T09:34:32.541Z</time>
      </trkpt>
      <trkpt lat="45.67114" lon="5.51368">
        <ele>211</ele>
        <time>2022-04-16T09:34:33.541Z</time>
      </trkpt>
      <trkpt lat="45.67113" lon="5.51362">
        <ele>211</ele>
        <time>2022-04-16T09:34:34.541Z</time>
      </trkpt>
      <trkpt lat="45.67112" lon="5.51354">
        <ele>211</ele>
        <time>2022-04-16T09:34:35.541Z</time>
      </trkpt>
      <trkpt lat="45.67111" lon="5.51345">
        <ele>211</ele>
        <time>2022-04-16T09:34:36.541Z</time>
      </trkpt>
      <trkpt lat="45.6711" lon="5.51338">
        <ele>211</ele>
        <time>2022-04-16T09:34:37.541Z</time>
      </trkpt>
      <trkpt lat="45.67109" lon="5.5133">
        <ele>211</ele>
        <time>2022-04-16T09:34:38.540Z</time>
      </trkpt>
      <trkpt lat="45.67108" lon="5.51324">
        <ele>210</ele>
        <time>2022-04-16T09:34:39.540Z</time>
      </trkpt>
      <trkpt lat="45.67107" lon="5.51317">
        <ele>210</ele>
        <time>2022-04-16T09:34:40.540Z</time>
      </trkpt>
      <trkpt lat="45.67105" lon="5.51308">
        <ele>210</ele>
        <time>2022-04-16T09:34:41.540Z</time>
      </trkpt>
      <trkpt lat="45.67104" lon="5.51301">
        <ele>210</ele>
        <time>2022-04-16T09:34:42.541Z</time>
      </trkpt>
      <trkpt lat="45.67103" lon="5.51294">
        <ele>209</ele>
        <time>2022-04-16T09:34:43.541Z</time>
      </trkpt>
      <trkpt lat="45.67102" lon="5.51288">
        <ele>209</ele>
        <time>2022-04-16T09:34:44.541Z</time>
      </trkpt>
      <trkpt lat="45.67101" lon="5.51281">
        <ele>209</ele>
        <time>2022-04-16T09:34:45.541Z</time>
      </trkpt>
      <trkpt lat="45.671" lon="5.51272">
        <ele>209</ele>
        <time>2022-04-16T09:34:46.540Z</time>
      </trkpt>
      <trkpt lat="45.67099" lon="5.51265">
        <ele>209</ele>
        <time>2022-04-16T09:34:47.540Z</time>
      </trkpt>
      <trkpt lat="45.67098" lon="5.5126">
        <ele>209</ele>
        <time>2022-04-16T09:34:48.541Z</time>
      </trkpt>
      <trkpt lat="45.67097" lon="5.51253">
        <ele>210</ele>
        <time>2022-04-16T09:34:49.541Z</time>
      </trkpt>
      <trkpt lat="45.67096" lon="5.51246">
        <ele>210</ele>
        <time>2022-04-16T09:34:50.541Z</time>
      </trkpt>
      <trkpt lat="45.67095" lon="5.51239">
        <ele>211</ele>
        <time>2022-04-16T09:34:51.541Z</time>
      </trkpt>
      <trkpt lat="45.67094" lon="5.51231">
        <ele>211</ele>
        <time>2022-04-16T09:34:52.541Z</time>
      </trkpt>
      <trkpt lat="45.67092" lon="5.51225">
        <ele>212</ele>
        <time>2022-04-16T09:34:53.541Z</time>
      </trkpt>
      <trkpt lat="45.67091" lon="5.51218">
        <ele>212</ele>
        <time>2022-04-16T09:34:54.541Z</time>
      </trkpt>
      <trkpt lat="45.6709" lon="5.51211">
        <ele>212</ele>
        <time>2022-04-16T09:34:55.541Z</time>
      </trkpt>
      <trkpt lat="45.67089" lon="5.51204">
        <ele>212</ele>
        <time>2022-04-16T09:34:56.541Z</time>
      </trkpt>
      <trkpt lat="45.67087" lon="5.51195">
        <ele>212</ele>
        <time>2022-04-16T09:34:57.541Z</time>
      </trkpt>
      <trkpt lat="45.67087" lon="5.5119">
        <ele>212</ele>
        <time>2022-04-16T09:34:58.541Z</time>
      </trkpt>
      <trkpt lat="45.67086" lon="5.51183">
        <ele>212</ele>
        <time>2022-04-16T09:34:59.540Z</time>
      </trkpt>
      <trkpt lat="45.67084" lon="5.51174">
        <ele>212</ele>
        <time>2022-04-16T09:35:00.541Z</time>
      </trkpt>
      <trkpt lat="45.67083" lon="5.51168">
        <ele>212</ele>
        <time>2022-04-16T09:35:01.540Z</time>
      </trkpt>
      <trkpt lat="45.67082" lon="5.51161">
        <ele>211</ele>
        <time>2022-04-16T09:35:02.540Z</time>
      </trkpt>
      <trkpt lat="45.67081" lon="5.51156">
        <ele>211</ele>
        <time>2022-04-16T09:35:03.541Z</time>
      </trkpt>
      <trkpt lat="45.6708" lon="5.51149">
        <ele>211</ele>
        <time>2022-04-16T09:35:04.541Z</time>
      </trkpt>
      <trkpt lat="45.67079" lon="5.51141">
        <ele>210</ele>
        <time>2022-04-16T09:35:05.541Z</time>
      </trkpt>
      <trkpt lat="45.67078" lon="5.51135">
        <ele>210</ele>
        <time>2022-04-16T09:35:06.540Z</time>
      </trkpt>
      <trkpt lat="45.67077" lon="5.51127">
        <ele>210</ele>
        <time>2022-04-16T09:35:07.541Z</time>
      </trkpt>
      <trkpt lat="45.67076" lon="5.51121">
        <ele>210</ele>
        <time>2022-04-16T09:35:08.541Z</time>
      </trkpt>
      <trkpt lat="45.67075" lon="5.51114">
        <ele>210</ele>
        <time>2022-04-16T09:35:09.541Z</time>
      </trkpt>
      <trkpt lat="45.67074" lon="5.51108">
        <ele>210</ele>
        <time>2022-04-16T09:35:10.540Z</time>
      </trkpt>
      <trkpt lat="45.67073" lon="5.511">
        <ele>210</ele>
        <time>2022-04-16T09:35:11.541Z</time>
      </trkpt>
      <trkpt lat="45.67072" lon="5.51093">
        <ele>211</ele>
        <time>2022-04-16T09:35:12.541Z</time>
      </trkpt>
      <trkpt lat="45.67071" lon="5.51086">
        <ele>211</ele>
        <time>2022-04-16T09:35:13.541Z</time>
      </trkpt>
      <trkpt lat="45.6707" lon="5.5108">
        <ele>211</ele>
        <time>2022-04-16T09:35:14.540Z</time>
      </trkpt>
      <trkpt lat="45.67069" lon="5.51071">
        <ele>211</ele>
        <time>2022-04-16T09:35:15.541Z</time>
      </trkpt>
      <trkpt lat="45.67068" lon="5.51066">
        <ele>210</ele>
        <time>2022-04-16T09:35:16.541Z</time>
      </trkpt>
      <trkpt lat="45.67066" lon="5.51057">
        <ele>210</ele>
        <time>2022-04-16T09:35:17.541Z</time>
      </trkpt>
      <trkpt lat="45.67065" lon="5.51051">
        <ele>210</ele>
        <time>2022-04-16T09:35:18.541Z</time>
      </trkpt>
      <trkpt lat="45.67064" lon="5.51044">
        <ele>210</ele>
        <time>2022-04-16T09:35:19.540Z</time>
      </trkpt>
      <trkpt lat="45.67063" lon="5.51037">
        <ele>210</ele>
        <time>2022-04-16T09:35:20.541Z</time>
      </trkpt>
      <trkpt lat="45.67062" lon="5.51028">
        <ele>209</ele>
        <time>2022-04-16T09:35:21.541Z</time>
      </trkpt>
      <trkpt lat="45.67061" lon="5.51022">
        <ele>210</ele>
        <time>2022-04-16T09:35:22.541Z</time>
      </trkpt>
      <trkpt lat="45.6706" lon="5.51015">
        <ele>210</ele>
        <time>2022-04-16T09:35:23.540Z</time>
      </trkpt>
      <trkpt lat="45.67059" lon="5.51008">
        <ele>210</ele>
        <time>2022-04-16T09:35:24.541Z</time>
      </trkpt>
      <trkpt lat="45.67058" lon="5.51001">
        <ele>210</ele>
        <time>2022-04-16T09:35:25.540Z</time>
      </trkpt>
      <trkpt lat="45.67056" lon="5.50992">
        <ele>210</ele>
        <time>2022-04-16T09:35:26.541Z</time>
      </trkpt>
      <trkpt lat="45.67055" lon="5.50986">
        <ele>210</ele>
        <time>2022-04-16T09:35:27.541Z</time>
      </trkpt>
      <trkpt lat="45.67054" lon="5.50979">
        <ele>210</ele>
        <time>2022-04-16T09:35:28.541Z</time>
      </trkpt>
      <trkpt lat="45.67053" lon="5.5097">
        <ele>210</ele>
        <time>2022-04-16T09:35:29.540Z</time>
      </trkpt>
      <trkpt lat="45.67052" lon="5.50963">
        <ele>210</ele>
        <time>2022-04-16T09:35:30.541Z</time>
      </trkpt>
      <trkpt lat="45.67051" lon="5.50956">
        <ele>210</ele>
        <time>2022-04-16T09:35:31.541Z</time>
      </trkpt>
      <trkpt lat="45.6705" lon="5.50951">
        <ele>210</ele>
        <time>2022-04-16T09:35:32.541Z</time>
      </trkpt>
      <trkpt lat="45.67048" lon="5.50944">
        <ele>211</ele>
        <time>2022-04-16T09:35:33.541Z</time>
      </trkpt>
      <trkpt lat="45.67047" lon="5.50937">
        <ele>211</ele>
        <time>2022-04-16T09:35:34.540Z</time>
      </trkpt>
      <trkpt lat="45.67046" lon="5.50929">
        <ele>212</ele>
        <time>2022-04-16T09:35:35.541Z</time>
      </trkpt>
      <trkpt lat="45.67045" lon="5.50921">
        <ele>212</ele>
        <time>2022-04-16T09:35:36.541Z</time>
      </trkpt>
      <trkpt lat="45.67044" lon="5.50915">
        <ele>212</ele>
        <time>2022-04-16T09:35:37.541Z</time>
      </trkpt>
      <trkpt lat="45.67043" lon="5.50908">
        <ele>213</ele>
        <time>2022-04-16T09:35:38.541Z</time>
      </trkpt>
      <trkpt lat="45.67041" lon="5.509">
        <ele>213</ele>
        <time>2022-04-16T09:35:39.540Z</time>
      </trkpt>
      <trkpt lat="45.6704" lon="5.50893">
        <ele>213</ele>
        <time>2022-04-16T09:35:40.541Z</time>
      </trkpt>
      <trkpt lat="45.67039" lon="5.50886">
        <ele>212</ele>
        <time>2022-04-16T09:35:41.540Z</time>
      </trkpt>
      <trkpt lat="45.67038" lon="5.5088">
        <ele>212</ele>
        <time>2022-04-16T09:35:42.541Z</time>
      </trkpt>
      <trkpt lat="45.67037" lon="5.50873">
        <ele>212</ele>
        <time>2022-04-16T09:35:43.541Z</time>
      </trkpt>
      <trkpt lat="45.67036" lon="5.50864">
        <ele>212</ele>
        <time>2022-04-16T09:35:44.541Z</time>
      </trkpt>
      <trkpt lat="45.67035" lon="5.50857">
        <ele>212</ele>
        <time>2022-04-16T09:35:45.540Z</time>
      </trkpt>
      <trkpt lat="45.67034" lon="5.50851">
        <ele>212</ele>
        <time>2022-04-16T09:35:46.541Z</time>
      </trkpt>
      <trkpt lat="45.67033" lon="5.50844">
        <ele>212</ele>
        <time>2022-04-16T09:35:47.541Z</time>
      </trkpt>
      <trkpt lat="45.67031" lon="5.50837">
        <ele>212</ele>
        <time>2022-04-16T09:35:48.541Z</time>
      </trkpt>
      <trkpt lat="45.6703" lon="5.50828">
        <ele>212</ele>
        <time>2022-04-16T09:35:49.541Z</time>
      </trkpt>
      <trkpt lat="45.67029" lon="5.50821">
        <ele>212</ele>
        <time>2022-04-16T09:35:50.540Z</time>
      </trkpt>
      <trkpt lat="45.67028" lon="5.50815">
        <ele>212</ele>
        <time>2022-04-16T09:35:51.541Z</time>
      </trkpt>
      <trkpt lat="45.67027" lon="5.50808">
        <ele>212</ele>
        <time>2022-04-16T09:35:52.541Z</time>
      </trkpt>
      <trkpt lat="45.67026" lon="5.50801">
        <ele>212</ele>
        <time>2022-04-16T09:35:53.541Z</time>
      </trkpt>
      <trkpt lat="45.67025" lon="5.50794">
        <ele>212</ele>
        <time>2022-04-16T09:35:54.541Z</time>
      </trkpt>
      <trkpt lat="45.67024" lon="5.50786">
        <ele>212</ele>
        <time>2022-04-16T09:35:55.541Z</time>
      </trkpt>
      <trkpt lat="45.67023" lon="5.50779">
        <ele>212</ele>
        <time>2022-04-16T09:35:56.541Z</time>
      </trkpt>
      <trkpt lat="45.67022" lon="5.50772">
        <ele>212</ele>
        <time>2022-04-16T09:35:57.541Z</time>
      </trkpt>
      <trkpt lat="45.6702" lon="5.50765">
        <ele>212</ele>
        <time>2022-04-16T09:35:58.541Z</time>
      </trkpt>
      <trkpt lat="45.67019" lon="5.50756">
        <ele>212</ele>
        <time>2022-04-16T09:35:59.541Z</time>
      </trkpt>
      <trkpt lat="45.67019" lon="5.50749">
        <ele>212</ele>
        <time>2022-04-16T09:36:00.541Z</time>
      </trkpt>
      <trkpt lat="45.67018" lon="5.50743">
        <ele>212</ele>
        <time>2022-04-16T09:36:01.540Z</time>
      </trkpt>
      <trkpt lat="45.67017" lon="5.50736">
        <ele>212</ele>
        <time>2022-04-16T09:36:02.540Z</time>
      </trkpt>
      <trkpt lat="45.67016" lon="5.50728">
        <ele>212</ele>
        <time>2022-04-16T09:36:03.541Z</time>
      </trkpt>
      <trkpt lat="45.67016" lon="5.50721">
        <ele>212</ele>
        <time>2022-04-16T09:36:04.541Z</time>
      </trkpt>
      <trkpt lat="45.67015" lon="5.50713">
        <ele>212</ele>
        <time>2022-04-16T09:36:05.541Z</time>
      </trkpt>
      <trkpt lat="45.67015" lon="5.50707">
        <ele>212</ele>
        <time>2022-04-16T09:36:06.540Z</time>
      </trkpt>
      <trkpt lat="45.67014" lon="5.507">
        <ele>212</ele>
        <time>2022-04-16T09:36:07.540Z</time>
      </trkpt>
      <trkpt lat="45.67014" lon="5.50691">
        <ele>212</ele>
        <time>2022-04-16T09:36:08.540Z</time>
      </trkpt>
      <trkpt lat="45.67013" lon="5.50684">
        <ele>212</ele>
        <time>2022-04-16T09:36:09.541Z</time>
      </trkpt>
      <trkpt lat="45.67013" lon="5.50677">
        <ele>212</ele>
        <time>2022-04-16T09:36:10.541Z</time>
      </trkpt>
      <trkpt lat="45.67013" lon="5.50672">
        <ele>212</ele>
        <time>2022-04-16T09:36:11.541Z</time>
      </trkpt>
      <trkpt lat="45.67013" lon="5.50664">
        <ele>212</ele>
        <time>2022-04-16T09:36:12.541Z</time>
      </trkpt>
      <trkpt lat="45.67012" lon="5.50656">
        <ele>213</ele>
        <time>2022-04-16T09:36:13.540Z</time>
      </trkpt>
      <trkpt lat="45.67012" lon="5.5065">
        <ele>213</ele>
        <time>2022-04-16T09:36:14.541Z</time>
      </trkpt>
      <trkpt lat="45.67012" lon="5.50643">
        <ele>213</ele>
        <time>2022-04-16T09:36:15.541Z</time>
      </trkpt>
      <trkpt lat="45.67012" lon="5.50636">
        <ele>213</ele>
        <time>2022-04-16T09:36:16.541Z</time>
      </trkpt>
      <trkpt lat="45.67012" lon="5.50628">
        <ele>213</ele>
        <time>2022-04-16T09:36:17.540Z</time>
      </trkpt>
      <trkpt lat="45.67013" lon="5.50621">
        <ele>213</ele>
        <time>2022-04-16T09:36:18.541Z</time>
      </trkpt>
      <trkpt lat="45.67013" lon="5.50613">
        <ele>213</ele>
        <time>2022-04-16T09:36:19.541Z</time>
      </trkpt>
      <trkpt lat="45.67013" lon="5.50608">
        <ele>212</ele>
        <time>2022-04-16T09:36:20.541Z</time>
      </trkpt>
      <trkpt lat="45.67014" lon="5.50601">
        <ele>212</ele>
        <time>2022-04-16T09:36:21.541Z</time>
      </trkpt>
      <trkpt lat="45.67014" lon="5.50594">
        <ele>212</ele>
        <time>2022-04-16T09:36:22.540Z</time>
      </trkpt>
      <trkpt lat="45.67015" lon="5.50586">
        <ele>212</ele>
        <time>2022-04-16T09:36:23.541Z</time>
      </trkpt>
      <trkpt lat="45.67015" lon="5.50579">
        <ele>212</ele>
        <time>2022-04-16T09:36:24.540Z</time>
      </trkpt>
      <trkpt lat="45.67016" lon="5.50574">
        <ele>212</ele>
        <time>2022-04-16T09:36:25.541Z</time>
      </trkpt>
      <trkpt lat="45.67016" lon="5.50567">
        <ele>212</ele>
        <time>2022-04-16T09:36:26.540Z</time>
      </trkpt>
      <trkpt lat="45.67017" lon="5.50559">
        <ele>212</ele>
        <time>2022-04-16T09:36:27.541Z</time>
      </trkpt>
      <trkpt lat="45.67017" lon="5.50553">
        <ele>212</ele>
        <time>2022-04-16T09:36:28.540Z</time>
      </trkpt>
      <trkpt lat="45.67018" lon="5.50545">
        <ele>212</ele>
        <time>2022-04-16T09:36:29.541Z</time>
      </trkpt>
      <trkpt lat="45.67019" lon="5.5054">
        <ele>212</ele>
        <time>2022-04-16T09:36:30.541Z</time>
      </trkpt>
      <trkpt lat="45.67019" lon="5.50533">
        <ele>211</ele>
        <time>2022-04-16T09:36:31.540Z</time>
      </trkpt>
      <trkpt lat="45.6702" lon="5.50526">
        <ele>211</ele>
        <time>2022-04-16T09:36:32.541Z</time>
      </trkpt>
      <trkpt lat="45.6702" lon="5.50518">
        <ele>211</ele>
        <time>2022-04-16T09:36:33.541Z</time>
      </trkpt>
      <trkpt lat="45.67021" lon="5.50512">
        <ele>211</ele>
        <time>2022-04-16T09:36:34.541Z</time>
      </trkpt>
      <trkpt lat="45.67021" lon="5.50505">
        <ele>211</ele>
        <time>2022-04-16T09:36:35.540Z</time>
      </trkpt>
      <trkpt lat="45.67022" lon="5.50498">
        <ele>211</ele>
        <time>2022-04-16T09:36:36.541Z</time>
      </trkpt>
      <trkpt lat="45.67023" lon="5.50491">
        <ele>212</ele>
        <time>2022-04-16T09:36:37.541Z</time>
      </trkpt>
      <trkpt lat="45.67023" lon="5.50484">
        <ele>212</ele>
        <time>2022-04-16T09:36:38.540Z</time>
      </trkpt>
      <trkpt lat="45.67024" lon="5.50477">
        <ele>212</ele>
        <time>2022-04-16T09:36:39.541Z</time>
      </trkpt>
      <trkpt lat="45.67024" lon="5.5047">
        <ele>212</ele>
        <time>2022-04-16T09:36:40.540Z</time>
      </trkpt>
      <trkpt lat="45.67025" lon="5.50462">
        <ele>212</ele>
        <time>2022-04-16T09:36:41.540Z</time>
      </trkpt>
      <trkpt lat="45.67026" lon="5.50454">
        <ele>212</ele>
        <time>2022-04-16T09:36:42.541Z</time>
      </trkpt>
      <trkpt lat="45.67026" lon="5.50447">
        <ele>212</ele>
        <time>2022-04-16T09:36:43.541Z</time>
      </trkpt>
      <trkpt lat="45.67027" lon="5.50441">
        <ele>211</ele>
        <time>2022-04-16T09:36:44.541Z</time>
      </trkpt>
      <trkpt lat="45.67027" lon="5.50433">
        <ele>211</ele>
        <time>2022-04-16T09:36:45.540Z</time>
      </trkpt>
      <trkpt lat="45.67028" lon="5.50425">
        <ele>211</ele>
        <time>2022-04-16T09:36:46.541Z</time>
      </trkpt>
      <trkpt lat="45.67029" lon="5.50416">
        <ele>211</ele>
        <time>2022-04-16T09:36:47.541Z</time>
      </trkpt>
      <trkpt lat="45.67029" lon="5.50408">
        <ele>211</ele>
        <time>2022-04-16T09:36:48.541Z</time>
      </trkpt>
      <trkpt lat="45.6703" lon="5.50402">
        <ele>210</ele>
        <time>2022-04-16T09:36:49.541Z</time>
      </trkpt>
      <trkpt lat="45.6703" lon="5.50394">
        <ele>210</ele>
        <time>2022-04-16T09:36:50.540Z</time>
      </trkpt>
      <trkpt lat="45.67031" lon="5.50385">
        <ele>210</ele>
        <time>2022-04-16T09:36:51.541Z</time>
      </trkpt>
      <trkpt lat="45.67031" lon="5.50379">
        <ele>210</ele>
        <time>2022-04-16T09:36:52.541Z</time>
      </trkpt>
      <trkpt lat="45.67032" lon="5.50371">
        <ele>210</ele>
        <time>2022-04-16T09:36:53.541Z</time>
      </trkpt>
      <trkpt lat="45.67032" lon="5.50362">
        <ele>210</ele>
        <time>2022-04-16T09:36:54.541Z</time>
      </trkpt>
      <trkpt lat="45.67033" lon="5.50354">
        <ele>210</ele>
        <time>2022-04-16T09:36:55.541Z</time>
      </trkpt>
      <trkpt lat="45.67033" lon="5.50345">
        <ele>210</ele>
        <time>2022-04-16T09:36:56.541Z</time>
      </trkpt>
      <trkpt lat="45.67034" lon="5.50338">
        <ele>211</ele>
        <time>2022-04-16T09:36:57.541Z</time>
      </trkpt>
      <trkpt lat="45.67034" lon="5.5033">
        <ele>211</ele>
        <time>2022-04-16T09:36:58.541Z</time>
      </trkpt>
      <trkpt lat="45.67035" lon="5.50322">
        <ele>211</ele>
        <time>2022-04-16T09:36:59.541Z</time>
      </trkpt>
      <trkpt lat="45.67035" lon="5.50314">
        <ele>211</ele>
        <time>2022-04-16T09:37:00.540Z</time>
      </trkpt>
      <trkpt lat="45.67036" lon="5.50305">
        <ele>210</ele>
        <time>2022-04-16T09:37:01.540Z</time>
      </trkpt>
      <trkpt lat="45.67037" lon="5.50298">
        <ele>210</ele>
        <time>2022-04-16T09:37:02.541Z</time>
      </trkpt>
      <trkpt lat="45.67037" lon="5.50289">
        <ele>210</ele>
        <time>2022-04-16T09:37:03.541Z</time>
      </trkpt>
      <trkpt lat="45.67038" lon="5.50283">
        <ele>209</ele>
        <time>2022-04-16T09:37:04.540Z</time>
      </trkpt>
      <trkpt lat="45.67038" lon="5.50275">
        <ele>209</ele>
        <time>2022-04-16T09:37:05.541Z</time>
      </trkpt>
      <trkpt lat="45.67039" lon="5.50266">
        <ele>209</ele>
        <time>2022-04-16T09:37:06.541Z</time>
      </trkpt>
      <trkpt lat="45.6704" lon="5.50258">
        <ele>209</ele>
        <time>2022-04-16T09:37:07.541Z</time>
      </trkpt>
      <trkpt lat="45.67041" lon="5.5025">
        <ele>208</ele>
        <time>2022-04-16T09:37:08.540Z</time>
      </trkpt>
      <trkpt lat="45.67041" lon="5.50244">
        <ele>208</ele>
        <time>2022-04-16T09:37:09.541Z</time>
      </trkpt>
      <trkpt lat="45.67042" lon="5.50237">
        <ele>208</ele>
        <time>2022-04-16T09:37:10.541Z</time>
      </trkpt>
      <trkpt lat="45.67042" lon="5.50227">
        <ele>208</ele>
        <time>2022-04-16T09:37:11.540Z</time>
      </trkpt>
      <trkpt lat="45.67043" lon="5.50219">
        <ele>208</ele>
        <time>2022-04-16T09:37:12.541Z</time>
      </trkpt>
      <trkpt lat="45.67044" lon="5.50213">
        <ele>208</ele>
        <time>2022-04-16T09:37:13.541Z</time>
      </trkpt>
      <trkpt lat="45.67044" lon="5.50205">
        <ele>208</ele>
        <time>2022-04-16T09:37:14.540Z</time>
      </trkpt>
      <trkpt lat="45.67045" lon="5.50198">
        <ele>208</ele>
        <time>2022-04-16T09:37:15.541Z</time>
      </trkpt>
      <trkpt lat="45.67045" lon="5.5019">
        <ele>208</ele>
        <time>2022-04-16T09:37:16.541Z</time>
      </trkpt>
      <trkpt lat="45.67046" lon="5.50182">
        <ele>208</ele>
        <time>2022-04-16T09:37:17.540Z</time>
      </trkpt>
      <trkpt lat="45.67046" lon="5.50175">
        <ele>208</ele>
        <time>2022-04-16T09:37:18.540Z</time>
      </trkpt>
      <trkpt lat="45.67047" lon="5.50167">
        <ele>208</ele>
        <time>2022-04-16T09:37:19.541Z</time>
      </trkpt>
      <trkpt lat="45.67047" lon="5.50159">
        <ele>208</ele>
        <time>2022-04-16T09:37:20.540Z</time>
      </trkpt>
      <trkpt lat="45.67048" lon="5.5015">
        <ele>208</ele>
        <time>2022-04-16T09:37:21.540Z</time>
      </trkpt>
      <trkpt lat="45.67048" lon="5.50143">
        <ele>208</ele>
        <time>2022-04-16T09:37:22.541Z</time>
      </trkpt>
      <trkpt lat="45.67049" lon="5.50137">
        <ele>207</ele>
        <time>2022-04-16T09:37:23.540Z</time>
      </trkpt>
      <trkpt lat="45.6705" lon="5.5013">
        <ele>207</ele>
        <time>2022-04-16T09:37:24.541Z</time>
      </trkpt>
      <trkpt lat="45.6705" lon="5.50122">
        <ele>207</ele>
        <time>2022-04-16T09:37:25.541Z</time>
      </trkpt>
      <trkpt lat="45.67051" lon="5.50115">
        <ele>208</ele>
        <time>2022-04-16T09:37:26.541Z</time>
      </trkpt>
      <trkpt lat="45.67051" lon="5.50106">
        <ele>208</ele>
        <time>2022-04-16T09:37:27.540Z</time>
      </trkpt>
      <trkpt lat="45.67052" lon="5.501">
        <ele>208</ele>
        <time>2022-04-16T09:37:28.541Z</time>
      </trkpt>
      <trkpt lat="45.67052" lon="5.50092">
        <ele>208</ele>
        <time>2022-04-16T09:37:29.540Z</time>
      </trkpt>
      <trkpt lat="45.67052" lon="5.50083">
        <ele>209</ele>
        <time>2022-04-16T09:37:30.541Z</time>
      </trkpt>
      <trkpt lat="45.67053" lon="5.50076">
        <ele>209</ele>
        <time>2022-04-16T09:37:31.540Z</time>
      </trkpt>
      <trkpt lat="45.67054" lon="5.50068">
        <ele>209</ele>
        <time>2022-04-16T09:37:32.541Z</time>
      </trkpt>
      <trkpt lat="45.67054" lon="5.50062">
        <ele>209</ele>
        <time>2022-04-16T09:37:33.541Z</time>
      </trkpt>
      <trkpt lat="45.67055" lon="5.50055">
        <ele>209</ele>
        <time>2022-04-16T09:37:34.540Z</time>
      </trkpt>
      <trkpt lat="45.67055" lon="5.50046">
        <ele>208</ele>
        <time>2022-04-16T09:37:35.540Z</time>
      </trkpt>
      <trkpt lat="45.67056" lon="5.50039">
        <ele>208</ele>
        <time>2022-04-16T09:37:36.540Z</time>
      </trkpt>
      <trkpt lat="45.67056" lon="5.50031">
        <ele>208</ele>
        <time>2022-04-16T09:37:37.541Z</time>
      </trkpt>
      <trkpt lat="45.67057" lon="5.50025">
        <ele>208</ele>
        <time>2022-04-16T09:37:38.540Z</time>
      </trkpt>
      <trkpt lat="45.67057" lon="5.50018">
        <ele>208</ele>
        <time>2022-04-16T09:37:39.540Z</time>
      </trkpt>
      <trkpt lat="45.67057" lon="5.5001">
        <ele>208</ele>
        <time>2022-04-16T09:37:40.541Z</time>
      </trkpt>
      <trkpt lat="45.67058" lon="5.50003">
        <ele>208</ele>
        <time>2022-04-16T09:37:41.540Z</time>
      </trkpt>
      <trkpt lat="45.67059" lon="5.49994">
        <ele>208</ele>
        <time>2022-04-16T09:37:42.540Z</time>
      </trkpt>
      <trkpt lat="45.67059" lon="5.49989">
        <ele>207</ele>
        <time>2022-04-16T09:37:43.540Z</time>
      </trkpt>
      <trkpt lat="45.6706" lon="5.49981">
        <ele>207</ele>
        <time>2022-04-16T09:37:44.541Z</time>
      </trkpt>
      <trkpt lat="45.6706" lon="5.49974">
        <ele>207</ele>
        <time>2022-04-16T09:37:45.540Z</time>
      </trkpt>
      <trkpt lat="45.67061" lon="5.49965">
        <ele>207</ele>
        <time>2022-04-16T09:37:46.540Z</time>
      </trkpt>
      <trkpt lat="45.67061" lon="5.49959">
        <ele>207</ele>
        <time>2022-04-16T09:37:47.541Z</time>
      </trkpt>
      <trkpt lat="45.67062" lon="5.49952">
        <ele>208</ele>
        <time>2022-04-16T09:37:48.541Z</time>
      </trkpt>
      <trkpt lat="45.67062" lon="5.49945">
        <ele>208</ele>
        <time>2022-04-16T09:37:49.541Z</time>
      </trkpt>
      <trkpt lat="45.67063" lon="5.49937">
        <ele>207</ele>
        <time>2022-04-16T09:37:50.541Z</time>
      </trkpt>
      <trkpt lat="45.67063" lon="5.49928">
        <ele>207</ele>
        <time>2022-04-16T09:37:51.541Z</time>
      </trkpt>
      <trkpt lat="45.67064" lon="5.49923">
        <ele>207</ele>
        <time>2022-04-16T09:37:52.540Z</time>
      </trkpt>
      <trkpt lat="45.67064" lon="5.49916">
        <ele>207</ele>
        <time>2022-04-16T09:37:53.541Z</time>
      </trkpt>
      <trkpt lat="45.67065" lon="5.49909">
        <ele>207</ele>
        <time>2022-04-16T09:37:54.541Z</time>
      </trkpt>
      <trkpt lat="45.67066" lon="5.49901">
        <ele>207</ele>
        <time>2022-04-16T09:37:55.541Z</time>
      </trkpt>
      <trkpt lat="45.67066" lon="5.49894">
        <ele>207</ele>
        <time>2022-04-16T09:37:56.541Z</time>
      </trkpt>
      <trkpt lat="45.67067" lon="5.49888">
        <ele>207</ele>
        <time>2022-04-16T09:37:57.540Z</time>
      </trkpt>
      <trkpt lat="45.67067" lon="5.49881">
        <ele>207</ele>
        <time>2022-04-16T09:37:58.540Z</time>
      </trkpt>
      <trkpt lat="45.67068" lon="5.49874">
        <ele>207</ele>
        <time>2022-04-16T09:37:59.541Z</time>
      </trkpt>
      <trkpt lat="45.67068" lon="5.49867">
        <ele>207</ele>
        <time>2022-04-16T09:38:00.540Z</time>
      </trkpt>
      <trkpt lat="45.67069" lon="5.4986">
        <ele>207</ele>
        <time>2022-04-16T09:38:01.541Z</time>
      </trkpt>
      <trkpt lat="45.67069" lon="5.49853">
        <ele>207</ele>
        <time>2022-04-16T09:38:02.540Z</time>
      </trkpt>
      <trkpt lat="45.6707" lon="5.49846">
        <ele>207</ele>
        <time>2022-04-16T09:38:03.540Z</time>
      </trkpt>
      <trkpt lat="45.6707" lon="5.49838">
        <ele>207</ele>
        <time>2022-04-16T09:38:04.541Z</time>
      </trkpt>
      <trkpt lat="45.67071" lon="5.49831">
        <ele>206</ele>
        <time>2022-04-16T09:38:05.541Z</time>
      </trkpt>
      <trkpt lat="45.67071" lon="5.49824">
        <ele>206</ele>
        <time>2022-04-16T09:38:06.540Z</time>
      </trkpt>
      <trkpt lat="45.67072" lon="5.49817">
        <ele>206</ele>
        <time>2022-04-16T09:38:07.541Z</time>
      </trkpt>
      <trkpt lat="45.67072" lon="5.49809">
        <ele>207</ele>
        <time>2022-04-16T09:38:08.541Z</time>
      </trkpt>
      <trkpt lat="45.67073" lon="5.49801">
        <ele>207</ele>
        <time>2022-04-16T09:38:09.540Z</time>
      </trkpt>
      <trkpt lat="45.67073" lon="5.49792">
        <ele>207</ele>
        <time>2022-04-16T09:38:10.541Z</time>
      </trkpt>
      <trkpt lat="45.67074" lon="5.49784">
        <ele>207</ele>
        <time>2022-04-16T09:38:11.540Z</time>
      </trkpt>
      <trkpt lat="45.67074" lon="5.49776">
        <ele>208</ele>
        <time>2022-04-16T09:38:12.541Z</time>
      </trkpt>
      <trkpt lat="45.67075" lon="5.4977">
        <ele>208</ele>
        <time>2022-04-16T09:38:13.541Z</time>
      </trkpt>
      <trkpt lat="45.67075" lon="5.49762">
        <ele>208</ele>
        <time>2022-04-16T09:38:14.541Z</time>
      </trkpt>
      <trkpt lat="45.67076" lon="5.49755">
        <ele>208</ele>
        <time>2022-04-16T09:38:15.541Z</time>
      </trkpt>
      <trkpt lat="45.67076" lon="5.49745">
        <ele>208</ele>
        <time>2022-04-16T09:38:16.541Z</time>
      </trkpt>
      <trkpt lat="45.67077" lon="5.49739">
        <ele>208</ele>
        <time>2022-04-16T09:38:17.541Z</time>
      </trkpt>
      <trkpt lat="45.67077" lon="5.49731">
        <ele>208</ele>
        <time>2022-04-16T09:38:18.540Z</time>
      </trkpt>
      <trkpt lat="45.67078" lon="5.49723">
        <ele>208</ele>
        <time>2022-04-16T09:38:19.540Z</time>
      </trkpt>
      <trkpt lat="45.67079" lon="5.49716">
        <ele>208</ele>
        <time>2022-04-16T09:38:20.540Z</time>
      </trkpt>
      <trkpt lat="45.67079" lon="5.49706">
        <ele>208</ele>
        <time>2022-04-16T09:38:21.541Z</time>
      </trkpt>
      <trkpt lat="45.6708" lon="5.497">
        <ele>208</ele>
        <time>2022-04-16T09:38:22.541Z</time>
      </trkpt>
      <trkpt lat="45.6708" lon="5.49692">
        <ele>208</ele>
        <time>2022-04-16T09:38:23.540Z</time>
      </trkpt>
      <trkpt lat="45.67081" lon="5.49682">
        <ele>208</ele>
        <time>2022-04-16T09:38:24.540Z</time>
      </trkpt>
      <trkpt lat="45.67082" lon="5.49674">
        <ele>208</ele>
        <time>2022-04-16T09:38:25.541Z</time>
      </trkpt>
      <trkpt lat="45.67082" lon="5.49666">
        <ele>207</ele>
        <time>2022-04-16T09:38:26.541Z</time>
      </trkpt>
      <trkpt lat="45.67082" lon="5.4966">
        <ele>208</ele>
        <time>2022-04-16T09:38:27.540Z</time>
      </trkpt>
      <trkpt lat="45.67083" lon="5.49652">
        <ele>208</ele>
        <time>2022-04-16T09:38:28.540Z</time>
      </trkpt>
      <trkpt lat="45.67084" lon="5.49642">
        <ele>208</ele>
        <time>2022-04-16T09:38:29.541Z</time>
      </trkpt>
      <trkpt lat="45.67084" lon="5.49635">
        <ele>207</ele>
        <time>2022-04-16T09:38:30.541Z</time>
      </trkpt>
      <trkpt lat="45.67085" lon="5.49628">
        <ele>207</ele>
        <time>2022-04-16T09:38:31.541Z</time>
      </trkpt>
      <trkpt lat="45.67085" lon="5.49621">
        <ele>207</ele>
        <time>2022-04-16T09:38:32.540Z</time>
      </trkpt>
      <trkpt lat="45.67086" lon="5.49613">
        <ele>207</ele>
        <time>2022-04-16T09:38:33.541Z</time>
      </trkpt>
      <trkpt lat="45.67087" lon="5.49604">
        <ele>207</ele>
        <time>2022-04-16T09:38:34.541Z</time>
      </trkpt>
      <trkpt lat="45.67088" lon="5.49596">
        <ele>208</ele>
        <time>2022-04-16T09:38:35.541Z</time>
      </trkpt>
      <trkpt lat="45.67088" lon="5.4959">
        <ele>208</ele>
        <time>2022-04-16T09:38:36.541Z</time>
      </trkpt>
      <trkpt lat="45.67089" lon="5.49583">
        <ele>208</ele>
        <time>2022-04-16T09:38:37.541Z</time>
      </trkpt>
      <trkpt lat="45.6709" lon="5.49575">
        <ele>208</ele>
        <time>2022-04-16T09:38:38.541Z</time>
      </trkpt>
      <trkpt lat="45.67091" lon="5.49566">
        <ele>208</ele>
        <time>2022-04-16T09:38:39.540Z</time>
      </trkpt>
      <trkpt lat="45.67091" lon="5.49559">
        <ele>208</ele>
        <time>2022-04-16T09:38:40.540Z</time>
      </trkpt>
      <trkpt lat="45.67092" lon="5.49553">
        <ele>209</ele>
        <time>2022-04-16T09:38:41.541Z</time>
      </trkpt>
      <trkpt lat="45.67093" lon="5.49546">
        <ele>209</ele>
        <time>2022-04-16T09:38:42.541Z</time>
      </trkpt>
      <trkpt lat="45.67094" lon="5.49539">
        <ele>209</ele>
        <time>2022-04-16T09:38:43.541Z</time>
      </trkpt>
      <trkpt lat="45.67094" lon="5.49532">
        <ele>209</ele>
        <time>2022-04-16T09:38:44.540Z</time>
      </trkpt>
      <trkpt lat="45.67095" lon="5.49523">
        <ele>209</ele>
        <time>2022-04-16T09:38:45.541Z</time>
      </trkpt>
      <trkpt lat="45.67096" lon="5.49517">
        <ele>209</ele>
        <time>2022-04-16T09:38:46.541Z</time>
      </trkpt>
      <trkpt lat="45.67097" lon="5.4951">
        <ele>209</ele>
        <time>2022-04-16T09:38:47.541Z</time>
      </trkpt>
      <trkpt lat="45.67097" lon="5.49503">
        <ele>210</ele>
        <time>2022-04-16T09:38:48.541Z</time>
      </trkpt>
      <trkpt lat="45.67098" lon="5.49496">
        <ele>210</ele>
        <time>2022-04-16T09:38:49.540Z</time>
      </trkpt>
      <trkpt lat="45.67099" lon="5.49487">
        <ele>210</ele>
        <time>2022-04-16T09:38:50.541Z</time>
      </trkpt>
      <trkpt lat="45.671" lon="5.49482">
        <ele>210</ele>
        <time>2022-04-16T09:38:51.540Z</time>
      </trkpt>
      <trkpt lat="45.67101" lon="5.49474">
        <ele>210</ele>
        <time>2022-04-16T09:38:52.541Z</time>
      </trkpt>
      <trkpt lat="45.67102" lon="5.49467">
        <ele>211</ele>
        <time>2022-04-16T09:38:53.541Z</time>
      </trkpt>
      <trkpt lat="45.67103" lon="5.49459">
        <ele>211</ele>
        <time>2022-04-16T09:38:54.540Z</time>
      </trkpt>
      <trkpt lat="45.67104" lon="5.49451">
        <ele>211</ele>
        <time>2022-04-16T09:38:55.540Z</time>
      </trkpt>
      <trkpt lat="45.67105" lon="5.49446">
        <ele>211</ele>
        <time>2022-04-16T09:38:56.541Z</time>
      </trkpt>
      <trkpt lat="45.67106" lon="5.49439">
        <ele>211</ele>
        <time>2022-04-16T09:38:57.541Z</time>
      </trkpt>
      <trkpt lat="45.67107" lon="5.4943">
        <ele>211</ele>
        <time>2022-04-16T09:38:58.541Z</time>
      </trkpt>
      <trkpt lat="45.67108" lon="5.49423">
        <ele>211</ele>
        <time>2022-04-16T09:38:59.541Z</time>
      </trkpt>
      <trkpt lat="45.67109" lon="5.49416">
        <ele>211</ele>
        <time>2022-04-16T09:39:00.541Z</time>
      </trkpt>
      <trkpt lat="45.6711" lon="5.4941">
        <ele>210</ele>
        <time>2022-04-16T09:39:01.541Z</time>
      </trkpt>
      <trkpt lat="45.67111" lon="5.49403">
        <ele>210</ele>
        <time>2022-04-16T09:39:02.541Z</time>
      </trkpt>
      <trkpt lat="45.67112" lon="5.49394">
        <ele>210</ele>
        <time>2022-04-16T09:39:03.541Z</time>
      </trkpt>
      <trkpt lat="45.67112" lon="5.49388">
        <ele>210</ele>
        <time>2022-04-16T09:39:04.540Z</time>
      </trkpt>
      <trkpt lat="45.67113" lon="5.49381">
        <ele>210</ele>
        <time>2022-04-16T09:39:05.541Z</time>
      </trkpt>
      <trkpt lat="45.67114" lon="5.49374">
        <ele>210</ele>
        <time>2022-04-16T09:39:06.540Z</time>
      </trkpt>
      <trkpt lat="45.67115" lon="5.49367">
        <ele>210</ele>
        <time>2022-04-16T09:39:07.540Z</time>
      </trkpt>
      <trkpt lat="45.67116" lon="5.49358">
        <ele>211</ele>
        <time>2022-04-16T09:39:08.540Z</time>
      </trkpt>
      <trkpt lat="45.67117" lon="5.4935">
        <ele>211</ele>
        <time>2022-04-16T09:39:09.540Z</time>
      </trkpt>
      <trkpt lat="45.67118" lon="5.49343">
        <ele>211</ele>
        <time>2022-04-16T09:39:10.541Z</time>
      </trkpt>
      <trkpt lat="45.67119" lon="5.49337">
        <ele>211</ele>
        <time>2022-04-16T09:39:11.541Z</time>
      </trkpt>
      <trkpt lat="45.6712" lon="5.4933">
        <ele>211</ele>
        <time>2022-04-16T09:39:12.541Z</time>
      </trkpt>
      <trkpt lat="45.67121" lon="5.49321">
        <ele>210</ele>
        <time>2022-04-16T09:39:13.541Z</time>
      </trkpt>
      <trkpt lat="45.67122" lon="5.49314">
        <ele>210</ele>
        <time>2022-04-16T09:39:14.540Z</time>
      </trkpt>
      <trkpt lat="45.67123" lon="5.49306">
        <ele>211</ele>
        <time>2022-04-16T09:39:15.541Z</time>
      </trkpt>
      <trkpt lat="45.67124" lon="5.493">
        <ele>211</ele>
        <time>2022-04-16T09:39:16.541Z</time>
      </trkpt>
      <trkpt lat="45.67125" lon="5.49293">
        <ele>211</ele>
        <time>2022-04-16T09:39:17.541Z</time>
      </trkpt>
      <trkpt lat="45.67126" lon="5.49285">
        <ele>212</ele>
        <time>2022-04-16T09:39:18.540Z</time>
      </trkpt>
      <trkpt lat="45.67127" lon="5.49278">
        <ele>211</ele>
        <time>2022-04-16T09:39:19.540Z</time>
      </trkpt>
      <trkpt lat="45.67128" lon="5.49271">
        <ele>211</ele>
        <time>2022-04-16T09:39:20.541Z</time>
      </trkpt>
      <trkpt lat="45.67129" lon="5.49265">
        <ele>210</ele>
        <time>2022-04-16T09:39:21.541Z</time>
      </trkpt>
      <trkpt lat="45.67129" lon="5.49258">
        <ele>210</ele>
        <time>2022-04-16T09:39:22.540Z</time>
      </trkpt>
      <trkpt lat="45.6713" lon="5.4925">
        <ele>210</ele>
        <time>2022-04-16T09:39:23.540Z</time>
      </trkpt>
      <trkpt lat="45.67131" lon="5.49244">
        <ele>210</ele>
        <time>2022-04-16T09:39:24.540Z</time>
      </trkpt>
      <trkpt lat="45.67132" lon="5.49237">
        <ele>210</ele>
        <time>2022-04-16T09:39:25.541Z</time>
      </trkpt>
      <trkpt lat="45.67133" lon="5.49229">
        <ele>210</ele>
        <time>2022-04-16T09:39:26.540Z</time>
      </trkpt>
      <trkpt lat="45.67134" lon="5.49222">
        <ele>209</ele>
        <time>2022-04-16T09:39:27.541Z</time>
      </trkpt>
      <trkpt lat="45.67135" lon="5.49213">
        <ele>209</ele>
        <time>2022-04-16T09:39:28.540Z</time>
      </trkpt>
      <trkpt lat="45.67136" lon="5.49206">
        <ele>209</ele>
        <time>2022-04-16T09:39:29.540Z</time>
      </trkpt>
      <trkpt lat="45.67136" lon="5.492">
        <ele>210</ele>
        <time>2022-04-16T09:39:30.541Z</time>
      </trkpt>
      <trkpt lat="45.67137" lon="5.49193">
        <ele>210</ele>
        <time>2022-04-16T09:39:31.541Z</time>
      </trkpt>
      <trkpt lat="45.67138" lon="5.49184">
        <ele>209</ele>
        <time>2022-04-16T09:39:32.541Z</time>
      </trkpt>
      <trkpt lat="45.67139" lon="5.49177">
        <ele>209</ele>
        <time>2022-04-16T09:39:33.541Z</time>
      </trkpt>
      <trkpt lat="45.6714" lon="5.4917">
        <ele>210</ele>
        <time>2022-04-16T09:39:34.540Z</time>
      </trkpt>
      <trkpt lat="45.67141" lon="5.49165">
        <ele>210</ele>
        <time>2022-04-16T09:39:35.541Z</time>
      </trkpt>
      <trkpt lat="45.67142" lon="5.49157">
        <ele>210</ele>
        <time>2022-04-16T09:39:36.541Z</time>
      </trkpt>
      <trkpt lat="45.67143" lon="5.49149">
        <ele>209</ele>
        <time>2022-04-16T09:39:37.541Z</time>
      </trkpt>
      <trkpt lat="45.67144" lon="5.49141">
        <ele>209</ele>
        <time>2022-04-16T09:39:38.541Z</time>
      </trkpt>
      <trkpt lat="45.67145" lon="5.49134">
        <ele>209</ele>
        <time>2022-04-16T09:39:39.540Z</time>
      </trkpt>
      <trkpt lat="45.67146" lon="5.49128">
        <ele>209</ele>
        <time>2022-04-16T09:39:40.541Z</time>
      </trkpt>
      <trkpt lat="45.67147" lon="5.49121">
        <ele>210</ele>
        <time>2022-04-16T09:39:41.541Z</time>
      </trkpt>
      <trkpt lat="45.67148" lon="5.49112">
        <ele>209</ele>
        <time>2022-04-16T09:39:42.540Z</time>
      </trkpt>
      <trkpt lat="45.67149" lon="5.49105">
        <ele>209</ele>
        <time>2022-04-16T09:39:43.541Z</time>
      </trkpt>
      <trkpt lat="45.6715" lon="5.49098">
        <ele>209</ele>
        <time>2022-04-16T09:39:44.541Z</time>
      </trkpt>
      <trkpt lat="45.6715" lon="5.49093">
        <ele>209</ele>
        <time>2022-04-16T09:39:45.541Z</time>
      </trkpt>
      <trkpt lat="45.67151" lon="5.49085">
        <ele>209</ele>
        <time>2022-04-16T09:39:46.540Z</time>
      </trkpt>
      <trkpt lat="45.67152" lon="5.49077">
        <ele>210</ele>
        <time>2022-04-16T09:39:47.541Z</time>
      </trkpt>
      <trkpt lat="45.67153" lon="5.4907">
        <ele>209</ele>
        <time>2022-04-16T09:39:48.541Z</time>
      </trkpt>
      <trkpt lat="45.67154" lon="5.49063">
        <ele>209</ele>
        <time>2022-04-16T09:39:49.541Z</time>
      </trkpt>
      <trkpt lat="45.67155" lon="5.49057">
        <ele>209</ele>
        <time>2022-04-16T09:39:50.541Z</time>
      </trkpt>
      <trkpt lat="45.67156" lon="5.49048">
        <ele>209</ele>
        <time>2022-04-16T09:39:51.540Z</time>
      </trkpt>
      <trkpt lat="45.67157" lon="5.49041">
        <ele>209</ele>
        <time>2022-04-16T09:39:52.541Z</time>
      </trkpt>
      <trkpt lat="45.67158" lon="5.49034">
        <ele>209</ele>
        <time>2022-04-16T09:39:53.541Z</time>
      </trkpt>
      <trkpt lat="45.67159" lon="5.49028">
        <ele>209</ele>
        <time>2022-04-16T09:39:54.541Z</time>
      </trkpt>
      <trkpt lat="45.6716" lon="5.49021">
        <ele>209</ele>
        <time>2022-04-16T09:39:55.540Z</time>
      </trkpt>
      <trkpt lat="45.67161" lon="5.49013">
        <ele>209</ele>
        <time>2022-04-16T09:39:56.541Z</time>
      </trkpt>
      <trkpt lat="45.67162" lon="5.49005">
        <ele>209</ele>
        <time>2022-04-16T09:39:57.540Z</time>
      </trkpt>
      <trkpt lat="45.67163" lon="5.48998">
        <ele>209</ele>
        <time>2022-04-16T09:39:58.540Z</time>
      </trkpt>
      <trkpt lat="45.67164" lon="5.48992">
        <ele>209</ele>
        <time>2022-04-16T09:39:59.541Z</time>
      </trkpt>
      <trkpt lat="45.67164" lon="5.48984">
        <ele>209</ele>
        <time>2022-04-16T09:40:00.540Z</time>
      </trkpt>
      <trkpt lat="45.67165" lon="5.48976">
        <ele>209</ele>
        <time>2022-04-16T09:40:01.541Z</time>
      </trkpt>
      <trkpt lat="45.67166" lon="5.48968">
        <ele>209</ele>
        <time>2022-04-16T09:40:02.541Z</time>
      </trkpt>
      <trkpt lat="45.67167" lon="5.48961">
        <ele>210</ele>
        <time>2022-04-16T09:40:03.541Z</time>
      </trkpt>
      <trkpt lat="45.67168" lon="5.48955">
        <ele>210</ele>
        <time>2022-04-16T09:40:04.541Z</time>
      </trkpt>
      <trkpt lat="45.67169" lon="5.48948">
        <ele>210</ele>
        <time>2022-04-16T09:40:05.540Z</time>
      </trkpt>
      <trkpt lat="45.6717" lon="5.48939">
        <ele>211</ele>
        <time>2022-04-16T09:40:06.541Z</time>
      </trkpt>
      <trkpt lat="45.67171" lon="5.48932">
        <ele>211</ele>
        <time>2022-04-16T09:40:07.541Z</time>
      </trkpt>
      <trkpt lat="45.67172" lon="5.48925">
        <ele>211</ele>
        <time>2022-04-16T09:40:08.541Z</time>
      </trkpt>
      <trkpt lat="45.67172" lon="5.48919">
        <ele>211</ele>
        <time>2022-04-16T09:40:09.540Z</time>
      </trkpt>
      <trkpt lat="45.67173" lon="5.48912">
        <ele>211</ele>
        <time>2022-04-16T09:40:10.541Z</time>
      </trkpt>
      <trkpt lat="45.67175" lon="5.48903">
        <ele>211</ele>
        <time>2022-04-16T09:40:11.540Z</time>
      </trkpt>
      <trkpt lat="45.67176" lon="5.48895">
        <ele>211</ele>
        <time>2022-04-16T09:40:12.541Z</time>
      </trkpt>
      <trkpt lat="45.67177" lon="5.48888">
        <ele>210</ele>
        <time>2022-04-16T09:40:13.541Z</time>
      </trkpt>
      <trkpt lat="45.67178" lon="5.48882">
        <ele>210</ele>
        <time>2022-04-16T09:40:14.541Z</time>
      </trkpt>
      <trkpt lat="45.67179" lon="5.48875">
        <ele>210</ele>
        <time>2022-04-16T09:40:15.541Z</time>
      </trkpt>
      <trkpt lat="45.6718" lon="5.48866">
        <ele>211</ele>
        <time>2022-04-16T09:40:16.541Z</time>
      </trkpt>
      <trkpt lat="45.6718" lon="5.48858">
        <ele>211</ele>
        <time>2022-04-16T09:40:17.541Z</time>
      </trkpt>
      <trkpt lat="45.67181" lon="5.48851">
        <ele>211</ele>
        <time>2022-04-16T09:40:18.541Z</time>
      </trkpt>
      <trkpt lat="45.67182" lon="5.48844">
        <ele>211</ele>
        <time>2022-04-16T09:40:19.540Z</time>
      </trkpt>
      <trkpt lat="45.67183" lon="5.48838">
        <ele>211</ele>
        <time>2022-04-16T09:40:20.540Z</time>
      </trkpt>
      <trkpt lat="45.67184" lon="5.48829">
        <ele>211</ele>
        <time>2022-04-16T09:40:21.541Z</time>
      </trkpt>
      <trkpt lat="45.67185" lon="5.48821">
        <ele>210</ele>
        <time>2022-04-16T09:40:22.540Z</time>
      </trkpt>
      <trkpt lat="45.67186" lon="5.48816">
        <ele>210</ele>
        <time>2022-04-16T09:40:23.541Z</time>
      </trkpt>
      <trkpt lat="45.67187" lon="5.48808">
        <ele>210</ele>
        <time>2022-04-16T09:40:24.540Z</time>
      </trkpt>
      <trkpt lat="45.67188" lon="5.48801">
        <ele>210</ele>
        <time>2022-04-16T09:40:25.540Z</time>
      </trkpt>
      <trkpt lat="45.67189" lon="5.48792">
        <ele>209</ele>
        <time>2022-04-16T09:40:26.541Z</time>
      </trkpt>
      <trkpt lat="45.6719" lon="5.48784">
        <ele>209</ele>
        <time>2022-04-16T09:40:27.541Z</time>
      </trkpt>
      <trkpt lat="45.6719" lon="5.48778">
        <ele>209</ele>
        <time>2022-04-16T09:40:28.541Z</time>
      </trkpt>
      <trkpt lat="45.67191" lon="5.4877">
        <ele>209</ele>
        <time>2022-04-16T09:40:29.541Z</time>
      </trkpt>
      <trkpt lat="45.67192" lon="5.48761">
        <ele>209</ele>
        <time>2022-04-16T09:40:30.541Z</time>
      </trkpt>
      <trkpt lat="45.67193" lon="5.48754">
        <ele>210</ele>
        <time>2022-04-16T09:40:31.541Z</time>
      </trkpt>
      <trkpt lat="45.67194" lon="5.48746">
        <ele>210</ele>
        <time>2022-04-16T09:40:32.540Z</time>
      </trkpt>
      <trkpt lat="45.67195" lon="5.48738">
        <ele>210</ele>
        <time>2022-04-16T09:40:33.540Z</time>
      </trkpt>
      <trkpt lat="45.67196" lon="5.48733">
        <ele>211</ele>
        <time>2022-04-16T09:40:34.541Z</time>
      </trkpt>
      <trkpt lat="45.67197" lon="5.48724">
        <ele>211</ele>
        <time>2022-04-16T09:40:35.541Z</time>
      </trkpt>
      <trkpt lat="45.67198" lon="5.48716">
        <ele>211</ele>
        <time>2022-04-16T09:40:36.541Z</time>
      </trkpt>
      <trkpt lat="45.67199" lon="5.48709">
        <ele>211</ele>
        <time>2022-04-16T09:40:37.540Z</time>
      </trkpt>
      <trkpt lat="45.67199" lon="5.48703">
        <ele>211</ele>
        <time>2022-04-16T09:40:38.540Z</time>
      </trkpt>
      <trkpt lat="45.672" lon="5.48696">
        <ele>211</ele>
        <time>2022-04-16T09:40:39.541Z</time>
      </trkpt>
      <trkpt lat="45.67201" lon="5.48687">
        <ele>212</ele>
        <time>2022-04-16T09:40:40.540Z</time>
      </trkpt>
      <trkpt lat="45.67202" lon="5.4868">
        <ele>212</ele>
        <time>2022-04-16T09:40:41.541Z</time>
      </trkpt>
      <trkpt lat="45.67203" lon="5.48673">
        <ele>212</ele>
        <time>2022-04-16T09:40:42.541Z</time>
      </trkpt>
      <trkpt lat="45.67203" lon="5.48668">
        <ele>212</ele>
        <time>2022-04-16T09:40:43.540Z</time>
      </trkpt>
      <trkpt lat="45.67205" lon="5.48659">
        <ele>213</ele>
        <time>2022-04-16T09:40:44.540Z</time>
      </trkpt>
      <trkpt lat="45.67206" lon="5.48652">
        <ele>213</ele>
        <time>2022-04-16T09:40:45.541Z</time>
      </trkpt>
      <trkpt lat="45.67207" lon="5.48645">
        <ele>213</ele>
        <time>2022-04-16T09:40:46.540Z</time>
      </trkpt>
      <trkpt lat="45.67207" lon="5.48639">
        <ele>212</ele>
        <time>2022-04-16T09:40:47.541Z</time>
      </trkpt>
      <trkpt lat="45.67208" lon="5.48632">
        <ele>212</ele>
        <time>2022-04-16T09:40:48.541Z</time>
      </trkpt>
      <trkpt lat="45.67208" lon="5.48624">
        <ele>211</ele>
        <time>2022-04-16T09:40:49.541Z</time>
      </trkpt>
      <trkpt lat="45.67209" lon="5.48615">
        <ele>211</ele>
        <time>2022-04-16T09:40:50.541Z</time>
      </trkpt>
      <trkpt lat="45.67209" lon="5.48608">
        <ele>211</ele>
        <time>2022-04-16T09:40:51.540Z</time>
      </trkpt>
      <trkpt lat="45.67209" lon="5.48601">
        <ele>211</ele>
        <time>2022-04-16T09:40:52.541Z</time>
      </trkpt>
      <trkpt lat="45.67209" lon="5.48595">
        <ele>211</ele>
        <time>2022-04-16T09:40:53.541Z</time>
      </trkpt>
      <trkpt lat="45.6721" lon="5.48588">
        <ele>211</ele>
        <time>2022-04-16T09:40:54.541Z</time>
      </trkpt>
      <trkpt lat="45.6721" lon="5.48579">
        <ele>211</ele>
        <time>2022-04-16T09:40:55.540Z</time>
      </trkpt>
      <trkpt lat="45.67211" lon="5.48571">
        <ele>211</ele>
        <time>2022-04-16T09:40:56.541Z</time>
      </trkpt>
      <trkpt lat="45.67211" lon="5.48565">
        <ele>211</ele>
        <time>2022-04-16T09:40:57.540Z</time>
      </trkpt>
      <trkpt lat="45.67212" lon="5.48558">
        <ele>211</ele>
        <time>2022-04-16T09:40:58.541Z</time>
      </trkpt>
      <trkpt lat="45.67212" lon="5.48551">
        <ele>212</ele>
        <time>2022-04-16T09:40:59.541Z</time>
      </trkpt>
      <trkpt lat="45.67213" lon="5.48542">
        <ele>212</ele>
        <time>2022-04-16T09:41:00.541Z</time>
      </trkpt>
      <trkpt lat="45.67213" lon="5.48535">
        <ele>212</ele>
        <time>2022-04-16T09:41:01.541Z</time>
      </trkpt>
      <trkpt lat="45.67214" lon="5.48529">
        <ele>213</ele>
        <time>2022-04-16T09:41:02.541Z</time>
      </trkpt>
      <trkpt lat="45.67214" lon="5.48521">
        <ele>213</ele>
        <time>2022-04-16T09:41:03.541Z</time>
      </trkpt>
      <trkpt lat="45.67214" lon="5.48513">
        <ele>213</ele>
        <time>2022-04-16T09:41:04.541Z</time>
      </trkpt>
      <trkpt lat="45.67215" lon="5.48505">
        <ele>213</ele>
        <time>2022-04-16T09:41:05.540Z</time>
      </trkpt>
      <trkpt lat="45.67215" lon="5.48498">
        <ele>213</ele>
        <time>2022-04-16T09:41:06.540Z</time>
      </trkpt>
      <trkpt lat="45.67215" lon="5.48492">
        <ele>214</ele>
        <time>2022-04-16T09:41:07.541Z</time>
      </trkpt>
      <trkpt lat="45.67215" lon="5.48484">
        <ele>214</ele>
        <time>2022-04-16T09:41:08.540Z</time>
      </trkpt>
      <trkpt lat="45.67216" lon="5.48475">
        <ele>214</ele>
        <time>2022-04-16T09:41:09.541Z</time>
      </trkpt>
      <trkpt lat="45.67216" lon="5.48468">
        <ele>214</ele>
        <time>2022-04-16T09:41:10.541Z</time>
      </trkpt>
      <trkpt lat="45.67216" lon="5.4846">
        <ele>214</ele>
        <time>2022-04-16T09:41:11.541Z</time>
      </trkpt>
      <trkpt lat="45.67217" lon="5.48454">
        <ele>214</ele>
        <time>2022-04-16T09:41:12.541Z</time>
      </trkpt>
      <trkpt lat="45.67217" lon="5.48446">
        <ele>214</ele>
        <time>2022-04-16T09:41:13.541Z</time>
      </trkpt>
      <trkpt lat="45.67217" lon="5.48437">
        <ele>214</ele>
        <time>2022-04-16T09:41:14.540Z</time>
      </trkpt>
      <trkpt lat="45.67217" lon="5.4843">
        <ele>214</ele>
        <time>2022-04-16T09:41:15.540Z</time>
      </trkpt>
      <trkpt lat="45.67217" lon="5.48422">
        <ele>214</ele>
        <time>2022-04-16T09:41:16.541Z</time>
      </trkpt>
      <trkpt lat="45.67217" lon="5.48414">
        <ele>214</ele>
        <time>2022-04-16T09:41:17.540Z</time>
      </trkpt>
      <trkpt lat="45.67217" lon="5.48408">
        <ele>214</ele>
        <time>2022-04-16T09:41:18.540Z</time>
      </trkpt>
      <trkpt lat="45.67218" lon="5.484">
        <ele>214</ele>
        <time>2022-04-16T09:41:19.541Z</time>
      </trkpt>
      <trkpt lat="45.67218" lon="5.48392">
        <ele>214</ele>
        <time>2022-04-16T09:41:20.541Z</time>
      </trkpt>
      <trkpt lat="45.67218" lon="5.48385">
        <ele>214</ele>
        <time>2022-04-16T09:41:21.541Z</time>
      </trkpt>
      <trkpt lat="45.67219" lon="5.4838">
        <ele>214</ele>
        <time>2022-04-16T09:41:22.541Z</time>
      </trkpt>
      <trkpt lat="45.67219" lon="5.48371">
        <ele>214</ele>
        <time>2022-04-16T09:41:23.541Z</time>
      </trkpt>
      <trkpt lat="45.67219" lon="5.48364">
        <ele>214</ele>
        <time>2022-04-16T09:41:24.540Z</time>
      </trkpt>
      <trkpt lat="45.6722" lon="5.48357">
        <ele>214</ele>
        <time>2022-04-16T09:41:25.541Z</time>
      </trkpt>
      <trkpt lat="45.6722" lon="5.48351">
        <ele>213</ele>
        <time>2022-04-16T09:41:26.540Z</time>
      </trkpt>
      <trkpt lat="45.6722" lon="5.48344">
        <ele>213</ele>
        <time>2022-04-16T09:41:27.540Z</time>
      </trkpt>
      <trkpt lat="45.6722" lon="5.48335">
        <ele>213</ele>
        <time>2022-04-16T09:41:28.541Z</time>
      </trkpt>
      <trkpt lat="45.67221" lon="5.48328">
        <ele>212</ele>
        <time>2022-04-16T09:41:29.541Z</time>
      </trkpt>
      <trkpt lat="45.67221" lon="5.48321">
        <ele>212</ele>
        <time>2022-04-16T09:41:30.540Z</time>
      </trkpt>
      <trkpt lat="45.67222" lon="5.48315">
        <ele>212</ele>
        <time>2022-04-16T09:41:31.541Z</time>
      </trkpt>
      <trkpt lat="45.67222" lon="5.48307">
        <ele>212</ele>
        <time>2022-04-16T09:41:32.541Z</time>
      </trkpt>
      <trkpt lat="45.67223" lon="5.48298">
        <ele>212</ele>
        <time>2022-04-16T09:41:33.541Z</time>
      </trkpt>
      <trkpt lat="45.67224" lon="5.48291">
        <ele>212</ele>
        <time>2022-04-16T09:41:34.541Z</time>
      </trkpt>
      <trkpt lat="45.67225" lon="5.48283">
        <ele>212</ele>
        <time>2022-04-16T09:41:35.541Z</time>
      </trkpt>
      <trkpt lat="45.67225" lon="5.48277">
        <ele>212</ele>
        <time>2022-04-16T09:41:36.541Z</time>
      </trkpt>
      <trkpt lat="45.67225" lon="5.4827">
        <ele>212</ele>
        <time>2022-04-16T09:41:37.540Z</time>
      </trkpt>
      <trkpt lat="45.67226" lon="5.4826">
        <ele>212</ele>
        <time>2022-04-16T09:41:38.541Z</time>
      </trkpt>
      <trkpt lat="45.67226" lon="5.48252">
        <ele>212</ele>
        <time>2022-04-16T09:41:39.541Z</time>
      </trkpt>
      <trkpt lat="45.67227" lon="5.48244">
        <ele>212</ele>
        <time>2022-04-16T09:41:40.540Z</time>
      </trkpt>
      <trkpt lat="45.67227" lon="5.48238">
        <ele>212</ele>
        <time>2022-04-16T09:41:41.541Z</time>
      </trkpt>
      <trkpt lat="45.67227" lon="5.4823">
        <ele>211</ele>
        <time>2022-04-16T09:41:42.541Z</time>
      </trkpt>
      <trkpt lat="45.67228" lon="5.48221">
        <ele>211</ele>
        <time>2022-04-16T09:41:43.541Z</time>
      </trkpt>
      <trkpt lat="45.67228" lon="5.48213">
        <ele>211</ele>
        <time>2022-04-16T09:41:44.541Z</time>
      </trkpt>
      <trkpt lat="45.67229" lon="5.48206">
        <ele>211</ele>
        <time>2022-04-16T09:41:45.541Z</time>
      </trkpt>
      <trkpt lat="45.67229" lon="5.48198">
        <ele>211</ele>
        <time>2022-04-16T09:41:46.541Z</time>
      </trkpt>
      <trkpt lat="45.67229" lon="5.4819">
        <ele>211</ele>
        <time>2022-04-16T09:41:47.541Z</time>
      </trkpt>
      <trkpt lat="45.67229" lon="5.48181">
        <ele>211</ele>
        <time>2022-04-16T09:41:48.541Z</time>
      </trkpt>
      <trkpt lat="45.67229" lon="5.48173">
        <ele>211</ele>
        <time>2022-04-16T09:41:49.540Z</time>
      </trkpt>
      <trkpt lat="45.67229" lon="5.48166">
        <ele>210</ele>
        <time>2022-04-16T09:41:50.541Z</time>
      </trkpt>
      <trkpt lat="45.67229" lon="5.48158">
        <ele>210</ele>
        <time>2022-04-16T09:41:51.541Z</time>
      </trkpt>
      <trkpt lat="45.67229" lon="5.48149">
        <ele>210</ele>
        <time>2022-04-16T09:41:52.541Z</time>
      </trkpt>
      <trkpt lat="45.6723" lon="5.48143">
        <ele>210</ele>
        <time>2022-04-16T09:41:53.541Z</time>
      </trkpt>
      <trkpt lat="45.6723" lon="5.48133">
        <ele>209</ele>
        <time>2022-04-16T09:41:54.541Z</time>
      </trkpt>
      <trkpt lat="45.6723" lon="5.48127">
        <ele>209</ele>
        <time>2022-04-16T09:41:55.541Z</time>
      </trkpt>
      <trkpt lat="45.6723" lon="5.48119">
        <ele>209</ele>
        <time>2022-04-16T09:41:56.540Z</time>
      </trkpt>
      <trkpt lat="45.6723" lon="5.48109">
        <ele>209</ele>
        <time>2022-04-16T09:41:57.541Z</time>
      </trkpt>
      <trkpt lat="45.67231" lon="5.48101">
        <ele>209</ele>
        <time>2022-04-16T09:41:58.541Z</time>
      </trkpt>
      <trkpt lat="45.67231" lon="5.48093">
        <ele>210</ele>
        <time>2022-04-16T09:41:59.540Z</time>
      </trkpt>
      <trkpt lat="45.67231" lon="5.48086">
        <ele>210</ele>
        <time>2022-04-16T09:42:00.540Z</time>
      </trkpt>
      <trkpt lat="45.67232" lon="5.48078">
        <ele>210</ele>
        <time>2022-04-16T09:42:01.541Z</time>
      </trkpt>
      <trkpt lat="45.67232" lon="5.48068">
        <ele>211</ele>
        <time>2022-04-16T09:42:02.541Z</time>
      </trkpt>
      <trkpt lat="45.67232" lon="5.4806">
        <ele>211</ele>
        <time>2022-04-16T09:42:03.541Z</time>
      </trkpt>
      <trkpt lat="45.67233" lon="5.48052">
        <ele>211</ele>
        <time>2022-04-16T09:42:04.541Z</time>
      </trkpt>
      <trkpt lat="45.67233" lon="5.48043">
        <ele>211</ele>
        <time>2022-04-16T09:42:05.541Z</time>
      </trkpt>
      <trkpt lat="45.67234" lon="5.48037">
        <ele>211</ele>
        <time>2022-04-16T09:42:06.540Z</time>
      </trkpt>
      <trkpt lat="45.67234" lon="5.48027">
        <ele>211</ele>
        <time>2022-04-16T09:42:07.541Z</time>
      </trkpt>
      <trkpt lat="45.67235" lon="5.48018">
        <ele>211</ele>
        <time>2022-04-16T09:42:08.540Z</time>
      </trkpt>
      <trkpt lat="45.67235" lon="5.4801">
        <ele>211</ele>
        <time>2022-04-16T09:42:09.541Z</time>
      </trkpt>
      <trkpt lat="45.67235" lon="5.48003">
        <ele>211</ele>
        <time>2022-04-16T09:42:10.541Z</time>
      </trkpt>
      <trkpt lat="45.67236" lon="5.47995">
        <ele>211</ele>
        <time>2022-04-16T09:42:11.541Z</time>
      </trkpt>
      <trkpt lat="45.67236" lon="5.47985">
        <ele>211</ele>
        <time>2022-04-16T09:42:12.540Z</time>
      </trkpt>
      <trkpt lat="45.67236" lon="5.47977">
        <ele>211</ele>
        <time>2022-04-16T09:42:13.541Z</time>
      </trkpt>
      <trkpt lat="45.67237" lon="5.47969">
        <ele>211</ele>
        <time>2022-04-16T09:42:14.540Z</time>
      </trkpt>
      <trkpt lat="45.67237" lon="5.47962">
        <ele>211</ele>
        <time>2022-04-16T09:42:15.540Z</time>
      </trkpt>
      <trkpt lat="45.67237" lon="5.47954">
        <ele>211</ele>
        <time>2022-04-16T09:42:16.541Z</time>
      </trkpt>
      <trkpt lat="45.67238" lon="5.47944">
        <ele>211</ele>
        <time>2022-04-16T09:42:17.541Z</time>
      </trkpt>
      <trkpt lat="45.67238" lon="5.47936">
        <ele>211</ele>
        <time>2022-04-16T09:42:18.540Z</time>
      </trkpt>
      <trkpt lat="45.67239" lon="5.47928">
        <ele>212</ele>
        <time>2022-04-16T09:42:19.541Z</time>
      </trkpt>
      <trkpt lat="45.67239" lon="5.47921">
        <ele>212</ele>
        <time>2022-04-16T09:42:20.541Z</time>
      </trkpt>
      <trkpt lat="45.67239" lon="5.47913">
        <ele>212</ele>
        <time>2022-04-16T09:42:21.540Z</time>
      </trkpt>
      <trkpt lat="45.6724" lon="5.47903">
        <ele>212</ele>
        <time>2022-04-16T09:42:22.541Z</time>
      </trkpt>
      <trkpt lat="45.6724" lon="5.47896">
        <ele>212</ele>
        <time>2022-04-16T09:42:23.541Z</time>
      </trkpt>
      <trkpt lat="45.6724" lon="5.47889">
        <ele>212</ele>
        <time>2022-04-16T09:42:24.540Z</time>
      </trkpt>
      <trkpt lat="45.67241" lon="5.47881">
        <ele>212</ele>
        <time>2022-04-16T09:42:25.541Z</time>
      </trkpt>
      <trkpt lat="45.67241" lon="5.47872">
        <ele>212</ele>
        <time>2022-04-16T09:42:26.540Z</time>
      </trkpt>
      <trkpt lat="45.67242" lon="5.47864">
        <ele>212</ele>
        <time>2022-04-16T09:42:27.540Z</time>
      </trkpt>
      <trkpt lat="45.67242" lon="5.47856">
        <ele>212</ele>
        <time>2022-04-16T09:42:28.540Z</time>
      </trkpt>
      <trkpt lat="45.67242" lon="5.47848">
        <ele>212</ele>
        <time>2022-04-16T09:42:29.541Z</time>
      </trkpt>
      <trkpt lat="45.67243" lon="5.47842">
        <ele>212</ele>
        <time>2022-04-16T09:42:30.541Z</time>
      </trkpt>
      <trkpt lat="45.67243" lon="5.47833">
        <ele>212</ele>
        <time>2022-04-16T09:42:31.541Z</time>
      </trkpt>
      <trkpt lat="45.67243" lon="5.47824">
        <ele>212</ele>
        <time>2022-04-16T09:42:32.540Z</time>
      </trkpt>
      <trkpt lat="45.67243" lon="5.47817">
        <ele>212</ele>
        <time>2022-04-16T09:42:33.541Z</time>
      </trkpt>
      <trkpt lat="45.67244" lon="5.4781">
        <ele>212</ele>
        <time>2022-04-16T09:42:34.541Z</time>
      </trkpt>
      <trkpt lat="45.67244" lon="5.47801">
        <ele>212</ele>
        <time>2022-04-16T09:42:35.541Z</time>
      </trkpt>
      <trkpt lat="45.67244" lon="5.47794">
        <ele>213</ele>
        <time>2022-04-16T09:42:36.541Z</time>
      </trkpt>
      <trkpt lat="45.67245" lon="5.47786">
        <ele>213</ele>
        <time>2022-04-16T09:42:37.541Z</time>
      </trkpt>
      <trkpt lat="45.67245" lon="5.4778">
        <ele>213</ele>
        <time>2022-04-16T09:42:38.541Z</time>
      </trkpt>
      <trkpt lat="45.67245" lon="5.47772">
        <ele>213</ele>
        <time>2022-04-16T09:42:39.541Z</time>
      </trkpt>
      <trkpt lat="45.67246" lon="5.47763">
        <ele>213</ele>
        <time>2022-04-16T09:42:40.541Z</time>
      </trkpt>
      <trkpt lat="45.67246" lon="5.47755">
        <ele>213</ele>
        <time>2022-04-16T09:42:41.541Z</time>
      </trkpt>
      <trkpt lat="45.67246" lon="5.47748">
        <ele>213</ele>
        <time>2022-04-16T09:42:42.541Z</time>
      </trkpt>
      <trkpt lat="45.67247" lon="5.47741">
        <ele>213</ele>
        <time>2022-04-16T09:42:43.541Z</time>
      </trkpt>
      <trkpt lat="45.67247" lon="5.47734">
        <ele>213</ele>
        <time>2022-04-16T09:42:44.540Z</time>
      </trkpt>
      <trkpt lat="45.67248" lon="5.47725">
        <ele>213</ele>
        <time>2022-04-16T09:42:45.541Z</time>
      </trkpt>
      <trkpt lat="45.67248" lon="5.47717">
        <ele>213</ele>
        <time>2022-04-16T09:42:46.540Z</time>
      </trkpt>
      <trkpt lat="45.67248" lon="5.4771">
        <ele>213</ele>
        <time>2022-04-16T09:42:47.541Z</time>
      </trkpt>
      <trkpt lat="45.67248" lon="5.47704">
        <ele>213</ele>
        <time>2022-04-16T09:42:48.541Z</time>
      </trkpt>
      <trkpt lat="45.67248" lon="5.47696">
        <ele>214</ele>
        <time>2022-04-16T09:42:49.541Z</time>
      </trkpt>
      <trkpt lat="45.67249" lon="5.47687">
        <ele>213</ele>
        <time>2022-04-16T09:42:50.541Z</time>
      </trkpt>
      <trkpt lat="45.67249" lon="5.4768">
        <ele>213</ele>
        <time>2022-04-16T09:42:51.541Z</time>
      </trkpt>
      <trkpt lat="45.6725" lon="5.47672">
        <ele>213</ele>
        <time>2022-04-16T09:42:52.541Z</time>
      </trkpt>
      <trkpt lat="45.6725" lon="5.47666">
        <ele>213</ele>
        <time>2022-04-16T09:42:53.541Z</time>
      </trkpt>
      <trkpt lat="45.67251" lon="5.47659">
        <ele>213</ele>
        <time>2022-04-16T09:42:54.541Z</time>
      </trkpt>
      <trkpt lat="45.67253" lon="5.47652">
        <ele>213</ele>
        <time>2022-04-16T09:42:55.541Z</time>
      </trkpt>
      <trkpt lat="45.67255" lon="5.47646">
        <ele>213</ele>
        <time>2022-04-16T09:42:56.541Z</time>
      </trkpt>
      <trkpt lat="45.67256" lon="5.47637">
        <ele>213</ele>
        <time>2022-04-16T09:42:57.540Z</time>
      </trkpt>
      <trkpt lat="45.67257" lon="5.47632">
        <ele>213</ele>
        <time>2022-04-16T09:42:58.541Z</time>
      </trkpt>
      <trkpt lat="45.67258" lon="5.47625">
        <ele>213</ele>
        <time>2022-04-16T09:42:59.541Z</time>
      </trkpt>
      <trkpt lat="45.67258" lon="5.47618">
        <ele>213</ele>
        <time>2022-04-16T09:43:00.541Z</time>
      </trkpt>
      <trkpt lat="45.67258" lon="5.4761">
        <ele>212</ele>
        <time>2022-04-16T09:43:01.540Z</time>
      </trkpt>
      <trkpt lat="45.67258" lon="5.47604">
        <ele>212</ele>
        <time>2022-04-16T09:43:02.541Z</time>
      </trkpt>
      <trkpt lat="45.67258" lon="5.47598">
        <ele>212</ele>
        <time>2022-04-16T09:43:03.541Z</time>
      </trkpt>
      <trkpt lat="45.67258" lon="5.47592">
        <ele>212</ele>
        <time>2022-04-16T09:43:04.541Z</time>
      </trkpt>
      <trkpt lat="45.67258" lon="5.47586">
        <ele>212</ele>
        <time>2022-04-16T09:43:05.541Z</time>
      </trkpt>
      <trkpt lat="45.67259" lon="5.4758">
        <ele>211</ele>
        <time>2022-04-16T09:43:06.540Z</time>
      </trkpt>
      <trkpt lat="45.67258" lon="5.47576">
        <ele>211</ele>
        <time>2022-04-16T09:43:07.540Z</time>
      </trkpt>
      <trkpt lat="45.67258" lon="5.47571">
        <ele>212</ele>
        <time>2022-04-16T09:43:08.541Z</time>
      </trkpt>
      <trkpt lat="45.67258" lon="5.47565">
        <ele>212</ele>
        <time>2022-04-16T09:43:09.541Z</time>
      </trkpt>
      <trkpt lat="45.67258" lon="5.47561">
        <ele>212</ele>
        <time>2022-04-16T09:43:10.541Z</time>
      </trkpt>
      <trkpt lat="45.67258" lon="5.47555">
        <ele>211</ele>
        <time>2022-04-16T09:43:11.541Z</time>
      </trkpt>
      <trkpt lat="45.67258" lon="5.47551">
        <ele>210</ele>
        <time>2022-04-16T09:43:12.541Z</time>
      </trkpt>
      <trkpt lat="45.67258" lon="5.47546">
        <ele>210</ele>
        <time>2022-04-16T09:43:13.541Z</time>
      </trkpt>
      <trkpt lat="45.67258" lon="5.4754">
        <ele>209</ele>
        <time>2022-04-16T09:43:14.541Z</time>
      </trkpt>
      <trkpt lat="45.67258" lon="5.47535">
        <ele>209</ele>
        <time>2022-04-16T09:43:15.541Z</time>
      </trkpt>
      <trkpt lat="45.67258" lon="5.4753">
        <ele>209</ele>
        <time>2022-04-16T09:43:16.540Z</time>
      </trkpt>
      <trkpt lat="45.67258" lon="5.47524">
        <ele>210</ele>
        <time>2022-04-16T09:43:17.541Z</time>
      </trkpt>
      <trkpt lat="45.67259" lon="5.47519">
        <ele>211</ele>
        <time>2022-04-16T09:43:18.540Z</time>
      </trkpt>
      <trkpt lat="45.67259" lon="5.47512">
        <ele>211</ele>
        <time>2022-04-16T09:43:19.540Z</time>
      </trkpt>
      <trkpt lat="45.67259" lon="5.47507">
        <ele>211</ele>
        <time>2022-04-16T09:43:20.540Z</time>
      </trkpt>
      <trkpt lat="45.67259" lon="5.47501">
        <ele>211</ele>
        <time>2022-04-16T09:43:21.541Z</time>
      </trkpt>
      <trkpt lat="45.6726" lon="5.47496">
        <ele>211</ele>
        <time>2022-04-16T09:43:22.540Z</time>
      </trkpt>
      <trkpt lat="45.6726" lon="5.4749">
        <ele>210</ele>
        <time>2022-04-16T09:43:23.540Z</time>
      </trkpt>
      <trkpt lat="45.6726" lon="5.47483">
        <ele>210</ele>
        <time>2022-04-16T09:43:24.541Z</time>
      </trkpt>
      <trkpt lat="45.6726" lon="5.47477">
        <ele>210</ele>
        <time>2022-04-16T09:43:25.541Z</time>
      </trkpt>
      <trkpt lat="45.67261" lon="5.4747">
        <ele>210</ele>
        <time>2022-04-16T09:43:26.541Z</time>
      </trkpt>
      <trkpt lat="45.67261" lon="5.47465">
        <ele>210</ele>
        <time>2022-04-16T09:43:27.541Z</time>
      </trkpt>
      <trkpt lat="45.67261" lon="5.47459">
        <ele>210</ele>
        <time>2022-04-16T09:43:28.541Z</time>
      </trkpt>
      <trkpt lat="45.67262" lon="5.47452">
        <ele>210</ele>
        <time>2022-04-16T09:43:29.541Z</time>
      </trkpt>
      <trkpt lat="45.67262" lon="5.47447">
        <ele>210</ele>
        <time>2022-04-16T09:43:30.541Z</time>
      </trkpt>
      <trkpt lat="45.67262" lon="5.47443">
        <ele>210</ele>
        <time>2022-04-16T09:43:31.541Z</time>
      </trkpt>
      <trkpt lat="45.67263" lon="5.47437">
        <ele>209</ele>
        <time>2022-04-16T09:43:32.541Z</time>
      </trkpt>
      <trkpt lat="45.67263" lon="5.47432">
        <ele>209</ele>
        <time>2022-04-16T09:43:33.541Z</time>
      </trkpt>
      <trkpt lat="45.67263" lon="5.47425">
        <ele>209</ele>
        <time>2022-04-16T09:43:34.540Z</time>
      </trkpt>
      <trkpt lat="45.67264" lon="5.4742">
        <ele>209</ele>
        <time>2022-04-16T09:43:35.541Z</time>
      </trkpt>
      <trkpt lat="45.67264" lon="5.47415">
        <ele>208</ele>
        <time>2022-04-16T09:43:36.541Z</time>
      </trkpt>
      <trkpt lat="45.67264" lon="5.4741">
        <ele>208</ele>
        <time>2022-04-16T09:43:37.540Z</time>
      </trkpt>
      <trkpt lat="45.67265" lon="5.47405">
        <ele>208</ele>
        <time>2022-04-16T09:43:38.541Z</time>
      </trkpt>
      <trkpt lat="45.67265" lon="5.474">
        <ele>209</ele>
        <time>2022-04-16T09:43:39.540Z</time>
      </trkpt>
      <trkpt lat="45.67265" lon="5.47393">
        <ele>209</ele>
        <time>2022-04-16T09:43:40.540Z</time>
      </trkpt>
      <trkpt lat="45.67266" lon="5.47389">
        <ele>208</ele>
        <time>2022-04-16T09:43:41.541Z</time>
      </trkpt>
      <trkpt lat="45.67266" lon="5.47383">
        <ele>208</ele>
        <time>2022-04-16T09:43:42.540Z</time>
      </trkpt>
      <trkpt lat="45.67267" lon="5.47377">
        <ele>209</ele>
        <time>2022-04-16T09:43:43.540Z</time>
      </trkpt>
      <trkpt lat="45.67267" lon="5.47371">
        <ele>209</ele>
        <time>2022-04-16T09:43:44.541Z</time>
      </trkpt>
      <trkpt lat="45.67267" lon="5.47366">
        <ele>209</ele>
        <time>2022-04-16T09:43:45.541Z</time>
      </trkpt>
      <trkpt lat="45.67268" lon="5.47362">
        <ele>210</ele>
        <time>2022-04-16T09:43:46.541Z</time>
      </trkpt>
      <trkpt lat="45.67268" lon="5.47356">
        <ele>210</ele>
        <time>2022-04-16T09:43:47.541Z</time>
      </trkpt>
      <trkpt lat="45.67269" lon="5.4735">
        <ele>210</ele>
        <time>2022-04-16T09:43:48.540Z</time>
      </trkpt>
      <trkpt lat="45.67269" lon="5.47345">
        <ele>210</ele>
        <time>2022-04-16T09:43:49.541Z</time>
      </trkpt>
      <trkpt lat="45.67269" lon="5.47339">
        <ele>210</ele>
        <time>2022-04-16T09:43:50.540Z</time>
      </trkpt>
      <trkpt lat="45.67269" lon="5.47335">
        <ele>210</ele>
        <time>2022-04-16T09:43:51.540Z</time>
      </trkpt>
      <trkpt lat="45.6727" lon="5.47329">
        <ele>210</ele>
        <time>2022-04-16T09:43:52.541Z</time>
      </trkpt>
      <trkpt lat="45.6727" lon="5.47323">
        <ele>210</ele>
        <time>2022-04-16T09:43:53.541Z</time>
      </trkpt>
      <trkpt lat="45.67271" lon="5.47319">
        <ele>209</ele>
        <time>2022-04-16T09:43:54.541Z</time>
      </trkpt>
      <trkpt lat="45.67272" lon="5.47314">
        <ele>209</ele>
        <time>2022-04-16T09:43:55.540Z</time>
      </trkpt>
      <trkpt lat="45.67273" lon="5.47311">
        <ele>209</ele>
        <time>2022-04-16T09:43:56.541Z</time>
      </trkpt>
      <trkpt lat="45.67275" lon="5.47307">
        <ele>209</ele>
        <time>2022-04-16T09:43:57.541Z</time>
      </trkpt>
      <trkpt lat="45.67276" lon="5.47305">
        <ele>209</ele>
        <time>2022-04-16T09:43:58.541Z</time>
      </trkpt>
      <trkpt lat="45.67277" lon="5.47302">
        <ele>209</ele>
        <time>2022-04-16T09:43:59.541Z</time>
      </trkpt>
      <trkpt lat="45.67278" lon="5.473">
        <ele>209</ele>
        <time>2022-04-16T09:44:00.541Z</time>
      </trkpt>
      <trkpt lat="45.67278" lon="5.473">
        <ele>209</ele>
        <time>2022-04-16T09:44:01.541Z</time>
      </trkpt>
      <trkpt lat="45.67279" lon="5.47299">
        <ele>210</ele>
        <time>2022-04-16T09:44:02.541Z</time>
      </trkpt>
      <trkpt lat="45.67279" lon="5.47299">
        <ele>210</ele>
        <time>2022-04-16T09:44:03.541Z</time>
      </trkpt>
      <trkpt lat="45.67279" lon="5.47293">
        <ele>214</ele>
        <time>2022-04-16T09:44:21.602Z</time>
      </trkpt>
      <trkpt lat="45.67278" lon="5.4729">
        <ele>214</ele>
        <time>2022-04-16T09:44:22.602Z</time>
      </trkpt>
      <trkpt lat="45.67277" lon="5.47286">
        <ele>213</ele>
        <time>2022-04-16T09:44:23.602Z</time>
      </trkpt>
      <trkpt lat="45.67276" lon="5.47282">
        <ele>212</ele>
        <time>2022-04-16T09:44:24.602Z</time>
      </trkpt>
      <trkpt lat="45.67275" lon="5.47279">
        <ele>212</ele>
        <time>2022-04-16T09:44:25.602Z</time>
      </trkpt>
      <trkpt lat="45.67275" lon="5.47276">
        <ele>211</ele>
        <time>2022-04-16T09:44:26.602Z</time>
      </trkpt>
      <trkpt lat="45.67275" lon="5.47271">
        <ele>211</ele>
        <time>2022-04-16T09:44:27.602Z</time>
      </trkpt>
      <trkpt lat="45.67275" lon="5.47267">
        <ele>211</ele>
        <time>2022-04-16T09:44:28.602Z</time>
      </trkpt>
      <trkpt lat="45.67275" lon="5.47262">
        <ele>211</ele>
        <time>2022-04-16T09:44:29.601Z</time>
      </trkpt>
      <trkpt lat="45.67276" lon="5.47258">
        <ele>211</ele>
        <time>2022-04-16T09:44:30.601Z</time>
      </trkpt>
      <trkpt lat="45.67276" lon="5.47252">
        <ele>210</ele>
        <time>2022-04-16T09:44:31.602Z</time>
      </trkpt>
      <trkpt lat="45.67276" lon="5.47247">
        <ele>210</ele>
        <time>2022-04-16T09:44:32.601Z</time>
      </trkpt>
      <trkpt lat="45.67277" lon="5.4724">
        <ele>210</ele>
        <time>2022-04-16T09:44:33.601Z</time>
      </trkpt>
      <trkpt lat="45.67277" lon="5.47236">
        <ele>210</ele>
        <time>2022-04-16T09:44:34.602Z</time>
      </trkpt>
      <trkpt lat="45.67278" lon="5.4723">
        <ele>210</ele>
        <time>2022-04-16T09:44:35.602Z</time>
      </trkpt>
      <trkpt lat="45.67278" lon="5.47225">
        <ele>209</ele>
        <time>2022-04-16T09:44:36.601Z</time>
      </trkpt>
      <trkpt lat="45.67278" lon="5.47219">
        <ele>209</ele>
        <time>2022-04-16T09:44:37.602Z</time>
      </trkpt>
      <trkpt lat="45.67279" lon="5.47214">
        <ele>210</ele>
        <time>2022-04-16T09:44:38.601Z</time>
      </trkpt>
      <trkpt lat="45.67279" lon="5.47208">
        <ele>209</ele>
        <time>2022-04-16T09:44:39.601Z</time>
      </trkpt>
      <trkpt lat="45.6728" lon="5.47202">
        <ele>209</ele>
        <time>2022-04-16T09:44:40.602Z</time>
      </trkpt>
      <trkpt lat="45.6728" lon="5.47197">
        <ele>208</ele>
        <time>2022-04-16T09:44:41.602Z</time>
      </trkpt>
      <trkpt lat="45.67281" lon="5.4719">
        <ele>208</ele>
        <time>2022-04-16T09:44:42.602Z</time>
      </trkpt>
      <trkpt lat="45.67281" lon="5.47184">
        <ele>208</ele>
        <time>2022-04-16T09:44:43.601Z</time>
      </trkpt>
      <trkpt lat="45.67281" lon="5.47179">
        <ele>208</ele>
        <time>2022-04-16T09:44:44.602Z</time>
      </trkpt>
      <trkpt lat="45.67282" lon="5.47174">
        <ele>208</ele>
        <time>2022-04-16T09:44:45.602Z</time>
      </trkpt>
      <trkpt lat="45.67282" lon="5.47168">
        <ele>208</ele>
        <time>2022-04-16T09:44:46.602Z</time>
      </trkpt>
      <trkpt lat="45.67283" lon="5.47161">
        <ele>208</ele>
        <time>2022-04-16T09:44:47.601Z</time>
      </trkpt>
      <trkpt lat="45.67283" lon="5.47155">
        <ele>209</ele>
        <time>2022-04-16T09:44:48.602Z</time>
      </trkpt>
      <trkpt lat="45.67284" lon="5.47149">
        <ele>209</ele>
        <time>2022-04-16T09:44:49.602Z</time>
      </trkpt>
      <trkpt lat="45.67284" lon="5.47145">
        <ele>209</ele>
        <time>2022-04-16T09:44:50.602Z</time>
      </trkpt>
      <trkpt lat="45.67284" lon="5.4714">
        <ele>210</ele>
        <time>2022-04-16T09:44:51.602Z</time>
      </trkpt>
      <trkpt lat="45.67283" lon="5.47134">
        <ele>210</ele>
        <time>2022-04-16T09:44:52.602Z</time>
      </trkpt>
      <trkpt lat="45.67283" lon="5.4713">
        <ele>210</ele>
        <time>2022-04-16T09:44:53.601Z</time>
      </trkpt>
      <trkpt lat="45.67281" lon="5.47128">
        <ele>210</ele>
        <time>2022-04-16T09:44:54.601Z</time>
      </trkpt>
      <trkpt lat="45.67279" lon="5.47127">
        <ele>210</ele>
        <time>2022-04-16T09:44:55.602Z</time>
      </trkpt>
      <trkpt lat="45.67277" lon="5.47125">
        <ele>211</ele>
        <time>2022-04-16T09:44:56.602Z</time>
      </trkpt>
      <trkpt lat="45.67274" lon="5.47124">
        <ele>210</ele>
        <time>2022-04-16T09:44:57.602Z</time>
      </trkpt>
      <trkpt lat="45.67273" lon="5.47123">
        <ele>210</ele>
        <time>2022-04-16T09:44:58.602Z</time>
      </trkpt>
      <trkpt lat="45.67271" lon="5.47121">
        <ele>210</ele>
        <time>2022-04-16T09:44:59.602Z</time>
      </trkpt>
      <trkpt lat="45.67269" lon="5.4712">
        <ele>210</ele>
        <time>2022-04-16T09:45:00.602Z</time>
      </trkpt>
      <trkpt lat="45.67268" lon="5.47119">
        <ele>210</ele>
        <time>2022-04-16T09:45:01.602Z</time>
      </trkpt>
      <trkpt lat="45.67268" lon="5.47119">
        <ele>210</ele>
        <time>2022-04-16T09:45:02.602Z</time>
      </trkpt>
      <trkpt lat="45.67267" lon="5.47118">
        <ele>210</ele>
        <time>2022-04-16T09:45:03.602Z</time>
      </trkpt>
      <trkpt lat="45.67266" lon="5.47117">
        <ele>210</ele>
        <time>2022-04-16T09:45:04.601Z</time>
      </trkpt>
      <trkpt lat="45.67266" lon="5.47117">
        <ele>210</ele>
        <time>2022-04-16T09:45:05.602Z</time>
      </trkpt>
      <trkpt lat="45.67265" lon="5.47117">
        <ele>209</ele>
        <time>2022-04-16T09:45:06.602Z</time>
      </trkpt>
      <trkpt lat="45.67265" lon="5.47116">
        <ele>209</ele>
        <time>2022-04-16T09:45:07.602Z</time>
      </trkpt>
      <trkpt lat="45.67265" lon="5.47116">
        <ele>210</ele>
        <time>2022-04-16T09:45:08.602Z</time>
      </trkpt>
      <trkpt lat="45.67261" lon="5.47113">
        <ele>209</ele>
        <time>2022-04-16T09:56:03.721Z</time>
      </trkpt>
      <trkpt lat="45.6726" lon="5.4711">
        <ele>209</ele>
        <time>2022-04-16T09:56:04.721Z</time>
      </trkpt>
      <trkpt lat="45.6726" lon="5.47106">
        <ele>209</ele>
        <time>2022-04-16T09:56:05.721Z</time>
      </trkpt>
      <trkpt lat="45.6726" lon="5.47103">
        <ele>210</ele>
        <time>2022-04-16T09:56:06.721Z</time>
      </trkpt>
      <trkpt lat="45.67259" lon="5.471">
        <ele>210</ele>
        <time>2022-04-16T09:56:07.721Z</time>
      </trkpt>
      <trkpt lat="45.67258" lon="5.47096">
        <ele>210</ele>
        <time>2022-04-16T09:56:08.721Z</time>
      </trkpt>
      <trkpt lat="45.67257" lon="5.47094">
        <ele>210</ele>
        <time>2022-04-16T09:56:09.722Z</time>
      </trkpt>
      <trkpt lat="45.67255" lon="5.47092">
        <ele>210</ele>
        <time>2022-04-16T09:56:10.722Z</time>
      </trkpt>
      <trkpt lat="45.67253" lon="5.4709">
        <ele>210</ele>
        <time>2022-04-16T09:56:11.721Z</time>
      </trkpt>
      <trkpt lat="45.67252" lon="5.47088">
        <ele>211</ele>
        <time>2022-04-16T09:56:12.721Z</time>
      </trkpt>
      <trkpt lat="45.67251" lon="5.47085">
        <ele>211</ele>
        <time>2022-04-16T09:56:13.721Z</time>
      </trkpt>
      <trkpt lat="45.6725" lon="5.47083">
        <ele>211</ele>
        <time>2022-04-16T09:56:14.722Z</time>
      </trkpt>
      <trkpt lat="45.67249" lon="5.47079">
        <ele>212</ele>
        <time>2022-04-16T09:56:15.722Z</time>
      </trkpt>
      <trkpt lat="45.67248" lon="5.47077">
        <ele>212</ele>
        <time>2022-04-16T09:56:16.721Z</time>
      </trkpt>
      <trkpt lat="45.67246" lon="5.47075">
        <ele>213</ele>
        <time>2022-04-16T09:56:17.721Z</time>
      </trkpt>
      <trkpt lat="45.67242" lon="5.47073">
        <ele>214</ele>
        <time>2022-04-16T09:56:18.721Z</time>
      </trkpt>
      <trkpt lat="45.67239" lon="5.47072">
        <ele>215</ele>
        <time>2022-04-16T09:56:19.722Z</time>
      </trkpt>
      <trkpt lat="45.67236" lon="5.47071">
        <ele>215</ele>
        <time>2022-04-16T09:56:20.722Z</time>
      </trkpt>
      <trkpt lat="45.67232" lon="5.47071">
        <ele>216</ele>
        <time>2022-04-16T09:56:21.721Z</time>
      </trkpt>
      <trkpt lat="45.67229" lon="5.47071">
        <ele>217</ele>
        <time>2022-04-16T09:56:22.721Z</time>
      </trkpt>
      <trkpt lat="45.67225" lon="5.47071">
        <ele>218</ele>
        <time>2022-04-16T09:56:23.721Z</time>
      </trkpt>
      <trkpt lat="45.6722" lon="5.47072">
        <ele>219</ele>
        <time>2022-04-16T09:56:24.722Z</time>
      </trkpt>
      <trkpt lat="45.67216" lon="5.47072">
        <ele>221</ele>
        <time>2022-04-16T09:56:25.721Z</time>
      </trkpt>
      <trkpt lat="45.67212" lon="5.47072">
        <ele>222</ele>
        <time>2022-04-16T09:56:26.721Z</time>
      </trkpt>
      <trkpt lat="45.67208" lon="5.47071">
        <ele>222</ele>
        <time>2022-04-16T09:56:27.721Z</time>
      </trkpt>
      <trkpt lat="45.67204" lon="5.47071">
        <ele>222</ele>
        <time>2022-04-16T09:56:28.721Z</time>
      </trkpt>
      <trkpt lat="45.67199" lon="5.47071">
        <ele>221</ele>
        <time>2022-04-16T09:56:29.722Z</time>
      </trkpt>
      <trkpt lat="45.67195" lon="5.47071">
        <ele>221</ele>
        <time>2022-04-16T09:56:30.721Z</time>
      </trkpt>
      <trkpt lat="45.67191" lon="5.4707">
        <ele>221</ele>
        <time>2022-04-16T09:56:31.721Z</time>
      </trkpt>
      <trkpt lat="45.67186" lon="5.4707">
        <ele>221</ele>
        <time>2022-04-16T09:56:32.721Z</time>
      </trkpt>
      <trkpt lat="45.67182" lon="5.4707">
        <ele>221</ele>
        <time>2022-04-16T09:56:33.722Z</time>
      </trkpt>
      <trkpt lat="45.67177" lon="5.4707">
        <ele>221</ele>
        <time>2022-04-16T09:56:34.722Z</time>
      </trkpt>
      <trkpt lat="45.67173" lon="5.47069">
        <ele>221</ele>
        <time>2022-04-16T09:56:35.721Z</time>
      </trkpt>
      <trkpt lat="45.67168" lon="5.47069">
        <ele>220</ele>
        <time>2022-04-16T09:56:36.721Z</time>
      </trkpt>
      <trkpt lat="45.67164" lon="5.47068">
        <ele>220</ele>
        <time>2022-04-16T09:56:37.721Z</time>
      </trkpt>
      <trkpt lat="45.6716" lon="5.47067">
        <ele>219</ele>
        <time>2022-04-16T09:56:38.722Z</time>
      </trkpt>
      <trkpt lat="45.67156" lon="5.47066">
        <ele>219</ele>
        <time>2022-04-16T09:56:39.721Z</time>
      </trkpt>
      <trkpt lat="45.67152" lon="5.47064">
        <ele>218</ele>
        <time>2022-04-16T09:56:40.721Z</time>
      </trkpt>
      <trkpt lat="45.67149" lon="5.47062">
        <ele>217</ele>
        <time>2022-04-16T09:56:41.721Z</time>
      </trkpt>
      <trkpt lat="45.67146" lon="5.47059">
        <ele>217</ele>
        <time>2022-04-16T09:56:42.721Z</time>
      </trkpt>
      <trkpt lat="45.67143" lon="5.47056">
        <ele>216</ele>
        <time>2022-04-16T09:56:43.721Z</time>
      </trkpt>
      <trkpt lat="45.6714" lon="5.47053">
        <ele>215</ele>
        <time>2022-04-16T09:56:44.722Z</time>
      </trkpt>
      <trkpt lat="45.67136" lon="5.47051">
        <ele>214</ele>
        <time>2022-04-16T09:56:45.722Z</time>
      </trkpt>
      <trkpt lat="45.67133" lon="5.4705">
        <ele>214</ele>
        <time>2022-04-16T09:56:46.722Z</time>
      </trkpt>
      <trkpt lat="45.67129" lon="5.4705">
        <ele>214</ele>
        <time>2022-04-16T09:56:47.722Z</time>
      </trkpt>
      <trkpt lat="45.67126" lon="5.47052">
        <ele>214</ele>
        <time>2022-04-16T09:56:48.721Z</time>
      </trkpt>
      <trkpt lat="45.67122" lon="5.47055">
        <ele>214</ele>
        <time>2022-04-16T09:56:49.722Z</time>
      </trkpt>
      <trkpt lat="45.67118" lon="5.47057">
        <ele>215</ele>
        <time>2022-04-16T09:56:50.722Z</time>
      </trkpt>
      <trkpt lat="45.67114" lon="5.47058">
        <ele>215</ele>
        <time>2022-04-16T09:56:51.722Z</time>
      </trkpt>
      <trkpt lat="45.67111" lon="5.47059">
        <ele>215</ele>
        <time>2022-04-16T09:56:52.722Z</time>
      </trkpt>
      <trkpt lat="45.67108" lon="5.47059">
        <ele>216</ele>
        <time>2022-04-16T09:56:53.722Z</time>
      </trkpt>
      <trkpt lat="45.67107" lon="5.47059">
        <ele>216</ele>
        <time>2022-04-16T09:56:54.722Z</time>
      </trkpt>
      <trkpt lat="45.67107" lon="5.4706">
        <ele>217</ele>
        <time>2022-04-16T09:56:55.722Z</time>
      </trkpt>
      <trkpt lat="45.67106" lon="5.4706">
        <ele>218</ele>
        <time>2022-04-16T09:56:56.722Z</time>
      </trkpt>
      <trkpt lat="45.67106" lon="5.4706">
        <ele>219</ele>
        <time>2022-04-16T09:56:57.721Z</time>
      </trkpt>
      <trkpt lat="45.67103" lon="5.47062">
        <ele>221</ele>
        <time>2022-04-16T09:58:27.849Z</time>
      </trkpt>
      <trkpt lat="45.671" lon="5.47062">
        <ele>221</ele>
        <time>2022-04-16T09:58:28.849Z</time>
      </trkpt>
      <trkpt lat="45.67097" lon="5.47062">
        <ele>221</ele>
        <time>2022-04-16T09:58:29.848Z</time>
      </trkpt>
      <trkpt lat="45.67093" lon="5.47062">
        <ele>221</ele>
        <time>2022-04-16T09:58:30.849Z</time>
      </trkpt>
      <trkpt lat="45.67089" lon="5.47062">
        <ele>220</ele>
        <time>2022-04-16T09:58:31.849Z</time>
      </trkpt>
      <trkpt lat="45.67086" lon="5.47063">
        <ele>220</ele>
        <time>2022-04-16T09:58:32.848Z</time>
      </trkpt>
      <trkpt lat="45.67081" lon="5.47063">
        <ele>219</ele>
        <time>2022-04-16T09:58:33.848Z</time>
      </trkpt>
      <trkpt lat="45.67077" lon="5.47063">
        <ele>218</ele>
        <time>2022-04-16T09:58:34.848Z</time>
      </trkpt>
      <trkpt lat="45.67074" lon="5.47063">
        <ele>218</ele>
        <time>2022-04-16T09:58:35.849Z</time>
      </trkpt>
      <trkpt lat="45.6707" lon="5.47062">
        <ele>217</ele>
        <time>2022-04-16T09:58:36.848Z</time>
      </trkpt>
      <trkpt lat="45.67066" lon="5.47062">
        <ele>217</ele>
        <time>2022-04-16T09:58:37.848Z</time>
      </trkpt>
      <trkpt lat="45.67062" lon="5.47062">
        <ele>216</ele>
        <time>2022-04-16T09:58:38.849Z</time>
      </trkpt>
      <trkpt lat="45.67057" lon="5.47062">
        <ele>215</ele>
        <time>2022-04-16T09:58:39.848Z</time>
      </trkpt>
      <trkpt lat="45.67054" lon="5.47062">
        <ele>215</ele>
        <time>2022-04-16T09:58:40.849Z</time>
      </trkpt>
      <trkpt lat="45.6705" lon="5.47062">
        <ele>215</ele>
        <time>2022-04-16T09:58:41.848Z</time>
      </trkpt>
      <trkpt lat="45.67045" lon="5.47062">
        <ele>214</ele>
        <time>2022-04-16T09:58:42.849Z</time>
      </trkpt>
      <trkpt lat="45.6704" lon="5.47062">
        <ele>214</ele>
        <time>2022-04-16T09:58:43.849Z</time>
      </trkpt>
      <trkpt lat="45.67036" lon="5.47062">
        <ele>214</ele>
        <time>2022-04-16T09:58:44.848Z</time>
      </trkpt>
      <trkpt lat="45.67033" lon="5.47062">
        <ele>214</ele>
        <time>2022-04-16T09:58:45.849Z</time>
      </trkpt>
      <trkpt lat="45.67029" lon="5.47062">
        <ele>214</ele>
        <time>2022-04-16T09:58:46.848Z</time>
      </trkpt>
      <trkpt lat="45.67024" lon="5.47063">
        <ele>214</ele>
        <time>2022-04-16T09:58:47.848Z</time>
      </trkpt>
      <trkpt lat="45.6702" lon="5.47064">
        <ele>215</ele>
        <time>2022-04-16T09:58:48.848Z</time>
      </trkpt>
      <trkpt lat="45.67016" lon="5.47065">
        <ele>215</ele>
        <time>2022-04-16T09:58:49.849Z</time>
      </trkpt>
      <trkpt lat="45.67012" lon="5.47066">
        <ele>215</ele>
        <time>2022-04-16T09:58:50.848Z</time>
      </trkpt>
      <trkpt lat="45.67008" lon="5.47066">
        <ele>216</ele>
        <time>2022-04-16T09:58:51.848Z</time>
      </trkpt>
      <trkpt lat="45.67003" lon="5.47066">
        <ele>216</ele>
        <time>2022-04-16T09:58:52.848Z</time>
      </trkpt>
      <trkpt lat="45.66998" lon="5.47066">
        <ele>216</ele>
        <time>2022-04-16T09:58:53.848Z</time>
      </trkpt>
      <trkpt lat="45.66993" lon="5.47067">
        <ele>216</ele>
        <time>2022-04-16T09:58:54.849Z</time>
      </trkpt>
      <trkpt lat="45.66989" lon="5.47067">
        <ele>217</ele>
        <time>2022-04-16T09:58:55.848Z</time>
      </trkpt>
      <trkpt lat="45.66985" lon="5.47067">
        <ele>216</ele>
        <time>2022-04-16T09:58:56.848Z</time>
      </trkpt>
      <trkpt lat="45.66979" lon="5.47067">
        <ele>216</ele>
        <time>2022-04-16T09:58:57.848Z</time>
      </trkpt>
      <trkpt lat="45.66975" lon="5.47066">
        <ele>216</ele>
        <time>2022-04-16T09:58:58.848Z</time>
      </trkpt>
      <trkpt lat="45.6697" lon="5.47066">
        <ele>216</ele>
        <time>2022-04-16T09:58:59.849Z</time>
      </trkpt>
      <trkpt lat="45.66966" lon="5.47066">
        <ele>216</ele>
        <time>2022-04-16T09:59:00.849Z</time>
      </trkpt>
      <trkpt lat="45.66962" lon="5.47066">
        <ele>216</ele>
        <time>2022-04-16T09:59:01.848Z</time>
      </trkpt>
      <trkpt lat="45.66956" lon="5.47065">
        <ele>216</ele>
        <time>2022-04-16T09:59:02.848Z</time>
      </trkpt>
      <trkpt lat="45.66952" lon="5.47065">
        <ele>216</ele>
        <time>2022-04-16T09:59:03.848Z</time>
      </trkpt>
      <trkpt lat="45.66947" lon="5.47064">
        <ele>215</ele>
        <time>2022-04-16T09:59:04.848Z</time>
      </trkpt>
      <trkpt lat="45.66943" lon="5.47064">
        <ele>215</ele>
        <time>2022-04-16T09:59:05.849Z</time>
      </trkpt>
      <trkpt lat="45.66939" lon="5.47063">
        <ele>215</ele>
        <time>2022-04-16T09:59:06.848Z</time>
      </trkpt>
      <trkpt lat="45.66934" lon="5.47063">
        <ele>215</ele>
        <time>2022-04-16T09:59:07.848Z</time>
      </trkpt>
      <trkpt lat="45.66928" lon="5.47063">
        <ele>215</ele>
        <time>2022-04-16T09:59:08.848Z</time>
      </trkpt>
      <trkpt lat="45.66923" lon="5.47062">
        <ele>215</ele>
        <time>2022-04-16T09:59:09.848Z</time>
      </trkpt>
      <trkpt lat="45.66918" lon="5.47062">
        <ele>215</ele>
        <time>2022-04-16T09:59:10.848Z</time>
      </trkpt>
      <trkpt lat="45.66914" lon="5.47062">
        <ele>214</ele>
        <time>2022-04-16T09:59:11.848Z</time>
      </trkpt>
      <trkpt lat="45.66909" lon="5.47062">
        <ele>214</ele>
        <time>2022-04-16T09:59:12.849Z</time>
      </trkpt>
      <trkpt lat="45.66903" lon="5.47062">
        <ele>214</ele>
        <time>2022-04-16T09:59:13.848Z</time>
      </trkpt>
      <trkpt lat="45.66898" lon="5.47062">
        <ele>214</ele>
        <time>2022-04-16T09:59:14.849Z</time>
      </trkpt>
      <trkpt lat="45.66893" lon="5.47062">
        <ele>214</ele>
        <time>2022-04-16T09:59:15.848Z</time>
      </trkpt>
      <trkpt lat="45.66889" lon="5.47062">
        <ele>215</ele>
        <time>2022-04-16T09:59:16.848Z</time>
      </trkpt>
      <trkpt lat="45.66884" lon="5.47062">
        <ele>214</ele>
        <time>2022-04-16T09:59:17.849Z</time>
      </trkpt>
      <trkpt lat="45.66878" lon="5.47063">
        <ele>214</ele>
        <time>2022-04-16T09:59:18.848Z</time>
      </trkpt>
      <trkpt lat="45.66874" lon="5.47063">
        <ele>214</ele>
        <time>2022-04-16T09:59:19.849Z</time>
      </trkpt>
      <trkpt lat="45.66869" lon="5.47063">
        <ele>215</ele>
        <time>2022-04-16T09:59:20.848Z</time>
      </trkpt>
      <trkpt lat="45.66865" lon="5.47063">
        <ele>215</ele>
        <time>2022-04-16T09:59:21.848Z</time>
      </trkpt>
      <trkpt lat="45.6686" lon="5.47063">
        <ele>215</ele>
        <time>2022-04-16T09:59:22.848Z</time>
      </trkpt>
      <trkpt lat="45.66854" lon="5.47063">
        <ele>215</ele>
        <time>2022-04-16T09:59:23.848Z</time>
      </trkpt>
      <trkpt lat="45.66849" lon="5.47063">
        <ele>215</ele>
        <time>2022-04-16T09:59:24.849Z</time>
      </trkpt>
      <trkpt lat="45.66844" lon="5.47063">
        <ele>215</ele>
        <time>2022-04-16T09:59:25.848Z</time>
      </trkpt>
      <trkpt lat="45.6684" lon="5.47063">
        <ele>215</ele>
        <time>2022-04-16T09:59:26.848Z</time>
      </trkpt>
      <trkpt lat="45.66835" lon="5.47063">
        <ele>215</ele>
        <time>2022-04-16T09:59:27.848Z</time>
      </trkpt>
      <trkpt lat="45.6683" lon="5.47063">
        <ele>216</ele>
        <time>2022-04-16T09:59:28.848Z</time>
      </trkpt>
      <trkpt lat="45.66824" lon="5.47063">
        <ele>216</ele>
        <time>2022-04-16T09:59:29.848Z</time>
      </trkpt>
      <trkpt lat="45.6682" lon="5.47063">
        <ele>215</ele>
        <time>2022-04-16T09:59:30.848Z</time>
      </trkpt>
      <trkpt lat="45.66816" lon="5.47063">
        <ele>215</ele>
        <time>2022-04-16T09:59:31.848Z</time>
      </trkpt>
      <trkpt lat="45.66811" lon="5.47063">
        <ele>215</ele>
        <time>2022-04-16T09:59:32.848Z</time>
      </trkpt>
      <trkpt lat="45.66806" lon="5.47063">
        <ele>215</ele>
        <time>2022-04-16T09:59:33.848Z</time>
      </trkpt>
      <trkpt lat="45.66801" lon="5.47063">
        <ele>215</ele>
        <time>2022-04-16T09:59:34.848Z</time>
      </trkpt>
      <trkpt lat="45.66796" lon="5.47063">
        <ele>215</ele>
        <time>2022-04-16T09:59:35.848Z</time>
      </trkpt>
      <trkpt lat="45.66792" lon="5.47063">
        <ele>216</ele>
        <time>2022-04-16T09:59:36.848Z</time>
      </trkpt>
      <trkpt lat="45.66787" lon="5.47063">
        <ele>216</ele>
        <time>2022-04-16T09:59:37.849Z</time>
      </trkpt>
      <trkpt lat="45.66782" lon="5.47063">
        <ele>216</ele>
        <time>2022-04-16T09:59:38.848Z</time>
      </trkpt>
      <trkpt lat="45.66777" lon="5.47062">
        <ele>216</ele>
        <time>2022-04-16T09:59:39.848Z</time>
      </trkpt>
      <trkpt lat="45.66773" lon="5.47062">
        <ele>216</ele>
        <time>2022-04-16T09:59:40.849Z</time>
      </trkpt>
      <trkpt lat="45.66768" lon="5.47062">
        <ele>216</ele>
        <time>2022-04-16T09:59:41.848Z</time>
      </trkpt>
      <trkpt lat="45.66764" lon="5.47062">
        <ele>216</ele>
        <time>2022-04-16T09:59:42.848Z</time>
      </trkpt>
      <trkpt lat="45.66758" lon="5.47062">
        <ele>216</ele>
        <time>2022-04-16T09:59:43.849Z</time>
      </trkpt>
      <trkpt lat="45.66754" lon="5.47062">
        <ele>216</ele>
        <time>2022-04-16T09:59:44.849Z</time>
      </trkpt>
      <trkpt lat="45.66749" lon="5.47062">
        <ele>216</ele>
        <time>2022-04-16T09:59:45.849Z</time>
      </trkpt>
      <trkpt lat="45.66744" lon="5.47062">
        <ele>216</ele>
        <time>2022-04-16T09:59:46.848Z</time>
      </trkpt>
      <trkpt lat="45.6674" lon="5.47062">
        <ele>217</ele>
        <time>2022-04-16T09:59:47.849Z</time>
      </trkpt>
      <trkpt lat="45.66734" lon="5.47062">
        <ele>217</ele>
        <time>2022-04-16T09:59:48.849Z</time>
      </trkpt>
      <trkpt lat="45.6673" lon="5.47062">
        <ele>217</ele>
        <time>2022-04-16T09:59:49.849Z</time>
      </trkpt>
      <trkpt lat="45.66726" lon="5.47062">
        <ele>218</ele>
        <time>2022-04-16T09:59:50.849Z</time>
      </trkpt>
      <trkpt lat="45.66721" lon="5.47062">
        <ele>218</ele>
        <time>2022-04-16T09:59:51.849Z</time>
      </trkpt>
      <trkpt lat="45.66717" lon="5.47062">
        <ele>219</ele>
        <time>2022-04-16T09:59:52.849Z</time>
      </trkpt>
      <trkpt lat="45.66713" lon="5.47062">
        <ele>219</ele>
        <time>2022-04-16T09:59:53.849Z</time>
      </trkpt>
      <trkpt lat="45.66708" lon="5.47062">
        <ele>218</ele>
        <time>2022-04-16T09:59:54.848Z</time>
      </trkpt>
      <trkpt lat="45.66703" lon="5.47062">
        <ele>218</ele>
        <time>2022-04-16T09:59:55.848Z</time>
      </trkpt>
      <trkpt lat="45.66699" lon="5.47062">
        <ele>218</ele>
        <time>2022-04-16T09:59:56.849Z</time>
      </trkpt>
      <trkpt lat="45.66695" lon="5.47062">
        <ele>218</ele>
        <time>2022-04-16T09:59:57.849Z</time>
      </trkpt>
      <trkpt lat="45.66689" lon="5.47062">
        <ele>219</ele>
        <time>2022-04-16T09:59:58.848Z</time>
      </trkpt>
      <trkpt lat="45.66685" lon="5.47062">
        <ele>219</ele>
        <time>2022-04-16T09:59:59.849Z</time>
      </trkpt>
      <trkpt lat="45.66681" lon="5.47062">
        <ele>220</ele>
        <time>2022-04-16T10:00:00.849Z</time>
      </trkpt>
      <trkpt lat="45.66678" lon="5.47062">
        <ele>221</ele>
        <time>2022-04-16T10:00:01.849Z</time>
      </trkpt>
      <trkpt lat="45.66674" lon="5.47062">
        <ele>221</ele>
        <time>2022-04-16T10:00:02.848Z</time>
      </trkpt>
      <trkpt lat="45.6667" lon="5.47062">
        <ele>222</ele>
        <time>2022-04-16T10:00:03.848Z</time>
      </trkpt>
      <trkpt lat="45.66666" lon="5.47062">
        <ele>223</ele>
        <time>2022-04-16T10:00:04.849Z</time>
      </trkpt>
      <trkpt lat="45.66661" lon="5.47061">
        <ele>223</ele>
        <time>2022-04-16T10:00:05.849Z</time>
      </trkpt>
      <trkpt lat="45.66657" lon="5.47061">
        <ele>224</ele>
        <time>2022-04-16T10:00:06.848Z</time>
      </trkpt>
      <trkpt lat="45.66653" lon="5.47061">
        <ele>224</ele>
        <time>2022-04-16T10:00:07.849Z</time>
      </trkpt>
      <trkpt lat="45.66649" lon="5.4706">
        <ele>224</ele>
        <time>2022-04-16T10:00:08.848Z</time>
      </trkpt>
      <trkpt lat="45.66644" lon="5.4706">
        <ele>224</ele>
        <time>2022-04-16T10:00:09.849Z</time>
      </trkpt>
      <trkpt lat="45.66641" lon="5.4706">
        <ele>224</ele>
        <time>2022-04-16T10:00:10.849Z</time>
      </trkpt>
      <trkpt lat="45.66637" lon="5.47059">
        <ele>223</ele>
        <time>2022-04-16T10:00:11.849Z</time>
      </trkpt>
      <trkpt lat="45.66633" lon="5.47058">
        <ele>223</ele>
        <time>2022-04-16T10:00:12.849Z</time>
      </trkpt>
      <trkpt lat="45.66628" lon="5.47056">
        <ele>223</ele>
        <time>2022-04-16T10:00:13.849Z</time>
      </trkpt>
      <trkpt lat="45.66625" lon="5.47055">
        <ele>222</ele>
        <time>2022-04-16T10:00:14.849Z</time>
      </trkpt>
      <trkpt lat="45.6662" lon="5.47053">
        <ele>222</ele>
        <time>2022-04-16T10:00:15.849Z</time>
      </trkpt>
      <trkpt lat="45.66616" lon="5.47051">
        <ele>222</ele>
        <time>2022-04-16T10:00:16.848Z</time>
      </trkpt>
      <trkpt lat="45.66612" lon="5.47049">
        <ele>221</ele>
        <time>2022-04-16T10:00:17.849Z</time>
      </trkpt>
      <trkpt lat="45.66608" lon="5.47046">
        <ele>221</ele>
        <time>2022-04-16T10:00:18.849Z</time>
      </trkpt>
      <trkpt lat="45.66604" lon="5.47044">
        <ele>221</ele>
        <time>2022-04-16T10:00:19.848Z</time>
      </trkpt>
      <trkpt lat="45.666" lon="5.47041">
        <ele>221</ele>
        <time>2022-04-16T10:00:20.849Z</time>
      </trkpt>
      <trkpt lat="45.66596" lon="5.47039">
        <ele>221</ele>
        <time>2022-04-16T10:00:21.849Z</time>
      </trkpt>
      <trkpt lat="45.66592" lon="5.47037">
        <ele>221</ele>
        <time>2022-04-16T10:00:22.849Z</time>
      </trkpt>
      <trkpt lat="45.66588" lon="5.47035">
        <ele>221</ele>
        <time>2022-04-16T10:00:23.849Z</time>
      </trkpt>
      <trkpt lat="45.66583" lon="5.47033">
        <ele>222</ele>
        <time>2022-04-16T10:00:24.849Z</time>
      </trkpt>
      <trkpt lat="45.66579" lon="5.47031">
        <ele>222</ele>
        <time>2022-04-16T10:00:25.849Z</time>
      </trkpt>
      <trkpt lat="45.66575" lon="5.47029">
        <ele>222</ele>
        <time>2022-04-16T10:00:26.849Z</time>
      </trkpt>
      <trkpt lat="45.6657" lon="5.47027">
        <ele>223</ele>
        <time>2022-04-16T10:00:27.848Z</time>
      </trkpt>
      <trkpt lat="45.66566" lon="5.47025">
        <ele>223</ele>
        <time>2022-04-16T10:00:28.848Z</time>
      </trkpt>
      <trkpt lat="45.66562" lon="5.47024">
        <ele>224</ele>
        <time>2022-04-16T10:00:29.849Z</time>
      </trkpt>
      <trkpt lat="45.66558" lon="5.47022">
        <ele>224</ele>
        <time>2022-04-16T10:00:30.848Z</time>
      </trkpt>
      <trkpt lat="45.66554" lon="5.4702">
        <ele>224</ele>
        <time>2022-04-16T10:00:31.848Z</time>
      </trkpt>
      <trkpt lat="45.66549" lon="5.47018">
        <ele>223</ele>
        <time>2022-04-16T10:00:32.849Z</time>
      </trkpt>
      <trkpt lat="45.66544" lon="5.47016">
        <ele>223</ele>
        <time>2022-04-16T10:00:33.849Z</time>
      </trkpt>
      <trkpt lat="45.6654" lon="5.47014">
        <ele>223</ele>
        <time>2022-04-16T10:00:34.849Z</time>
      </trkpt>
      <trkpt lat="45.66536" lon="5.47012">
        <ele>222</ele>
        <time>2022-04-16T10:00:35.849Z</time>
      </trkpt>
      <trkpt lat="45.66532" lon="5.4701">
        <ele>222</ele>
        <time>2022-04-16T10:00:36.848Z</time>
      </trkpt>
      <trkpt lat="45.66527" lon="5.47007">
        <ele>222</ele>
        <time>2022-04-16T10:00:37.849Z</time>
      </trkpt>
      <trkpt lat="45.66522" lon="5.47004">
        <ele>222</ele>
        <time>2022-04-16T10:00:38.848Z</time>
      </trkpt>
      <trkpt lat="45.66518" lon="5.47001">
        <ele>222</ele>
        <time>2022-04-16T10:00:39.848Z</time>
      </trkpt>
      <trkpt lat="45.66515" lon="5.46999">
        <ele>222</ele>
        <time>2022-04-16T10:00:40.849Z</time>
      </trkpt>
      <trkpt lat="45.66511" lon="5.46996">
        <ele>221</ele>
        <time>2022-04-16T10:00:41.849Z</time>
      </trkpt>
      <trkpt lat="45.66505" lon="5.46993">
        <ele>221</ele>
        <time>2022-04-16T10:00:42.849Z</time>
      </trkpt>
      <trkpt lat="45.66501" lon="5.4699">
        <ele>221</ele>
        <time>2022-04-16T10:00:43.848Z</time>
      </trkpt>
      <trkpt lat="45.66497" lon="5.46988">
        <ele>221</ele>
        <time>2022-04-16T10:00:44.849Z</time>
      </trkpt>
      <trkpt lat="45.66493" lon="5.46985">
        <ele>221</ele>
        <time>2022-04-16T10:00:45.849Z</time>
      </trkpt>
      <trkpt lat="45.66488" lon="5.46982">
        <ele>221</ele>
        <time>2022-04-16T10:00:46.849Z</time>
      </trkpt>
      <trkpt lat="45.66483" lon="5.46979">
        <ele>221</ele>
        <time>2022-04-16T10:00:47.849Z</time>
      </trkpt>
      <trkpt lat="45.66479" lon="5.46976">
        <ele>221</ele>
        <time>2022-04-16T10:00:48.849Z</time>
      </trkpt>
      <trkpt lat="45.66475" lon="5.46974">
        <ele>220</ele>
        <time>2022-04-16T10:00:49.848Z</time>
      </trkpt>
      <trkpt lat="45.66471" lon="5.46971">
        <ele>221</ele>
        <time>2022-04-16T10:00:50.849Z</time>
      </trkpt>
      <trkpt lat="45.66466" lon="5.46968">
        <ele>221</ele>
        <time>2022-04-16T10:00:51.848Z</time>
      </trkpt>
      <trkpt lat="45.6646" lon="5.46965">
        <ele>221</ele>
        <time>2022-04-16T10:00:52.849Z</time>
      </trkpt>
      <trkpt lat="45.66457" lon="5.46962">
        <ele>221</ele>
        <time>2022-04-16T10:00:53.849Z</time>
      </trkpt>
      <trkpt lat="45.66452" lon="5.46959">
        <ele>221</ele>
        <time>2022-04-16T10:00:54.849Z</time>
      </trkpt>
      <trkpt lat="45.66448" lon="5.46956">
        <ele>221</ele>
        <time>2022-04-16T10:00:55.849Z</time>
      </trkpt>
      <trkpt lat="45.66443" lon="5.46953">
        <ele>221</ele>
        <time>2022-04-16T10:00:56.848Z</time>
      </trkpt>
      <trkpt lat="45.66438" lon="5.46949">
        <ele>221</ele>
        <time>2022-04-16T10:00:57.849Z</time>
      </trkpt>
      <trkpt lat="45.66433" lon="5.46945">
        <ele>221</ele>
        <time>2022-04-16T10:00:58.849Z</time>
      </trkpt>
      <trkpt lat="45.66429" lon="5.46941">
        <ele>220</ele>
        <time>2022-04-16T10:00:59.849Z</time>
      </trkpt>
      <trkpt lat="45.66426" lon="5.46937">
        <ele>220</ele>
        <time>2022-04-16T10:01:00.848Z</time>
      </trkpt>
      <trkpt lat="45.66423" lon="5.46932">
        <ele>219</ele>
        <time>2022-04-16T10:01:01.849Z</time>
      </trkpt>
      <trkpt lat="45.66419" lon="5.46925">
        <ele>219</ele>
        <time>2022-04-16T10:01:02.848Z</time>
      </trkpt>
      <trkpt lat="45.66416" lon="5.46919">
        <ele>219</ele>
        <time>2022-04-16T10:01:03.848Z</time>
      </trkpt>
      <trkpt lat="45.66415" lon="5.46914">
        <ele>219</ele>
        <time>2022-04-16T10:01:04.849Z</time>
      </trkpt>
      <trkpt lat="45.66413" lon="5.46907">
        <ele>219</ele>
        <time>2022-04-16T10:01:05.849Z</time>
      </trkpt>
      <trkpt lat="45.66411" lon="5.46901">
        <ele>219</ele>
        <time>2022-04-16T10:01:06.849Z</time>
      </trkpt>
      <trkpt lat="45.66408" lon="5.46893">
        <ele>219</ele>
        <time>2022-04-16T10:01:07.849Z</time>
      </trkpt>
      <trkpt lat="45.66407" lon="5.46887">
        <ele>220</ele>
        <time>2022-04-16T10:01:08.848Z</time>
      </trkpt>
      <trkpt lat="45.66406" lon="5.46881">
        <ele>220</ele>
        <time>2022-04-16T10:01:09.849Z</time>
      </trkpt>
      <trkpt lat="45.66404" lon="5.46875">
        <ele>221</ele>
        <time>2022-04-16T10:01:10.848Z</time>
      </trkpt>
      <trkpt lat="45.66402" lon="5.46867">
        <ele>221</ele>
        <time>2022-04-16T10:01:11.848Z</time>
      </trkpt>
      <trkpt lat="45.66401" lon="5.4686">
        <ele>221</ele>
        <time>2022-04-16T10:01:12.849Z</time>
      </trkpt>
      <trkpt lat="45.66399" lon="5.46854">
        <ele>222</ele>
        <time>2022-04-16T10:01:13.848Z</time>
      </trkpt>
      <trkpt lat="45.66398" lon="5.46848">
        <ele>222</ele>
        <time>2022-04-16T10:01:14.849Z</time>
      </trkpt>
      <trkpt lat="45.66396" lon="5.46842">
        <ele>222</ele>
        <time>2022-04-16T10:01:15.849Z</time>
      </trkpt>
      <trkpt lat="45.66394" lon="5.46834">
        <ele>222</ele>
        <time>2022-04-16T10:01:16.849Z</time>
      </trkpt>
      <trkpt lat="45.66393" lon="5.46829">
        <ele>222</ele>
        <time>2022-04-16T10:01:17.849Z</time>
      </trkpt>
      <trkpt lat="45.66391" lon="5.46821">
        <ele>222</ele>
        <time>2022-04-16T10:01:18.849Z</time>
      </trkpt>
      <trkpt lat="45.6639" lon="5.46816">
        <ele>222</ele>
        <time>2022-04-16T10:01:19.848Z</time>
      </trkpt>
      <trkpt lat="45.66388" lon="5.46809">
        <ele>222</ele>
        <time>2022-04-16T10:01:20.848Z</time>
      </trkpt>
      <trkpt lat="45.66387" lon="5.46802">
        <ele>222</ele>
        <time>2022-04-16T10:01:21.848Z</time>
      </trkpt>
      <trkpt lat="45.66385" lon="5.46794">
        <ele>222</ele>
        <time>2022-04-16T10:01:22.848Z</time>
      </trkpt>
      <trkpt lat="45.66383" lon="5.46787">
        <ele>222</ele>
        <time>2022-04-16T10:01:23.848Z</time>
      </trkpt>
      <trkpt lat="45.66382" lon="5.46782">
        <ele>222</ele>
        <time>2022-04-16T10:01:24.849Z</time>
      </trkpt>
      <trkpt lat="45.6638" lon="5.46775">
        <ele>222</ele>
        <time>2022-04-16T10:01:25.849Z</time>
      </trkpt>
      <trkpt lat="45.66379" lon="5.46767">
        <ele>222</ele>
        <time>2022-04-16T10:01:26.848Z</time>
      </trkpt>
      <trkpt lat="45.66377" lon="5.4676">
        <ele>222</ele>
        <time>2022-04-16T10:01:27.849Z</time>
      </trkpt>
      <trkpt lat="45.66375" lon="5.46754">
        <ele>222</ele>
        <time>2022-04-16T10:01:28.849Z</time>
      </trkpt>
      <trkpt lat="45.66373" lon="5.46749">
        <ele>222</ele>
        <time>2022-04-16T10:01:29.849Z</time>
      </trkpt>
      <trkpt lat="45.66372" lon="5.46742">
        <ele>222</ele>
        <time>2022-04-16T10:01:30.848Z</time>
      </trkpt>
      <trkpt lat="45.6637" lon="5.46734">
        <ele>222</ele>
        <time>2022-04-16T10:01:31.849Z</time>
      </trkpt>
      <trkpt lat="45.66368" lon="5.46727">
        <ele>222</ele>
        <time>2022-04-16T10:01:32.848Z</time>
      </trkpt>
      <trkpt lat="45.66366" lon="5.4672">
        <ele>223</ele>
        <time>2022-04-16T10:01:33.849Z</time>
      </trkpt>
      <trkpt lat="45.66364" lon="5.46713">
        <ele>223</ele>
        <time>2022-04-16T10:01:34.849Z</time>
      </trkpt>
      <trkpt lat="45.66363" lon="5.46708">
        <ele>223</ele>
        <time>2022-04-16T10:01:35.849Z</time>
      </trkpt>
      <trkpt lat="45.66361" lon="5.46699">
        <ele>223</ele>
        <time>2022-04-16T10:01:36.848Z</time>
      </trkpt>
      <trkpt lat="45.66359" lon="5.46694">
        <ele>223</ele>
        <time>2022-04-16T10:01:37.848Z</time>
      </trkpt>
      <trkpt lat="45.66358" lon="5.46687">
        <ele>223</ele>
        <time>2022-04-16T10:01:38.848Z</time>
      </trkpt>
      <trkpt lat="45.66356" lon="5.46681">
        <ele>223</ele>
        <time>2022-04-16T10:01:39.848Z</time>
      </trkpt>
      <trkpt lat="45.66354" lon="5.46674">
        <ele>223</ele>
        <time>2022-04-16T10:01:40.849Z</time>
      </trkpt>
      <trkpt lat="45.66352" lon="5.46667">
        <ele>223</ele>
        <time>2022-04-16T10:01:41.849Z</time>
      </trkpt>
      <trkpt lat="45.6635" lon="5.46659">
        <ele>223</ele>
        <time>2022-04-16T10:01:42.848Z</time>
      </trkpt>
      <trkpt lat="45.66349" lon="5.46654">
        <ele>224</ele>
        <time>2022-04-16T10:01:43.849Z</time>
      </trkpt>
      <trkpt lat="45.66347" lon="5.46647">
        <ele>224</ele>
        <time>2022-04-16T10:01:44.849Z</time>
      </trkpt>
      <trkpt lat="45.66345" lon="5.4664">
        <ele>225</ele>
        <time>2022-04-16T10:01:45.849Z</time>
      </trkpt>
      <trkpt lat="45.66344" lon="5.46633">
        <ele>225</ele>
        <time>2022-04-16T10:01:46.848Z</time>
      </trkpt>
      <trkpt lat="45.66342" lon="5.46625">
        <ele>225</ele>
        <time>2022-04-16T10:01:47.849Z</time>
      </trkpt>
      <trkpt lat="45.6634" lon="5.46619">
        <ele>225</ele>
        <time>2022-04-16T10:01:48.849Z</time>
      </trkpt>
      <trkpt lat="45.66338" lon="5.46612">
        <ele>224</ele>
        <time>2022-04-16T10:01:49.849Z</time>
      </trkpt>
      <trkpt lat="45.66336" lon="5.46604">
        <ele>224</ele>
        <time>2022-04-16T10:01:50.849Z</time>
      </trkpt>
      <trkpt lat="45.66334" lon="5.46597">
        <ele>223</ele>
        <time>2022-04-16T10:01:51.849Z</time>
      </trkpt>
      <trkpt lat="45.66332" lon="5.4659">
        <ele>223</ele>
        <time>2022-04-16T10:01:52.849Z</time>
      </trkpt>
      <trkpt lat="45.66331" lon="5.46584">
        <ele>223</ele>
        <time>2022-04-16T10:01:53.849Z</time>
      </trkpt>
      <trkpt lat="45.66329" lon="5.46577">
        <ele>223</ele>
        <time>2022-04-16T10:01:54.849Z</time>
      </trkpt>
      <trkpt lat="45.66327" lon="5.46568">
        <ele>223</ele>
        <time>2022-04-16T10:01:55.849Z</time>
      </trkpt>
      <trkpt lat="45.66325" lon="5.46561">
        <ele>223</ele>
        <time>2022-04-16T10:01:56.849Z</time>
      </trkpt>
      <trkpt lat="45.66323" lon="5.46554">
        <ele>223</ele>
        <time>2022-04-16T10:01:57.848Z</time>
      </trkpt>
      <trkpt lat="45.66322" lon="5.46548">
        <ele>223</ele>
        <time>2022-04-16T10:01:58.849Z</time>
      </trkpt>
      <trkpt lat="45.6632" lon="5.46541">
        <ele>223</ele>
        <time>2022-04-16T10:01:59.849Z</time>
      </trkpt>
      <trkpt lat="45.66318" lon="5.46532">
        <ele>223</ele>
        <time>2022-04-16T10:02:00.849Z</time>
      </trkpt>
      <trkpt lat="45.66316" lon="5.46525">
        <ele>223</ele>
        <time>2022-04-16T10:02:01.848Z</time>
      </trkpt>
      <trkpt lat="45.66314" lon="5.46518">
        <ele>223</ele>
        <time>2022-04-16T10:02:02.848Z</time>
      </trkpt>
      <trkpt lat="45.66313" lon="5.46512">
        <ele>223</ele>
        <time>2022-04-16T10:02:03.849Z</time>
      </trkpt>
      <trkpt lat="45.66311" lon="5.46505">
        <ele>223</ele>
        <time>2022-04-16T10:02:04.848Z</time>
      </trkpt>
      <trkpt lat="45.66309" lon="5.46497">
        <ele>223</ele>
        <time>2022-04-16T10:02:05.849Z</time>
      </trkpt>
      <trkpt lat="45.66307" lon="5.46491">
        <ele>224</ele>
        <time>2022-04-16T10:02:06.848Z</time>
      </trkpt>
      <trkpt lat="45.66305" lon="5.46483">
        <ele>224</ele>
        <time>2022-04-16T10:02:07.849Z</time>
      </trkpt>
      <trkpt lat="45.66304" lon="5.46477">
        <ele>224</ele>
        <time>2022-04-16T10:02:08.848Z</time>
      </trkpt>
      <trkpt lat="45.66302" lon="5.4647">
        <ele>224</ele>
        <time>2022-04-16T10:02:09.849Z</time>
      </trkpt>
      <trkpt lat="45.663" lon="5.46462">
        <ele>224</ele>
        <time>2022-04-16T10:02:10.849Z</time>
      </trkpt>
      <trkpt lat="45.66298" lon="5.46455">
        <ele>224</ele>
        <time>2022-04-16T10:02:11.849Z</time>
      </trkpt>
      <trkpt lat="45.66296" lon="5.46448">
        <ele>225</ele>
        <time>2022-04-16T10:02:12.849Z</time>
      </trkpt>
      <trkpt lat="45.66294" lon="5.46442">
        <ele>225</ele>
        <time>2022-04-16T10:02:13.849Z</time>
      </trkpt>
      <trkpt lat="45.66293" lon="5.46435">
        <ele>225</ele>
        <time>2022-04-16T10:02:14.849Z</time>
      </trkpt>
      <trkpt lat="45.6629" lon="5.46427">
        <ele>225</ele>
        <time>2022-04-16T10:02:15.849Z</time>
      </trkpt>
      <trkpt lat="45.66288" lon="5.4642">
        <ele>225</ele>
        <time>2022-04-16T10:02:16.849Z</time>
      </trkpt>
      <trkpt lat="45.66287" lon="5.46414">
        <ele>225</ele>
        <time>2022-04-16T10:02:17.848Z</time>
      </trkpt>
      <trkpt lat="45.66285" lon="5.46407">
        <ele>224</ele>
        <time>2022-04-16T10:02:18.849Z</time>
      </trkpt>
      <trkpt lat="45.66283" lon="5.464">
        <ele>225</ele>
        <time>2022-04-16T10:02:19.848Z</time>
      </trkpt>
      <trkpt lat="45.66281" lon="5.46394">
        <ele>225</ele>
        <time>2022-04-16T10:02:20.849Z</time>
      </trkpt>
      <trkpt lat="45.66278" lon="5.46386">
        <ele>225</ele>
        <time>2022-04-16T10:02:21.848Z</time>
      </trkpt>
      <trkpt lat="45.66276" lon="5.46379">
        <ele>225</ele>
        <time>2022-04-16T10:02:22.849Z</time>
      </trkpt>
      <trkpt lat="45.66274" lon="5.46374">
        <ele>225</ele>
        <time>2022-04-16T10:02:23.849Z</time>
      </trkpt>
      <trkpt lat="45.66272" lon="5.46368">
        <ele>225</ele>
        <time>2022-04-16T10:02:24.848Z</time>
      </trkpt>
      <trkpt lat="45.6627" lon="5.46361">
        <ele>226</ele>
        <time>2022-04-16T10:02:25.848Z</time>
      </trkpt>
      <trkpt lat="45.66267" lon="5.46354">
        <ele>226</ele>
        <time>2022-04-16T10:02:26.849Z</time>
      </trkpt>
      <trkpt lat="45.66265" lon="5.46349">
        <ele>226</ele>
        <time>2022-04-16T10:02:27.849Z</time>
      </trkpt>
      <trkpt lat="45.66263" lon="5.46342">
        <ele>226</ele>
        <time>2022-04-16T10:02:28.848Z</time>
      </trkpt>
      <trkpt lat="45.6626" lon="5.46336">
        <ele>226</ele>
        <time>2022-04-16T10:02:29.849Z</time>
      </trkpt>
      <trkpt lat="45.66257" lon="5.4633">
        <ele>226</ele>
        <time>2022-04-16T10:02:30.849Z</time>
      </trkpt>
      <trkpt lat="45.66254" lon="5.46323">
        <ele>226</ele>
        <time>2022-04-16T10:02:31.849Z</time>
      </trkpt>
      <trkpt lat="45.66252" lon="5.46318">
        <ele>226</ele>
        <time>2022-04-16T10:02:32.849Z</time>
      </trkpt>
      <trkpt lat="45.66249" lon="5.46312">
        <ele>226</ele>
        <time>2022-04-16T10:02:33.849Z</time>
      </trkpt>
      <trkpt lat="45.66246" lon="5.46305">
        <ele>226</ele>
        <time>2022-04-16T10:02:34.849Z</time>
      </trkpt>
      <trkpt lat="45.66243" lon="5.46299">
        <ele>226</ele>
        <time>2022-04-16T10:02:35.849Z</time>
      </trkpt>
      <trkpt lat="45.6624" lon="5.46293">
        <ele>226</ele>
        <time>2022-04-16T10:02:36.848Z</time>
      </trkpt>
      <trkpt lat="45.66237" lon="5.46289">
        <ele>225</ele>
        <time>2022-04-16T10:02:37.849Z</time>
      </trkpt>
      <trkpt lat="45.66234" lon="5.46283">
        <ele>225</ele>
        <time>2022-04-16T10:02:38.848Z</time>
      </trkpt>
      <trkpt lat="45.6623" lon="5.46277">
        <ele>224</ele>
        <time>2022-04-16T10:02:39.848Z</time>
      </trkpt>
      <trkpt lat="45.66228" lon="5.46272">
        <ele>224</ele>
        <time>2022-04-16T10:02:40.849Z</time>
      </trkpt>
      <trkpt lat="45.66224" lon="5.46265">
        <ele>224</ele>
        <time>2022-04-16T10:02:41.849Z</time>
      </trkpt>
      <trkpt lat="45.66221" lon="5.46261">
        <ele>224</ele>
        <time>2022-04-16T10:02:42.849Z</time>
      </trkpt>
      <trkpt lat="45.66218" lon="5.46256">
        <ele>224</ele>
        <time>2022-04-16T10:02:43.849Z</time>
      </trkpt>
      <trkpt lat="45.66214" lon="5.4625">
        <ele>224</ele>
        <time>2022-04-16T10:02:44.849Z</time>
      </trkpt>
      <trkpt lat="45.6621" lon="5.46244">
        <ele>225</ele>
        <time>2022-04-16T10:02:45.849Z</time>
      </trkpt>
      <trkpt lat="45.66207" lon="5.4624">
        <ele>225</ele>
        <time>2022-04-16T10:02:46.849Z</time>
      </trkpt>
      <trkpt lat="45.66203" lon="5.46235">
        <ele>225</ele>
        <time>2022-04-16T10:02:47.848Z</time>
      </trkpt>
      <trkpt lat="45.66199" lon="5.46229">
        <ele>225</ele>
        <time>2022-04-16T10:02:48.849Z</time>
      </trkpt>
      <trkpt lat="45.66195" lon="5.46224">
        <ele>226</ele>
        <time>2022-04-16T10:02:49.849Z</time>
      </trkpt>
      <trkpt lat="45.66192" lon="5.46219">
        <ele>226</ele>
        <time>2022-04-16T10:02:50.849Z</time>
      </trkpt>
      <trkpt lat="45.66188" lon="5.46215">
        <ele>226</ele>
        <time>2022-04-16T10:02:51.849Z</time>
      </trkpt>
      <trkpt lat="45.66185" lon="5.4621">
        <ele>226</ele>
        <time>2022-04-16T10:02:52.849Z</time>
      </trkpt>
      <trkpt lat="45.66181" lon="5.46205">
        <ele>226</ele>
        <time>2022-04-16T10:02:53.849Z</time>
      </trkpt>
      <trkpt lat="45.66176" lon="5.46198">
        <ele>226</ele>
        <time>2022-04-16T10:02:54.848Z</time>
      </trkpt>
      <trkpt lat="45.66173" lon="5.46194">
        <ele>227</ele>
        <time>2022-04-16T10:02:55.849Z</time>
      </trkpt>
      <trkpt lat="45.66169" lon="5.46188">
        <ele>227</ele>
        <time>2022-04-16T10:02:56.848Z</time>
      </trkpt>
      <trkpt lat="45.66165" lon="5.46183">
        <ele>227</ele>
        <time>2022-04-16T10:02:57.849Z</time>
      </trkpt>
      <trkpt lat="45.66161" lon="5.46176">
        <ele>227</ele>
        <time>2022-04-16T10:02:58.848Z</time>
      </trkpt>
      <trkpt lat="45.66158" lon="5.46172">
        <ele>227</ele>
        <time>2022-04-16T10:02:59.849Z</time>
      </trkpt>
      <trkpt lat="45.66154" lon="5.46167">
        <ele>227</ele>
        <time>2022-04-16T10:03:00.849Z</time>
      </trkpt>
      <trkpt lat="45.6615" lon="5.46162">
        <ele>227</ele>
        <time>2022-04-16T10:03:01.849Z</time>
      </trkpt>
      <trkpt lat="45.66146" lon="5.46157">
        <ele>227</ele>
        <time>2022-04-16T10:03:02.849Z</time>
      </trkpt>
      <trkpt lat="45.66141" lon="5.4615">
        <ele>227</ele>
        <time>2022-04-16T10:03:03.848Z</time>
      </trkpt>
      <trkpt lat="45.66137" lon="5.46146">
        <ele>227</ele>
        <time>2022-04-16T10:03:04.849Z</time>
      </trkpt>
      <trkpt lat="45.66134" lon="5.46141">
        <ele>227</ele>
        <time>2022-04-16T10:03:05.849Z</time>
      </trkpt>
      <trkpt lat="45.6613" lon="5.46136">
        <ele>227</ele>
        <time>2022-04-16T10:03:06.849Z</time>
      </trkpt>
      <trkpt lat="45.66126" lon="5.4613">
        <ele>227</ele>
        <time>2022-04-16T10:03:07.849Z</time>
      </trkpt>
      <trkpt lat="45.66123" lon="5.46126">
        <ele>226</ele>
        <time>2022-04-16T10:03:08.849Z</time>
      </trkpt>
      <trkpt lat="45.66119" lon="5.46121">
        <ele>226</ele>
        <time>2022-04-16T10:03:09.849Z</time>
      </trkpt>
      <trkpt lat="45.66115" lon="5.46116">
        <ele>226</ele>
        <time>2022-04-16T10:03:10.849Z</time>
      </trkpt>
      <trkpt lat="45.66111" lon="5.4611">
        <ele>227</ele>
        <time>2022-04-16T10:03:11.849Z</time>
      </trkpt>
      <trkpt lat="45.66106" lon="5.46104">
        <ele>227</ele>
        <time>2022-04-16T10:03:12.849Z</time>
      </trkpt>
      <trkpt lat="45.66102" lon="5.46099">
        <ele>227</ele>
        <time>2022-04-16T10:03:13.849Z</time>
      </trkpt>
      <trkpt lat="45.66099" lon="5.46094">
        <ele>227</ele>
        <time>2022-04-16T10:03:14.849Z</time>
      </trkpt>
      <trkpt lat="45.66095" lon="5.46089">
        <ele>227</ele>
        <time>2022-04-16T10:03:15.849Z</time>
      </trkpt>
      <trkpt lat="45.66092" lon="5.46084">
        <ele>227</ele>
        <time>2022-04-16T10:03:16.848Z</time>
      </trkpt>
      <trkpt lat="45.66087" lon="5.46078">
        <ele>227</ele>
        <time>2022-04-16T10:03:17.849Z</time>
      </trkpt>
      <trkpt lat="45.66084" lon="5.46073">
        <ele>227</ele>
        <time>2022-04-16T10:03:18.849Z</time>
      </trkpt>
      <trkpt lat="45.66081" lon="5.46069">
        <ele>227</ele>
        <time>2022-04-16T10:03:19.848Z</time>
      </trkpt>
      <trkpt lat="45.66077" lon="5.46064">
        <ele>227</ele>
        <time>2022-04-16T10:03:20.849Z</time>
      </trkpt>
      <trkpt lat="45.66072" lon="5.46058">
        <ele>227</ele>
        <time>2022-04-16T10:03:21.848Z</time>
      </trkpt>
      <trkpt lat="45.66069" lon="5.46054">
        <ele>226</ele>
        <time>2022-04-16T10:03:22.849Z</time>
      </trkpt>
      <trkpt lat="45.66065" lon="5.46048">
        <ele>225</ele>
        <time>2022-04-16T10:03:23.848Z</time>
      </trkpt>
      <trkpt lat="45.66062" lon="5.46044">
        <ele>225</ele>
        <time>2022-04-16T10:03:24.848Z</time>
      </trkpt>
      <trkpt lat="45.66058" lon="5.46039">
        <ele>224</ele>
        <time>2022-04-16T10:03:25.848Z</time>
      </trkpt>
      <trkpt lat="45.66053" lon="5.46033">
        <ele>224</ele>
        <time>2022-04-16T10:03:26.849Z</time>
      </trkpt>
      <trkpt lat="45.66049" lon="5.46028">
        <ele>224</ele>
        <time>2022-04-16T10:03:27.849Z</time>
      </trkpt>
      <trkpt lat="45.66045" lon="5.46023">
        <ele>223</ele>
        <time>2022-04-16T10:03:28.849Z</time>
      </trkpt>
      <trkpt lat="45.66042" lon="5.4602">
        <ele>223</ele>
        <time>2022-04-16T10:03:29.848Z</time>
      </trkpt>
      <trkpt lat="45.66038" lon="5.46015">
        <ele>224</ele>
        <time>2022-04-16T10:03:30.848Z</time>
      </trkpt>
      <trkpt lat="45.66033" lon="5.4601">
        <ele>224</ele>
        <time>2022-04-16T10:03:31.849Z</time>
      </trkpt>
      <trkpt lat="45.66029" lon="5.46005">
        <ele>224</ele>
        <time>2022-04-16T10:03:32.849Z</time>
      </trkpt>
      <trkpt lat="45.66025" lon="5.46001">
        <ele>225</ele>
        <time>2022-04-16T10:03:33.848Z</time>
      </trkpt>
      <trkpt lat="45.66021" lon="5.45998">
        <ele>225</ele>
        <time>2022-04-16T10:03:34.849Z</time>
      </trkpt>
      <trkpt lat="45.66017" lon="5.45994">
        <ele>225</ele>
        <time>2022-04-16T10:03:35.849Z</time>
      </trkpt>
      <trkpt lat="45.66012" lon="5.45989">
        <ele>224</ele>
        <time>2022-04-16T10:03:36.848Z</time>
      </trkpt>
      <trkpt lat="45.66008" lon="5.45986">
        <ele>225</ele>
        <time>2022-04-16T10:03:37.849Z</time>
      </trkpt>
      <trkpt lat="45.66005" lon="5.45982">
        <ele>225</ele>
        <time>2022-04-16T10:03:38.849Z</time>
      </trkpt>
      <trkpt lat="45.66001" lon="5.45978">
        <ele>225</ele>
        <time>2022-04-16T10:03:39.849Z</time>
      </trkpt>
      <trkpt lat="45.65995" lon="5.45973">
        <ele>225</ele>
        <time>2022-04-16T10:03:40.849Z</time>
      </trkpt>
      <trkpt lat="45.65992" lon="5.4597">
        <ele>225</ele>
        <time>2022-04-16T10:03:41.848Z</time>
      </trkpt>
      <trkpt lat="45.65988" lon="5.45966">
        <ele>225</ele>
        <time>2022-04-16T10:03:42.848Z</time>
      </trkpt>
      <trkpt lat="45.65984" lon="5.45962">
        <ele>225</ele>
        <time>2022-04-16T10:03:43.849Z</time>
      </trkpt>
      <trkpt lat="45.65979" lon="5.45957">
        <ele>225</ele>
        <time>2022-04-16T10:03:44.848Z</time>
      </trkpt>
      <trkpt lat="45.65974" lon="5.45953">
        <ele>225</ele>
        <time>2022-04-16T10:03:45.848Z</time>
      </trkpt>
      <trkpt lat="45.6597" lon="5.45949">
        <ele>224</ele>
        <time>2022-04-16T10:03:46.848Z</time>
      </trkpt>
      <trkpt lat="45.65965" lon="5.45945">
        <ele>224</ele>
        <time>2022-04-16T10:03:47.849Z</time>
      </trkpt>
      <trkpt lat="45.65962" lon="5.45942">
        <ele>224</ele>
        <time>2022-04-16T10:03:48.848Z</time>
      </trkpt>
      <trkpt lat="45.65957" lon="5.45939">
        <ele>224</ele>
        <time>2022-04-16T10:03:49.849Z</time>
      </trkpt>
      <trkpt lat="45.65952" lon="5.45934">
        <ele>225</ele>
        <time>2022-04-16T10:03:50.849Z</time>
      </trkpt>
      <trkpt lat="45.65948" lon="5.4593">
        <ele>225</ele>
        <time>2022-04-16T10:03:51.849Z</time>
      </trkpt>
      <trkpt lat="45.65943" lon="5.45926">
        <ele>225</ele>
        <time>2022-04-16T10:03:52.849Z</time>
      </trkpt>
      <trkpt lat="45.65939" lon="5.45922">
        <ele>225</ele>
        <time>2022-04-16T10:03:53.849Z</time>
      </trkpt>
      <trkpt lat="45.65935" lon="5.45918">
        <ele>225</ele>
        <time>2022-04-16T10:03:54.849Z</time>
      </trkpt>
      <trkpt lat="45.65931" lon="5.45914">
        <ele>224</ele>
        <time>2022-04-16T10:03:55.849Z</time>
      </trkpt>
      <trkpt lat="45.65925" lon="5.4591">
        <ele>224</ele>
        <time>2022-04-16T10:03:56.849Z</time>
      </trkpt>
      <trkpt lat="45.65922" lon="5.45906">
        <ele>224</ele>
        <time>2022-04-16T10:03:57.849Z</time>
      </trkpt>
      <trkpt lat="45.65918" lon="5.45902">
        <ele>225</ele>
        <time>2022-04-16T10:03:58.849Z</time>
      </trkpt>
      <trkpt lat="45.65912" lon="5.45898">
        <ele>225</ele>
        <time>2022-04-16T10:03:59.849Z</time>
      </trkpt>
      <trkpt lat="45.65908" lon="5.45894">
        <ele>225</ele>
        <time>2022-04-16T10:04:00.848Z</time>
      </trkpt>
      <trkpt lat="45.65903" lon="5.4589">
        <ele>225</ele>
        <time>2022-04-16T10:04:01.849Z</time>
      </trkpt>
      <trkpt lat="45.659" lon="5.45887">
        <ele>225</ele>
        <time>2022-04-16T10:04:02.849Z</time>
      </trkpt>
      <trkpt lat="45.65896" lon="5.45883">
        <ele>225</ele>
        <time>2022-04-16T10:04:03.848Z</time>
      </trkpt>
      <trkpt lat="45.65891" lon="5.45879">
        <ele>225</ele>
        <time>2022-04-16T10:04:04.849Z</time>
      </trkpt>
      <trkpt lat="45.65887" lon="5.45876">
        <ele>225</ele>
        <time>2022-04-16T10:04:05.848Z</time>
      </trkpt>
      <trkpt lat="45.65882" lon="5.45871">
        <ele>224</ele>
        <time>2022-04-16T10:04:06.848Z</time>
      </trkpt>
      <trkpt lat="45.65878" lon="5.45868">
        <ele>224</ele>
        <time>2022-04-16T10:04:07.849Z</time>
      </trkpt>
      <trkpt lat="45.65874" lon="5.45864">
        <ele>223</ele>
        <time>2022-04-16T10:04:08.849Z</time>
      </trkpt>
      <trkpt lat="45.65869" lon="5.4586">
        <ele>223</ele>
        <time>2022-04-16T10:04:09.849Z</time>
      </trkpt>
      <trkpt lat="45.65864" lon="5.45856">
        <ele>222</ele>
        <time>2022-04-16T10:04:10.849Z</time>
      </trkpt>
      <trkpt lat="45.6586" lon="5.45852">
        <ele>222</ele>
        <time>2022-04-16T10:04:11.849Z</time>
      </trkpt>
      <trkpt lat="45.65856" lon="5.45849">
        <ele>222</ele>
        <time>2022-04-16T10:04:12.848Z</time>
      </trkpt>
      <trkpt lat="45.65852" lon="5.45846">
        <ele>222</ele>
        <time>2022-04-16T10:04:13.849Z</time>
      </trkpt>
      <trkpt lat="45.65847" lon="5.45842">
        <ele>222</ele>
        <time>2022-04-16T10:04:14.849Z</time>
      </trkpt>
      <trkpt lat="45.65841" lon="5.45838">
        <ele>222</ele>
        <time>2022-04-16T10:04:15.849Z</time>
      </trkpt>
      <trkpt lat="45.65837" lon="5.45836">
        <ele>222</ele>
        <time>2022-04-16T10:04:16.848Z</time>
      </trkpt>
      <trkpt lat="45.65832" lon="5.45833">
        <ele>222</ele>
        <time>2022-04-16T10:04:17.849Z</time>
      </trkpt>
      <trkpt lat="45.65826" lon="5.45829">
        <ele>222</ele>
        <time>2022-04-16T10:04:18.849Z</time>
      </trkpt>
      <trkpt lat="45.65821" lon="5.45826">
        <ele>222</ele>
        <time>2022-04-16T10:04:19.849Z</time>
      </trkpt>
      <trkpt lat="45.65817" lon="5.45823">
        <ele>222</ele>
        <time>2022-04-16T10:04:20.849Z</time>
      </trkpt>
      <trkpt lat="45.65812" lon="5.4582">
        <ele>222</ele>
        <time>2022-04-16T10:04:21.849Z</time>
      </trkpt>
      <trkpt lat="45.65806" lon="5.45817">
        <ele>222</ele>
        <time>2022-04-16T10:04:22.848Z</time>
      </trkpt>
      <trkpt lat="45.658" lon="5.45814">
        <ele>223</ele>
        <time>2022-04-16T10:04:23.849Z</time>
      </trkpt>
      <trkpt lat="45.65795" lon="5.45812">
        <ele>223</ele>
        <time>2022-04-16T10:04:24.849Z</time>
      </trkpt>
      <trkpt lat="45.6579" lon="5.4581">
        <ele>223</ele>
        <time>2022-04-16T10:04:25.849Z</time>
      </trkpt>
      <trkpt lat="45.65784" lon="5.45807">
        <ele>223</ele>
        <time>2022-04-16T10:04:26.849Z</time>
      </trkpt>
      <trkpt lat="45.65779" lon="5.45805">
        <ele>223</ele>
        <time>2022-04-16T10:04:27.849Z</time>
      </trkpt>
      <trkpt lat="45.65772" lon="5.45803">
        <ele>223</ele>
        <time>2022-04-16T10:04:28.848Z</time>
      </trkpt>
      <trkpt lat="45.65766" lon="5.45801">
        <ele>223</ele>
        <time>2022-04-16T10:04:29.848Z</time>
      </trkpt>
      <trkpt lat="45.65761" lon="5.45799">
        <ele>222</ele>
        <time>2022-04-16T10:04:30.849Z</time>
      </trkpt>
      <trkpt lat="45.65756" lon="5.45798">
        <ele>222</ele>
        <time>2022-04-16T10:04:31.849Z</time>
      </trkpt>
      <trkpt lat="45.65751" lon="5.45796">
        <ele>222</ele>
        <time>2022-04-16T10:04:32.849Z</time>
      </trkpt>
      <trkpt lat="45.65745" lon="5.45795">
        <ele>222</ele>
        <time>2022-04-16T10:04:33.849Z</time>
      </trkpt>
      <trkpt lat="45.65738" lon="5.45793">
        <ele>223</ele>
        <time>2022-04-16T10:04:34.849Z</time>
      </trkpt>
      <trkpt lat="45.65733" lon="5.45791">
        <ele>223</ele>
        <time>2022-04-16T10:04:35.849Z</time>
      </trkpt>
      <trkpt lat="45.65727" lon="5.4579">
        <ele>223</ele>
        <time>2022-04-16T10:04:36.849Z</time>
      </trkpt>
      <trkpt lat="45.6572" lon="5.45788">
        <ele>223</ele>
        <time>2022-04-16T10:04:37.848Z</time>
      </trkpt>
      <trkpt lat="45.65714" lon="5.45786">
        <ele>223</ele>
        <time>2022-04-16T10:04:38.849Z</time>
      </trkpt>
      <trkpt lat="45.65709" lon="5.45785">
        <ele>223</ele>
        <time>2022-04-16T10:04:39.849Z</time>
      </trkpt>
      <trkpt lat="45.65703" lon="5.45783">
        <ele>223</ele>
        <time>2022-04-16T10:04:40.848Z</time>
      </trkpt>
      <trkpt lat="45.65697" lon="5.45782">
        <ele>223</ele>
        <time>2022-04-16T10:04:41.849Z</time>
      </trkpt>
      <trkpt lat="45.6569" lon="5.4578">
        <ele>223</ele>
        <time>2022-04-16T10:04:42.848Z</time>
      </trkpt>
      <trkpt lat="45.65684" lon="5.45779">
        <ele>223</ele>
        <time>2022-04-16T10:04:43.849Z</time>
      </trkpt>
      <trkpt lat="45.6568" lon="5.45778">
        <ele>224</ele>
        <time>2022-04-16T10:04:44.849Z</time>
      </trkpt>
      <trkpt lat="45.65674" lon="5.45776">
        <ele>224</ele>
        <time>2022-04-16T10:04:45.849Z</time>
      </trkpt>
      <trkpt lat="45.65669" lon="5.45775">
        <ele>224</ele>
        <time>2022-04-16T10:04:46.849Z</time>
      </trkpt>
      <trkpt lat="45.65663" lon="5.45773">
        <ele>224</ele>
        <time>2022-04-16T10:04:47.849Z</time>
      </trkpt>
      <trkpt lat="45.65657" lon="5.45771">
        <ele>224</ele>
        <time>2022-04-16T10:04:48.848Z</time>
      </trkpt>
      <trkpt lat="45.65653" lon="5.4577">
        <ele>224</ele>
        <time>2022-04-16T10:04:49.849Z</time>
      </trkpt>
      <trkpt lat="45.65648" lon="5.45769">
        <ele>224</ele>
        <time>2022-04-16T10:04:50.849Z</time>
      </trkpt>
      <trkpt lat="45.65642" lon="5.45767">
        <ele>224</ele>
        <time>2022-04-16T10:04:51.849Z</time>
      </trkpt>
      <trkpt lat="45.65637" lon="5.45765">
        <ele>223</ele>
        <time>2022-04-16T10:04:52.849Z</time>
      </trkpt>
      <trkpt lat="45.65631" lon="5.45763">
        <ele>223</ele>
        <time>2022-04-16T10:04:53.849Z</time>
      </trkpt>
      <trkpt lat="45.65627" lon="5.45761">
        <ele>223</ele>
        <time>2022-04-16T10:04:54.849Z</time>
      </trkpt>
      <trkpt lat="45.65621" lon="5.45759">
        <ele>223</ele>
        <time>2022-04-16T10:04:55.848Z</time>
      </trkpt>
      <trkpt lat="45.65615" lon="5.45756">
        <ele>222</ele>
        <time>2022-04-16T10:04:56.848Z</time>
      </trkpt>
      <trkpt lat="45.6561" lon="5.45753">
        <ele>222</ele>
        <time>2022-04-16T10:04:57.848Z</time>
      </trkpt>
      <trkpt lat="45.65605" lon="5.45751">
        <ele>222</ele>
        <time>2022-04-16T10:04:58.849Z</time>
      </trkpt>
      <trkpt lat="45.65601" lon="5.45749">
        <ele>222</ele>
        <time>2022-04-16T10:04:59.849Z</time>
      </trkpt>
      <trkpt lat="45.65596" lon="5.45746">
        <ele>222</ele>
        <time>2022-04-16T10:05:00.848Z</time>
      </trkpt>
      <trkpt lat="45.65591" lon="5.45743">
        <ele>222</ele>
        <time>2022-04-16T10:05:01.849Z</time>
      </trkpt>
      <trkpt lat="45.65585" lon="5.45739">
        <ele>222</ele>
        <time>2022-04-16T10:05:02.848Z</time>
      </trkpt>
      <trkpt lat="45.65581" lon="5.45737">
        <ele>223</ele>
        <time>2022-04-16T10:05:03.849Z</time>
      </trkpt>
      <trkpt lat="45.65576" lon="5.45734">
        <ele>223</ele>
        <time>2022-04-16T10:05:04.848Z</time>
      </trkpt>
      <trkpt lat="45.6557" lon="5.4573">
        <ele>223</ele>
        <time>2022-04-16T10:05:05.849Z</time>
      </trkpt>
      <trkpt lat="45.65566" lon="5.45727">
        <ele>223</ele>
        <time>2022-04-16T10:05:06.849Z</time>
      </trkpt>
      <trkpt lat="45.65561" lon="5.45724">
        <ele>224</ele>
        <time>2022-04-16T10:05:07.849Z</time>
      </trkpt>
      <trkpt lat="45.65556" lon="5.4572">
        <ele>224</ele>
        <time>2022-04-16T10:05:08.849Z</time>
      </trkpt>
      <trkpt lat="45.6555" lon="5.45717">
        <ele>224</ele>
        <time>2022-04-16T10:05:09.849Z</time>
      </trkpt>
      <trkpt lat="45.65545" lon="5.45713">
        <ele>224</ele>
        <time>2022-04-16T10:05:10.849Z</time>
      </trkpt>
      <trkpt lat="45.65539" lon="5.45709">
        <ele>225</ele>
        <time>2022-04-16T10:05:11.849Z</time>
      </trkpt>
      <trkpt lat="45.65535" lon="5.45706">
        <ele>225</ele>
        <time>2022-04-16T10:05:12.849Z</time>
      </trkpt>
      <trkpt lat="45.65529" lon="5.45702">
        <ele>224</ele>
        <time>2022-04-16T10:05:13.849Z</time>
      </trkpt>
      <trkpt lat="45.65524" lon="5.45698">
        <ele>224</ele>
        <time>2022-04-16T10:05:14.849Z</time>
      </trkpt>
      <trkpt lat="45.65518" lon="5.45694">
        <ele>224</ele>
        <time>2022-04-16T10:05:15.848Z</time>
      </trkpt>
      <trkpt lat="45.65512" lon="5.4569">
        <ele>225</ele>
        <time>2022-04-16T10:05:16.849Z</time>
      </trkpt>
      <trkpt lat="45.65507" lon="5.45687">
        <ele>225</ele>
        <time>2022-04-16T10:05:17.849Z</time>
      </trkpt>
      <trkpt lat="45.65503" lon="5.45684">
        <ele>225</ele>
        <time>2022-04-16T10:05:18.849Z</time>
      </trkpt>
      <trkpt lat="45.65498" lon="5.4568">
        <ele>224</ele>
        <time>2022-04-16T10:05:19.849Z</time>
      </trkpt>
      <trkpt lat="45.65492" lon="5.45676">
        <ele>224</ele>
        <time>2022-04-16T10:05:20.849Z</time>
      </trkpt>
      <trkpt lat="45.65486" lon="5.45672">
        <ele>224</ele>
        <time>2022-04-16T10:05:21.849Z</time>
      </trkpt>
      <trkpt lat="45.65482" lon="5.45669">
        <ele>224</ele>
        <time>2022-04-16T10:05:22.848Z</time>
      </trkpt>
      <trkpt lat="45.65476" lon="5.45665">
        <ele>224</ele>
        <time>2022-04-16T10:05:23.849Z</time>
      </trkpt>
      <trkpt lat="45.65471" lon="5.45661">
        <ele>224</ele>
        <time>2022-04-16T10:05:24.848Z</time>
      </trkpt>
      <trkpt lat="45.65465" lon="5.45656">
        <ele>224</ele>
        <time>2022-04-16T10:05:25.849Z</time>
      </trkpt>
      <trkpt lat="45.6546" lon="5.45653">
        <ele>224</ele>
        <time>2022-04-16T10:05:26.849Z</time>
      </trkpt>
      <trkpt lat="45.65455" lon="5.4565">
        <ele>224</ele>
        <time>2022-04-16T10:05:27.849Z</time>
      </trkpt>
      <trkpt lat="45.6545" lon="5.45646">
        <ele>224</ele>
        <time>2022-04-16T10:05:28.848Z</time>
      </trkpt>
      <trkpt lat="45.65443" lon="5.45641">
        <ele>224</ele>
        <time>2022-04-16T10:05:29.849Z</time>
      </trkpt>
      <trkpt lat="45.65438" lon="5.45637">
        <ele>224</ele>
        <time>2022-04-16T10:05:30.849Z</time>
      </trkpt>
      <trkpt lat="45.65432" lon="5.45634">
        <ele>224</ele>
        <time>2022-04-16T10:05:31.849Z</time>
      </trkpt>
      <trkpt lat="45.65428" lon="5.45631">
        <ele>223</ele>
        <time>2022-04-16T10:05:32.848Z</time>
      </trkpt>
      <trkpt lat="45.65423" lon="5.45627">
        <ele>223</ele>
        <time>2022-04-16T10:05:33.849Z</time>
      </trkpt>
      <trkpt lat="45.65416" lon="5.45622">
        <ele>223</ele>
        <time>2022-04-16T10:05:34.849Z</time>
      </trkpt>
      <trkpt lat="45.65411" lon="5.45618">
        <ele>223</ele>
        <time>2022-04-16T10:05:35.848Z</time>
      </trkpt>
      <trkpt lat="45.65407" lon="5.45614">
        <ele>223</ele>
        <time>2022-04-16T10:05:36.849Z</time>
      </trkpt>
      <trkpt lat="45.65401" lon="5.4561">
        <ele>223</ele>
        <time>2022-04-16T10:05:37.849Z</time>
      </trkpt>
      <trkpt lat="45.65396" lon="5.45605">
        <ele>223</ele>
        <time>2022-04-16T10:05:38.849Z</time>
      </trkpt>
      <trkpt lat="45.6539" lon="5.45599">
        <ele>223</ele>
        <time>2022-04-16T10:05:39.849Z</time>
      </trkpt>
      <trkpt lat="45.65386" lon="5.45592">
        <ele>223</ele>
        <time>2022-04-16T10:05:40.849Z</time>
      </trkpt>
      <trkpt lat="45.65383" lon="5.45587">
        <ele>223</ele>
        <time>2022-04-16T10:05:41.849Z</time>
      </trkpt>
      <trkpt lat="45.6538" lon="5.45579">
        <ele>223</ele>
        <time>2022-04-16T10:05:42.849Z</time>
      </trkpt>
      <trkpt lat="45.65378" lon="5.45569">
        <ele>223</ele>
        <time>2022-04-16T10:05:43.848Z</time>
      </trkpt>
      <trkpt lat="45.65378" lon="5.45562">
        <ele>223</ele>
        <time>2022-04-16T10:05:44.849Z</time>
      </trkpt>
      <trkpt lat="45.65377" lon="5.45552">
        <ele>222</ele>
        <time>2022-04-16T10:05:45.849Z</time>
      </trkpt>
      <trkpt lat="45.65378" lon="5.45545">
        <ele>222</ele>
        <time>2022-04-16T10:05:46.849Z</time>
      </trkpt>
      <trkpt lat="45.65378" lon="5.45536">
        <ele>222</ele>
        <time>2022-04-16T10:05:47.849Z</time>
      </trkpt>
      <trkpt lat="45.65379" lon="5.45527">
        <ele>221</ele>
        <time>2022-04-16T10:05:48.849Z</time>
      </trkpt>
      <trkpt lat="45.6538" lon="5.45519">
        <ele>221</ele>
        <time>2022-04-16T10:05:49.849Z</time>
      </trkpt>
      <trkpt lat="45.65381" lon="5.4551">
        <ele>221</ele>
        <time>2022-04-16T10:05:50.848Z</time>
      </trkpt>
      <trkpt lat="45.65382" lon="5.45502">
        <ele>221</ele>
        <time>2022-04-16T10:05:51.848Z</time>
      </trkpt>
      <trkpt lat="45.65383" lon="5.45494">
        <ele>221</ele>
        <time>2022-04-16T10:05:52.849Z</time>
      </trkpt>
      <trkpt lat="45.65384" lon="5.45485">
        <ele>221</ele>
        <time>2022-04-16T10:05:53.849Z</time>
      </trkpt>
      <trkpt lat="45.65385" lon="5.45477">
        <ele>221</ele>
        <time>2022-04-16T10:05:54.849Z</time>
      </trkpt>
      <trkpt lat="45.65386" lon="5.45469">
        <ele>221</ele>
        <time>2022-04-16T10:05:55.849Z</time>
      </trkpt>
      <trkpt lat="45.65387" lon="5.45461">
        <ele>221</ele>
        <time>2022-04-16T10:05:56.849Z</time>
      </trkpt>
      <trkpt lat="45.65388" lon="5.45452">
        <ele>221</ele>
        <time>2022-04-16T10:05:57.849Z</time>
      </trkpt>
      <trkpt lat="45.65389" lon="5.45442">
        <ele>221</ele>
        <time>2022-04-16T10:05:58.848Z</time>
      </trkpt>
      <trkpt lat="45.6539" lon="5.45434">
        <ele>221</ele>
        <time>2022-04-16T10:05:59.849Z</time>
      </trkpt>
      <trkpt lat="45.65392" lon="5.45426">
        <ele>222</ele>
        <time>2022-04-16T10:06:00.849Z</time>
      </trkpt>
      <trkpt lat="45.65393" lon="5.4542">
        <ele>222</ele>
        <time>2022-04-16T10:06:01.849Z</time>
      </trkpt>
      <trkpt lat="45.65394" lon="5.45411">
        <ele>222</ele>
        <time>2022-04-16T10:06:02.849Z</time>
      </trkpt>
      <trkpt lat="45.65395" lon="5.45402">
        <ele>222</ele>
        <time>2022-04-16T10:06:03.848Z</time>
      </trkpt>
      <trkpt lat="45.65397" lon="5.45394">
        <ele>221</ele>
        <time>2022-04-16T10:06:04.849Z</time>
      </trkpt>
      <trkpt lat="45.65398" lon="5.45388">
        <ele>221</ele>
        <time>2022-04-16T10:06:05.848Z</time>
      </trkpt>
      <trkpt lat="45.65399" lon="5.4538">
        <ele>221</ele>
        <time>2022-04-16T10:06:06.849Z</time>
      </trkpt>
      <trkpt lat="45.654" lon="5.45371">
        <ele>222</ele>
        <time>2022-04-16T10:06:07.849Z</time>
      </trkpt>
      <trkpt lat="45.65401" lon="5.45362">
        <ele>222</ele>
        <time>2022-04-16T10:06:08.849Z</time>
      </trkpt>
      <trkpt lat="45.65402" lon="5.45354">
        <ele>222</ele>
        <time>2022-04-16T10:06:09.849Z</time>
      </trkpt>
      <trkpt lat="45.65403" lon="5.45348">
        <ele>222</ele>
        <time>2022-04-16T10:06:10.849Z</time>
      </trkpt>
      <trkpt lat="45.65403" lon="5.4534">
        <ele>222</ele>
        <time>2022-04-16T10:06:11.849Z</time>
      </trkpt>
      <trkpt lat="45.65404" lon="5.4533">
        <ele>222</ele>
        <time>2022-04-16T10:06:12.849Z</time>
      </trkpt>
      <trkpt lat="45.65404" lon="5.45322">
        <ele>222</ele>
        <time>2022-04-16T10:06:13.848Z</time>
      </trkpt>
      <trkpt lat="45.65404" lon="5.45316">
        <ele>223</ele>
        <time>2022-04-16T10:06:14.849Z</time>
      </trkpt>
      <trkpt lat="45.65404" lon="5.45308">
        <ele>223</ele>
        <time>2022-04-16T10:06:15.848Z</time>
      </trkpt>
      <trkpt lat="45.65404" lon="5.453">
        <ele>223</ele>
        <time>2022-04-16T10:06:16.849Z</time>
      </trkpt>
      <trkpt lat="45.65403" lon="5.45291">
        <ele>223</ele>
        <time>2022-04-16T10:06:17.848Z</time>
      </trkpt>
      <trkpt lat="45.65403" lon="5.45283">
        <ele>223</ele>
        <time>2022-04-16T10:06:18.848Z</time>
      </trkpt>
      <trkpt lat="45.65402" lon="5.45276">
        <ele>223</ele>
        <time>2022-04-16T10:06:19.849Z</time>
      </trkpt>
      <trkpt lat="45.65401" lon="5.45269">
        <ele>223</ele>
        <time>2022-04-16T10:06:20.848Z</time>
      </trkpt>
      <trkpt lat="45.65399" lon="5.45262">
        <ele>223</ele>
        <time>2022-04-16T10:06:21.848Z</time>
      </trkpt>
      <trkpt lat="45.65398" lon="5.45255">
        <ele>223</ele>
        <time>2022-04-16T10:06:22.849Z</time>
      </trkpt>
      <trkpt lat="45.65395" lon="5.45246">
        <ele>223</ele>
        <time>2022-04-16T10:06:23.849Z</time>
      </trkpt>
      <trkpt lat="45.65394" lon="5.4524">
        <ele>223</ele>
        <time>2022-04-16T10:06:24.849Z</time>
      </trkpt>
      <trkpt lat="45.65392" lon="5.45233">
        <ele>223</ele>
        <time>2022-04-16T10:06:25.849Z</time>
      </trkpt>
      <trkpt lat="45.65389" lon="5.45226">
        <ele>222</ele>
        <time>2022-04-16T10:06:26.849Z</time>
      </trkpt>
      <trkpt lat="45.65386" lon="5.45218">
        <ele>222</ele>
        <time>2022-04-16T10:06:27.848Z</time>
      </trkpt>
      <trkpt lat="45.65384" lon="5.45213">
        <ele>222</ele>
        <time>2022-04-16T10:06:28.849Z</time>
      </trkpt>
      <trkpt lat="45.65381" lon="5.45206">
        <ele>221</ele>
        <time>2022-04-16T10:06:29.849Z</time>
      </trkpt>
      <trkpt lat="45.65378" lon="5.45199">
        <ele>222</ele>
        <time>2022-04-16T10:06:30.849Z</time>
      </trkpt>
      <trkpt lat="45.65375" lon="5.45193">
        <ele>222</ele>
        <time>2022-04-16T10:06:31.849Z</time>
      </trkpt>
      <trkpt lat="45.65372" lon="5.45186">
        <ele>222</ele>
        <time>2022-04-16T10:06:32.849Z</time>
      </trkpt>
      <trkpt lat="45.65369" lon="5.45178">
        <ele>222</ele>
        <time>2022-04-16T10:06:33.849Z</time>
      </trkpt>
      <trkpt lat="45.65367" lon="5.45173">
        <ele>222</ele>
        <time>2022-04-16T10:06:34.849Z</time>
      </trkpt>
      <trkpt lat="45.65364" lon="5.45166">
        <ele>223</ele>
        <time>2022-04-16T10:06:35.849Z</time>
      </trkpt>
      <trkpt lat="45.65361" lon="5.45159">
        <ele>223</ele>
        <time>2022-04-16T10:06:36.849Z</time>
      </trkpt>
      <trkpt lat="45.65359" lon="5.45152">
        <ele>223</ele>
        <time>2022-04-16T10:06:37.849Z</time>
      </trkpt>
      <trkpt lat="45.65356" lon="5.45146">
        <ele>222</ele>
        <time>2022-04-16T10:06:38.849Z</time>
      </trkpt>
      <trkpt lat="45.65353" lon="5.45141">
        <ele>222</ele>
        <time>2022-04-16T10:06:39.849Z</time>
      </trkpt>
      <trkpt lat="45.65351" lon="5.45134">
        <ele>222</ele>
        <time>2022-04-16T10:06:40.849Z</time>
      </trkpt>
      <trkpt lat="45.65348" lon="5.45128">
        <ele>222</ele>
        <time>2022-04-16T10:06:41.848Z</time>
      </trkpt>
      <trkpt lat="45.65345" lon="5.4512">
        <ele>222</ele>
        <time>2022-04-16T10:06:42.848Z</time>
      </trkpt>
      <trkpt lat="45.65343" lon="5.45115">
        <ele>222</ele>
        <time>2022-04-16T10:06:43.849Z</time>
      </trkpt>
      <trkpt lat="45.6534" lon="5.45109">
        <ele>221</ele>
        <time>2022-04-16T10:06:44.849Z</time>
      </trkpt>
      <trkpt lat="45.65338" lon="5.45103">
        <ele>221</ele>
        <time>2022-04-16T10:06:45.849Z</time>
      </trkpt>
      <trkpt lat="45.65335" lon="5.45095">
        <ele>221</ele>
        <time>2022-04-16T10:06:46.849Z</time>
      </trkpt>
      <trkpt lat="45.65332" lon="5.4509">
        <ele>221</ele>
        <time>2022-04-16T10:06:47.848Z</time>
      </trkpt>
      <trkpt lat="45.6533" lon="5.45084">
        <ele>220</ele>
        <time>2022-04-16T10:06:48.849Z</time>
      </trkpt>
      <trkpt lat="45.65327" lon="5.45077">
        <ele>220</ele>
        <time>2022-04-16T10:06:49.849Z</time>
      </trkpt>
      <trkpt lat="45.65324" lon="5.4507">
        <ele>221</ele>
        <time>2022-04-16T10:06:50.849Z</time>
      </trkpt>
      <trkpt lat="45.65321" lon="5.45064">
        <ele>221</ele>
        <time>2022-04-16T10:06:51.849Z</time>
      </trkpt>
      <trkpt lat="45.65319" lon="5.45058">
        <ele>221</ele>
        <time>2022-04-16T10:06:52.849Z</time>
      </trkpt>
      <trkpt lat="45.65317" lon="5.45053">
        <ele>222</ele>
        <time>2022-04-16T10:06:53.849Z</time>
      </trkpt>
      <trkpt lat="45.65315" lon="5.45047">
        <ele>222</ele>
        <time>2022-04-16T10:06:54.849Z</time>
      </trkpt>
      <trkpt lat="45.65312" lon="5.45041">
        <ele>222</ele>
        <time>2022-04-16T10:06:55.848Z</time>
      </trkpt>
      <trkpt lat="45.65309" lon="5.45034">
        <ele>222</ele>
        <time>2022-04-16T10:06:56.848Z</time>
      </trkpt>
      <trkpt lat="45.65307" lon="5.45028">
        <ele>222</ele>
        <time>2022-04-16T10:06:57.848Z</time>
      </trkpt>
      <trkpt lat="45.65305" lon="5.45024">
        <ele>223</ele>
        <time>2022-04-16T10:06:58.849Z</time>
      </trkpt>
      <trkpt lat="45.65303" lon="5.45018">
        <ele>223</ele>
        <time>2022-04-16T10:06:59.849Z</time>
      </trkpt>
      <trkpt lat="45.653" lon="5.45011">
        <ele>223</ele>
        <time>2022-04-16T10:07:00.849Z</time>
      </trkpt>
      <trkpt lat="45.65297" lon="5.45005">
        <ele>224</ele>
        <time>2022-04-16T10:07:01.849Z</time>
      </trkpt>
      <trkpt lat="45.65295" lon="5.45">
        <ele>224</ele>
        <time>2022-04-16T10:07:02.849Z</time>
      </trkpt>
      <trkpt lat="45.65292" lon="5.44995">
        <ele>224</ele>
        <time>2022-04-16T10:07:03.849Z</time>
      </trkpt>
      <trkpt lat="45.6529" lon="5.44988">
        <ele>224</ele>
        <time>2022-04-16T10:07:04.849Z</time>
      </trkpt>
      <trkpt lat="45.65288" lon="5.44982">
        <ele>224</ele>
        <time>2022-04-16T10:07:05.848Z</time>
      </trkpt>
      <trkpt lat="45.65286" lon="5.44978">
        <ele>224</ele>
        <time>2022-04-16T10:07:06.849Z</time>
      </trkpt>
      <trkpt lat="45.65284" lon="5.44972">
        <ele>224</ele>
        <time>2022-04-16T10:07:07.848Z</time>
      </trkpt>
      <trkpt lat="45.65281" lon="5.44967">
        <ele>224</ele>
        <time>2022-04-16T10:07:08.849Z</time>
      </trkpt>
      <trkpt lat="45.65279" lon="5.4496">
        <ele>225</ele>
        <time>2022-04-16T10:07:09.849Z</time>
      </trkpt>
      <trkpt lat="45.65276" lon="5.44954">
        <ele>225</ele>
        <time>2022-04-16T10:07:10.849Z</time>
      </trkpt>
      <trkpt lat="45.65274" lon="5.44949">
        <ele>225</ele>
        <time>2022-04-16T10:07:11.849Z</time>
      </trkpt>
      <trkpt lat="45.65272" lon="5.44943">
        <ele>225</ele>
        <time>2022-04-16T10:07:12.849Z</time>
      </trkpt>
      <trkpt lat="45.65269" lon="5.44938">
        <ele>225</ele>
        <time>2022-04-16T10:07:13.849Z</time>
      </trkpt>
      <trkpt lat="45.65267" lon="5.44932">
        <ele>225</ele>
        <time>2022-04-16T10:07:14.848Z</time>
      </trkpt>
      <trkpt lat="45.65265" lon="5.44926">
        <ele>225</ele>
        <time>2022-04-16T10:07:15.849Z</time>
      </trkpt>
      <trkpt lat="45.65262" lon="5.4492">
        <ele>225</ele>
        <time>2022-04-16T10:07:16.849Z</time>
      </trkpt>
      <trkpt lat="45.6526" lon="5.44914">
        <ele>225</ele>
        <time>2022-04-16T10:07:17.849Z</time>
      </trkpt>
      <trkpt lat="45.65257" lon="5.44908">
        <ele>225</ele>
        <time>2022-04-16T10:07:18.849Z</time>
      </trkpt>
      <trkpt lat="45.65254" lon="5.44901">
        <ele>226</ele>
        <time>2022-04-16T10:07:19.849Z</time>
      </trkpt>
      <trkpt lat="45.65252" lon="5.44895">
        <ele>226</ele>
        <time>2022-04-16T10:07:20.848Z</time>
      </trkpt>
      <trkpt lat="45.6525" lon="5.4489">
        <ele>227</ele>
        <time>2022-04-16T10:07:21.849Z</time>
      </trkpt>
      <trkpt lat="45.65248" lon="5.44883">
        <ele>227</ele>
        <time>2022-04-16T10:07:22.849Z</time>
      </trkpt>
      <trkpt lat="45.65245" lon="5.44876">
        <ele>228</ele>
        <time>2022-04-16T10:07:23.848Z</time>
      </trkpt>
      <trkpt lat="45.65242" lon="5.44871">
        <ele>228</ele>
        <time>2022-04-16T10:07:24.849Z</time>
      </trkpt>
      <trkpt lat="45.65239" lon="5.44864">
        <ele>228</ele>
        <time>2022-04-16T10:07:25.849Z</time>
      </trkpt>
      <trkpt lat="45.65237" lon="5.44859">
        <ele>228</ele>
        <time>2022-04-16T10:07:26.849Z</time>
      </trkpt>
      <trkpt lat="45.65235" lon="5.44853">
        <ele>228</ele>
        <time>2022-04-16T10:07:27.848Z</time>
      </trkpt>
      <trkpt lat="45.65232" lon="5.44846">
        <ele>228</ele>
        <time>2022-04-16T10:07:28.849Z</time>
      </trkpt>
      <trkpt lat="45.65229" lon="5.4484">
        <ele>229</ele>
        <time>2022-04-16T10:07:29.849Z</time>
      </trkpt>
      <trkpt lat="45.65227" lon="5.44835">
        <ele>229</ele>
        <time>2022-04-16T10:07:30.849Z</time>
      </trkpt>
      <trkpt lat="45.65224" lon="5.4483">
        <ele>229</ele>
        <time>2022-04-16T10:07:31.849Z</time>
      </trkpt>
      <trkpt lat="45.65222" lon="5.44824">
        <ele>229</ele>
        <time>2022-04-16T10:07:32.849Z</time>
      </trkpt>
      <trkpt lat="45.65219" lon="5.44818">
        <ele>228</ele>
        <time>2022-04-16T10:07:33.849Z</time>
      </trkpt>
      <trkpt lat="45.65216" lon="5.44814">
        <ele>228</ele>
        <time>2022-04-16T10:07:34.848Z</time>
      </trkpt>
      <trkpt lat="45.65213" lon="5.44809">
        <ele>228</ele>
        <time>2022-04-16T10:07:35.849Z</time>
      </trkpt>
      <trkpt lat="45.6521" lon="5.44804">
        <ele>229</ele>
        <time>2022-04-16T10:07:36.849Z</time>
      </trkpt>
      <trkpt lat="45.65206" lon="5.44798">
        <ele>229</ele>
        <time>2022-04-16T10:07:37.849Z</time>
      </trkpt>
      <trkpt lat="45.65203" lon="5.44794">
        <ele>230</ele>
        <time>2022-04-16T10:07:38.849Z</time>
      </trkpt>
      <trkpt lat="45.65198" lon="5.44789">
        <ele>230</ele>
        <time>2022-04-16T10:07:39.849Z</time>
      </trkpt>
      <trkpt lat="45.65195" lon="5.44785">
        <ele>231</ele>
        <time>2022-04-16T10:07:40.849Z</time>
      </trkpt>
      <trkpt lat="45.6519" lon="5.4478">
        <ele>231</ele>
        <time>2022-04-16T10:07:41.848Z</time>
      </trkpt>
      <trkpt lat="45.65185" lon="5.44774">
        <ele>232</ele>
        <time>2022-04-16T10:07:42.848Z</time>
      </trkpt>
      <trkpt lat="45.6518" lon="5.4477">
        <ele>231</ele>
        <time>2022-04-16T10:07:43.849Z</time>
      </trkpt>
      <trkpt lat="45.65175" lon="5.44765">
        <ele>231</ele>
        <time>2022-04-16T10:07:44.849Z</time>
      </trkpt>
      <trkpt lat="45.65171" lon="5.44761">
        <ele>231</ele>
        <time>2022-04-16T10:07:45.849Z</time>
      </trkpt>
      <trkpt lat="45.65166" lon="5.44756">
        <ele>230</ele>
        <time>2022-04-16T10:07:46.849Z</time>
      </trkpt>
      <trkpt lat="45.6516" lon="5.44751">
        <ele>230</ele>
        <time>2022-04-16T10:07:47.848Z</time>
      </trkpt>
      <trkpt lat="45.65155" lon="5.44746">
        <ele>230</ele>
        <time>2022-04-16T10:07:48.849Z</time>
      </trkpt>
      <trkpt lat="45.6515" lon="5.44743">
        <ele>230</ele>
        <time>2022-04-16T10:07:49.849Z</time>
      </trkpt>
      <trkpt lat="45.65145" lon="5.44738">
        <ele>230</ele>
        <time>2022-04-16T10:07:50.848Z</time>
      </trkpt>
      <trkpt lat="45.6514" lon="5.44735">
        <ele>230</ele>
        <time>2022-04-16T10:07:51.849Z</time>
      </trkpt>
      <trkpt lat="45.65135" lon="5.44731">
        <ele>230</ele>
        <time>2022-04-16T10:07:52.849Z</time>
      </trkpt>
      <trkpt lat="45.65128" lon="5.44728">
        <ele>230</ele>
        <time>2022-04-16T10:07:53.849Z</time>
      </trkpt>
      <trkpt lat="45.65124" lon="5.44725">
        <ele>231</ele>
        <time>2022-04-16T10:07:54.849Z</time>
      </trkpt>
      <trkpt lat="45.65118" lon="5.44722">
        <ele>231</ele>
        <time>2022-04-16T10:07:55.849Z</time>
      </trkpt>
      <trkpt lat="45.65113" lon="5.4472">
        <ele>231</ele>
        <time>2022-04-16T10:07:56.849Z</time>
      </trkpt>
      <trkpt lat="45.65107" lon="5.44717">
        <ele>232</ele>
        <time>2022-04-16T10:07:57.849Z</time>
      </trkpt>
      <trkpt lat="45.65102" lon="5.44713">
        <ele>232</ele>
        <time>2022-04-16T10:07:58.849Z</time>
      </trkpt>
      <trkpt lat="45.65097" lon="5.44709">
        <ele>232</ele>
        <time>2022-04-16T10:07:59.849Z</time>
      </trkpt>
      <trkpt lat="45.65092" lon="5.44705">
        <ele>231</ele>
        <time>2022-04-16T10:08:00.849Z</time>
      </trkpt>
      <trkpt lat="45.65086" lon="5.44699">
        <ele>231</ele>
        <time>2022-04-16T10:08:01.849Z</time>
      </trkpt>
      <trkpt lat="45.65082" lon="5.44696">
        <ele>231</ele>
        <time>2022-04-16T10:08:02.848Z</time>
      </trkpt>
      <trkpt lat="45.65077" lon="5.44691">
        <ele>230</ele>
        <time>2022-04-16T10:08:03.849Z</time>
      </trkpt>
      <trkpt lat="45.65072" lon="5.44686">
        <ele>230</ele>
        <time>2022-04-16T10:08:04.849Z</time>
      </trkpt>
      <trkpt lat="45.65067" lon="5.44681">
        <ele>230</ele>
        <time>2022-04-16T10:08:05.849Z</time>
      </trkpt>
      <trkpt lat="45.65062" lon="5.44675">
        <ele>229</ele>
        <time>2022-04-16T10:08:06.849Z</time>
      </trkpt>
      <trkpt lat="45.65058" lon="5.44669">
        <ele>229</ele>
        <time>2022-04-16T10:08:07.849Z</time>
      </trkpt>
      <trkpt lat="45.65055" lon="5.44664">
        <ele>229</ele>
        <time>2022-04-16T10:08:08.849Z</time>
      </trkpt>
      <trkpt lat="45.65051" lon="5.44659">
        <ele>229</ele>
        <time>2022-04-16T10:08:09.849Z</time>
      </trkpt>
      <trkpt lat="45.65047" lon="5.44653">
        <ele>228</ele>
        <time>2022-04-16T10:08:10.849Z</time>
      </trkpt>
      <trkpt lat="45.65043" lon="5.44647">
        <ele>228</ele>
        <time>2022-04-16T10:08:11.849Z</time>
      </trkpt>
      <trkpt lat="45.65039" lon="5.44642">
        <ele>228</ele>
        <time>2022-04-16T10:08:12.848Z</time>
      </trkpt>
      <trkpt lat="45.65035" lon="5.44636">
        <ele>227</ele>
        <time>2022-04-16T10:08:13.849Z</time>
      </trkpt>
      <trkpt lat="45.65031" lon="5.4463">
        <ele>227</ele>
        <time>2022-04-16T10:08:14.849Z</time>
      </trkpt>
      <trkpt lat="45.65026" lon="5.44624">
        <ele>227</ele>
        <time>2022-04-16T10:08:15.848Z</time>
      </trkpt>
      <trkpt lat="45.65023" lon="5.44619">
        <ele>227</ele>
        <time>2022-04-16T10:08:16.848Z</time>
      </trkpt>
      <trkpt lat="45.65019" lon="5.44613">
        <ele>227</ele>
        <time>2022-04-16T10:08:17.849Z</time>
      </trkpt>
      <trkpt lat="45.65015" lon="5.44607">
        <ele>228</ele>
        <time>2022-04-16T10:08:18.849Z</time>
      </trkpt>
      <trkpt lat="45.65011" lon="5.44602">
        <ele>228</ele>
        <time>2022-04-16T10:08:19.849Z</time>
      </trkpt>
      <trkpt lat="45.65006" lon="5.44595">
        <ele>228</ele>
        <time>2022-04-16T10:08:20.849Z</time>
      </trkpt>
      <trkpt lat="45.65002" lon="5.4459">
        <ele>228</ele>
        <time>2022-04-16T10:08:21.849Z</time>
      </trkpt>
      <trkpt lat="45.64998" lon="5.44585">
        <ele>228</ele>
        <time>2022-04-16T10:08:22.849Z</time>
      </trkpt>
      <trkpt lat="45.64994" lon="5.44579">
        <ele>228</ele>
        <time>2022-04-16T10:08:23.849Z</time>
      </trkpt>
      <trkpt lat="45.6499" lon="5.44573">
        <ele>227</ele>
        <time>2022-04-16T10:08:24.849Z</time>
      </trkpt>
      <trkpt lat="45.64986" lon="5.44565">
        <ele>227</ele>
        <time>2022-04-16T10:08:25.849Z</time>
      </trkpt>
      <trkpt lat="45.64982" lon="5.44559">
        <ele>227</ele>
        <time>2022-04-16T10:08:26.849Z</time>
      </trkpt>
      <trkpt lat="45.64979" lon="5.44553">
        <ele>227</ele>
        <time>2022-04-16T10:08:27.848Z</time>
      </trkpt>
      <trkpt lat="45.64975" lon="5.44547">
        <ele>226</ele>
        <time>2022-04-16T10:08:28.848Z</time>
      </trkpt>
      <trkpt lat="45.64971" lon="5.4454">
        <ele>226</ele>
        <time>2022-04-16T10:08:29.849Z</time>
      </trkpt>
      <trkpt lat="45.64968" lon="5.44533">
        <ele>226</ele>
        <time>2022-04-16T10:08:30.849Z</time>
      </trkpt>
      <trkpt lat="45.64964" lon="5.44524">
        <ele>226</ele>
        <time>2022-04-16T10:08:31.849Z</time>
      </trkpt>
      <trkpt lat="45.64962" lon="5.44517">
        <ele>226</ele>
        <time>2022-04-16T10:08:32.849Z</time>
      </trkpt>
      <trkpt lat="45.64959" lon="5.4451">
        <ele>227</ele>
        <time>2022-04-16T10:08:33.849Z</time>
      </trkpt>
      <trkpt lat="45.64957" lon="5.44502">
        <ele>227</ele>
        <time>2022-04-16T10:08:34.849Z</time>
      </trkpt>
      <trkpt lat="45.64955" lon="5.44494">
        <ele>226</ele>
        <time>2022-04-16T10:08:35.849Z</time>
      </trkpt>
      <trkpt lat="45.64953" lon="5.44486">
        <ele>226</ele>
        <time>2022-04-16T10:08:36.848Z</time>
      </trkpt>
      <trkpt lat="45.64951" lon="5.44478">
        <ele>225</ele>
        <time>2022-04-16T10:08:37.849Z</time>
      </trkpt>
      <trkpt lat="45.64949" lon="5.44469">
        <ele>224</ele>
        <time>2022-04-16T10:08:38.849Z</time>
      </trkpt>
      <trkpt lat="45.64947" lon="5.44461">
        <ele>224</ele>
        <time>2022-04-16T10:08:39.848Z</time>
      </trkpt>
      <trkpt lat="45.64945" lon="5.44453">
        <ele>224</ele>
        <time>2022-04-16T10:08:40.849Z</time>
      </trkpt>
      <trkpt lat="45.64942" lon="5.44444">
        <ele>224</ele>
        <time>2022-04-16T10:08:41.849Z</time>
      </trkpt>
      <trkpt lat="45.64941" lon="5.44438">
        <ele>223</ele>
        <time>2022-04-16T10:08:42.849Z</time>
      </trkpt>
      <trkpt lat="45.64939" lon="5.4443">
        <ele>223</ele>
        <time>2022-04-16T10:08:43.849Z</time>
      </trkpt>
      <trkpt lat="45.64937" lon="5.4442">
        <ele>223</ele>
        <time>2022-04-16T10:08:44.848Z</time>
      </trkpt>
      <trkpt lat="45.64935" lon="5.44413">
        <ele>223</ele>
        <time>2022-04-16T10:08:45.848Z</time>
      </trkpt>
      <trkpt lat="45.64933" lon="5.44406">
        <ele>223</ele>
        <time>2022-04-16T10:08:46.848Z</time>
      </trkpt>
      <trkpt lat="45.64931" lon="5.44399">
        <ele>224</ele>
        <time>2022-04-16T10:08:47.849Z</time>
      </trkpt>
      <trkpt lat="45.64929" lon="5.44391">
        <ele>224</ele>
        <time>2022-04-16T10:08:48.848Z</time>
      </trkpt>
      <trkpt lat="45.64927" lon="5.44381">
        <ele>224</ele>
        <time>2022-04-16T10:08:49.848Z</time>
      </trkpt>
      <trkpt lat="45.64925" lon="5.44374">
        <ele>224</ele>
        <time>2022-04-16T10:08:50.849Z</time>
      </trkpt>
      <trkpt lat="45.64924" lon="5.44367">
        <ele>224</ele>
        <time>2022-04-16T10:08:51.849Z</time>
      </trkpt>
      <trkpt lat="45.64922" lon="5.44359">
        <ele>224</ele>
        <time>2022-04-16T10:08:52.849Z</time>
      </trkpt>
      <trkpt lat="45.6492" lon="5.44352">
        <ele>223</ele>
        <time>2022-04-16T10:08:53.848Z</time>
      </trkpt>
      <trkpt lat="45.64918" lon="5.44344">
        <ele>223</ele>
        <time>2022-04-16T10:08:54.849Z</time>
      </trkpt>
      <trkpt lat="45.64916" lon="5.44337">
        <ele>224</ele>
        <time>2022-04-16T10:08:55.848Z</time>
      </trkpt>
      <trkpt lat="45.64914" lon="5.44329">
        <ele>224</ele>
        <time>2022-04-16T10:08:56.849Z</time>
      </trkpt>
      <trkpt lat="45.64913" lon="5.44321">
        <ele>224</ele>
        <time>2022-04-16T10:08:57.849Z</time>
      </trkpt>
      <trkpt lat="45.64911" lon="5.44313">
        <ele>224</ele>
        <time>2022-04-16T10:08:58.849Z</time>
      </trkpt>
      <trkpt lat="45.64909" lon="5.44306">
        <ele>224</ele>
        <time>2022-04-16T10:08:59.848Z</time>
      </trkpt>
      <trkpt lat="45.64907" lon="5.44298">
        <ele>224</ele>
        <time>2022-04-16T10:09:00.849Z</time>
      </trkpt>
      <trkpt lat="45.64905" lon="5.4429">
        <ele>224</ele>
        <time>2022-04-16T10:09:01.849Z</time>
      </trkpt>
      <trkpt lat="45.64903" lon="5.44282">
        <ele>224</ele>
        <time>2022-04-16T10:09:02.849Z</time>
      </trkpt>
      <trkpt lat="45.649" lon="5.44273">
        <ele>224</ele>
        <time>2022-04-16T10:09:03.848Z</time>
      </trkpt>
      <trkpt lat="45.64899" lon="5.44265">
        <ele>224</ele>
        <time>2022-04-16T10:09:04.849Z</time>
      </trkpt>
      <trkpt lat="45.64897" lon="5.44259">
        <ele>224</ele>
        <time>2022-04-16T10:09:05.849Z</time>
      </trkpt>
      <trkpt lat="45.64895" lon="5.44252">
        <ele>224</ele>
        <time>2022-04-16T10:09:06.849Z</time>
      </trkpt>
      <trkpt lat="45.64894" lon="5.44245">
        <ele>224</ele>
        <time>2022-04-16T10:09:07.849Z</time>
      </trkpt>
      <trkpt lat="45.64891" lon="5.44236">
        <ele>224</ele>
        <time>2022-04-16T10:09:08.848Z</time>
      </trkpt>
      <trkpt lat="45.6489" lon="5.44229">
        <ele>224</ele>
        <time>2022-04-16T10:09:09.848Z</time>
      </trkpt>
      <trkpt lat="45.64888" lon="5.44223">
        <ele>224</ele>
        <time>2022-04-16T10:09:10.849Z</time>
      </trkpt>
      <trkpt lat="45.64887" lon="5.44217">
        <ele>224</ele>
        <time>2022-04-16T10:09:11.849Z</time>
      </trkpt>
      <trkpt lat="45.64885" lon="5.44208">
        <ele>224</ele>
        <time>2022-04-16T10:09:12.849Z</time>
      </trkpt>
      <trkpt lat="45.64884" lon="5.44202">
        <ele>225</ele>
        <time>2022-04-16T10:09:13.848Z</time>
      </trkpt>
      <trkpt lat="45.64883" lon="5.44197">
        <ele>225</ele>
        <time>2022-04-16T10:09:14.849Z</time>
      </trkpt>
      <trkpt lat="45.64881" lon="5.44191">
        <ele>225</ele>
        <time>2022-04-16T10:09:15.849Z</time>
      </trkpt>
      <trkpt lat="45.6488" lon="5.44186">
        <ele>225</ele>
        <time>2022-04-16T10:09:16.849Z</time>
      </trkpt>
      <trkpt lat="45.64878" lon="5.44179">
        <ele>224</ele>
        <time>2022-04-16T10:09:17.848Z</time>
      </trkpt>
      <trkpt lat="45.64877" lon="5.44174">
        <ele>224</ele>
        <time>2022-04-16T10:09:18.849Z</time>
      </trkpt>
      <trkpt lat="45.64875" lon="5.4417">
        <ele>224</ele>
        <time>2022-04-16T10:09:19.848Z</time>
      </trkpt>
      <trkpt lat="45.64874" lon="5.44165">
        <ele>225</ele>
        <time>2022-04-16T10:09:20.849Z</time>
      </trkpt>
      <trkpt lat="45.64872" lon="5.4416">
        <ele>225</ele>
        <time>2022-04-16T10:09:21.849Z</time>
      </trkpt>
      <trkpt lat="45.64871" lon="5.44154">
        <ele>225</ele>
        <time>2022-04-16T10:09:22.849Z</time>
      </trkpt>
      <trkpt lat="45.64869" lon="5.44148">
        <ele>225</ele>
        <time>2022-04-16T10:09:23.849Z</time>
      </trkpt>
      <trkpt lat="45.64868" lon="5.44144">
        <ele>225</ele>
        <time>2022-04-16T10:09:24.849Z</time>
      </trkpt>
      <trkpt lat="45.64866" lon="5.4414">
        <ele>224</ele>
        <time>2022-04-16T10:09:25.849Z</time>
      </trkpt>
      <trkpt lat="45.64864" lon="5.44135">
        <ele>224</ele>
        <time>2022-04-16T10:09:26.849Z</time>
      </trkpt>
      <trkpt lat="45.64862" lon="5.44129">
        <ele>224</ele>
        <time>2022-04-16T10:09:27.849Z</time>
      </trkpt>
      <trkpt lat="45.6486" lon="5.44125">
        <ele>224</ele>
        <time>2022-04-16T10:09:28.849Z</time>
      </trkpt>
      <trkpt lat="45.64859" lon="5.44122">
        <ele>223</ele>
        <time>2022-04-16T10:09:29.849Z</time>
      </trkpt>
      <trkpt lat="45.64857" lon="5.44117">
        <ele>223</ele>
        <time>2022-04-16T10:09:30.849Z</time>
      </trkpt>
      <trkpt lat="45.64854" lon="5.44113">
        <ele>224</ele>
        <time>2022-04-16T10:09:31.849Z</time>
      </trkpt>
      <trkpt lat="45.64852" lon="5.4411">
        <ele>224</ele>
        <time>2022-04-16T10:09:32.849Z</time>
      </trkpt>
      <trkpt lat="45.6485" lon="5.44106">
        <ele>224</ele>
        <time>2022-04-16T10:09:33.849Z</time>
      </trkpt>
      <trkpt lat="45.64847" lon="5.44103">
        <ele>224</ele>
        <time>2022-04-16T10:09:34.849Z</time>
      </trkpt>
      <trkpt lat="45.64845" lon="5.44099">
        <ele>225</ele>
        <time>2022-04-16T10:09:35.849Z</time>
      </trkpt>
      <trkpt lat="45.64842" lon="5.44095">
        <ele>225</ele>
        <time>2022-04-16T10:09:36.849Z</time>
      </trkpt>
      <trkpt lat="45.64839" lon="5.44092">
        <ele>226</ele>
        <time>2022-04-16T10:09:37.848Z</time>
      </trkpt>
      <trkpt lat="45.64837" lon="5.44089">
        <ele>226</ele>
        <time>2022-04-16T10:09:38.849Z</time>
      </trkpt>
      <trkpt lat="45.64834" lon="5.44087">
        <ele>227</ele>
        <time>2022-04-16T10:09:39.849Z</time>
      </trkpt>
      <trkpt lat="45.64832" lon="5.44085">
        <ele>227</ele>
        <time>2022-04-16T10:09:40.849Z</time>
      </trkpt>
      <trkpt lat="45.64829" lon="5.44082">
        <ele>227</ele>
        <time>2022-04-16T10:09:41.849Z</time>
      </trkpt>
      <trkpt lat="45.64826" lon="5.4408">
        <ele>227</ele>
        <time>2022-04-16T10:09:42.849Z</time>
      </trkpt>
      <trkpt lat="45.64823" lon="5.44077">
        <ele>228</ele>
        <time>2022-04-16T10:09:43.849Z</time>
      </trkpt>
      <trkpt lat="45.64821" lon="5.44075">
        <ele>229</ele>
        <time>2022-04-16T10:09:44.849Z</time>
      </trkpt>
      <trkpt lat="45.64818" lon="5.44073">
        <ele>230</ele>
        <time>2022-04-16T10:09:45.849Z</time>
      </trkpt>
      <trkpt lat="45.64815" lon="5.44071">
        <ele>231</ele>
        <time>2022-04-16T10:09:46.849Z</time>
      </trkpt>
      <trkpt lat="45.64811" lon="5.44069">
        <ele>231</ele>
        <time>2022-04-16T10:09:47.849Z</time>
      </trkpt>
      <trkpt lat="45.64809" lon="5.44067">
        <ele>232</ele>
        <time>2022-04-16T10:09:48.849Z</time>
      </trkpt>
      <trkpt lat="45.64806" lon="5.44066">
        <ele>233</ele>
        <time>2022-04-16T10:09:49.849Z</time>
      </trkpt>
      <trkpt lat="45.64803" lon="5.44064">
        <ele>233</ele>
        <time>2022-04-16T10:09:50.849Z</time>
      </trkpt>
      <trkpt lat="45.648" lon="5.44062">
        <ele>234</ele>
        <time>2022-04-16T10:09:51.849Z</time>
      </trkpt>
      <trkpt lat="45.64796" lon="5.4406">
        <ele>235</ele>
        <time>2022-04-16T10:09:52.849Z</time>
      </trkpt>
      <trkpt lat="45.64794" lon="5.44058">
        <ele>236</ele>
        <time>2022-04-16T10:09:53.849Z</time>
      </trkpt>
      <trkpt lat="45.6479" lon="5.44056">
        <ele>237</ele>
        <time>2022-04-16T10:09:54.848Z</time>
      </trkpt>
      <trkpt lat="45.64787" lon="5.44055">
        <ele>238</ele>
        <time>2022-04-16T10:09:55.849Z</time>
      </trkpt>
      <trkpt lat="45.64783" lon="5.44053">
        <ele>238</ele>
        <time>2022-04-16T10:09:56.848Z</time>
      </trkpt>
      <trkpt lat="45.64781" lon="5.44052">
        <ele>239</ele>
        <time>2022-04-16T10:09:57.849Z</time>
      </trkpt>
      <trkpt lat="45.64778" lon="5.44049">
        <ele>239</ele>
        <time>2022-04-16T10:09:58.848Z</time>
      </trkpt>
      <trkpt lat="45.64775" lon="5.44046">
        <ele>238</ele>
        <time>2022-04-16T10:09:59.848Z</time>
      </trkpt>
      <trkpt lat="45.64773" lon="5.44044">
        <ele>238</ele>
        <time>2022-04-16T10:10:00.848Z</time>
      </trkpt>
      <trkpt lat="45.6477" lon="5.44042">
        <ele>237</ele>
        <time>2022-04-16T10:10:01.849Z</time>
      </trkpt>
      <trkpt lat="45.64767" lon="5.44039">
        <ele>237</ele>
        <time>2022-04-16T10:10:02.848Z</time>
      </trkpt>
      <trkpt lat="45.64766" lon="5.44037">
        <ele>237</ele>
        <time>2022-04-16T10:10:03.848Z</time>
      </trkpt>
      <trkpt lat="45.64764" lon="5.44034">
        <ele>237</ele>
        <time>2022-04-16T10:10:04.849Z</time>
      </trkpt>
      <trkpt lat="45.64761" lon="5.44032">
        <ele>237</ele>
        <time>2022-04-16T10:10:05.848Z</time>
      </trkpt>
      <trkpt lat="45.64758" lon="5.4403">
        <ele>237</ele>
        <time>2022-04-16T10:10:06.849Z</time>
      </trkpt>
      <trkpt lat="45.64756" lon="5.44028">
        <ele>237</ele>
        <time>2022-04-16T10:10:07.848Z</time>
      </trkpt>
      <trkpt lat="45.64753" lon="5.44026">
        <ele>237</ele>
        <time>2022-04-16T10:10:08.848Z</time>
      </trkpt>
      <trkpt lat="45.6475" lon="5.44022">
        <ele>236</ele>
        <time>2022-04-16T10:10:09.849Z</time>
      </trkpt>
      <trkpt lat="45.64748" lon="5.4402">
        <ele>236</ele>
        <time>2022-04-16T10:10:10.849Z</time>
      </trkpt>
      <trkpt lat="45.64745" lon="5.44017">
        <ele>236</ele>
        <time>2022-04-16T10:10:11.849Z</time>
      </trkpt>
      <trkpt lat="45.64743" lon="5.44015">
        <ele>236</ele>
        <time>2022-04-16T10:10:12.849Z</time>
      </trkpt>
      <trkpt lat="45.6474" lon="5.44013">
        <ele>236</ele>
        <time>2022-04-16T10:10:13.848Z</time>
      </trkpt>
      <trkpt lat="45.64737" lon="5.44009">
        <ele>236</ele>
        <time>2022-04-16T10:10:14.849Z</time>
      </trkpt>
      <trkpt lat="45.64735" lon="5.44007">
        <ele>237</ele>
        <time>2022-04-16T10:10:15.849Z</time>
      </trkpt>
      <trkpt lat="45.64733" lon="5.44005">
        <ele>237</ele>
        <time>2022-04-16T10:10:16.849Z</time>
      </trkpt>
      <trkpt lat="45.6473" lon="5.44001">
        <ele>236</ele>
        <time>2022-04-16T10:10:17.848Z</time>
      </trkpt>
      <trkpt lat="45.64728" lon="5.43998">
        <ele>236</ele>
        <time>2022-04-16T10:10:18.849Z</time>
      </trkpt>
      <trkpt lat="45.64725" lon="5.43995">
        <ele>236</ele>
        <time>2022-04-16T10:10:19.849Z</time>
      </trkpt>
      <trkpt lat="45.64723" lon="5.43992">
        <ele>236</ele>
        <time>2022-04-16T10:10:20.849Z</time>
      </trkpt>
      <trkpt lat="45.64721" lon="5.43988">
        <ele>236</ele>
        <time>2022-04-16T10:10:21.849Z</time>
      </trkpt>
      <trkpt lat="45.64718" lon="5.43984">
        <ele>236</ele>
        <time>2022-04-16T10:10:22.849Z</time>
      </trkpt>
      <trkpt lat="45.64716" lon="5.4398">
        <ele>236</ele>
        <time>2022-04-16T10:10:23.849Z</time>
      </trkpt>
      <trkpt lat="45.64714" lon="5.43976">
        <ele>236</ele>
        <time>2022-04-16T10:10:24.849Z</time>
      </trkpt>
      <trkpt lat="45.64712" lon="5.43973">
        <ele>236</ele>
        <time>2022-04-16T10:10:25.849Z</time>
      </trkpt>
      <trkpt lat="45.64709" lon="5.43969">
        <ele>236</ele>
        <time>2022-04-16T10:10:26.849Z</time>
      </trkpt>
      <trkpt lat="45.64707" lon="5.43965">
        <ele>236</ele>
        <time>2022-04-16T10:10:27.849Z</time>
      </trkpt>
      <trkpt lat="45.64705" lon="5.43961">
        <ele>235</ele>
        <time>2022-04-16T10:10:28.848Z</time>
      </trkpt>
      <trkpt lat="45.64702" lon="5.43957">
        <ele>235</ele>
        <time>2022-04-16T10:10:29.848Z</time>
      </trkpt>
      <trkpt lat="45.647" lon="5.43953">
        <ele>235</ele>
        <time>2022-04-16T10:10:30.849Z</time>
      </trkpt>
      <trkpt lat="45.64698" lon="5.43949">
        <ele>235</ele>
        <time>2022-04-16T10:10:31.849Z</time>
      </trkpt>
      <trkpt lat="45.64696" lon="5.43945">
        <ele>236</ele>
        <time>2022-04-16T10:10:32.848Z</time>
      </trkpt>
      <trkpt lat="45.64693" lon="5.4394">
        <ele>236</ele>
        <time>2022-04-16T10:10:33.848Z</time>
      </trkpt>
      <trkpt lat="45.64691" lon="5.43935">
        <ele>237</ele>
        <time>2022-04-16T10:10:34.848Z</time>
      </trkpt>
      <trkpt lat="45.6469" lon="5.43932">
        <ele>237</ele>
        <time>2022-04-16T10:10:35.849Z</time>
      </trkpt>
      <trkpt lat="45.64688" lon="5.43927">
        <ele>237</ele>
        <time>2022-04-16T10:10:36.849Z</time>
      </trkpt>
      <trkpt lat="45.64686" lon="5.43922">
        <ele>237</ele>
        <time>2022-04-16T10:10:37.849Z</time>
      </trkpt>
      <trkpt lat="45.64684" lon="5.43917">
        <ele>237</ele>
        <time>2022-04-16T10:10:38.849Z</time>
      </trkpt>
      <trkpt lat="45.64682" lon="5.43913">
        <ele>236</ele>
        <time>2022-04-16T10:10:39.849Z</time>
      </trkpt>
      <trkpt lat="45.6468" lon="5.43908">
        <ele>236</ele>
        <time>2022-04-16T10:10:40.849Z</time>
      </trkpt>
      <trkpt lat="45.64678" lon="5.43904">
        <ele>236</ele>
        <time>2022-04-16T10:10:41.849Z</time>
      </trkpt>
      <trkpt lat="45.64676" lon="5.43898">
        <ele>236</ele>
        <time>2022-04-16T10:10:42.849Z</time>
      </trkpt>
      <trkpt lat="45.64674" lon="5.43894">
        <ele>236</ele>
        <time>2022-04-16T10:10:43.849Z</time>
      </trkpt>
      <trkpt lat="45.64672" lon="5.4389">
        <ele>236</ele>
        <time>2022-04-16T10:10:44.849Z</time>
      </trkpt>
      <trkpt lat="45.6467" lon="5.43885">
        <ele>236</ele>
        <time>2022-04-16T10:10:45.849Z</time>
      </trkpt>
      <trkpt lat="45.64668" lon="5.4388">
        <ele>236</ele>
        <time>2022-04-16T10:10:46.848Z</time>
      </trkpt>
      <trkpt lat="45.64666" lon="5.43875">
        <ele>236</ele>
        <time>2022-04-16T10:10:47.848Z</time>
      </trkpt>
      <trkpt lat="45.64664" lon="5.4387">
        <ele>236</ele>
        <time>2022-04-16T10:10:48.849Z</time>
      </trkpt>
      <trkpt lat="45.64663" lon="5.43866">
        <ele>236</ele>
        <time>2022-04-16T10:10:49.849Z</time>
      </trkpt>
      <trkpt lat="45.64661" lon="5.43862">
        <ele>236</ele>
        <time>2022-04-16T10:10:50.848Z</time>
      </trkpt>
      <trkpt lat="45.6466" lon="5.43858">
        <ele>237</ele>
        <time>2022-04-16T10:10:51.849Z</time>
      </trkpt>
      <trkpt lat="45.64658" lon="5.43853">
        <ele>237</ele>
        <time>2022-04-16T10:10:52.849Z</time>
      </trkpt>
      <trkpt lat="45.64655" lon="5.43848">
        <ele>237</ele>
        <time>2022-04-16T10:10:53.849Z</time>
      </trkpt>
      <trkpt lat="45.64654" lon="5.43845">
        <ele>237</ele>
        <time>2022-04-16T10:10:54.849Z</time>
      </trkpt>
      <trkpt lat="45.64652" lon="5.4384">
        <ele>236</ele>
        <time>2022-04-16T10:10:55.849Z</time>
      </trkpt>
      <trkpt lat="45.6465" lon="5.43836">
        <ele>236</ele>
        <time>2022-04-16T10:10:56.849Z</time>
      </trkpt>
      <trkpt lat="45.64648" lon="5.43831">
        <ele>237</ele>
        <time>2022-04-16T10:10:57.849Z</time>
      </trkpt>
      <trkpt lat="45.64647" lon="5.43828">
        <ele>237</ele>
        <time>2022-04-16T10:10:58.848Z</time>
      </trkpt>
      <trkpt lat="45.64645" lon="5.43823">
        <ele>237</ele>
        <time>2022-04-16T10:10:59.849Z</time>
      </trkpt>
      <trkpt lat="45.64643" lon="5.43819">
        <ele>237</ele>
        <time>2022-04-16T10:11:00.849Z</time>
      </trkpt>
      <trkpt lat="45.64641" lon="5.43814">
        <ele>237</ele>
        <time>2022-04-16T10:11:01.849Z</time>
      </trkpt>
      <trkpt lat="45.64639" lon="5.43809">
        <ele>238</ele>
        <time>2022-04-16T10:11:02.849Z</time>
      </trkpt>
      <trkpt lat="45.64638" lon="5.43806">
        <ele>238</ele>
        <time>2022-04-16T10:11:03.849Z</time>
      </trkpt>
      <trkpt lat="45.64636" lon="5.43802">
        <ele>238</ele>
        <time>2022-04-16T10:11:04.849Z</time>
      </trkpt>
      <trkpt lat="45.64634" lon="5.43798">
        <ele>238</ele>
        <time>2022-04-16T10:11:05.848Z</time>
      </trkpt>
      <trkpt lat="45.64632" lon="5.43792">
        <ele>238</ele>
        <time>2022-04-16T10:11:06.848Z</time>
      </trkpt>
      <trkpt lat="45.6463" lon="5.43788">
        <ele>238</ele>
        <time>2022-04-16T10:11:07.849Z</time>
      </trkpt>
      <trkpt lat="45.64629" lon="5.43784">
        <ele>237</ele>
        <time>2022-04-16T10:11:08.848Z</time>
      </trkpt>
      <trkpt lat="45.64627" lon="5.4378">
        <ele>237</ele>
        <time>2022-04-16T10:11:09.849Z</time>
      </trkpt>
      <trkpt lat="45.64625" lon="5.43775">
        <ele>237</ele>
        <time>2022-04-16T10:11:10.849Z</time>
      </trkpt>
      <trkpt lat="45.64623" lon="5.4377">
        <ele>237</ele>
        <time>2022-04-16T10:11:11.849Z</time>
      </trkpt>
      <trkpt lat="45.64621" lon="5.43764">
        <ele>237</ele>
        <time>2022-04-16T10:11:12.849Z</time>
      </trkpt>
      <trkpt lat="45.64619" lon="5.4376">
        <ele>237</ele>
        <time>2022-04-16T10:11:13.849Z</time>
      </trkpt>
      <trkpt lat="45.64617" lon="5.43756">
        <ele>237</ele>
        <time>2022-04-16T10:11:14.849Z</time>
      </trkpt>
      <trkpt lat="45.64615" lon="5.4375">
        <ele>237</ele>
        <time>2022-04-16T10:11:15.849Z</time>
      </trkpt>
      <trkpt lat="45.64614" lon="5.43746">
        <ele>237</ele>
        <time>2022-04-16T10:11:16.849Z</time>
      </trkpt>
      <trkpt lat="45.64611" lon="5.4374">
        <ele>237</ele>
        <time>2022-04-16T10:11:17.848Z</time>
      </trkpt>
      <trkpt lat="45.6461" lon="5.43736">
        <ele>237</ele>
        <time>2022-04-16T10:11:18.849Z</time>
      </trkpt>
      <trkpt lat="45.64608" lon="5.43731">
        <ele>237</ele>
        <time>2022-04-16T10:11:19.849Z</time>
      </trkpt>
      <trkpt lat="45.64606" lon="5.43726">
        <ele>237</ele>
        <time>2022-04-16T10:11:20.849Z</time>
      </trkpt>
      <trkpt lat="45.64604" lon="5.43721">
        <ele>238</ele>
        <time>2022-04-16T10:11:21.849Z</time>
      </trkpt>
      <trkpt lat="45.64602" lon="5.43716">
        <ele>238</ele>
        <time>2022-04-16T10:11:22.848Z</time>
      </trkpt>
      <trkpt lat="45.646" lon="5.43712">
        <ele>238</ele>
        <time>2022-04-16T10:11:23.849Z</time>
      </trkpt>
      <trkpt lat="45.64598" lon="5.43707">
        <ele>238</ele>
        <time>2022-04-16T10:11:24.849Z</time>
      </trkpt>
      <trkpt lat="45.64596" lon="5.43701">
        <ele>238</ele>
        <time>2022-04-16T10:11:25.849Z</time>
      </trkpt>
      <trkpt lat="45.64594" lon="5.43697">
        <ele>238</ele>
        <time>2022-04-16T10:11:26.849Z</time>
      </trkpt>
      <trkpt lat="45.64592" lon="5.43692">
        <ele>239</ele>
        <time>2022-04-16T10:11:27.849Z</time>
      </trkpt>
      <trkpt lat="45.6459" lon="5.43687">
        <ele>239</ele>
        <time>2022-04-16T10:11:28.849Z</time>
      </trkpt>
      <trkpt lat="45.64588" lon="5.43682">
        <ele>239</ele>
        <time>2022-04-16T10:11:29.849Z</time>
      </trkpt>
      <trkpt lat="45.64585" lon="5.43676">
        <ele>239</ele>
        <time>2022-04-16T10:11:30.849Z</time>
      </trkpt>
      <trkpt lat="45.64583" lon="5.43671">
        <ele>239</ele>
        <time>2022-04-16T10:11:31.849Z</time>
      </trkpt>
      <trkpt lat="45.64582" lon="5.43667">
        <ele>239</ele>
        <time>2022-04-16T10:11:32.848Z</time>
      </trkpt>
      <trkpt lat="45.6458" lon="5.43662">
        <ele>239</ele>
        <time>2022-04-16T10:11:33.849Z</time>
      </trkpt>
      <trkpt lat="45.64577" lon="5.43656">
        <ele>239</ele>
        <time>2022-04-16T10:11:34.849Z</time>
      </trkpt>
      <trkpt lat="45.64575" lon="5.43651">
        <ele>240</ele>
        <time>2022-04-16T10:11:35.849Z</time>
      </trkpt>
      <trkpt lat="45.64573" lon="5.43646">
        <ele>241</ele>
        <time>2022-04-16T10:11:36.848Z</time>
      </trkpt>
      <trkpt lat="45.64572" lon="5.43642">
        <ele>242</ele>
        <time>2022-04-16T10:11:37.849Z</time>
      </trkpt>
      <trkpt lat="45.6457" lon="5.43637">
        <ele>242</ele>
        <time>2022-04-16T10:11:38.849Z</time>
      </trkpt>
      <trkpt lat="45.64567" lon="5.43632">
        <ele>242</ele>
        <time>2022-04-16T10:11:39.848Z</time>
      </trkpt>
      <trkpt lat="45.64565" lon="5.43627">
        <ele>242</ele>
        <time>2022-04-16T10:11:40.848Z</time>
      </trkpt>
      <trkpt lat="45.64563" lon="5.43622">
        <ele>242</ele>
        <time>2022-04-16T10:11:41.849Z</time>
      </trkpt>
      <trkpt lat="45.64562" lon="5.43618">
        <ele>243</ele>
        <time>2022-04-16T10:11:42.849Z</time>
      </trkpt>
      <trkpt lat="45.6456" lon="5.43614">
        <ele>243</ele>
        <time>2022-04-16T10:11:43.849Z</time>
      </trkpt>
      <trkpt lat="45.64557" lon="5.43608">
        <ele>243</ele>
        <time>2022-04-16T10:11:44.849Z</time>
      </trkpt>
      <trkpt lat="45.64555" lon="5.43603">
        <ele>243</ele>
        <time>2022-04-16T10:11:45.849Z</time>
      </trkpt>
      <trkpt lat="45.64554" lon="5.43599">
        <ele>243</ele>
        <time>2022-04-16T10:11:46.849Z</time>
      </trkpt>
      <trkpt lat="45.64551" lon="5.43595">
        <ele>243</ele>
        <time>2022-04-16T10:11:47.849Z</time>
      </trkpt>
      <trkpt lat="45.6455" lon="5.4359">
        <ele>243</ele>
        <time>2022-04-16T10:11:48.849Z</time>
      </trkpt>
      <trkpt lat="45.64547" lon="5.43585">
        <ele>244</ele>
        <time>2022-04-16T10:11:49.849Z</time>
      </trkpt>
      <trkpt lat="45.64545" lon="5.4358">
        <ele>244</ele>
        <time>2022-04-16T10:11:50.849Z</time>
      </trkpt>
      <trkpt lat="45.64543" lon="5.43575">
        <ele>243</ele>
        <time>2022-04-16T10:11:51.848Z</time>
      </trkpt>
      <trkpt lat="45.64541" lon="5.4357">
        <ele>243</ele>
        <time>2022-04-16T10:11:52.849Z</time>
      </trkpt>
      <trkpt lat="45.64538" lon="5.43564">
        <ele>243</ele>
        <time>2022-04-16T10:11:53.848Z</time>
      </trkpt>
      <trkpt lat="45.64536" lon="5.43558">
        <ele>243</ele>
        <time>2022-04-16T10:11:54.849Z</time>
      </trkpt>
      <trkpt lat="45.64534" lon="5.43553">
        <ele>243</ele>
        <time>2022-04-16T10:11:55.849Z</time>
      </trkpt>
      <trkpt lat="45.64532" lon="5.43549">
        <ele>243</ele>
        <time>2022-04-16T10:11:56.849Z</time>
      </trkpt>
      <trkpt lat="45.64531" lon="5.43544">
        <ele>242</ele>
        <time>2022-04-16T10:11:57.849Z</time>
      </trkpt>
      <trkpt lat="45.64528" lon="5.43538">
        <ele>242</ele>
        <time>2022-04-16T10:11:58.849Z</time>
      </trkpt>
      <trkpt lat="45.64526" lon="5.43532">
        <ele>243</ele>
        <time>2022-04-16T10:11:59.848Z</time>
      </trkpt>
      <trkpt lat="45.64524" lon="5.43528">
        <ele>243</ele>
        <time>2022-04-16T10:12:00.849Z</time>
      </trkpt>
      <trkpt lat="45.64522" lon="5.43523">
        <ele>243</ele>
        <time>2022-04-16T10:12:01.849Z</time>
      </trkpt>
      <trkpt lat="45.6452" lon="5.43517">
        <ele>242</ele>
        <time>2022-04-16T10:12:02.849Z</time>
      </trkpt>
      <trkpt lat="45.64517" lon="5.43512">
        <ele>242</ele>
        <time>2022-04-16T10:12:03.848Z</time>
      </trkpt>
      <trkpt lat="45.64516" lon="5.43508">
        <ele>242</ele>
        <time>2022-04-16T10:12:04.849Z</time>
      </trkpt>
      <trkpt lat="45.64514" lon="5.43503">
        <ele>242</ele>
        <time>2022-04-16T10:12:05.849Z</time>
      </trkpt>
      <trkpt lat="45.64512" lon="5.43498">
        <ele>242</ele>
        <time>2022-04-16T10:12:06.848Z</time>
      </trkpt>
      <trkpt lat="45.6451" lon="5.43493">
        <ele>242</ele>
        <time>2022-04-16T10:12:07.849Z</time>
      </trkpt>
      <trkpt lat="45.64508" lon="5.43488">
        <ele>243</ele>
        <time>2022-04-16T10:12:08.849Z</time>
      </trkpt>
      <trkpt lat="45.64506" lon="5.43483">
        <ele>243</ele>
        <time>2022-04-16T10:12:09.849Z</time>
      </trkpt>
      <trkpt lat="45.64504" lon="5.43478">
        <ele>243</ele>
        <time>2022-04-16T10:12:10.849Z</time>
      </trkpt>
      <trkpt lat="45.64501" lon="5.43473">
        <ele>244</ele>
        <time>2022-04-16T10:12:11.849Z</time>
      </trkpt>
      <trkpt lat="45.64499" lon="5.43467">
        <ele>244</ele>
        <time>2022-04-16T10:12:12.848Z</time>
      </trkpt>
      <trkpt lat="45.64497" lon="5.43462">
        <ele>244</ele>
        <time>2022-04-16T10:12:13.849Z</time>
      </trkpt>
      <trkpt lat="45.64495" lon="5.43457">
        <ele>244</ele>
        <time>2022-04-16T10:12:14.848Z</time>
      </trkpt>
      <trkpt lat="45.64493" lon="5.43453">
        <ele>244</ele>
        <time>2022-04-16T10:12:15.848Z</time>
      </trkpt>
      <trkpt lat="45.64492" lon="5.43448">
        <ele>244</ele>
        <time>2022-04-16T10:12:16.849Z</time>
      </trkpt>
      <trkpt lat="45.64489" lon="5.43442">
        <ele>245</ele>
        <time>2022-04-16T10:12:17.848Z</time>
      </trkpt>
      <trkpt lat="45.64487" lon="5.43437">
        <ele>245</ele>
        <time>2022-04-16T10:12:18.848Z</time>
      </trkpt>
      <trkpt lat="45.64485" lon="5.43433">
        <ele>245</ele>
        <time>2022-04-16T10:12:19.849Z</time>
      </trkpt>
      <trkpt lat="45.64483" lon="5.43428">
        <ele>245</ele>
        <time>2022-04-16T10:12:20.849Z</time>
      </trkpt>
      <trkpt lat="45.64481" lon="5.43423">
        <ele>245</ele>
        <time>2022-04-16T10:12:21.849Z</time>
      </trkpt>
      <trkpt lat="45.64479" lon="5.43418">
        <ele>245</ele>
        <time>2022-04-16T10:12:22.848Z</time>
      </trkpt>
      <trkpt lat="45.64477" lon="5.43413">
        <ele>246</ele>
        <time>2022-04-16T10:12:23.849Z</time>
      </trkpt>
      <trkpt lat="45.64475" lon="5.43409">
        <ele>246</ele>
        <time>2022-04-16T10:12:24.849Z</time>
      </trkpt>
      <trkpt lat="45.64473" lon="5.43404">
        <ele>247</ele>
        <time>2022-04-16T10:12:25.849Z</time>
      </trkpt>
      <trkpt lat="45.64471" lon="5.43398">
        <ele>247</ele>
        <time>2022-04-16T10:12:26.849Z</time>
      </trkpt>
      <trkpt lat="45.64469" lon="5.43394">
        <ele>247</ele>
        <time>2022-04-16T10:12:27.848Z</time>
      </trkpt>
      <trkpt lat="45.64467" lon="5.4339">
        <ele>247</ele>
        <time>2022-04-16T10:12:28.849Z</time>
      </trkpt>
      <trkpt lat="45.64466" lon="5.43385">
        <ele>247</ele>
        <time>2022-04-16T10:12:29.849Z</time>
      </trkpt>
      <trkpt lat="45.64464" lon="5.4338">
        <ele>248</ele>
        <time>2022-04-16T10:12:30.849Z</time>
      </trkpt>
      <trkpt lat="45.64461" lon="5.43374">
        <ele>248</ele>
        <time>2022-04-16T10:12:31.848Z</time>
      </trkpt>
      <trkpt lat="45.6446" lon="5.4337">
        <ele>248</ele>
        <time>2022-04-16T10:12:32.849Z</time>
      </trkpt>
      <trkpt lat="45.64458" lon="5.43365">
        <ele>248</ele>
        <time>2022-04-16T10:12:33.849Z</time>
      </trkpt>
      <trkpt lat="45.64456" lon="5.4336">
        <ele>248</ele>
        <time>2022-04-16T10:12:34.849Z</time>
      </trkpt>
      <trkpt lat="45.64454" lon="5.43355">
        <ele>247</ele>
        <time>2022-04-16T10:12:35.848Z</time>
      </trkpt>
      <trkpt lat="45.64451" lon="5.43349">
        <ele>247</ele>
        <time>2022-04-16T10:12:36.849Z</time>
      </trkpt>
      <trkpt lat="45.64449" lon="5.43344">
        <ele>247</ele>
        <time>2022-04-16T10:12:37.848Z</time>
      </trkpt>
      <trkpt lat="45.64447" lon="5.4334">
        <ele>247</ele>
        <time>2022-04-16T10:12:38.848Z</time>
      </trkpt>
      <trkpt lat="45.64445" lon="5.43335">
        <ele>247</ele>
        <time>2022-04-16T10:12:39.848Z</time>
      </trkpt>
      <trkpt lat="45.64443" lon="5.4333">
        <ele>247</ele>
        <time>2022-04-16T10:12:40.849Z</time>
      </trkpt>
      <trkpt lat="45.64441" lon="5.43324">
        <ele>247</ele>
        <time>2022-04-16T10:12:41.849Z</time>
      </trkpt>
      <trkpt lat="45.64439" lon="5.43319">
        <ele>246</ele>
        <time>2022-04-16T10:12:42.849Z</time>
      </trkpt>
      <trkpt lat="45.64437" lon="5.43315">
        <ele>246</ele>
        <time>2022-04-16T10:12:43.849Z</time>
      </trkpt>
      <trkpt lat="45.64435" lon="5.4331">
        <ele>246</ele>
        <time>2022-04-16T10:12:44.849Z</time>
      </trkpt>
      <trkpt lat="45.64433" lon="5.43305">
        <ele>246</ele>
        <time>2022-04-16T10:12:45.849Z</time>
      </trkpt>
      <trkpt lat="45.64431" lon="5.43298">
        <ele>247</ele>
        <time>2022-04-16T10:12:46.849Z</time>
      </trkpt>
      <trkpt lat="45.64429" lon="5.43294">
        <ele>247</ele>
        <time>2022-04-16T10:12:47.848Z</time>
      </trkpt>
      <trkpt lat="45.64427" lon="5.43289">
        <ele>247</ele>
        <time>2022-04-16T10:12:48.848Z</time>
      </trkpt>
      <trkpt lat="45.64425" lon="5.43284">
        <ele>248</ele>
        <time>2022-04-16T10:12:49.848Z</time>
      </trkpt>
      <trkpt lat="45.64423" lon="5.43279">
        <ele>248</ele>
        <time>2022-04-16T10:12:50.849Z</time>
      </trkpt>
      <trkpt lat="45.64421" lon="5.43274">
        <ele>248</ele>
        <time>2022-04-16T10:12:51.849Z</time>
      </trkpt>
      <trkpt lat="45.64419" lon="5.43269">
        <ele>248</ele>
        <time>2022-04-16T10:12:52.849Z</time>
      </trkpt>
      <trkpt lat="45.64416" lon="5.43264">
        <ele>248</ele>
        <time>2022-04-16T10:12:53.849Z</time>
      </trkpt>
      <trkpt lat="45.64414" lon="5.43258">
        <ele>248</ele>
        <time>2022-04-16T10:12:54.849Z</time>
      </trkpt>
      <trkpt lat="45.64412" lon="5.43252">
        <ele>248</ele>
        <time>2022-04-16T10:12:55.848Z</time>
      </trkpt>
      <trkpt lat="45.64409" lon="5.43247">
        <ele>248</ele>
        <time>2022-04-16T10:12:56.849Z</time>
      </trkpt>
      <trkpt lat="45.64408" lon="5.43243">
        <ele>248</ele>
        <time>2022-04-16T10:12:57.849Z</time>
      </trkpt>
      <trkpt lat="45.64405" lon="5.43238">
        <ele>249</ele>
        <time>2022-04-16T10:12:58.849Z</time>
      </trkpt>
      <trkpt lat="45.64403" lon="5.43231">
        <ele>249</ele>
        <time>2022-04-16T10:12:59.849Z</time>
      </trkpt>
      <trkpt lat="45.64401" lon="5.43227">
        <ele>249</ele>
        <time>2022-04-16T10:13:00.848Z</time>
      </trkpt>
      <trkpt lat="45.64399" lon="5.43222">
        <ele>250</ele>
        <time>2022-04-16T10:13:01.848Z</time>
      </trkpt>
      <trkpt lat="45.64397" lon="5.43217">
        <ele>250</ele>
        <time>2022-04-16T10:13:02.849Z</time>
      </trkpt>
      <trkpt lat="45.64395" lon="5.43211">
        <ele>250</ele>
        <time>2022-04-16T10:13:03.849Z</time>
      </trkpt>
      <trkpt lat="45.64393" lon="5.43205">
        <ele>250</ele>
        <time>2022-04-16T10:13:04.849Z</time>
      </trkpt>
      <trkpt lat="45.64391" lon="5.432">
        <ele>250</ele>
        <time>2022-04-16T10:13:05.849Z</time>
      </trkpt>
      <trkpt lat="45.64389" lon="5.43196">
        <ele>250</ele>
        <time>2022-04-16T10:13:06.849Z</time>
      </trkpt>
      <trkpt lat="45.64387" lon="5.43191">
        <ele>250</ele>
        <time>2022-04-16T10:13:07.849Z</time>
      </trkpt>
      <trkpt lat="45.64385" lon="5.43186">
        <ele>249</ele>
        <time>2022-04-16T10:13:08.849Z</time>
      </trkpt>
      <trkpt lat="45.64382" lon="5.4318">
        <ele>249</ele>
        <time>2022-04-16T10:13:09.848Z</time>
      </trkpt>
      <trkpt lat="45.6438" lon="5.43176">
        <ele>249</ele>
        <time>2022-04-16T10:13:10.849Z</time>
      </trkpt>
      <trkpt lat="45.64379" lon="5.43172">
        <ele>249</ele>
        <time>2022-04-16T10:13:11.848Z</time>
      </trkpt>
      <trkpt lat="45.64377" lon="5.43166">
        <ele>250</ele>
        <time>2022-04-16T10:13:12.848Z</time>
      </trkpt>
      <trkpt lat="45.64376" lon="5.43161">
        <ele>250</ele>
        <time>2022-04-16T10:13:13.849Z</time>
      </trkpt>
      <trkpt lat="45.64374" lon="5.43156">
        <ele>250</ele>
        <time>2022-04-16T10:13:14.849Z</time>
      </trkpt>
      <trkpt lat="45.64372" lon="5.4315">
        <ele>250</ele>
        <time>2022-04-16T10:13:15.849Z</time>
      </trkpt>
      <trkpt lat="45.64371" lon="5.43144">
        <ele>250</ele>
        <time>2022-04-16T10:13:16.848Z</time>
      </trkpt>
      <trkpt lat="45.64369" lon="5.43139">
        <ele>250</ele>
        <time>2022-04-16T10:13:17.849Z</time>
      </trkpt>
      <trkpt lat="45.64367" lon="5.43131">
        <ele>250</ele>
        <time>2022-04-16T10:13:18.849Z</time>
      </trkpt>
      <trkpt lat="45.64366" lon="5.43125">
        <ele>249</ele>
        <time>2022-04-16T10:13:19.849Z</time>
      </trkpt>
      <trkpt lat="45.64364" lon="5.43119">
        <ele>249</ele>
        <time>2022-04-16T10:13:20.849Z</time>
      </trkpt>
      <trkpt lat="45.64363" lon="5.43114">
        <ele>249</ele>
        <time>2022-04-16T10:13:21.848Z</time>
      </trkpt>
      <trkpt lat="45.64361" lon="5.43107">
        <ele>248</ele>
        <time>2022-04-16T10:13:22.848Z</time>
      </trkpt>
      <trkpt lat="45.64359" lon="5.431">
        <ele>249</ele>
        <time>2022-04-16T10:13:23.849Z</time>
      </trkpt>
      <trkpt lat="45.64357" lon="5.43094">
        <ele>248</ele>
        <time>2022-04-16T10:13:24.849Z</time>
      </trkpt>
      <trkpt lat="45.64356" lon="5.43088">
        <ele>248</ele>
        <time>2022-04-16T10:13:25.849Z</time>
      </trkpt>
      <trkpt lat="45.64354" lon="5.43082">
        <ele>248</ele>
        <time>2022-04-16T10:13:26.849Z</time>
      </trkpt>
      <trkpt lat="45.64353" lon="5.43075">
        <ele>248</ele>
        <time>2022-04-16T10:13:27.848Z</time>
      </trkpt>
      <trkpt lat="45.64351" lon="5.43067">
        <ele>248</ele>
        <time>2022-04-16T10:13:28.849Z</time>
      </trkpt>
      <trkpt lat="45.64349" lon="5.4306">
        <ele>248</ele>
        <time>2022-04-16T10:13:29.848Z</time>
      </trkpt>
      <trkpt lat="45.64348" lon="5.43054">
        <ele>248</ele>
        <time>2022-04-16T10:13:30.849Z</time>
      </trkpt>
      <trkpt lat="45.64346" lon="5.43047">
        <ele>249</ele>
        <time>2022-04-16T10:13:31.849Z</time>
      </trkpt>
      <trkpt lat="45.64344" lon="5.43039">
        <ele>249</ele>
        <time>2022-04-16T10:13:32.848Z</time>
      </trkpt>
      <trkpt lat="45.64343" lon="5.43033">
        <ele>249</ele>
        <time>2022-04-16T10:13:33.848Z</time>
      </trkpt>
      <trkpt lat="45.64342" lon="5.43026">
        <ele>248</ele>
        <time>2022-04-16T10:13:34.849Z</time>
      </trkpt>
      <trkpt lat="45.6434" lon="5.43019">
        <ele>248</ele>
        <time>2022-04-16T10:13:35.849Z</time>
      </trkpt>
      <trkpt lat="45.64338" lon="5.43012">
        <ele>248</ele>
        <time>2022-04-16T10:13:36.849Z</time>
      </trkpt>
      <trkpt lat="45.64336" lon="5.43004">
        <ele>248</ele>
        <time>2022-04-16T10:13:37.848Z</time>
      </trkpt>
      <trkpt lat="45.64335" lon="5.42998">
        <ele>248</ele>
        <time>2022-04-16T10:13:38.849Z</time>
      </trkpt>
      <trkpt lat="45.64333" lon="5.4299">
        <ele>248</ele>
        <time>2022-04-16T10:13:39.849Z</time>
      </trkpt>
      <trkpt lat="45.64332" lon="5.42984">
        <ele>248</ele>
        <time>2022-04-16T10:13:40.849Z</time>
      </trkpt>
      <trkpt lat="45.6433" lon="5.42977">
        <ele>248</ele>
        <time>2022-04-16T10:13:41.849Z</time>
      </trkpt>
      <trkpt lat="45.64328" lon="5.4297">
        <ele>248</ele>
        <time>2022-04-16T10:13:42.849Z</time>
      </trkpt>
      <trkpt lat="45.64326" lon="5.42961">
        <ele>248</ele>
        <time>2022-04-16T10:13:43.849Z</time>
      </trkpt>
      <trkpt lat="45.64325" lon="5.42956">
        <ele>248</ele>
        <time>2022-04-16T10:13:44.848Z</time>
      </trkpt>
      <trkpt lat="45.64323" lon="5.42948">
        <ele>248</ele>
        <time>2022-04-16T10:13:45.848Z</time>
      </trkpt>
      <trkpt lat="45.64322" lon="5.42941">
        <ele>248</ele>
        <time>2022-04-16T10:13:46.849Z</time>
      </trkpt>
      <trkpt lat="45.6432" lon="5.42932">
        <ele>248</ele>
        <time>2022-04-16T10:13:47.849Z</time>
      </trkpt>
      <trkpt lat="45.64318" lon="5.42925">
        <ele>248</ele>
        <time>2022-04-16T10:13:48.848Z</time>
      </trkpt>
      <trkpt lat="45.64317" lon="5.42919">
        <ele>248</ele>
        <time>2022-04-16T10:13:49.849Z</time>
      </trkpt>
      <trkpt lat="45.64315" lon="5.42911">
        <ele>248</ele>
        <time>2022-04-16T10:13:50.849Z</time>
      </trkpt>
      <trkpt lat="45.64313" lon="5.42902">
        <ele>249</ele>
        <time>2022-04-16T10:13:51.849Z</time>
      </trkpt>
      <trkpt lat="45.64312" lon="5.42895">
        <ele>249</ele>
        <time>2022-04-16T10:13:52.849Z</time>
      </trkpt>
      <trkpt lat="45.6431" lon="5.42888">
        <ele>249</ele>
        <time>2022-04-16T10:13:53.849Z</time>
      </trkpt>
      <trkpt lat="45.64309" lon="5.42881">
        <ele>249</ele>
        <time>2022-04-16T10:13:54.848Z</time>
      </trkpt>
      <trkpt lat="45.64307" lon="5.42874">
        <ele>249</ele>
        <time>2022-04-16T10:13:55.848Z</time>
      </trkpt>
      <trkpt lat="45.64305" lon="5.42865">
        <ele>249</ele>
        <time>2022-04-16T10:13:56.849Z</time>
      </trkpt>
      <trkpt lat="45.64303" lon="5.42858">
        <ele>249</ele>
        <time>2022-04-16T10:13:57.849Z</time>
      </trkpt>
      <trkpt lat="45.64302" lon="5.42852">
        <ele>249</ele>
        <time>2022-04-16T10:13:58.849Z</time>
      </trkpt>
      <trkpt lat="45.643" lon="5.42845">
        <ele>249</ele>
        <time>2022-04-16T10:13:59.849Z</time>
      </trkpt>
      <trkpt lat="45.64298" lon="5.42838">
        <ele>249</ele>
        <time>2022-04-16T10:14:00.849Z</time>
      </trkpt>
      <trkpt lat="45.64296" lon="5.42829">
        <ele>249</ele>
        <time>2022-04-16T10:14:01.849Z</time>
      </trkpt>
      <trkpt lat="45.64294" lon="5.42822">
        <ele>249</ele>
        <time>2022-04-16T10:14:02.849Z</time>
      </trkpt>
      <trkpt lat="45.64293" lon="5.42816">
        <ele>249</ele>
        <time>2022-04-16T10:14:03.849Z</time>
      </trkpt>
      <trkpt lat="45.64291" lon="5.42809">
        <ele>249</ele>
        <time>2022-04-16T10:14:04.849Z</time>
      </trkpt>
      <trkpt lat="45.64289" lon="5.42801">
        <ele>249</ele>
        <time>2022-04-16T10:14:05.849Z</time>
      </trkpt>
      <trkpt lat="45.64287" lon="5.42794">
        <ele>249</ele>
        <time>2022-04-16T10:14:06.849Z</time>
      </trkpt>
      <trkpt lat="45.64286" lon="5.42786">
        <ele>249</ele>
        <time>2022-04-16T10:14:07.849Z</time>
      </trkpt>
      <trkpt lat="45.64285" lon="5.42781">
        <ele>249</ele>
        <time>2022-04-16T10:14:08.849Z</time>
      </trkpt>
      <trkpt lat="45.64283" lon="5.42774">
        <ele>250</ele>
        <time>2022-04-16T10:14:09.849Z</time>
      </trkpt>
      <trkpt lat="45.64281" lon="5.42765">
        <ele>250</ele>
        <time>2022-04-16T10:14:10.849Z</time>
      </trkpt>
      <trkpt lat="45.64279" lon="5.42758">
        <ele>250</ele>
        <time>2022-04-16T10:14:11.849Z</time>
      </trkpt>
      <trkpt lat="45.64278" lon="5.42751">
        <ele>250</ele>
        <time>2022-04-16T10:14:12.848Z</time>
      </trkpt>
      <trkpt lat="45.64276" lon="5.42746">
        <ele>250</ele>
        <time>2022-04-16T10:14:13.848Z</time>
      </trkpt>
      <trkpt lat="45.64275" lon="5.42739">
        <ele>250</ele>
        <time>2022-04-16T10:14:14.849Z</time>
      </trkpt>
      <trkpt lat="45.64273" lon="5.42732">
        <ele>250</ele>
        <time>2022-04-16T10:14:15.849Z</time>
      </trkpt>
      <trkpt lat="45.64271" lon="5.42724">
        <ele>250</ele>
        <time>2022-04-16T10:14:16.849Z</time>
      </trkpt>
      <trkpt lat="45.64269" lon="5.42717">
        <ele>250</ele>
        <time>2022-04-16T10:14:17.849Z</time>
      </trkpt>
      <trkpt lat="45.64267" lon="5.42709">
        <ele>250</ele>
        <time>2022-04-16T10:14:18.849Z</time>
      </trkpt>
      <trkpt lat="45.64266" lon="5.42702">
        <ele>250</ele>
        <time>2022-04-16T10:14:19.849Z</time>
      </trkpt>
      <trkpt lat="45.64264" lon="5.42693">
        <ele>250</ele>
        <time>2022-04-16T10:14:20.849Z</time>
      </trkpt>
      <trkpt lat="45.64262" lon="5.42685">
        <ele>250</ele>
        <time>2022-04-16T10:14:21.849Z</time>
      </trkpt>
      <trkpt lat="45.64261" lon="5.42679">
        <ele>250</ele>
        <time>2022-04-16T10:14:22.849Z</time>
      </trkpt>
      <trkpt lat="45.64259" lon="5.42672">
        <ele>250</ele>
        <time>2022-04-16T10:14:23.849Z</time>
      </trkpt>
      <trkpt lat="45.64257" lon="5.42664">
        <ele>250</ele>
        <time>2022-04-16T10:14:24.849Z</time>
      </trkpt>
      <trkpt lat="45.64255" lon="5.42656">
        <ele>250</ele>
        <time>2022-04-16T10:14:25.849Z</time>
      </trkpt>
      <trkpt lat="45.64253" lon="5.42647">
        <ele>250</ele>
        <time>2022-04-16T10:14:26.848Z</time>
      </trkpt>
      <trkpt lat="45.64252" lon="5.42641">
        <ele>250</ele>
        <time>2022-04-16T10:14:27.849Z</time>
      </trkpt>
      <trkpt lat="45.6425" lon="5.42634">
        <ele>250</ele>
        <time>2022-04-16T10:14:28.849Z</time>
      </trkpt>
      <trkpt lat="45.64248" lon="5.42626">
        <ele>250</ele>
        <time>2022-04-16T10:14:29.849Z</time>
      </trkpt>
      <trkpt lat="45.64246" lon="5.42618">
        <ele>250</ele>
        <time>2022-04-16T10:14:30.849Z</time>
      </trkpt>
      <trkpt lat="45.64245" lon="5.42611">
        <ele>249</ele>
        <time>2022-04-16T10:14:31.849Z</time>
      </trkpt>
      <trkpt lat="45.64243" lon="5.42605">
        <ele>249</ele>
        <time>2022-04-16T10:14:32.849Z</time>
      </trkpt>
      <trkpt lat="45.64242" lon="5.42597">
        <ele>249</ele>
        <time>2022-04-16T10:14:33.849Z</time>
      </trkpt>
      <trkpt lat="45.6424" lon="5.4259">
        <ele>249</ele>
        <time>2022-04-16T10:14:34.849Z</time>
      </trkpt>
      <trkpt lat="45.64238" lon="5.42581">
        <ele>249</ele>
        <time>2022-04-16T10:14:35.848Z</time>
      </trkpt>
      <trkpt lat="45.64236" lon="5.42574">
        <ele>249</ele>
        <time>2022-04-16T10:14:36.849Z</time>
      </trkpt>
      <trkpt lat="45.64234" lon="5.42566">
        <ele>249</ele>
        <time>2022-04-16T10:14:37.848Z</time>
      </trkpt>
      <trkpt lat="45.64233" lon="5.42558">
        <ele>250</ele>
        <time>2022-04-16T10:14:38.849Z</time>
      </trkpt>
      <trkpt lat="45.64231" lon="5.42549">
        <ele>250</ele>
        <time>2022-04-16T10:14:39.849Z</time>
      </trkpt>
      <trkpt lat="45.64229" lon="5.42541">
        <ele>249</ele>
        <time>2022-04-16T10:14:40.849Z</time>
      </trkpt>
      <trkpt lat="45.64227" lon="5.42535">
        <ele>249</ele>
        <time>2022-04-16T10:14:41.848Z</time>
      </trkpt>
      <trkpt lat="45.64225" lon="5.42527">
        <ele>249</ele>
        <time>2022-04-16T10:14:42.848Z</time>
      </trkpt>
      <trkpt lat="45.64223" lon="5.42518">
        <ele>248</ele>
        <time>2022-04-16T10:14:43.849Z</time>
      </trkpt>
      <trkpt lat="45.64221" lon="5.4251">
        <ele>248</ele>
        <time>2022-04-16T10:14:44.849Z</time>
      </trkpt>
      <trkpt lat="45.64219" lon="5.42502">
        <ele>248</ele>
        <time>2022-04-16T10:14:45.849Z</time>
      </trkpt>
      <trkpt lat="45.64218" lon="5.42495">
        <ele>248</ele>
        <time>2022-04-16T10:14:46.848Z</time>
      </trkpt>
      <trkpt lat="45.64216" lon="5.42486">
        <ele>248</ele>
        <time>2022-04-16T10:14:47.849Z</time>
      </trkpt>
      <trkpt lat="45.64214" lon="5.42478">
        <ele>248</ele>
        <time>2022-04-16T10:14:48.848Z</time>
      </trkpt>
      <trkpt lat="45.64212" lon="5.4247">
        <ele>248</ele>
        <time>2022-04-16T10:14:49.849Z</time>
      </trkpt>
      <trkpt lat="45.6421" lon="5.42462">
        <ele>248</ele>
        <time>2022-04-16T10:14:50.848Z</time>
      </trkpt>
      <trkpt lat="45.64208" lon="5.42454">
        <ele>247</ele>
        <time>2022-04-16T10:14:51.848Z</time>
      </trkpt>
      <trkpt lat="45.64206" lon="5.42446">
        <ele>247</ele>
        <time>2022-04-16T10:14:52.849Z</time>
      </trkpt>
      <trkpt lat="45.64204" lon="5.42438">
        <ele>247</ele>
        <time>2022-04-16T10:14:53.848Z</time>
      </trkpt>
      <trkpt lat="45.64202" lon="5.4243">
        <ele>247</ele>
        <time>2022-04-16T10:14:54.849Z</time>
      </trkpt>
      <trkpt lat="45.642" lon="5.42422">
        <ele>247</ele>
        <time>2022-04-16T10:14:55.849Z</time>
      </trkpt>
      <trkpt lat="45.64198" lon="5.42416">
        <ele>247</ele>
        <time>2022-04-16T10:14:56.849Z</time>
      </trkpt>
      <trkpt lat="45.64197" lon="5.42408">
        <ele>247</ele>
        <time>2022-04-16T10:14:57.849Z</time>
      </trkpt>
      <trkpt lat="45.64194" lon="5.42398">
        <ele>247</ele>
        <time>2022-04-16T10:14:58.848Z</time>
      </trkpt>
      <trkpt lat="45.64193" lon="5.4239">
        <ele>247</ele>
        <time>2022-04-16T10:14:59.849Z</time>
      </trkpt>
      <trkpt lat="45.64191" lon="5.42382">
        <ele>247</ele>
        <time>2022-04-16T10:15:00.849Z</time>
      </trkpt>
      <trkpt lat="45.64189" lon="5.42374">
        <ele>247</ele>
        <time>2022-04-16T10:15:01.848Z</time>
      </trkpt>
      <trkpt lat="45.64187" lon="5.42368">
        <ele>247</ele>
        <time>2022-04-16T10:15:02.848Z</time>
      </trkpt>
      <trkpt lat="45.64184" lon="5.42359">
        <ele>247</ele>
        <time>2022-04-16T10:15:03.849Z</time>
      </trkpt>
      <trkpt lat="45.64182" lon="5.42351">
        <ele>247</ele>
        <time>2022-04-16T10:15:04.849Z</time>
      </trkpt>
      <trkpt lat="45.64181" lon="5.42344">
        <ele>247</ele>
        <time>2022-04-16T10:15:05.849Z</time>
      </trkpt>
      <trkpt lat="45.64179" lon="5.42336">
        <ele>247</ele>
        <time>2022-04-16T10:15:06.848Z</time>
      </trkpt>
      <trkpt lat="45.64177" lon="5.42327">
        <ele>247</ele>
        <time>2022-04-16T10:15:07.849Z</time>
      </trkpt>
      <trkpt lat="45.64175" lon="5.42319">
        <ele>248</ele>
        <time>2022-04-16T10:15:08.848Z</time>
      </trkpt>
      <trkpt lat="45.64173" lon="5.4231">
        <ele>248</ele>
        <time>2022-04-16T10:15:09.849Z</time>
      </trkpt>
      <trkpt lat="45.64171" lon="5.42302">
        <ele>248</ele>
        <time>2022-04-16T10:15:10.848Z</time>
      </trkpt>
      <trkpt lat="45.64169" lon="5.42294">
        <ele>248</ele>
        <time>2022-04-16T10:15:11.849Z</time>
      </trkpt>
      <trkpt lat="45.64167" lon="5.42285">
        <ele>247</ele>
        <time>2022-04-16T10:15:12.849Z</time>
      </trkpt>
      <trkpt lat="45.64165" lon="5.42277">
        <ele>247</ele>
        <time>2022-04-16T10:15:13.849Z</time>
      </trkpt>
      <trkpt lat="45.64163" lon="5.42269">
        <ele>247</ele>
        <time>2022-04-16T10:15:14.848Z</time>
      </trkpt>
      <trkpt lat="45.64161" lon="5.42261">
        <ele>247</ele>
        <time>2022-04-16T10:15:15.848Z</time>
      </trkpt>
      <trkpt lat="45.64159" lon="5.42254">
        <ele>247</ele>
        <time>2022-04-16T10:15:16.849Z</time>
      </trkpt>
      <trkpt lat="45.64157" lon="5.42244">
        <ele>248</ele>
        <time>2022-04-16T10:15:17.848Z</time>
      </trkpt>
      <trkpt lat="45.64155" lon="5.42236">
        <ele>248</ele>
        <time>2022-04-16T10:15:18.849Z</time>
      </trkpt>
      <trkpt lat="45.64152" lon="5.42228">
        <ele>248</ele>
        <time>2022-04-16T10:15:19.849Z</time>
      </trkpt>
      <trkpt lat="45.64151" lon="5.42221">
        <ele>248</ele>
        <time>2022-04-16T10:15:20.848Z</time>
      </trkpt>
      <trkpt lat="45.64148" lon="5.42213">
        <ele>248</ele>
        <time>2022-04-16T10:15:21.848Z</time>
      </trkpt>
      <trkpt lat="45.64145" lon="5.42204">
        <ele>248</ele>
        <time>2022-04-16T10:15:22.848Z</time>
      </trkpt>
      <trkpt lat="45.64142" lon="5.42196">
        <ele>247</ele>
        <time>2022-04-16T10:15:23.848Z</time>
      </trkpt>
      <trkpt lat="45.64139" lon="5.4219">
        <ele>248</ele>
        <time>2022-04-16T10:15:24.849Z</time>
      </trkpt>
      <trkpt lat="45.64136" lon="5.42182">
        <ele>248</ele>
        <time>2022-04-16T10:15:25.849Z</time>
      </trkpt>
      <trkpt lat="45.64132" lon="5.42175">
        <ele>248</ele>
        <time>2022-04-16T10:15:26.849Z</time>
      </trkpt>
      <trkpt lat="45.64128" lon="5.42168">
        <ele>248</ele>
        <time>2022-04-16T10:15:27.849Z</time>
      </trkpt>
      <trkpt lat="45.64123" lon="5.42161">
        <ele>248</ele>
        <time>2022-04-16T10:15:28.848Z</time>
      </trkpt>
      <trkpt lat="45.64119" lon="5.42155">
        <ele>248</ele>
        <time>2022-04-16T10:15:29.849Z</time>
      </trkpt>
      <trkpt lat="45.64114" lon="5.42148">
        <ele>248</ele>
        <time>2022-04-16T10:15:30.848Z</time>
      </trkpt>
      <trkpt lat="45.64108" lon="5.42141">
        <ele>248</ele>
        <time>2022-04-16T10:15:31.849Z</time>
      </trkpt>
      <trkpt lat="45.64103" lon="5.42135">
        <ele>248</ele>
        <time>2022-04-16T10:15:32.849Z</time>
      </trkpt>
      <trkpt lat="45.64099" lon="5.42131">
        <ele>248</ele>
        <time>2022-04-16T10:15:33.849Z</time>
      </trkpt>
      <trkpt lat="45.64093" lon="5.42125">
        <ele>249</ele>
        <time>2022-04-16T10:15:34.849Z</time>
      </trkpt>
      <trkpt lat="45.64088" lon="5.4212">
        <ele>249</ele>
        <time>2022-04-16T10:15:35.849Z</time>
      </trkpt>
      <trkpt lat="45.64081" lon="5.42113">
        <ele>249</ele>
        <time>2022-04-16T10:15:36.849Z</time>
      </trkpt>
      <trkpt lat="45.64076" lon="5.42107">
        <ele>250</ele>
        <time>2022-04-16T10:15:37.848Z</time>
      </trkpt>
      <trkpt lat="45.64072" lon="5.42102">
        <ele>250</ele>
        <time>2022-04-16T10:15:38.848Z</time>
      </trkpt>
      <trkpt lat="45.64066" lon="5.42097">
        <ele>250</ele>
        <time>2022-04-16T10:15:39.849Z</time>
      </trkpt>
      <trkpt lat="45.64061" lon="5.42091">
        <ele>250</ele>
        <time>2022-04-16T10:15:40.849Z</time>
      </trkpt>
      <trkpt lat="45.64056" lon="5.42085">
        <ele>250</ele>
        <time>2022-04-16T10:15:41.849Z</time>
      </trkpt>
      <trkpt lat="45.6405" lon="5.42078">
        <ele>249</ele>
        <time>2022-04-16T10:15:42.849Z</time>
      </trkpt>
      <trkpt lat="45.64046" lon="5.42073">
        <ele>249</ele>
        <time>2022-04-16T10:15:43.849Z</time>
      </trkpt>
      <trkpt lat="45.64042" lon="5.42066">
        <ele>249</ele>
        <time>2022-04-16T10:15:44.849Z</time>
      </trkpt>
      <trkpt lat="45.64038" lon="5.42059">
        <ele>248</ele>
        <time>2022-04-16T10:15:45.848Z</time>
      </trkpt>
      <trkpt lat="45.64034" lon="5.4205">
        <ele>248</ele>
        <time>2022-04-16T10:15:46.849Z</time>
      </trkpt>
      <trkpt lat="45.64032" lon="5.42042">
        <ele>248</ele>
        <time>2022-04-16T10:15:47.849Z</time>
      </trkpt>
      <trkpt lat="45.6403" lon="5.42035">
        <ele>248</ele>
        <time>2022-04-16T10:15:48.849Z</time>
      </trkpt>
      <trkpt lat="45.64029" lon="5.42027">
        <ele>247</ele>
        <time>2022-04-16T10:15:49.848Z</time>
      </trkpt>
      <trkpt lat="45.64027" lon="5.42019">
        <ele>247</ele>
        <time>2022-04-16T10:15:50.849Z</time>
      </trkpt>
      <trkpt lat="45.64026" lon="5.4201">
        <ele>246</ele>
        <time>2022-04-16T10:15:51.849Z</time>
      </trkpt>
      <trkpt lat="45.64025" lon="5.42">
        <ele>246</ele>
        <time>2022-04-16T10:15:52.848Z</time>
      </trkpt>
      <trkpt lat="45.64024" lon="5.41993">
        <ele>246</ele>
        <time>2022-04-16T10:15:53.849Z</time>
      </trkpt>
      <trkpt lat="45.64024" lon="5.41985">
        <ele>246</ele>
        <time>2022-04-16T10:15:54.848Z</time>
      </trkpt>
      <trkpt lat="45.64023" lon="5.41975">
        <ele>246</ele>
        <time>2022-04-16T10:15:55.849Z</time>
      </trkpt>
      <trkpt lat="45.64022" lon="5.41966">
        <ele>246</ele>
        <time>2022-04-16T10:15:56.849Z</time>
      </trkpt>
      <trkpt lat="45.64021" lon="5.41958">
        <ele>246</ele>
        <time>2022-04-16T10:15:57.848Z</time>
      </trkpt>
      <trkpt lat="45.6402" lon="5.41951">
        <ele>247</ele>
        <time>2022-04-16T10:15:58.848Z</time>
      </trkpt>
      <trkpt lat="45.6402" lon="5.41943">
        <ele>247</ele>
        <time>2022-04-16T10:15:59.849Z</time>
      </trkpt>
      <trkpt lat="45.64019" lon="5.41933">
        <ele>247</ele>
        <time>2022-04-16T10:16:00.849Z</time>
      </trkpt>
      <trkpt lat="45.64018" lon="5.41924">
        <ele>248</ele>
        <time>2022-04-16T10:16:01.849Z</time>
      </trkpt>
      <trkpt lat="45.64017" lon="5.41918">
        <ele>248</ele>
        <time>2022-04-16T10:16:02.849Z</time>
      </trkpt>
      <trkpt lat="45.64016" lon="5.4191">
        <ele>248</ele>
        <time>2022-04-16T10:16:03.849Z</time>
      </trkpt>
      <trkpt lat="45.64015" lon="5.41901">
        <ele>248</ele>
        <time>2022-04-16T10:16:04.849Z</time>
      </trkpt>
      <trkpt lat="45.64014" lon="5.41891">
        <ele>247</ele>
        <time>2022-04-16T10:16:05.849Z</time>
      </trkpt>
      <trkpt lat="45.64013" lon="5.41882">
        <ele>247</ele>
        <time>2022-04-16T10:16:06.849Z</time>
      </trkpt>
      <trkpt lat="45.64012" lon="5.41875">
        <ele>246</ele>
        <time>2022-04-16T10:16:07.849Z</time>
      </trkpt>
      <trkpt lat="45.64011" lon="5.41866">
        <ele>246</ele>
        <time>2022-04-16T10:16:08.849Z</time>
      </trkpt>
      <trkpt lat="45.6401" lon="5.41858">
        <ele>246</ele>
        <time>2022-04-16T10:16:09.849Z</time>
      </trkpt>
      <trkpt lat="45.64009" lon="5.41849">
        <ele>246</ele>
        <time>2022-04-16T10:16:10.849Z</time>
      </trkpt>
      <trkpt lat="45.64008" lon="5.41839">
        <ele>246</ele>
        <time>2022-04-16T10:16:11.849Z</time>
      </trkpt>
      <trkpt lat="45.64007" lon="5.41832">
        <ele>246</ele>
        <time>2022-04-16T10:16:12.848Z</time>
      </trkpt>
      <trkpt lat="45.64007" lon="5.41824">
        <ele>246</ele>
        <time>2022-04-16T10:16:13.849Z</time>
      </trkpt>
      <trkpt lat="45.64006" lon="5.41815">
        <ele>246</ele>
        <time>2022-04-16T10:16:14.849Z</time>
      </trkpt>
      <trkpt lat="45.64004" lon="5.41806">
        <ele>245</ele>
        <time>2022-04-16T10:16:15.849Z</time>
      </trkpt>
      <trkpt lat="45.64003" lon="5.41797">
        <ele>245</ele>
        <time>2022-04-16T10:16:16.849Z</time>
      </trkpt>
      <trkpt lat="45.64003" lon="5.41791">
        <ele>245</ele>
        <time>2022-04-16T10:16:17.849Z</time>
      </trkpt>
      <trkpt lat="45.64002" lon="5.41783">
        <ele>244</ele>
        <time>2022-04-16T10:16:18.849Z</time>
      </trkpt>
      <trkpt lat="45.64001" lon="5.41773">
        <ele>244</ele>
        <time>2022-04-16T10:16:19.848Z</time>
      </trkpt>
      <trkpt lat="45.64" lon="5.41764">
        <ele>245</ele>
        <time>2022-04-16T10:16:20.849Z</time>
      </trkpt>
      <trkpt lat="45.63999" lon="5.41756">
        <ele>245</ele>
        <time>2022-04-16T10:16:21.849Z</time>
      </trkpt>
      <trkpt lat="45.63998" lon="5.4175">
        <ele>245</ele>
        <time>2022-04-16T10:16:22.849Z</time>
      </trkpt>
      <trkpt lat="45.63997" lon="5.41741">
        <ele>245</ele>
        <time>2022-04-16T10:16:23.849Z</time>
      </trkpt>
      <trkpt lat="45.63996" lon="5.41733">
        <ele>245</ele>
        <time>2022-04-16T10:16:24.849Z</time>
      </trkpt>
      <trkpt lat="45.63995" lon="5.41723">
        <ele>246</ele>
        <time>2022-04-16T10:16:25.849Z</time>
      </trkpt>
      <trkpt lat="45.63995" lon="5.41714">
        <ele>246</ele>
        <time>2022-04-16T10:16:26.849Z</time>
      </trkpt>
      <trkpt lat="45.63994" lon="5.41708">
        <ele>246</ele>
        <time>2022-04-16T10:16:27.848Z</time>
      </trkpt>
      <trkpt lat="45.63993" lon="5.41699">
        <ele>246</ele>
        <time>2022-04-16T10:16:28.849Z</time>
      </trkpt>
      <trkpt lat="45.63993" lon="5.4169">
        <ele>246</ele>
        <time>2022-04-16T10:16:29.849Z</time>
      </trkpt>
      <trkpt lat="45.63993" lon="5.41684">
        <ele>246</ele>
        <time>2022-04-16T10:16:30.849Z</time>
      </trkpt>
      <trkpt lat="45.63993" lon="5.41676">
        <ele>246</ele>
        <time>2022-04-16T10:16:31.849Z</time>
      </trkpt>
      <trkpt lat="45.63992" lon="5.41668">
        <ele>245</ele>
        <time>2022-04-16T10:16:32.849Z</time>
      </trkpt>
      <trkpt lat="45.63993" lon="5.41659">
        <ele>245</ele>
        <time>2022-04-16T10:16:33.849Z</time>
      </trkpt>
      <trkpt lat="45.63993" lon="5.41652">
        <ele>245</ele>
        <time>2022-04-16T10:16:34.849Z</time>
      </trkpt>
      <trkpt lat="45.63993" lon="5.41644">
        <ele>245</ele>
        <time>2022-04-16T10:16:35.849Z</time>
      </trkpt>
      <trkpt lat="45.63994" lon="5.41637">
        <ele>245</ele>
        <time>2022-04-16T10:16:36.849Z</time>
      </trkpt>
      <trkpt lat="45.63995" lon="5.41629">
        <ele>245</ele>
        <time>2022-04-16T10:16:37.849Z</time>
      </trkpt>
      <trkpt lat="45.63996" lon="5.41621">
        <ele>244</ele>
        <time>2022-04-16T10:16:38.849Z</time>
      </trkpt>
      <trkpt lat="45.63997" lon="5.41614">
        <ele>244</ele>
        <time>2022-04-16T10:16:39.849Z</time>
      </trkpt>
      <trkpt lat="45.63998" lon="5.41606">
        <ele>244</ele>
        <time>2022-04-16T10:16:40.849Z</time>
      </trkpt>
      <trkpt lat="45.64" lon="5.41598">
        <ele>244</ele>
        <time>2022-04-16T10:16:41.849Z</time>
      </trkpt>
      <trkpt lat="45.64001" lon="5.41591">
        <ele>244</ele>
        <time>2022-04-16T10:16:42.849Z</time>
      </trkpt>
      <trkpt lat="45.64003" lon="5.41583">
        <ele>244</ele>
        <time>2022-04-16T10:16:43.849Z</time>
      </trkpt>
      <trkpt lat="45.64004" lon="5.41576">
        <ele>244</ele>
        <time>2022-04-16T10:16:44.849Z</time>
      </trkpt>
      <trkpt lat="45.64006" lon="5.41569">
        <ele>244</ele>
        <time>2022-04-16T10:16:45.849Z</time>
      </trkpt>
      <trkpt lat="45.64007" lon="5.41561">
        <ele>244</ele>
        <time>2022-04-16T10:16:46.849Z</time>
      </trkpt>
      <trkpt lat="45.64008" lon="5.41554">
        <ele>243</ele>
        <time>2022-04-16T10:16:47.849Z</time>
      </trkpt>
      <trkpt lat="45.6401" lon="5.41546">
        <ele>243</ele>
        <time>2022-04-16T10:16:48.849Z</time>
      </trkpt>
      <trkpt lat="45.64012" lon="5.41537">
        <ele>243</ele>
        <time>2022-04-16T10:16:49.849Z</time>
      </trkpt>
      <trkpt lat="45.64013" lon="5.41532">
        <ele>243</ele>
        <time>2022-04-16T10:16:50.849Z</time>
      </trkpt>
      <trkpt lat="45.64014" lon="5.41524">
        <ele>244</ele>
        <time>2022-04-16T10:16:51.849Z</time>
      </trkpt>
      <trkpt lat="45.64015" lon="5.41517">
        <ele>244</ele>
        <time>2022-04-16T10:16:52.849Z</time>
      </trkpt>
      <trkpt lat="45.64017" lon="5.4151">
        <ele>244</ele>
        <time>2022-04-16T10:16:53.849Z</time>
      </trkpt>
      <trkpt lat="45.64018" lon="5.41502">
        <ele>244</ele>
        <time>2022-04-16T10:16:54.849Z</time>
      </trkpt>
      <trkpt lat="45.6402" lon="5.41495">
        <ele>244</ele>
        <time>2022-04-16T10:16:55.849Z</time>
      </trkpt>
      <trkpt lat="45.64022" lon="5.41487">
        <ele>244</ele>
        <time>2022-04-16T10:16:56.849Z</time>
      </trkpt>
      <trkpt lat="45.64023" lon="5.41478">
        <ele>244</ele>
        <time>2022-04-16T10:16:57.849Z</time>
      </trkpt>
      <trkpt lat="45.64025" lon="5.41473">
        <ele>245</ele>
        <time>2022-04-16T10:16:58.849Z</time>
      </trkpt>
      <trkpt lat="45.64026" lon="5.41466">
        <ele>245</ele>
        <time>2022-04-16T10:16:59.849Z</time>
      </trkpt>
      <trkpt lat="45.64028" lon="5.41458">
        <ele>245</ele>
        <time>2022-04-16T10:17:00.849Z</time>
      </trkpt>
      <trkpt lat="45.64029" lon="5.41451">
        <ele>245</ele>
        <time>2022-04-16T10:17:01.849Z</time>
      </trkpt>
      <trkpt lat="45.6403" lon="5.41443">
        <ele>245</ele>
        <time>2022-04-16T10:17:02.848Z</time>
      </trkpt>
      <trkpt lat="45.64032" lon="5.41436">
        <ele>245</ele>
        <time>2022-04-16T10:17:03.849Z</time>
      </trkpt>
      <trkpt lat="45.64033" lon="5.41429">
        <ele>245</ele>
        <time>2022-04-16T10:17:04.849Z</time>
      </trkpt>
      <trkpt lat="45.64034" lon="5.41422">
        <ele>245</ele>
        <time>2022-04-16T10:17:05.848Z</time>
      </trkpt>
      <trkpt lat="45.64036" lon="5.41414">
        <ele>244</ele>
        <time>2022-04-16T10:17:06.848Z</time>
      </trkpt>
      <trkpt lat="45.64037" lon="5.41407">
        <ele>244</ele>
        <time>2022-04-16T10:17:07.849Z</time>
      </trkpt>
      <trkpt lat="45.64039" lon="5.41399">
        <ele>244</ele>
        <time>2022-04-16T10:17:08.849Z</time>
      </trkpt>
      <trkpt lat="45.6404" lon="5.41391">
        <ele>244</ele>
        <time>2022-04-16T10:17:09.849Z</time>
      </trkpt>
      <trkpt lat="45.64041" lon="5.41386">
        <ele>244</ele>
        <time>2022-04-16T10:17:10.849Z</time>
      </trkpt>
      <trkpt lat="45.64043" lon="5.41378">
        <ele>244</ele>
        <time>2022-04-16T10:17:11.849Z</time>
      </trkpt>
      <trkpt lat="45.64044" lon="5.41371">
        <ele>244</ele>
        <time>2022-04-16T10:17:12.849Z</time>
      </trkpt>
      <trkpt lat="45.64046" lon="5.41362">
        <ele>244</ele>
        <time>2022-04-16T10:17:13.849Z</time>
      </trkpt>
      <trkpt lat="45.64047" lon="5.41357">
        <ele>244</ele>
        <time>2022-04-16T10:17:14.849Z</time>
      </trkpt>
      <trkpt lat="45.64049" lon="5.41349">
        <ele>244</ele>
        <time>2022-04-16T10:17:15.848Z</time>
      </trkpt>
      <trkpt lat="45.6405" lon="5.41342">
        <ele>245</ele>
        <time>2022-04-16T10:17:16.849Z</time>
      </trkpt>
      <trkpt lat="45.64052" lon="5.41334">
        <ele>245</ele>
        <time>2022-04-16T10:17:17.848Z</time>
      </trkpt>
      <trkpt lat="45.64053" lon="5.41327">
        <ele>245</ele>
        <time>2022-04-16T10:17:18.848Z</time>
      </trkpt>
      <trkpt lat="45.64055" lon="5.4132">
        <ele>246</ele>
        <time>2022-04-16T10:17:19.849Z</time>
      </trkpt>
      <trkpt lat="45.64056" lon="5.41313">
        <ele>246</ele>
        <time>2022-04-16T10:17:20.848Z</time>
      </trkpt>
      <trkpt lat="45.64058" lon="5.41304">
        <ele>246</ele>
        <time>2022-04-16T10:17:21.849Z</time>
      </trkpt>
      <trkpt lat="45.64059" lon="5.41298">
        <ele>247</ele>
        <time>2022-04-16T10:17:22.849Z</time>
      </trkpt>
      <trkpt lat="45.6406" lon="5.4129">
        <ele>247</ele>
        <time>2022-04-16T10:17:23.849Z</time>
      </trkpt>
      <trkpt lat="45.64062" lon="5.41283">
        <ele>247</ele>
        <time>2022-04-16T10:17:24.849Z</time>
      </trkpt>
      <trkpt lat="45.64063" lon="5.41275">
        <ele>247</ele>
        <time>2022-04-16T10:17:25.849Z</time>
      </trkpt>
      <trkpt lat="45.64064" lon="5.41268">
        <ele>247</ele>
        <time>2022-04-16T10:17:26.849Z</time>
      </trkpt>
      <trkpt lat="45.64066" lon="5.41261">
        <ele>247</ele>
        <time>2022-04-16T10:17:27.848Z</time>
      </trkpt>
      <trkpt lat="45.64067" lon="5.41254">
        <ele>246</ele>
        <time>2022-04-16T10:17:28.849Z</time>
      </trkpt>
      <trkpt lat="45.64069" lon="5.41246">
        <ele>246</ele>
        <time>2022-04-16T10:17:29.849Z</time>
      </trkpt>
      <trkpt lat="45.6407" lon="5.41239">
        <ele>246</ele>
        <time>2022-04-16T10:17:30.848Z</time>
      </trkpt>
      <trkpt lat="45.64071" lon="5.41232">
        <ele>246</ele>
        <time>2022-04-16T10:17:31.849Z</time>
      </trkpt>
      <trkpt lat="45.64073" lon="5.41224">
        <ele>245</ele>
        <time>2022-04-16T10:17:32.848Z</time>
      </trkpt>
      <trkpt lat="45.64074" lon="5.41218">
        <ele>244</ele>
        <time>2022-04-16T10:17:33.849Z</time>
      </trkpt>
      <trkpt lat="45.64076" lon="5.41211">
        <ele>244</ele>
        <time>2022-04-16T10:17:34.849Z</time>
      </trkpt>
      <trkpt lat="45.64077" lon="5.41203">
        <ele>244</ele>
        <time>2022-04-16T10:17:35.849Z</time>
      </trkpt>
      <trkpt lat="45.64078" lon="5.41196">
        <ele>245</ele>
        <time>2022-04-16T10:17:36.848Z</time>
      </trkpt>
      <trkpt lat="45.6408" lon="5.41188">
        <ele>245</ele>
        <time>2022-04-16T10:17:37.849Z</time>
      </trkpt>
      <trkpt lat="45.64081" lon="5.41182">
        <ele>245</ele>
        <time>2022-04-16T10:17:38.849Z</time>
      </trkpt>
      <trkpt lat="45.64083" lon="5.41175">
        <ele>246</ele>
        <time>2022-04-16T10:17:39.848Z</time>
      </trkpt>
      <trkpt lat="45.64084" lon="5.41168">
        <ele>246</ele>
        <time>2022-04-16T10:17:40.849Z</time>
      </trkpt>
      <trkpt lat="45.64085" lon="5.41161">
        <ele>246</ele>
        <time>2022-04-16T10:17:41.849Z</time>
      </trkpt>
      <trkpt lat="45.64087" lon="5.41153">
        <ele>246</ele>
        <time>2022-04-16T10:17:42.848Z</time>
      </trkpt>
      <trkpt lat="45.64088" lon="5.41146">
        <ele>245</ele>
        <time>2022-04-16T10:17:43.849Z</time>
      </trkpt>
      <trkpt lat="45.6409" lon="5.41139">
        <ele>245</ele>
        <time>2022-04-16T10:17:44.848Z</time>
      </trkpt>
      <trkpt lat="45.64092" lon="5.41128">
        <ele>245</ele>
        <time>2022-04-16T10:17:45.848Z</time>
      </trkpt>
      <trkpt lat="45.64093" lon="5.41122">
        <ele>245</ele>
        <time>2022-04-16T10:17:46.849Z</time>
      </trkpt>
      <trkpt lat="45.64094" lon="5.41115">
        <ele>245</ele>
        <time>2022-04-16T10:17:47.849Z</time>
      </trkpt>
      <trkpt lat="45.64096" lon="5.41107">
        <ele>244</ele>
        <time>2022-04-16T10:17:48.849Z</time>
      </trkpt>
      <trkpt lat="45.64097" lon="5.41099">
        <ele>244</ele>
        <time>2022-04-16T10:17:49.849Z</time>
      </trkpt>
      <trkpt lat="45.64099" lon="5.41091">
        <ele>244</ele>
        <time>2022-04-16T10:17:50.848Z</time>
      </trkpt>
      <trkpt lat="45.64101" lon="5.41082">
        <ele>243</ele>
        <time>2022-04-16T10:17:51.849Z</time>
      </trkpt>
      <trkpt lat="45.64102" lon="5.41075">
        <ele>243</ele>
        <time>2022-04-16T10:17:52.849Z</time>
      </trkpt>
      <trkpt lat="45.64103" lon="5.41069">
        <ele>243</ele>
        <time>2022-04-16T10:17:53.849Z</time>
      </trkpt>
      <trkpt lat="45.64105" lon="5.41061">
        <ele>242</ele>
        <time>2022-04-16T10:17:54.849Z</time>
      </trkpt>
      <trkpt lat="45.64106" lon="5.41053">
        <ele>242</ele>
        <time>2022-04-16T10:17:55.849Z</time>
      </trkpt>
      <trkpt lat="45.64108" lon="5.41046">
        <ele>242</ele>
        <time>2022-04-16T10:17:56.849Z</time>
      </trkpt>
      <trkpt lat="45.64109" lon="5.41039">
        <ele>241</ele>
        <time>2022-04-16T10:17:57.849Z</time>
      </trkpt>
      <trkpt lat="45.6411" lon="5.41031">
        <ele>241</ele>
        <time>2022-04-16T10:17:58.849Z</time>
      </trkpt>
      <trkpt lat="45.64112" lon="5.41024">
        <ele>241</ele>
        <time>2022-04-16T10:17:59.849Z</time>
      </trkpt>
      <trkpt lat="45.64113" lon="5.41017">
        <ele>241</ele>
        <time>2022-04-16T10:18:00.849Z</time>
      </trkpt>
      <trkpt lat="45.64115" lon="5.41009">
        <ele>241</ele>
        <time>2022-04-16T10:18:01.849Z</time>
      </trkpt>
      <trkpt lat="45.64116" lon="5.41002">
        <ele>240</ele>
        <time>2022-04-16T10:18:02.849Z</time>
      </trkpt>
      <trkpt lat="45.64118" lon="5.40994">
        <ele>240</ele>
        <time>2022-04-16T10:18:03.849Z</time>
      </trkpt>
      <trkpt lat="45.64119" lon="5.40987">
        <ele>241</ele>
        <time>2022-04-16T10:18:04.849Z</time>
      </trkpt>
      <trkpt lat="45.64121" lon="5.40979">
        <ele>241</ele>
        <time>2022-04-16T10:18:05.849Z</time>
      </trkpt>
      <trkpt lat="45.64122" lon="5.40971">
        <ele>241</ele>
        <time>2022-04-16T10:18:06.849Z</time>
      </trkpt>
      <trkpt lat="45.64124" lon="5.40964">
        <ele>241</ele>
        <time>2022-04-16T10:18:07.849Z</time>
      </trkpt>
      <trkpt lat="45.64125" lon="5.40956">
        <ele>242</ele>
        <time>2022-04-16T10:18:08.848Z</time>
      </trkpt>
      <trkpt lat="45.64127" lon="5.40948">
        <ele>242</ele>
        <time>2022-04-16T10:18:09.848Z</time>
      </trkpt>
      <trkpt lat="45.64128" lon="5.4094">
        <ele>242</ele>
        <time>2022-04-16T10:18:10.848Z</time>
      </trkpt>
      <trkpt lat="45.6413" lon="5.40933">
        <ele>242</ele>
        <time>2022-04-16T10:18:11.849Z</time>
      </trkpt>
      <trkpt lat="45.64131" lon="5.40925">
        <ele>242</ele>
        <time>2022-04-16T10:18:12.849Z</time>
      </trkpt>
      <trkpt lat="45.64133" lon="5.40917">
        <ele>242</ele>
        <time>2022-04-16T10:18:13.849Z</time>
      </trkpt>
      <trkpt lat="45.64134" lon="5.40909">
        <ele>242</ele>
        <time>2022-04-16T10:18:14.849Z</time>
      </trkpt>
      <trkpt lat="45.64135" lon="5.40902">
        <ele>243</ele>
        <time>2022-04-16T10:18:15.848Z</time>
      </trkpt>
      <trkpt lat="45.64137" lon="5.40894">
        <ele>243</ele>
        <time>2022-04-16T10:18:16.849Z</time>
      </trkpt>
      <trkpt lat="45.64138" lon="5.40887">
        <ele>242</ele>
        <time>2022-04-16T10:18:17.849Z</time>
      </trkpt>
      <trkpt lat="45.6414" lon="5.40879">
        <ele>242</ele>
        <time>2022-04-16T10:18:18.849Z</time>
      </trkpt>
      <trkpt lat="45.64141" lon="5.40872">
        <ele>242</ele>
        <time>2022-04-16T10:18:19.849Z</time>
      </trkpt>
      <trkpt lat="45.64143" lon="5.40864">
        <ele>242</ele>
        <time>2022-04-16T10:18:20.849Z</time>
      </trkpt>
      <trkpt lat="45.64144" lon="5.40857">
        <ele>243</ele>
        <time>2022-04-16T10:18:21.849Z</time>
      </trkpt>
      <trkpt lat="45.64146" lon="5.40849">
        <ele>243</ele>
        <time>2022-04-16T10:18:22.849Z</time>
      </trkpt>
      <trkpt lat="45.64147" lon="5.40842">
        <ele>243</ele>
        <time>2022-04-16T10:18:23.849Z</time>
      </trkpt>
      <trkpt lat="45.64149" lon="5.40835">
        <ele>243</ele>
        <time>2022-04-16T10:18:24.849Z</time>
      </trkpt>
      <trkpt lat="45.6415" lon="5.40827">
        <ele>243</ele>
        <time>2022-04-16T10:18:25.848Z</time>
      </trkpt>
      <trkpt lat="45.64151" lon="5.40819">
        <ele>243</ele>
        <time>2022-04-16T10:18:26.849Z</time>
      </trkpt>
      <trkpt lat="45.64153" lon="5.40812">
        <ele>243</ele>
        <time>2022-04-16T10:18:27.849Z</time>
      </trkpt>
      <trkpt lat="45.64154" lon="5.40805">
        <ele>243</ele>
        <time>2022-04-16T10:18:28.849Z</time>
      </trkpt>
      <trkpt lat="45.64155" lon="5.40797">
        <ele>242</ele>
        <time>2022-04-16T10:18:29.848Z</time>
      </trkpt>
      <trkpt lat="45.64157" lon="5.4079">
        <ele>242</ele>
        <time>2022-04-16T10:18:30.848Z</time>
      </trkpt>
      <trkpt lat="45.64158" lon="5.40783">
        <ele>242</ele>
        <time>2022-04-16T10:18:31.849Z</time>
      </trkpt>
      <trkpt lat="45.64159" lon="5.40775">
        <ele>242</ele>
        <time>2022-04-16T10:18:32.848Z</time>
      </trkpt>
      <trkpt lat="45.64161" lon="5.40768">
        <ele>242</ele>
        <time>2022-04-16T10:18:33.849Z</time>
      </trkpt>
      <trkpt lat="45.64162" lon="5.40761">
        <ele>243</ele>
        <time>2022-04-16T10:18:34.849Z</time>
      </trkpt>
      <trkpt lat="45.64164" lon="5.40753">
        <ele>243</ele>
        <time>2022-04-16T10:18:35.849Z</time>
      </trkpt>
      <trkpt lat="45.64166" lon="5.40746">
        <ele>244</ele>
        <time>2022-04-16T10:18:36.849Z</time>
      </trkpt>
      <trkpt lat="45.64167" lon="5.40738">
        <ele>244</ele>
        <time>2022-04-16T10:18:37.849Z</time>
      </trkpt>
      <trkpt lat="45.64169" lon="5.4073">
        <ele>245</ele>
        <time>2022-04-16T10:18:38.849Z</time>
      </trkpt>
      <trkpt lat="45.6417" lon="5.40723">
        <ele>244</ele>
        <time>2022-04-16T10:18:39.849Z</time>
      </trkpt>
      <trkpt lat="45.64172" lon="5.40716">
        <ele>244</ele>
        <time>2022-04-16T10:18:40.849Z</time>
      </trkpt>
      <trkpt lat="45.64173" lon="5.40708">
        <ele>244</ele>
        <time>2022-04-16T10:18:41.849Z</time>
      </trkpt>
      <trkpt lat="45.64174" lon="5.40701">
        <ele>244</ele>
        <time>2022-04-16T10:18:42.849Z</time>
      </trkpt>
      <trkpt lat="45.64176" lon="5.40694">
        <ele>243</ele>
        <time>2022-04-16T10:18:43.849Z</time>
      </trkpt>
      <trkpt lat="45.64177" lon="5.40687">
        <ele>243</ele>
        <time>2022-04-16T10:18:44.849Z</time>
      </trkpt>
      <trkpt lat="45.64179" lon="5.4068">
        <ele>243</ele>
        <time>2022-04-16T10:18:45.849Z</time>
      </trkpt>
      <trkpt lat="45.6418" lon="5.40673">
        <ele>243</ele>
        <time>2022-04-16T10:18:46.849Z</time>
      </trkpt>
      <trkpt lat="45.64182" lon="5.40666">
        <ele>243</ele>
        <time>2022-04-16T10:18:47.849Z</time>
      </trkpt>
      <trkpt lat="45.64183" lon="5.40659">
        <ele>243</ele>
        <time>2022-04-16T10:18:48.849Z</time>
      </trkpt>
      <trkpt lat="45.64184" lon="5.40652">
        <ele>242</ele>
        <time>2022-04-16T10:18:49.848Z</time>
      </trkpt>
      <trkpt lat="45.64186" lon="5.40645">
        <ele>242</ele>
        <time>2022-04-16T10:18:50.849Z</time>
      </trkpt>
      <trkpt lat="45.64187" lon="5.40639">
        <ele>242</ele>
        <time>2022-04-16T10:18:51.849Z</time>
      </trkpt>
      <trkpt lat="45.64188" lon="5.40632">
        <ele>241</ele>
        <time>2022-04-16T10:18:52.849Z</time>
      </trkpt>
      <trkpt lat="45.64189" lon="5.40626">
        <ele>241</ele>
        <time>2022-04-16T10:18:53.849Z</time>
      </trkpt>
      <trkpt lat="45.64191" lon="5.40619">
        <ele>241</ele>
        <time>2022-04-16T10:18:54.849Z</time>
      </trkpt>
      <trkpt lat="45.64192" lon="5.40613">
        <ele>240</ele>
        <time>2022-04-16T10:18:55.849Z</time>
      </trkpt>
      <trkpt lat="45.64193" lon="5.40606">
        <ele>240</ele>
        <time>2022-04-16T10:18:56.848Z</time>
      </trkpt>
      <trkpt lat="45.64194" lon="5.406">
        <ele>240</ele>
        <time>2022-04-16T10:18:57.848Z</time>
      </trkpt>
      <trkpt lat="45.64195" lon="5.40594">
        <ele>240</ele>
        <time>2022-04-16T10:18:58.849Z</time>
      </trkpt>
      <trkpt lat="45.64197" lon="5.40587">
        <ele>240</ele>
        <time>2022-04-16T10:18:59.848Z</time>
      </trkpt>
      <trkpt lat="45.64198" lon="5.40581">
        <ele>240</ele>
        <time>2022-04-16T10:19:00.849Z</time>
      </trkpt>
      <trkpt lat="45.64199" lon="5.40574">
        <ele>240</ele>
        <time>2022-04-16T10:19:01.848Z</time>
      </trkpt>
      <trkpt lat="45.642" lon="5.40568">
        <ele>239</ele>
        <time>2022-04-16T10:19:02.849Z</time>
      </trkpt>
      <trkpt lat="45.64202" lon="5.40561">
        <ele>239</ele>
        <time>2022-04-16T10:19:03.849Z</time>
      </trkpt>
      <trkpt lat="45.64203" lon="5.40555">
        <ele>240</ele>
        <time>2022-04-16T10:19:04.849Z</time>
      </trkpt>
      <trkpt lat="45.64205" lon="5.40548">
        <ele>240</ele>
        <time>2022-04-16T10:19:05.849Z</time>
      </trkpt>
      <trkpt lat="45.64206" lon="5.40542">
        <ele>240</ele>
        <time>2022-04-16T10:19:06.849Z</time>
      </trkpt>
      <trkpt lat="45.64207" lon="5.40535">
        <ele>241</ele>
        <time>2022-04-16T10:19:07.849Z</time>
      </trkpt>
      <trkpt lat="45.64209" lon="5.40528">
        <ele>241</ele>
        <time>2022-04-16T10:19:08.849Z</time>
      </trkpt>
      <trkpt lat="45.6421" lon="5.40522">
        <ele>241</ele>
        <time>2022-04-16T10:19:09.849Z</time>
      </trkpt>
      <trkpt lat="45.64211" lon="5.40515">
        <ele>241</ele>
        <time>2022-04-16T10:19:10.849Z</time>
      </trkpt>
      <trkpt lat="45.64212" lon="5.40508">
        <ele>241</ele>
        <time>2022-04-16T10:19:11.848Z</time>
      </trkpt>
      <trkpt lat="45.64214" lon="5.40501">
        <ele>241</ele>
        <time>2022-04-16T10:19:12.849Z</time>
      </trkpt>
      <trkpt lat="45.64215" lon="5.40494">
        <ele>241</ele>
        <time>2022-04-16T10:19:13.849Z</time>
      </trkpt>
      <trkpt lat="45.64217" lon="5.40487">
        <ele>241</ele>
        <time>2022-04-16T10:19:14.849Z</time>
      </trkpt>
      <trkpt lat="45.64218" lon="5.4048">
        <ele>241</ele>
        <time>2022-04-16T10:19:15.848Z</time>
      </trkpt>
      <trkpt lat="45.64219" lon="5.40473">
        <ele>241</ele>
        <time>2022-04-16T10:19:16.849Z</time>
      </trkpt>
      <trkpt lat="45.64221" lon="5.40466">
        <ele>240</ele>
        <time>2022-04-16T10:19:17.849Z</time>
      </trkpt>
      <trkpt lat="45.64222" lon="5.40459">
        <ele>240</ele>
        <time>2022-04-16T10:19:18.848Z</time>
      </trkpt>
      <trkpt lat="45.64224" lon="5.40452">
        <ele>240</ele>
        <time>2022-04-16T10:19:19.849Z</time>
      </trkpt>
      <trkpt lat="45.64225" lon="5.40444">
        <ele>239</ele>
        <time>2022-04-16T10:19:20.849Z</time>
      </trkpt>
      <trkpt lat="45.64226" lon="5.40437">
        <ele>239</ele>
        <time>2022-04-16T10:19:21.849Z</time>
      </trkpt>
      <trkpt lat="45.64228" lon="5.4043">
        <ele>238</ele>
        <time>2022-04-16T10:19:22.849Z</time>
      </trkpt>
      <trkpt lat="45.64229" lon="5.40423">
        <ele>238</ele>
        <time>2022-04-16T10:19:23.849Z</time>
      </trkpt>
      <trkpt lat="45.6423" lon="5.40416">
        <ele>238</ele>
        <time>2022-04-16T10:19:24.848Z</time>
      </trkpt>
      <trkpt lat="45.64232" lon="5.40409">
        <ele>238</ele>
        <time>2022-04-16T10:19:25.849Z</time>
      </trkpt>
      <trkpt lat="45.64233" lon="5.40402">
        <ele>238</ele>
        <time>2022-04-16T10:19:26.849Z</time>
      </trkpt>
      <trkpt lat="45.64234" lon="5.40394">
        <ele>239</ele>
        <time>2022-04-16T10:19:27.849Z</time>
      </trkpt>
      <trkpt lat="45.64236" lon="5.40387">
        <ele>239</ele>
        <time>2022-04-16T10:19:28.849Z</time>
      </trkpt>
      <trkpt lat="45.64237" lon="5.4038">
        <ele>239</ele>
        <time>2022-04-16T10:19:29.849Z</time>
      </trkpt>
      <trkpt lat="45.64238" lon="5.40373">
        <ele>239</ele>
        <time>2022-04-16T10:19:30.849Z</time>
      </trkpt>
      <trkpt lat="45.6424" lon="5.40366">
        <ele>239</ele>
        <time>2022-04-16T10:19:31.848Z</time>
      </trkpt>
      <trkpt lat="45.64241" lon="5.40359">
        <ele>239</ele>
        <time>2022-04-16T10:19:32.849Z</time>
      </trkpt>
      <trkpt lat="45.64243" lon="5.40352">
        <ele>239</ele>
        <time>2022-04-16T10:19:33.849Z</time>
      </trkpt>
      <trkpt lat="45.64244" lon="5.40345">
        <ele>239</ele>
        <time>2022-04-16T10:19:34.849Z</time>
      </trkpt>
      <trkpt lat="45.64246" lon="5.40338">
        <ele>238</ele>
        <time>2022-04-16T10:19:35.849Z</time>
      </trkpt>
      <trkpt lat="45.64247" lon="5.40331">
        <ele>238</ele>
        <time>2022-04-16T10:19:36.849Z</time>
      </trkpt>
      <trkpt lat="45.64248" lon="5.40325">
        <ele>237</ele>
        <time>2022-04-16T10:19:37.849Z</time>
      </trkpt>
      <trkpt lat="45.6425" lon="5.40318">
        <ele>237</ele>
        <time>2022-04-16T10:19:38.849Z</time>
      </trkpt>
      <trkpt lat="45.64251" lon="5.40311">
        <ele>237</ele>
        <time>2022-04-16T10:19:39.849Z</time>
      </trkpt>
      <trkpt lat="45.64253" lon="5.40304">
        <ele>236</ele>
        <time>2022-04-16T10:19:40.849Z</time>
      </trkpt>
      <trkpt lat="45.64254" lon="5.40298">
        <ele>236</ele>
        <time>2022-04-16T10:19:41.849Z</time>
      </trkpt>
      <trkpt lat="45.64255" lon="5.40291">
        <ele>235</ele>
        <time>2022-04-16T10:19:42.849Z</time>
      </trkpt>
      <trkpt lat="45.64257" lon="5.40284">
        <ele>235</ele>
        <time>2022-04-16T10:19:43.849Z</time>
      </trkpt>
      <trkpt lat="45.64258" lon="5.40277">
        <ele>235</ele>
        <time>2022-04-16T10:19:44.849Z</time>
      </trkpt>
      <trkpt lat="45.64259" lon="5.4027">
        <ele>235</ele>
        <time>2022-04-16T10:19:45.849Z</time>
      </trkpt>
      <trkpt lat="45.64261" lon="5.40263">
        <ele>235</ele>
        <time>2022-04-16T10:19:46.849Z</time>
      </trkpt>
      <trkpt lat="45.64262" lon="5.40256">
        <ele>235</ele>
        <time>2022-04-16T10:19:47.849Z</time>
      </trkpt>
      <trkpt lat="45.64264" lon="5.40249">
        <ele>235</ele>
        <time>2022-04-16T10:19:48.849Z</time>
      </trkpt>
      <trkpt lat="45.64265" lon="5.40243">
        <ele>235</ele>
        <time>2022-04-16T10:19:49.849Z</time>
      </trkpt>
      <trkpt lat="45.64266" lon="5.40236">
        <ele>235</ele>
        <time>2022-04-16T10:19:50.848Z</time>
      </trkpt>
      <trkpt lat="45.64268" lon="5.40229">
        <ele>234</ele>
        <time>2022-04-16T10:19:51.848Z</time>
      </trkpt>
      <trkpt lat="45.64269" lon="5.40222">
        <ele>234</ele>
        <time>2022-04-16T10:19:52.849Z</time>
      </trkpt>
      <trkpt lat="45.64271" lon="5.40215">
        <ele>234</ele>
        <time>2022-04-16T10:19:53.849Z</time>
      </trkpt>
      <trkpt lat="45.64272" lon="5.40207">
        <ele>234</ele>
        <time>2022-04-16T10:19:54.849Z</time>
      </trkpt>
      <trkpt lat="45.64274" lon="5.402">
        <ele>234</ele>
        <time>2022-04-16T10:19:55.849Z</time>
      </trkpt>
      <trkpt lat="45.64275" lon="5.40193">
        <ele>234</ele>
        <time>2022-04-16T10:19:56.849Z</time>
      </trkpt>
      <trkpt lat="45.64276" lon="5.40186">
        <ele>234</ele>
        <time>2022-04-16T10:19:57.849Z</time>
      </trkpt>
      <trkpt lat="45.64278" lon="5.40179">
        <ele>234</ele>
        <time>2022-04-16T10:19:58.849Z</time>
      </trkpt>
      <trkpt lat="45.64279" lon="5.40171">
        <ele>235</ele>
        <time>2022-04-16T10:19:59.848Z</time>
      </trkpt>
      <trkpt lat="45.64281" lon="5.40164">
        <ele>235</ele>
        <time>2022-04-16T10:20:00.849Z</time>
      </trkpt>
      <trkpt lat="45.64282" lon="5.40157">
        <ele>235</ele>
        <time>2022-04-16T10:20:01.849Z</time>
      </trkpt>
      <trkpt lat="45.64284" lon="5.40149">
        <ele>236</ele>
        <time>2022-04-16T10:20:02.849Z</time>
      </trkpt>
      <trkpt lat="45.64285" lon="5.40142">
        <ele>236</ele>
        <time>2022-04-16T10:20:03.848Z</time>
      </trkpt>
      <trkpt lat="45.64287" lon="5.40134">
        <ele>236</ele>
        <time>2022-04-16T10:20:04.849Z</time>
      </trkpt>
      <trkpt lat="45.64288" lon="5.40127">
        <ele>236</ele>
        <time>2022-04-16T10:20:05.849Z</time>
      </trkpt>
      <trkpt lat="45.6429" lon="5.40119">
        <ele>236</ele>
        <time>2022-04-16T10:20:06.849Z</time>
      </trkpt>
      <trkpt lat="45.64291" lon="5.40112">
        <ele>236</ele>
        <time>2022-04-16T10:20:07.849Z</time>
      </trkpt>
      <trkpt lat="45.64293" lon="5.40104">
        <ele>235</ele>
        <time>2022-04-16T10:20:08.849Z</time>
      </trkpt>
      <trkpt lat="45.64294" lon="5.40096">
        <ele>235</ele>
        <time>2022-04-16T10:20:09.849Z</time>
      </trkpt>
      <trkpt lat="45.64296" lon="5.40088">
        <ele>236</ele>
        <time>2022-04-16T10:20:10.849Z</time>
      </trkpt>
      <trkpt lat="45.64297" lon="5.4008">
        <ele>236</ele>
        <time>2022-04-16T10:20:11.848Z</time>
      </trkpt>
      <trkpt lat="45.64299" lon="5.40072">
        <ele>236</ele>
        <time>2022-04-16T10:20:12.848Z</time>
      </trkpt>
      <trkpt lat="45.643" lon="5.40064">
        <ele>237</ele>
        <time>2022-04-16T10:20:13.849Z</time>
      </trkpt>
      <trkpt lat="45.64302" lon="5.40056">
        <ele>237</ele>
        <time>2022-04-16T10:20:14.849Z</time>
      </trkpt>
      <trkpt lat="45.64304" lon="5.40048">
        <ele>237</ele>
        <time>2022-04-16T10:20:15.849Z</time>
      </trkpt>
      <trkpt lat="45.64305" lon="5.4004">
        <ele>237</ele>
        <time>2022-04-16T10:20:16.849Z</time>
      </trkpt>
      <trkpt lat="45.64307" lon="5.40031">
        <ele>238</ele>
        <time>2022-04-16T10:20:17.849Z</time>
      </trkpt>
      <trkpt lat="45.64308" lon="5.40023">
        <ele>238</ele>
        <time>2022-04-16T10:20:18.849Z</time>
      </trkpt>
      <trkpt lat="45.6431" lon="5.40015">
        <ele>238</ele>
        <time>2022-04-16T10:20:19.849Z</time>
      </trkpt>
      <trkpt lat="45.64311" lon="5.40006">
        <ele>238</ele>
        <time>2022-04-16T10:20:20.848Z</time>
      </trkpt>
      <trkpt lat="45.64313" lon="5.39998">
        <ele>239</ele>
        <time>2022-04-16T10:20:21.849Z</time>
      </trkpt>
      <trkpt lat="45.64315" lon="5.39989">
        <ele>239</ele>
        <time>2022-04-16T10:20:22.848Z</time>
      </trkpt>
      <trkpt lat="45.64316" lon="5.39981">
        <ele>238</ele>
        <time>2022-04-16T10:20:23.849Z</time>
      </trkpt>
      <trkpt lat="45.64318" lon="5.39972">
        <ele>239</ele>
        <time>2022-04-16T10:20:24.849Z</time>
      </trkpt>
      <trkpt lat="45.6432" lon="5.39964">
        <ele>239</ele>
        <time>2022-04-16T10:20:25.849Z</time>
      </trkpt>
      <trkpt lat="45.64321" lon="5.39955">
        <ele>239</ele>
        <time>2022-04-16T10:20:26.849Z</time>
      </trkpt>
      <trkpt lat="45.64323" lon="5.39947">
        <ele>240</ele>
        <time>2022-04-16T10:20:27.849Z</time>
      </trkpt>
      <trkpt lat="45.64324" lon="5.39938">
        <ele>240</ele>
        <time>2022-04-16T10:20:28.849Z</time>
      </trkpt>
      <trkpt lat="45.64326" lon="5.3993">
        <ele>240</ele>
        <time>2022-04-16T10:20:29.848Z</time>
      </trkpt>
      <trkpt lat="45.64327" lon="5.39921">
        <ele>240</ele>
        <time>2022-04-16T10:20:30.849Z</time>
      </trkpt>
      <trkpt lat="45.64329" lon="5.39913">
        <ele>240</ele>
        <time>2022-04-16T10:20:31.849Z</time>
      </trkpt>
      <trkpt lat="45.64331" lon="5.39904">
        <ele>239</ele>
        <time>2022-04-16T10:20:32.849Z</time>
      </trkpt>
      <trkpt lat="45.64332" lon="5.39895">
        <ele>239</ele>
        <time>2022-04-16T10:20:33.849Z</time>
      </trkpt>
      <trkpt lat="45.64334" lon="5.39887">
        <ele>238</ele>
        <time>2022-04-16T10:20:34.849Z</time>
      </trkpt>
      <trkpt lat="45.64336" lon="5.39878">
        <ele>238</ele>
        <time>2022-04-16T10:20:35.848Z</time>
      </trkpt>
      <trkpt lat="45.64338" lon="5.3987">
        <ele>238</ele>
        <time>2022-04-16T10:20:36.849Z</time>
      </trkpt>
      <trkpt lat="45.64339" lon="5.39861">
        <ele>238</ele>
        <time>2022-04-16T10:20:37.849Z</time>
      </trkpt>
      <trkpt lat="45.64341" lon="5.39853">
        <ele>238</ele>
        <time>2022-04-16T10:20:38.849Z</time>
      </trkpt>
      <trkpt lat="45.64343" lon="5.39844">
        <ele>237</ele>
        <time>2022-04-16T10:20:39.849Z</time>
      </trkpt>
      <trkpt lat="45.64345" lon="5.39835">
        <ele>238</ele>
        <time>2022-04-16T10:20:40.849Z</time>
      </trkpt>
      <trkpt lat="45.64346" lon="5.39827">
        <ele>238</ele>
        <time>2022-04-16T10:20:41.849Z</time>
      </trkpt>
      <trkpt lat="45.64348" lon="5.39818">
        <ele>238</ele>
        <time>2022-04-16T10:20:42.849Z</time>
      </trkpt>
      <trkpt lat="45.6435" lon="5.3981">
        <ele>238</ele>
        <time>2022-04-16T10:20:43.849Z</time>
      </trkpt>
      <trkpt lat="45.64351" lon="5.39801">
        <ele>237</ele>
        <time>2022-04-16T10:20:44.849Z</time>
      </trkpt>
      <trkpt lat="45.64353" lon="5.39793">
        <ele>237</ele>
        <time>2022-04-16T10:20:45.849Z</time>
      </trkpt>
      <trkpt lat="45.64355" lon="5.39784">
        <ele>237</ele>
        <time>2022-04-16T10:20:46.849Z</time>
      </trkpt>
      <trkpt lat="45.64357" lon="5.39775">
        <ele>237</ele>
        <time>2022-04-16T10:20:47.849Z</time>
      </trkpt>
      <trkpt lat="45.64359" lon="5.39767">
        <ele>237</ele>
        <time>2022-04-16T10:20:48.849Z</time>
      </trkpt>
      <trkpt lat="45.6436" lon="5.39758">
        <ele>237</ele>
        <time>2022-04-16T10:20:49.849Z</time>
      </trkpt>
      <trkpt lat="45.64362" lon="5.39749">
        <ele>237</ele>
        <time>2022-04-16T10:20:50.849Z</time>
      </trkpt>
      <trkpt lat="45.64364" lon="5.39741">
        <ele>237</ele>
        <time>2022-04-16T10:20:51.849Z</time>
      </trkpt>
      <trkpt lat="45.64365" lon="5.39733">
        <ele>237</ele>
        <time>2022-04-16T10:20:52.848Z</time>
      </trkpt>
      <trkpt lat="45.64367" lon="5.39724">
        <ele>237</ele>
        <time>2022-04-16T10:20:53.849Z</time>
      </trkpt>
      <trkpt lat="45.64369" lon="5.39716">
        <ele>237</ele>
        <time>2022-04-16T10:20:54.849Z</time>
      </trkpt>
      <trkpt lat="45.6437" lon="5.39707">
        <ele>237</ele>
        <time>2022-04-16T10:20:55.849Z</time>
      </trkpt>
      <trkpt lat="45.64372" lon="5.39698">
        <ele>237</ele>
        <time>2022-04-16T10:20:56.848Z</time>
      </trkpt>
      <trkpt lat="45.64374" lon="5.3969">
        <ele>237</ele>
        <time>2022-04-16T10:20:57.849Z</time>
      </trkpt>
      <trkpt lat="45.64375" lon="5.39681">
        <ele>237</ele>
        <time>2022-04-16T10:20:58.849Z</time>
      </trkpt>
      <trkpt lat="45.64377" lon="5.39673">
        <ele>237</ele>
        <time>2022-04-16T10:20:59.849Z</time>
      </trkpt>
      <trkpt lat="45.64378" lon="5.39664">
        <ele>237</ele>
        <time>2022-04-16T10:21:00.849Z</time>
      </trkpt>
      <trkpt lat="45.6438" lon="5.39656">
        <ele>237</ele>
        <time>2022-04-16T10:21:01.849Z</time>
      </trkpt>
      <trkpt lat="45.64382" lon="5.39647">
        <ele>237</ele>
        <time>2022-04-16T10:21:02.849Z</time>
      </trkpt>
      <trkpt lat="45.64384" lon="5.39639">
        <ele>237</ele>
        <time>2022-04-16T10:21:03.848Z</time>
      </trkpt>
      <trkpt lat="45.64385" lon="5.39631">
        <ele>237</ele>
        <time>2022-04-16T10:21:04.848Z</time>
      </trkpt>
      <trkpt lat="45.64387" lon="5.39622">
        <ele>237</ele>
        <time>2022-04-16T10:21:05.848Z</time>
      </trkpt>
      <trkpt lat="45.64389" lon="5.39614">
        <ele>237</ele>
        <time>2022-04-16T10:21:06.848Z</time>
      </trkpt>
      <trkpt lat="45.6439" lon="5.39605">
        <ele>237</ele>
        <time>2022-04-16T10:21:07.849Z</time>
      </trkpt>
      <trkpt lat="45.64392" lon="5.39597">
        <ele>237</ele>
        <time>2022-04-16T10:21:08.849Z</time>
      </trkpt>
      <trkpt lat="45.64394" lon="5.39588">
        <ele>237</ele>
        <time>2022-04-16T10:21:09.848Z</time>
      </trkpt>
      <trkpt lat="45.64396" lon="5.3958">
        <ele>236</ele>
        <time>2022-04-16T10:21:10.849Z</time>
      </trkpt>
      <trkpt lat="45.64397" lon="5.39571">
        <ele>236</ele>
        <time>2022-04-16T10:21:11.849Z</time>
      </trkpt>
      <trkpt lat="45.64399" lon="5.39562">
        <ele>236</ele>
        <time>2022-04-16T10:21:12.849Z</time>
      </trkpt>
      <trkpt lat="45.64401" lon="5.39553">
        <ele>236</ele>
        <time>2022-04-16T10:21:13.849Z</time>
      </trkpt>
      <trkpt lat="45.64402" lon="5.39544">
        <ele>236</ele>
        <time>2022-04-16T10:21:14.849Z</time>
      </trkpt>
      <trkpt lat="45.64404" lon="5.39535">
        <ele>236</ele>
        <time>2022-04-16T10:21:15.849Z</time>
      </trkpt>
      <trkpt lat="45.64406" lon="5.39527">
        <ele>235</ele>
        <time>2022-04-16T10:21:16.849Z</time>
      </trkpt>
      <trkpt lat="45.64407" lon="5.39518">
        <ele>235</ele>
        <time>2022-04-16T10:21:17.849Z</time>
      </trkpt>
      <trkpt lat="45.64409" lon="5.3951">
        <ele>235</ele>
        <time>2022-04-16T10:21:18.849Z</time>
      </trkpt>
      <trkpt lat="45.64411" lon="5.39501">
        <ele>235</ele>
        <time>2022-04-16T10:21:19.849Z</time>
      </trkpt>
      <trkpt lat="45.64412" lon="5.39493">
        <ele>235</ele>
        <time>2022-04-16T10:21:20.848Z</time>
      </trkpt>
      <trkpt lat="45.64414" lon="5.39484">
        <ele>235</ele>
        <time>2022-04-16T10:21:21.849Z</time>
      </trkpt>
      <trkpt lat="45.64416" lon="5.39476">
        <ele>235</ele>
        <time>2022-04-16T10:21:22.849Z</time>
      </trkpt>
      <trkpt lat="45.64417" lon="5.39468">
        <ele>235</ele>
        <time>2022-04-16T10:21:23.848Z</time>
      </trkpt>
      <trkpt lat="45.64419" lon="5.3946">
        <ele>235</ele>
        <time>2022-04-16T10:21:24.849Z</time>
      </trkpt>
      <trkpt lat="45.6442" lon="5.39451">
        <ele>235</ele>
        <time>2022-04-16T10:21:25.848Z</time>
      </trkpt>
      <trkpt lat="45.64421" lon="5.39444">
        <ele>235</ele>
        <time>2022-04-16T10:21:26.849Z</time>
      </trkpt>
      <trkpt lat="45.64423" lon="5.39436">
        <ele>235</ele>
        <time>2022-04-16T10:21:27.849Z</time>
      </trkpt>
      <trkpt lat="45.64424" lon="5.39427">
        <ele>236</ele>
        <time>2022-04-16T10:21:28.849Z</time>
      </trkpt>
      <trkpt lat="45.64425" lon="5.39419">
        <ele>236</ele>
        <time>2022-04-16T10:21:29.849Z</time>
      </trkpt>
      <trkpt lat="45.64427" lon="5.39411">
        <ele>236</ele>
        <time>2022-04-16T10:21:30.849Z</time>
      </trkpt>
      <trkpt lat="45.64428" lon="5.39403">
        <ele>236</ele>
        <time>2022-04-16T10:21:31.849Z</time>
      </trkpt>
      <trkpt lat="45.64429" lon="5.39396">
        <ele>236</ele>
        <time>2022-04-16T10:21:32.849Z</time>
      </trkpt>
      <trkpt lat="45.64429" lon="5.39388">
        <ele>235</ele>
        <time>2022-04-16T10:21:33.849Z</time>
      </trkpt>
      <trkpt lat="45.6443" lon="5.3938">
        <ele>235</ele>
        <time>2022-04-16T10:21:34.849Z</time>
      </trkpt>
      <trkpt lat="45.64431" lon="5.39372">
        <ele>234</ele>
        <time>2022-04-16T10:21:35.849Z</time>
      </trkpt>
      <trkpt lat="45.64432" lon="5.39363">
        <ele>234</ele>
        <time>2022-04-16T10:21:36.849Z</time>
      </trkpt>
      <trkpt lat="45.64432" lon="5.39355">
        <ele>234</ele>
        <time>2022-04-16T10:21:37.848Z</time>
      </trkpt>
      <trkpt lat="45.64433" lon="5.39347">
        <ele>233</ele>
        <time>2022-04-16T10:21:38.849Z</time>
      </trkpt>
      <trkpt lat="45.64434" lon="5.39339">
        <ele>233</ele>
        <time>2022-04-16T10:21:39.849Z</time>
      </trkpt>
      <trkpt lat="45.64435" lon="5.39331">
        <ele>233</ele>
        <time>2022-04-16T10:21:40.849Z</time>
      </trkpt>
      <trkpt lat="45.64436" lon="5.39323">
        <ele>233</ele>
        <time>2022-04-16T10:21:41.849Z</time>
      </trkpt>
      <trkpt lat="45.64437" lon="5.39315">
        <ele>233</ele>
        <time>2022-04-16T10:21:42.849Z</time>
      </trkpt>
      <trkpt lat="45.64437" lon="5.39307">
        <ele>233</ele>
        <time>2022-04-16T10:21:43.849Z</time>
      </trkpt>
      <trkpt lat="45.64438" lon="5.39299">
        <ele>233</ele>
        <time>2022-04-16T10:21:44.848Z</time>
      </trkpt>
      <trkpt lat="45.64438" lon="5.39291">
        <ele>232</ele>
        <time>2022-04-16T10:21:45.849Z</time>
      </trkpt>
      <trkpt lat="45.64439" lon="5.39283">
        <ele>232</ele>
        <time>2022-04-16T10:21:46.848Z</time>
      </trkpt>
      <trkpt lat="45.6444" lon="5.39275">
        <ele>232</ele>
        <time>2022-04-16T10:21:47.849Z</time>
      </trkpt>
      <trkpt lat="45.64442" lon="5.39268">
        <ele>232</ele>
        <time>2022-04-16T10:21:48.849Z</time>
      </trkpt>
      <trkpt lat="45.64445" lon="5.39262">
        <ele>233</ele>
        <time>2022-04-16T10:21:49.849Z</time>
      </trkpt>
      <trkpt lat="45.64449" lon="5.39256">
        <ele>233</ele>
        <time>2022-04-16T10:21:50.848Z</time>
      </trkpt>
      <trkpt lat="45.64453" lon="5.39251">
        <ele>234</ele>
        <time>2022-04-16T10:21:51.849Z</time>
      </trkpt>
      <trkpt lat="45.64456" lon="5.39245">
        <ele>234</ele>
        <time>2022-04-16T10:21:52.848Z</time>
      </trkpt>
      <trkpt lat="45.64459" lon="5.39239">
        <ele>235</ele>
        <time>2022-04-16T10:21:53.849Z</time>
      </trkpt>
      <trkpt lat="45.64462" lon="5.39232">
        <ele>236</ele>
        <time>2022-04-16T10:21:54.849Z</time>
      </trkpt>
      <trkpt lat="45.64463" lon="5.39226">
        <ele>236</ele>
        <time>2022-04-16T10:21:55.849Z</time>
      </trkpt>
      <trkpt lat="45.64465" lon="5.39219">
        <ele>236</ele>
        <time>2022-04-16T10:21:56.849Z</time>
      </trkpt>
      <trkpt lat="45.64466" lon="5.39213">
        <ele>236</ele>
        <time>2022-04-16T10:21:57.849Z</time>
      </trkpt>
      <trkpt lat="45.64467" lon="5.39208">
        <ele>236</ele>
        <time>2022-04-16T10:21:58.849Z</time>
      </trkpt>
      <trkpt lat="45.64468" lon="5.39202">
        <ele>236</ele>
        <time>2022-04-16T10:21:59.849Z</time>
      </trkpt>
      <trkpt lat="45.64469" lon="5.39196">
        <ele>236</ele>
        <time>2022-04-16T10:22:00.849Z</time>
      </trkpt>
      <trkpt lat="45.64469" lon="5.39191">
        <ele>236</ele>
        <time>2022-04-16T10:22:01.849Z</time>
      </trkpt>
      <trkpt lat="45.64471" lon="5.39185">
        <ele>236</ele>
        <time>2022-04-16T10:22:02.849Z</time>
      </trkpt>
      <trkpt lat="45.64472" lon="5.3918">
        <ele>236</ele>
        <time>2022-04-16T10:22:03.848Z</time>
      </trkpt>
      <trkpt lat="45.64473" lon="5.39175">
        <ele>235</ele>
        <time>2022-04-16T10:22:04.848Z</time>
      </trkpt>
      <trkpt lat="45.64474" lon="5.3917">
        <ele>235</ele>
        <time>2022-04-16T10:22:05.849Z</time>
      </trkpt>
      <trkpt lat="45.64475" lon="5.39164">
        <ele>234</ele>
        <time>2022-04-16T10:22:06.849Z</time>
      </trkpt>
      <trkpt lat="45.64477" lon="5.39158">
        <ele>234</ele>
        <time>2022-04-16T10:22:07.849Z</time>
      </trkpt>
      <trkpt lat="45.64478" lon="5.39152">
        <ele>235</ele>
        <time>2022-04-16T10:22:08.849Z</time>
      </trkpt>
      <trkpt lat="45.64479" lon="5.39145">
        <ele>235</ele>
        <time>2022-04-16T10:22:09.849Z</time>
      </trkpt>
      <trkpt lat="45.6448" lon="5.39138">
        <ele>236</ele>
        <time>2022-04-16T10:22:10.849Z</time>
      </trkpt>
      <trkpt lat="45.64482" lon="5.39131">
        <ele>236</ele>
        <time>2022-04-16T10:22:11.849Z</time>
      </trkpt>
      <trkpt lat="45.64483" lon="5.39124">
        <ele>236</ele>
        <time>2022-04-16T10:22:12.849Z</time>
      </trkpt>
      <trkpt lat="45.64484" lon="5.39118">
        <ele>237</ele>
        <time>2022-04-16T10:22:13.848Z</time>
      </trkpt>
      <trkpt lat="45.64485" lon="5.39111">
        <ele>237</ele>
        <time>2022-04-16T10:22:14.849Z</time>
      </trkpt>
      <trkpt lat="45.64485" lon="5.39104">
        <ele>236</ele>
        <time>2022-04-16T10:22:15.849Z</time>
      </trkpt>
      <trkpt lat="45.64485" lon="5.39097">
        <ele>236</ele>
        <time>2022-04-16T10:22:16.848Z</time>
      </trkpt>
      <trkpt lat="45.64485" lon="5.3909">
        <ele>236</ele>
        <time>2022-04-16T10:22:17.849Z</time>
      </trkpt>
      <trkpt lat="45.64485" lon="5.39083">
        <ele>235</ele>
        <time>2022-04-16T10:22:18.848Z</time>
      </trkpt>
      <trkpt lat="45.64484" lon="5.39076">
        <ele>235</ele>
        <time>2022-04-16T10:22:19.849Z</time>
      </trkpt>
      <trkpt lat="45.64483" lon="5.39069">
        <ele>235</ele>
        <time>2022-04-16T10:22:20.849Z</time>
      </trkpt>
      <trkpt lat="45.64482" lon="5.39063">
        <ele>235</ele>
        <time>2022-04-16T10:22:21.849Z</time>
      </trkpt>
      <trkpt lat="45.6448" lon="5.39056">
        <ele>235</ele>
        <time>2022-04-16T10:22:22.849Z</time>
      </trkpt>
      <trkpt lat="45.64477" lon="5.3905">
        <ele>235</ele>
        <time>2022-04-16T10:22:23.848Z</time>
      </trkpt>
      <trkpt lat="45.64475" lon="5.39044">
        <ele>235</ele>
        <time>2022-04-16T10:22:24.848Z</time>
      </trkpt>
      <trkpt lat="45.64472" lon="5.39037">
        <ele>235</ele>
        <time>2022-04-16T10:22:25.848Z</time>
      </trkpt>
      <trkpt lat="45.64469" lon="5.39031">
        <ele>235</ele>
        <time>2022-04-16T10:22:26.849Z</time>
      </trkpt>
      <trkpt lat="45.64467" lon="5.39025">
        <ele>235</ele>
        <time>2022-04-16T10:22:27.848Z</time>
      </trkpt>
      <trkpt lat="45.64464" lon="5.39019">
        <ele>235</ele>
        <time>2022-04-16T10:22:28.849Z</time>
      </trkpt>
      <trkpt lat="45.64461" lon="5.39013">
        <ele>235</ele>
        <time>2022-04-16T10:22:29.849Z</time>
      </trkpt>
      <trkpt lat="45.64458" lon="5.39007">
        <ele>235</ele>
        <time>2022-04-16T10:22:30.848Z</time>
      </trkpt>
      <trkpt lat="45.64455" lon="5.39">
        <ele>235</ele>
        <time>2022-04-16T10:22:31.849Z</time>
      </trkpt>
      <trkpt lat="45.64452" lon="5.38994">
        <ele>235</ele>
        <time>2022-04-16T10:22:32.849Z</time>
      </trkpt>
      <trkpt lat="45.64449" lon="5.38987">
        <ele>235</ele>
        <time>2022-04-16T10:22:33.849Z</time>
      </trkpt>
      <trkpt lat="45.64446" lon="5.38981">
        <ele>235</ele>
        <time>2022-04-16T10:22:34.849Z</time>
      </trkpt>
      <trkpt lat="45.64444" lon="5.38975">
        <ele>236</ele>
        <time>2022-04-16T10:22:35.848Z</time>
      </trkpt>
      <trkpt lat="45.64441" lon="5.38969">
        <ele>236</ele>
        <time>2022-04-16T10:22:36.848Z</time>
      </trkpt>
      <trkpt lat="45.64438" lon="5.38963">
        <ele>236</ele>
        <time>2022-04-16T10:22:37.849Z</time>
      </trkpt>
      <trkpt lat="45.64435" lon="5.38957">
        <ele>236</ele>
        <time>2022-04-16T10:22:38.849Z</time>
      </trkpt>
      <trkpt lat="45.64433" lon="5.38951">
        <ele>236</ele>
        <time>2022-04-16T10:22:39.849Z</time>
      </trkpt>
      <trkpt lat="45.6443" lon="5.38945">
        <ele>236</ele>
        <time>2022-04-16T10:22:40.849Z</time>
      </trkpt>
      <trkpt lat="45.64427" lon="5.38939">
        <ele>237</ele>
        <time>2022-04-16T10:22:41.848Z</time>
      </trkpt>
      <trkpt lat="45.64424" lon="5.38933">
        <ele>237</ele>
        <time>2022-04-16T10:22:42.849Z</time>
      </trkpt>
      <trkpt lat="45.64422" lon="5.38928">
        <ele>237</ele>
        <time>2022-04-16T10:22:43.849Z</time>
      </trkpt>
      <trkpt lat="45.64419" lon="5.38922">
        <ele>238</ele>
        <time>2022-04-16T10:22:44.849Z</time>
      </trkpt>
      <trkpt lat="45.64416" lon="5.38916">
        <ele>238</ele>
        <time>2022-04-16T10:22:45.849Z</time>
      </trkpt>
      <trkpt lat="45.64414" lon="5.38911">
        <ele>237</ele>
        <time>2022-04-16T10:22:46.849Z</time>
      </trkpt>
      <trkpt lat="45.64411" lon="5.38905">
        <ele>237</ele>
        <time>2022-04-16T10:22:47.849Z</time>
      </trkpt>
      <trkpt lat="45.64409" lon="5.389">
        <ele>238</ele>
        <time>2022-04-16T10:22:48.849Z</time>
      </trkpt>
      <trkpt lat="45.64406" lon="5.38895">
        <ele>238</ele>
        <time>2022-04-16T10:22:49.849Z</time>
      </trkpt>
      <trkpt lat="45.64404" lon="5.38889">
        <ele>238</ele>
        <time>2022-04-16T10:22:50.849Z</time>
      </trkpt>
      <trkpt lat="45.64401" lon="5.38884">
        <ele>238</ele>
        <time>2022-04-16T10:22:51.849Z</time>
      </trkpt>
      <trkpt lat="45.64399" lon="5.38879">
        <ele>239</ele>
        <time>2022-04-16T10:22:52.849Z</time>
      </trkpt>
      <trkpt lat="45.64397" lon="5.38873">
        <ele>240</ele>
        <time>2022-04-16T10:22:53.849Z</time>
      </trkpt>
      <trkpt lat="45.64394" lon="5.38868">
        <ele>240</ele>
        <time>2022-04-16T10:22:54.849Z</time>
      </trkpt>
      <trkpt lat="45.64392" lon="5.38863">
        <ele>240</ele>
        <time>2022-04-16T10:22:55.849Z</time>
      </trkpt>
      <trkpt lat="45.64389" lon="5.38857">
        <ele>241</ele>
        <time>2022-04-16T10:22:56.848Z</time>
      </trkpt>
      <trkpt lat="45.64387" lon="5.38852">
        <ele>241</ele>
        <time>2022-04-16T10:22:57.849Z</time>
      </trkpt>
      <trkpt lat="45.64385" lon="5.38847">
        <ele>241</ele>
        <time>2022-04-16T10:22:58.849Z</time>
      </trkpt>
      <trkpt lat="45.64383" lon="5.38843">
        <ele>241</ele>
        <time>2022-04-16T10:22:59.849Z</time>
      </trkpt>
      <trkpt lat="45.64381" lon="5.38838">
        <ele>242</ele>
        <time>2022-04-16T10:23:00.849Z</time>
      </trkpt>
      <trkpt lat="45.64379" lon="5.38834">
        <ele>242</ele>
        <time>2022-04-16T10:23:01.849Z</time>
      </trkpt>
      <trkpt lat="45.64376" lon="5.3883">
        <ele>242</ele>
        <time>2022-04-16T10:23:02.849Z</time>
      </trkpt>
      <trkpt lat="45.64374" lon="5.38825">
        <ele>242</ele>
        <time>2022-04-16T10:23:03.849Z</time>
      </trkpt>
      <trkpt lat="45.64372" lon="5.38821">
        <ele>242</ele>
        <time>2022-04-16T10:23:04.849Z</time>
      </trkpt>
      <trkpt lat="45.6437" lon="5.38816">
        <ele>242</ele>
        <time>2022-04-16T10:23:05.849Z</time>
      </trkpt>
      <trkpt lat="45.64368" lon="5.38811">
        <ele>242</ele>
        <time>2022-04-16T10:23:06.849Z</time>
      </trkpt>
      <trkpt lat="45.64366" lon="5.38806">
        <ele>241</ele>
        <time>2022-04-16T10:23:07.848Z</time>
      </trkpt>
      <trkpt lat="45.64365" lon="5.388">
        <ele>241</ele>
        <time>2022-04-16T10:23:08.848Z</time>
      </trkpt>
      <trkpt lat="45.64363" lon="5.38795">
        <ele>242</ele>
        <time>2022-04-16T10:23:09.849Z</time>
      </trkpt>
      <trkpt lat="45.64361" lon="5.38791">
        <ele>242</ele>
        <time>2022-04-16T10:23:10.849Z</time>
      </trkpt>
      <trkpt lat="45.64359" lon="5.38786">
        <ele>242</ele>
        <time>2022-04-16T10:23:11.849Z</time>
      </trkpt>
      <trkpt lat="45.64357" lon="5.38781">
        <ele>242</ele>
        <time>2022-04-16T10:23:12.848Z</time>
      </trkpt>
      <trkpt lat="45.64355" lon="5.38776">
        <ele>242</ele>
        <time>2022-04-16T10:23:13.849Z</time>
      </trkpt>
      <trkpt lat="45.64353" lon="5.38771">
        <ele>242</ele>
        <time>2022-04-16T10:23:14.849Z</time>
      </trkpt>
      <trkpt lat="45.64351" lon="5.38766">
        <ele>242</ele>
        <time>2022-04-16T10:23:15.849Z</time>
      </trkpt>
      <trkpt lat="45.64349" lon="5.38761">
        <ele>243</ele>
        <time>2022-04-16T10:23:16.849Z</time>
      </trkpt>
      <trkpt lat="45.64347" lon="5.38757">
        <ele>243</ele>
        <time>2022-04-16T10:23:17.849Z</time>
      </trkpt>
      <trkpt lat="45.64345" lon="5.38752">
        <ele>242</ele>
        <time>2022-04-16T10:23:18.849Z</time>
      </trkpt>
      <trkpt lat="45.64343" lon="5.38747">
        <ele>242</ele>
        <time>2022-04-16T10:23:19.848Z</time>
      </trkpt>
      <trkpt lat="45.64341" lon="5.38742">
        <ele>243</ele>
        <time>2022-04-16T10:23:20.849Z</time>
      </trkpt>
      <trkpt lat="45.64339" lon="5.38738">
        <ele>243</ele>
        <time>2022-04-16T10:23:21.849Z</time>
      </trkpt>
      <trkpt lat="45.64337" lon="5.38733">
        <ele>243</ele>
        <time>2022-04-16T10:23:22.849Z</time>
      </trkpt>
      <trkpt lat="45.64335" lon="5.38728">
        <ele>244</ele>
        <time>2022-04-16T10:23:23.849Z</time>
      </trkpt>
      <trkpt lat="45.64333" lon="5.38723">
        <ele>244</ele>
        <time>2022-04-16T10:23:24.848Z</time>
      </trkpt>
      <trkpt lat="45.64331" lon="5.38718">
        <ele>244</ele>
        <time>2022-04-16T10:23:25.849Z</time>
      </trkpt>
      <trkpt lat="45.64329" lon="5.38714">
        <ele>244</ele>
        <time>2022-04-16T10:23:26.849Z</time>
      </trkpt>
      <trkpt lat="45.64327" lon="5.38709">
        <ele>245</ele>
        <time>2022-04-16T10:23:27.849Z</time>
      </trkpt>
      <trkpt lat="45.64325" lon="5.38704">
        <ele>245</ele>
        <time>2022-04-16T10:23:28.849Z</time>
      </trkpt>
      <trkpt lat="45.64323" lon="5.38699">
        <ele>245</ele>
        <time>2022-04-16T10:23:29.849Z</time>
      </trkpt>
      <trkpt lat="45.64321" lon="5.38695">
        <ele>244</ele>
        <time>2022-04-16T10:23:30.848Z</time>
      </trkpt>
      <trkpt lat="45.64319" lon="5.3869">
        <ele>244</ele>
        <time>2022-04-16T10:23:31.848Z</time>
      </trkpt>
      <trkpt lat="45.64317" lon="5.38685">
        <ele>245</ele>
        <time>2022-04-16T10:23:32.849Z</time>
      </trkpt>
      <trkpt lat="45.64315" lon="5.3868">
        <ele>245</ele>
        <time>2022-04-16T10:23:33.849Z</time>
      </trkpt>
      <trkpt lat="45.64313" lon="5.38675">
        <ele>245</ele>
        <time>2022-04-16T10:23:34.849Z</time>
      </trkpt>
      <trkpt lat="45.64311" lon="5.3867">
        <ele>246</ele>
        <time>2022-04-16T10:23:35.848Z</time>
      </trkpt>
      <trkpt lat="45.64309" lon="5.38665">
        <ele>246</ele>
        <time>2022-04-16T10:23:36.849Z</time>
      </trkpt>
      <trkpt lat="45.64307" lon="5.3866">
        <ele>245</ele>
        <time>2022-04-16T10:23:37.849Z</time>
      </trkpt>
      <trkpt lat="45.64305" lon="5.38655">
        <ele>246</ele>
        <time>2022-04-16T10:23:38.849Z</time>
      </trkpt>
      <trkpt lat="45.64302" lon="5.38651">
        <ele>246</ele>
        <time>2022-04-16T10:23:39.849Z</time>
      </trkpt>
      <trkpt lat="45.643" lon="5.38646">
        <ele>245</ele>
        <time>2022-04-16T10:23:40.849Z</time>
      </trkpt>
      <trkpt lat="45.64298" lon="5.38641">
        <ele>245</ele>
        <time>2022-04-16T10:23:41.849Z</time>
      </trkpt>
      <trkpt lat="45.64296" lon="5.38636">
        <ele>245</ele>
        <time>2022-04-16T10:23:42.849Z</time>
      </trkpt>
      <trkpt lat="45.64294" lon="5.38631">
        <ele>245</ele>
        <time>2022-04-16T10:23:43.849Z</time>
      </trkpt>
      <trkpt lat="45.64292" lon="5.38627">
        <ele>245</ele>
        <time>2022-04-16T10:23:44.849Z</time>
      </trkpt>
      <trkpt lat="45.6429" lon="5.38622">
        <ele>245</ele>
        <time>2022-04-16T10:23:45.849Z</time>
      </trkpt>
      <trkpt lat="45.64288" lon="5.38617">
        <ele>245</ele>
        <time>2022-04-16T10:23:46.848Z</time>
      </trkpt>
      <trkpt lat="45.64286" lon="5.38612">
        <ele>245</ele>
        <time>2022-04-16T10:23:47.849Z</time>
      </trkpt>
      <trkpt lat="45.64284" lon="5.38608">
        <ele>245</ele>
        <time>2022-04-16T10:23:48.849Z</time>
      </trkpt>
      <trkpt lat="45.64282" lon="5.38603">
        <ele>245</ele>
        <time>2022-04-16T10:23:49.849Z</time>
      </trkpt>
      <trkpt lat="45.6428" lon="5.38598">
        <ele>245</ele>
        <time>2022-04-16T10:23:50.849Z</time>
      </trkpt>
      <trkpt lat="45.64278" lon="5.38593">
        <ele>245</ele>
        <time>2022-04-16T10:23:51.849Z</time>
      </trkpt>
      <trkpt lat="45.64276" lon="5.38588">
        <ele>245</ele>
        <time>2022-04-16T10:23:52.848Z</time>
      </trkpt>
      <trkpt lat="45.64274" lon="5.38584">
        <ele>245</ele>
        <time>2022-04-16T10:23:53.849Z</time>
      </trkpt>
      <trkpt lat="45.64272" lon="5.38579">
        <ele>245</ele>
        <time>2022-04-16T10:23:54.849Z</time>
      </trkpt>
      <trkpt lat="45.6427" lon="5.38574">
        <ele>245</ele>
        <time>2022-04-16T10:23:55.849Z</time>
      </trkpt>
      <trkpt lat="45.64269" lon="5.38569">
        <ele>246</ele>
        <time>2022-04-16T10:23:56.848Z</time>
      </trkpt>
      <trkpt lat="45.64267" lon="5.38564">
        <ele>246</ele>
        <time>2022-04-16T10:23:57.849Z</time>
      </trkpt>
      <trkpt lat="45.64265" lon="5.38559">
        <ele>246</ele>
        <time>2022-04-16T10:23:58.849Z</time>
      </trkpt>
      <trkpt lat="45.64263" lon="5.38554">
        <ele>247</ele>
        <time>2022-04-16T10:23:59.848Z</time>
      </trkpt>
      <trkpt lat="45.64261" lon="5.38549">
        <ele>247</ele>
        <time>2022-04-16T10:24:00.849Z</time>
      </trkpt>
      <trkpt lat="45.64259" lon="5.38544">
        <ele>247</ele>
        <time>2022-04-16T10:24:01.849Z</time>
      </trkpt>
      <trkpt lat="45.64257" lon="5.38539">
        <ele>246</ele>
        <time>2022-04-16T10:24:02.849Z</time>
      </trkpt>
      <trkpt lat="45.64256" lon="5.38534">
        <ele>246</ele>
        <time>2022-04-16T10:24:03.849Z</time>
      </trkpt>
      <trkpt lat="45.64254" lon="5.38529">
        <ele>246</ele>
        <time>2022-04-16T10:24:04.849Z</time>
      </trkpt>
      <trkpt lat="45.64252" lon="5.38524">
        <ele>246</ele>
        <time>2022-04-16T10:24:05.848Z</time>
      </trkpt>
      <trkpt lat="45.64251" lon="5.38518">
        <ele>246</ele>
        <time>2022-04-16T10:24:06.849Z</time>
      </trkpt>
      <trkpt lat="45.64249" lon="5.38513">
        <ele>247</ele>
        <time>2022-04-16T10:24:07.849Z</time>
      </trkpt>
      <trkpt lat="45.64247" lon="5.38508">
        <ele>247</ele>
        <time>2022-04-16T10:24:08.849Z</time>
      </trkpt>
      <trkpt lat="45.64246" lon="5.38503">
        <ele>247</ele>
        <time>2022-04-16T10:24:09.849Z</time>
      </trkpt>
      <trkpt lat="45.64244" lon="5.38498">
        <ele>247</ele>
        <time>2022-04-16T10:24:10.849Z</time>
      </trkpt>
      <trkpt lat="45.64243" lon="5.38493">
        <ele>248</ele>
        <time>2022-04-16T10:24:11.849Z</time>
      </trkpt>
      <trkpt lat="45.64241" lon="5.38487">
        <ele>248</ele>
        <time>2022-04-16T10:24:12.849Z</time>
      </trkpt>
      <trkpt lat="45.6424" lon="5.38482">
        <ele>247</ele>
        <time>2022-04-16T10:24:13.849Z</time>
      </trkpt>
      <trkpt lat="45.64238" lon="5.38477">
        <ele>247</ele>
        <time>2022-04-16T10:24:14.849Z</time>
      </trkpt>
      <trkpt lat="45.64237" lon="5.38472">
        <ele>247</ele>
        <time>2022-04-16T10:24:15.849Z</time>
      </trkpt>
      <trkpt lat="45.64235" lon="5.38467">
        <ele>246</ele>
        <time>2022-04-16T10:24:16.848Z</time>
      </trkpt>
      <trkpt lat="45.64234" lon="5.38462">
        <ele>246</ele>
        <time>2022-04-16T10:24:17.848Z</time>
      </trkpt>
      <trkpt lat="45.64232" lon="5.38457">
        <ele>246</ele>
        <time>2022-04-16T10:24:18.849Z</time>
      </trkpt>
      <trkpt lat="45.64231" lon="5.38451">
        <ele>246</ele>
        <time>2022-04-16T10:24:19.848Z</time>
      </trkpt>
      <trkpt lat="45.6423" lon="5.38446">
        <ele>246</ele>
        <time>2022-04-16T10:24:20.849Z</time>
      </trkpt>
      <trkpt lat="45.64228" lon="5.3844">
        <ele>246</ele>
        <time>2022-04-16T10:24:21.849Z</time>
      </trkpt>
      <trkpt lat="45.64227" lon="5.38435">
        <ele>247</ele>
        <time>2022-04-16T10:24:22.848Z</time>
      </trkpt>
      <trkpt lat="45.64226" lon="5.38429">
        <ele>247</ele>
        <time>2022-04-16T10:24:23.849Z</time>
      </trkpt>
      <trkpt lat="45.64224" lon="5.38423">
        <ele>247</ele>
        <time>2022-04-16T10:24:24.849Z</time>
      </trkpt>
      <trkpt lat="45.64223" lon="5.38418">
        <ele>247</ele>
        <time>2022-04-16T10:24:25.849Z</time>
      </trkpt>
      <trkpt lat="45.64222" lon="5.38412">
        <ele>248</ele>
        <time>2022-04-16T10:24:26.849Z</time>
      </trkpt>
      <trkpt lat="45.64221" lon="5.38407">
        <ele>247</ele>
        <time>2022-04-16T10:24:27.849Z</time>
      </trkpt>
      <trkpt lat="45.64219" lon="5.38401">
        <ele>247</ele>
        <time>2022-04-16T10:24:28.849Z</time>
      </trkpt>
      <trkpt lat="45.64218" lon="5.38395">
        <ele>247</ele>
        <time>2022-04-16T10:24:29.849Z</time>
      </trkpt>
      <trkpt lat="45.64217" lon="5.3839">
        <ele>247</ele>
        <time>2022-04-16T10:24:30.848Z</time>
      </trkpt>
      <trkpt lat="45.64216" lon="5.38384">
        <ele>247</ele>
        <time>2022-04-16T10:24:31.848Z</time>
      </trkpt>
      <trkpt lat="45.64215" lon="5.38378">
        <ele>247</ele>
        <time>2022-04-16T10:24:32.848Z</time>
      </trkpt>
      <trkpt lat="45.64214" lon="5.38373">
        <ele>247</ele>
        <time>2022-04-16T10:24:33.849Z</time>
      </trkpt>
      <trkpt lat="45.64213" lon="5.38367">
        <ele>247</ele>
        <time>2022-04-16T10:24:34.849Z</time>
      </trkpt>
      <trkpt lat="45.64212" lon="5.38361">
        <ele>247</ele>
        <time>2022-04-16T10:24:35.849Z</time>
      </trkpt>
      <trkpt lat="45.64211" lon="5.38355">
        <ele>248</ele>
        <time>2022-04-16T10:24:36.848Z</time>
      </trkpt>
      <trkpt lat="45.64209" lon="5.38349">
        <ele>248</ele>
        <time>2022-04-16T10:24:37.849Z</time>
      </trkpt>
      <trkpt lat="45.64208" lon="5.38343">
        <ele>248</ele>
        <time>2022-04-16T10:24:38.848Z</time>
      </trkpt>
      <trkpt lat="45.64207" lon="5.38337">
        <ele>248</ele>
        <time>2022-04-16T10:24:39.848Z</time>
      </trkpt>
      <trkpt lat="45.64206" lon="5.3833">
        <ele>249</ele>
        <time>2022-04-16T10:24:40.849Z</time>
      </trkpt>
      <trkpt lat="45.64205" lon="5.38324">
        <ele>248</ele>
        <time>2022-04-16T10:24:41.849Z</time>
      </trkpt>
      <trkpt lat="45.64204" lon="5.38317">
        <ele>248</ele>
        <time>2022-04-16T10:24:42.849Z</time>
      </trkpt>
      <trkpt lat="45.64204" lon="5.38311">
        <ele>248</ele>
        <time>2022-04-16T10:24:43.849Z</time>
      </trkpt>
      <trkpt lat="45.64203" lon="5.38304">
        <ele>248</ele>
        <time>2022-04-16T10:24:44.848Z</time>
      </trkpt>
      <trkpt lat="45.64202" lon="5.38297">
        <ele>248</ele>
        <time>2022-04-16T10:24:45.849Z</time>
      </trkpt>
      <trkpt lat="45.64201" lon="5.3829">
        <ele>248</ele>
        <time>2022-04-16T10:24:46.849Z</time>
      </trkpt>
      <trkpt lat="45.642" lon="5.38283">
        <ele>248</ele>
        <time>2022-04-16T10:24:47.849Z</time>
      </trkpt>
      <trkpt lat="45.64199" lon="5.38276">
        <ele>249</ele>
        <time>2022-04-16T10:24:48.849Z</time>
      </trkpt>
      <trkpt lat="45.64198" lon="5.38269">
        <ele>249</ele>
        <time>2022-04-16T10:24:49.848Z</time>
      </trkpt>
      <trkpt lat="45.64197" lon="5.38261">
        <ele>248</ele>
        <time>2022-04-16T10:24:50.849Z</time>
      </trkpt>
      <trkpt lat="45.64197" lon="5.38254">
        <ele>248</ele>
        <time>2022-04-16T10:24:51.849Z</time>
      </trkpt>
      <trkpt lat="45.64196" lon="5.38246">
        <ele>248</ele>
        <time>2022-04-16T10:24:52.849Z</time>
      </trkpt>
      <trkpt lat="45.64195" lon="5.38239">
        <ele>248</ele>
        <time>2022-04-16T10:24:53.849Z</time>
      </trkpt>
      <trkpt lat="45.64194" lon="5.38231">
        <ele>248</ele>
        <time>2022-04-16T10:24:54.849Z</time>
      </trkpt>
      <trkpt lat="45.64193" lon="5.38223">
        <ele>248</ele>
        <time>2022-04-16T10:24:55.849Z</time>
      </trkpt>
      <trkpt lat="45.64192" lon="5.38215">
        <ele>248</ele>
        <time>2022-04-16T10:24:56.848Z</time>
      </trkpt>
      <trkpt lat="45.64191" lon="5.38206">
        <ele>248</ele>
        <time>2022-04-16T10:24:57.849Z</time>
      </trkpt>
      <trkpt lat="45.6419" lon="5.38198">
        <ele>249</ele>
        <time>2022-04-16T10:24:58.849Z</time>
      </trkpt>
      <trkpt lat="45.64189" lon="5.3819">
        <ele>249</ele>
        <time>2022-04-16T10:24:59.849Z</time>
      </trkpt>
      <trkpt lat="45.64188" lon="5.38181">
        <ele>249</ele>
        <time>2022-04-16T10:25:00.849Z</time>
      </trkpt>
      <trkpt lat="45.64187" lon="5.38173">
        <ele>249</ele>
        <time>2022-04-16T10:25:01.848Z</time>
      </trkpt>
      <trkpt lat="45.64186" lon="5.38164">
        <ele>249</ele>
        <time>2022-04-16T10:25:02.848Z</time>
      </trkpt>
      <trkpt lat="45.64185" lon="5.38155">
        <ele>249</ele>
        <time>2022-04-16T10:25:03.849Z</time>
      </trkpt>
      <trkpt lat="45.64184" lon="5.38146">
        <ele>249</ele>
        <time>2022-04-16T10:25:04.848Z</time>
      </trkpt>
      <trkpt lat="45.64183" lon="5.38137">
        <ele>249</ele>
        <time>2022-04-16T10:25:05.849Z</time>
      </trkpt>
      <trkpt lat="45.64181" lon="5.38128">
        <ele>250</ele>
        <time>2022-04-16T10:25:06.849Z</time>
      </trkpt>
      <trkpt lat="45.6418" lon="5.38119">
        <ele>250</ele>
        <time>2022-04-16T10:25:07.849Z</time>
      </trkpt>
      <trkpt lat="45.64179" lon="5.38109">
        <ele>249</ele>
        <time>2022-04-16T10:25:08.849Z</time>
      </trkpt>
      <trkpt lat="45.64178" lon="5.381">
        <ele>249</ele>
        <time>2022-04-16T10:25:09.849Z</time>
      </trkpt>
      <trkpt lat="45.64177" lon="5.38091">
        <ele>249</ele>
        <time>2022-04-16T10:25:10.849Z</time>
      </trkpt>
      <trkpt lat="45.64176" lon="5.38082">
        <ele>249</ele>
        <time>2022-04-16T10:25:11.849Z</time>
      </trkpt>
      <trkpt lat="45.64175" lon="5.38072">
        <ele>249</ele>
        <time>2022-04-16T10:25:12.848Z</time>
      </trkpt>
      <trkpt lat="45.64174" lon="5.38063">
        <ele>249</ele>
        <time>2022-04-16T10:25:13.849Z</time>
      </trkpt>
      <trkpt lat="45.64173" lon="5.38054">
        <ele>248</ele>
        <time>2022-04-16T10:25:14.848Z</time>
      </trkpt>
      <trkpt lat="45.64172" lon="5.38044">
        <ele>248</ele>
        <time>2022-04-16T10:25:15.848Z</time>
      </trkpt>
      <trkpt lat="45.6417" lon="5.38035">
        <ele>248</ele>
        <time>2022-04-16T10:25:16.849Z</time>
      </trkpt>
      <trkpt lat="45.64169" lon="5.38026">
        <ele>248</ele>
        <time>2022-04-16T10:25:17.849Z</time>
      </trkpt>
      <trkpt lat="45.64168" lon="5.38016">
        <ele>248</ele>
        <time>2022-04-16T10:25:18.849Z</time>
      </trkpt>
      <trkpt lat="45.64167" lon="5.38007">
        <ele>248</ele>
        <time>2022-04-16T10:25:19.849Z</time>
      </trkpt>
      <trkpt lat="45.64165" lon="5.37997">
        <ele>249</ele>
        <time>2022-04-16T10:25:20.849Z</time>
      </trkpt>
      <trkpt lat="45.64164" lon="5.37987">
        <ele>249</ele>
        <time>2022-04-16T10:25:21.849Z</time>
      </trkpt>
      <trkpt lat="45.64163" lon="5.37978">
        <ele>249</ele>
        <time>2022-04-16T10:25:22.849Z</time>
      </trkpt>
      <trkpt lat="45.64162" lon="5.37968">
        <ele>249</ele>
        <time>2022-04-16T10:25:23.849Z</time>
      </trkpt>
      <trkpt lat="45.6416" lon="5.37958">
        <ele>249</ele>
        <time>2022-04-16T10:25:24.848Z</time>
      </trkpt>
      <trkpt lat="45.64159" lon="5.37949">
        <ele>249</ele>
        <time>2022-04-16T10:25:25.848Z</time>
      </trkpt>
      <trkpt lat="45.64158" lon="5.37939">
        <ele>249</ele>
        <time>2022-04-16T10:25:26.849Z</time>
      </trkpt>
      <trkpt lat="45.64157" lon="5.3793">
        <ele>249</ele>
        <time>2022-04-16T10:25:27.849Z</time>
      </trkpt>
      <trkpt lat="45.64155" lon="5.3792">
        <ele>249</ele>
        <time>2022-04-16T10:25:28.849Z</time>
      </trkpt>
      <trkpt lat="45.64154" lon="5.3791">
        <ele>249</ele>
        <time>2022-04-16T10:25:29.849Z</time>
      </trkpt>
      <trkpt lat="45.64153" lon="5.379">
        <ele>249</ele>
        <time>2022-04-16T10:25:30.848Z</time>
      </trkpt>
      <trkpt lat="45.64152" lon="5.37891">
        <ele>249</ele>
        <time>2022-04-16T10:25:31.848Z</time>
      </trkpt>
      <trkpt lat="45.6415" lon="5.3788">
        <ele>249</ele>
        <time>2022-04-16T10:25:32.849Z</time>
      </trkpt>
      <trkpt lat="45.64149" lon="5.3787">
        <ele>249</ele>
        <time>2022-04-16T10:25:33.848Z</time>
      </trkpt>
      <trkpt lat="45.64148" lon="5.3786">
        <ele>248</ele>
        <time>2022-04-16T10:25:34.848Z</time>
      </trkpt>
      <trkpt lat="45.64147" lon="5.3785">
        <ele>249</ele>
        <time>2022-04-16T10:25:35.849Z</time>
      </trkpt>
      <trkpt lat="45.64146" lon="5.37841">
        <ele>249</ele>
        <time>2022-04-16T10:25:36.849Z</time>
      </trkpt>
      <trkpt lat="45.64144" lon="5.37829">
        <ele>249</ele>
        <time>2022-04-16T10:25:37.849Z</time>
      </trkpt>
      <trkpt lat="45.64143" lon="5.37818">
        <ele>248</ele>
        <time>2022-04-16T10:25:38.849Z</time>
      </trkpt>
      <trkpt lat="45.64142" lon="5.37808">
        <ele>248</ele>
        <time>2022-04-16T10:25:39.848Z</time>
      </trkpt>
      <trkpt lat="45.6414" lon="5.37797">
        <ele>248</ele>
        <time>2022-04-16T10:25:40.848Z</time>
      </trkpt>
      <trkpt lat="45.64139" lon="5.37787">
        <ele>248</ele>
        <time>2022-04-16T10:25:41.848Z</time>
      </trkpt>
      <trkpt lat="45.64138" lon="5.37776">
        <ele>248</ele>
        <time>2022-04-16T10:25:42.849Z</time>
      </trkpt>
      <trkpt lat="45.64136" lon="5.37765">
        <ele>248</ele>
        <time>2022-04-16T10:25:43.848Z</time>
      </trkpt>
      <trkpt lat="45.64135" lon="5.37754">
        <ele>247</ele>
        <time>2022-04-16T10:25:44.849Z</time>
      </trkpt>
      <trkpt lat="45.64134" lon="5.37744">
        <ele>247</ele>
        <time>2022-04-16T10:25:45.848Z</time>
      </trkpt>
      <trkpt lat="45.64132" lon="5.37733">
        <ele>247</ele>
        <time>2022-04-16T10:25:46.849Z</time>
      </trkpt>
      <trkpt lat="45.64131" lon="5.37722">
        <ele>247</ele>
        <time>2022-04-16T10:25:47.849Z</time>
      </trkpt>
      <trkpt lat="45.6413" lon="5.37712">
        <ele>246</ele>
        <time>2022-04-16T10:25:48.849Z</time>
      </trkpt>
      <trkpt lat="45.64129" lon="5.37702">
        <ele>245</ele>
        <time>2022-04-16T10:25:49.849Z</time>
      </trkpt>
      <trkpt lat="45.64128" lon="5.37691">
        <ele>245</ele>
        <time>2022-04-16T10:25:50.848Z</time>
      </trkpt>
      <trkpt lat="45.64126" lon="5.37681">
        <ele>245</ele>
        <time>2022-04-16T10:25:51.849Z</time>
      </trkpt>
      <trkpt lat="45.64125" lon="5.37671">
        <ele>245</ele>
        <time>2022-04-16T10:25:52.848Z</time>
      </trkpt>
      <trkpt lat="45.64124" lon="5.37662">
        <ele>244</ele>
        <time>2022-04-16T10:25:53.848Z</time>
      </trkpt>
      <trkpt lat="45.64123" lon="5.37652">
        <ele>244</ele>
        <time>2022-04-16T10:25:54.849Z</time>
      </trkpt>
      <trkpt lat="45.64122" lon="5.37643">
        <ele>244</ele>
        <time>2022-04-16T10:25:55.849Z</time>
      </trkpt>
      <trkpt lat="45.6412" lon="5.37633">
        <ele>244</ele>
        <time>2022-04-16T10:25:56.849Z</time>
      </trkpt>
      <trkpt lat="45.64119" lon="5.37624">
        <ele>244</ele>
        <time>2022-04-16T10:25:57.849Z</time>
      </trkpt>
      <trkpt lat="45.64118" lon="5.37615">
        <ele>244</ele>
        <time>2022-04-16T10:25:58.849Z</time>
      </trkpt>
      <trkpt lat="45.64117" lon="5.37606">
        <ele>244</ele>
        <time>2022-04-16T10:25:59.849Z</time>
      </trkpt>
      <trkpt lat="45.64116" lon="5.37597">
        <ele>244</ele>
        <time>2022-04-16T10:26:00.849Z</time>
      </trkpt>
      <trkpt lat="45.64115" lon="5.37588">
        <ele>244</ele>
        <time>2022-04-16T10:26:01.849Z</time>
      </trkpt>
      <trkpt lat="45.64114" lon="5.37579">
        <ele>244</ele>
        <time>2022-04-16T10:26:02.849Z</time>
      </trkpt>
      <trkpt lat="45.64113" lon="5.3757">
        <ele>244</ele>
        <time>2022-04-16T10:26:03.849Z</time>
      </trkpt>
      <trkpt lat="45.64111" lon="5.37561">
        <ele>243</ele>
        <time>2022-04-16T10:26:04.849Z</time>
      </trkpt>
      <trkpt lat="45.64111" lon="5.37553">
        <ele>243</ele>
        <time>2022-04-16T10:26:05.849Z</time>
      </trkpt>
      <trkpt lat="45.64109" lon="5.37544">
        <ele>242</ele>
        <time>2022-04-16T10:26:06.849Z</time>
      </trkpt>
      <trkpt lat="45.64108" lon="5.37535">
        <ele>241</ele>
        <time>2022-04-16T10:26:07.849Z</time>
      </trkpt>
      <trkpt lat="45.64107" lon="5.37527">
        <ele>241</ele>
        <time>2022-04-16T10:26:08.849Z</time>
      </trkpt>
      <trkpt lat="45.64106" lon="5.37519">
        <ele>241</ele>
        <time>2022-04-16T10:26:09.849Z</time>
      </trkpt>
      <trkpt lat="45.64106" lon="5.3751">
        <ele>241</ele>
        <time>2022-04-16T10:26:10.849Z</time>
      </trkpt>
      <trkpt lat="45.64104" lon="5.37502">
        <ele>240</ele>
        <time>2022-04-16T10:26:11.849Z</time>
      </trkpt>
      <trkpt lat="45.64103" lon="5.37494">
        <ele>240</ele>
        <time>2022-04-16T10:26:12.849Z</time>
      </trkpt>
      <trkpt lat="45.64102" lon="5.37486">
        <ele>240</ele>
        <time>2022-04-16T10:26:13.848Z</time>
      </trkpt>
      <trkpt lat="45.64101" lon="5.37478">
        <ele>240</ele>
        <time>2022-04-16T10:26:14.849Z</time>
      </trkpt>
      <trkpt lat="45.641" lon="5.3747">
        <ele>239</ele>
        <time>2022-04-16T10:26:15.849Z</time>
      </trkpt>
      <trkpt lat="45.64099" lon="5.37462">
        <ele>239</ele>
        <time>2022-04-16T10:26:16.849Z</time>
      </trkpt>
      <trkpt lat="45.64098" lon="5.37454">
        <ele>239</ele>
        <time>2022-04-16T10:26:17.849Z</time>
      </trkpt>
      <trkpt lat="45.64097" lon="5.37446">
        <ele>239</ele>
        <time>2022-04-16T10:26:18.849Z</time>
      </trkpt>
      <trkpt lat="45.64096" lon="5.37438">
        <ele>239</ele>
        <time>2022-04-16T10:26:19.849Z</time>
      </trkpt>
      <trkpt lat="45.64095" lon="5.3743">
        <ele>239</ele>
        <time>2022-04-16T10:26:20.849Z</time>
      </trkpt>
      <trkpt lat="45.64094" lon="5.37422">
        <ele>239</ele>
        <time>2022-04-16T10:26:21.849Z</time>
      </trkpt>
      <trkpt lat="45.64093" lon="5.37414">
        <ele>239</ele>
        <time>2022-04-16T10:26:22.848Z</time>
      </trkpt>
      <trkpt lat="45.64092" lon="5.37406">
        <ele>238</ele>
        <time>2022-04-16T10:26:23.848Z</time>
      </trkpt>
      <trkpt lat="45.64091" lon="5.37398">
        <ele>238</ele>
        <time>2022-04-16T10:26:24.849Z</time>
      </trkpt>
      <trkpt lat="45.6409" lon="5.37391">
        <ele>238</ele>
        <time>2022-04-16T10:26:25.849Z</time>
      </trkpt>
      <trkpt lat="45.64089" lon="5.37383">
        <ele>238</ele>
        <time>2022-04-16T10:26:26.849Z</time>
      </trkpt>
      <trkpt lat="45.64088" lon="5.37376">
        <ele>238</ele>
        <time>2022-04-16T10:26:27.848Z</time>
      </trkpt>
      <trkpt lat="45.64087" lon="5.37368">
        <ele>238</ele>
        <time>2022-04-16T10:26:28.849Z</time>
      </trkpt>
      <trkpt lat="45.64086" lon="5.37361">
        <ele>237</ele>
        <time>2022-04-16T10:26:29.849Z</time>
      </trkpt>
      <trkpt lat="45.64085" lon="5.37353">
        <ele>237</ele>
        <time>2022-04-16T10:26:30.849Z</time>
      </trkpt>
      <trkpt lat="45.64084" lon="5.37345">
        <ele>237</ele>
        <time>2022-04-16T10:26:31.849Z</time>
      </trkpt>
      <trkpt lat="45.64083" lon="5.37338">
        <ele>237</ele>
        <time>2022-04-16T10:26:32.848Z</time>
      </trkpt>
      <trkpt lat="45.64082" lon="5.3733">
        <ele>237</ele>
        <time>2022-04-16T10:26:33.849Z</time>
      </trkpt>
      <trkpt lat="45.64082" lon="5.37323">
        <ele>237</ele>
        <time>2022-04-16T10:26:34.848Z</time>
      </trkpt>
      <trkpt lat="45.64081" lon="5.37315">
        <ele>238</ele>
        <time>2022-04-16T10:26:35.849Z</time>
      </trkpt>
      <trkpt lat="45.6408" lon="5.37308">
        <ele>238</ele>
        <time>2022-04-16T10:26:36.849Z</time>
      </trkpt>
      <trkpt lat="45.64079" lon="5.373">
        <ele>238</ele>
        <time>2022-04-16T10:26:37.849Z</time>
      </trkpt>
      <trkpt lat="45.64078" lon="5.37293">
        <ele>238</ele>
        <time>2022-04-16T10:26:38.849Z</time>
      </trkpt>
      <trkpt lat="45.64078" lon="5.37285">
        <ele>239</ele>
        <time>2022-04-16T10:26:39.849Z</time>
      </trkpt>
      <trkpt lat="45.64077" lon="5.37278">
        <ele>239</ele>
        <time>2022-04-16T10:26:40.849Z</time>
      </trkpt>
      <trkpt lat="45.64076" lon="5.3727">
        <ele>240</ele>
        <time>2022-04-16T10:26:41.849Z</time>
      </trkpt>
      <trkpt lat="45.64075" lon="5.37263">
        <ele>240</ele>
        <time>2022-04-16T10:26:42.849Z</time>
      </trkpt>
      <trkpt lat="45.64074" lon="5.37255">
        <ele>240</ele>
        <time>2022-04-16T10:26:43.849Z</time>
      </trkpt>
      <trkpt lat="45.64073" lon="5.37248">
        <ele>240</ele>
        <time>2022-04-16T10:26:44.849Z</time>
      </trkpt>
      <trkpt lat="45.64073" lon="5.3724">
        <ele>240</ele>
        <time>2022-04-16T10:26:45.849Z</time>
      </trkpt>
      <trkpt lat="45.64072" lon="5.37232">
        <ele>240</ele>
        <time>2022-04-16T10:26:46.849Z</time>
      </trkpt>
      <trkpt lat="45.64071" lon="5.37225">
        <ele>240</ele>
        <time>2022-04-16T10:26:47.849Z</time>
      </trkpt>
      <trkpt lat="45.6407" lon="5.37217">
        <ele>240</ele>
        <time>2022-04-16T10:26:48.849Z</time>
      </trkpt>
      <trkpt lat="45.64069" lon="5.3721">
        <ele>240</ele>
        <time>2022-04-16T10:26:49.848Z</time>
      </trkpt>
      <trkpt lat="45.64068" lon="5.37202">
        <ele>240</ele>
        <time>2022-04-16T10:26:50.849Z</time>
      </trkpt>
      <trkpt lat="45.64067" lon="5.37195">
        <ele>240</ele>
        <time>2022-04-16T10:26:51.849Z</time>
      </trkpt>
      <trkpt lat="45.64066" lon="5.37187">
        <ele>240</ele>
        <time>2022-04-16T10:26:52.849Z</time>
      </trkpt>
      <trkpt lat="45.64065" lon="5.37179">
        <ele>240</ele>
        <time>2022-04-16T10:26:53.849Z</time>
      </trkpt>
      <trkpt lat="45.64064" lon="5.37172">
        <ele>240</ele>
        <time>2022-04-16T10:26:54.848Z</time>
      </trkpt>
      <trkpt lat="45.64063" lon="5.37164">
        <ele>241</ele>
        <time>2022-04-16T10:26:55.849Z</time>
      </trkpt>
      <trkpt lat="45.64063" lon="5.37156">
        <ele>241</ele>
        <time>2022-04-16T10:26:56.849Z</time>
      </trkpt>
      <trkpt lat="45.64062" lon="5.37148">
        <ele>241</ele>
        <time>2022-04-16T10:26:57.848Z</time>
      </trkpt>
      <trkpt lat="45.64061" lon="5.37141">
        <ele>241</ele>
        <time>2022-04-16T10:26:58.849Z</time>
      </trkpt>
      <trkpt lat="45.6406" lon="5.37133">
        <ele>241</ele>
        <time>2022-04-16T10:26:59.849Z</time>
      </trkpt>
      <trkpt lat="45.64059" lon="5.37125">
        <ele>241</ele>
        <time>2022-04-16T10:27:00.849Z</time>
      </trkpt>
      <trkpt lat="45.64058" lon="5.37117">
        <ele>241</ele>
        <time>2022-04-16T10:27:01.848Z</time>
      </trkpt>
      <trkpt lat="45.64057" lon="5.37109">
        <ele>241</ele>
        <time>2022-04-16T10:27:02.848Z</time>
      </trkpt>
      <trkpt lat="45.64055" lon="5.37101">
        <ele>241</ele>
        <time>2022-04-16T10:27:03.849Z</time>
      </trkpt>
      <trkpt lat="45.64055" lon="5.37092">
        <ele>242</ele>
        <time>2022-04-16T10:27:04.849Z</time>
      </trkpt>
      <trkpt lat="45.64054" lon="5.37084">
        <ele>242</ele>
        <time>2022-04-16T10:27:05.848Z</time>
      </trkpt>
      <trkpt lat="45.64053" lon="5.37076">
        <ele>242</ele>
        <time>2022-04-16T10:27:06.849Z</time>
      </trkpt>
      <trkpt lat="45.64052" lon="5.37067">
        <ele>242</ele>
        <time>2022-04-16T10:27:07.849Z</time>
      </trkpt>
      <trkpt lat="45.64051" lon="5.37059">
        <ele>242</ele>
        <time>2022-04-16T10:27:08.849Z</time>
      </trkpt>
      <trkpt lat="45.64049" lon="5.37051">
        <ele>242</ele>
        <time>2022-04-16T10:27:09.849Z</time>
      </trkpt>
      <trkpt lat="45.64049" lon="5.37043">
        <ele>242</ele>
        <time>2022-04-16T10:27:10.848Z</time>
      </trkpt>
      <trkpt lat="45.64048" lon="5.37034">
        <ele>242</ele>
        <time>2022-04-16T10:27:11.849Z</time>
      </trkpt>
      <trkpt lat="45.64047" lon="5.37026">
        <ele>242</ele>
        <time>2022-04-16T10:27:12.849Z</time>
      </trkpt>
      <trkpt lat="45.64046" lon="5.37017">
        <ele>242</ele>
        <time>2022-04-16T10:27:13.849Z</time>
      </trkpt>
      <trkpt lat="45.64044" lon="5.37009">
        <ele>241</ele>
        <time>2022-04-16T10:27:14.848Z</time>
      </trkpt>
      <trkpt lat="45.64043" lon="5.37">
        <ele>241</ele>
        <time>2022-04-16T10:27:15.849Z</time>
      </trkpt>
      <trkpt lat="45.64042" lon="5.36991">
        <ele>241</ele>
        <time>2022-04-16T10:27:16.849Z</time>
      </trkpt>
      <trkpt lat="45.64041" lon="5.36982">
        <ele>241</ele>
        <time>2022-04-16T10:27:17.849Z</time>
      </trkpt>
      <trkpt lat="45.6404" lon="5.36973">
        <ele>241</ele>
        <time>2022-04-16T10:27:18.849Z</time>
      </trkpt>
      <trkpt lat="45.64038" lon="5.36964">
        <ele>241</ele>
        <time>2022-04-16T10:27:19.849Z</time>
      </trkpt>
      <trkpt lat="45.64037" lon="5.36955">
        <ele>241</ele>
        <time>2022-04-16T10:27:20.849Z</time>
      </trkpt>
      <trkpt lat="45.64036" lon="5.36946">
        <ele>241</ele>
        <time>2022-04-16T10:27:21.849Z</time>
      </trkpt>
      <trkpt lat="45.64035" lon="5.36937">
        <ele>241</ele>
        <time>2022-04-16T10:27:22.849Z</time>
      </trkpt>
      <trkpt lat="45.64034" lon="5.36928">
        <ele>241</ele>
        <time>2022-04-16T10:27:23.849Z</time>
      </trkpt>
      <trkpt lat="45.64033" lon="5.36919">
        <ele>241</ele>
        <time>2022-04-16T10:27:24.849Z</time>
      </trkpt>
      <trkpt lat="45.64032" lon="5.3691">
        <ele>241</ele>
        <time>2022-04-16T10:27:25.849Z</time>
      </trkpt>
      <trkpt lat="45.64031" lon="5.36901">
        <ele>241</ele>
        <time>2022-04-16T10:27:26.849Z</time>
      </trkpt>
      <trkpt lat="45.6403" lon="5.36893">
        <ele>241</ele>
        <time>2022-04-16T10:27:27.849Z</time>
      </trkpt>
      <trkpt lat="45.64029" lon="5.36884">
        <ele>242</ele>
        <time>2022-04-16T10:27:28.848Z</time>
      </trkpt>
      <trkpt lat="45.64028" lon="5.36876">
        <ele>242</ele>
        <time>2022-04-16T10:27:29.849Z</time>
      </trkpt>
      <trkpt lat="45.64027" lon="5.36867">
        <ele>241</ele>
        <time>2022-04-16T10:27:30.849Z</time>
      </trkpt>
      <trkpt lat="45.64025" lon="5.36859">
        <ele>241</ele>
        <time>2022-04-16T10:27:31.849Z</time>
      </trkpt>
      <trkpt lat="45.64024" lon="5.36851">
        <ele>241</ele>
        <time>2022-04-16T10:27:32.848Z</time>
      </trkpt>
      <trkpt lat="45.64024" lon="5.36843">
        <ele>241</ele>
        <time>2022-04-16T10:27:33.848Z</time>
      </trkpt>
      <trkpt lat="45.64023" lon="5.36835">
        <ele>240</ele>
        <time>2022-04-16T10:27:34.848Z</time>
      </trkpt>
      <trkpt lat="45.64022" lon="5.36827">
        <ele>240</ele>
        <time>2022-04-16T10:27:35.849Z</time>
      </trkpt>
      <trkpt lat="45.6402" lon="5.36819">
        <ele>240</ele>
        <time>2022-04-16T10:27:36.849Z</time>
      </trkpt>
      <trkpt lat="45.6402" lon="5.36811">
        <ele>241</ele>
        <time>2022-04-16T10:27:37.849Z</time>
      </trkpt>
      <trkpt lat="45.64019" lon="5.36803">
        <ele>241</ele>
        <time>2022-04-16T10:27:38.848Z</time>
      </trkpt>
      <trkpt lat="45.64018" lon="5.36795">
        <ele>242</ele>
        <time>2022-04-16T10:27:39.849Z</time>
      </trkpt>
      <trkpt lat="45.64017" lon="5.36787">
        <ele>242</ele>
        <time>2022-04-16T10:27:40.848Z</time>
      </trkpt>
      <trkpt lat="45.64016" lon="5.3678">
        <ele>242</ele>
        <time>2022-04-16T10:27:41.848Z</time>
      </trkpt>
      <trkpt lat="45.64015" lon="5.36772">
        <ele>242</ele>
        <time>2022-04-16T10:27:42.848Z</time>
      </trkpt>
      <trkpt lat="45.64014" lon="5.36765">
        <ele>242</ele>
        <time>2022-04-16T10:27:43.849Z</time>
      </trkpt>
      <trkpt lat="45.64014" lon="5.36758">
        <ele>242</ele>
        <time>2022-04-16T10:27:44.848Z</time>
      </trkpt>
      <trkpt lat="45.64013" lon="5.36751">
        <ele>242</ele>
        <time>2022-04-16T10:27:45.849Z</time>
      </trkpt>
      <trkpt lat="45.64012" lon="5.36744">
        <ele>241</ele>
        <time>2022-04-16T10:27:46.849Z</time>
      </trkpt>
      <trkpt lat="45.64011" lon="5.36737">
        <ele>242</ele>
        <time>2022-04-16T10:27:47.849Z</time>
      </trkpt>
      <trkpt lat="45.6401" lon="5.3673">
        <ele>242</ele>
        <time>2022-04-16T10:27:48.849Z</time>
      </trkpt>
      <trkpt lat="45.6401" lon="5.36724">
        <ele>242</ele>
        <time>2022-04-16T10:27:49.849Z</time>
      </trkpt>
      <trkpt lat="45.64009" lon="5.36718">
        <ele>242</ele>
        <time>2022-04-16T10:27:50.849Z</time>
      </trkpt>
      <trkpt lat="45.64008" lon="5.36712">
        <ele>242</ele>
        <time>2022-04-16T10:27:51.849Z</time>
      </trkpt>
      <trkpt lat="45.64007" lon="5.36707">
        <ele>243</ele>
        <time>2022-04-16T10:27:52.849Z</time>
      </trkpt>
      <trkpt lat="45.64007" lon="5.36701">
        <ele>243</ele>
        <time>2022-04-16T10:27:53.848Z</time>
      </trkpt>
      <trkpt lat="45.64006" lon="5.36695">
        <ele>244</ele>
        <time>2022-04-16T10:27:54.848Z</time>
      </trkpt>
      <trkpt lat="45.64005" lon="5.36689">
        <ele>244</ele>
        <time>2022-04-16T10:27:55.849Z</time>
      </trkpt>
      <trkpt lat="45.64005" lon="5.36683">
        <ele>245</ele>
        <time>2022-04-16T10:27:56.849Z</time>
      </trkpt>
      <trkpt lat="45.64004" lon="5.36678">
        <ele>246</ele>
        <time>2022-04-16T10:27:57.848Z</time>
      </trkpt>
      <trkpt lat="45.64004" lon="5.36673">
        <ele>246</ele>
        <time>2022-04-16T10:27:58.849Z</time>
      </trkpt>
      <trkpt lat="45.64003" lon="5.36667">
        <ele>246</ele>
        <time>2022-04-16T10:27:59.848Z</time>
      </trkpt>
      <trkpt lat="45.64002" lon="5.36662">
        <ele>246</ele>
        <time>2022-04-16T10:28:00.848Z</time>
      </trkpt>
      <trkpt lat="45.64001" lon="5.36657">
        <ele>247</ele>
        <time>2022-04-16T10:28:01.849Z</time>
      </trkpt>
      <trkpt lat="45.64" lon="5.36652">
        <ele>247</ele>
        <time>2022-04-16T10:28:02.849Z</time>
      </trkpt>
      <trkpt lat="45.64" lon="5.36647">
        <ele>247</ele>
        <time>2022-04-16T10:28:03.848Z</time>
      </trkpt>
      <trkpt lat="45.63999" lon="5.36641">
        <ele>246</ele>
        <time>2022-04-16T10:28:04.848Z</time>
      </trkpt>
      <trkpt lat="45.63998" lon="5.36636">
        <ele>246</ele>
        <time>2022-04-16T10:28:05.848Z</time>
      </trkpt>
      <trkpt lat="45.63998" lon="5.36631">
        <ele>246</ele>
        <time>2022-04-16T10:28:06.849Z</time>
      </trkpt>
      <trkpt lat="45.63997" lon="5.36626">
        <ele>245</ele>
        <time>2022-04-16T10:28:07.849Z</time>
      </trkpt>
      <trkpt lat="45.63996" lon="5.36621">
        <ele>245</ele>
        <time>2022-04-16T10:28:08.849Z</time>
      </trkpt>
      <trkpt lat="45.63995" lon="5.36616">
        <ele>245</ele>
        <time>2022-04-16T10:28:09.848Z</time>
      </trkpt>
      <trkpt lat="45.63994" lon="5.36611">
        <ele>245</ele>
        <time>2022-04-16T10:28:10.849Z</time>
      </trkpt>
      <trkpt lat="45.63992" lon="5.36606">
        <ele>245</ele>
        <time>2022-04-16T10:28:11.849Z</time>
      </trkpt>
      <trkpt lat="45.63991" lon="5.366">
        <ele>245</ele>
        <time>2022-04-16T10:28:12.848Z</time>
      </trkpt>
      <trkpt lat="45.6399" lon="5.36595">
        <ele>245</ele>
        <time>2022-04-16T10:28:13.849Z</time>
      </trkpt>
      <trkpt lat="45.63989" lon="5.3659">
        <ele>245</ele>
        <time>2022-04-16T10:28:14.849Z</time>
      </trkpt>
      <trkpt lat="45.63987" lon="5.36585">
        <ele>245</ele>
        <time>2022-04-16T10:28:15.849Z</time>
      </trkpt>
      <trkpt lat="45.63986" lon="5.3658">
        <ele>245</ele>
        <time>2022-04-16T10:28:16.848Z</time>
      </trkpt>
      <trkpt lat="45.63984" lon="5.36574">
        <ele>244</ele>
        <time>2022-04-16T10:28:17.848Z</time>
      </trkpt>
      <trkpt lat="45.63983" lon="5.36569">
        <ele>244</ele>
        <time>2022-04-16T10:28:18.849Z</time>
      </trkpt>
      <trkpt lat="45.63981" lon="5.36564">
        <ele>245</ele>
        <time>2022-04-16T10:28:19.849Z</time>
      </trkpt>
      <trkpt lat="45.6398" lon="5.36559">
        <ele>245</ele>
        <time>2022-04-16T10:28:20.849Z</time>
      </trkpt>
      <trkpt lat="45.63978" lon="5.36553">
        <ele>246</ele>
        <time>2022-04-16T10:28:21.848Z</time>
      </trkpt>
      <trkpt lat="45.63977" lon="5.36548">
        <ele>246</ele>
        <time>2022-04-16T10:28:22.848Z</time>
      </trkpt>
      <trkpt lat="45.63976" lon="5.36543">
        <ele>246</ele>
        <time>2022-04-16T10:28:23.849Z</time>
      </trkpt>
      <trkpt lat="45.63974" lon="5.36538">
        <ele>246</ele>
        <time>2022-04-16T10:28:24.849Z</time>
      </trkpt>
      <trkpt lat="45.63973" lon="5.36532">
        <ele>246</ele>
        <time>2022-04-16T10:28:25.849Z</time>
      </trkpt>
      <trkpt lat="45.63972" lon="5.36527">
        <ele>246</ele>
        <time>2022-04-16T10:28:26.849Z</time>
      </trkpt>
      <trkpt lat="45.6397" lon="5.36522">
        <ele>246</ele>
        <time>2022-04-16T10:28:27.848Z</time>
      </trkpt>
      <trkpt lat="45.63969" lon="5.36517">
        <ele>247</ele>
        <time>2022-04-16T10:28:28.849Z</time>
      </trkpt>
      <trkpt lat="45.63968" lon="5.36512">
        <ele>247</ele>
        <time>2022-04-16T10:28:29.848Z</time>
      </trkpt>
      <trkpt lat="45.63966" lon="5.36507">
        <ele>247</ele>
        <time>2022-04-16T10:28:30.849Z</time>
      </trkpt>
      <trkpt lat="45.63965" lon="5.36501">
        <ele>247</ele>
        <time>2022-04-16T10:28:31.849Z</time>
      </trkpt>
      <trkpt lat="45.63964" lon="5.36496">
        <ele>247</ele>
        <time>2022-04-16T10:28:32.849Z</time>
      </trkpt>
      <trkpt lat="45.63962" lon="5.36491">
        <ele>247</ele>
        <time>2022-04-16T10:28:33.849Z</time>
      </trkpt>
      <trkpt lat="45.63961" lon="5.36486">
        <ele>247</ele>
        <time>2022-04-16T10:28:34.848Z</time>
      </trkpt>
      <trkpt lat="45.6396" lon="5.36481">
        <ele>247</ele>
        <time>2022-04-16T10:28:35.849Z</time>
      </trkpt>
      <trkpt lat="45.63959" lon="5.36476">
        <ele>247</ele>
        <time>2022-04-16T10:28:36.849Z</time>
      </trkpt>
      <trkpt lat="45.63959" lon="5.3647">
        <ele>247</ele>
        <time>2022-04-16T10:28:37.849Z</time>
      </trkpt>
      <trkpt lat="45.63958" lon="5.36465">
        <ele>248</ele>
        <time>2022-04-16T10:28:38.849Z</time>
      </trkpt>
      <trkpt lat="45.63958" lon="5.36459">
        <ele>248</ele>
        <time>2022-04-16T10:28:39.848Z</time>
      </trkpt>
      <trkpt lat="45.63957" lon="5.36454">
        <ele>249</ele>
        <time>2022-04-16T10:28:40.849Z</time>
      </trkpt>
      <trkpt lat="45.63957" lon="5.36448">
        <ele>249</ele>
        <time>2022-04-16T10:28:41.848Z</time>
      </trkpt>
      <trkpt lat="45.63957" lon="5.36443">
        <ele>249</ele>
        <time>2022-04-16T10:28:42.848Z</time>
      </trkpt>
      <trkpt lat="45.63956" lon="5.36437">
        <ele>250</ele>
        <time>2022-04-16T10:28:43.848Z</time>
      </trkpt>
      <trkpt lat="45.63956" lon="5.36432">
        <ele>250</ele>
        <time>2022-04-16T10:28:44.849Z</time>
      </trkpt>
      <trkpt lat="45.63955" lon="5.36426">
        <ele>250</ele>
        <time>2022-04-16T10:28:45.848Z</time>
      </trkpt>
      <trkpt lat="45.63954" lon="5.36421">
        <ele>250</ele>
        <time>2022-04-16T10:28:46.848Z</time>
      </trkpt>
      <trkpt lat="45.63953" lon="5.36416">
        <ele>250</ele>
        <time>2022-04-16T10:28:47.849Z</time>
      </trkpt>
      <trkpt lat="45.63952" lon="5.36411">
        <ele>250</ele>
        <time>2022-04-16T10:28:48.849Z</time>
      </trkpt>
      <trkpt lat="45.63951" lon="5.36406">
        <ele>250</ele>
        <time>2022-04-16T10:28:49.848Z</time>
      </trkpt>
      <trkpt lat="45.6395" lon="5.36401">
        <ele>250</ele>
        <time>2022-04-16T10:28:50.849Z</time>
      </trkpt>
      <trkpt lat="45.63948" lon="5.36396">
        <ele>250</ele>
        <time>2022-04-16T10:28:51.849Z</time>
      </trkpt>
      <trkpt lat="45.63947" lon="5.36391">
        <ele>250</ele>
        <time>2022-04-16T10:28:52.849Z</time>
      </trkpt>
      <trkpt lat="45.63945" lon="5.36386">
        <ele>251</ele>
        <time>2022-04-16T10:28:53.848Z</time>
      </trkpt>
      <trkpt lat="45.63942" lon="5.36382">
        <ele>251</ele>
        <time>2022-04-16T10:28:54.848Z</time>
      </trkpt>
      <trkpt lat="45.6394" lon="5.36377">
        <ele>251</ele>
        <time>2022-04-16T10:28:55.849Z</time>
      </trkpt>
      <trkpt lat="45.63938" lon="5.36373">
        <ele>251</ele>
        <time>2022-04-16T10:28:56.848Z</time>
      </trkpt>
      <trkpt lat="45.63935" lon="5.36369">
        <ele>251</ele>
        <time>2022-04-16T10:28:57.848Z</time>
      </trkpt>
      <trkpt lat="45.63933" lon="5.36365">
        <ele>251</ele>
        <time>2022-04-16T10:28:58.849Z</time>
      </trkpt>
      <trkpt lat="45.63931" lon="5.3636">
        <ele>251</ele>
        <time>2022-04-16T10:28:59.848Z</time>
      </trkpt>
      <trkpt lat="45.63928" lon="5.36356">
        <ele>251</ele>
        <time>2022-04-16T10:29:00.849Z</time>
      </trkpt>
      <trkpt lat="45.63927" lon="5.36351">
        <ele>252</ele>
        <time>2022-04-16T10:29:01.849Z</time>
      </trkpt>
      <trkpt lat="45.63925" lon="5.36346">
        <ele>252</ele>
        <time>2022-04-16T10:29:02.848Z</time>
      </trkpt>
      <trkpt lat="45.63923" lon="5.36341">
        <ele>251</ele>
        <time>2022-04-16T10:29:03.848Z</time>
      </trkpt>
      <trkpt lat="45.63921" lon="5.36335">
        <ele>251</ele>
        <time>2022-04-16T10:29:04.848Z</time>
      </trkpt>
      <trkpt lat="45.6392" lon="5.3633">
        <ele>251</ele>
        <time>2022-04-16T10:29:05.849Z</time>
      </trkpt>
      <trkpt lat="45.63918" lon="5.36324">
        <ele>251</ele>
        <time>2022-04-16T10:29:06.849Z</time>
      </trkpt>
      <trkpt lat="45.63917" lon="5.36319">
        <ele>252</ele>
        <time>2022-04-16T10:29:07.848Z</time>
      </trkpt>
      <trkpt lat="45.63915" lon="5.36314">
        <ele>252</ele>
        <time>2022-04-16T10:29:08.848Z</time>
      </trkpt>
      <trkpt lat="45.63914" lon="5.36308">
        <ele>252</ele>
        <time>2022-04-16T10:29:09.848Z</time>
      </trkpt>
      <trkpt lat="45.63913" lon="5.36303">
        <ele>252</ele>
        <time>2022-04-16T10:29:10.849Z</time>
      </trkpt>
      <trkpt lat="45.63911" lon="5.36298">
        <ele>253</ele>
        <time>2022-04-16T10:29:11.849Z</time>
      </trkpt>
      <trkpt lat="45.63909" lon="5.36292">
        <ele>252</ele>
        <time>2022-04-16T10:29:12.848Z</time>
      </trkpt>
      <trkpt lat="45.63908" lon="5.36287">
        <ele>252</ele>
        <time>2022-04-16T10:29:13.849Z</time>
      </trkpt>
      <trkpt lat="45.63907" lon="5.36281">
        <ele>252</ele>
        <time>2022-04-16T10:29:14.848Z</time>
      </trkpt>
      <trkpt lat="45.63906" lon="5.36275">
        <ele>252</ele>
        <time>2022-04-16T10:29:15.849Z</time>
      </trkpt>
      <trkpt lat="45.63905" lon="5.36269">
        <ele>252</ele>
        <time>2022-04-16T10:29:16.848Z</time>
      </trkpt>
      <trkpt lat="45.63904" lon="5.36263">
        <ele>252</ele>
        <time>2022-04-16T10:29:17.848Z</time>
      </trkpt>
      <trkpt lat="45.63903" lon="5.36258">
        <ele>252</ele>
        <time>2022-04-16T10:29:18.848Z</time>
      </trkpt>
      <trkpt lat="45.63903" lon="5.36251">
        <ele>252</ele>
        <time>2022-04-16T10:29:19.848Z</time>
      </trkpt>
      <trkpt lat="45.63903" lon="5.36245">
        <ele>251</ele>
        <time>2022-04-16T10:29:20.848Z</time>
      </trkpt>
      <trkpt lat="45.63903" lon="5.36239">
        <ele>252</ele>
        <time>2022-04-16T10:29:21.849Z</time>
      </trkpt>
      <trkpt lat="45.63903" lon="5.36232">
        <ele>252</ele>
        <time>2022-04-16T10:29:22.848Z</time>
      </trkpt>
      <trkpt lat="45.63903" lon="5.36226">
        <ele>252</ele>
        <time>2022-04-16T10:29:23.848Z</time>
      </trkpt>
      <trkpt lat="45.63903" lon="5.36219">
        <ele>251</ele>
        <time>2022-04-16T10:29:24.848Z</time>
      </trkpt>
      <trkpt lat="45.63904" lon="5.36213">
        <ele>252</ele>
        <time>2022-04-16T10:29:25.848Z</time>
      </trkpt>
      <trkpt lat="45.63905" lon="5.36207">
        <ele>252</ele>
        <time>2022-04-16T10:29:26.849Z</time>
      </trkpt>
      <trkpt lat="45.63905" lon="5.36201">
        <ele>252</ele>
        <time>2022-04-16T10:29:27.848Z</time>
      </trkpt>
      <trkpt lat="45.63906" lon="5.36195">
        <ele>252</ele>
        <time>2022-04-16T10:29:28.849Z</time>
      </trkpt>
      <trkpt lat="45.63907" lon="5.36189">
        <ele>253</ele>
        <time>2022-04-16T10:29:29.848Z</time>
      </trkpt>
      <trkpt lat="45.63907" lon="5.36183">
        <ele>253</ele>
        <time>2022-04-16T10:29:30.849Z</time>
      </trkpt>
      <trkpt lat="45.63907" lon="5.36176">
        <ele>253</ele>
        <time>2022-04-16T10:29:31.849Z</time>
      </trkpt>
      <trkpt lat="45.63908" lon="5.36169">
        <ele>253</ele>
        <time>2022-04-16T10:29:32.849Z</time>
      </trkpt>
      <trkpt lat="45.63908" lon="5.36161">
        <ele>253</ele>
        <time>2022-04-16T10:29:33.849Z</time>
      </trkpt>
      <trkpt lat="45.63909" lon="5.36154">
        <ele>253</ele>
        <time>2022-04-16T10:29:34.848Z</time>
      </trkpt>
      <trkpt lat="45.6391" lon="5.36146">
        <ele>252</ele>
        <time>2022-04-16T10:29:35.848Z</time>
      </trkpt>
      <trkpt lat="45.6391" lon="5.36138">
        <ele>252</ele>
        <time>2022-04-16T10:29:36.848Z</time>
      </trkpt>
      <trkpt lat="45.63911" lon="5.36129">
        <ele>252</ele>
        <time>2022-04-16T10:29:37.848Z</time>
      </trkpt>
      <trkpt lat="45.63912" lon="5.36121">
        <ele>251</ele>
        <time>2022-04-16T10:29:38.848Z</time>
      </trkpt>
      <trkpt lat="45.63913" lon="5.36112">
        <ele>251</ele>
        <time>2022-04-16T10:29:39.848Z</time>
      </trkpt>
      <trkpt lat="45.63914" lon="5.36103">
        <ele>251</ele>
        <time>2022-04-16T10:29:40.848Z</time>
      </trkpt>
      <trkpt lat="45.63915" lon="5.36094">
        <ele>251</ele>
        <time>2022-04-16T10:29:41.849Z</time>
      </trkpt>
      <trkpt lat="45.63917" lon="5.36086">
        <ele>251</ele>
        <time>2022-04-16T10:29:42.848Z</time>
      </trkpt>
      <trkpt lat="45.63918" lon="5.36077">
        <ele>251</ele>
        <time>2022-04-16T10:29:43.848Z</time>
      </trkpt>
      <trkpt lat="45.63919" lon="5.36068">
        <ele>251</ele>
        <time>2022-04-16T10:29:44.849Z</time>
      </trkpt>
      <trkpt lat="45.6392" lon="5.36059">
        <ele>251</ele>
        <time>2022-04-16T10:29:45.849Z</time>
      </trkpt>
      <trkpt lat="45.63921" lon="5.3605">
        <ele>251</ele>
        <time>2022-04-16T10:29:46.849Z</time>
      </trkpt>
      <trkpt lat="45.63922" lon="5.3604">
        <ele>251</ele>
        <time>2022-04-16T10:29:47.849Z</time>
      </trkpt>
      <trkpt lat="45.63923" lon="5.36031">
        <ele>250</ele>
        <time>2022-04-16T10:29:48.849Z</time>
      </trkpt>
      <trkpt lat="45.63924" lon="5.36022">
        <ele>250</ele>
        <time>2022-04-16T10:29:49.849Z</time>
      </trkpt>
      <trkpt lat="45.63925" lon="5.36012">
        <ele>250</ele>
        <time>2022-04-16T10:29:50.849Z</time>
      </trkpt>
      <trkpt lat="45.63926" lon="5.36003">
        <ele>249</ele>
        <time>2022-04-16T10:29:51.849Z</time>
      </trkpt>
      <trkpt lat="45.63927" lon="5.35994">
        <ele>249</ele>
        <time>2022-04-16T10:29:52.849Z</time>
      </trkpt>
      <trkpt lat="45.63928" lon="5.35984">
        <ele>248</ele>
        <time>2022-04-16T10:29:53.849Z</time>
      </trkpt>
      <trkpt lat="45.63929" lon="5.35974">
        <ele>247</ele>
        <time>2022-04-16T10:29:54.849Z</time>
      </trkpt>
      <trkpt lat="45.6393" lon="5.35965">
        <ele>247</ele>
        <time>2022-04-16T10:29:55.849Z</time>
      </trkpt>
      <trkpt lat="45.63931" lon="5.35955">
        <ele>246</ele>
        <time>2022-04-16T10:29:56.849Z</time>
      </trkpt>
      <trkpt lat="45.63931" lon="5.35945">
        <ele>246</ele>
        <time>2022-04-16T10:29:57.849Z</time>
      </trkpt>
      <trkpt lat="45.63932" lon="5.35935">
        <ele>246</ele>
        <time>2022-04-16T10:29:58.849Z</time>
      </trkpt>
      <trkpt lat="45.63934" lon="5.35925">
        <ele>246</ele>
        <time>2022-04-16T10:29:59.849Z</time>
      </trkpt>
      <trkpt lat="45.63935" lon="5.35915">
        <ele>246</ele>
        <time>2022-04-16T10:30:00.848Z</time>
      </trkpt>
      <trkpt lat="45.63935" lon="5.35906">
        <ele>246</ele>
        <time>2022-04-16T10:30:01.849Z</time>
      </trkpt>
      <trkpt lat="45.63936" lon="5.35896">
        <ele>246</ele>
        <time>2022-04-16T10:30:02.849Z</time>
      </trkpt>
      <trkpt lat="45.63937" lon="5.35887">
        <ele>245</ele>
        <time>2022-04-16T10:30:03.849Z</time>
      </trkpt>
      <trkpt lat="45.63938" lon="5.35877">
        <ele>245</ele>
        <time>2022-04-16T10:30:04.849Z</time>
      </trkpt>
      <trkpt lat="45.63939" lon="5.35868">
        <ele>246</ele>
        <time>2022-04-16T10:30:05.849Z</time>
      </trkpt>
      <trkpt lat="45.6394" lon="5.35859">
        <ele>246</ele>
        <time>2022-04-16T10:30:06.849Z</time>
      </trkpt>
      <trkpt lat="45.63941" lon="5.35849">
        <ele>245</ele>
        <time>2022-04-16T10:30:07.849Z</time>
      </trkpt>
      <trkpt lat="45.63942" lon="5.3584">
        <ele>245</ele>
        <time>2022-04-16T10:30:08.849Z</time>
      </trkpt>
      <trkpt lat="45.63943" lon="5.35831">
        <ele>245</ele>
        <time>2022-04-16T10:30:09.849Z</time>
      </trkpt>
      <trkpt lat="45.63943" lon="5.35822">
        <ele>244</ele>
        <time>2022-04-16T10:30:10.849Z</time>
      </trkpt>
      <trkpt lat="45.63944" lon="5.35812">
        <ele>244</ele>
        <time>2022-04-16T10:30:11.849Z</time>
      </trkpt>
      <trkpt lat="45.63945" lon="5.35803">
        <ele>244</ele>
        <time>2022-04-16T10:30:12.849Z</time>
      </trkpt>
      <trkpt lat="45.63946" lon="5.35794">
        <ele>244</ele>
        <time>2022-04-16T10:30:13.849Z</time>
      </trkpt>
      <trkpt lat="45.63947" lon="5.35785">
        <ele>243</ele>
        <time>2022-04-16T10:30:14.849Z</time>
      </trkpt>
      <trkpt lat="45.63948" lon="5.35776">
        <ele>243</ele>
        <time>2022-04-16T10:30:15.849Z</time>
      </trkpt>
      <trkpt lat="45.63949" lon="5.35767">
        <ele>242</ele>
        <time>2022-04-16T10:30:16.849Z</time>
      </trkpt>
      <trkpt lat="45.6395" lon="5.35758">
        <ele>242</ele>
        <time>2022-04-16T10:30:17.849Z</time>
      </trkpt>
      <trkpt lat="45.63951" lon="5.35749">
        <ele>242</ele>
        <time>2022-04-16T10:30:18.849Z</time>
      </trkpt>
      <trkpt lat="45.63952" lon="5.35741">
        <ele>241</ele>
        <time>2022-04-16T10:30:19.849Z</time>
      </trkpt>
      <trkpt lat="45.63954" lon="5.35732">
        <ele>241</ele>
        <time>2022-04-16T10:30:20.849Z</time>
      </trkpt>
      <trkpt lat="45.63956" lon="5.35724">
        <ele>240</ele>
        <time>2022-04-16T10:30:21.849Z</time>
      </trkpt>
      <trkpt lat="45.63958" lon="5.35715">
        <ele>240</ele>
        <time>2022-04-16T10:30:22.849Z</time>
      </trkpt>
      <trkpt lat="45.63959" lon="5.35707">
        <ele>240</ele>
        <time>2022-04-16T10:30:23.849Z</time>
      </trkpt>
      <trkpt lat="45.6396" lon="5.35698">
        <ele>240</ele>
        <time>2022-04-16T10:30:24.849Z</time>
      </trkpt>
      <trkpt lat="45.63961" lon="5.3569">
        <ele>240</ele>
        <time>2022-04-16T10:30:25.849Z</time>
      </trkpt>
      <trkpt lat="45.63962" lon="5.35681">
        <ele>240</ele>
        <time>2022-04-16T10:30:26.849Z</time>
      </trkpt>
      <trkpt lat="45.63963" lon="5.35673">
        <ele>240</ele>
        <time>2022-04-16T10:30:27.849Z</time>
      </trkpt>
      <trkpt lat="45.63965" lon="5.35665">
        <ele>240</ele>
        <time>2022-04-16T10:30:28.849Z</time>
      </trkpt>
      <trkpt lat="45.63966" lon="5.35657">
        <ele>240</ele>
        <time>2022-04-16T10:30:29.849Z</time>
      </trkpt>
      <trkpt lat="45.63967" lon="5.35649">
        <ele>241</ele>
        <time>2022-04-16T10:30:30.849Z</time>
      </trkpt>
      <trkpt lat="45.63967" lon="5.35642">
        <ele>241</ele>
        <time>2022-04-16T10:30:31.849Z</time>
      </trkpt>
      <trkpt lat="45.63968" lon="5.35634">
        <ele>241</ele>
        <time>2022-04-16T10:30:32.849Z</time>
      </trkpt>
      <trkpt lat="45.63968" lon="5.35626">
        <ele>241</ele>
        <time>2022-04-16T10:30:33.849Z</time>
      </trkpt>
      <trkpt lat="45.63969" lon="5.35618">
        <ele>241</ele>
        <time>2022-04-16T10:30:34.849Z</time>
      </trkpt>
      <trkpt lat="45.63969" lon="5.3561">
        <ele>241</ele>
        <time>2022-04-16T10:30:35.849Z</time>
      </trkpt>
      <trkpt lat="45.63969" lon="5.35603">
        <ele>241</ele>
        <time>2022-04-16T10:30:36.849Z</time>
      </trkpt>
      <trkpt lat="45.63969" lon="5.35595">
        <ele>241</ele>
        <time>2022-04-16T10:30:37.849Z</time>
      </trkpt>
      <trkpt lat="45.63969" lon="5.35588">
        <ele>241</ele>
        <time>2022-04-16T10:30:38.849Z</time>
      </trkpt>
      <trkpt lat="45.63969" lon="5.3558">
        <ele>241</ele>
        <time>2022-04-16T10:30:39.849Z</time>
      </trkpt>
      <trkpt lat="45.63969" lon="5.35573">
        <ele>241</ele>
        <time>2022-04-16T10:30:40.849Z</time>
      </trkpt>
      <trkpt lat="45.63969" lon="5.35565">
        <ele>242</ele>
        <time>2022-04-16T10:30:41.849Z</time>
      </trkpt>
      <trkpt lat="45.6397" lon="5.35558">
        <ele>242</ele>
        <time>2022-04-16T10:30:42.849Z</time>
      </trkpt>
      <trkpt lat="45.63971" lon="5.3555">
        <ele>242</ele>
        <time>2022-04-16T10:30:43.849Z</time>
      </trkpt>
      <trkpt lat="45.63971" lon="5.35541">
        <ele>242</ele>
        <time>2022-04-16T10:30:44.849Z</time>
      </trkpt>
      <trkpt lat="45.63972" lon="5.35533">
        <ele>242</ele>
        <time>2022-04-16T10:30:45.849Z</time>
      </trkpt>
      <trkpt lat="45.63973" lon="5.35525">
        <ele>242</ele>
        <time>2022-04-16T10:30:46.849Z</time>
      </trkpt>
      <trkpt lat="45.63974" lon="5.35517">
        <ele>242</ele>
        <time>2022-04-16T10:30:47.849Z</time>
      </trkpt>
      <trkpt lat="45.63975" lon="5.35508">
        <ele>242</ele>
        <time>2022-04-16T10:30:48.849Z</time>
      </trkpt>
      <trkpt lat="45.63976" lon="5.355">
        <ele>242</ele>
        <time>2022-04-16T10:30:49.848Z</time>
      </trkpt>
      <trkpt lat="45.63977" lon="5.35492">
        <ele>242</ele>
        <time>2022-04-16T10:30:50.848Z</time>
      </trkpt>
      <trkpt lat="45.63978" lon="5.35483">
        <ele>241</ele>
        <time>2022-04-16T10:30:51.849Z</time>
      </trkpt>
      <trkpt lat="45.63979" lon="5.35474">
        <ele>241</ele>
        <time>2022-04-16T10:30:52.849Z</time>
      </trkpt>
      <trkpt lat="45.6398" lon="5.35466">
        <ele>241</ele>
        <time>2022-04-16T10:30:53.849Z</time>
      </trkpt>
      <trkpt lat="45.6398" lon="5.35457">
        <ele>241</ele>
        <time>2022-04-16T10:30:54.849Z</time>
      </trkpt>
      <trkpt lat="45.63981" lon="5.35448">
        <ele>241</ele>
        <time>2022-04-16T10:30:55.849Z</time>
      </trkpt>
      <trkpt lat="45.63982" lon="5.35439">
        <ele>240</ele>
        <time>2022-04-16T10:30:56.848Z</time>
      </trkpt>
      <trkpt lat="45.63983" lon="5.3543">
        <ele>240</ele>
        <time>2022-04-16T10:30:57.849Z</time>
      </trkpt>
      <trkpt lat="45.63984" lon="5.35421">
        <ele>239</ele>
        <time>2022-04-16T10:30:58.849Z</time>
      </trkpt>
      <trkpt lat="45.63985" lon="5.35411">
        <ele>239</ele>
        <time>2022-04-16T10:30:59.849Z</time>
      </trkpt>
      <trkpt lat="45.63986" lon="5.35402">
        <ele>239</ele>
        <time>2022-04-16T10:31:00.849Z</time>
      </trkpt>
      <trkpt lat="45.63987" lon="5.35393">
        <ele>239</ele>
        <time>2022-04-16T10:31:01.849Z</time>
      </trkpt>
      <trkpt lat="45.63988" lon="5.35383">
        <ele>239</ele>
        <time>2022-04-16T10:31:02.849Z</time>
      </trkpt>
      <trkpt lat="45.63989" lon="5.35374">
        <ele>239</ele>
        <time>2022-04-16T10:31:03.849Z</time>
      </trkpt>
      <trkpt lat="45.6399" lon="5.35364">
        <ele>239</ele>
        <time>2022-04-16T10:31:04.849Z</time>
      </trkpt>
      <trkpt lat="45.63991" lon="5.35355">
        <ele>239</ele>
        <time>2022-04-16T10:31:05.849Z</time>
      </trkpt>
      <trkpt lat="45.63992" lon="5.35345">
        <ele>239</ele>
        <time>2022-04-16T10:31:06.849Z</time>
      </trkpt>
      <trkpt lat="45.63993" lon="5.35336">
        <ele>239</ele>
        <time>2022-04-16T10:31:07.849Z</time>
      </trkpt>
      <trkpt lat="45.63993" lon="5.35327">
        <ele>239</ele>
        <time>2022-04-16T10:31:08.849Z</time>
      </trkpt>
      <trkpt lat="45.63994" lon="5.35317">
        <ele>239</ele>
        <time>2022-04-16T10:31:09.849Z</time>
      </trkpt>
      <trkpt lat="45.63995" lon="5.35308">
        <ele>239</ele>
        <time>2022-04-16T10:31:10.849Z</time>
      </trkpt>
      <trkpt lat="45.63996" lon="5.35298">
        <ele>238</ele>
        <time>2022-04-16T10:31:11.849Z</time>
      </trkpt>
      <trkpt lat="45.63997" lon="5.35289">
        <ele>238</ele>
        <time>2022-04-16T10:31:12.849Z</time>
      </trkpt>
      <trkpt lat="45.63998" lon="5.35279">
        <ele>238</ele>
        <time>2022-04-16T10:31:13.849Z</time>
      </trkpt>
      <trkpt lat="45.63999" lon="5.3527">
        <ele>239</ele>
        <time>2022-04-16T10:31:14.849Z</time>
      </trkpt>
      <trkpt lat="45.64" lon="5.3526">
        <ele>239</ele>
        <time>2022-04-16T10:31:15.848Z</time>
      </trkpt>
      <trkpt lat="45.64001" lon="5.35251">
        <ele>239</ele>
        <time>2022-04-16T10:31:16.848Z</time>
      </trkpt>
      <trkpt lat="45.64002" lon="5.35241">
        <ele>238</ele>
        <time>2022-04-16T10:31:17.848Z</time>
      </trkpt>
      <trkpt lat="45.64003" lon="5.35232">
        <ele>238</ele>
        <time>2022-04-16T10:31:18.849Z</time>
      </trkpt>
      <trkpt lat="45.64004" lon="5.35222">
        <ele>238</ele>
        <time>2022-04-16T10:31:19.849Z</time>
      </trkpt>
      <trkpt lat="45.64005" lon="5.35213">
        <ele>238</ele>
        <time>2022-04-16T10:31:20.848Z</time>
      </trkpt>
      <trkpt lat="45.64006" lon="5.35203">
        <ele>238</ele>
        <time>2022-04-16T10:31:21.848Z</time>
      </trkpt>
      <trkpt lat="45.64007" lon="5.35194">
        <ele>238</ele>
        <time>2022-04-16T10:31:22.849Z</time>
      </trkpt>
      <trkpt lat="45.64008" lon="5.35185">
        <ele>238</ele>
        <time>2022-04-16T10:31:23.849Z</time>
      </trkpt>
      <trkpt lat="45.64009" lon="5.35176">
        <ele>238</ele>
        <time>2022-04-16T10:31:24.848Z</time>
      </trkpt>
      <trkpt lat="45.6401" lon="5.35167">
        <ele>238</ele>
        <time>2022-04-16T10:31:25.849Z</time>
      </trkpt>
      <trkpt lat="45.64011" lon="5.35158">
        <ele>238</ele>
        <time>2022-04-16T10:31:26.849Z</time>
      </trkpt>
      <trkpt lat="45.64012" lon="5.35149">
        <ele>238</ele>
        <time>2022-04-16T10:31:27.849Z</time>
      </trkpt>
      <trkpt lat="45.64013" lon="5.3514">
        <ele>239</ele>
        <time>2022-04-16T10:31:28.849Z</time>
      </trkpt>
      <trkpt lat="45.64013" lon="5.35131">
        <ele>239</ele>
        <time>2022-04-16T10:31:29.849Z</time>
      </trkpt>
      <trkpt lat="45.64014" lon="5.35123">
        <ele>239</ele>
        <time>2022-04-16T10:31:30.849Z</time>
      </trkpt>
      <trkpt lat="45.64015" lon="5.35114">
        <ele>239</ele>
        <time>2022-04-16T10:31:31.849Z</time>
      </trkpt>
      <trkpt lat="45.64016" lon="5.35105">
        <ele>240</ele>
        <time>2022-04-16T10:31:32.848Z</time>
      </trkpt>
      <trkpt lat="45.64017" lon="5.35097">
        <ele>240</ele>
        <time>2022-04-16T10:31:33.849Z</time>
      </trkpt>
      <trkpt lat="45.64018" lon="5.35089">
        <ele>240</ele>
        <time>2022-04-16T10:31:34.849Z</time>
      </trkpt>
      <trkpt lat="45.64019" lon="5.35081">
        <ele>240</ele>
        <time>2022-04-16T10:31:35.849Z</time>
      </trkpt>
      <trkpt lat="45.64019" lon="5.35073">
        <ele>240</ele>
        <time>2022-04-16T10:31:36.849Z</time>
      </trkpt>
      <trkpt lat="45.6402" lon="5.35065">
        <ele>240</ele>
        <time>2022-04-16T10:31:37.849Z</time>
      </trkpt>
      <trkpt lat="45.64021" lon="5.35057">
        <ele>240</ele>
        <time>2022-04-16T10:31:38.849Z</time>
      </trkpt>
      <trkpt lat="45.64022" lon="5.35049">
        <ele>240</ele>
        <time>2022-04-16T10:31:39.849Z</time>
      </trkpt>
      <trkpt lat="45.64023" lon="5.35041">
        <ele>240</ele>
        <time>2022-04-16T10:31:40.849Z</time>
      </trkpt>
      <trkpt lat="45.64024" lon="5.35033">
        <ele>240</ele>
        <time>2022-04-16T10:31:41.848Z</time>
      </trkpt>
      <trkpt lat="45.64024" lon="5.35025">
        <ele>240</ele>
        <time>2022-04-16T10:31:42.849Z</time>
      </trkpt>
      <trkpt lat="45.64025" lon="5.35017">
        <ele>240</ele>
        <time>2022-04-16T10:31:43.849Z</time>
      </trkpt>
      <trkpt lat="45.64026" lon="5.35009">
        <ele>239</ele>
        <time>2022-04-16T10:31:44.849Z</time>
      </trkpt>
      <trkpt lat="45.64026" lon="5.35001">
        <ele>239</ele>
        <time>2022-04-16T10:31:45.849Z</time>
      </trkpt>
      <trkpt lat="45.64027" lon="5.34993">
        <ele>240</ele>
        <time>2022-04-16T10:31:46.848Z</time>
      </trkpt>
      <trkpt lat="45.64028" lon="5.34985">
        <ele>240</ele>
        <time>2022-04-16T10:31:47.848Z</time>
      </trkpt>
      <trkpt lat="45.64029" lon="5.34977">
        <ele>241</ele>
        <time>2022-04-16T10:31:48.849Z</time>
      </trkpt>
      <trkpt lat="45.6403" lon="5.34969">
        <ele>241</ele>
        <time>2022-04-16T10:31:49.849Z</time>
      </trkpt>
      <trkpt lat="45.6403" lon="5.34961">
        <ele>241</ele>
        <time>2022-04-16T10:31:50.849Z</time>
      </trkpt>
      <trkpt lat="45.64031" lon="5.34954">
        <ele>241</ele>
        <time>2022-04-16T10:31:51.849Z</time>
      </trkpt>
      <trkpt lat="45.64032" lon="5.34946">
        <ele>241</ele>
        <time>2022-04-16T10:31:52.849Z</time>
      </trkpt>
      <trkpt lat="45.64033" lon="5.34939">
        <ele>242</ele>
        <time>2022-04-16T10:31:53.849Z</time>
      </trkpt>
      <trkpt lat="45.64033" lon="5.34931">
        <ele>242</ele>
        <time>2022-04-16T10:31:54.849Z</time>
      </trkpt>
      <trkpt lat="45.64034" lon="5.34924">
        <ele>242</ele>
        <time>2022-04-16T10:31:55.849Z</time>
      </trkpt>
      <trkpt lat="45.64035" lon="5.34917">
        <ele>242</ele>
        <time>2022-04-16T10:31:56.849Z</time>
      </trkpt>
      <trkpt lat="45.64035" lon="5.3491">
        <ele>243</ele>
        <time>2022-04-16T10:31:57.849Z</time>
      </trkpt>
      <trkpt lat="45.64036" lon="5.34903">
        <ele>243</ele>
        <time>2022-04-16T10:31:58.849Z</time>
      </trkpt>
      <trkpt lat="45.64037" lon="5.34897">
        <ele>243</ele>
        <time>2022-04-16T10:31:59.849Z</time>
      </trkpt>
      <trkpt lat="45.64037" lon="5.3489">
        <ele>244</ele>
        <time>2022-04-16T10:32:00.848Z</time>
      </trkpt>
      <trkpt lat="45.64038" lon="5.34884">
        <ele>244</ele>
        <time>2022-04-16T10:32:01.849Z</time>
      </trkpt>
      <trkpt lat="45.64039" lon="5.34878">
        <ele>244</ele>
        <time>2022-04-16T10:32:02.849Z</time>
      </trkpt>
      <trkpt lat="45.6404" lon="5.34872">
        <ele>244</ele>
        <time>2022-04-16T10:32:03.849Z</time>
      </trkpt>
      <trkpt lat="45.64041" lon="5.34867">
        <ele>244</ele>
        <time>2022-04-16T10:32:04.849Z</time>
      </trkpt>
      <trkpt lat="45.64041" lon="5.34862">
        <ele>244</ele>
        <time>2022-04-16T10:32:05.849Z</time>
      </trkpt>
      <trkpt lat="45.64041" lon="5.34856">
        <ele>244</ele>
        <time>2022-04-16T10:32:06.849Z</time>
      </trkpt>
      <trkpt lat="45.64042" lon="5.34851">
        <ele>244</ele>
        <time>2022-04-16T10:32:07.849Z</time>
      </trkpt>
      <trkpt lat="45.64043" lon="5.34846">
        <ele>244</ele>
        <time>2022-04-16T10:32:08.848Z</time>
      </trkpt>
      <trkpt lat="45.64043" lon="5.34841">
        <ele>244</ele>
        <time>2022-04-16T10:32:09.849Z</time>
      </trkpt>
      <trkpt lat="45.64044" lon="5.34835">
        <ele>244</ele>
        <time>2022-04-16T10:32:10.849Z</time>
      </trkpt>
      <trkpt lat="45.64044" lon="5.34829">
        <ele>244</ele>
        <time>2022-04-16T10:32:11.849Z</time>
      </trkpt>
      <trkpt lat="45.64045" lon="5.34823">
        <ele>243</ele>
        <time>2022-04-16T10:32:12.849Z</time>
      </trkpt>
      <trkpt lat="45.64045" lon="5.34818">
        <ele>243</ele>
        <time>2022-04-16T10:32:13.849Z</time>
      </trkpt>
      <trkpt lat="45.64046" lon="5.34813">
        <ele>243</ele>
        <time>2022-04-16T10:32:14.849Z</time>
      </trkpt>
      <trkpt lat="45.64046" lon="5.34807">
        <ele>243</ele>
        <time>2022-04-16T10:32:15.848Z</time>
      </trkpt>
      <trkpt lat="45.64047" lon="5.34801">
        <ele>243</ele>
        <time>2022-04-16T10:32:16.849Z</time>
      </trkpt>
      <trkpt lat="45.64048" lon="5.34796">
        <ele>243</ele>
        <time>2022-04-16T10:32:17.849Z</time>
      </trkpt>
      <trkpt lat="45.64049" lon="5.3479">
        <ele>244</ele>
        <time>2022-04-16T10:32:18.848Z</time>
      </trkpt>
      <trkpt lat="45.64049" lon="5.34786">
        <ele>243</ele>
        <time>2022-04-16T10:32:19.848Z</time>
      </trkpt>
      <trkpt lat="45.6405" lon="5.34781">
        <ele>243</ele>
        <time>2022-04-16T10:32:20.849Z</time>
      </trkpt>
      <trkpt lat="45.6405" lon="5.34776">
        <ele>243</ele>
        <time>2022-04-16T10:32:21.849Z</time>
      </trkpt>
      <trkpt lat="45.64051" lon="5.34771">
        <ele>243</ele>
        <time>2022-04-16T10:32:22.849Z</time>
      </trkpt>
      <trkpt lat="45.64051" lon="5.34767">
        <ele>243</ele>
        <time>2022-04-16T10:32:23.849Z</time>
      </trkpt>
      <trkpt lat="45.64052" lon="5.34762">
        <ele>243</ele>
        <time>2022-04-16T10:32:24.849Z</time>
      </trkpt>
      <trkpt lat="45.64053" lon="5.34758">
        <ele>242</ele>
        <time>2022-04-16T10:32:25.849Z</time>
      </trkpt>
      <trkpt lat="45.64053" lon="5.34753">
        <ele>242</ele>
        <time>2022-04-16T10:32:26.848Z</time>
      </trkpt>
      <trkpt lat="45.64054" lon="5.34749">
        <ele>243</ele>
        <time>2022-04-16T10:32:27.848Z</time>
      </trkpt>
      <trkpt lat="45.64055" lon="5.34744">
        <ele>243</ele>
        <time>2022-04-16T10:32:28.849Z</time>
      </trkpt>
      <trkpt lat="45.64057" lon="5.34739">
        <ele>243</ele>
        <time>2022-04-16T10:32:29.849Z</time>
      </trkpt>
      <trkpt lat="45.64058" lon="5.34735">
        <ele>243</ele>
        <time>2022-04-16T10:32:30.849Z</time>
      </trkpt>
      <trkpt lat="45.64059" lon="5.3473">
        <ele>242</ele>
        <time>2022-04-16T10:32:31.848Z</time>
      </trkpt>
      <trkpt lat="45.6406" lon="5.34725">
        <ele>242</ele>
        <time>2022-04-16T10:32:32.848Z</time>
      </trkpt>
      <trkpt lat="45.64062" lon="5.3472">
        <ele>242</ele>
        <time>2022-04-16T10:32:33.848Z</time>
      </trkpt>
      <trkpt lat="45.64063" lon="5.34716">
        <ele>242</ele>
        <time>2022-04-16T10:32:34.849Z</time>
      </trkpt>
      <trkpt lat="45.64065" lon="5.34711">
        <ele>241</ele>
        <time>2022-04-16T10:32:35.849Z</time>
      </trkpt>
      <trkpt lat="45.64067" lon="5.34706">
        <ele>241</ele>
        <time>2022-04-16T10:32:36.848Z</time>
      </trkpt>
      <trkpt lat="45.64068" lon="5.347">
        <ele>241</ele>
        <time>2022-04-16T10:32:37.849Z</time>
      </trkpt>
      <trkpt lat="45.6407" lon="5.34695">
        <ele>241</ele>
        <time>2022-04-16T10:32:38.849Z</time>
      </trkpt>
      <trkpt lat="45.64072" lon="5.3469">
        <ele>241</ele>
        <time>2022-04-16T10:32:39.849Z</time>
      </trkpt>
      <trkpt lat="45.64074" lon="5.34684">
        <ele>241</ele>
        <time>2022-04-16T10:32:40.849Z</time>
      </trkpt>
      <trkpt lat="45.64076" lon="5.34679">
        <ele>241</ele>
        <time>2022-04-16T10:32:41.848Z</time>
      </trkpt>
      <trkpt lat="45.64078" lon="5.34674">
        <ele>241</ele>
        <time>2022-04-16T10:32:42.848Z</time>
      </trkpt>
      <trkpt lat="45.6408" lon="5.34669">
        <ele>241</ele>
        <time>2022-04-16T10:32:43.849Z</time>
      </trkpt>
      <trkpt lat="45.64082" lon="5.34664">
        <ele>241</ele>
        <time>2022-04-16T10:32:44.849Z</time>
      </trkpt>
      <trkpt lat="45.64084" lon="5.34658">
        <ele>241</ele>
        <time>2022-04-16T10:32:45.848Z</time>
      </trkpt>
      <trkpt lat="45.64086" lon="5.34652">
        <ele>241</ele>
        <time>2022-04-16T10:32:46.849Z</time>
      </trkpt>
      <trkpt lat="45.64088" lon="5.34647">
        <ele>241</ele>
        <time>2022-04-16T10:32:47.848Z</time>
      </trkpt>
      <trkpt lat="45.6409" lon="5.34642">
        <ele>241</ele>
        <time>2022-04-16T10:32:48.849Z</time>
      </trkpt>
      <trkpt lat="45.64092" lon="5.34636">
        <ele>242</ele>
        <time>2022-04-16T10:32:49.849Z</time>
      </trkpt>
      <trkpt lat="45.64094" lon="5.34631">
        <ele>242</ele>
        <time>2022-04-16T10:32:50.849Z</time>
      </trkpt>
      <trkpt lat="45.64096" lon="5.34625">
        <ele>242</ele>
        <time>2022-04-16T10:32:51.849Z</time>
      </trkpt>
      <trkpt lat="45.64098" lon="5.3462">
        <ele>242</ele>
        <time>2022-04-16T10:32:52.849Z</time>
      </trkpt>
      <trkpt lat="45.641" lon="5.34615">
        <ele>242</ele>
        <time>2022-04-16T10:32:53.848Z</time>
      </trkpt>
      <trkpt lat="45.64101" lon="5.34609">
        <ele>242</ele>
        <time>2022-04-16T10:32:54.849Z</time>
      </trkpt>
      <trkpt lat="45.64103" lon="5.34604">
        <ele>242</ele>
        <time>2022-04-16T10:32:55.849Z</time>
      </trkpt>
      <trkpt lat="45.64105" lon="5.34599">
        <ele>242</ele>
        <time>2022-04-16T10:32:56.848Z</time>
      </trkpt>
      <trkpt lat="45.64107" lon="5.34593">
        <ele>242</ele>
        <time>2022-04-16T10:32:57.848Z</time>
      </trkpt>
      <trkpt lat="45.64108" lon="5.34587">
        <ele>242</ele>
        <time>2022-04-16T10:32:58.849Z</time>
      </trkpt>
      <trkpt lat="45.6411" lon="5.34581">
        <ele>242</ele>
        <time>2022-04-16T10:32:59.849Z</time>
      </trkpt>
      <trkpt lat="45.64112" lon="5.34575">
        <ele>242</ele>
        <time>2022-04-16T10:33:00.849Z</time>
      </trkpt>
      <trkpt lat="45.64113" lon="5.34568">
        <ele>242</ele>
        <time>2022-04-16T10:33:01.849Z</time>
      </trkpt>
      <trkpt lat="45.64115" lon="5.34562">
        <ele>243</ele>
        <time>2022-04-16T10:33:02.849Z</time>
      </trkpt>
      <trkpt lat="45.64116" lon="5.34556">
        <ele>243</ele>
        <time>2022-04-16T10:33:03.849Z</time>
      </trkpt>
      <trkpt lat="45.64117" lon="5.3455">
        <ele>244</ele>
        <time>2022-04-16T10:33:04.848Z</time>
      </trkpt>
      <trkpt lat="45.64118" lon="5.34544">
        <ele>244</ele>
        <time>2022-04-16T10:33:05.849Z</time>
      </trkpt>
      <trkpt lat="45.64119" lon="5.34538">
        <ele>244</ele>
        <time>2022-04-16T10:33:06.849Z</time>
      </trkpt>
      <trkpt lat="45.6412" lon="5.34532">
        <ele>244</ele>
        <time>2022-04-16T10:33:07.848Z</time>
      </trkpt>
      <trkpt lat="45.6412" lon="5.34525">
        <ele>243</ele>
        <time>2022-04-16T10:33:08.849Z</time>
      </trkpt>
      <trkpt lat="45.6412" lon="5.34519">
        <ele>243</ele>
        <time>2022-04-16T10:33:09.848Z</time>
      </trkpt>
      <trkpt lat="45.6412" lon="5.34513">
        <ele>242</ele>
        <time>2022-04-16T10:33:10.849Z</time>
      </trkpt>
      <trkpt lat="45.6412" lon="5.34507">
        <ele>242</ele>
        <time>2022-04-16T10:33:11.849Z</time>
      </trkpt>
      <trkpt lat="45.6412" lon="5.34501">
        <ele>242</ele>
        <time>2022-04-16T10:33:12.849Z</time>
      </trkpt>
      <trkpt lat="45.6412" lon="5.34495">
        <ele>241</ele>
        <time>2022-04-16T10:33:13.848Z</time>
      </trkpt>
      <trkpt lat="45.64119" lon="5.34489">
        <ele>241</ele>
        <time>2022-04-16T10:33:14.849Z</time>
      </trkpt>
      <trkpt lat="45.64119" lon="5.34483">
        <ele>241</ele>
        <time>2022-04-16T10:33:15.849Z</time>
      </trkpt>
      <trkpt lat="45.64118" lon="5.34477">
        <ele>241</ele>
        <time>2022-04-16T10:33:16.848Z</time>
      </trkpt>
      <trkpt lat="45.64117" lon="5.3447">
        <ele>241</ele>
        <time>2022-04-16T10:33:17.849Z</time>
      </trkpt>
      <trkpt lat="45.64116" lon="5.34464">
        <ele>241</ele>
        <time>2022-04-16T10:33:18.849Z</time>
      </trkpt>
      <trkpt lat="45.64115" lon="5.34459">
        <ele>242</ele>
        <time>2022-04-16T10:33:19.849Z</time>
      </trkpt>
      <trkpt lat="45.64115" lon="5.34453">
        <ele>242</ele>
        <time>2022-04-16T10:33:20.849Z</time>
      </trkpt>
      <trkpt lat="45.64114" lon="5.34447">
        <ele>242</ele>
        <time>2022-04-16T10:33:21.849Z</time>
      </trkpt>
      <trkpt lat="45.64113" lon="5.3444">
        <ele>242</ele>
        <time>2022-04-16T10:33:22.849Z</time>
      </trkpt>
      <trkpt lat="45.64111" lon="5.34434">
        <ele>243</ele>
        <time>2022-04-16T10:33:23.849Z</time>
      </trkpt>
      <trkpt lat="45.6411" lon="5.34428">
        <ele>243</ele>
        <time>2022-04-16T10:33:24.849Z</time>
      </trkpt>
      <trkpt lat="45.64109" lon="5.34422">
        <ele>243</ele>
        <time>2022-04-16T10:33:25.848Z</time>
      </trkpt>
      <trkpt lat="45.64108" lon="5.34415">
        <ele>243</ele>
        <time>2022-04-16T10:33:26.848Z</time>
      </trkpt>
      <trkpt lat="45.64107" lon="5.34408">
        <ele>243</ele>
        <time>2022-04-16T10:33:27.848Z</time>
      </trkpt>
      <trkpt lat="45.64106" lon="5.34402">
        <ele>243</ele>
        <time>2022-04-16T10:33:28.849Z</time>
      </trkpt>
      <trkpt lat="45.64105" lon="5.34395">
        <ele>244</ele>
        <time>2022-04-16T10:33:29.849Z</time>
      </trkpt>
      <trkpt lat="45.64104" lon="5.34389">
        <ele>244</ele>
        <time>2022-04-16T10:33:30.849Z</time>
      </trkpt>
      <trkpt lat="45.64103" lon="5.34382">
        <ele>245</ele>
        <time>2022-04-16T10:33:31.849Z</time>
      </trkpt>
      <trkpt lat="45.64103" lon="5.34376">
        <ele>245</ele>
        <time>2022-04-16T10:33:32.849Z</time>
      </trkpt>
      <trkpt lat="45.64102" lon="5.34369">
        <ele>245</ele>
        <time>2022-04-16T10:33:33.848Z</time>
      </trkpt>
      <trkpt lat="45.64102" lon="5.34363">
        <ele>246</ele>
        <time>2022-04-16T10:33:34.849Z</time>
      </trkpt>
      <trkpt lat="45.64101" lon="5.34356">
        <ele>246</ele>
        <time>2022-04-16T10:33:35.849Z</time>
      </trkpt>
      <trkpt lat="45.64101" lon="5.34349">
        <ele>247</ele>
        <time>2022-04-16T10:33:36.849Z</time>
      </trkpt>
      <trkpt lat="45.64101" lon="5.34343">
        <ele>247</ele>
        <time>2022-04-16T10:33:37.848Z</time>
      </trkpt>
      <trkpt lat="45.64101" lon="5.34336">
        <ele>248</ele>
        <time>2022-04-16T10:33:38.848Z</time>
      </trkpt>
      <trkpt lat="45.64101" lon="5.34329">
        <ele>248</ele>
        <time>2022-04-16T10:33:39.849Z</time>
      </trkpt>
      <trkpt lat="45.64102" lon="5.34323">
        <ele>248</ele>
        <time>2022-04-16T10:33:40.849Z</time>
      </trkpt>
      <trkpt lat="45.64103" lon="5.34316">
        <ele>248</ele>
        <time>2022-04-16T10:33:41.848Z</time>
      </trkpt>
      <trkpt lat="45.64103" lon="5.34309">
        <ele>248</ele>
        <time>2022-04-16T10:33:42.849Z</time>
      </trkpt>
      <trkpt lat="45.64104" lon="5.34303">
        <ele>248</ele>
        <time>2022-04-16T10:33:43.849Z</time>
      </trkpt>
      <trkpt lat="45.64105" lon="5.34296">
        <ele>248</ele>
        <time>2022-04-16T10:33:44.849Z</time>
      </trkpt>
      <trkpt lat="45.64106" lon="5.3429">
        <ele>248</ele>
        <time>2022-04-16T10:33:45.849Z</time>
      </trkpt>
      <trkpt lat="45.64107" lon="5.34284">
        <ele>248</ele>
        <time>2022-04-16T10:33:46.849Z</time>
      </trkpt>
      <trkpt lat="45.64108" lon="5.34278">
        <ele>248</ele>
        <time>2022-04-16T10:33:47.849Z</time>
      </trkpt>
      <trkpt lat="45.64109" lon="5.34274">
        <ele>248</ele>
        <time>2022-04-16T10:33:48.849Z</time>
      </trkpt>
      <trkpt lat="45.64109" lon="5.3427">
        <ele>248</ele>
        <time>2022-04-16T10:33:49.848Z</time>
      </trkpt>
      <trkpt lat="45.6411" lon="5.34266">
        <ele>249</ele>
        <time>2022-04-16T10:33:50.849Z</time>
      </trkpt>
      <trkpt lat="45.64111" lon="5.34262">
        <ele>249</ele>
        <time>2022-04-16T10:33:51.849Z</time>
      </trkpt>
      <trkpt lat="45.64112" lon="5.34257">
        <ele>249</ele>
        <time>2022-04-16T10:33:52.848Z</time>
      </trkpt>
      <trkpt lat="45.64113" lon="5.34253">
        <ele>249</ele>
        <time>2022-04-16T10:33:53.849Z</time>
      </trkpt>
      <trkpt lat="45.64115" lon="5.34248">
        <ele>249</ele>
        <time>2022-04-16T10:33:54.849Z</time>
      </trkpt>
      <trkpt lat="45.64115" lon="5.34243">
        <ele>250</ele>
        <time>2022-04-16T10:33:55.849Z</time>
      </trkpt>
      <trkpt lat="45.64116" lon="5.34237">
        <ele>250</ele>
        <time>2022-04-16T10:33:56.849Z</time>
      </trkpt>
      <trkpt lat="45.64117" lon="5.34232">
        <ele>250</ele>
        <time>2022-04-16T10:33:57.848Z</time>
      </trkpt>
      <trkpt lat="45.64118" lon="5.34225">
        <ele>250</ele>
        <time>2022-04-16T10:33:58.849Z</time>
      </trkpt>
      <trkpt lat="45.64119" lon="5.34219">
        <ele>250</ele>
        <time>2022-04-16T10:33:59.849Z</time>
      </trkpt>
      <trkpt lat="45.64121" lon="5.34212">
        <ele>250</ele>
        <time>2022-04-16T10:34:00.849Z</time>
      </trkpt>
      <trkpt lat="45.64122" lon="5.34205">
        <ele>250</ele>
        <time>2022-04-16T10:34:01.848Z</time>
      </trkpt>
      <trkpt lat="45.64124" lon="5.34198">
        <ele>250</ele>
        <time>2022-04-16T10:34:02.848Z</time>
      </trkpt>
      <trkpt lat="45.64125" lon="5.3419">
        <ele>249</ele>
        <time>2022-04-16T10:34:03.849Z</time>
      </trkpt>
      <trkpt lat="45.64127" lon="5.34182">
        <ele>249</ele>
        <time>2022-04-16T10:34:04.849Z</time>
      </trkpt>
      <trkpt lat="45.64129" lon="5.34174">
        <ele>248</ele>
        <time>2022-04-16T10:34:05.849Z</time>
      </trkpt>
      <trkpt lat="45.64131" lon="5.34166">
        <ele>248</ele>
        <time>2022-04-16T10:34:06.849Z</time>
      </trkpt>
      <trkpt lat="45.64132" lon="5.34157">
        <ele>247</ele>
        <time>2022-04-16T10:34:07.849Z</time>
      </trkpt>
      <trkpt lat="45.64134" lon="5.34149">
        <ele>247</ele>
        <time>2022-04-16T10:34:08.849Z</time>
      </trkpt>
      <trkpt lat="45.64135" lon="5.3414">
        <ele>246</ele>
        <time>2022-04-16T10:34:09.849Z</time>
      </trkpt>
      <trkpt lat="45.64137" lon="5.34131">
        <ele>246</ele>
        <time>2022-04-16T10:34:10.849Z</time>
      </trkpt>
      <trkpt lat="45.64139" lon="5.34121">
        <ele>246</ele>
        <time>2022-04-16T10:34:11.849Z</time>
      </trkpt>
      <trkpt lat="45.6414" lon="5.34112">
        <ele>245</ele>
        <time>2022-04-16T10:34:12.849Z</time>
      </trkpt>
      <trkpt lat="45.64142" lon="5.34102">
        <ele>245</ele>
        <time>2022-04-16T10:34:13.849Z</time>
      </trkpt>
      <trkpt lat="45.64144" lon="5.34093">
        <ele>245</ele>
        <time>2022-04-16T10:34:14.849Z</time>
      </trkpt>
      <trkpt lat="45.64146" lon="5.34083">
        <ele>245</ele>
        <time>2022-04-16T10:34:15.849Z</time>
      </trkpt>
      <trkpt lat="45.64148" lon="5.34073">
        <ele>245</ele>
        <time>2022-04-16T10:34:16.849Z</time>
      </trkpt>
      <trkpt lat="45.6415" lon="5.34063">
        <ele>245</ele>
        <time>2022-04-16T10:34:17.848Z</time>
      </trkpt>
      <trkpt lat="45.64152" lon="5.34052">
        <ele>245</ele>
        <time>2022-04-16T10:34:18.849Z</time>
      </trkpt>
      <trkpt lat="45.64154" lon="5.34041">
        <ele>245</ele>
        <time>2022-04-16T10:34:19.849Z</time>
      </trkpt>
      <trkpt lat="45.64156" lon="5.34031">
        <ele>245</ele>
        <time>2022-04-16T10:34:20.848Z</time>
      </trkpt>
      <trkpt lat="45.64158" lon="5.3402">
        <ele>244</ele>
        <time>2022-04-16T10:34:21.849Z</time>
      </trkpt>
      <trkpt lat="45.6416" lon="5.34009">
        <ele>244</ele>
        <time>2022-04-16T10:34:22.849Z</time>
      </trkpt>
      <trkpt lat="45.64162" lon="5.33998">
        <ele>243</ele>
        <time>2022-04-16T10:34:23.849Z</time>
      </trkpt>
      <trkpt lat="45.64164" lon="5.33987">
        <ele>243</ele>
        <time>2022-04-16T10:34:24.849Z</time>
      </trkpt>
      <trkpt lat="45.64166" lon="5.33976">
        <ele>242</ele>
        <time>2022-04-16T10:34:25.849Z</time>
      </trkpt>
      <trkpt lat="45.64168" lon="5.33964">
        <ele>241</ele>
        <time>2022-04-16T10:34:26.849Z</time>
      </trkpt>
      <trkpt lat="45.64171" lon="5.33953">
        <ele>240</ele>
        <time>2022-04-16T10:34:27.849Z</time>
      </trkpt>
      <trkpt lat="45.64173" lon="5.33942">
        <ele>240</ele>
        <time>2022-04-16T10:34:28.849Z</time>
      </trkpt>
      <trkpt lat="45.64175" lon="5.33931">
        <ele>239</ele>
        <time>2022-04-16T10:34:29.849Z</time>
      </trkpt>
      <trkpt lat="45.64177" lon="5.3392">
        <ele>239</ele>
        <time>2022-04-16T10:34:30.848Z</time>
      </trkpt>
      <trkpt lat="45.6418" lon="5.33909">
        <ele>239</ele>
        <time>2022-04-16T10:34:31.848Z</time>
      </trkpt>
      <trkpt lat="45.64183" lon="5.33897">
        <ele>239</ele>
        <time>2022-04-16T10:34:32.848Z</time>
      </trkpt>
      <trkpt lat="45.64185" lon="5.33887">
        <ele>238</ele>
        <time>2022-04-16T10:34:33.849Z</time>
      </trkpt>
      <trkpt lat="45.64188" lon="5.33876">
        <ele>238</ele>
        <time>2022-04-16T10:34:34.849Z</time>
      </trkpt>
      <trkpt lat="45.64191" lon="5.33865">
        <ele>238</ele>
        <time>2022-04-16T10:34:35.849Z</time>
      </trkpt>
      <trkpt lat="45.64193" lon="5.33855">
        <ele>238</ele>
        <time>2022-04-16T10:34:36.849Z</time>
      </trkpt>
      <trkpt lat="45.64196" lon="5.33844">
        <ele>237</ele>
        <time>2022-04-16T10:34:37.848Z</time>
      </trkpt>
      <trkpt lat="45.64199" lon="5.33834">
        <ele>237</ele>
        <time>2022-04-16T10:34:38.849Z</time>
      </trkpt>
      <trkpt lat="45.64201" lon="5.33823">
        <ele>237</ele>
        <time>2022-04-16T10:34:39.849Z</time>
      </trkpt>
      <trkpt lat="45.64204" lon="5.33813">
        <ele>237</ele>
        <time>2022-04-16T10:34:40.849Z</time>
      </trkpt>
      <trkpt lat="45.64206" lon="5.33803">
        <ele>236</ele>
        <time>2022-04-16T10:34:41.849Z</time>
      </trkpt>
      <trkpt lat="45.64209" lon="5.33792">
        <ele>236</ele>
        <time>2022-04-16T10:34:42.849Z</time>
      </trkpt>
      <trkpt lat="45.64211" lon="5.33782">
        <ele>236</ele>
        <time>2022-04-16T10:34:43.848Z</time>
      </trkpt>
      <trkpt lat="45.64214" lon="5.33772">
        <ele>236</ele>
        <time>2022-04-16T10:34:44.849Z</time>
      </trkpt>
      <trkpt lat="45.64217" lon="5.33761">
        <ele>236</ele>
        <time>2022-04-16T10:34:45.849Z</time>
      </trkpt>
      <trkpt lat="45.64219" lon="5.33751">
        <ele>236</ele>
        <time>2022-04-16T10:34:46.849Z</time>
      </trkpt>
      <trkpt lat="45.64222" lon="5.33741">
        <ele>236</ele>
        <time>2022-04-16T10:34:47.848Z</time>
      </trkpt>
      <trkpt lat="45.64224" lon="5.33732">
        <ele>235</ele>
        <time>2022-04-16T10:34:48.849Z</time>
      </trkpt>
      <trkpt lat="45.64227" lon="5.33722">
        <ele>235</ele>
        <time>2022-04-16T10:34:49.849Z</time>
      </trkpt>
      <trkpt lat="45.64229" lon="5.33712">
        <ele>235</ele>
        <time>2022-04-16T10:34:50.848Z</time>
      </trkpt>
      <trkpt lat="45.64232" lon="5.33702">
        <ele>234</ele>
        <time>2022-04-16T10:34:51.849Z</time>
      </trkpt>
      <trkpt lat="45.64234" lon="5.33693">
        <ele>234</ele>
        <time>2022-04-16T10:34:52.849Z</time>
      </trkpt>
      <trkpt lat="45.64236" lon="5.33683">
        <ele>234</ele>
        <time>2022-04-16T10:34:53.849Z</time>
      </trkpt>
      <trkpt lat="45.64239" lon="5.33674">
        <ele>234</ele>
        <time>2022-04-16T10:34:54.849Z</time>
      </trkpt>
      <trkpt lat="45.64241" lon="5.33665">
        <ele>234</ele>
        <time>2022-04-16T10:34:55.849Z</time>
      </trkpt>
      <trkpt lat="45.64243" lon="5.33656">
        <ele>234</ele>
        <time>2022-04-16T10:34:56.849Z</time>
      </trkpt>
      <trkpt lat="45.64244" lon="5.33646">
        <ele>234</ele>
        <time>2022-04-16T10:34:57.849Z</time>
      </trkpt>
      <trkpt lat="45.64246" lon="5.33637">
        <ele>233</ele>
        <time>2022-04-16T10:34:58.849Z</time>
      </trkpt>
      <trkpt lat="45.64247" lon="5.33628">
        <ele>233</ele>
        <time>2022-04-16T10:34:59.848Z</time>
      </trkpt>
      <trkpt lat="45.64248" lon="5.33619">
        <ele>233</ele>
        <time>2022-04-16T10:35:00.849Z</time>
      </trkpt>
      <trkpt lat="45.64249" lon="5.3361">
        <ele>233</ele>
        <time>2022-04-16T10:35:01.848Z</time>
      </trkpt>
      <trkpt lat="45.64249" lon="5.33601">
        <ele>233</ele>
        <time>2022-04-16T10:35:02.849Z</time>
      </trkpt>
      <trkpt lat="45.6425" lon="5.33592">
        <ele>233</ele>
        <time>2022-04-16T10:35:03.848Z</time>
      </trkpt>
      <trkpt lat="45.6425" lon="5.33583">
        <ele>233</ele>
        <time>2022-04-16T10:35:04.849Z</time>
      </trkpt>
      <trkpt lat="45.64251" lon="5.33575">
        <ele>233</ele>
        <time>2022-04-16T10:35:05.848Z</time>
      </trkpt>
      <trkpt lat="45.64251" lon="5.33566">
        <ele>233</ele>
        <time>2022-04-16T10:35:06.849Z</time>
      </trkpt>
      <trkpt lat="45.64251" lon="5.33557">
        <ele>233</ele>
        <time>2022-04-16T10:35:07.849Z</time>
      </trkpt>
      <trkpt lat="45.64252" lon="5.33548">
        <ele>233</ele>
        <time>2022-04-16T10:35:08.849Z</time>
      </trkpt>
      <trkpt lat="45.64252" lon="5.33539">
        <ele>234</ele>
        <time>2022-04-16T10:35:09.849Z</time>
      </trkpt>
      <trkpt lat="45.64252" lon="5.3353">
        <ele>234</ele>
        <time>2022-04-16T10:35:10.849Z</time>
      </trkpt>
      <trkpt lat="45.64252" lon="5.33521">
        <ele>234</ele>
        <time>2022-04-16T10:35:11.848Z</time>
      </trkpt>
      <trkpt lat="45.64253" lon="5.33512">
        <ele>234</ele>
        <time>2022-04-16T10:35:12.849Z</time>
      </trkpt>
      <trkpt lat="45.64253" lon="5.33503">
        <ele>234</ele>
        <time>2022-04-16T10:35:13.848Z</time>
      </trkpt>
      <trkpt lat="45.64254" lon="5.33495">
        <ele>234</ele>
        <time>2022-04-16T10:35:14.849Z</time>
      </trkpt>
      <trkpt lat="45.64254" lon="5.33486">
        <ele>234</ele>
        <time>2022-04-16T10:35:15.849Z</time>
      </trkpt>
      <trkpt lat="45.64254" lon="5.33478">
        <ele>234</ele>
        <time>2022-04-16T10:35:16.849Z</time>
      </trkpt>
      <trkpt lat="45.64255" lon="5.33469">
        <ele>234</ele>
        <time>2022-04-16T10:35:17.849Z</time>
      </trkpt>
      <trkpt lat="45.64255" lon="5.3346">
        <ele>235</ele>
        <time>2022-04-16T10:35:18.849Z</time>
      </trkpt>
      <trkpt lat="45.64255" lon="5.33452">
        <ele>235</ele>
        <time>2022-04-16T10:35:19.849Z</time>
      </trkpt>
      <trkpt lat="45.64256" lon="5.33444">
        <ele>235</ele>
        <time>2022-04-16T10:35:20.849Z</time>
      </trkpt>
      <trkpt lat="45.64256" lon="5.33436">
        <ele>235</ele>
        <time>2022-04-16T10:35:21.849Z</time>
      </trkpt>
      <trkpt lat="45.64256" lon="5.33427">
        <ele>235</ele>
        <time>2022-04-16T10:35:22.849Z</time>
      </trkpt>
      <trkpt lat="45.64257" lon="5.3342">
        <ele>235</ele>
        <time>2022-04-16T10:35:23.849Z</time>
      </trkpt>
      <trkpt lat="45.64257" lon="5.33412">
        <ele>235</ele>
        <time>2022-04-16T10:35:24.849Z</time>
      </trkpt>
      <trkpt lat="45.64257" lon="5.33404">
        <ele>235</ele>
        <time>2022-04-16T10:35:25.849Z</time>
      </trkpt>
      <trkpt lat="45.64257" lon="5.33396">
        <ele>235</ele>
        <time>2022-04-16T10:35:26.849Z</time>
      </trkpt>
      <trkpt lat="45.64258" lon="5.33388">
        <ele>235</ele>
        <time>2022-04-16T10:35:27.849Z</time>
      </trkpt>
      <trkpt lat="45.64258" lon="5.3338">
        <ele>234</ele>
        <time>2022-04-16T10:35:28.849Z</time>
      </trkpt>
      <trkpt lat="45.64258" lon="5.33372">
        <ele>234</ele>
        <time>2022-04-16T10:35:29.849Z</time>
      </trkpt>
      <trkpt lat="45.64258" lon="5.33366">
        <ele>234</ele>
        <time>2022-04-16T10:35:30.849Z</time>
      </trkpt>
      <trkpt lat="45.64259" lon="5.33356">
        <ele>234</ele>
        <time>2022-04-16T10:35:31.849Z</time>
      </trkpt>
      <trkpt lat="45.64259" lon="5.33348">
        <ele>235</ele>
        <time>2022-04-16T10:35:32.849Z</time>
      </trkpt>
      <trkpt lat="45.6426" lon="5.3334">
        <ele>235</ele>
        <time>2022-04-16T10:35:33.849Z</time>
      </trkpt>
      <trkpt lat="45.6426" lon="5.33334">
        <ele>235</ele>
        <time>2022-04-16T10:35:34.849Z</time>
      </trkpt>
      <trkpt lat="45.6426" lon="5.33326">
        <ele>235</ele>
        <time>2022-04-16T10:35:35.849Z</time>
      </trkpt>
      <trkpt lat="45.64261" lon="5.33316">
        <ele>235</ele>
        <time>2022-04-16T10:35:36.849Z</time>
      </trkpt>
      <trkpt lat="45.64261" lon="5.33309">
        <ele>235</ele>
        <time>2022-04-16T10:35:37.848Z</time>
      </trkpt>
      <trkpt lat="45.64261" lon="5.33301">
        <ele>235</ele>
        <time>2022-04-16T10:35:38.848Z</time>
      </trkpt>
      <trkpt lat="45.64262" lon="5.33294">
        <ele>234</ele>
        <time>2022-04-16T10:35:39.849Z</time>
      </trkpt>
      <trkpt lat="45.64262" lon="5.33288">
        <ele>234</ele>
        <time>2022-04-16T10:35:40.849Z</time>
      </trkpt>
      <trkpt lat="45.64263" lon="5.33279">
        <ele>235</ele>
        <time>2022-04-16T10:35:41.849Z</time>
      </trkpt>
      <trkpt lat="45.64263" lon="5.33271">
        <ele>235</ele>
        <time>2022-04-16T10:35:42.849Z</time>
      </trkpt>
      <trkpt lat="45.64263" lon="5.33264">
        <ele>235</ele>
        <time>2022-04-16T10:35:43.848Z</time>
      </trkpt>
      <trkpt lat="45.64264" lon="5.33256">
        <ele>235</ele>
        <time>2022-04-16T10:35:44.849Z</time>
      </trkpt>
      <trkpt lat="45.64264" lon="5.3325">
        <ele>235</ele>
        <time>2022-04-16T10:35:45.848Z</time>
      </trkpt>
      <trkpt lat="45.64264" lon="5.33241">
        <ele>235</ele>
        <time>2022-04-16T10:35:46.848Z</time>
      </trkpt>
      <trkpt lat="45.64265" lon="5.33233">
        <ele>235</ele>
        <time>2022-04-16T10:35:47.849Z</time>
      </trkpt>
      <trkpt lat="45.64265" lon="5.33226">
        <ele>235</ele>
        <time>2022-04-16T10:35:48.848Z</time>
      </trkpt>
      <trkpt lat="45.64265" lon="5.33218">
        <ele>235</ele>
        <time>2022-04-16T10:35:49.849Z</time>
      </trkpt>
      <trkpt lat="45.64266" lon="5.33211">
        <ele>235</ele>
        <time>2022-04-16T10:35:50.849Z</time>
      </trkpt>
      <trkpt lat="45.64266" lon="5.33204">
        <ele>235</ele>
        <time>2022-04-16T10:35:51.849Z</time>
      </trkpt>
      <trkpt lat="45.64266" lon="5.33196">
        <ele>235</ele>
        <time>2022-04-16T10:35:52.849Z</time>
      </trkpt>
      <trkpt lat="45.64267" lon="5.3319">
        <ele>235</ele>
        <time>2022-04-16T10:35:53.849Z</time>
      </trkpt>
      <trkpt lat="45.64267" lon="5.33181">
        <ele>235</ele>
        <time>2022-04-16T10:35:54.849Z</time>
      </trkpt>
      <trkpt lat="45.64267" lon="5.33174">
        <ele>235</ele>
        <time>2022-04-16T10:35:55.849Z</time>
      </trkpt>
      <trkpt lat="45.64268" lon="5.33167">
        <ele>234</ele>
        <time>2022-04-16T10:35:56.849Z</time>
      </trkpt>
      <trkpt lat="45.64268" lon="5.3316">
        <ele>234</ele>
        <time>2022-04-16T10:35:57.849Z</time>
      </trkpt>
      <trkpt lat="45.64268" lon="5.33154">
        <ele>234</ele>
        <time>2022-04-16T10:35:58.849Z</time>
      </trkpt>
      <trkpt lat="45.64268" lon="5.33147">
        <ele>234</ele>
        <time>2022-04-16T10:35:59.849Z</time>
      </trkpt>
      <trkpt lat="45.64268" lon="5.33139">
        <ele>235</ele>
        <time>2022-04-16T10:36:00.849Z</time>
      </trkpt>
      <trkpt lat="45.64269" lon="5.33132">
        <ele>235</ele>
        <time>2022-04-16T10:36:01.848Z</time>
      </trkpt>
      <trkpt lat="45.64269" lon="5.33126">
        <ele>235</ele>
        <time>2022-04-16T10:36:02.849Z</time>
      </trkpt>
      <trkpt lat="45.64269" lon="5.33121">
        <ele>235</ele>
        <time>2022-04-16T10:36:03.849Z</time>
      </trkpt>
      <trkpt lat="45.6427" lon="5.33115">
        <ele>235</ele>
        <time>2022-04-16T10:36:04.849Z</time>
      </trkpt>
      <trkpt lat="45.6427" lon="5.33108">
        <ele>235</ele>
        <time>2022-04-16T10:36:05.849Z</time>
      </trkpt>
      <trkpt lat="45.6427" lon="5.33103">
        <ele>235</ele>
        <time>2022-04-16T10:36:06.849Z</time>
      </trkpt>
      <trkpt lat="45.64271" lon="5.33099">
        <ele>236</ele>
        <time>2022-04-16T10:36:07.849Z</time>
      </trkpt>
      <trkpt lat="45.64271" lon="5.33093">
        <ele>236</ele>
        <time>2022-04-16T10:36:08.849Z</time>
      </trkpt>
      <trkpt lat="45.64271" lon="5.33087">
        <ele>236</ele>
        <time>2022-04-16T10:36:09.849Z</time>
      </trkpt>
      <trkpt lat="45.64271" lon="5.33081">
        <ele>236</ele>
        <time>2022-04-16T10:36:10.849Z</time>
      </trkpt>
      <trkpt lat="45.64272" lon="5.33075">
        <ele>236</ele>
        <time>2022-04-16T10:36:11.849Z</time>
      </trkpt>
      <trkpt lat="45.64272" lon="5.3307">
        <ele>236</ele>
        <time>2022-04-16T10:36:12.849Z</time>
      </trkpt>
      <trkpt lat="45.64272" lon="5.33065">
        <ele>236</ele>
        <time>2022-04-16T10:36:13.849Z</time>
      </trkpt>
      <trkpt lat="45.64273" lon="5.33057">
        <ele>236</ele>
        <time>2022-04-16T10:36:14.849Z</time>
      </trkpt>
      <trkpt lat="45.64273" lon="5.33051">
        <ele>237</ele>
        <time>2022-04-16T10:36:15.849Z</time>
      </trkpt>
      <trkpt lat="45.64274" lon="5.33045">
        <ele>237</ele>
        <time>2022-04-16T10:36:16.849Z</time>
      </trkpt>
      <trkpt lat="45.64274" lon="5.3304">
        <ele>237</ele>
        <time>2022-04-16T10:36:17.849Z</time>
      </trkpt>
      <trkpt lat="45.64275" lon="5.33033">
        <ele>237</ele>
        <time>2022-04-16T10:36:18.849Z</time>
      </trkpt>
      <trkpt lat="45.64276" lon="5.33026">
        <ele>237</ele>
        <time>2022-04-16T10:36:19.849Z</time>
      </trkpt>
      <trkpt lat="45.64277" lon="5.3302">
        <ele>237</ele>
        <time>2022-04-16T10:36:20.849Z</time>
      </trkpt>
      <trkpt lat="45.64278" lon="5.33014">
        <ele>237</ele>
        <time>2022-04-16T10:36:21.849Z</time>
      </trkpt>
      <trkpt lat="45.64279" lon="5.33009">
        <ele>237</ele>
        <time>2022-04-16T10:36:22.849Z</time>
      </trkpt>
      <trkpt lat="45.64281" lon="5.33001">
        <ele>238</ele>
        <time>2022-04-16T10:36:23.849Z</time>
      </trkpt>
      <trkpt lat="45.64282" lon="5.32995">
        <ele>238</ele>
        <time>2022-04-16T10:36:24.848Z</time>
      </trkpt>
      <trkpt lat="45.64283" lon="5.32988">
        <ele>238</ele>
        <time>2022-04-16T10:36:25.849Z</time>
      </trkpt>
      <trkpt lat="45.64284" lon="5.32982">
        <ele>238</ele>
        <time>2022-04-16T10:36:26.849Z</time>
      </trkpt>
      <trkpt lat="45.64285" lon="5.32977">
        <ele>238</ele>
        <time>2022-04-16T10:36:27.849Z</time>
      </trkpt>
      <trkpt lat="45.64286" lon="5.32971">
        <ele>238</ele>
        <time>2022-04-16T10:36:28.849Z</time>
      </trkpt>
      <trkpt lat="45.64288" lon="5.32963">
        <ele>238</ele>
        <time>2022-04-16T10:36:29.849Z</time>
      </trkpt>
      <trkpt lat="45.64289" lon="5.32957">
        <ele>238</ele>
        <time>2022-04-16T10:36:30.849Z</time>
      </trkpt>
      <trkpt lat="45.6429" lon="5.32952">
        <ele>238</ele>
        <time>2022-04-16T10:36:31.849Z</time>
      </trkpt>
      <trkpt lat="45.64291" lon="5.32947">
        <ele>237</ele>
        <time>2022-04-16T10:36:32.848Z</time>
      </trkpt>
      <trkpt lat="45.64292" lon="5.32941">
        <ele>237</ele>
        <time>2022-04-16T10:36:33.849Z</time>
      </trkpt>
      <trkpt lat="45.64294" lon="5.32934">
        <ele>237</ele>
        <time>2022-04-16T10:36:34.848Z</time>
      </trkpt>
      <trkpt lat="45.64295" lon="5.32928">
        <ele>237</ele>
        <time>2022-04-16T10:36:35.849Z</time>
      </trkpt>
      <trkpt lat="45.64296" lon="5.32923">
        <ele>237</ele>
        <time>2022-04-16T10:36:36.849Z</time>
      </trkpt>
      <trkpt lat="45.64297" lon="5.32917">
        <ele>237</ele>
        <time>2022-04-16T10:36:37.848Z</time>
      </trkpt>
      <trkpt lat="45.64298" lon="5.32911">
        <ele>237</ele>
        <time>2022-04-16T10:36:38.849Z</time>
      </trkpt>
      <trkpt lat="45.64299" lon="5.32904">
        <ele>238</ele>
        <time>2022-04-16T10:36:39.848Z</time>
      </trkpt>
      <trkpt lat="45.643" lon="5.32897">
        <ele>238</ele>
        <time>2022-04-16T10:36:40.849Z</time>
      </trkpt>
      <trkpt lat="45.64301" lon="5.32892">
        <ele>238</ele>
        <time>2022-04-16T10:36:41.848Z</time>
      </trkpt>
      <trkpt lat="45.64303" lon="5.32886">
        <ele>238</ele>
        <time>2022-04-16T10:36:42.849Z</time>
      </trkpt>
      <trkpt lat="45.64304" lon="5.32878">
        <ele>238</ele>
        <time>2022-04-16T10:36:43.849Z</time>
      </trkpt>
      <trkpt lat="45.64306" lon="5.32871">
        <ele>238</ele>
        <time>2022-04-16T10:36:44.848Z</time>
      </trkpt>
      <trkpt lat="45.64307" lon="5.32865">
        <ele>238</ele>
        <time>2022-04-16T10:36:45.849Z</time>
      </trkpt>
      <trkpt lat="45.64308" lon="5.32858">
        <ele>238</ele>
        <time>2022-04-16T10:36:46.848Z</time>
      </trkpt>
      <trkpt lat="45.64309" lon="5.32853">
        <ele>238</ele>
        <time>2022-04-16T10:36:47.848Z</time>
      </trkpt>
      <trkpt lat="45.64311" lon="5.32845">
        <ele>238</ele>
        <time>2022-04-16T10:36:48.848Z</time>
      </trkpt>
      <trkpt lat="45.64312" lon="5.32838">
        <ele>238</ele>
        <time>2022-04-16T10:36:49.849Z</time>
      </trkpt>
      <trkpt lat="45.64314" lon="5.32831">
        <ele>238</ele>
        <time>2022-04-16T10:36:50.848Z</time>
      </trkpt>
      <trkpt lat="45.64315" lon="5.32825">
        <ele>237</ele>
        <time>2022-04-16T10:36:51.849Z</time>
      </trkpt>
      <trkpt lat="45.64317" lon="5.32818">
        <ele>237</ele>
        <time>2022-04-16T10:36:52.849Z</time>
      </trkpt>
      <trkpt lat="45.64318" lon="5.32811">
        <ele>237</ele>
        <time>2022-04-16T10:36:53.849Z</time>
      </trkpt>
      <trkpt lat="45.6432" lon="5.32804">
        <ele>237</ele>
        <time>2022-04-16T10:36:54.849Z</time>
      </trkpt>
      <trkpt lat="45.64321" lon="5.32799">
        <ele>237</ele>
        <time>2022-04-16T10:36:55.848Z</time>
      </trkpt>
      <trkpt lat="45.64322" lon="5.32792">
        <ele>237</ele>
        <time>2022-04-16T10:36:56.849Z</time>
      </trkpt>
      <trkpt lat="45.64323" lon="5.32784">
        <ele>237</ele>
        <time>2022-04-16T10:36:57.848Z</time>
      </trkpt>
      <trkpt lat="45.64324" lon="5.32777">
        <ele>237</ele>
        <time>2022-04-16T10:36:58.848Z</time>
      </trkpt>
      <trkpt lat="45.64326" lon="5.3277">
        <ele>238</ele>
        <time>2022-04-16T10:36:59.849Z</time>
      </trkpt>
      <trkpt lat="45.64327" lon="5.32763">
        <ele>238</ele>
        <time>2022-04-16T10:37:00.849Z</time>
      </trkpt>
      <trkpt lat="45.64328" lon="5.32756">
        <ele>238</ele>
        <time>2022-04-16T10:37:01.849Z</time>
      </trkpt>
      <trkpt lat="45.6433" lon="5.32749">
        <ele>238</ele>
        <time>2022-04-16T10:37:02.849Z</time>
      </trkpt>
      <trkpt lat="45.64331" lon="5.32742">
        <ele>238</ele>
        <time>2022-04-16T10:37:03.848Z</time>
      </trkpt>
      <trkpt lat="45.64332" lon="5.32734">
        <ele>238</ele>
        <time>2022-04-16T10:37:04.849Z</time>
      </trkpt>
      <trkpt lat="45.64334" lon="5.32729">
        <ele>238</ele>
        <time>2022-04-16T10:37:05.849Z</time>
      </trkpt>
      <trkpt lat="45.64335" lon="5.3272">
        <ele>238</ele>
        <time>2022-04-16T10:37:06.848Z</time>
      </trkpt>
      <trkpt lat="45.64337" lon="5.32713">
        <ele>238</ele>
        <time>2022-04-16T10:37:07.849Z</time>
      </trkpt>
      <trkpt lat="45.64338" lon="5.32706">
        <ele>237</ele>
        <time>2022-04-16T10:37:08.848Z</time>
      </trkpt>
      <trkpt lat="45.64339" lon="5.32699">
        <ele>238</ele>
        <time>2022-04-16T10:37:09.848Z</time>
      </trkpt>
      <trkpt lat="45.6434" lon="5.32693">
        <ele>238</ele>
        <time>2022-04-16T10:37:10.849Z</time>
      </trkpt>
      <trkpt lat="45.64342" lon="5.32685">
        <ele>238</ele>
        <time>2022-04-16T10:37:11.849Z</time>
      </trkpt>
      <trkpt lat="45.64343" lon="5.32678">
        <ele>237</ele>
        <time>2022-04-16T10:37:12.848Z</time>
      </trkpt>
      <trkpt lat="45.64344" lon="5.32672">
        <ele>237</ele>
        <time>2022-04-16T10:37:13.849Z</time>
      </trkpt>
      <trkpt lat="45.64345" lon="5.32665">
        <ele>236</ele>
        <time>2022-04-16T10:37:14.849Z</time>
      </trkpt>
      <trkpt lat="45.64346" lon="5.32658">
        <ele>236</ele>
        <time>2022-04-16T10:37:15.849Z</time>
      </trkpt>
      <trkpt lat="45.64347" lon="5.32651">
        <ele>235</ele>
        <time>2022-04-16T10:37:16.849Z</time>
      </trkpt>
      <trkpt lat="45.64348" lon="5.32644">
        <ele>235</ele>
        <time>2022-04-16T10:37:17.849Z</time>
      </trkpt>
      <trkpt lat="45.64349" lon="5.32636">
        <ele>235</ele>
        <time>2022-04-16T10:37:18.848Z</time>
      </trkpt>
      <trkpt lat="45.64349" lon="5.3263">
        <ele>236</ele>
        <time>2022-04-16T10:37:19.849Z</time>
      </trkpt>
      <trkpt lat="45.64351" lon="5.32621">
        <ele>236</ele>
        <time>2022-04-16T10:37:20.849Z</time>
      </trkpt>
      <trkpt lat="45.64351" lon="5.32614">
        <ele>235</ele>
        <time>2022-04-16T10:37:21.849Z</time>
      </trkpt>
      <trkpt lat="45.64353" lon="5.32606">
        <ele>235</ele>
        <time>2022-04-16T10:37:22.848Z</time>
      </trkpt>
      <trkpt lat="45.64354" lon="5.32598">
        <ele>235</ele>
        <time>2022-04-16T10:37:23.848Z</time>
      </trkpt>
      <trkpt lat="45.64354" lon="5.32593">
        <ele>235</ele>
        <time>2022-04-16T10:37:24.849Z</time>
      </trkpt>
      <trkpt lat="45.64355" lon="5.32584">
        <ele>235</ele>
        <time>2022-04-16T10:37:25.848Z</time>
      </trkpt>
      <trkpt lat="45.64356" lon="5.32576">
        <ele>235</ele>
        <time>2022-04-16T10:37:26.849Z</time>
      </trkpt>
      <trkpt lat="45.64357" lon="5.32568">
        <ele>236</ele>
        <time>2022-04-16T10:37:27.849Z</time>
      </trkpt>
      <trkpt lat="45.64358" lon="5.32561">
        <ele>236</ele>
        <time>2022-04-16T10:37:28.848Z</time>
      </trkpt>
      <trkpt lat="45.64359" lon="5.32553">
        <ele>236</ele>
        <time>2022-04-16T10:37:29.849Z</time>
      </trkpt>
      <trkpt lat="45.6436" lon="5.32545">
        <ele>236</ele>
        <time>2022-04-16T10:37:30.848Z</time>
      </trkpt>
      <trkpt lat="45.64361" lon="5.32537">
        <ele>236</ele>
        <time>2022-04-16T10:37:31.849Z</time>
      </trkpt>
      <trkpt lat="45.64362" lon="5.32529">
        <ele>236</ele>
        <time>2022-04-16T10:37:32.848Z</time>
      </trkpt>
      <trkpt lat="45.64363" lon="5.32521">
        <ele>235</ele>
        <time>2022-04-16T10:37:33.849Z</time>
      </trkpt>
      <trkpt lat="45.64364" lon="5.32513">
        <ele>235</ele>
        <time>2022-04-16T10:37:34.849Z</time>
      </trkpt>
      <trkpt lat="45.64365" lon="5.32505">
        <ele>235</ele>
        <time>2022-04-16T10:37:35.849Z</time>
      </trkpt>
      <trkpt lat="45.64366" lon="5.32497">
        <ele>235</ele>
        <time>2022-04-16T10:37:36.849Z</time>
      </trkpt>
      <trkpt lat="45.64367" lon="5.32489">
        <ele>235</ele>
        <time>2022-04-16T10:37:37.849Z</time>
      </trkpt>
      <trkpt lat="45.64367" lon="5.32481">
        <ele>236</ele>
        <time>2022-04-16T10:37:38.849Z</time>
      </trkpt>
      <trkpt lat="45.64368" lon="5.32473">
        <ele>235</ele>
        <time>2022-04-16T10:37:39.848Z</time>
      </trkpt>
      <trkpt lat="45.64369" lon="5.32465">
        <ele>235</ele>
        <time>2022-04-16T10:37:40.849Z</time>
      </trkpt>
      <trkpt lat="45.6437" lon="5.32457">
        <ele>235</ele>
        <time>2022-04-16T10:37:41.848Z</time>
      </trkpt>
      <trkpt lat="45.64371" lon="5.3245">
        <ele>235</ele>
        <time>2022-04-16T10:37:42.848Z</time>
      </trkpt>
      <trkpt lat="45.64371" lon="5.32442">
        <ele>235</ele>
        <time>2022-04-16T10:37:43.848Z</time>
      </trkpt>
      <trkpt lat="45.64373" lon="5.32433">
        <ele>234</ele>
        <time>2022-04-16T10:37:44.849Z</time>
      </trkpt>
      <trkpt lat="45.64373" lon="5.32425">
        <ele>234</ele>
        <time>2022-04-16T10:37:45.849Z</time>
      </trkpt>
      <trkpt lat="45.64374" lon="5.32416">
        <ele>233</ele>
        <time>2022-04-16T10:37:46.848Z</time>
      </trkpt>
      <trkpt lat="45.64375" lon="5.32408">
        <ele>233</ele>
        <time>2022-04-16T10:37:47.849Z</time>
      </trkpt>
      <trkpt lat="45.64376" lon="5.324">
        <ele>233</ele>
        <time>2022-04-16T10:37:48.849Z</time>
      </trkpt>
      <trkpt lat="45.64377" lon="5.32392">
        <ele>233</ele>
        <time>2022-04-16T10:37:49.849Z</time>
      </trkpt>
      <trkpt lat="45.64378" lon="5.32384">
        <ele>233</ele>
        <time>2022-04-16T10:37:50.848Z</time>
      </trkpt>
      <trkpt lat="45.64379" lon="5.32376">
        <ele>233</ele>
        <time>2022-04-16T10:37:51.849Z</time>
      </trkpt>
      <trkpt lat="45.6438" lon="5.32368">
        <ele>233</ele>
        <time>2022-04-16T10:37:52.849Z</time>
      </trkpt>
      <trkpt lat="45.64381" lon="5.3236">
        <ele>233</ele>
        <time>2022-04-16T10:37:53.849Z</time>
      </trkpt>
      <trkpt lat="45.64382" lon="5.32352">
        <ele>233</ele>
        <time>2022-04-16T10:37:54.849Z</time>
      </trkpt>
      <trkpt lat="45.64383" lon="5.32343">
        <ele>234</ele>
        <time>2022-04-16T10:37:55.849Z</time>
      </trkpt>
      <trkpt lat="45.64384" lon="5.32335">
        <ele>234</ele>
        <time>2022-04-16T10:37:56.849Z</time>
      </trkpt>
      <trkpt lat="45.64385" lon="5.32326">
        <ele>234</ele>
        <time>2022-04-16T10:37:57.848Z</time>
      </trkpt>
      <trkpt lat="45.64386" lon="5.32318">
        <ele>234</ele>
        <time>2022-04-16T10:37:58.849Z</time>
      </trkpt>
      <trkpt lat="45.64387" lon="5.3231">
        <ele>234</ele>
        <time>2022-04-16T10:37:59.848Z</time>
      </trkpt>
      <trkpt lat="45.64388" lon="5.32302">
        <ele>234</ele>
        <time>2022-04-16T10:38:00.848Z</time>
      </trkpt>
      <trkpt lat="45.64389" lon="5.32295">
        <ele>234</ele>
        <time>2022-04-16T10:38:01.849Z</time>
      </trkpt>
      <trkpt lat="45.6439" lon="5.32287">
        <ele>234</ele>
        <time>2022-04-16T10:38:02.848Z</time>
      </trkpt>
      <trkpt lat="45.64391" lon="5.32279">
        <ele>234</ele>
        <time>2022-04-16T10:38:03.849Z</time>
      </trkpt>
      <trkpt lat="45.64392" lon="5.32271">
        <ele>234</ele>
        <time>2022-04-16T10:38:04.849Z</time>
      </trkpt>
      <trkpt lat="45.64393" lon="5.32263">
        <ele>234</ele>
        <time>2022-04-16T10:38:05.849Z</time>
      </trkpt>
      <trkpt lat="45.64394" lon="5.32256">
        <ele>234</ele>
        <time>2022-04-16T10:38:06.849Z</time>
      </trkpt>
      <trkpt lat="45.64395" lon="5.32248">
        <ele>233</ele>
        <time>2022-04-16T10:38:07.849Z</time>
      </trkpt>
      <trkpt lat="45.64396" lon="5.3224">
        <ele>233</ele>
        <time>2022-04-16T10:38:08.849Z</time>
      </trkpt>
      <trkpt lat="45.64396" lon="5.32233">
        <ele>233</ele>
        <time>2022-04-16T10:38:09.849Z</time>
      </trkpt>
      <trkpt lat="45.64397" lon="5.32226">
        <ele>233</ele>
        <time>2022-04-16T10:38:10.849Z</time>
      </trkpt>
      <trkpt lat="45.64398" lon="5.32219">
        <ele>234</ele>
        <time>2022-04-16T10:38:11.849Z</time>
      </trkpt>
      <trkpt lat="45.64398" lon="5.32211">
        <ele>234</ele>
        <time>2022-04-16T10:38:12.848Z</time>
      </trkpt>
      <trkpt lat="45.64399" lon="5.32204">
        <ele>234</ele>
        <time>2022-04-16T10:38:13.849Z</time>
      </trkpt>
      <trkpt lat="45.644" lon="5.32198">
        <ele>235</ele>
        <time>2022-04-16T10:38:14.849Z</time>
      </trkpt>
      <trkpt lat="45.64401" lon="5.32191">
        <ele>235</ele>
        <time>2022-04-16T10:38:15.849Z</time>
      </trkpt>
      <trkpt lat="45.64402" lon="5.32184">
        <ele>235</ele>
        <time>2022-04-16T10:38:16.849Z</time>
      </trkpt>
      <trkpt lat="45.64403" lon="5.32178">
        <ele>235</ele>
        <time>2022-04-16T10:38:17.849Z</time>
      </trkpt>
      <trkpt lat="45.64404" lon="5.32171">
        <ele>235</ele>
        <time>2022-04-16T10:38:18.848Z</time>
      </trkpt>
      <trkpt lat="45.64405" lon="5.32165">
        <ele>235</ele>
        <time>2022-04-16T10:38:19.848Z</time>
      </trkpt>
      <trkpt lat="45.64405" lon="5.32159">
        <ele>234</ele>
        <time>2022-04-16T10:38:20.849Z</time>
      </trkpt>
      <trkpt lat="45.64406" lon="5.32153">
        <ele>234</ele>
        <time>2022-04-16T10:38:21.848Z</time>
      </trkpt>
      <trkpt lat="45.64407" lon="5.32147">
        <ele>234</ele>
        <time>2022-04-16T10:38:22.849Z</time>
      </trkpt>
      <trkpt lat="45.64407" lon="5.32141">
        <ele>234</ele>
        <time>2022-04-16T10:38:23.849Z</time>
      </trkpt>
      <trkpt lat="45.64408" lon="5.32136">
        <ele>234</ele>
        <time>2022-04-16T10:38:24.849Z</time>
      </trkpt>
      <trkpt lat="45.64409" lon="5.3213">
        <ele>234</ele>
        <time>2022-04-16T10:38:25.849Z</time>
      </trkpt>
      <trkpt lat="45.64409" lon="5.32124">
        <ele>234</ele>
        <time>2022-04-16T10:38:26.848Z</time>
      </trkpt>
      <trkpt lat="45.6441" lon="5.32118">
        <ele>234</ele>
        <time>2022-04-16T10:38:27.849Z</time>
      </trkpt>
      <trkpt lat="45.6441" lon="5.32112">
        <ele>234</ele>
        <time>2022-04-16T10:38:28.849Z</time>
      </trkpt>
      <trkpt lat="45.64411" lon="5.32107">
        <ele>234</ele>
        <time>2022-04-16T10:38:29.849Z</time>
      </trkpt>
      <trkpt lat="45.64412" lon="5.32101">
        <ele>234</ele>
        <time>2022-04-16T10:38:30.849Z</time>
      </trkpt>
      <trkpt lat="45.64413" lon="5.32096">
        <ele>234</ele>
        <time>2022-04-16T10:38:31.849Z</time>
      </trkpt>
      <trkpt lat="45.64413" lon="5.3209">
        <ele>234</ele>
        <time>2022-04-16T10:38:32.849Z</time>
      </trkpt>
      <trkpt lat="45.64414" lon="5.32084">
        <ele>235</ele>
        <time>2022-04-16T10:38:33.848Z</time>
      </trkpt>
      <trkpt lat="45.64415" lon="5.32079">
        <ele>235</ele>
        <time>2022-04-16T10:38:34.849Z</time>
      </trkpt>
      <trkpt lat="45.64415" lon="5.32073">
        <ele>235</ele>
        <time>2022-04-16T10:38:35.848Z</time>
      </trkpt>
      <trkpt lat="45.64416" lon="5.32067">
        <ele>235</ele>
        <time>2022-04-16T10:38:36.849Z</time>
      </trkpt>
      <trkpt lat="45.64417" lon="5.32062">
        <ele>235</ele>
        <time>2022-04-16T10:38:37.848Z</time>
      </trkpt>
      <trkpt lat="45.64417" lon="5.32056">
        <ele>235</ele>
        <time>2022-04-16T10:38:38.849Z</time>
      </trkpt>
      <trkpt lat="45.64418" lon="5.3205">
        <ele>236</ele>
        <time>2022-04-16T10:38:39.849Z</time>
      </trkpt>
      <trkpt lat="45.64418" lon="5.32044">
        <ele>236</ele>
        <time>2022-04-16T10:38:40.848Z</time>
      </trkpt>
      <trkpt lat="45.64419" lon="5.32038">
        <ele>236</ele>
        <time>2022-04-16T10:38:41.849Z</time>
      </trkpt>
      <trkpt lat="45.64419" lon="5.32032">
        <ele>237</ele>
        <time>2022-04-16T10:38:42.848Z</time>
      </trkpt>
      <trkpt lat="45.64419" lon="5.32026">
        <ele>237</ele>
        <time>2022-04-16T10:38:43.849Z</time>
      </trkpt>
      <trkpt lat="45.64419" lon="5.32019">
        <ele>238</ele>
        <time>2022-04-16T10:38:44.849Z</time>
      </trkpt>
      <trkpt lat="45.6442" lon="5.32013">
        <ele>238</ele>
        <time>2022-04-16T10:38:45.849Z</time>
      </trkpt>
      <trkpt lat="45.6442" lon="5.32007">
        <ele>238</ele>
        <time>2022-04-16T10:38:46.848Z</time>
      </trkpt>
      <trkpt lat="45.6442" lon="5.32">
        <ele>238</ele>
        <time>2022-04-16T10:38:47.849Z</time>
      </trkpt>
      <trkpt lat="45.6442" lon="5.31993">
        <ele>238</ele>
        <time>2022-04-16T10:38:48.849Z</time>
      </trkpt>
      <trkpt lat="45.6442" lon="5.31986">
        <ele>238</ele>
        <time>2022-04-16T10:38:49.849Z</time>
      </trkpt>
      <trkpt lat="45.6442" lon="5.3198">
        <ele>238</ele>
        <time>2022-04-16T10:38:50.848Z</time>
      </trkpt>
      <trkpt lat="45.6442" lon="5.31973">
        <ele>238</ele>
        <time>2022-04-16T10:38:51.849Z</time>
      </trkpt>
      <trkpt lat="45.64421" lon="5.31966">
        <ele>238</ele>
        <time>2022-04-16T10:38:52.848Z</time>
      </trkpt>
      <trkpt lat="45.64421" lon="5.31959">
        <ele>238</ele>
        <time>2022-04-16T10:38:53.849Z</time>
      </trkpt>
      <trkpt lat="45.64421" lon="5.31952">
        <ele>239</ele>
        <time>2022-04-16T10:38:54.849Z</time>
      </trkpt>
      <trkpt lat="45.64421" lon="5.31945">
        <ele>239</ele>
        <time>2022-04-16T10:38:55.849Z</time>
      </trkpt>
      <trkpt lat="45.64421" lon="5.31938">
        <ele>239</ele>
        <time>2022-04-16T10:38:56.849Z</time>
      </trkpt>
      <trkpt lat="45.64422" lon="5.31931">
        <ele>239</ele>
        <time>2022-04-16T10:38:57.849Z</time>
      </trkpt>
      <trkpt lat="45.64422" lon="5.31924">
        <ele>239</ele>
        <time>2022-04-16T10:38:58.849Z</time>
      </trkpt>
      <trkpt lat="45.64422" lon="5.31917">
        <ele>239</ele>
        <time>2022-04-16T10:38:59.848Z</time>
      </trkpt>
      <trkpt lat="45.64422" lon="5.3191">
        <ele>239</ele>
        <time>2022-04-16T10:39:00.849Z</time>
      </trkpt>
      <trkpt lat="45.64422" lon="5.31903">
        <ele>239</ele>
        <time>2022-04-16T10:39:01.848Z</time>
      </trkpt>
      <trkpt lat="45.64423" lon="5.31896">
        <ele>239</ele>
        <time>2022-04-16T10:39:02.848Z</time>
      </trkpt>
      <trkpt lat="45.64423" lon="5.31889">
        <ele>239</ele>
        <time>2022-04-16T10:39:03.848Z</time>
      </trkpt>
      <trkpt lat="45.64423" lon="5.31882">
        <ele>239</ele>
        <time>2022-04-16T10:39:04.848Z</time>
      </trkpt>
      <trkpt lat="45.64423" lon="5.31874">
        <ele>239</ele>
        <time>2022-04-16T10:39:05.849Z</time>
      </trkpt>
      <trkpt lat="45.64423" lon="5.31867">
        <ele>238</ele>
        <time>2022-04-16T10:39:06.849Z</time>
      </trkpt>
      <trkpt lat="45.64423" lon="5.3186">
        <ele>238</ele>
        <time>2022-04-16T10:39:07.849Z</time>
      </trkpt>
      <trkpt lat="45.64423" lon="5.31853">
        <ele>238</ele>
        <time>2022-04-16T10:39:08.849Z</time>
      </trkpt>
      <trkpt lat="45.64423" lon="5.31846">
        <ele>238</ele>
        <time>2022-04-16T10:39:09.849Z</time>
      </trkpt>
      <trkpt lat="45.64423" lon="5.31838">
        <ele>238</ele>
        <time>2022-04-16T10:39:10.848Z</time>
      </trkpt>
      <trkpt lat="45.64423" lon="5.31831">
        <ele>238</ele>
        <time>2022-04-16T10:39:11.849Z</time>
      </trkpt>
      <trkpt lat="45.64423" lon="5.31823">
        <ele>238</ele>
        <time>2022-04-16T10:39:12.848Z</time>
      </trkpt>
      <trkpt lat="45.64423" lon="5.31815">
        <ele>238</ele>
        <time>2022-04-16T10:39:13.848Z</time>
      </trkpt>
      <trkpt lat="45.64423" lon="5.31808">
        <ele>238</ele>
        <time>2022-04-16T10:39:14.848Z</time>
      </trkpt>
      <trkpt lat="45.64423" lon="5.318">
        <ele>238</ele>
        <time>2022-04-16T10:39:15.849Z</time>
      </trkpt>
      <trkpt lat="45.64424" lon="5.31793">
        <ele>238</ele>
        <time>2022-04-16T10:39:16.849Z</time>
      </trkpt>
      <trkpt lat="45.64424" lon="5.31785">
        <ele>238</ele>
        <time>2022-04-16T10:39:17.849Z</time>
      </trkpt>
      <trkpt lat="45.64424" lon="5.31778">
        <ele>238</ele>
        <time>2022-04-16T10:39:18.849Z</time>
      </trkpt>
      <trkpt lat="45.64424" lon="5.31771">
        <ele>238</ele>
        <time>2022-04-16T10:39:19.848Z</time>
      </trkpt>
      <trkpt lat="45.64424" lon="5.31764">
        <ele>238</ele>
        <time>2022-04-16T10:39:20.849Z</time>
      </trkpt>
      <trkpt lat="45.64425" lon="5.31757">
        <ele>238</ele>
        <time>2022-04-16T10:39:21.849Z</time>
      </trkpt>
      <trkpt lat="45.64425" lon="5.31749">
        <ele>237</ele>
        <time>2022-04-16T10:39:22.848Z</time>
      </trkpt>
      <trkpt lat="45.64425" lon="5.31742">
        <ele>237</ele>
        <time>2022-04-16T10:39:23.849Z</time>
      </trkpt>
      <trkpt lat="45.64425" lon="5.31735">
        <ele>237</ele>
        <time>2022-04-16T10:39:24.849Z</time>
      </trkpt>
      <trkpt lat="45.64425" lon="5.31727">
        <ele>237</ele>
        <time>2022-04-16T10:39:25.849Z</time>
      </trkpt>
      <trkpt lat="45.64425" lon="5.3172">
        <ele>237</ele>
        <time>2022-04-16T10:39:26.849Z</time>
      </trkpt>
      <trkpt lat="45.64426" lon="5.31712">
        <ele>237</ele>
        <time>2022-04-16T10:39:27.849Z</time>
      </trkpt>
      <trkpt lat="45.64426" lon="5.31704">
        <ele>237</ele>
        <time>2022-04-16T10:39:28.849Z</time>
      </trkpt>
      <trkpt lat="45.64426" lon="5.31697">
        <ele>237</ele>
        <time>2022-04-16T10:39:29.848Z</time>
      </trkpt>
      <trkpt lat="45.64426" lon="5.31689">
        <ele>237</ele>
        <time>2022-04-16T10:39:30.849Z</time>
      </trkpt>
      <trkpt lat="45.64426" lon="5.3168">
        <ele>237</ele>
        <time>2022-04-16T10:39:31.849Z</time>
      </trkpt>
      <trkpt lat="45.64426" lon="5.31672">
        <ele>237</ele>
        <time>2022-04-16T10:39:32.848Z</time>
      </trkpt>
      <trkpt lat="45.64427" lon="5.31664">
        <ele>236</ele>
        <time>2022-04-16T10:39:33.849Z</time>
      </trkpt>
      <trkpt lat="45.64427" lon="5.31655">
        <ele>236</ele>
        <time>2022-04-16T10:39:34.848Z</time>
      </trkpt>
      <trkpt lat="45.64427" lon="5.31646">
        <ele>237</ele>
        <time>2022-04-16T10:39:35.849Z</time>
      </trkpt>
      <trkpt lat="45.64427" lon="5.31637">
        <ele>237</ele>
        <time>2022-04-16T10:39:36.849Z</time>
      </trkpt>
      <trkpt lat="45.64427" lon="5.31628">
        <ele>237</ele>
        <time>2022-04-16T10:39:37.849Z</time>
      </trkpt>
      <trkpt lat="45.64427" lon="5.31618">
        <ele>237</ele>
        <time>2022-04-16T10:39:38.849Z</time>
      </trkpt>
      <trkpt lat="45.64427" lon="5.31609">
        <ele>237</ele>
        <time>2022-04-16T10:39:39.849Z</time>
      </trkpt>
      <trkpt lat="45.64428" lon="5.316">
        <ele>237</ele>
        <time>2022-04-16T10:39:40.849Z</time>
      </trkpt>
      <trkpt lat="45.64428" lon="5.3159">
        <ele>237</ele>
        <time>2022-04-16T10:39:41.849Z</time>
      </trkpt>
      <trkpt lat="45.64428" lon="5.3158">
        <ele>237</ele>
        <time>2022-04-16T10:39:42.849Z</time>
      </trkpt>
      <trkpt lat="45.64428" lon="5.3157">
        <ele>238</ele>
        <time>2022-04-16T10:39:43.849Z</time>
      </trkpt>
      <trkpt lat="45.64428" lon="5.3156">
        <ele>237</ele>
        <time>2022-04-16T10:39:44.849Z</time>
      </trkpt>
      <trkpt lat="45.64428" lon="5.3155">
        <ele>237</ele>
        <time>2022-04-16T10:39:45.849Z</time>
      </trkpt>
      <trkpt lat="45.64429" lon="5.3154">
        <ele>237</ele>
        <time>2022-04-16T10:39:46.849Z</time>
      </trkpt>
      <trkpt lat="45.64429" lon="5.31529">
        <ele>237</ele>
        <time>2022-04-16T10:39:47.848Z</time>
      </trkpt>
      <trkpt lat="45.64429" lon="5.31519">
        <ele>236</ele>
        <time>2022-04-16T10:39:48.849Z</time>
      </trkpt>
      <trkpt lat="45.64429" lon="5.31508">
        <ele>236</ele>
        <time>2022-04-16T10:39:49.849Z</time>
      </trkpt>
      <trkpt lat="45.64429" lon="5.31498">
        <ele>236</ele>
        <time>2022-04-16T10:39:50.849Z</time>
      </trkpt>
      <trkpt lat="45.6443" lon="5.31487">
        <ele>236</ele>
        <time>2022-04-16T10:39:51.848Z</time>
      </trkpt>
      <trkpt lat="45.6443" lon="5.31476">
        <ele>236</ele>
        <time>2022-04-16T10:39:52.849Z</time>
      </trkpt>
      <trkpt lat="45.6443" lon="5.31465">
        <ele>236</ele>
        <time>2022-04-16T10:39:53.849Z</time>
      </trkpt>
      <trkpt lat="45.6443" lon="5.31455">
        <ele>236</ele>
        <time>2022-04-16T10:39:54.848Z</time>
      </trkpt>
      <trkpt lat="45.6443" lon="5.31444">
        <ele>236</ele>
        <time>2022-04-16T10:39:55.849Z</time>
      </trkpt>
      <trkpt lat="45.6443" lon="5.31433">
        <ele>236</ele>
        <time>2022-04-16T10:39:56.849Z</time>
      </trkpt>
      <trkpt lat="45.6443" lon="5.31423">
        <ele>235</ele>
        <time>2022-04-16T10:39:57.848Z</time>
      </trkpt>
      <trkpt lat="45.6443" lon="5.31412">
        <ele>235</ele>
        <time>2022-04-16T10:39:58.849Z</time>
      </trkpt>
      <trkpt lat="45.64431" lon="5.31401">
        <ele>234</ele>
        <time>2022-04-16T10:39:59.848Z</time>
      </trkpt>
      <trkpt lat="45.64431" lon="5.31391">
        <ele>233</ele>
        <time>2022-04-16T10:40:00.849Z</time>
      </trkpt>
      <trkpt lat="45.64431" lon="5.3138">
        <ele>232</ele>
        <time>2022-04-16T10:40:01.849Z</time>
      </trkpt>
      <trkpt lat="45.64431" lon="5.31369">
        <ele>231</ele>
        <time>2022-04-16T10:40:02.849Z</time>
      </trkpt>
      <trkpt lat="45.64431" lon="5.31358">
        <ele>231</ele>
        <time>2022-04-16T10:40:03.848Z</time>
      </trkpt>
      <trkpt lat="45.64431" lon="5.31347">
        <ele>231</ele>
        <time>2022-04-16T10:40:04.849Z</time>
      </trkpt>
      <trkpt lat="45.64432" lon="5.31337">
        <ele>230</ele>
        <time>2022-04-16T10:40:05.849Z</time>
      </trkpt>
      <trkpt lat="45.64432" lon="5.31326">
        <ele>230</ele>
        <time>2022-04-16T10:40:06.849Z</time>
      </trkpt>
      <trkpt lat="45.64432" lon="5.31316">
        <ele>229</ele>
        <time>2022-04-16T10:40:07.849Z</time>
      </trkpt>
      <trkpt lat="45.64432" lon="5.31306">
        <ele>229</ele>
        <time>2022-04-16T10:40:08.848Z</time>
      </trkpt>
      <trkpt lat="45.64432" lon="5.31296">
        <ele>229</ele>
        <time>2022-04-16T10:40:09.849Z</time>
      </trkpt>
      <trkpt lat="45.64432" lon="5.31286">
        <ele>229</ele>
        <time>2022-04-16T10:40:10.848Z</time>
      </trkpt>
      <trkpt lat="45.64432" lon="5.31277">
        <ele>228</ele>
        <time>2022-04-16T10:40:11.849Z</time>
      </trkpt>
      <trkpt lat="45.64433" lon="5.31267">
        <ele>228</ele>
        <time>2022-04-16T10:40:12.849Z</time>
      </trkpt>
      <trkpt lat="45.64433" lon="5.31258">
        <ele>228</ele>
        <time>2022-04-16T10:40:13.848Z</time>
      </trkpt>
      <trkpt lat="45.64433" lon="5.31249">
        <ele>228</ele>
        <time>2022-04-16T10:40:14.849Z</time>
      </trkpt>
      <trkpt lat="45.64434" lon="5.3124">
        <ele>228</ele>
        <time>2022-04-16T10:40:15.848Z</time>
      </trkpt>
      <trkpt lat="45.64434" lon="5.31231">
        <ele>228</ele>
        <time>2022-04-16T10:40:16.848Z</time>
      </trkpt>
      <trkpt lat="45.64434" lon="5.31222">
        <ele>228</ele>
        <time>2022-04-16T10:40:17.849Z</time>
      </trkpt>
      <trkpt lat="45.64434" lon="5.31213">
        <ele>228</ele>
        <time>2022-04-16T10:40:18.848Z</time>
      </trkpt>
      <trkpt lat="45.64434" lon="5.31205">
        <ele>228</ele>
        <time>2022-04-16T10:40:19.849Z</time>
      </trkpt>
      <trkpt lat="45.64434" lon="5.31196">
        <ele>228</ele>
        <time>2022-04-16T10:40:20.849Z</time>
      </trkpt>
      <trkpt lat="45.64434" lon="5.31188">
        <ele>228</ele>
        <time>2022-04-16T10:40:21.849Z</time>
      </trkpt>
      <trkpt lat="45.64434" lon="5.31179">
        <ele>228</ele>
        <time>2022-04-16T10:40:22.849Z</time>
      </trkpt>
      <trkpt lat="45.64434" lon="5.31171">
        <ele>228</ele>
        <time>2022-04-16T10:40:23.848Z</time>
      </trkpt>
      <trkpt lat="45.64434" lon="5.31162">
        <ele>228</ele>
        <time>2022-04-16T10:40:24.849Z</time>
      </trkpt>
      <trkpt lat="45.64434" lon="5.31154">
        <ele>228</ele>
        <time>2022-04-16T10:40:25.849Z</time>
      </trkpt>
      <trkpt lat="45.64434" lon="5.31145">
        <ele>228</ele>
        <time>2022-04-16T10:40:26.849Z</time>
      </trkpt>
      <trkpt lat="45.64433" lon="5.31137">
        <ele>228</ele>
        <time>2022-04-16T10:40:27.849Z</time>
      </trkpt>
      <trkpt lat="45.64433" lon="5.31128">
        <ele>228</ele>
        <time>2022-04-16T10:40:28.849Z</time>
      </trkpt>
      <trkpt lat="45.64432" lon="5.3112">
        <ele>228</ele>
        <time>2022-04-16T10:40:29.849Z</time>
      </trkpt>
      <trkpt lat="45.64432" lon="5.31111">
        <ele>228</ele>
        <time>2022-04-16T10:40:30.849Z</time>
      </trkpt>
      <trkpt lat="45.64431" lon="5.31103">
        <ele>228</ele>
        <time>2022-04-16T10:40:31.849Z</time>
      </trkpt>
      <trkpt lat="45.64431" lon="5.31094">
        <ele>228</ele>
        <time>2022-04-16T10:40:32.849Z</time>
      </trkpt>
      <trkpt lat="45.6443" lon="5.31086">
        <ele>228</ele>
        <time>2022-04-16T10:40:33.848Z</time>
      </trkpt>
      <trkpt lat="45.6443" lon="5.31078">
        <ele>228</ele>
        <time>2022-04-16T10:40:34.849Z</time>
      </trkpt>
      <trkpt lat="45.64429" lon="5.31069">
        <ele>228</ele>
        <time>2022-04-16T10:40:35.849Z</time>
      </trkpt>
      <trkpt lat="45.64429" lon="5.31061">
        <ele>228</ele>
        <time>2022-04-16T10:40:36.849Z</time>
      </trkpt>
      <trkpt lat="45.64428" lon="5.31052">
        <ele>228</ele>
        <time>2022-04-16T10:40:37.849Z</time>
      </trkpt>
      <trkpt lat="45.64428" lon="5.31044">
        <ele>229</ele>
        <time>2022-04-16T10:40:38.849Z</time>
      </trkpt>
      <trkpt lat="45.64427" lon="5.31035">
        <ele>229</ele>
        <time>2022-04-16T10:40:39.848Z</time>
      </trkpt>
      <trkpt lat="45.64427" lon="5.31027">
        <ele>229</ele>
        <time>2022-04-16T10:40:40.849Z</time>
      </trkpt>
      <trkpt lat="45.64426" lon="5.31019">
        <ele>229</ele>
        <time>2022-04-16T10:40:41.849Z</time>
      </trkpt>
      <trkpt lat="45.64426" lon="5.31011">
        <ele>229</ele>
        <time>2022-04-16T10:40:42.849Z</time>
      </trkpt>
      <trkpt lat="45.64425" lon="5.31003">
        <ele>229</ele>
        <time>2022-04-16T10:40:43.849Z</time>
      </trkpt>
      <trkpt lat="45.64424" lon="5.30995">
        <ele>230</ele>
        <time>2022-04-16T10:40:44.849Z</time>
      </trkpt>
      <trkpt lat="45.64423" lon="5.30988">
        <ele>230</ele>
        <time>2022-04-16T10:40:45.848Z</time>
      </trkpt>
      <trkpt lat="45.64422" lon="5.3098">
        <ele>230</ele>
        <time>2022-04-16T10:40:46.849Z</time>
      </trkpt>
      <trkpt lat="45.64422" lon="5.30973">
        <ele>230</ele>
        <time>2022-04-16T10:40:47.849Z</time>
      </trkpt>
      <trkpt lat="45.64421" lon="5.30965">
        <ele>230</ele>
        <time>2022-04-16T10:40:48.849Z</time>
      </trkpt>
      <trkpt lat="45.6442" lon="5.30957">
        <ele>230</ele>
        <time>2022-04-16T10:40:49.849Z</time>
      </trkpt>
      <trkpt lat="45.64419" lon="5.3095">
        <ele>230</ele>
        <time>2022-04-16T10:40:50.849Z</time>
      </trkpt>
      <trkpt lat="45.64418" lon="5.30942">
        <ele>230</ele>
        <time>2022-04-16T10:40:51.849Z</time>
      </trkpt>
      <trkpt lat="45.64418" lon="5.30935">
        <ele>230</ele>
        <time>2022-04-16T10:40:52.849Z</time>
      </trkpt>
      <trkpt lat="45.64417" lon="5.30927">
        <ele>230</ele>
        <time>2022-04-16T10:40:53.848Z</time>
      </trkpt>
      <trkpt lat="45.64417" lon="5.3092">
        <ele>229</ele>
        <time>2022-04-16T10:40:54.849Z</time>
      </trkpt>
      <trkpt lat="45.64417" lon="5.30912">
        <ele>229</ele>
        <time>2022-04-16T10:40:55.849Z</time>
      </trkpt>
      <trkpt lat="45.64417" lon="5.30905">
        <ele>229</ele>
        <time>2022-04-16T10:40:56.848Z</time>
      </trkpt>
      <trkpt lat="45.64418" lon="5.30897">
        <ele>229</ele>
        <time>2022-04-16T10:40:57.849Z</time>
      </trkpt>
      <trkpt lat="45.64418" lon="5.30889">
        <ele>229</ele>
        <time>2022-04-16T10:40:58.849Z</time>
      </trkpt>
      <trkpt lat="45.64419" lon="5.30882">
        <ele>229</ele>
        <time>2022-04-16T10:40:59.849Z</time>
      </trkpt>
      <trkpt lat="45.64419" lon="5.30874">
        <ele>229</ele>
        <time>2022-04-16T10:41:00.849Z</time>
      </trkpt>
      <trkpt lat="45.6442" lon="5.30867">
        <ele>229</ele>
        <time>2022-04-16T10:41:01.849Z</time>
      </trkpt>
      <trkpt lat="45.6442" lon="5.3086">
        <ele>229</ele>
        <time>2022-04-16T10:41:02.849Z</time>
      </trkpt>
      <trkpt lat="45.64422" lon="5.30852">
        <ele>230</ele>
        <time>2022-04-16T10:41:03.848Z</time>
      </trkpt>
      <trkpt lat="45.64423" lon="5.30845">
        <ele>230</ele>
        <time>2022-04-16T10:41:04.849Z</time>
      </trkpt>
      <trkpt lat="45.64425" lon="5.30838">
        <ele>230</ele>
        <time>2022-04-16T10:41:05.849Z</time>
      </trkpt>
      <trkpt lat="45.64426" lon="5.30831">
        <ele>229</ele>
        <time>2022-04-16T10:41:06.849Z</time>
      </trkpt>
      <trkpt lat="45.64427" lon="5.30823">
        <ele>229</ele>
        <time>2022-04-16T10:41:07.849Z</time>
      </trkpt>
      <trkpt lat="45.64428" lon="5.30816">
        <ele>229</ele>
        <time>2022-04-16T10:41:08.849Z</time>
      </trkpt>
      <trkpt lat="45.64429" lon="5.30808">
        <ele>229</ele>
        <time>2022-04-16T10:41:09.848Z</time>
      </trkpt>
      <trkpt lat="45.64431" lon="5.30801">
        <ele>229</ele>
        <time>2022-04-16T10:41:10.848Z</time>
      </trkpt>
      <trkpt lat="45.64432" lon="5.30794">
        <ele>228</ele>
        <time>2022-04-16T10:41:11.849Z</time>
      </trkpt>
      <trkpt lat="45.64433" lon="5.30786">
        <ele>228</ele>
        <time>2022-04-16T10:41:12.849Z</time>
      </trkpt>
      <trkpt lat="45.64435" lon="5.30778">
        <ele>228</ele>
        <time>2022-04-16T10:41:13.849Z</time>
      </trkpt>
      <trkpt lat="45.64436" lon="5.30771">
        <ele>227</ele>
        <time>2022-04-16T10:41:14.848Z</time>
      </trkpt>
      <trkpt lat="45.64437" lon="5.30763">
        <ele>227</ele>
        <time>2022-04-16T10:41:15.848Z</time>
      </trkpt>
      <trkpt lat="45.64439" lon="5.30754">
        <ele>227</ele>
        <time>2022-04-16T10:41:16.849Z</time>
      </trkpt>
      <trkpt lat="45.6444" lon="5.30746">
        <ele>227</ele>
        <time>2022-04-16T10:41:17.848Z</time>
      </trkpt>
      <trkpt lat="45.64441" lon="5.30738">
        <ele>226</ele>
        <time>2022-04-16T10:41:18.849Z</time>
      </trkpt>
      <trkpt lat="45.64442" lon="5.30729">
        <ele>226</ele>
        <time>2022-04-16T10:41:19.848Z</time>
      </trkpt>
      <trkpt lat="45.64444" lon="5.30721">
        <ele>226</ele>
        <time>2022-04-16T10:41:20.849Z</time>
      </trkpt>
      <trkpt lat="45.64445" lon="5.30712">
        <ele>226</ele>
        <time>2022-04-16T10:41:21.849Z</time>
      </trkpt>
      <trkpt lat="45.64446" lon="5.30704">
        <ele>226</ele>
        <time>2022-04-16T10:41:22.849Z</time>
      </trkpt>
      <trkpt lat="45.64448" lon="5.30695">
        <ele>226</ele>
        <time>2022-04-16T10:41:23.849Z</time>
      </trkpt>
      <trkpt lat="45.64449" lon="5.30687">
        <ele>226</ele>
        <time>2022-04-16T10:41:24.849Z</time>
      </trkpt>
      <trkpt lat="45.6445" lon="5.30678">
        <ele>226</ele>
        <time>2022-04-16T10:41:25.848Z</time>
      </trkpt>
      <trkpt lat="45.64451" lon="5.30669">
        <ele>226</ele>
        <time>2022-04-16T10:41:26.849Z</time>
      </trkpt>
      <trkpt lat="45.64452" lon="5.30661">
        <ele>226</ele>
        <time>2022-04-16T10:41:27.849Z</time>
      </trkpt>
      <trkpt lat="45.64454" lon="5.30652">
        <ele>226</ele>
        <time>2022-04-16T10:41:28.849Z</time>
      </trkpt>
      <trkpt lat="45.64455" lon="5.30643">
        <ele>226</ele>
        <time>2022-04-16T10:41:29.848Z</time>
      </trkpt>
      <trkpt lat="45.64457" lon="5.30635">
        <ele>226</ele>
        <time>2022-04-16T10:41:30.849Z</time>
      </trkpt>
      <trkpt lat="45.64458" lon="5.30626">
        <ele>225</ele>
        <time>2022-04-16T10:41:31.849Z</time>
      </trkpt>
      <trkpt lat="45.64459" lon="5.30618">
        <ele>225</ele>
        <time>2022-04-16T10:41:32.849Z</time>
      </trkpt>
      <trkpt lat="45.64461" lon="5.30609">
        <ele>225</ele>
        <time>2022-04-16T10:41:33.849Z</time>
      </trkpt>
      <trkpt lat="45.64462" lon="5.306">
        <ele>225</ele>
        <time>2022-04-16T10:41:34.849Z</time>
      </trkpt>
      <trkpt lat="45.64463" lon="5.30591">
        <ele>225</ele>
        <time>2022-04-16T10:41:35.849Z</time>
      </trkpt>
      <trkpt lat="45.64465" lon="5.30582">
        <ele>225</ele>
        <time>2022-04-16T10:41:36.849Z</time>
      </trkpt>
      <trkpt lat="45.64466" lon="5.30574">
        <ele>225</ele>
        <time>2022-04-16T10:41:37.849Z</time>
      </trkpt>
      <trkpt lat="45.64467" lon="5.30565">
        <ele>225</ele>
        <time>2022-04-16T10:41:38.848Z</time>
      </trkpt>
      <trkpt lat="45.64469" lon="5.30556">
        <ele>225</ele>
        <time>2022-04-16T10:41:39.848Z</time>
      </trkpt>
      <trkpt lat="45.6447" lon="5.30548">
        <ele>224</ele>
        <time>2022-04-16T10:41:40.849Z</time>
      </trkpt>
      <trkpt lat="45.64471" lon="5.30539">
        <ele>224</ele>
        <time>2022-04-16T10:41:41.849Z</time>
      </trkpt>
      <trkpt lat="45.64473" lon="5.3053">
        <ele>224</ele>
        <time>2022-04-16T10:41:42.849Z</time>
      </trkpt>
      <trkpt lat="45.64474" lon="5.30522">
        <ele>225</ele>
        <time>2022-04-16T10:41:43.848Z</time>
      </trkpt>
      <trkpt lat="45.64476" lon="5.30513">
        <ele>225</ele>
        <time>2022-04-16T10:41:44.849Z</time>
      </trkpt>
      <trkpt lat="45.64477" lon="5.30504">
        <ele>225</ele>
        <time>2022-04-16T10:41:45.849Z</time>
      </trkpt>
      <trkpt lat="45.64478" lon="5.30495">
        <ele>225</ele>
        <time>2022-04-16T10:41:46.848Z</time>
      </trkpt>
      <trkpt lat="45.64479" lon="5.30486">
        <ele>225</ele>
        <time>2022-04-16T10:41:47.849Z</time>
      </trkpt>
      <trkpt lat="45.64481" lon="5.30478">
        <ele>224</ele>
        <time>2022-04-16T10:41:48.848Z</time>
      </trkpt>
      <trkpt lat="45.64482" lon="5.30469">
        <ele>224</ele>
        <time>2022-04-16T10:41:49.849Z</time>
      </trkpt>
      <trkpt lat="45.64484" lon="5.3046">
        <ele>224</ele>
        <time>2022-04-16T10:41:50.849Z</time>
      </trkpt>
      <trkpt lat="45.64485" lon="5.30451">
        <ele>223</ele>
        <time>2022-04-16T10:41:51.849Z</time>
      </trkpt>
      <trkpt lat="45.64486" lon="5.30442">
        <ele>223</ele>
        <time>2022-04-16T10:41:52.849Z</time>
      </trkpt>
      <trkpt lat="45.64488" lon="5.30433">
        <ele>223</ele>
        <time>2022-04-16T10:41:53.849Z</time>
      </trkpt>
      <trkpt lat="45.64489" lon="5.30424">
        <ele>222</ele>
        <time>2022-04-16T10:41:54.849Z</time>
      </trkpt>
      <trkpt lat="45.64491" lon="5.30415">
        <ele>222</ele>
        <time>2022-04-16T10:41:55.849Z</time>
      </trkpt>
      <trkpt lat="45.64492" lon="5.30405">
        <ele>222</ele>
        <time>2022-04-16T10:41:56.849Z</time>
      </trkpt>
      <trkpt lat="45.64493" lon="5.30396">
        <ele>221</ele>
        <time>2022-04-16T10:41:57.849Z</time>
      </trkpt>
      <trkpt lat="45.64495" lon="5.30387">
        <ele>221</ele>
        <time>2022-04-16T10:41:58.849Z</time>
      </trkpt>
      <trkpt lat="45.64496" lon="5.30377">
        <ele>221</ele>
        <time>2022-04-16T10:41:59.849Z</time>
      </trkpt>
      <trkpt lat="45.64497" lon="5.30367">
        <ele>221</ele>
        <time>2022-04-16T10:42:00.849Z</time>
      </trkpt>
      <trkpt lat="45.64499" lon="5.30357">
        <ele>221</ele>
        <time>2022-04-16T10:42:01.849Z</time>
      </trkpt>
      <trkpt lat="45.645" lon="5.30348">
        <ele>221</ele>
        <time>2022-04-16T10:42:02.849Z</time>
      </trkpt>
      <trkpt lat="45.64502" lon="5.30338">
        <ele>221</ele>
        <time>2022-04-16T10:42:03.849Z</time>
      </trkpt>
      <trkpt lat="45.64503" lon="5.30328">
        <ele>221</ele>
        <time>2022-04-16T10:42:04.849Z</time>
      </trkpt>
      <trkpt lat="45.64505" lon="5.30319">
        <ele>221</ele>
        <time>2022-04-16T10:42:05.849Z</time>
      </trkpt>
      <trkpt lat="45.64507" lon="5.30309">
        <ele>220</ele>
        <time>2022-04-16T10:42:06.849Z</time>
      </trkpt>
      <trkpt lat="45.64509" lon="5.303">
        <ele>220</ele>
        <time>2022-04-16T10:42:07.849Z</time>
      </trkpt>
      <trkpt lat="45.64511" lon="5.3029">
        <ele>220</ele>
        <time>2022-04-16T10:42:08.849Z</time>
      </trkpt>
      <trkpt lat="45.64514" lon="5.30281">
        <ele>221</ele>
        <time>2022-04-16T10:42:09.849Z</time>
      </trkpt>
      <trkpt lat="45.64518" lon="5.30272">
        <ele>221</ele>
        <time>2022-04-16T10:42:10.849Z</time>
      </trkpt>
      <trkpt lat="45.64522" lon="5.30264">
        <ele>221</ele>
        <time>2022-04-16T10:42:11.848Z</time>
      </trkpt>
      <trkpt lat="45.64527" lon="5.30256">
        <ele>221</ele>
        <time>2022-04-16T10:42:12.848Z</time>
      </trkpt>
      <trkpt lat="45.64532" lon="5.3025">
        <ele>221</ele>
        <time>2022-04-16T10:42:13.849Z</time>
      </trkpt>
      <trkpt lat="45.64538" lon="5.30243">
        <ele>221</ele>
        <time>2022-04-16T10:42:14.849Z</time>
      </trkpt>
      <trkpt lat="45.64544" lon="5.30238">
        <ele>220</ele>
        <time>2022-04-16T10:42:15.849Z</time>
      </trkpt>
      <trkpt lat="45.6455" lon="5.30233">
        <ele>220</ele>
        <time>2022-04-16T10:42:16.849Z</time>
      </trkpt>
      <trkpt lat="45.64555" lon="5.30229">
        <ele>220</ele>
        <time>2022-04-16T10:42:17.849Z</time>
      </trkpt>
      <trkpt lat="45.64559" lon="5.30227">
        <ele>220</ele>
        <time>2022-04-16T10:42:18.849Z</time>
      </trkpt>
      <trkpt lat="45.64563" lon="5.30225">
        <ele>219</ele>
        <time>2022-04-16T10:42:19.849Z</time>
      </trkpt>
      <trkpt lat="45.64566" lon="5.30224">
        <ele>219</ele>
        <time>2022-04-16T10:42:20.849Z</time>
      </trkpt>
      <trkpt lat="45.64568" lon="5.30224">
        <ele>219</ele>
        <time>2022-04-16T10:42:21.849Z</time>
      </trkpt>
      <trkpt lat="45.6457" lon="5.30224">
        <ele>219</ele>
        <time>2022-04-16T10:42:22.849Z</time>
      </trkpt>
      <trkpt lat="45.64571" lon="5.30225">
        <ele>219</ele>
        <time>2022-04-16T10:42:23.848Z</time>
      </trkpt>
      <trkpt lat="45.64573" lon="5.30225">
        <ele>219</ele>
        <time>2022-04-16T10:42:24.848Z</time>
      </trkpt>
      <trkpt lat="45.64575" lon="5.30226">
        <ele>219</ele>
        <time>2022-04-16T10:42:25.849Z</time>
      </trkpt>
      <trkpt lat="45.64578" lon="5.30227">
        <ele>219</ele>
        <time>2022-04-16T10:42:26.849Z</time>
      </trkpt>
      <trkpt lat="45.64582" lon="5.30228">
        <ele>219</ele>
        <time>2022-04-16T10:42:27.849Z</time>
      </trkpt>
      <trkpt lat="45.64586" lon="5.30229">
        <ele>218</ele>
        <time>2022-04-16T10:42:28.848Z</time>
      </trkpt>
      <trkpt lat="45.64591" lon="5.30229">
        <ele>218</ele>
        <time>2022-04-16T10:42:29.849Z</time>
      </trkpt>
      <trkpt lat="45.64596" lon="5.30228">
        <ele>218</ele>
        <time>2022-04-16T10:42:30.848Z</time>
      </trkpt>
      <trkpt lat="45.64601" lon="5.30225">
        <ele>218</ele>
        <time>2022-04-16T10:42:31.849Z</time>
      </trkpt>
      <trkpt lat="45.64605" lon="5.30221">
        <ele>218</ele>
        <time>2022-04-16T10:42:32.849Z</time>
      </trkpt>
      <trkpt lat="45.64609" lon="5.30216">
        <ele>218</ele>
        <time>2022-04-16T10:42:33.849Z</time>
      </trkpt>
      <trkpt lat="45.64611" lon="5.30209">
        <ele>219</ele>
        <time>2022-04-16T10:42:34.849Z</time>
      </trkpt>
      <trkpt lat="45.64612" lon="5.30201">
        <ele>219</ele>
        <time>2022-04-16T10:42:35.849Z</time>
      </trkpt>
      <trkpt lat="45.64611" lon="5.30194">
        <ele>219</ele>
        <time>2022-04-16T10:42:36.849Z</time>
      </trkpt>
      <trkpt lat="45.64608" lon="5.30187">
        <ele>219</ele>
        <time>2022-04-16T10:42:37.849Z</time>
      </trkpt>
      <trkpt lat="45.64604" lon="5.3018">
        <ele>219</ele>
        <time>2022-04-16T10:42:38.849Z</time>
      </trkpt>
      <trkpt lat="45.646" lon="5.30174">
        <ele>219</ele>
        <time>2022-04-16T10:42:39.849Z</time>
      </trkpt>
      <trkpt lat="45.64593" lon="5.3017">
        <ele>219</ele>
        <time>2022-04-16T10:42:40.849Z</time>
      </trkpt>
      <trkpt lat="45.64587" lon="5.30166">
        <ele>219</ele>
        <time>2022-04-16T10:42:41.849Z</time>
      </trkpt>
      <trkpt lat="45.64582" lon="5.30161">
        <ele>219</ele>
        <time>2022-04-16T10:42:42.849Z</time>
      </trkpt>
      <trkpt lat="45.64576" lon="5.30156">
        <ele>220</ele>
        <time>2022-04-16T10:42:43.848Z</time>
      </trkpt>
      <trkpt lat="45.64571" lon="5.30151">
        <ele>220</ele>
        <time>2022-04-16T10:42:44.849Z</time>
      </trkpt>
      <trkpt lat="45.64566" lon="5.30146">
        <ele>220</ele>
        <time>2022-04-16T10:42:45.849Z</time>
      </trkpt>
      <trkpt lat="45.64561" lon="5.3014">
        <ele>220</ele>
        <time>2022-04-16T10:42:46.849Z</time>
      </trkpt>
      <trkpt lat="45.64557" lon="5.30135">
        <ele>220</ele>
        <time>2022-04-16T10:42:47.848Z</time>
      </trkpt>
      <trkpt lat="45.64553" lon="5.30129">
        <ele>220</ele>
        <time>2022-04-16T10:42:48.849Z</time>
      </trkpt>
      <trkpt lat="45.64549" lon="5.30124">
        <ele>220</ele>
        <time>2022-04-16T10:42:49.849Z</time>
      </trkpt>
      <trkpt lat="45.64545" lon="5.30118">
        <ele>220</ele>
        <time>2022-04-16T10:42:50.849Z</time>
      </trkpt>
      <trkpt lat="45.64541" lon="5.30113">
        <ele>220</ele>
        <time>2022-04-16T10:42:51.848Z</time>
      </trkpt>
      <trkpt lat="45.64537" lon="5.30107">
        <ele>220</ele>
        <time>2022-04-16T10:42:52.849Z</time>
      </trkpt>
      <trkpt lat="45.64532" lon="5.30102">
        <ele>220</ele>
        <time>2022-04-16T10:42:53.848Z</time>
      </trkpt>
      <trkpt lat="45.64528" lon="5.30096">
        <ele>221</ele>
        <time>2022-04-16T10:42:54.849Z</time>
      </trkpt>
      <trkpt lat="45.64524" lon="5.30091">
        <ele>221</ele>
        <time>2022-04-16T10:42:55.848Z</time>
      </trkpt>
      <trkpt lat="45.6452" lon="5.30085">
        <ele>221</ele>
        <time>2022-04-16T10:42:56.848Z</time>
      </trkpt>
      <trkpt lat="45.64516" lon="5.3008">
        <ele>222</ele>
        <time>2022-04-16T10:42:57.849Z</time>
      </trkpt>
      <trkpt lat="45.64512" lon="5.30074">
        <ele>222</ele>
        <time>2022-04-16T10:42:58.849Z</time>
      </trkpt>
      <trkpt lat="45.64508" lon="5.30069">
        <ele>222</ele>
        <time>2022-04-16T10:42:59.849Z</time>
      </trkpt>
      <trkpt lat="45.64503" lon="5.30063">
        <ele>222</ele>
        <time>2022-04-16T10:43:00.849Z</time>
      </trkpt>
      <trkpt lat="45.64499" lon="5.30057">
        <ele>222</ele>
        <time>2022-04-16T10:43:01.849Z</time>
      </trkpt>
      <trkpt lat="45.64495" lon="5.30051">
        <ele>222</ele>
        <time>2022-04-16T10:43:02.849Z</time>
      </trkpt>
      <trkpt lat="45.64491" lon="5.30045">
        <ele>221</ele>
        <time>2022-04-16T10:43:03.849Z</time>
      </trkpt>
      <trkpt lat="45.64487" lon="5.30039">
        <ele>221</ele>
        <time>2022-04-16T10:43:04.849Z</time>
      </trkpt>
      <trkpt lat="45.64483" lon="5.30033">
        <ele>221</ele>
        <time>2022-04-16T10:43:05.849Z</time>
      </trkpt>
      <trkpt lat="45.64479" lon="5.30027">
        <ele>221</ele>
        <time>2022-04-16T10:43:06.848Z</time>
      </trkpt>
      <trkpt lat="45.64475" lon="5.30021">
        <ele>221</ele>
        <time>2022-04-16T10:43:07.849Z</time>
      </trkpt>
      <trkpt lat="45.64471" lon="5.30015">
        <ele>221</ele>
        <time>2022-04-16T10:43:08.849Z</time>
      </trkpt>
      <trkpt lat="45.64468" lon="5.30009">
        <ele>220</ele>
        <time>2022-04-16T10:43:09.848Z</time>
      </trkpt>
      <trkpt lat="45.64464" lon="5.30004">
        <ele>220</ele>
        <time>2022-04-16T10:43:10.848Z</time>
      </trkpt>
      <trkpt lat="45.6446" lon="5.29998">
        <ele>220</ele>
        <time>2022-04-16T10:43:11.849Z</time>
      </trkpt>
      <trkpt lat="45.64457" lon="5.29993">
        <ele>220</ele>
        <time>2022-04-16T10:43:12.849Z</time>
      </trkpt>
      <trkpt lat="45.64453" lon="5.29987">
        <ele>220</ele>
        <time>2022-04-16T10:43:13.849Z</time>
      </trkpt>
      <trkpt lat="45.64449" lon="5.29982">
        <ele>220</ele>
        <time>2022-04-16T10:43:14.849Z</time>
      </trkpt>
      <trkpt lat="45.64446" lon="5.29977">
        <ele>220</ele>
        <time>2022-04-16T10:43:15.849Z</time>
      </trkpt>
      <trkpt lat="45.64442" lon="5.29972">
        <ele>220</ele>
        <time>2022-04-16T10:43:16.848Z</time>
      </trkpt>
      <trkpt lat="45.64438" lon="5.29966">
        <ele>220</ele>
        <time>2022-04-16T10:43:17.849Z</time>
      </trkpt>
      <trkpt lat="45.64435" lon="5.29961">
        <ele>220</ele>
        <time>2022-04-16T10:43:18.849Z</time>
      </trkpt>
      <trkpt lat="45.64431" lon="5.29956">
        <ele>220</ele>
        <time>2022-04-16T10:43:19.849Z</time>
      </trkpt>
      <trkpt lat="45.64427" lon="5.29951">
        <ele>220</ele>
        <time>2022-04-16T10:43:20.848Z</time>
      </trkpt>
      <trkpt lat="45.64424" lon="5.29945">
        <ele>219</ele>
        <time>2022-04-16T10:43:21.849Z</time>
      </trkpt>
      <trkpt lat="45.6442" lon="5.2994">
        <ele>219</ele>
        <time>2022-04-16T10:43:22.849Z</time>
      </trkpt>
      <trkpt lat="45.64416" lon="5.29935">
        <ele>219</ele>
        <time>2022-04-16T10:43:23.848Z</time>
      </trkpt>
      <trkpt lat="45.64412" lon="5.2993">
        <ele>219</ele>
        <time>2022-04-16T10:43:24.849Z</time>
      </trkpt>
      <trkpt lat="45.64409" lon="5.29925">
        <ele>219</ele>
        <time>2022-04-16T10:43:25.849Z</time>
      </trkpt>
      <trkpt lat="45.64406" lon="5.2992">
        <ele>219</ele>
        <time>2022-04-16T10:43:26.849Z</time>
      </trkpt>
      <trkpt lat="45.64402" lon="5.29915">
        <ele>219</ele>
        <time>2022-04-16T10:43:27.849Z</time>
      </trkpt>
      <trkpt lat="45.64399" lon="5.2991">
        <ele>219</ele>
        <time>2022-04-16T10:43:28.849Z</time>
      </trkpt>
      <trkpt lat="45.64395" lon="5.29905">
        <ele>219</ele>
        <time>2022-04-16T10:43:29.849Z</time>
      </trkpt>
      <trkpt lat="45.64392" lon="5.299">
        <ele>219</ele>
        <time>2022-04-16T10:43:30.849Z</time>
      </trkpt>
      <trkpt lat="45.64389" lon="5.29895">
        <ele>219</ele>
        <time>2022-04-16T10:43:31.849Z</time>
      </trkpt>
      <trkpt lat="45.64385" lon="5.2989">
        <ele>219</ele>
        <time>2022-04-16T10:43:32.848Z</time>
      </trkpt>
      <trkpt lat="45.64382" lon="5.29885">
        <ele>219</ele>
        <time>2022-04-16T10:43:33.848Z</time>
      </trkpt>
      <trkpt lat="45.64378" lon="5.2988">
        <ele>219</ele>
        <time>2022-04-16T10:43:34.849Z</time>
      </trkpt>
      <trkpt lat="45.64375" lon="5.29875">
        <ele>219</ele>
        <time>2022-04-16T10:43:35.849Z</time>
      </trkpt>
      <trkpt lat="45.64371" lon="5.2987">
        <ele>219</ele>
        <time>2022-04-16T10:43:36.848Z</time>
      </trkpt>
      <trkpt lat="45.64367" lon="5.29865">
        <ele>219</ele>
        <time>2022-04-16T10:43:37.849Z</time>
      </trkpt>
      <trkpt lat="45.64364" lon="5.2986">
        <ele>220</ele>
        <time>2022-04-16T10:43:38.849Z</time>
      </trkpt>
      <trkpt lat="45.6436" lon="5.29854">
        <ele>220</ele>
        <time>2022-04-16T10:43:39.849Z</time>
      </trkpt>
      <trkpt lat="45.64356" lon="5.29849">
        <ele>220</ele>
        <time>2022-04-16T10:43:40.848Z</time>
      </trkpt>
      <trkpt lat="45.64352" lon="5.29844">
        <ele>220</ele>
        <time>2022-04-16T10:43:41.849Z</time>
      </trkpt>
      <trkpt lat="45.64349" lon="5.29838">
        <ele>221</ele>
        <time>2022-04-16T10:43:42.849Z</time>
      </trkpt>
      <trkpt lat="45.64345" lon="5.29833">
        <ele>221</ele>
        <time>2022-04-16T10:43:43.849Z</time>
      </trkpt>
      <trkpt lat="45.64341" lon="5.29827">
        <ele>221</ele>
        <time>2022-04-16T10:43:44.848Z</time>
      </trkpt>
      <trkpt lat="45.64337" lon="5.29821">
        <ele>221</ele>
        <time>2022-04-16T10:43:45.849Z</time>
      </trkpt>
      <trkpt lat="45.64333" lon="5.29816">
        <ele>221</ele>
        <time>2022-04-16T10:43:46.848Z</time>
      </trkpt>
      <trkpt lat="45.64329" lon="5.2981">
        <ele>221</ele>
        <time>2022-04-16T10:43:47.849Z</time>
      </trkpt>
      <trkpt lat="45.64325" lon="5.29804">
        <ele>221</ele>
        <time>2022-04-16T10:43:48.849Z</time>
      </trkpt>
      <trkpt lat="45.64321" lon="5.29798">
        <ele>222</ele>
        <time>2022-04-16T10:43:49.849Z</time>
      </trkpt>
      <trkpt lat="45.64317" lon="5.29793">
        <ele>222</ele>
        <time>2022-04-16T10:43:50.848Z</time>
      </trkpt>
      <trkpt lat="45.64313" lon="5.29787">
        <ele>222</ele>
        <time>2022-04-16T10:43:51.849Z</time>
      </trkpt>
      <trkpt lat="45.64309" lon="5.29781">
        <ele>221</ele>
        <time>2022-04-16T10:43:52.849Z</time>
      </trkpt>
      <trkpt lat="45.64305" lon="5.29775">
        <ele>221</ele>
        <time>2022-04-16T10:43:53.848Z</time>
      </trkpt>
      <trkpt lat="45.643" lon="5.29769">
        <ele>221</ele>
        <time>2022-04-16T10:43:54.849Z</time>
      </trkpt>
      <trkpt lat="45.64295" lon="5.29764">
        <ele>221</ele>
        <time>2022-04-16T10:43:55.849Z</time>
      </trkpt>
      <trkpt lat="45.64291" lon="5.29758">
        <ele>221</ele>
        <time>2022-04-16T10:43:56.849Z</time>
      </trkpt>
      <trkpt lat="45.64286" lon="5.29752">
        <ele>221</ele>
        <time>2022-04-16T10:43:57.849Z</time>
      </trkpt>
      <trkpt lat="45.64281" lon="5.29746">
        <ele>221</ele>
        <time>2022-04-16T10:43:58.849Z</time>
      </trkpt>
      <trkpt lat="45.64276" lon="5.29741">
        <ele>221</ele>
        <time>2022-04-16T10:43:59.848Z</time>
      </trkpt>
      <trkpt lat="45.64271" lon="5.29735">
        <ele>221</ele>
        <time>2022-04-16T10:44:00.849Z</time>
      </trkpt>
      <trkpt lat="45.64266" lon="5.2973">
        <ele>221</ele>
        <time>2022-04-16T10:44:01.849Z</time>
      </trkpt>
      <trkpt lat="45.64261" lon="5.29724">
        <ele>220</ele>
        <time>2022-04-16T10:44:02.849Z</time>
      </trkpt>
      <trkpt lat="45.64255" lon="5.29719">
        <ele>220</ele>
        <time>2022-04-16T10:44:03.848Z</time>
      </trkpt>
      <trkpt lat="45.6425" lon="5.29715">
        <ele>220</ele>
        <time>2022-04-16T10:44:04.849Z</time>
      </trkpt>
      <trkpt lat="45.64244" lon="5.29711">
        <ele>220</ele>
        <time>2022-04-16T10:44:05.849Z</time>
      </trkpt>
      <trkpt lat="45.64237" lon="5.29706">
        <ele>220</ele>
        <time>2022-04-16T10:44:06.848Z</time>
      </trkpt>
      <trkpt lat="45.64231" lon="5.29702">
        <ele>221</ele>
        <time>2022-04-16T10:44:07.848Z</time>
      </trkpt>
      <trkpt lat="45.64225" lon="5.29699">
        <ele>221</ele>
        <time>2022-04-16T10:44:08.849Z</time>
      </trkpt>
      <trkpt lat="45.64219" lon="5.29695">
        <ele>221</ele>
        <time>2022-04-16T10:44:09.849Z</time>
      </trkpt>
      <trkpt lat="45.64213" lon="5.29693">
        <ele>221</ele>
        <time>2022-04-16T10:44:10.848Z</time>
      </trkpt>
      <trkpt lat="45.64207" lon="5.2969">
        <ele>221</ele>
        <time>2022-04-16T10:44:11.849Z</time>
      </trkpt>
      <trkpt lat="45.642" lon="5.29688">
        <ele>220</ele>
        <time>2022-04-16T10:44:12.849Z</time>
      </trkpt>
      <trkpt lat="45.64193" lon="5.29686">
        <ele>221</ele>
        <time>2022-04-16T10:44:13.849Z</time>
      </trkpt>
      <trkpt lat="45.64187" lon="5.29684">
        <ele>221</ele>
        <time>2022-04-16T10:44:14.849Z</time>
      </trkpt>
      <trkpt lat="45.6418" lon="5.29683">
        <ele>221</ele>
        <time>2022-04-16T10:44:15.848Z</time>
      </trkpt>
      <trkpt lat="45.64174" lon="5.29681">
        <ele>221</ele>
        <time>2022-04-16T10:44:16.849Z</time>
      </trkpt>
      <trkpt lat="45.64168" lon="5.2968">
        <ele>220</ele>
        <time>2022-04-16T10:44:17.849Z</time>
      </trkpt>
      <trkpt lat="45.64161" lon="5.29679">
        <ele>220</ele>
        <time>2022-04-16T10:44:18.849Z</time>
      </trkpt>
      <trkpt lat="45.64154" lon="5.29678">
        <ele>220</ele>
        <time>2022-04-16T10:44:19.848Z</time>
      </trkpt>
      <trkpt lat="45.64148" lon="5.29678">
        <ele>220</ele>
        <time>2022-04-16T10:44:20.849Z</time>
      </trkpt>
      <trkpt lat="45.64142" lon="5.29677">
        <ele>219</ele>
        <time>2022-04-16T10:44:21.849Z</time>
      </trkpt>
      <trkpt lat="45.64135" lon="5.29676">
        <ele>219</ele>
        <time>2022-04-16T10:44:22.849Z</time>
      </trkpt>
      <trkpt lat="45.64129" lon="5.29675">
        <ele>219</ele>
        <time>2022-04-16T10:44:23.849Z</time>
      </trkpt>
      <trkpt lat="45.64124" lon="5.29674">
        <ele>219</ele>
        <time>2022-04-16T10:44:24.849Z</time>
      </trkpt>
      <trkpt lat="45.64117" lon="5.29673">
        <ele>219</ele>
        <time>2022-04-16T10:44:25.849Z</time>
      </trkpt>
      <trkpt lat="45.6411" lon="5.29672">
        <ele>219</ele>
        <time>2022-04-16T10:44:26.849Z</time>
      </trkpt>
      <trkpt lat="45.64104" lon="5.29671">
        <ele>219</ele>
        <time>2022-04-16T10:44:27.848Z</time>
      </trkpt>
      <trkpt lat="45.64098" lon="5.2967">
        <ele>219</ele>
        <time>2022-04-16T10:44:28.849Z</time>
      </trkpt>
      <trkpt lat="45.64091" lon="5.29669">
        <ele>219</ele>
        <time>2022-04-16T10:44:29.849Z</time>
      </trkpt>
      <trkpt lat="45.64085" lon="5.29668">
        <ele>219</ele>
        <time>2022-04-16T10:44:30.849Z</time>
      </trkpt>
      <trkpt lat="45.64078" lon="5.29667">
        <ele>220</ele>
        <time>2022-04-16T10:44:31.849Z</time>
      </trkpt>
      <trkpt lat="45.64072" lon="5.29666">
        <ele>220</ele>
        <time>2022-04-16T10:44:32.848Z</time>
      </trkpt>
      <trkpt lat="45.64066" lon="5.29665">
        <ele>220</ele>
        <time>2022-04-16T10:44:33.849Z</time>
      </trkpt>
      <trkpt lat="45.64061" lon="5.29665">
        <ele>220</ele>
        <time>2022-04-16T10:44:34.849Z</time>
      </trkpt>
      <trkpt lat="45.64054" lon="5.29663">
        <ele>220</ele>
        <time>2022-04-16T10:44:35.849Z</time>
      </trkpt>
      <trkpt lat="45.64048" lon="5.29662">
        <ele>220</ele>
        <time>2022-04-16T10:44:36.849Z</time>
      </trkpt>
      <trkpt lat="45.64042" lon="5.29662">
        <ele>220</ele>
        <time>2022-04-16T10:44:37.849Z</time>
      </trkpt>
      <trkpt lat="45.64036" lon="5.29661">
        <ele>220</ele>
        <time>2022-04-16T10:44:38.849Z</time>
      </trkpt>
      <trkpt lat="45.6403" lon="5.2966">
        <ele>220</ele>
        <time>2022-04-16T10:44:39.848Z</time>
      </trkpt>
      <trkpt lat="45.64024" lon="5.29659">
        <ele>219</ele>
        <time>2022-04-16T10:44:40.849Z</time>
      </trkpt>
      <trkpt lat="45.64018" lon="5.29659">
        <ele>219</ele>
        <time>2022-04-16T10:44:41.849Z</time>
      </trkpt>
      <trkpt lat="45.64012" lon="5.29658">
        <ele>219</ele>
        <time>2022-04-16T10:44:42.849Z</time>
      </trkpt>
      <trkpt lat="45.64008" lon="5.29658">
        <ele>219</ele>
        <time>2022-04-16T10:44:43.849Z</time>
      </trkpt>
      <trkpt lat="45.64" lon="5.29657">
        <ele>219</ele>
        <time>2022-04-16T10:44:44.849Z</time>
      </trkpt>
      <trkpt lat="45.63995" lon="5.29656">
        <ele>219</ele>
        <time>2022-04-16T10:44:45.849Z</time>
      </trkpt>
      <trkpt lat="45.63989" lon="5.29655">
        <ele>219</ele>
        <time>2022-04-16T10:44:46.849Z</time>
      </trkpt>
      <trkpt lat="45.63983" lon="5.29654">
        <ele>219</ele>
        <time>2022-04-16T10:44:47.849Z</time>
      </trkpt>
      <trkpt lat="45.63978" lon="5.29653">
        <ele>219</ele>
        <time>2022-04-16T10:44:48.848Z</time>
      </trkpt>
      <trkpt lat="45.63971" lon="5.29652">
        <ele>219</ele>
        <time>2022-04-16T10:44:49.849Z</time>
      </trkpt>
      <trkpt lat="45.63965" lon="5.29651">
        <ele>219</ele>
        <time>2022-04-16T10:44:50.848Z</time>
      </trkpt>
      <trkpt lat="45.63959" lon="5.2965">
        <ele>219</ele>
        <time>2022-04-16T10:44:51.849Z</time>
      </trkpt>
      <trkpt lat="45.63953" lon="5.2965">
        <ele>219</ele>
        <time>2022-04-16T10:44:52.848Z</time>
      </trkpt>
      <trkpt lat="45.63947" lon="5.29649">
        <ele>220</ele>
        <time>2022-04-16T10:44:53.849Z</time>
      </trkpt>
      <trkpt lat="45.63941" lon="5.29648">
        <ele>220</ele>
        <time>2022-04-16T10:44:54.848Z</time>
      </trkpt>
      <trkpt lat="45.63936" lon="5.29647">
        <ele>220</ele>
        <time>2022-04-16T10:44:55.849Z</time>
      </trkpt>
      <trkpt lat="45.63931" lon="5.29646">
        <ele>220</ele>
        <time>2022-04-16T10:44:56.849Z</time>
      </trkpt>
      <trkpt lat="45.63925" lon="5.29645">
        <ele>220</ele>
        <time>2022-04-16T10:44:57.849Z</time>
      </trkpt>
      <trkpt lat="45.63919" lon="5.29644">
        <ele>220</ele>
        <time>2022-04-16T10:44:58.849Z</time>
      </trkpt>
      <trkpt lat="45.63913" lon="5.29643">
        <ele>220</ele>
        <time>2022-04-16T10:44:59.849Z</time>
      </trkpt>
      <trkpt lat="45.63908" lon="5.29643">
        <ele>220</ele>
        <time>2022-04-16T10:45:00.849Z</time>
      </trkpt>
      <trkpt lat="45.63902" lon="5.29642">
        <ele>221</ele>
        <time>2022-04-16T10:45:01.849Z</time>
      </trkpt>
      <trkpt lat="45.63897" lon="5.29641">
        <ele>221</ele>
        <time>2022-04-16T10:45:02.849Z</time>
      </trkpt>
      <trkpt lat="45.6389" lon="5.2964">
        <ele>221</ele>
        <time>2022-04-16T10:45:03.849Z</time>
      </trkpt>
      <trkpt lat="45.63885" lon="5.29639">
        <ele>221</ele>
        <time>2022-04-16T10:45:04.848Z</time>
      </trkpt>
      <trkpt lat="45.63879" lon="5.29639">
        <ele>221</ele>
        <time>2022-04-16T10:45:05.849Z</time>
      </trkpt>
      <trkpt lat="45.63873" lon="5.29638">
        <ele>221</ele>
        <time>2022-04-16T10:45:06.848Z</time>
      </trkpt>
      <trkpt lat="45.63867" lon="5.29637">
        <ele>221</ele>
        <time>2022-04-16T10:45:07.849Z</time>
      </trkpt>
      <trkpt lat="45.63861" lon="5.29636">
        <ele>220</ele>
        <time>2022-04-16T10:45:08.849Z</time>
      </trkpt>
      <trkpt lat="45.63856" lon="5.29635">
        <ele>220</ele>
        <time>2022-04-16T10:45:09.849Z</time>
      </trkpt>
      <trkpt lat="45.63851" lon="5.29635">
        <ele>220</ele>
        <time>2022-04-16T10:45:10.848Z</time>
      </trkpt>
      <trkpt lat="45.63844" lon="5.29634">
        <ele>220</ele>
        <time>2022-04-16T10:45:11.849Z</time>
      </trkpt>
      <trkpt lat="45.63838" lon="5.29633">
        <ele>220</ele>
        <time>2022-04-16T10:45:12.849Z</time>
      </trkpt>
      <trkpt lat="45.63832" lon="5.29632">
        <ele>220</ele>
        <time>2022-04-16T10:45:13.849Z</time>
      </trkpt>
      <trkpt lat="45.63827" lon="5.29631">
        <ele>220</ele>
        <time>2022-04-16T10:45:14.849Z</time>
      </trkpt>
      <trkpt lat="45.63822" lon="5.2963">
        <ele>220</ele>
        <time>2022-04-16T10:45:15.849Z</time>
      </trkpt>
      <trkpt lat="45.63816" lon="5.29629">
        <ele>220</ele>
        <time>2022-04-16T10:45:16.848Z</time>
      </trkpt>
      <trkpt lat="45.63809" lon="5.29628">
        <ele>220</ele>
        <time>2022-04-16T10:45:17.849Z</time>
      </trkpt>
      <trkpt lat="45.63803" lon="5.29627">
        <ele>220</ele>
        <time>2022-04-16T10:45:18.849Z</time>
      </trkpt>
      <trkpt lat="45.63797" lon="5.29626">
        <ele>221</ele>
        <time>2022-04-16T10:45:19.849Z</time>
      </trkpt>
      <trkpt lat="45.63791" lon="5.29625">
        <ele>221</ele>
        <time>2022-04-16T10:45:20.848Z</time>
      </trkpt>
      <trkpt lat="45.63786" lon="5.29624">
        <ele>221</ele>
        <time>2022-04-16T10:45:21.849Z</time>
      </trkpt>
      <trkpt lat="45.63779" lon="5.29623">
        <ele>221</ele>
        <time>2022-04-16T10:45:22.849Z</time>
      </trkpt>
      <trkpt lat="45.63773" lon="5.29622">
        <ele>221</ele>
        <time>2022-04-16T10:45:23.849Z</time>
      </trkpt>
      <trkpt lat="45.63768" lon="5.29621">
        <ele>221</ele>
        <time>2022-04-16T10:45:24.848Z</time>
      </trkpt>
      <trkpt lat="45.63762" lon="5.2962">
        <ele>221</ele>
        <time>2022-04-16T10:45:25.849Z</time>
      </trkpt>
      <trkpt lat="45.63755" lon="5.29619">
        <ele>221</ele>
        <time>2022-04-16T10:45:26.848Z</time>
      </trkpt>
      <trkpt lat="45.63749" lon="5.29618">
        <ele>221</ele>
        <time>2022-04-16T10:45:27.849Z</time>
      </trkpt>
      <trkpt lat="45.63743" lon="5.29617">
        <ele>221</ele>
        <time>2022-04-16T10:45:28.849Z</time>
      </trkpt>
      <trkpt lat="45.63737" lon="5.29617">
        <ele>221</ele>
        <time>2022-04-16T10:45:29.849Z</time>
      </trkpt>
      <trkpt lat="45.63732" lon="5.29616">
        <ele>221</ele>
        <time>2022-04-16T10:45:30.848Z</time>
      </trkpt>
      <trkpt lat="45.63725" lon="5.29615">
        <ele>221</ele>
        <time>2022-04-16T10:45:31.849Z</time>
      </trkpt>
      <trkpt lat="45.63719" lon="5.29614">
        <ele>221</ele>
        <time>2022-04-16T10:45:32.849Z</time>
      </trkpt>
      <trkpt lat="45.63712" lon="5.29613">
        <ele>221</ele>
        <time>2022-04-16T10:45:33.849Z</time>
      </trkpt>
      <trkpt lat="45.63706" lon="5.29612">
        <ele>221</ele>
        <time>2022-04-16T10:45:34.849Z</time>
      </trkpt>
      <trkpt lat="45.637" lon="5.29611">
        <ele>221</ele>
        <time>2022-04-16T10:45:35.848Z</time>
      </trkpt>
      <trkpt lat="45.63694" lon="5.2961">
        <ele>221</ele>
        <time>2022-04-16T10:45:36.849Z</time>
      </trkpt>
      <trkpt lat="45.63688" lon="5.29609">
        <ele>221</ele>
        <time>2022-04-16T10:45:37.848Z</time>
      </trkpt>
      <trkpt lat="45.63683" lon="5.29608">
        <ele>221</ele>
        <time>2022-04-16T10:45:38.848Z</time>
      </trkpt>
      <trkpt lat="45.63678" lon="5.29607">
        <ele>221</ele>
        <time>2022-04-16T10:45:39.849Z</time>
      </trkpt>
      <trkpt lat="45.63671" lon="5.29606">
        <ele>221</ele>
        <time>2022-04-16T10:45:40.849Z</time>
      </trkpt>
      <trkpt lat="45.63666" lon="5.29605">
        <ele>221</ele>
        <time>2022-04-16T10:45:41.849Z</time>
      </trkpt>
      <trkpt lat="45.63661" lon="5.29605">
        <ele>221</ele>
        <time>2022-04-16T10:45:42.849Z</time>
      </trkpt>
      <trkpt lat="45.63655" lon="5.29604">
        <ele>221</ele>
        <time>2022-04-16T10:45:43.848Z</time>
      </trkpt>
      <trkpt lat="45.63649" lon="5.29603">
        <ele>221</ele>
        <time>2022-04-16T10:45:44.849Z</time>
      </trkpt>
      <trkpt lat="45.63644" lon="5.29603">
        <ele>220</ele>
        <time>2022-04-16T10:45:45.849Z</time>
      </trkpt>
      <trkpt lat="45.63638" lon="5.29602">
        <ele>220</ele>
        <time>2022-04-16T10:45:46.849Z</time>
      </trkpt>
      <trkpt lat="45.63632" lon="5.29601">
        <ele>220</ele>
        <time>2022-04-16T10:45:47.849Z</time>
      </trkpt>
      <trkpt lat="45.63628" lon="5.296">
        <ele>220</ele>
        <time>2022-04-16T10:45:48.849Z</time>
      </trkpt>
      <trkpt lat="45.63621" lon="5.29599">
        <ele>220</ele>
        <time>2022-04-16T10:45:49.849Z</time>
      </trkpt>
      <trkpt lat="45.63614" lon="5.29598">
        <ele>221</ele>
        <time>2022-04-16T10:45:50.849Z</time>
      </trkpt>
      <trkpt lat="45.63608" lon="5.29597">
        <ele>221</ele>
        <time>2022-04-16T10:45:51.849Z</time>
      </trkpt>
      <trkpt lat="45.63603" lon="5.29596">
        <ele>221</ele>
        <time>2022-04-16T10:45:52.848Z</time>
      </trkpt>
      <trkpt lat="45.63597" lon="5.29595">
        <ele>221</ele>
        <time>2022-04-16T10:45:53.849Z</time>
      </trkpt>
      <trkpt lat="45.6359" lon="5.29594">
        <ele>221</ele>
        <time>2022-04-16T10:45:54.849Z</time>
      </trkpt>
      <trkpt lat="45.63584" lon="5.29593">
        <ele>221</ele>
        <time>2022-04-16T10:45:55.848Z</time>
      </trkpt>
      <trkpt lat="45.63577" lon="5.29592">
        <ele>221</ele>
        <time>2022-04-16T10:45:56.849Z</time>
      </trkpt>
      <trkpt lat="45.63571" lon="5.29591">
        <ele>221</ele>
        <time>2022-04-16T10:45:57.849Z</time>
      </trkpt>
      <trkpt lat="45.63566" lon="5.2959">
        <ele>221</ele>
        <time>2022-04-16T10:45:58.849Z</time>
      </trkpt>
      <trkpt lat="45.63559" lon="5.29589">
        <ele>221</ele>
        <time>2022-04-16T10:45:59.849Z</time>
      </trkpt>
      <trkpt lat="45.63552" lon="5.29588">
        <ele>221</ele>
        <time>2022-04-16T10:46:00.849Z</time>
      </trkpt>
      <trkpt lat="45.63546" lon="5.29587">
        <ele>221</ele>
        <time>2022-04-16T10:46:01.849Z</time>
      </trkpt>
      <trkpt lat="45.63539" lon="5.29586">
        <ele>221</ele>
        <time>2022-04-16T10:46:02.849Z</time>
      </trkpt>
      <trkpt lat="45.63533" lon="5.29585">
        <ele>221</ele>
        <time>2022-04-16T10:46:03.849Z</time>
      </trkpt>
      <trkpt lat="45.63526" lon="5.29584">
        <ele>221</ele>
        <time>2022-04-16T10:46:04.849Z</time>
      </trkpt>
      <trkpt lat="45.6352" lon="5.29583">
        <ele>221</ele>
        <time>2022-04-16T10:46:05.849Z</time>
      </trkpt>
      <trkpt lat="45.63514" lon="5.29582">
        <ele>221</ele>
        <time>2022-04-16T10:46:06.849Z</time>
      </trkpt>
      <trkpt lat="45.63507" lon="5.2958">
        <ele>221</ele>
        <time>2022-04-16T10:46:07.849Z</time>
      </trkpt>
      <trkpt lat="45.635" lon="5.29579">
        <ele>221</ele>
        <time>2022-04-16T10:46:08.849Z</time>
      </trkpt>
      <trkpt lat="45.63493" lon="5.29578">
        <ele>221</ele>
        <time>2022-04-16T10:46:09.849Z</time>
      </trkpt>
      <trkpt lat="45.63486" lon="5.29576">
        <ele>222</ele>
        <time>2022-04-16T10:46:10.848Z</time>
      </trkpt>
      <trkpt lat="45.6348" lon="5.29575">
        <ele>222</ele>
        <time>2022-04-16T10:46:11.849Z</time>
      </trkpt>
      <trkpt lat="45.63474" lon="5.29574">
        <ele>221</ele>
        <time>2022-04-16T10:46:12.848Z</time>
      </trkpt>
      <trkpt lat="45.63466" lon="5.29572">
        <ele>222</ele>
        <time>2022-04-16T10:46:13.849Z</time>
      </trkpt>
      <trkpt lat="45.63459" lon="5.2957">
        <ele>221</ele>
        <time>2022-04-16T10:46:14.849Z</time>
      </trkpt>
      <trkpt lat="45.63453" lon="5.29568">
        <ele>221</ele>
        <time>2022-04-16T10:46:15.848Z</time>
      </trkpt>
      <trkpt lat="45.63448" lon="5.29566">
        <ele>221</ele>
        <time>2022-04-16T10:46:16.849Z</time>
      </trkpt>
      <trkpt lat="45.6344" lon="5.29564">
        <ele>221</ele>
        <time>2022-04-16T10:46:17.849Z</time>
      </trkpt>
      <trkpt lat="45.63433" lon="5.29561">
        <ele>221</ele>
        <time>2022-04-16T10:46:18.848Z</time>
      </trkpt>
      <trkpt lat="45.63426" lon="5.29559">
        <ele>221</ele>
        <time>2022-04-16T10:46:19.849Z</time>
      </trkpt>
      <trkpt lat="45.63419" lon="5.29556">
        <ele>221</ele>
        <time>2022-04-16T10:46:20.849Z</time>
      </trkpt>
      <trkpt lat="45.63412" lon="5.29553">
        <ele>220</ele>
        <time>2022-04-16T10:46:21.849Z</time>
      </trkpt>
      <trkpt lat="45.63406" lon="5.29549">
        <ele>220</ele>
        <time>2022-04-16T10:46:22.849Z</time>
      </trkpt>
      <trkpt lat="45.63399" lon="5.29545">
        <ele>220</ele>
        <time>2022-04-16T10:46:23.848Z</time>
      </trkpt>
      <trkpt lat="45.63393" lon="5.2954">
        <ele>220</ele>
        <time>2022-04-16T10:46:24.849Z</time>
      </trkpt>
      <trkpt lat="45.63386" lon="5.29536">
        <ele>220</ele>
        <time>2022-04-16T10:46:25.849Z</time>
      </trkpt>
      <trkpt lat="45.6338" lon="5.29531">
        <ele>220</ele>
        <time>2022-04-16T10:46:26.849Z</time>
      </trkpt>
      <trkpt lat="45.63375" lon="5.29526">
        <ele>220</ele>
        <time>2022-04-16T10:46:27.849Z</time>
      </trkpt>
      <trkpt lat="45.63369" lon="5.29521">
        <ele>219</ele>
        <time>2022-04-16T10:46:28.849Z</time>
      </trkpt>
      <trkpt lat="45.63363" lon="5.29515">
        <ele>219</ele>
        <time>2022-04-16T10:46:29.849Z</time>
      </trkpt>
      <trkpt lat="45.63359" lon="5.29511">
        <ele>219</ele>
        <time>2022-04-16T10:46:30.849Z</time>
      </trkpt>
      <trkpt lat="45.63352" lon="5.29504">
        <ele>219</ele>
        <time>2022-04-16T10:46:31.849Z</time>
      </trkpt>
      <trkpt lat="45.63347" lon="5.29499">
        <ele>219</ele>
        <time>2022-04-16T10:46:32.849Z</time>
      </trkpt>
      <trkpt lat="45.63342" lon="5.29493">
        <ele>219</ele>
        <time>2022-04-16T10:46:33.849Z</time>
      </trkpt>
      <trkpt lat="45.63337" lon="5.29487">
        <ele>219</ele>
        <time>2022-04-16T10:46:34.849Z</time>
      </trkpt>
      <trkpt lat="45.63333" lon="5.29483">
        <ele>219</ele>
        <time>2022-04-16T10:46:35.848Z</time>
      </trkpt>
      <trkpt lat="45.63327" lon="5.29476">
        <ele>219</ele>
        <time>2022-04-16T10:46:36.849Z</time>
      </trkpt>
      <trkpt lat="45.63322" lon="5.2947">
        <ele>219</ele>
        <time>2022-04-16T10:46:37.849Z</time>
      </trkpt>
      <trkpt lat="45.63317" lon="5.29465">
        <ele>219</ele>
        <time>2022-04-16T10:46:38.849Z</time>
      </trkpt>
      <trkpt lat="45.63312" lon="5.2946">
        <ele>220</ele>
        <time>2022-04-16T10:46:39.849Z</time>
      </trkpt>
      <trkpt lat="45.63307" lon="5.29454">
        <ele>220</ele>
        <time>2022-04-16T10:46:40.849Z</time>
      </trkpt>
      <trkpt lat="45.63302" lon="5.29449">
        <ele>220</ele>
        <time>2022-04-16T10:46:41.849Z</time>
      </trkpt>
      <trkpt lat="45.63297" lon="5.29444">
        <ele>220</ele>
        <time>2022-04-16T10:46:42.849Z</time>
      </trkpt>
      <trkpt lat="45.63293" lon="5.2944">
        <ele>220</ele>
        <time>2022-04-16T10:46:43.849Z</time>
      </trkpt>
      <trkpt lat="45.63288" lon="5.29434">
        <ele>220</ele>
        <time>2022-04-16T10:46:44.849Z</time>
      </trkpt>
      <trkpt lat="45.63282" lon="5.29428">
        <ele>220</ele>
        <time>2022-04-16T10:46:45.849Z</time>
      </trkpt>
      <trkpt lat="45.63278" lon="5.29423">
        <ele>220</ele>
        <time>2022-04-16T10:46:46.849Z</time>
      </trkpt>
      <trkpt lat="45.63273" lon="5.29417">
        <ele>220</ele>
        <time>2022-04-16T10:46:47.848Z</time>
      </trkpt>
      <trkpt lat="45.63268" lon="5.29412">
        <ele>220</ele>
        <time>2022-04-16T10:46:48.849Z</time>
      </trkpt>
      <trkpt lat="45.63263" lon="5.29406">
        <ele>220</ele>
        <time>2022-04-16T10:46:49.848Z</time>
      </trkpt>
      <trkpt lat="45.63259" lon="5.29401">
        <ele>220</ele>
        <time>2022-04-16T10:46:50.849Z</time>
      </trkpt>
      <trkpt lat="45.63254" lon="5.29395">
        <ele>221</ele>
        <time>2022-04-16T10:46:51.849Z</time>
      </trkpt>
      <trkpt lat="45.6325" lon="5.29391">
        <ele>221</ele>
        <time>2022-04-16T10:46:52.849Z</time>
      </trkpt>
      <trkpt lat="45.63245" lon="5.29385">
        <ele>221</ele>
        <time>2022-04-16T10:46:53.849Z</time>
      </trkpt>
      <trkpt lat="45.6324" lon="5.29378">
        <ele>221</ele>
        <time>2022-04-16T10:46:54.849Z</time>
      </trkpt>
      <trkpt lat="45.63235" lon="5.29372">
        <ele>221</ele>
        <time>2022-04-16T10:46:55.849Z</time>
      </trkpt>
      <trkpt lat="45.6323" lon="5.29367">
        <ele>221</ele>
        <time>2022-04-16T10:46:56.849Z</time>
      </trkpt>
      <trkpt lat="45.63227" lon="5.29362">
        <ele>221</ele>
        <time>2022-04-16T10:46:57.849Z</time>
      </trkpt>
      <trkpt lat="45.63222" lon="5.29356">
        <ele>221</ele>
        <time>2022-04-16T10:46:58.848Z</time>
      </trkpt>
      <trkpt lat="45.63216" lon="5.2935">
        <ele>221</ele>
        <time>2022-04-16T10:46:59.849Z</time>
      </trkpt>
      <trkpt lat="45.63212" lon="5.29344">
        <ele>221</ele>
        <time>2022-04-16T10:47:00.848Z</time>
      </trkpt>
      <trkpt lat="45.63207" lon="5.29339">
        <ele>221</ele>
        <time>2022-04-16T10:47:01.849Z</time>
      </trkpt>
      <trkpt lat="45.63203" lon="5.29333">
        <ele>221</ele>
        <time>2022-04-16T10:47:02.849Z</time>
      </trkpt>
      <trkpt lat="45.63198" lon="5.29327">
        <ele>221</ele>
        <time>2022-04-16T10:47:03.849Z</time>
      </trkpt>
      <trkpt lat="45.63194" lon="5.29321">
        <ele>221</ele>
        <time>2022-04-16T10:47:04.849Z</time>
      </trkpt>
      <trkpt lat="45.63189" lon="5.29316">
        <ele>221</ele>
        <time>2022-04-16T10:47:05.849Z</time>
      </trkpt>
      <trkpt lat="45.63185" lon="5.2931">
        <ele>221</ele>
        <time>2022-04-16T10:47:06.849Z</time>
      </trkpt>
      <trkpt lat="45.63181" lon="5.29305">
        <ele>221</ele>
        <time>2022-04-16T10:47:07.849Z</time>
      </trkpt>
      <trkpt lat="45.63176" lon="5.29298">
        <ele>221</ele>
        <time>2022-04-16T10:47:08.849Z</time>
      </trkpt>
      <trkpt lat="45.63171" lon="5.29293">
        <ele>221</ele>
        <time>2022-04-16T10:47:09.848Z</time>
      </trkpt>
      <trkpt lat="45.63167" lon="5.29287">
        <ele>221</ele>
        <time>2022-04-16T10:47:10.849Z</time>
      </trkpt>
      <trkpt lat="45.63163" lon="5.29282">
        <ele>220</ele>
        <time>2022-04-16T10:47:11.849Z</time>
      </trkpt>
      <trkpt lat="45.63158" lon="5.29276">
        <ele>220</ele>
        <time>2022-04-16T10:47:12.849Z</time>
      </trkpt>
      <trkpt lat="45.63154" lon="5.29271">
        <ele>220</ele>
        <time>2022-04-16T10:47:13.848Z</time>
      </trkpt>
      <trkpt lat="45.6315" lon="5.29265">
        <ele>220</ele>
        <time>2022-04-16T10:47:14.849Z</time>
      </trkpt>
      <trkpt lat="45.63145" lon="5.29259">
        <ele>221</ele>
        <time>2022-04-16T10:47:15.849Z</time>
      </trkpt>
      <trkpt lat="45.63142" lon="5.29255">
        <ele>221</ele>
        <time>2022-04-16T10:47:16.849Z</time>
      </trkpt>
      <trkpt lat="45.63136" lon="5.29248">
        <ele>221</ele>
        <time>2022-04-16T10:47:17.849Z</time>
      </trkpt>
      <trkpt lat="45.63132" lon="5.29242">
        <ele>221</ele>
        <time>2022-04-16T10:47:18.849Z</time>
      </trkpt>
      <trkpt lat="45.63127" lon="5.29237">
        <ele>221</ele>
        <time>2022-04-16T10:47:19.849Z</time>
      </trkpt>
      <trkpt lat="45.63123" lon="5.29231">
        <ele>221</ele>
        <time>2022-04-16T10:47:20.849Z</time>
      </trkpt>
      <trkpt lat="45.63118" lon="5.29226">
        <ele>221</ele>
        <time>2022-04-16T10:47:21.849Z</time>
      </trkpt>
      <trkpt lat="45.63113" lon="5.2922">
        <ele>221</ele>
        <time>2022-04-16T10:47:22.849Z</time>
      </trkpt>
      <trkpt lat="45.63109" lon="5.29214">
        <ele>221</ele>
        <time>2022-04-16T10:47:23.849Z</time>
      </trkpt>
      <trkpt lat="45.63104" lon="5.29208">
        <ele>221</ele>
        <time>2022-04-16T10:47:24.848Z</time>
      </trkpt>
      <trkpt lat="45.631" lon="5.29203">
        <ele>221</ele>
        <time>2022-04-16T10:47:25.848Z</time>
      </trkpt>
      <trkpt lat="45.63095" lon="5.29197">
        <ele>221</ele>
        <time>2022-04-16T10:47:26.848Z</time>
      </trkpt>
      <trkpt lat="45.63091" lon="5.29191">
        <ele>221</ele>
        <time>2022-04-16T10:47:27.848Z</time>
      </trkpt>
      <trkpt lat="45.63086" lon="5.29186">
        <ele>221</ele>
        <time>2022-04-16T10:47:28.848Z</time>
      </trkpt>
      <trkpt lat="45.63081" lon="5.2918">
        <ele>221</ele>
        <time>2022-04-16T10:47:29.849Z</time>
      </trkpt>
      <trkpt lat="45.63078" lon="5.29176">
        <ele>221</ele>
        <time>2022-04-16T10:47:30.849Z</time>
      </trkpt>
      <trkpt lat="45.63072" lon="5.29169">
        <ele>221</ele>
        <time>2022-04-16T10:47:31.849Z</time>
      </trkpt>
      <trkpt lat="45.63068" lon="5.29163">
        <ele>221</ele>
        <time>2022-04-16T10:47:32.849Z</time>
      </trkpt>
      <trkpt lat="45.63064" lon="5.29157">
        <ele>221</ele>
        <time>2022-04-16T10:47:33.849Z</time>
      </trkpt>
      <trkpt lat="45.6306" lon="5.29151">
        <ele>221</ele>
        <time>2022-04-16T10:47:34.849Z</time>
      </trkpt>
      <trkpt lat="45.63055" lon="5.29146">
        <ele>221</ele>
        <time>2022-04-16T10:47:35.848Z</time>
      </trkpt>
      <trkpt lat="45.63051" lon="5.2914">
        <ele>221</ele>
        <time>2022-04-16T10:47:36.849Z</time>
      </trkpt>
      <trkpt lat="45.63046" lon="5.29134">
        <ele>221</ele>
        <time>2022-04-16T10:47:37.849Z</time>
      </trkpt>
      <trkpt lat="45.63042" lon="5.29129">
        <ele>220</ele>
        <time>2022-04-16T10:47:38.849Z</time>
      </trkpt>
      <trkpt lat="45.63037" lon="5.29123">
        <ele>220</ele>
        <time>2022-04-16T10:47:39.849Z</time>
      </trkpt>
      <trkpt lat="45.63033" lon="5.29118">
        <ele>220</ele>
        <time>2022-04-16T10:47:40.848Z</time>
      </trkpt>
      <trkpt lat="45.63029" lon="5.29112">
        <ele>220</ele>
        <time>2022-04-16T10:47:41.849Z</time>
      </trkpt>
      <trkpt lat="45.63024" lon="5.29107">
        <ele>220</ele>
        <time>2022-04-16T10:47:42.849Z</time>
      </trkpt>
      <trkpt lat="45.6302" lon="5.29101">
        <ele>220</ele>
        <time>2022-04-16T10:47:43.849Z</time>
      </trkpt>
      <trkpt lat="45.63016" lon="5.29096">
        <ele>219</ele>
        <time>2022-04-16T10:47:44.849Z</time>
      </trkpt>
      <trkpt lat="45.63012" lon="5.2909">
        <ele>219</ele>
        <time>2022-04-16T10:47:45.848Z</time>
      </trkpt>
      <trkpt lat="45.63007" lon="5.29085">
        <ele>219</ele>
        <time>2022-04-16T10:47:46.849Z</time>
      </trkpt>
      <trkpt lat="45.63003" lon="5.29079">
        <ele>219</ele>
        <time>2022-04-16T10:47:47.849Z</time>
      </trkpt>
      <trkpt lat="45.62999" lon="5.29074">
        <ele>219</ele>
        <time>2022-04-16T10:47:48.849Z</time>
      </trkpt>
      <trkpt lat="45.62995" lon="5.29068">
        <ele>219</ele>
        <time>2022-04-16T10:47:49.849Z</time>
      </trkpt>
      <trkpt lat="45.6299" lon="5.29063">
        <ele>219</ele>
        <time>2022-04-16T10:47:50.849Z</time>
      </trkpt>
      <trkpt lat="45.62986" lon="5.29057">
        <ele>219</ele>
        <time>2022-04-16T10:47:51.849Z</time>
      </trkpt>
      <trkpt lat="45.62983" lon="5.29053">
        <ele>220</ele>
        <time>2022-04-16T10:47:52.849Z</time>
      </trkpt>
      <trkpt lat="45.62978" lon="5.29047">
        <ele>220</ele>
        <time>2022-04-16T10:47:53.849Z</time>
      </trkpt>
      <trkpt lat="45.62973" lon="5.2904">
        <ele>220</ele>
        <time>2022-04-16T10:47:54.849Z</time>
      </trkpt>
      <trkpt lat="45.62968" lon="5.29035">
        <ele>221</ele>
        <time>2022-04-16T10:47:55.849Z</time>
      </trkpt>
      <trkpt lat="45.62964" lon="5.29029">
        <ele>221</ele>
        <time>2022-04-16T10:47:56.849Z</time>
      </trkpt>
      <trkpt lat="45.62959" lon="5.29023">
        <ele>220</ele>
        <time>2022-04-16T10:47:57.849Z</time>
      </trkpt>
      <trkpt lat="45.62956" lon="5.29019">
        <ele>220</ele>
        <time>2022-04-16T10:47:58.849Z</time>
      </trkpt>
      <trkpt lat="45.6295" lon="5.29012">
        <ele>220</ele>
        <time>2022-04-16T10:47:59.849Z</time>
      </trkpt>
      <trkpt lat="45.62946" lon="5.29006">
        <ele>220</ele>
        <time>2022-04-16T10:48:00.848Z</time>
      </trkpt>
      <trkpt lat="45.62942" lon="5.29001">
        <ele>220</ele>
        <time>2022-04-16T10:48:01.849Z</time>
      </trkpt>
      <trkpt lat="45.62937" lon="5.28995">
        <ele>221</ele>
        <time>2022-04-16T10:48:02.849Z</time>
      </trkpt>
      <trkpt lat="45.62933" lon="5.2899">
        <ele>221</ele>
        <time>2022-04-16T10:48:03.848Z</time>
      </trkpt>
      <trkpt lat="45.62929" lon="5.28984">
        <ele>222</ele>
        <time>2022-04-16T10:48:04.849Z</time>
      </trkpt>
      <trkpt lat="45.62924" lon="5.28978">
        <ele>222</ele>
        <time>2022-04-16T10:48:05.849Z</time>
      </trkpt>
      <trkpt lat="45.6292" lon="5.28973">
        <ele>222</ele>
        <time>2022-04-16T10:48:06.848Z</time>
      </trkpt>
      <trkpt lat="45.62915" lon="5.28967">
        <ele>222</ele>
        <time>2022-04-16T10:48:07.849Z</time>
      </trkpt>
      <trkpt lat="45.62911" lon="5.28962">
        <ele>222</ele>
        <time>2022-04-16T10:48:08.849Z</time>
      </trkpt>
      <trkpt lat="45.62906" lon="5.28956">
        <ele>222</ele>
        <time>2022-04-16T10:48:09.849Z</time>
      </trkpt>
      <trkpt lat="45.62902" lon="5.2895">
        <ele>222</ele>
        <time>2022-04-16T10:48:10.848Z</time>
      </trkpt>
      <trkpt lat="45.62898" lon="5.28945">
        <ele>222</ele>
        <time>2022-04-16T10:48:11.848Z</time>
      </trkpt>
      <trkpt lat="45.62893" lon="5.28939">
        <ele>222</ele>
        <time>2022-04-16T10:48:12.849Z</time>
      </trkpt>
      <trkpt lat="45.62889" lon="5.28934">
        <ele>222</ele>
        <time>2022-04-16T10:48:13.848Z</time>
      </trkpt>
      <trkpt lat="45.62885" lon="5.28928">
        <ele>222</ele>
        <time>2022-04-16T10:48:14.849Z</time>
      </trkpt>
      <trkpt lat="45.6288" lon="5.28922">
        <ele>222</ele>
        <time>2022-04-16T10:48:15.849Z</time>
      </trkpt>
      <trkpt lat="45.62876" lon="5.28917">
        <ele>222</ele>
        <time>2022-04-16T10:48:16.849Z</time>
      </trkpt>
      <trkpt lat="45.62872" lon="5.28911">
        <ele>222</ele>
        <time>2022-04-16T10:48:17.849Z</time>
      </trkpt>
      <trkpt lat="45.62867" lon="5.28905">
        <ele>222</ele>
        <time>2022-04-16T10:48:18.848Z</time>
      </trkpt>
      <trkpt lat="45.62863" lon="5.28899">
        <ele>222</ele>
        <time>2022-04-16T10:48:19.848Z</time>
      </trkpt>
      <trkpt lat="45.62859" lon="5.28895">
        <ele>222</ele>
        <time>2022-04-16T10:48:20.849Z</time>
      </trkpt>
      <trkpt lat="45.62854" lon="5.28888">
        <ele>222</ele>
        <time>2022-04-16T10:48:21.849Z</time>
      </trkpt>
      <trkpt lat="45.62849" lon="5.28882">
        <ele>222</ele>
        <time>2022-04-16T10:48:22.849Z</time>
      </trkpt>
      <trkpt lat="45.62844" lon="5.28877">
        <ele>222</ele>
        <time>2022-04-16T10:48:23.849Z</time>
      </trkpt>
      <trkpt lat="45.6284" lon="5.28871">
        <ele>221</ele>
        <time>2022-04-16T10:48:24.849Z</time>
      </trkpt>
      <trkpt lat="45.62835" lon="5.28865">
        <ele>221</ele>
        <time>2022-04-16T10:48:25.848Z</time>
      </trkpt>
      <trkpt lat="45.62831" lon="5.28859">
        <ele>221</ele>
        <time>2022-04-16T10:48:26.849Z</time>
      </trkpt>
      <trkpt lat="45.62827" lon="5.28854">
        <ele>221</ele>
        <time>2022-04-16T10:48:27.849Z</time>
      </trkpt>
      <trkpt lat="45.62822" lon="5.28848">
        <ele>221</ele>
        <time>2022-04-16T10:48:28.849Z</time>
      </trkpt>
      <trkpt lat="45.62818" lon="5.28843">
        <ele>221</ele>
        <time>2022-04-16T10:48:29.848Z</time>
      </trkpt>
      <trkpt lat="45.62813" lon="5.28837">
        <ele>221</ele>
        <time>2022-04-16T10:48:30.849Z</time>
      </trkpt>
      <trkpt lat="45.62809" lon="5.28832">
        <ele>221</ele>
        <time>2022-04-16T10:48:31.849Z</time>
      </trkpt>
      <trkpt lat="45.62804" lon="5.28826">
        <ele>221</ele>
        <time>2022-04-16T10:48:32.848Z</time>
      </trkpt>
      <trkpt lat="45.62799" lon="5.28821">
        <ele>221</ele>
        <time>2022-04-16T10:48:33.848Z</time>
      </trkpt>
      <trkpt lat="45.62795" lon="5.28815">
        <ele>221</ele>
        <time>2022-04-16T10:48:34.849Z</time>
      </trkpt>
      <trkpt lat="45.62791" lon="5.2881">
        <ele>221</ele>
        <time>2022-04-16T10:48:35.849Z</time>
      </trkpt>
      <trkpt lat="45.62786" lon="5.28805">
        <ele>221</ele>
        <time>2022-04-16T10:48:36.849Z</time>
      </trkpt>
      <trkpt lat="45.62782" lon="5.28799">
        <ele>221</ele>
        <time>2022-04-16T10:48:37.849Z</time>
      </trkpt>
      <trkpt lat="45.62778" lon="5.28793">
        <ele>221</ele>
        <time>2022-04-16T10:48:38.849Z</time>
      </trkpt>
      <trkpt lat="45.62774" lon="5.28788">
        <ele>220</ele>
        <time>2022-04-16T10:48:39.848Z</time>
      </trkpt>
      <trkpt lat="45.6277" lon="5.28783">
        <ele>220</ele>
        <time>2022-04-16T10:48:40.849Z</time>
      </trkpt>
      <trkpt lat="45.62766" lon="5.28777">
        <ele>220</ele>
        <time>2022-04-16T10:48:41.849Z</time>
      </trkpt>
      <trkpt lat="45.62762" lon="5.28772">
        <ele>220</ele>
        <time>2022-04-16T10:48:42.849Z</time>
      </trkpt>
      <trkpt lat="45.62758" lon="5.28767">
        <ele>220</ele>
        <time>2022-04-16T10:48:43.849Z</time>
      </trkpt>
      <trkpt lat="45.62754" lon="5.28762">
        <ele>220</ele>
        <time>2022-04-16T10:48:44.848Z</time>
      </trkpt>
      <trkpt lat="45.6275" lon="5.28756">
        <ele>220</ele>
        <time>2022-04-16T10:48:45.849Z</time>
      </trkpt>
      <trkpt lat="45.62745" lon="5.28751">
        <ele>220</ele>
        <time>2022-04-16T10:48:46.849Z</time>
      </trkpt>
      <trkpt lat="45.62741" lon="5.28746">
        <ele>220</ele>
        <time>2022-04-16T10:48:47.849Z</time>
      </trkpt>
      <trkpt lat="45.62738" lon="5.28742">
        <ele>220</ele>
        <time>2022-04-16T10:48:48.848Z</time>
      </trkpt>
      <trkpt lat="45.62733" lon="5.28735">
        <ele>220</ele>
        <time>2022-04-16T10:48:49.849Z</time>
      </trkpt>
      <trkpt lat="45.62729" lon="5.2873">
        <ele>220</ele>
        <time>2022-04-16T10:48:50.848Z</time>
      </trkpt>
      <trkpt lat="45.62724" lon="5.28725">
        <ele>220</ele>
        <time>2022-04-16T10:48:51.849Z</time>
      </trkpt>
      <trkpt lat="45.6272" lon="5.2872">
        <ele>219</ele>
        <time>2022-04-16T10:48:52.849Z</time>
      </trkpt>
      <trkpt lat="45.62715" lon="5.28716">
        <ele>219</ele>
        <time>2022-04-16T10:48:53.849Z</time>
      </trkpt>
      <trkpt lat="45.62711" lon="5.28713">
        <ele>219</ele>
        <time>2022-04-16T10:48:54.849Z</time>
      </trkpt>
      <trkpt lat="45.62705" lon="5.28709">
        <ele>219</ele>
        <time>2022-04-16T10:48:55.848Z</time>
      </trkpt>
      <trkpt lat="45.627" lon="5.28707">
        <ele>219</ele>
        <time>2022-04-16T10:48:56.849Z</time>
      </trkpt>
      <trkpt lat="45.62695" lon="5.28704">
        <ele>220</ele>
        <time>2022-04-16T10:48:57.849Z</time>
      </trkpt>
      <trkpt lat="45.62689" lon="5.28703">
        <ele>220</ele>
        <time>2022-04-16T10:48:58.849Z</time>
      </trkpt>
      <trkpt lat="45.62684" lon="5.28701">
        <ele>220</ele>
        <time>2022-04-16T10:48:59.849Z</time>
      </trkpt>
      <trkpt lat="45.62678" lon="5.28699">
        <ele>220</ele>
        <time>2022-04-16T10:49:00.849Z</time>
      </trkpt>
      <trkpt lat="45.62672" lon="5.28698">
        <ele>220</ele>
        <time>2022-04-16T10:49:01.849Z</time>
      </trkpt>
      <trkpt lat="45.62667" lon="5.28696">
        <ele>220</ele>
        <time>2022-04-16T10:49:02.849Z</time>
      </trkpt>
      <trkpt lat="45.62661" lon="5.28694">
        <ele>220</ele>
        <time>2022-04-16T10:49:03.849Z</time>
      </trkpt>
      <trkpt lat="45.62655" lon="5.28691">
        <ele>220</ele>
        <time>2022-04-16T10:49:04.849Z</time>
      </trkpt>
      <trkpt lat="45.6265" lon="5.28689">
        <ele>220</ele>
        <time>2022-04-16T10:49:05.848Z</time>
      </trkpt>
      <trkpt lat="45.62645" lon="5.28687">
        <ele>220</ele>
        <time>2022-04-16T10:49:06.849Z</time>
      </trkpt>
      <trkpt lat="45.62639" lon="5.28684">
        <ele>220</ele>
        <time>2022-04-16T10:49:07.849Z</time>
      </trkpt>
      <trkpt lat="45.62633" lon="5.28682">
        <ele>220</ele>
        <time>2022-04-16T10:49:08.849Z</time>
      </trkpt>
      <trkpt lat="45.62628" lon="5.2868">
        <ele>220</ele>
        <time>2022-04-16T10:49:09.849Z</time>
      </trkpt>
      <trkpt lat="45.62622" lon="5.28678">
        <ele>219</ele>
        <time>2022-04-16T10:49:10.849Z</time>
      </trkpt>
      <trkpt lat="45.62618" lon="5.28675">
        <ele>219</ele>
        <time>2022-04-16T10:49:11.848Z</time>
      </trkpt>
      <trkpt lat="45.62612" lon="5.28671">
        <ele>219</ele>
        <time>2022-04-16T10:49:12.849Z</time>
      </trkpt>
      <trkpt lat="45.62607" lon="5.28667">
        <ele>219</ele>
        <time>2022-04-16T10:49:13.849Z</time>
      </trkpt>
      <trkpt lat="45.62603" lon="5.28663">
        <ele>219</ele>
        <time>2022-04-16T10:49:14.849Z</time>
      </trkpt>
      <trkpt lat="45.62599" lon="5.28659">
        <ele>219</ele>
        <time>2022-04-16T10:49:15.849Z</time>
      </trkpt>
      <trkpt lat="45.62594" lon="5.28656">
        <ele>219</ele>
        <time>2022-04-16T10:49:16.849Z</time>
      </trkpt>
      <trkpt lat="45.62589" lon="5.28653">
        <ele>219</ele>
        <time>2022-04-16T10:49:17.849Z</time>
      </trkpt>
      <trkpt lat="45.62584" lon="5.28651">
        <ele>219</ele>
        <time>2022-04-16T10:49:18.849Z</time>
      </trkpt>
      <trkpt lat="45.62579" lon="5.28647">
        <ele>219</ele>
        <time>2022-04-16T10:49:19.849Z</time>
      </trkpt>
      <trkpt lat="45.62576" lon="5.28644">
        <ele>220</ele>
        <time>2022-04-16T10:49:20.849Z</time>
      </trkpt>
      <trkpt lat="45.6257" lon="5.28638">
        <ele>220</ele>
        <time>2022-04-16T10:49:21.848Z</time>
      </trkpt>
      <trkpt lat="45.62566" lon="5.28632">
        <ele>220</ele>
        <time>2022-04-16T10:49:22.849Z</time>
      </trkpt>
      <trkpt lat="45.62562" lon="5.28626">
        <ele>220</ele>
        <time>2022-04-16T10:49:23.848Z</time>
      </trkpt>
      <trkpt lat="45.62558" lon="5.28621">
        <ele>221</ele>
        <time>2022-04-16T10:49:24.849Z</time>
      </trkpt>
      <trkpt lat="45.62554" lon="5.28615">
        <ele>221</ele>
        <time>2022-04-16T10:49:25.848Z</time>
      </trkpt>
      <trkpt lat="45.6255" lon="5.2861">
        <ele>220</ele>
        <time>2022-04-16T10:49:26.848Z</time>
      </trkpt>
      <trkpt lat="45.62546" lon="5.28604">
        <ele>220</ele>
        <time>2022-04-16T10:49:27.849Z</time>
      </trkpt>
      <trkpt lat="45.62542" lon="5.28599">
        <ele>220</ele>
        <time>2022-04-16T10:49:28.849Z</time>
      </trkpt>
      <trkpt lat="45.62538" lon="5.28594">
        <ele>220</ele>
        <time>2022-04-16T10:49:29.849Z</time>
      </trkpt>
      <trkpt lat="45.62534" lon="5.28589">
        <ele>220</ele>
        <time>2022-04-16T10:49:30.849Z</time>
      </trkpt>
      <trkpt lat="45.62529" lon="5.28584">
        <ele>220</ele>
        <time>2022-04-16T10:49:31.849Z</time>
      </trkpt>
      <trkpt lat="45.62525" lon="5.28579">
        <ele>220</ele>
        <time>2022-04-16T10:49:32.849Z</time>
      </trkpt>
      <trkpt lat="45.62522" lon="5.28574">
        <ele>220</ele>
        <time>2022-04-16T10:49:33.849Z</time>
      </trkpt>
      <trkpt lat="45.62518" lon="5.28568">
        <ele>220</ele>
        <time>2022-04-16T10:49:34.849Z</time>
      </trkpt>
      <trkpt lat="45.62514" lon="5.28563">
        <ele>220</ele>
        <time>2022-04-16T10:49:35.849Z</time>
      </trkpt>
      <trkpt lat="45.6251" lon="5.28557">
        <ele>220</ele>
        <time>2022-04-16T10:49:36.849Z</time>
      </trkpt>
      <trkpt lat="45.62506" lon="5.28551">
        <ele>220</ele>
        <time>2022-04-16T10:49:37.848Z</time>
      </trkpt>
      <trkpt lat="45.62503" lon="5.28545">
        <ele>220</ele>
        <time>2022-04-16T10:49:38.848Z</time>
      </trkpt>
      <trkpt lat="45.62499" lon="5.28539">
        <ele>220</ele>
        <time>2022-04-16T10:49:39.849Z</time>
      </trkpt>
      <trkpt lat="45.62496" lon="5.28532">
        <ele>220</ele>
        <time>2022-04-16T10:49:40.849Z</time>
      </trkpt>
      <trkpt lat="45.62493" lon="5.28525">
        <ele>220</ele>
        <time>2022-04-16T10:49:41.849Z</time>
      </trkpt>
      <trkpt lat="45.6249" lon="5.28518">
        <ele>220</ele>
        <time>2022-04-16T10:49:42.848Z</time>
      </trkpt>
      <trkpt lat="45.62489" lon="5.28511">
        <ele>220</ele>
        <time>2022-04-16T10:49:43.849Z</time>
      </trkpt>
      <trkpt lat="45.62487" lon="5.28503">
        <ele>220</ele>
        <time>2022-04-16T10:49:44.849Z</time>
      </trkpt>
      <trkpt lat="45.62486" lon="5.28495">
        <ele>220</ele>
        <time>2022-04-16T10:49:45.848Z</time>
      </trkpt>
      <trkpt lat="45.62485" lon="5.28487">
        <ele>220</ele>
        <time>2022-04-16T10:49:46.848Z</time>
      </trkpt>
      <trkpt lat="45.62484" lon="5.28479">
        <ele>220</ele>
        <time>2022-04-16T10:49:47.849Z</time>
      </trkpt>
      <trkpt lat="45.62483" lon="5.28471">
        <ele>220</ele>
        <time>2022-04-16T10:49:48.849Z</time>
      </trkpt>
      <trkpt lat="45.62482" lon="5.28463">
        <ele>220</ele>
        <time>2022-04-16T10:49:49.849Z</time>
      </trkpt>
      <trkpt lat="45.6248" lon="5.28456">
        <ele>220</ele>
        <time>2022-04-16T10:49:50.848Z</time>
      </trkpt>
      <trkpt lat="45.62479" lon="5.28447">
        <ele>220</ele>
        <time>2022-04-16T10:49:51.849Z</time>
      </trkpt>
      <trkpt lat="45.62478" lon="5.2844">
        <ele>220</ele>
        <time>2022-04-16T10:49:52.849Z</time>
      </trkpt>
      <trkpt lat="45.62476" lon="5.28432">
        <ele>220</ele>
        <time>2022-04-16T10:49:53.849Z</time>
      </trkpt>
      <trkpt lat="45.62474" lon="5.28424">
        <ele>220</ele>
        <time>2022-04-16T10:49:54.849Z</time>
      </trkpt>
      <trkpt lat="45.62471" lon="5.28416">
        <ele>220</ele>
        <time>2022-04-16T10:49:55.849Z</time>
      </trkpt>
      <trkpt lat="45.62469" lon="5.28409">
        <ele>220</ele>
        <time>2022-04-16T10:49:56.848Z</time>
      </trkpt>
      <trkpt lat="45.62466" lon="5.28402">
        <ele>220</ele>
        <time>2022-04-16T10:49:57.849Z</time>
      </trkpt>
      <trkpt lat="45.62463" lon="5.28395">
        <ele>220</ele>
        <time>2022-04-16T10:49:58.848Z</time>
      </trkpt>
      <trkpt lat="45.6246" lon="5.28388">
        <ele>220</ele>
        <time>2022-04-16T10:49:59.849Z</time>
      </trkpt>
      <trkpt lat="45.62456" lon="5.28382">
        <ele>221</ele>
        <time>2022-04-16T10:50:00.849Z</time>
      </trkpt>
      <trkpt lat="45.62452" lon="5.28376">
        <ele>221</ele>
        <time>2022-04-16T10:50:01.849Z</time>
      </trkpt>
      <trkpt lat="45.62448" lon="5.2837">
        <ele>221</ele>
        <time>2022-04-16T10:50:02.849Z</time>
      </trkpt>
      <trkpt lat="45.62443" lon="5.28365">
        <ele>221</ele>
        <time>2022-04-16T10:50:03.848Z</time>
      </trkpt>
      <trkpt lat="45.62439" lon="5.28359">
        <ele>221</ele>
        <time>2022-04-16T10:50:04.849Z</time>
      </trkpt>
      <trkpt lat="45.62435" lon="5.28354">
        <ele>221</ele>
        <time>2022-04-16T10:50:05.849Z</time>
      </trkpt>
      <trkpt lat="45.6243" lon="5.28348">
        <ele>221</ele>
        <time>2022-04-16T10:50:06.849Z</time>
      </trkpt>
      <trkpt lat="45.62426" lon="5.28342">
        <ele>221</ele>
        <time>2022-04-16T10:50:07.849Z</time>
      </trkpt>
      <trkpt lat="45.62422" lon="5.28336">
        <ele>221</ele>
        <time>2022-04-16T10:50:08.849Z</time>
      </trkpt>
      <trkpt lat="45.62417" lon="5.28331">
        <ele>221</ele>
        <time>2022-04-16T10:50:09.848Z</time>
      </trkpt>
      <trkpt lat="45.62413" lon="5.28325">
        <ele>221</ele>
        <time>2022-04-16T10:50:10.849Z</time>
      </trkpt>
      <trkpt lat="45.62409" lon="5.28319">
        <ele>221</ele>
        <time>2022-04-16T10:50:11.849Z</time>
      </trkpt>
      <trkpt lat="45.62404" lon="5.28314">
        <ele>221</ele>
        <time>2022-04-16T10:50:12.849Z</time>
      </trkpt>
      <trkpt lat="45.624" lon="5.28308">
        <ele>220</ele>
        <time>2022-04-16T10:50:13.849Z</time>
      </trkpt>
      <trkpt lat="45.62396" lon="5.28303">
        <ele>220</ele>
        <time>2022-04-16T10:50:14.849Z</time>
      </trkpt>
      <trkpt lat="45.62392" lon="5.28298">
        <ele>220</ele>
        <time>2022-04-16T10:50:15.848Z</time>
      </trkpt>
      <trkpt lat="45.62387" lon="5.28294">
        <ele>221</ele>
        <time>2022-04-16T10:50:16.849Z</time>
      </trkpt>
      <trkpt lat="45.62383" lon="5.28289">
        <ele>221</ele>
        <time>2022-04-16T10:50:17.849Z</time>
      </trkpt>
      <trkpt lat="45.62379" lon="5.28284">
        <ele>221</ele>
        <time>2022-04-16T10:50:18.848Z</time>
      </trkpt>
      <trkpt lat="45.62375" lon="5.28279">
        <ele>221</ele>
        <time>2022-04-16T10:50:19.849Z</time>
      </trkpt>
      <trkpt lat="45.62371" lon="5.28274">
        <ele>221</ele>
        <time>2022-04-16T10:50:20.848Z</time>
      </trkpt>
      <trkpt lat="45.62367" lon="5.28269">
        <ele>221</ele>
        <time>2022-04-16T10:50:21.849Z</time>
      </trkpt>
      <trkpt lat="45.62363" lon="5.28264">
        <ele>221</ele>
        <time>2022-04-16T10:50:22.849Z</time>
      </trkpt>
      <trkpt lat="45.6236" lon="5.2826">
        <ele>221</ele>
        <time>2022-04-16T10:50:23.849Z</time>
      </trkpt>
      <trkpt lat="45.62356" lon="5.28255">
        <ele>221</ele>
        <time>2022-04-16T10:50:24.849Z</time>
      </trkpt>
      <trkpt lat="45.62353" lon="5.28251">
        <ele>221</ele>
        <time>2022-04-16T10:50:25.849Z</time>
      </trkpt>
      <trkpt lat="45.62349" lon="5.28246">
        <ele>221</ele>
        <time>2022-04-16T10:50:26.849Z</time>
      </trkpt>
      <trkpt lat="45.62346" lon="5.28243">
        <ele>221</ele>
        <time>2022-04-16T10:50:27.849Z</time>
      </trkpt>
      <trkpt lat="45.62343" lon="5.28239">
        <ele>221</ele>
        <time>2022-04-16T10:50:28.848Z</time>
      </trkpt>
      <trkpt lat="45.62341" lon="5.28235">
        <ele>221</ele>
        <time>2022-04-16T10:50:29.849Z</time>
      </trkpt>
      <trkpt lat="45.62338" lon="5.28232">
        <ele>221</ele>
        <time>2022-04-16T10:50:30.849Z</time>
      </trkpt>
      <trkpt lat="45.62335" lon="5.28228">
        <ele>222</ele>
        <time>2022-04-16T10:50:31.849Z</time>
      </trkpt>
      <trkpt lat="45.62332" lon="5.28224">
        <ele>222</ele>
        <time>2022-04-16T10:50:32.848Z</time>
      </trkpt>
      <trkpt lat="45.62328" lon="5.28219">
        <ele>222</ele>
        <time>2022-04-16T10:50:33.849Z</time>
      </trkpt>
      <trkpt lat="45.62325" lon="5.28215">
        <ele>222</ele>
        <time>2022-04-16T10:50:34.849Z</time>
      </trkpt>
      <trkpt lat="45.62322" lon="5.28211">
        <ele>222</ele>
        <time>2022-04-16T10:50:35.849Z</time>
      </trkpt>
      <trkpt lat="45.62318" lon="5.28206">
        <ele>222</ele>
        <time>2022-04-16T10:50:36.848Z</time>
      </trkpt>
      <trkpt lat="45.62315" lon="5.28202">
        <ele>222</ele>
        <time>2022-04-16T10:50:37.849Z</time>
      </trkpt>
      <trkpt lat="45.62312" lon="5.28197">
        <ele>223</ele>
        <time>2022-04-16T10:50:38.849Z</time>
      </trkpt>
      <trkpt lat="45.62309" lon="5.28193">
        <ele>223</ele>
        <time>2022-04-16T10:50:39.849Z</time>
      </trkpt>
      <trkpt lat="45.62306" lon="5.28189">
        <ele>223</ele>
        <time>2022-04-16T10:50:40.849Z</time>
      </trkpt>
      <trkpt lat="45.62303" lon="5.28185">
        <ele>224</ele>
        <time>2022-04-16T10:50:41.848Z</time>
      </trkpt>
      <trkpt lat="45.62299" lon="5.28181">
        <ele>224</ele>
        <time>2022-04-16T10:50:42.848Z</time>
      </trkpt>
      <trkpt lat="45.62296" lon="5.28177">
        <ele>224</ele>
        <time>2022-04-16T10:50:43.849Z</time>
      </trkpt>
      <trkpt lat="45.62292" lon="5.28173">
        <ele>224</ele>
        <time>2022-04-16T10:50:44.849Z</time>
      </trkpt>
      <trkpt lat="45.62289" lon="5.28168">
        <ele>225</ele>
        <time>2022-04-16T10:50:45.849Z</time>
      </trkpt>
      <trkpt lat="45.62286" lon="5.28164">
        <ele>225</ele>
        <time>2022-04-16T10:50:46.849Z</time>
      </trkpt>
      <trkpt lat="45.62283" lon="5.2816">
        <ele>225</ele>
        <time>2022-04-16T10:50:47.849Z</time>
      </trkpt>
      <trkpt lat="45.62279" lon="5.28155">
        <ele>225</ele>
        <time>2022-04-16T10:50:48.848Z</time>
      </trkpt>
      <trkpt lat="45.62276" lon="5.28151">
        <ele>225</ele>
        <time>2022-04-16T10:50:49.849Z</time>
      </trkpt>
      <trkpt lat="45.62272" lon="5.28147">
        <ele>225</ele>
        <time>2022-04-16T10:50:50.849Z</time>
      </trkpt>
      <trkpt lat="45.62269" lon="5.28142">
        <ele>225</ele>
        <time>2022-04-16T10:50:51.848Z</time>
      </trkpt>
      <trkpt lat="45.62265" lon="5.28138">
        <ele>225</ele>
        <time>2022-04-16T10:50:52.849Z</time>
      </trkpt>
      <trkpt lat="45.62262" lon="5.28133">
        <ele>225</ele>
        <time>2022-04-16T10:50:53.849Z</time>
      </trkpt>
      <trkpt lat="45.62258" lon="5.28129">
        <ele>225</ele>
        <time>2022-04-16T10:50:54.849Z</time>
      </trkpt>
      <trkpt lat="45.62255" lon="5.28125">
        <ele>225</ele>
        <time>2022-04-16T10:50:55.849Z</time>
      </trkpt>
      <trkpt lat="45.62252" lon="5.28121">
        <ele>225</ele>
        <time>2022-04-16T10:50:56.849Z</time>
      </trkpt>
      <trkpt lat="45.62248" lon="5.28116">
        <ele>226</ele>
        <time>2022-04-16T10:50:57.849Z</time>
      </trkpt>
      <trkpt lat="45.62245" lon="5.28112">
        <ele>226</ele>
        <time>2022-04-16T10:50:58.849Z</time>
      </trkpt>
      <trkpt lat="45.62241" lon="5.28108">
        <ele>226</ele>
        <time>2022-04-16T10:50:59.849Z</time>
      </trkpt>
      <trkpt lat="45.62238" lon="5.28103">
        <ele>226</ele>
        <time>2022-04-16T10:51:00.849Z</time>
      </trkpt>
      <trkpt lat="45.62235" lon="5.28099">
        <ele>226</ele>
        <time>2022-04-16T10:51:01.849Z</time>
      </trkpt>
      <trkpt lat="45.62232" lon="5.28095">
        <ele>226</ele>
        <time>2022-04-16T10:51:02.849Z</time>
      </trkpt>
      <trkpt lat="45.62228" lon="5.2809">
        <ele>226</ele>
        <time>2022-04-16T10:51:03.849Z</time>
      </trkpt>
      <trkpt lat="45.62224" lon="5.28086">
        <ele>226</ele>
        <time>2022-04-16T10:51:04.849Z</time>
      </trkpt>
      <trkpt lat="45.62221" lon="5.28082">
        <ele>226</ele>
        <time>2022-04-16T10:51:05.849Z</time>
      </trkpt>
      <trkpt lat="45.62217" lon="5.28078">
        <ele>226</ele>
        <time>2022-04-16T10:51:06.849Z</time>
      </trkpt>
      <trkpt lat="45.62214" lon="5.28074">
        <ele>226</ele>
        <time>2022-04-16T10:51:07.849Z</time>
      </trkpt>
      <trkpt lat="45.62211" lon="5.2807">
        <ele>226</ele>
        <time>2022-04-16T10:51:08.848Z</time>
      </trkpt>
      <trkpt lat="45.62207" lon="5.28065">
        <ele>226</ele>
        <time>2022-04-16T10:51:09.849Z</time>
      </trkpt>
      <trkpt lat="45.62204" lon="5.2806">
        <ele>226</ele>
        <time>2022-04-16T10:51:10.849Z</time>
      </trkpt>
      <trkpt lat="45.622" lon="5.28056">
        <ele>226</ele>
        <time>2022-04-16T10:51:11.848Z</time>
      </trkpt>
      <trkpt lat="45.62196" lon="5.28052">
        <ele>226</ele>
        <time>2022-04-16T10:51:12.849Z</time>
      </trkpt>
      <trkpt lat="45.62192" lon="5.28047">
        <ele>226</ele>
        <time>2022-04-16T10:51:13.849Z</time>
      </trkpt>
      <trkpt lat="45.62189" lon="5.28042">
        <ele>226</ele>
        <time>2022-04-16T10:51:14.849Z</time>
      </trkpt>
      <trkpt lat="45.62185" lon="5.28037">
        <ele>226</ele>
        <time>2022-04-16T10:51:15.849Z</time>
      </trkpt>
      <trkpt lat="45.62182" lon="5.28032">
        <ele>226</ele>
        <time>2022-04-16T10:51:16.848Z</time>
      </trkpt>
      <trkpt lat="45.62177" lon="5.28027">
        <ele>226</ele>
        <time>2022-04-16T10:51:17.849Z</time>
      </trkpt>
      <trkpt lat="45.62174" lon="5.28021">
        <ele>226</ele>
        <time>2022-04-16T10:51:18.848Z</time>
      </trkpt>
      <trkpt lat="45.6217" lon="5.28016">
        <ele>226</ele>
        <time>2022-04-16T10:51:19.849Z</time>
      </trkpt>
      <trkpt lat="45.62166" lon="5.2801">
        <ele>226</ele>
        <time>2022-04-16T10:51:20.849Z</time>
      </trkpt>
      <trkpt lat="45.62162" lon="5.28005">
        <ele>227</ele>
        <time>2022-04-16T10:51:21.849Z</time>
      </trkpt>
      <trkpt lat="45.62159" lon="5.27999">
        <ele>227</ele>
        <time>2022-04-16T10:51:22.849Z</time>
      </trkpt>
      <trkpt lat="45.62155" lon="5.27993">
        <ele>228</ele>
        <time>2022-04-16T10:51:23.849Z</time>
      </trkpt>
      <trkpt lat="45.62152" lon="5.27987">
        <ele>228</ele>
        <time>2022-04-16T10:51:24.849Z</time>
      </trkpt>
      <trkpt lat="45.62148" lon="5.27981">
        <ele>228</ele>
        <time>2022-04-16T10:51:25.849Z</time>
      </trkpt>
      <trkpt lat="45.62144" lon="5.27975">
        <ele>227</ele>
        <time>2022-04-16T10:51:26.848Z</time>
      </trkpt>
      <trkpt lat="45.6214" lon="5.27969">
        <ele>227</ele>
        <time>2022-04-16T10:51:27.849Z</time>
      </trkpt>
      <trkpt lat="45.62136" lon="5.27963">
        <ele>227</ele>
        <time>2022-04-16T10:51:28.849Z</time>
      </trkpt>
      <trkpt lat="45.62132" lon="5.27957">
        <ele>226</ele>
        <time>2022-04-16T10:51:29.849Z</time>
      </trkpt>
      <trkpt lat="45.62128" lon="5.2795">
        <ele>226</ele>
        <time>2022-04-16T10:51:30.848Z</time>
      </trkpt>
      <trkpt lat="45.62125" lon="5.27944">
        <ele>226</ele>
        <time>2022-04-16T10:51:31.849Z</time>
      </trkpt>
      <trkpt lat="45.62121" lon="5.27937">
        <ele>226</ele>
        <time>2022-04-16T10:51:32.848Z</time>
      </trkpt>
      <trkpt lat="45.62117" lon="5.27931">
        <ele>226</ele>
        <time>2022-04-16T10:51:33.849Z</time>
      </trkpt>
      <trkpt lat="45.62114" lon="5.27924">
        <ele>227</ele>
        <time>2022-04-16T10:51:34.849Z</time>
      </trkpt>
      <trkpt lat="45.6211" lon="5.27918">
        <ele>227</ele>
        <time>2022-04-16T10:51:35.848Z</time>
      </trkpt>
      <trkpt lat="45.62107" lon="5.27911">
        <ele>227</ele>
        <time>2022-04-16T10:51:36.849Z</time>
      </trkpt>
      <trkpt lat="45.62103" lon="5.27905">
        <ele>227</ele>
        <time>2022-04-16T10:51:37.849Z</time>
      </trkpt>
      <trkpt lat="45.621" lon="5.27898">
        <ele>227</ele>
        <time>2022-04-16T10:51:38.849Z</time>
      </trkpt>
      <trkpt lat="45.62096" lon="5.27892">
        <ele>227</ele>
        <time>2022-04-16T10:51:39.848Z</time>
      </trkpt>
      <trkpt lat="45.62093" lon="5.27885">
        <ele>227</ele>
        <time>2022-04-16T10:51:40.848Z</time>
      </trkpt>
      <trkpt lat="45.6209" lon="5.27878">
        <ele>227</ele>
        <time>2022-04-16T10:51:41.848Z</time>
      </trkpt>
      <trkpt lat="45.62087" lon="5.27871">
        <ele>227</ele>
        <time>2022-04-16T10:51:42.848Z</time>
      </trkpt>
      <trkpt lat="45.62084" lon="5.27864">
        <ele>227</ele>
        <time>2022-04-16T10:51:43.849Z</time>
      </trkpt>
      <trkpt lat="45.6208" lon="5.27857">
        <ele>227</ele>
        <time>2022-04-16T10:51:44.849Z</time>
      </trkpt>
      <trkpt lat="45.62077" lon="5.27849">
        <ele>227</ele>
        <time>2022-04-16T10:51:45.848Z</time>
      </trkpt>
      <trkpt lat="45.62073" lon="5.27842">
        <ele>227</ele>
        <time>2022-04-16T10:51:46.849Z</time>
      </trkpt>
      <trkpt lat="45.6207" lon="5.27834">
        <ele>227</ele>
        <time>2022-04-16T10:51:47.849Z</time>
      </trkpt>
      <trkpt lat="45.62066" lon="5.27826">
        <ele>226</ele>
        <time>2022-04-16T10:51:48.849Z</time>
      </trkpt>
      <trkpt lat="45.62062" lon="5.27818">
        <ele>226</ele>
        <time>2022-04-16T10:51:49.849Z</time>
      </trkpt>
      <trkpt lat="45.62059" lon="5.27809">
        <ele>226</ele>
        <time>2022-04-16T10:51:50.849Z</time>
      </trkpt>
      <trkpt lat="45.62056" lon="5.278">
        <ele>226</ele>
        <time>2022-04-16T10:51:51.848Z</time>
      </trkpt>
      <trkpt lat="45.62052" lon="5.27791">
        <ele>226</ele>
        <time>2022-04-16T10:51:52.849Z</time>
      </trkpt>
      <trkpt lat="45.62048" lon="5.27782">
        <ele>226</ele>
        <time>2022-04-16T10:51:53.849Z</time>
      </trkpt>
      <trkpt lat="45.62045" lon="5.27773">
        <ele>226</ele>
        <time>2022-04-16T10:51:54.849Z</time>
      </trkpt>
      <trkpt lat="45.62042" lon="5.27764">
        <ele>226</ele>
        <time>2022-04-16T10:51:55.849Z</time>
      </trkpt>
      <trkpt lat="45.62038" lon="5.27754">
        <ele>225</ele>
        <time>2022-04-16T10:51:56.849Z</time>
      </trkpt>
      <trkpt lat="45.62035" lon="5.27744">
        <ele>225</ele>
        <time>2022-04-16T10:51:57.849Z</time>
      </trkpt>
      <trkpt lat="45.62032" lon="5.27734">
        <ele>225</ele>
        <time>2022-04-16T10:51:58.849Z</time>
      </trkpt>
      <trkpt lat="45.62029" lon="5.27724">
        <ele>225</ele>
        <time>2022-04-16T10:51:59.849Z</time>
      </trkpt>
      <trkpt lat="45.62025" lon="5.27715">
        <ele>224</ele>
        <time>2022-04-16T10:52:00.849Z</time>
      </trkpt>
      <trkpt lat="45.62022" lon="5.27706">
        <ele>224</ele>
        <time>2022-04-16T10:52:01.849Z</time>
      </trkpt>
      <trkpt lat="45.62019" lon="5.27696">
        <ele>224</ele>
        <time>2022-04-16T10:52:02.849Z</time>
      </trkpt>
      <trkpt lat="45.62016" lon="5.27687">
        <ele>224</ele>
        <time>2022-04-16T10:52:03.849Z</time>
      </trkpt>
      <trkpt lat="45.62013" lon="5.27678">
        <ele>224</ele>
        <time>2022-04-16T10:52:04.849Z</time>
      </trkpt>
      <trkpt lat="45.6201" lon="5.2767">
        <ele>224</ele>
        <time>2022-04-16T10:52:05.849Z</time>
      </trkpt>
      <trkpt lat="45.62006" lon="5.27662">
        <ele>224</ele>
        <time>2022-04-16T10:52:06.849Z</time>
      </trkpt>
      <trkpt lat="45.62002" lon="5.27654">
        <ele>224</ele>
        <time>2022-04-16T10:52:07.849Z</time>
      </trkpt>
      <trkpt lat="45.61999" lon="5.27646">
        <ele>223</ele>
        <time>2022-04-16T10:52:08.849Z</time>
      </trkpt>
      <trkpt lat="45.61995" lon="5.27638">
        <ele>223</ele>
        <time>2022-04-16T10:52:09.848Z</time>
      </trkpt>
      <trkpt lat="45.61991" lon="5.27631">
        <ele>224</ele>
        <time>2022-04-16T10:52:10.849Z</time>
      </trkpt>
      <trkpt lat="45.61986" lon="5.27625">
        <ele>224</ele>
        <time>2022-04-16T10:52:11.849Z</time>
      </trkpt>
      <trkpt lat="45.61981" lon="5.27619">
        <ele>224</ele>
        <time>2022-04-16T10:52:12.849Z</time>
      </trkpt>
      <trkpt lat="45.61977" lon="5.27613">
        <ele>224</ele>
        <time>2022-04-16T10:52:13.849Z</time>
      </trkpt>
      <trkpt lat="45.61972" lon="5.27606">
        <ele>223</ele>
        <time>2022-04-16T10:52:14.848Z</time>
      </trkpt>
      <trkpt lat="45.61968" lon="5.27599">
        <ele>223</ele>
        <time>2022-04-16T10:52:15.848Z</time>
      </trkpt>
      <trkpt lat="45.61964" lon="5.27591">
        <ele>223</ele>
        <time>2022-04-16T10:52:16.849Z</time>
      </trkpt>
      <trkpt lat="45.61959" lon="5.27585">
        <ele>223</ele>
        <time>2022-04-16T10:52:17.849Z</time>
      </trkpt>
      <trkpt lat="45.61955" lon="5.27578">
        <ele>223</ele>
        <time>2022-04-16T10:52:18.849Z</time>
      </trkpt>
      <trkpt lat="45.6195" lon="5.27573">
        <ele>223</ele>
        <time>2022-04-16T10:52:19.848Z</time>
      </trkpt>
      <trkpt lat="45.61945" lon="5.27567">
        <ele>223</ele>
        <time>2022-04-16T10:52:20.848Z</time>
      </trkpt>
      <trkpt lat="45.61941" lon="5.27562">
        <ele>223</ele>
        <time>2022-04-16T10:52:21.849Z</time>
      </trkpt>
      <trkpt lat="45.61936" lon="5.27558">
        <ele>223</ele>
        <time>2022-04-16T10:52:22.849Z</time>
      </trkpt>
      <trkpt lat="45.61932" lon="5.27553">
        <ele>223</ele>
        <time>2022-04-16T10:52:23.848Z</time>
      </trkpt>
      <trkpt lat="45.61929" lon="5.27549">
        <ele>223</ele>
        <time>2022-04-16T10:52:24.849Z</time>
      </trkpt>
      <trkpt lat="45.61925" lon="5.27545">
        <ele>223</ele>
        <time>2022-04-16T10:52:25.849Z</time>
      </trkpt>
      <trkpt lat="45.61921" lon="5.27542">
        <ele>223</ele>
        <time>2022-04-16T10:52:26.849Z</time>
      </trkpt>
      <trkpt lat="45.61917" lon="5.27538">
        <ele>223</ele>
        <time>2022-04-16T10:52:27.849Z</time>
      </trkpt>
      <trkpt lat="45.61913" lon="5.27535">
        <ele>223</ele>
        <time>2022-04-16T10:52:28.849Z</time>
      </trkpt>
      <trkpt lat="45.61909" lon="5.27532">
        <ele>223</ele>
        <time>2022-04-16T10:52:29.849Z</time>
      </trkpt>
      <trkpt lat="45.61905" lon="5.27529">
        <ele>223</ele>
        <time>2022-04-16T10:52:30.849Z</time>
      </trkpt>
      <trkpt lat="45.61901" lon="5.27527">
        <ele>223</ele>
        <time>2022-04-16T10:52:31.849Z</time>
      </trkpt>
      <trkpt lat="45.61898" lon="5.27525">
        <ele>223</ele>
        <time>2022-04-16T10:52:32.849Z</time>
      </trkpt>
      <trkpt lat="45.61894" lon="5.27523">
        <ele>223</ele>
        <time>2022-04-16T10:52:33.848Z</time>
      </trkpt>
      <trkpt lat="45.61891" lon="5.2752">
        <ele>223</ele>
        <time>2022-04-16T10:52:34.849Z</time>
      </trkpt>
      <trkpt lat="45.61889" lon="5.27518">
        <ele>223</ele>
        <time>2022-04-16T10:52:35.849Z</time>
      </trkpt>
      <trkpt lat="45.61886" lon="5.27516">
        <ele>223</ele>
        <time>2022-04-16T10:52:36.848Z</time>
      </trkpt>
      <trkpt lat="45.61882" lon="5.27513">
        <ele>223</ele>
        <time>2022-04-16T10:52:37.849Z</time>
      </trkpt>
      <trkpt lat="45.61879" lon="5.27511">
        <ele>223</ele>
        <time>2022-04-16T10:52:38.848Z</time>
      </trkpt>
      <trkpt lat="45.61875" lon="5.27508">
        <ele>222</ele>
        <time>2022-04-16T10:52:39.848Z</time>
      </trkpt>
      <trkpt lat="45.61872" lon="5.27506">
        <ele>222</ele>
        <time>2022-04-16T10:52:40.849Z</time>
      </trkpt>
      <trkpt lat="45.61868" lon="5.27503">
        <ele>222</ele>
        <time>2022-04-16T10:52:41.848Z</time>
      </trkpt>
      <trkpt lat="45.61865" lon="5.275">
        <ele>222</ele>
        <time>2022-04-16T10:52:42.849Z</time>
      </trkpt>
      <trkpt lat="45.61861" lon="5.27497">
        <ele>222</ele>
        <time>2022-04-16T10:52:43.849Z</time>
      </trkpt>
      <trkpt lat="45.61857" lon="5.27495">
        <ele>221</ele>
        <time>2022-04-16T10:52:44.849Z</time>
      </trkpt>
      <trkpt lat="45.61854" lon="5.27492">
        <ele>221</ele>
        <time>2022-04-16T10:52:45.848Z</time>
      </trkpt>
      <trkpt lat="45.6185" lon="5.2749">
        <ele>221</ele>
        <time>2022-04-16T10:52:46.849Z</time>
      </trkpt>
      <trkpt lat="45.61846" lon="5.27487">
        <ele>221</ele>
        <time>2022-04-16T10:52:47.848Z</time>
      </trkpt>
      <trkpt lat="45.61843" lon="5.27485">
        <ele>220</ele>
        <time>2022-04-16T10:52:48.849Z</time>
      </trkpt>
      <trkpt lat="45.61839" lon="5.27483">
        <ele>220</ele>
        <time>2022-04-16T10:52:49.849Z</time>
      </trkpt>
      <trkpt lat="45.61835" lon="5.27481">
        <ele>220</ele>
        <time>2022-04-16T10:52:50.849Z</time>
      </trkpt>
      <trkpt lat="45.61832" lon="5.27479">
        <ele>220</ele>
        <time>2022-04-16T10:52:51.849Z</time>
      </trkpt>
      <trkpt lat="45.61829" lon="5.27477">
        <ele>220</ele>
        <time>2022-04-16T10:52:52.849Z</time>
      </trkpt>
      <trkpt lat="45.61826" lon="5.27475">
        <ele>220</ele>
        <time>2022-04-16T10:52:53.849Z</time>
      </trkpt>
      <trkpt lat="45.61822" lon="5.27472">
        <ele>220</ele>
        <time>2022-04-16T10:52:54.849Z</time>
      </trkpt>
      <trkpt lat="45.61819" lon="5.27469">
        <ele>221</ele>
        <time>2022-04-16T10:52:55.849Z</time>
      </trkpt>
      <trkpt lat="45.61815" lon="5.27466">
        <ele>221</ele>
        <time>2022-04-16T10:52:56.849Z</time>
      </trkpt>
      <trkpt lat="45.61811" lon="5.27464">
        <ele>222</ele>
        <time>2022-04-16T10:52:57.848Z</time>
      </trkpt>
      <trkpt lat="45.61808" lon="5.27461">
        <ele>222</ele>
        <time>2022-04-16T10:52:58.849Z</time>
      </trkpt>
      <trkpt lat="45.61804" lon="5.27459">
        <ele>222</ele>
        <time>2022-04-16T10:52:59.848Z</time>
      </trkpt>
      <trkpt lat="45.618" lon="5.27457">
        <ele>222</ele>
        <time>2022-04-16T10:53:00.849Z</time>
      </trkpt>
      <trkpt lat="45.61795" lon="5.27454">
        <ele>222</ele>
        <time>2022-04-16T10:53:01.849Z</time>
      </trkpt>
      <trkpt lat="45.61791" lon="5.27452">
        <ele>222</ele>
        <time>2022-04-16T10:53:02.848Z</time>
      </trkpt>
      <trkpt lat="45.61786" lon="5.27449">
        <ele>222</ele>
        <time>2022-04-16T10:53:03.849Z</time>
      </trkpt>
      <trkpt lat="45.61782" lon="5.27447">
        <ele>222</ele>
        <time>2022-04-16T10:53:04.849Z</time>
      </trkpt>
      <trkpt lat="45.61778" lon="5.27444">
        <ele>222</ele>
        <time>2022-04-16T10:53:05.848Z</time>
      </trkpt>
      <trkpt lat="45.61773" lon="5.27441">
        <ele>222</ele>
        <time>2022-04-16T10:53:06.849Z</time>
      </trkpt>
      <trkpt lat="45.61769" lon="5.27439">
        <ele>222</ele>
        <time>2022-04-16T10:53:07.849Z</time>
      </trkpt>
      <trkpt lat="45.61764" lon="5.27437">
        <ele>222</ele>
        <time>2022-04-16T10:53:08.849Z</time>
      </trkpt>
      <trkpt lat="45.61759" lon="5.27434">
        <ele>222</ele>
        <time>2022-04-16T10:53:09.849Z</time>
      </trkpt>
      <trkpt lat="45.61755" lon="5.27432">
        <ele>221</ele>
        <time>2022-04-16T10:53:10.849Z</time>
      </trkpt>
      <trkpt lat="45.6175" lon="5.27429">
        <ele>221</ele>
        <time>2022-04-16T10:53:11.849Z</time>
      </trkpt>
      <trkpt lat="45.61746" lon="5.27427">
        <ele>221</ele>
        <time>2022-04-16T10:53:12.849Z</time>
      </trkpt>
      <trkpt lat="45.61741" lon="5.27424">
        <ele>221</ele>
        <time>2022-04-16T10:53:13.849Z</time>
      </trkpt>
      <trkpt lat="45.61737" lon="5.27421">
        <ele>221</ele>
        <time>2022-04-16T10:53:14.848Z</time>
      </trkpt>
      <trkpt lat="45.61733" lon="5.27418">
        <ele>221</ele>
        <time>2022-04-16T10:53:15.849Z</time>
      </trkpt>
      <trkpt lat="45.61728" lon="5.27416">
        <ele>221</ele>
        <time>2022-04-16T10:53:16.849Z</time>
      </trkpt>
      <trkpt lat="45.61724" lon="5.27413">
        <ele>221</ele>
        <time>2022-04-16T10:53:17.849Z</time>
      </trkpt>
      <trkpt lat="45.61719" lon="5.27411">
        <ele>221</ele>
        <time>2022-04-16T10:53:18.849Z</time>
      </trkpt>
      <trkpt lat="45.61714" lon="5.27408">
        <ele>221</ele>
        <time>2022-04-16T10:53:19.849Z</time>
      </trkpt>
      <trkpt lat="45.6171" lon="5.27405">
        <ele>222</ele>
        <time>2022-04-16T10:53:20.849Z</time>
      </trkpt>
      <trkpt lat="45.61705" lon="5.27402">
        <ele>222</ele>
        <time>2022-04-16T10:53:21.849Z</time>
      </trkpt>
      <trkpt lat="45.617" lon="5.27399">
        <ele>222</ele>
        <time>2022-04-16T10:53:22.849Z</time>
      </trkpt>
      <trkpt lat="45.61696" lon="5.27397">
        <ele>222</ele>
        <time>2022-04-16T10:53:23.849Z</time>
      </trkpt>
      <trkpt lat="45.61691" lon="5.27395">
        <ele>223</ele>
        <time>2022-04-16T10:53:24.848Z</time>
      </trkpt>
      <trkpt lat="45.61686" lon="5.27392">
        <ele>223</ele>
        <time>2022-04-16T10:53:25.849Z</time>
      </trkpt>
      <trkpt lat="45.61681" lon="5.2739">
        <ele>223</ele>
        <time>2022-04-16T10:53:26.849Z</time>
      </trkpt>
      <trkpt lat="45.61677" lon="5.27388">
        <ele>223</ele>
        <time>2022-04-16T10:53:27.849Z</time>
      </trkpt>
      <trkpt lat="45.61672" lon="5.27385">
        <ele>223</ele>
        <time>2022-04-16T10:53:28.849Z</time>
      </trkpt>
      <trkpt lat="45.61667" lon="5.27383">
        <ele>223</ele>
        <time>2022-04-16T10:53:29.849Z</time>
      </trkpt>
      <trkpt lat="45.61662" lon="5.27381">
        <ele>223</ele>
        <time>2022-04-16T10:53:30.849Z</time>
      </trkpt>
      <trkpt lat="45.61658" lon="5.27378">
        <ele>223</ele>
        <time>2022-04-16T10:53:31.849Z</time>
      </trkpt>
      <trkpt lat="45.61653" lon="5.27376">
        <ele>223</ele>
        <time>2022-04-16T10:53:32.849Z</time>
      </trkpt>
      <trkpt lat="45.61648" lon="5.27373">
        <ele>223</ele>
        <time>2022-04-16T10:53:33.848Z</time>
      </trkpt>
      <trkpt lat="45.61643" lon="5.2737">
        <ele>223</ele>
        <time>2022-04-16T10:53:34.849Z</time>
      </trkpt>
      <trkpt lat="45.61638" lon="5.27367">
        <ele>222</ele>
        <time>2022-04-16T10:53:35.849Z</time>
      </trkpt>
      <trkpt lat="45.61634" lon="5.27365">
        <ele>222</ele>
        <time>2022-04-16T10:53:36.848Z</time>
      </trkpt>
      <trkpt lat="45.61629" lon="5.27363">
        <ele>222</ele>
        <time>2022-04-16T10:53:37.848Z</time>
      </trkpt>
      <trkpt lat="45.61624" lon="5.27361">
        <ele>223</ele>
        <time>2022-04-16T10:53:38.849Z</time>
      </trkpt>
      <trkpt lat="45.6162" lon="5.27358">
        <ele>223</ele>
        <time>2022-04-16T10:53:39.849Z</time>
      </trkpt>
      <trkpt lat="45.61615" lon="5.27356">
        <ele>223</ele>
        <time>2022-04-16T10:53:40.849Z</time>
      </trkpt>
      <trkpt lat="45.6161" lon="5.27353">
        <ele>223</ele>
        <time>2022-04-16T10:53:41.849Z</time>
      </trkpt>
      <trkpt lat="45.61606" lon="5.27351">
        <ele>223</ele>
        <time>2022-04-16T10:53:42.849Z</time>
      </trkpt>
      <trkpt lat="45.61601" lon="5.27348">
        <ele>223</ele>
        <time>2022-04-16T10:53:43.849Z</time>
      </trkpt>
      <trkpt lat="45.61596" lon="5.27345">
        <ele>223</ele>
        <time>2022-04-16T10:53:44.848Z</time>
      </trkpt>
      <trkpt lat="45.61591" lon="5.27342">
        <ele>224</ele>
        <time>2022-04-16T10:53:45.849Z</time>
      </trkpt>
      <trkpt lat="45.61585" lon="5.27339">
        <ele>224</ele>
        <time>2022-04-16T10:53:46.849Z</time>
      </trkpt>
      <trkpt lat="45.61581" lon="5.27336">
        <ele>224</ele>
        <time>2022-04-16T10:53:47.848Z</time>
      </trkpt>
      <trkpt lat="45.61576" lon="5.27333">
        <ele>224</ele>
        <time>2022-04-16T10:53:48.849Z</time>
      </trkpt>
      <trkpt lat="45.61572" lon="5.27332">
        <ele>224</ele>
        <time>2022-04-16T10:53:49.849Z</time>
      </trkpt>
      <trkpt lat="45.61567" lon="5.27332">
        <ele>224</ele>
        <time>2022-04-16T10:53:50.849Z</time>
      </trkpt>
      <trkpt lat="45.61563" lon="5.27335">
        <ele>224</ele>
        <time>2022-04-16T10:53:51.848Z</time>
      </trkpt>
      <trkpt lat="45.61561" lon="5.27339">
        <ele>224</ele>
        <time>2022-04-16T10:53:52.849Z</time>
      </trkpt>
      <trkpt lat="45.6156" lon="5.27344">
        <ele>224</ele>
        <time>2022-04-16T10:53:53.849Z</time>
      </trkpt>
      <trkpt lat="45.61559" lon="5.27349">
        <ele>224</ele>
        <time>2022-04-16T10:53:54.849Z</time>
      </trkpt>
      <trkpt lat="45.61558" lon="5.27355">
        <ele>224</ele>
        <time>2022-04-16T10:53:55.848Z</time>
      </trkpt>
      <trkpt lat="45.61557" lon="5.2736">
        <ele>224</ele>
        <time>2022-04-16T10:53:56.848Z</time>
      </trkpt>
      <trkpt lat="45.61556" lon="5.27366">
        <ele>224</ele>
        <time>2022-04-16T10:53:57.849Z</time>
      </trkpt>
      <trkpt lat="45.61555" lon="5.27372">
        <ele>224</ele>
        <time>2022-04-16T10:53:58.849Z</time>
      </trkpt>
      <trkpt lat="45.61554" lon="5.27379">
        <ele>224</ele>
        <time>2022-04-16T10:53:59.849Z</time>
      </trkpt>
      <trkpt lat="45.61553" lon="5.27385">
        <ele>224</ele>
        <time>2022-04-16T10:54:00.849Z</time>
      </trkpt>
      <trkpt lat="45.61553" lon="5.2739">
        <ele>224</ele>
        <time>2022-04-16T10:54:01.848Z</time>
      </trkpt>
      <trkpt lat="45.61552" lon="5.27396">
        <ele>224</ele>
        <time>2022-04-16T10:54:02.848Z</time>
      </trkpt>
      <trkpt lat="45.61551" lon="5.27401">
        <ele>224</ele>
        <time>2022-04-16T10:54:03.849Z</time>
      </trkpt>
      <trkpt lat="45.6155" lon="5.27407">
        <ele>224</ele>
        <time>2022-04-16T10:54:04.849Z</time>
      </trkpt>
      <trkpt lat="45.6155" lon="5.27413">
        <ele>224</ele>
        <time>2022-04-16T10:54:05.849Z</time>
      </trkpt>
      <trkpt lat="45.61549" lon="5.27418">
        <ele>224</ele>
        <time>2022-04-16T10:54:06.849Z</time>
      </trkpt>
      <trkpt lat="45.61548" lon="5.27424">
        <ele>224</ele>
        <time>2022-04-16T10:54:07.848Z</time>
      </trkpt>
      <trkpt lat="45.61547" lon="5.27429">
        <ele>224</ele>
        <time>2022-04-16T10:54:08.849Z</time>
      </trkpt>
      <trkpt lat="45.61546" lon="5.27434">
        <ele>224</ele>
        <time>2022-04-16T10:54:09.849Z</time>
      </trkpt>
      <trkpt lat="45.61545" lon="5.2744">
        <ele>224</ele>
        <time>2022-04-16T10:54:10.849Z</time>
      </trkpt>
      <trkpt lat="45.61545" lon="5.27445">
        <ele>224</ele>
        <time>2022-04-16T10:54:11.849Z</time>
      </trkpt>
      <trkpt lat="45.61544" lon="5.2745">
        <ele>225</ele>
        <time>2022-04-16T10:54:12.849Z</time>
      </trkpt>
      <trkpt lat="45.61543" lon="5.27455">
        <ele>226</ele>
        <time>2022-04-16T10:54:13.849Z</time>
      </trkpt>
      <trkpt lat="45.61543" lon="5.2746">
        <ele>226</ele>
        <time>2022-04-16T10:54:14.849Z</time>
      </trkpt>
      <trkpt lat="45.61542" lon="5.27465">
        <ele>226</ele>
        <time>2022-04-16T10:54:15.848Z</time>
      </trkpt>
      <trkpt lat="45.61542" lon="5.2747">
        <ele>226</ele>
        <time>2022-04-16T10:54:16.849Z</time>
      </trkpt>
      <trkpt lat="45.61541" lon="5.27475">
        <ele>226</ele>
        <time>2022-04-16T10:54:17.849Z</time>
      </trkpt>
      <trkpt lat="45.6154" lon="5.27479">
        <ele>226</ele>
        <time>2022-04-16T10:54:18.849Z</time>
      </trkpt>
      <trkpt lat="45.61538" lon="5.27482">
        <ele>226</ele>
        <time>2022-04-16T10:54:19.849Z</time>
      </trkpt>
      <trkpt lat="45.61535" lon="5.27484">
        <ele>226</ele>
        <time>2022-04-16T10:54:20.849Z</time>
      </trkpt>
      <trkpt lat="45.61533" lon="5.27485">
        <ele>226</ele>
        <time>2022-04-16T10:54:21.849Z</time>
      </trkpt>
      <trkpt lat="45.6153" lon="5.27485">
        <ele>226</ele>
        <time>2022-04-16T10:54:22.849Z</time>
      </trkpt>
      <trkpt lat="45.61527" lon="5.27484">
        <ele>226</ele>
        <time>2022-04-16T10:54:23.849Z</time>
      </trkpt>
      <trkpt lat="45.61524" lon="5.27483">
        <ele>227</ele>
        <time>2022-04-16T10:54:24.849Z</time>
      </trkpt>
      <trkpt lat="45.61521" lon="5.27482">
        <ele>227</ele>
        <time>2022-04-16T10:54:25.849Z</time>
      </trkpt>
      <trkpt lat="45.61518" lon="5.27481">
        <ele>227</ele>
        <time>2022-04-16T10:54:26.848Z</time>
      </trkpt>
      <trkpt lat="45.61515" lon="5.2748">
        <ele>227</ele>
        <time>2022-04-16T10:54:27.849Z</time>
      </trkpt>
      <trkpt lat="45.61512" lon="5.27479">
        <ele>227</ele>
        <time>2022-04-16T10:54:28.849Z</time>
      </trkpt>
      <trkpt lat="45.61509" lon="5.27477">
        <ele>227</ele>
        <time>2022-04-16T10:54:29.849Z</time>
      </trkpt>
      <trkpt lat="45.61506" lon="5.27476">
        <ele>227</ele>
        <time>2022-04-16T10:54:30.849Z</time>
      </trkpt>
      <trkpt lat="45.61503" lon="5.27475">
        <ele>227</ele>
        <time>2022-04-16T10:54:31.849Z</time>
      </trkpt>
      <trkpt lat="45.615" lon="5.27473">
        <ele>227</ele>
        <time>2022-04-16T10:54:32.849Z</time>
      </trkpt>
      <trkpt lat="45.61498" lon="5.27473">
        <ele>227</ele>
        <time>2022-04-16T10:54:33.848Z</time>
      </trkpt>
      <trkpt lat="45.61496" lon="5.27472">
        <ele>227</ele>
        <time>2022-04-16T10:54:34.848Z</time>
      </trkpt>
      <trkpt lat="45.61495" lon="5.27472">
        <ele>228</ele>
        <time>2022-04-16T10:54:35.849Z</time>
      </trkpt>
      <trkpt lat="45.61495" lon="5.27473">
        <ele>227</ele>
        <time>2022-04-16T10:54:36.849Z</time>
      </trkpt>
      <trkpt lat="45.61495" lon="5.27473">
        <ele>227</ele>
        <time>2022-04-16T10:54:37.849Z</time>
      </trkpt>
      <trkpt lat="45.61495" lon="5.27473">
        <ele>227</ele>
        <time>2022-04-16T10:54:38.849Z</time>
      </trkpt>
    </trkseg>
  </trk>
</gpx>